<?xml version="1.0" encoding="UTF-8"?>
<gpx version="1.1" creator="https://www.youtrack.es" xsi:schemaLocation="http://www.topografix.com/GPX/1/1 http://www.topografix.com/GPX/1/1/gpx.xsd http://www.garmin.com/xmlschemas/GpxExtensions/v3 http://www.garmin.com/xmlschemas/GpxExtensionsv3.xsd http://www.garmin.com/xmlschemas/TrackPointExtension/v1 http://www.garmin.com/xmlschemas/TrackPointExtensionv1.xsd" xmlns:gpxtpx="http://www.garmin.com/xmlschemas/TrackPointExtension/v1" xmlns:gpxx="http://www.garmin.com/xmlschemas/GpxExtensions/v3" xmlns:xsi="http://www.w3.org/2001/XMLSchema-instance">
  <metadata>
    <link href="https://www.youtrack.es">
      <text>YouTrack.es</text>
    </link>
    <time>2026-05-08T08:47:20Z</time>
  </metadata>
  <trk>
    <src>https://www.youtrack.es</src>
    <link href="https://www.youtrack.es/ruta/16745-volta-valles-oriental-btt">
      <text>YouTrack.es</text>
    </link>
    <trkseg>
      <trkpt lat="41.619030" lon="2.087271">
        <ele>395.03</ele>
        <time>2016-04-10T05:08:15Z</time>
      </trkpt>
      <trkpt lat="41.619164" lon="2.087341">
        <ele>393.56</ele>
        <time>2016-04-10T05:08:26Z</time>
      </trkpt>
      <trkpt lat="41.619205" lon="2.087348">
        <ele>393.21</ele>
        <time>2016-04-10T05:08:29Z</time>
      </trkpt>
      <trkpt lat="41.619247" lon="2.087408">
        <ele>392.31</ele>
        <time>2016-04-10T05:08:33Z</time>
      </trkpt>
      <trkpt lat="41.619267" lon="2.087429">
        <ele>391.43</ele>
        <time>2016-04-10T05:08:35Z</time>
      </trkpt>
      <trkpt lat="41.619366" lon="2.087491">
        <ele>391.15</ele>
        <time>2016-04-10T05:08:40Z</time>
      </trkpt>
      <trkpt lat="41.619392" lon="2.087543">
        <ele>392.33</ele>
        <time>2016-04-10T05:08:45Z</time>
      </trkpt>
      <trkpt lat="41.619366" lon="2.087626">
        <ele>395.63</ele>
        <time>2016-04-10T05:08:47Z</time>
      </trkpt>
      <trkpt lat="41.619404" lon="2.087697">
        <ele>395.04</ele>
        <time>2016-04-10T05:08:52Z</time>
      </trkpt>
      <trkpt lat="41.619488" lon="2.087739">
        <ele>397.22</ele>
        <time>2016-04-10T05:08:54Z</time>
      </trkpt>
      <trkpt lat="41.619728" lon="2.087811">
        <ele>400.85</ele>
        <time>2016-04-10T05:09:01Z</time>
      </trkpt>
      <trkpt lat="41.619759" lon="2.087820">
        <ele>399.90</ele>
        <time>2016-04-10T05:09:04Z</time>
      </trkpt>
      <trkpt lat="41.619965" lon="2.087880">
        <ele>393.51</ele>
        <time>2016-04-10T05:09:16Z</time>
      </trkpt>
      <trkpt lat="41.620277" lon="2.088028">
        <ele>398.41</ele>
        <time>2016-04-10T05:09:39Z</time>
      </trkpt>
      <trkpt lat="41.620327" lon="2.087968">
        <ele>398.49</ele>
        <time>2016-04-10T05:09:41Z</time>
      </trkpt>
      <trkpt lat="41.620399" lon="2.087888">
        <ele>398.42</ele>
        <time>2016-04-10T05:09:48Z</time>
      </trkpt>
      <trkpt lat="41.620430" lon="2.087889">
        <ele>398.44</ele>
        <time>2016-04-10T05:09:51Z</time>
      </trkpt>
      <trkpt lat="41.620537" lon="2.087972">
        <ele>398.42</ele>
        <time>2016-04-10T05:09:55Z</time>
      </trkpt>
      <trkpt lat="41.620823" lon="2.088454">
        <ele>397.57</ele>
        <time>2016-04-10T05:10:03Z</time>
      </trkpt>
      <trkpt lat="41.620930" lon="2.088561">
        <ele>398.43</ele>
        <time>2016-04-10T05:10:07Z</time>
      </trkpt>
      <trkpt lat="41.621056" lon="2.088570">
        <ele>398.49</ele>
        <time>2016-04-10T05:10:12Z</time>
      </trkpt>
      <trkpt lat="41.621265" lon="2.088481">
        <ele>398.46</ele>
        <time>2016-04-10T05:10:19Z</time>
      </trkpt>
      <trkpt lat="41.621292" lon="2.088474">
        <ele>399.33</ele>
        <time>2016-04-10T05:10:21Z</time>
      </trkpt>
      <trkpt lat="41.621372" lon="2.088467">
        <ele>398.45</ele>
        <time>2016-04-10T05:10:24Z</time>
      </trkpt>
      <trkpt lat="41.621433" lon="2.088475">
        <ele>398.41</ele>
        <time>2016-04-10T05:10:26Z</time>
      </trkpt>
      <trkpt lat="41.621456" lon="2.088475">
        <ele>398.41</ele>
        <time>2016-04-10T05:10:28Z</time>
      </trkpt>
      <trkpt lat="41.621536" lon="2.088484">
        <ele>398.49</ele>
        <time>2016-04-10T05:10:31Z</time>
      </trkpt>
      <trkpt lat="41.621845" lon="2.088637">
        <ele>400.89</ele>
        <time>2016-04-10T05:10:49Z</time>
      </trkpt>
      <trkpt lat="41.621956" lon="2.088732">
        <ele>403.99</ele>
        <time>2016-04-10T05:10:54Z</time>
      </trkpt>
      <trkpt lat="41.621979" lon="2.088730">
        <ele>404.87</ele>
        <time>2016-04-10T05:10:56Z</time>
      </trkpt>
      <trkpt lat="41.622070" lon="2.088664">
        <ele>405.11</ele>
        <time>2016-04-10T05:11:01Z</time>
      </trkpt>
      <trkpt lat="41.622459" lon="2.088331">
        <ele>406.04</ele>
        <time>2016-04-10T05:11:20Z</time>
      </trkpt>
      <trkpt lat="41.622837" lon="2.088153">
        <ele>406.36</ele>
        <time>2016-04-10T05:11:34Z</time>
      </trkpt>
      <trkpt lat="41.622864" lon="2.088155">
        <ele>406.32</ele>
        <time>2016-04-10T05:11:36Z</time>
      </trkpt>
      <trkpt lat="41.623314" lon="2.088243">
        <ele>411.83</ele>
        <time>2016-04-10T05:11:57Z</time>
      </trkpt>
      <trkpt lat="41.623791" lon="2.088396">
        <ele>412.41</ele>
        <time>2016-04-10T05:12:19Z</time>
      </trkpt>
      <trkpt lat="41.623936" lon="2.088435">
        <ele>410.91</ele>
        <time>2016-04-10T05:12:26Z</time>
      </trkpt>
      <trkpt lat="41.623955" lon="2.088439">
        <ele>410.92</ele>
        <time>2016-04-10T05:12:28Z</time>
      </trkpt>
      <trkpt lat="41.624107" lon="2.088466">
        <ele>410.09</ele>
        <time>2016-04-10T05:12:35Z</time>
      </trkpt>
      <trkpt lat="41.624157" lon="2.088487">
        <ele>410.07</ele>
        <time>2016-04-10T05:12:37Z</time>
      </trkpt>
      <trkpt lat="41.624599" lon="2.088715">
        <ele>414.82</ele>
        <time>2016-04-10T05:12:54Z</time>
      </trkpt>
      <trkpt lat="41.625015" lon="2.088960">
        <ele>417.38</ele>
        <time>2016-04-10T05:13:08Z</time>
      </trkpt>
      <trkpt lat="41.625443" lon="2.089187">
        <ele>417.37</ele>
        <time>2016-04-10T05:13:24Z</time>
      </trkpt>
      <trkpt lat="41.625877" lon="2.089429">
        <ele>417.62</ele>
        <time>2016-04-10T05:13:43Z</time>
      </trkpt>
      <trkpt lat="41.626328" lon="2.089660">
        <ele>418.53</ele>
        <time>2016-04-10T05:14:04Z</time>
      </trkpt>
      <trkpt lat="41.626431" lon="2.089684">
        <ele>418.85</ele>
        <time>2016-04-10T05:14:09Z</time>
      </trkpt>
      <trkpt lat="41.626869" lon="2.089524">
        <ele>420.96</ele>
        <time>2016-04-10T05:14:32Z</time>
      </trkpt>
      <trkpt lat="41.626942" lon="2.089519">
        <ele>421.81</ele>
        <time>2016-04-10T05:14:35Z</time>
      </trkpt>
      <trkpt lat="41.626961" lon="2.089524">
        <ele>421.82</ele>
        <time>2016-04-10T05:14:37Z</time>
      </trkpt>
      <trkpt lat="41.627090" lon="2.089573">
        <ele>422.20</ele>
        <time>2016-04-10T05:14:44Z</time>
      </trkpt>
      <trkpt lat="41.627117" lon="2.089585">
        <ele>422.15</ele>
        <time>2016-04-10T05:14:46Z</time>
      </trkpt>
      <trkpt lat="41.627350" lon="2.089662">
        <ele>422.11</ele>
        <time>2016-04-10T05:14:56Z</time>
      </trkpt>
      <trkpt lat="41.627388" lon="2.089666">
        <ele>422.13</ele>
        <time>2016-04-10T05:14:58Z</time>
      </trkpt>
      <trkpt lat="41.627415" lon="2.089670">
        <ele>422.15</ele>
        <time>2016-04-10T05:15:00Z</time>
      </trkpt>
      <trkpt lat="41.627598" lon="2.089738">
        <ele>423.44</ele>
        <time>2016-04-10T05:15:08Z</time>
      </trkpt>
      <trkpt lat="41.627617" lon="2.089773">
        <ele>423.44</ele>
        <time>2016-04-10T05:15:10Z</time>
      </trkpt>
      <trkpt lat="41.627644" lon="2.089792">
        <ele>423.46</ele>
        <time>2016-04-10T05:15:12Z</time>
      </trkpt>
      <trkpt lat="41.627907" lon="2.089938">
        <ele>418.51</ele>
        <time>2016-04-10T05:15:34Z</time>
      </trkpt>
      <trkpt lat="41.627934" lon="2.089939">
        <ele>418.54</ele>
        <time>2016-04-10T05:15:36Z</time>
      </trkpt>
      <trkpt lat="41.628036" lon="2.089939">
        <ele>418.30</ele>
        <time>2016-04-10T05:15:41Z</time>
      </trkpt>
      <trkpt lat="41.628059" lon="2.089934">
        <ele>418.23</ele>
        <time>2016-04-10T05:15:43Z</time>
      </trkpt>
      <trkpt lat="41.628506" lon="2.089743">
        <ele>423.48</ele>
        <time>2016-04-10T05:15:59Z</time>
      </trkpt>
      <trkpt lat="41.628815" lon="2.089694">
        <ele>424.98</ele>
        <time>2016-04-10T05:16:13Z</time>
      </trkpt>
      <trkpt lat="41.628826" lon="2.089695">
        <ele>425.88</ele>
        <time>2016-04-10T05:16:16Z</time>
      </trkpt>
      <trkpt lat="41.628864" lon="2.089731">
        <ele>426.17</ele>
        <time>2016-04-10T05:16:18Z</time>
      </trkpt>
      <trkpt lat="41.628895" lon="2.089731">
        <ele>426.45</ele>
        <time>2016-04-10T05:16:21Z</time>
      </trkpt>
      <trkpt lat="41.629082" lon="2.089655">
        <ele>427.37</ele>
        <time>2016-04-10T05:16:34Z</time>
      </trkpt>
      <trkpt lat="41.629230" lon="2.089758">
        <ele>426.10</ele>
        <time>2016-04-10T05:16:44Z</time>
      </trkpt>
      <trkpt lat="41.629284" lon="2.089836">
        <ele>428.52</ele>
        <time>2016-04-10T05:16:48Z</time>
      </trkpt>
      <trkpt lat="41.629292" lon="2.089858">
        <ele>426.41</ele>
        <time>2016-04-10T05:16:51Z</time>
      </trkpt>
      <trkpt lat="41.629414" lon="2.090033">
        <ele>431.05</ele>
        <time>2016-04-10T05:17:00Z</time>
      </trkpt>
      <trkpt lat="41.629440" lon="2.090032">
        <ele>429.89</ele>
        <time>2016-04-10T05:17:03Z</time>
      </trkpt>
      <trkpt lat="41.629486" lon="2.090051">
        <ele>430.75</ele>
        <time>2016-04-10T05:17:05Z</time>
      </trkpt>
      <trkpt lat="41.629513" lon="2.090044">
        <ele>430.13</ele>
        <time>2016-04-10T05:17:07Z</time>
      </trkpt>
      <trkpt lat="41.629581" lon="2.090014">
        <ele>429.84</ele>
        <time>2016-04-10T05:17:12Z</time>
      </trkpt>
      <trkpt lat="41.630054" lon="2.089895">
        <ele>438.67</ele>
        <time>2016-04-10T05:17:31Z</time>
      </trkpt>
      <trkpt lat="41.630505" lon="2.089739">
        <ele>440.75</ele>
        <time>2016-04-10T05:17:50Z</time>
      </trkpt>
      <trkpt lat="41.630947" lon="2.089525">
        <ele>449.95</ele>
        <time>2016-04-10T05:18:11Z</time>
      </trkpt>
      <trkpt lat="41.631393" lon="2.089345">
        <ele>453.81</ele>
        <time>2016-04-10T05:18:34Z</time>
      </trkpt>
      <trkpt lat="41.631477" lon="2.089363">
        <ele>453.82</ele>
        <time>2016-04-10T05:18:37Z</time>
      </trkpt>
      <trkpt lat="41.631531" lon="2.089404">
        <ele>453.86</ele>
        <time>2016-04-10T05:18:39Z</time>
      </trkpt>
      <trkpt lat="41.631630" lon="2.089453">
        <ele>455.73</ele>
        <time>2016-04-10T05:18:46Z</time>
      </trkpt>
      <trkpt lat="41.631733" lon="2.089616">
        <ele>455.13</ele>
        <time>2016-04-10T05:18:53Z</time>
      </trkpt>
      <trkpt lat="41.631756" lon="2.089671">
        <ele>456.06</ele>
        <time>2016-04-10T05:18:55Z</time>
      </trkpt>
      <trkpt lat="41.631996" lon="2.089958">
        <ele>459.97</ele>
        <time>2016-04-10T05:19:12Z</time>
      </trkpt>
      <trkpt lat="41.632038" lon="2.089962">
        <ele>460.98</ele>
        <time>2016-04-10T05:19:14Z</time>
      </trkpt>
      <trkpt lat="41.632145" lon="2.089909">
        <ele>462.44</ele>
        <time>2016-04-10T05:19:23Z</time>
      </trkpt>
      <trkpt lat="41.632332" lon="2.089804">
        <ele>467.66</ele>
        <time>2016-04-10T05:19:38Z</time>
      </trkpt>
      <trkpt lat="41.632484" lon="2.089824">
        <ele>470.01</ele>
        <time>2016-04-10T05:19:45Z</time>
      </trkpt>
      <trkpt lat="41.632545" lon="2.089833">
        <ele>470.62</ele>
        <time>2016-04-10T05:19:47Z</time>
      </trkpt>
      <trkpt lat="41.632618" lon="2.089849">
        <ele>472.12</ele>
        <time>2016-04-10T05:19:49Z</time>
      </trkpt>
      <trkpt lat="41.632736" lon="2.089876">
        <ele>474.39</ele>
        <time>2016-04-10T05:19:57Z</time>
      </trkpt>
      <trkpt lat="41.632767" lon="2.089872">
        <ele>474.98</ele>
        <time>2016-04-10T05:19:59Z</time>
      </trkpt>
      <trkpt lat="41.633121" lon="2.089986">
        <ele>485.95</ele>
        <time>2016-04-10T05:20:17Z</time>
      </trkpt>
      <trkpt lat="41.633106" lon="2.089956">
        <ele>485.94</ele>
        <time>2016-04-10T05:20:18Z</time>
      </trkpt>
      <trkpt lat="41.633121" lon="2.089913">
        <ele>485.96</ele>
        <time>2016-04-10T05:20:22Z</time>
      </trkpt>
      <trkpt lat="41.633152" lon="2.089924">
        <ele>485.94</ele>
        <time>2016-04-10T05:20:24Z</time>
      </trkpt>
      <trkpt lat="41.633236" lon="2.090000">
        <ele>487.42</ele>
        <time>2016-04-10T05:20:27Z</time>
      </trkpt>
      <trkpt lat="41.633289" lon="2.090013">
        <ele>487.41</ele>
        <time>2016-04-10T05:20:29Z</time>
      </trkpt>
      <trkpt lat="41.633339" lon="2.090045">
        <ele>487.45</ele>
        <time>2016-04-10T05:20:32Z</time>
      </trkpt>
      <trkpt lat="41.633488" lon="2.090117">
        <ele>488.67</ele>
        <time>2016-04-10T05:20:36Z</time>
      </trkpt>
      <trkpt lat="41.633774" lon="2.090372">
        <ele>491.37</ele>
        <time>2016-04-10T05:20:53Z</time>
      </trkpt>
      <trkpt lat="41.633797" lon="2.090391">
        <ele>491.32</ele>
        <time>2016-04-10T05:20:55Z</time>
      </trkpt>
      <trkpt lat="41.633808" lon="2.090399">
        <ele>491.35</ele>
        <time>2016-04-10T05:20:57Z</time>
      </trkpt>
      <trkpt lat="41.633957" lon="2.090548">
        <ele>492.32</ele>
        <time>2016-04-10T05:21:07Z</time>
      </trkpt>
      <trkpt lat="41.633999" lon="2.090702">
        <ele>491.07</ele>
        <time>2016-04-10T05:21:14Z</time>
      </trkpt>
      <trkpt lat="41.634026" lon="2.090719">
        <ele>490.76</ele>
        <time>2016-04-10T05:21:16Z</time>
      </trkpt>
      <trkpt lat="41.634094" lon="2.090686">
        <ele>489.88</ele>
        <time>2016-04-10T05:21:19Z</time>
      </trkpt>
      <trkpt lat="41.634327" lon="2.090609">
        <ele>487.43</ele>
        <time>2016-04-10T05:21:30Z</time>
      </trkpt>
      <trkpt lat="41.634422" lon="2.090602">
        <ele>487.42</ele>
        <time>2016-04-10T05:21:37Z</time>
      </trkpt>
      <trkpt lat="41.634502" lon="2.090595">
        <ele>489.81</ele>
        <time>2016-04-10T05:21:40Z</time>
      </trkpt>
      <trkpt lat="41.634529" lon="2.090623">
        <ele>489.86</ele>
        <time>2016-04-10T05:21:42Z</time>
      </trkpt>
      <trkpt lat="41.634594" lon="2.090635">
        <ele>491.07</ele>
        <time>2016-04-10T05:21:45Z</time>
      </trkpt>
      <trkpt lat="41.634659" lon="2.090639">
        <ele>488.62</ele>
        <time>2016-04-10T05:21:51Z</time>
      </trkpt>
      <trkpt lat="41.634686" lon="2.090640">
        <ele>487.44</ele>
        <time>2016-04-10T05:21:52Z</time>
      </trkpt>
      <trkpt lat="41.634903" lon="2.090662">
        <ele>488.65</ele>
        <time>2016-04-10T05:22:01Z</time>
      </trkpt>
      <trkpt lat="41.634945" lon="2.090657">
        <ele>488.67</ele>
        <time>2016-04-10T05:22:03Z</time>
      </trkpt>
      <trkpt lat="41.634964" lon="2.090662">
        <ele>488.63</ele>
        <time>2016-04-10T05:22:05Z</time>
      </trkpt>
      <trkpt lat="41.635040" lon="2.090700">
        <ele>487.41</ele>
        <time>2016-04-10T05:22:08Z</time>
      </trkpt>
      <trkpt lat="41.635082" lon="2.090712">
        <ele>485.96</ele>
        <time>2016-04-10T05:22:10Z</time>
      </trkpt>
      <trkpt lat="41.635399" lon="2.090695">
        <ele>487.44</ele>
        <time>2016-04-10T05:22:24Z</time>
      </trkpt>
      <trkpt lat="41.635414" lon="2.090674">
        <ele>488.94</ele>
        <time>2016-04-10T05:22:27Z</time>
      </trkpt>
      <trkpt lat="41.635502" lon="2.090730">
        <ele>485.93</ele>
        <time>2016-04-10T05:22:31Z</time>
      </trkpt>
      <trkpt lat="41.635700" lon="2.090843">
        <ele>487.47</ele>
        <time>2016-04-10T05:22:41Z</time>
      </trkpt>
      <trkpt lat="41.635715" lon="2.090845">
        <ele>486.81</ele>
        <time>2016-04-10T05:22:43Z</time>
      </trkpt>
      <trkpt lat="41.635738" lon="2.090847">
        <ele>487.42</ele>
        <time>2016-04-10T05:22:45Z</time>
      </trkpt>
      <trkpt lat="41.635769" lon="2.090866">
        <ele>486.83</ele>
        <time>2016-04-10T05:22:48Z</time>
      </trkpt>
      <trkpt lat="41.635811" lon="2.090842">
        <ele>488.31</ele>
        <time>2016-04-10T05:22:52Z</time>
      </trkpt>
      <trkpt lat="41.635895" lon="2.090810">
        <ele>488.31</ele>
        <time>2016-04-10T05:22:57Z</time>
      </trkpt>
      <trkpt lat="41.635906" lon="2.090798">
        <ele>488.32</ele>
        <time>2016-04-10T05:22:59Z</time>
      </trkpt>
      <trkpt lat="41.635918" lon="2.090798">
        <ele>488.32</ele>
        <time>2016-04-10T05:23:00Z</time>
      </trkpt>
      <trkpt lat="41.635956" lon="2.090787">
        <ele>488.66</ele>
        <time>2016-04-10T05:23:02Z</time>
      </trkpt>
      <trkpt lat="41.636051" lon="2.090728">
        <ele>488.93</ele>
        <time>2016-04-10T05:23:06Z</time>
      </trkpt>
      <trkpt lat="41.636097" lon="2.090712">
        <ele>486.84</ele>
        <time>2016-04-10T05:23:07Z</time>
      </trkpt>
      <trkpt lat="41.636379" lon="2.090272">
        <ele>499.97</ele>
        <time>2016-04-10T05:23:25Z</time>
      </trkpt>
      <trkpt lat="41.636486" lon="2.090124">
        <ele>506.05</ele>
        <time>2016-04-10T05:23:33Z</time>
      </trkpt>
      <trkpt lat="41.636559" lon="2.090079">
        <ele>507.55</ele>
        <time>2016-04-10T05:23:40Z</time>
      </trkpt>
      <trkpt lat="41.636593" lon="2.090070">
        <ele>508.11</ele>
        <time>2016-04-10T05:23:42Z</time>
      </trkpt>
      <trkpt lat="41.636665" lon="2.090025">
        <ele>510.81</ele>
        <time>2016-04-10T05:23:51Z</time>
      </trkpt>
      <trkpt lat="41.636688" lon="2.090028">
        <ele>510.90</ele>
        <time>2016-04-10T05:23:54Z</time>
      </trkpt>
      <trkpt lat="41.636726" lon="2.090023">
        <ele>512.46</ele>
        <time>2016-04-10T05:23:56Z</time>
      </trkpt>
      <trkpt lat="41.636921" lon="2.090093">
        <ele>516.36</ele>
        <time>2016-04-10T05:24:05Z</time>
      </trkpt>
      <trkpt lat="41.637074" lon="2.090280">
        <ele>520.32</ele>
        <time>2016-04-10T05:24:17Z</time>
      </trkpt>
      <trkpt lat="41.637093" lon="2.090346">
        <ele>516.62</ele>
        <time>2016-04-10T05:24:22Z</time>
      </trkpt>
      <trkpt lat="41.637115" lon="2.090530">
        <ele>514.81</ele>
        <time>2016-04-10T05:24:29Z</time>
      </trkpt>
      <trkpt lat="41.637112" lon="2.090574">
        <ele>514.86</ele>
        <time>2016-04-10T05:24:31Z</time>
      </trkpt>
      <trkpt lat="41.637100" lon="2.090623">
        <ele>514.87</ele>
        <time>2016-04-10T05:24:34Z</time>
      </trkpt>
      <trkpt lat="41.637119" lon="2.090675">
        <ele>514.88</ele>
        <time>2016-04-10T05:24:36Z</time>
      </trkpt>
      <trkpt lat="41.637184" lon="2.090723">
        <ele>514.81</ele>
        <time>2016-04-10T05:24:38Z</time>
      </trkpt>
      <trkpt lat="41.637245" lon="2.090721">
        <ele>514.81</ele>
        <time>2016-04-10T05:24:41Z</time>
      </trkpt>
      <trkpt lat="41.637341" lon="2.090738">
        <ele>512.46</ele>
        <time>2016-04-10T05:24:43Z</time>
      </trkpt>
      <trkpt lat="41.637383" lon="2.090735">
        <ele>510.82</ele>
        <time>2016-04-10T05:24:45Z</time>
      </trkpt>
      <trkpt lat="41.637524" lon="2.090711">
        <ele>510.88</ele>
        <time>2016-04-10T05:24:52Z</time>
      </trkpt>
      <trkpt lat="41.637585" lon="2.090707">
        <ele>510.83</ele>
        <time>2016-04-10T05:24:55Z</time>
      </trkpt>
      <trkpt lat="41.637611" lon="2.090732">
        <ele>511.82</ele>
        <time>2016-04-10T05:24:57Z</time>
      </trkpt>
      <trkpt lat="41.637703" lon="2.090750">
        <ele>512.45</ele>
        <time>2016-04-10T05:24:59Z</time>
      </trkpt>
      <trkpt lat="41.637760" lon="2.090780">
        <ele>513.08</ele>
        <time>2016-04-10T05:25:02Z</time>
      </trkpt>
      <trkpt lat="41.637856" lon="2.090781">
        <ele>513.30</ele>
        <time>2016-04-10T05:25:06Z</time>
      </trkpt>
      <trkpt lat="41.637882" lon="2.090786">
        <ele>514.21</ele>
        <time>2016-04-10T05:25:09Z</time>
      </trkpt>
      <trkpt lat="41.638039" lon="2.090842">
        <ele>512.41</ele>
        <time>2016-04-10T05:25:18Z</time>
      </trkpt>
      <trkpt lat="41.638287" lon="2.090786">
        <ele>516.63</ele>
        <time>2016-04-10T05:25:30Z</time>
      </trkpt>
      <trkpt lat="41.638309" lon="2.090796">
        <ele>517.28</ele>
        <time>2016-04-10T05:25:32Z</time>
      </trkpt>
      <trkpt lat="41.638401" lon="2.090785">
        <ele>518.85</ele>
        <time>2016-04-10T05:25:37Z</time>
      </trkpt>
      <trkpt lat="41.638439" lon="2.090764">
        <ele>517.99</ele>
        <time>2016-04-10T05:25:42Z</time>
      </trkpt>
      <trkpt lat="41.638462" lon="2.090767">
        <ele>519.16</ele>
        <time>2016-04-10T05:25:44Z</time>
      </trkpt>
      <trkpt lat="41.638527" lon="2.090778">
        <ele>520.32</ele>
        <time>2016-04-10T05:25:49Z</time>
      </trkpt>
      <trkpt lat="41.638676" lon="2.090751">
        <ele>520.34</ele>
        <time>2016-04-10T05:25:58Z</time>
      </trkpt>
      <trkpt lat="41.638706" lon="2.090744">
        <ele>518.89</ele>
        <time>2016-04-10T05:26:00Z</time>
      </trkpt>
      <trkpt lat="41.638813" lon="2.090589">
        <ele>517.61</ele>
        <time>2016-04-10T05:26:10Z</time>
      </trkpt>
      <trkpt lat="41.638943" lon="2.090541">
        <ele>511.81</ele>
        <time>2016-04-10T05:26:15Z</time>
      </trkpt>
      <trkpt lat="41.638958" lon="2.090524">
        <ele>511.88</ele>
        <time>2016-04-10T05:26:17Z</time>
      </trkpt>
      <trkpt lat="41.639221" lon="2.090347">
        <ele>522.18</ele>
        <time>2016-04-10T05:26:29Z</time>
      </trkpt>
      <trkpt lat="41.639404" lon="2.090179">
        <ele>527.93</ele>
        <time>2016-04-10T05:26:38Z</time>
      </trkpt>
      <trkpt lat="41.639618" lon="2.090050">
        <ele>531.64</ele>
        <time>2016-04-10T05:26:45Z</time>
      </trkpt>
      <trkpt lat="41.639679" lon="2.090053">
        <ele>527.37</ele>
        <time>2016-04-10T05:26:47Z</time>
      </trkpt>
      <trkpt lat="41.639816" lon="2.090004">
        <ele>527.94</ele>
        <time>2016-04-10T05:26:54Z</time>
      </trkpt>
      <trkpt lat="41.639851" lon="2.089973">
        <ele>528.80</ele>
        <time>2016-04-10T05:26:57Z</time>
      </trkpt>
      <trkpt lat="41.639870" lon="2.089970">
        <ele>528.82</ele>
        <time>2016-04-10T05:26:59Z</time>
      </trkpt>
      <trkpt lat="41.639908" lon="2.089946">
        <ele>529.11</ele>
        <time>2016-04-10T05:27:01Z</time>
      </trkpt>
      <trkpt lat="41.639931" lon="2.089941">
        <ele>528.81</ele>
        <time>2016-04-10T05:27:04Z</time>
      </trkpt>
      <trkpt lat="41.640030" lon="2.089939">
        <ele>527.35</ele>
        <time>2016-04-10T05:27:08Z</time>
      </trkpt>
      <trkpt lat="41.640049" lon="2.089939">
        <ele>527.37</ele>
        <time>2016-04-10T05:27:09Z</time>
      </trkpt>
      <trkpt lat="41.640148" lon="2.089983">
        <ele>524.98</ele>
        <time>2016-04-10T05:27:13Z</time>
      </trkpt>
      <trkpt lat="41.640259" lon="2.090050">
        <ele>523.66</ele>
        <time>2016-04-10T05:27:23Z</time>
      </trkpt>
      <trkpt lat="41.640289" lon="2.090044">
        <ele>522.48</ele>
        <time>2016-04-10T05:27:25Z</time>
      </trkpt>
      <trkpt lat="41.640324" lon="2.090082">
        <ele>521.84</ele>
        <time>2016-04-10T05:27:27Z</time>
      </trkpt>
      <trkpt lat="41.640701" lon="2.090428">
        <ele>516.39</ele>
        <time>2016-04-10T05:27:44Z</time>
      </trkpt>
      <trkpt lat="41.640724" lon="2.090408">
        <ele>517.23</ele>
        <time>2016-04-10T05:27:46Z</time>
      </trkpt>
      <trkpt lat="41.640762" lon="2.090396">
        <ele>517.25</ele>
        <time>2016-04-10T05:27:48Z</time>
      </trkpt>
      <trkpt lat="41.640793" lon="2.090388">
        <ele>517.69</ele>
        <time>2016-04-10T05:27:51Z</time>
      </trkpt>
      <trkpt lat="41.640972" lon="2.090384">
        <ele>517.63</ele>
        <time>2016-04-10T05:27:58Z</time>
      </trkpt>
      <trkpt lat="41.640984" lon="2.090324">
        <ele>517.64</ele>
        <time>2016-04-10T05:28:00Z</time>
      </trkpt>
      <trkpt lat="41.641029" lon="2.090372">
        <ele>517.28</ele>
        <time>2016-04-10T05:28:02Z</time>
      </trkpt>
      <trkpt lat="41.641079" lon="2.090379">
        <ele>517.25</ele>
        <time>2016-04-10T05:28:03Z</time>
      </trkpt>
      <trkpt lat="41.641258" lon="2.090307">
        <ele>527.90</ele>
        <time>2016-04-10T05:28:12Z</time>
      </trkpt>
      <trkpt lat="41.641407" lon="2.090390">
        <ele>534.91</ele>
        <time>2016-04-10T05:28:19Z</time>
      </trkpt>
      <trkpt lat="41.641434" lon="2.090566">
        <ele>539.21</ele>
        <time>2016-04-10T05:28:26Z</time>
      </trkpt>
      <trkpt lat="41.641441" lon="2.090634">
        <ele>539.83</ele>
        <time>2016-04-10T05:28:30Z</time>
      </trkpt>
      <trkpt lat="41.641468" lon="2.090726">
        <ele>542.24</ele>
        <time>2016-04-10T05:28:33Z</time>
      </trkpt>
      <trkpt lat="41.641521" lon="2.090752">
        <ele>542.57</ele>
        <time>2016-04-10T05:28:35Z</time>
      </trkpt>
      <trkpt lat="41.641613" lon="2.090747">
        <ele>544.72</ele>
        <time>2016-04-10T05:28:40Z</time>
      </trkpt>
      <trkpt lat="41.641644" lon="2.090728">
        <ele>545.05</ele>
        <time>2016-04-10T05:28:42Z</time>
      </trkpt>
      <trkpt lat="41.641754" lon="2.090698">
        <ele>545.05</ele>
        <time>2016-04-10T05:28:47Z</time>
      </trkpt>
      <trkpt lat="41.641766" lon="2.090640">
        <ele>545.06</ele>
        <time>2016-04-10T05:28:49Z</time>
      </trkpt>
      <trkpt lat="41.641804" lon="2.090595">
        <ele>545.32</ele>
        <time>2016-04-10T05:28:52Z</time>
      </trkpt>
      <trkpt lat="41.641861" lon="2.090580">
        <ele>545.31</ele>
        <time>2016-04-10T05:28:54Z</time>
      </trkpt>
      <trkpt lat="41.641911" lon="2.090577">
        <ele>543.89</ele>
        <time>2016-04-10T05:28:56Z</time>
      </trkpt>
      <trkpt lat="41.641964" lon="2.090566">
        <ele>542.81</ele>
        <time>2016-04-10T05:28:57Z</time>
      </trkpt>
      <trkpt lat="41.641998" lon="2.090584">
        <ele>541.38</ele>
        <time>2016-04-10T05:28:59Z</time>
      </trkpt>
      <trkpt lat="41.642052" lon="2.090585">
        <ele>542.54</ele>
        <time>2016-04-10T05:29:01Z</time>
      </trkpt>
      <trkpt lat="41.642204" lon="2.090658">
        <ele>544.16</ele>
        <time>2016-04-10T05:29:08Z</time>
      </trkpt>
      <trkpt lat="41.642273" lon="2.090771">
        <ele>545.38</ele>
        <time>2016-04-10T05:29:11Z</time>
      </trkpt>
      <trkpt lat="41.642273" lon="2.090785">
        <ele>544.16</ele>
        <time>2016-04-10T05:29:13Z</time>
      </trkpt>
      <trkpt lat="41.642292" lon="2.090859">
        <ele>542.54</ele>
        <time>2016-04-10T05:29:17Z</time>
      </trkpt>
      <trkpt lat="41.642303" lon="2.090904">
        <ele>541.62</ele>
        <time>2016-04-10T05:29:18Z</time>
      </trkpt>
      <trkpt lat="41.642284" lon="2.090927">
        <ele>542.51</ele>
        <time>2016-04-10T05:29:20Z</time>
      </trkpt>
      <trkpt lat="41.642296" lon="2.090968">
        <ele>544.80</ele>
        <time>2016-04-10T05:29:22Z</time>
      </trkpt>
      <trkpt lat="41.642307" lon="2.091033">
        <ele>545.39</ele>
        <time>2016-04-10T05:29:27Z</time>
      </trkpt>
      <trkpt lat="41.642384" lon="2.091047">
        <ele>547.41</ele>
        <time>2016-04-10T05:29:32Z</time>
      </trkpt>
      <trkpt lat="41.642406" lon="2.091052">
        <ele>548.08</ele>
        <time>2016-04-10T05:29:34Z</time>
      </trkpt>
      <trkpt lat="41.642445" lon="2.091098">
        <ele>546.83</ele>
        <time>2016-04-10T05:29:36Z</time>
      </trkpt>
      <trkpt lat="41.642555" lon="2.091156">
        <ele>546.89</ele>
        <time>2016-04-10T05:29:41Z</time>
      </trkpt>
      <trkpt lat="41.642586" lon="2.091177">
        <ele>548.62</ele>
        <time>2016-04-10T05:29:43Z</time>
      </trkpt>
      <trkpt lat="41.642807" lon="2.091373">
        <ele>549.93</ele>
        <time>2016-04-10T05:29:53Z</time>
      </trkpt>
      <trkpt lat="41.642845" lon="2.091420">
        <ele>550.56</ele>
        <time>2016-04-10T05:29:55Z</time>
      </trkpt>
      <trkpt lat="41.642876" lon="2.091585">
        <ele>554.73</ele>
        <time>2016-04-10T05:30:00Z</time>
      </trkpt>
      <trkpt lat="41.642895" lon="2.091686">
        <ele>555.36</ele>
        <time>2016-04-10T05:30:05Z</time>
      </trkpt>
      <trkpt lat="41.642895" lon="2.091726">
        <ele>556.33</ele>
        <time>2016-04-10T05:30:07Z</time>
      </trkpt>
      <trkpt lat="41.642899" lon="2.091788">
        <ele>556.62</ele>
        <time>2016-04-10T05:30:11Z</time>
      </trkpt>
      <trkpt lat="41.643059" lon="2.092007">
        <ele>556.70</ele>
        <time>2016-04-10T05:30:26Z</time>
      </trkpt>
      <trkpt lat="41.643051" lon="2.092088">
        <ele>557.54</ele>
        <time>2016-04-10T05:30:30Z</time>
      </trkpt>
      <trkpt lat="41.643143" lon="2.092272">
        <ele>561.11</ele>
        <time>2016-04-10T05:30:37Z</time>
      </trkpt>
      <trkpt lat="41.643169" lon="2.092315">
        <ele>559.91</ele>
        <time>2016-04-10T05:30:40Z</time>
      </trkpt>
      <trkpt lat="41.643169" lon="2.092340">
        <ele>561.12</ele>
        <time>2016-04-10T05:30:42Z</time>
      </trkpt>
      <trkpt lat="41.643173" lon="2.092397">
        <ele>559.67</ele>
        <time>2016-04-10T05:30:45Z</time>
      </trkpt>
      <trkpt lat="41.643173" lon="2.092435">
        <ele>559.96</ele>
        <time>2016-04-10T05:30:47Z</time>
      </trkpt>
      <trkpt lat="41.643135" lon="2.092501">
        <ele>563.32</ele>
        <time>2016-04-10T05:30:51Z</time>
      </trkpt>
      <trkpt lat="41.643150" lon="2.092520">
        <ele>563.33</ele>
        <time>2016-04-10T05:30:52Z</time>
      </trkpt>
      <trkpt lat="41.643162" lon="2.092566">
        <ele>564.30</ele>
        <time>2016-04-10T05:30:54Z</time>
      </trkpt>
      <trkpt lat="41.643147" lon="2.092582">
        <ele>567.58</ele>
        <time>2016-04-10T05:30:59Z</time>
      </trkpt>
      <trkpt lat="41.643162" lon="2.092596">
        <ele>567.83</ele>
        <time>2016-04-10T05:31:01Z</time>
      </trkpt>
      <trkpt lat="41.643269" lon="2.092760">
        <ele>576.73</ele>
        <time>2016-04-10T05:31:10Z</time>
      </trkpt>
      <trkpt lat="41.643276" lon="2.092834">
        <ele>575.81</ele>
        <time>2016-04-10T05:31:13Z</time>
      </trkpt>
      <trkpt lat="41.643322" lon="2.092935">
        <ele>571.82</ele>
        <time>2016-04-10T05:31:15Z</time>
      </trkpt>
      <trkpt lat="41.643459" lon="2.093257">
        <ele>569.12</ele>
        <time>2016-04-10T05:31:27Z</time>
      </trkpt>
      <trkpt lat="41.643471" lon="2.093287">
        <ele>569.74</ele>
        <time>2016-04-10T05:31:29Z</time>
      </trkpt>
      <trkpt lat="41.643475" lon="2.093538">
        <ele>573.63</ele>
        <time>2016-04-10T05:31:46Z</time>
      </trkpt>
      <trkpt lat="41.643467" lon="2.093540">
        <ele>574.93</ele>
        <time>2016-04-10T05:31:48Z</time>
      </trkpt>
      <trkpt lat="41.643452" lon="2.093517">
        <ele>576.73</ele>
        <time>2016-04-10T05:31:53Z</time>
      </trkpt>
      <trkpt lat="41.643475" lon="2.093528">
        <ele>579.11</ele>
        <time>2016-04-10T05:31:57Z</time>
      </trkpt>
      <trkpt lat="41.643494" lon="2.093544">
        <ele>580.04</ele>
        <time>2016-04-10T05:31:59Z</time>
      </trkpt>
      <trkpt lat="41.643631" lon="2.093628">
        <ele>584.31</ele>
        <time>2016-04-10T05:32:04Z</time>
      </trkpt>
      <trkpt lat="41.643688" lon="2.093623">
        <ele>587.39</ele>
        <time>2016-04-10T05:32:07Z</time>
      </trkpt>
      <trkpt lat="41.643719" lon="2.093630">
        <ele>588.01</ele>
        <time>2016-04-10T05:32:09Z</time>
      </trkpt>
      <trkpt lat="41.643803" lon="2.093747">
        <ele>584.68</ele>
        <time>2016-04-10T05:32:14Z</time>
      </trkpt>
      <trkpt lat="41.643814" lon="2.093763">
        <ele>583.80</ele>
        <time>2016-04-10T05:32:16Z</time>
      </trkpt>
      <trkpt lat="41.643986" lon="2.094082">
        <ele>584.34</ele>
        <time>2016-04-10T05:32:28Z</time>
      </trkpt>
      <trkpt lat="41.644096" lon="2.094397">
        <ele>584.96</ele>
        <time>2016-04-10T05:32:42Z</time>
      </trkpt>
      <trkpt lat="41.644127" lon="2.094432">
        <ele>584.99</ele>
        <time>2016-04-10T05:32:44Z</time>
      </trkpt>
      <trkpt lat="41.644154" lon="2.094468">
        <ele>586.72</ele>
        <time>2016-04-10T05:32:47Z</time>
      </trkpt>
      <trkpt lat="41.644173" lon="2.094595">
        <ele>588.01</ele>
        <time>2016-04-10T05:32:56Z</time>
      </trkpt>
      <trkpt lat="41.644150" lon="2.094633">
        <ele>591.68</ele>
        <time>2016-04-10T05:32:58Z</time>
      </trkpt>
      <trkpt lat="41.644241" lon="2.094851">
        <ele>600.51</ele>
        <time>2016-04-10T05:33:08Z</time>
      </trkpt>
      <trkpt lat="41.644302" lon="2.094966">
        <ele>599.90</ele>
        <time>2016-04-10T05:33:12Z</time>
      </trkpt>
      <trkpt lat="41.644337" lon="2.095005">
        <ele>600.84</ele>
        <time>2016-04-10T05:33:15Z</time>
      </trkpt>
      <trkpt lat="41.644344" lon="2.095023">
        <ele>602.34</ele>
        <time>2016-04-10T05:33:17Z</time>
      </trkpt>
      <trkpt lat="41.644348" lon="2.095057">
        <ele>607.25</ele>
        <time>2016-04-10T05:33:19Z</time>
      </trkpt>
      <trkpt lat="41.644363" lon="2.095032">
        <ele>607.56</ele>
        <time>2016-04-10T05:33:24Z</time>
      </trkpt>
      <trkpt lat="41.644794" lon="2.094778">
        <ele>616.38</ele>
        <time>2016-04-10T05:33:55Z</time>
      </trkpt>
      <trkpt lat="41.644878" lon="2.094665">
        <ele>617.59</ele>
        <time>2016-04-10T05:34:02Z</time>
      </trkpt>
      <trkpt lat="41.644947" lon="2.094564">
        <ele>618.72</ele>
        <time>2016-04-10T05:34:09Z</time>
      </trkpt>
      <trkpt lat="41.644962" lon="2.094507">
        <ele>619.05</ele>
        <time>2016-04-10T05:34:13Z</time>
      </trkpt>
      <trkpt lat="41.644955" lon="2.094518">
        <ele>617.82</ele>
        <time>2016-04-10T05:34:16Z</time>
      </trkpt>
      <trkpt lat="41.644955" lon="2.094553">
        <ele>617.60</ele>
        <time>2016-04-10T05:34:18Z</time>
      </trkpt>
      <trkpt lat="41.644970" lon="2.094574">
        <ele>617.22</ele>
        <time>2016-04-10T05:34:21Z</time>
      </trkpt>
      <trkpt lat="41.644989" lon="2.094571">
        <ele>617.56</ele>
        <time>2016-04-10T05:34:23Z</time>
      </trkpt>
      <trkpt lat="41.645023" lon="2.094558">
        <ele>622.17</ele>
        <time>2016-04-10T05:36:09Z</time>
      </trkpt>
      <trkpt lat="41.645107" lon="2.094696">
        <ele>620.32</ele>
        <time>2016-04-10T05:36:15Z</time>
      </trkpt>
      <trkpt lat="41.645180" lon="2.095035">
        <ele>609.66</ele>
        <time>2016-04-10T05:36:27Z</time>
      </trkpt>
      <trkpt lat="41.645180" lon="2.095075">
        <ele>610.56</ele>
        <time>2016-04-10T05:36:29Z</time>
      </trkpt>
      <trkpt lat="41.645252" lon="2.095326">
        <ele>607.81</ele>
        <time>2016-04-10T05:36:37Z</time>
      </trkpt>
      <trkpt lat="41.645329" lon="2.095428">
        <ele>607.87</ele>
        <time>2016-04-10T05:36:41Z</time>
      </trkpt>
      <trkpt lat="41.645401" lon="2.095579">
        <ele>607.26</ele>
        <time>2016-04-10T05:36:48Z</time>
      </trkpt>
      <trkpt lat="41.645416" lon="2.095656">
        <ele>607.24</ele>
        <time>2016-04-10T05:36:51Z</time>
      </trkpt>
      <trkpt lat="41.645596" lon="2.096210">
        <ele>608.79</ele>
        <time>2016-04-10T05:37:00Z</time>
      </trkpt>
      <trkpt lat="41.645664" lon="2.096233">
        <ele>608.76</ele>
        <time>2016-04-10T05:37:02Z</time>
      </trkpt>
      <trkpt lat="41.646152" lon="2.096424">
        <ele>607.88</ele>
        <time>2016-04-10T05:37:09Z</time>
      </trkpt>
      <trkpt lat="41.646458" lon="2.096535">
        <ele>607.58</ele>
        <time>2016-04-10T05:37:12Z</time>
      </trkpt>
      <trkpt lat="41.646923" lon="2.096253">
        <ele>604.77</ele>
        <time>2016-04-10T05:37:19Z</time>
      </trkpt>
      <trkpt lat="41.647163" lon="2.095959">
        <ele>602.34</ele>
        <time>2016-04-10T05:37:24Z</time>
      </trkpt>
      <trkpt lat="41.647240" lon="2.096071">
        <ele>602.37</ele>
        <time>2016-04-10T05:37:26Z</time>
      </trkpt>
      <trkpt lat="41.647255" lon="2.096220">
        <ele>602.32</ele>
        <time>2016-04-10T05:37:28Z</time>
      </trkpt>
      <trkpt lat="41.647282" lon="2.096631">
        <ele>602.91</ele>
        <time>2016-04-10T05:37:33Z</time>
      </trkpt>
      <trkpt lat="41.647430" lon="2.096756">
        <ele>602.99</ele>
        <time>2016-04-10T05:37:35Z</time>
      </trkpt>
      <trkpt lat="41.647915" lon="2.096908">
        <ele>603.87</ele>
        <time>2016-04-10T05:37:42Z</time>
      </trkpt>
      <trkpt lat="41.648300" lon="2.097239">
        <ele>603.89</ele>
        <time>2016-04-10T05:37:49Z</time>
      </trkpt>
      <trkpt lat="41.648540" lon="2.097453">
        <ele>604.15</ele>
        <time>2016-04-10T05:37:54Z</time>
      </trkpt>
      <trkpt lat="41.648754" lon="2.097988">
        <ele>602.37</ele>
        <time>2016-04-10T05:37:59Z</time>
      </trkpt>
      <trkpt lat="41.648922" lon="2.098247">
        <ele>601.76</ele>
        <time>2016-04-10T05:38:04Z</time>
      </trkpt>
      <trkpt lat="41.649014" lon="2.098176">
        <ele>602.31</ele>
        <time>2016-04-10T05:38:06Z</time>
      </trkpt>
      <trkpt lat="41.649426" lon="2.097804">
        <ele>599.82</ele>
        <time>2016-04-10T05:38:15Z</time>
      </trkpt>
      <trkpt lat="41.649776" lon="2.097394">
        <ele>599.30</ele>
        <time>2016-04-10T05:38:22Z</time>
      </trkpt>
      <trkpt lat="41.649933" lon="2.097449">
        <ele>598.61</ele>
        <time>2016-04-10T05:38:25Z</time>
      </trkpt>
      <trkpt lat="41.650051" lon="2.097495">
        <ele>598.64</ele>
        <time>2016-04-10T05:38:27Z</time>
      </trkpt>
      <trkpt lat="41.650143" lon="2.097487">
        <ele>598.62</ele>
        <time>2016-04-10T05:38:29Z</time>
      </trkpt>
      <trkpt lat="41.650543" lon="2.097165">
        <ele>598.03</ele>
        <time>2016-04-10T05:38:39Z</time>
      </trkpt>
      <trkpt lat="41.650711" lon="2.097164">
        <ele>598.02</ele>
        <time>2016-04-10T05:38:41Z</time>
      </trkpt>
      <trkpt lat="41.650730" lon="2.097165">
        <ele>598.04</ele>
        <time>2016-04-10T05:38:43Z</time>
      </trkpt>
      <trkpt lat="41.651108" lon="2.097174">
        <ele>598.02</ele>
        <time>2016-04-10T05:38:50Z</time>
      </trkpt>
      <trkpt lat="41.651165" lon="2.097170">
        <ele>598.01</ele>
        <time>2016-04-10T05:38:51Z</time>
      </trkpt>
      <trkpt lat="41.651657" lon="2.097017">
        <ele>598.10</ele>
        <time>2016-04-10T05:39:00Z</time>
      </trkpt>
      <trkpt lat="41.651684" lon="2.097056">
        <ele>598.03</ele>
        <time>2016-04-10T05:39:02Z</time>
      </trkpt>
      <trkpt lat="41.651707" lon="2.097142">
        <ele>598.02</ele>
        <time>2016-04-10T05:39:04Z</time>
      </trkpt>
      <trkpt lat="41.651688" lon="2.097236">
        <ele>596.87</ele>
        <time>2016-04-10T05:39:07Z</time>
      </trkpt>
      <trkpt lat="41.651691" lon="2.097255">
        <ele>596.25</ele>
        <time>2016-04-10T05:39:09Z</time>
      </trkpt>
      <trkpt lat="41.651554" lon="2.097507">
        <ele>595.09</ele>
        <time>2016-04-10T05:39:19Z</time>
      </trkpt>
      <trkpt lat="41.651493" lon="2.097558">
        <ele>595.08</ele>
        <time>2016-04-10T05:39:23Z</time>
      </trkpt>
      <trkpt lat="41.651188" lon="2.097862">
        <ele>596.85</ele>
        <time>2016-04-10T05:39:42Z</time>
      </trkpt>
      <trkpt lat="41.651226" lon="2.097862">
        <ele>596.82</ele>
        <time>2016-04-10T05:39:45Z</time>
      </trkpt>
      <trkpt lat="41.651466" lon="2.097711">
        <ele>597.11</ele>
        <time>2016-04-10T05:39:59Z</time>
      </trkpt>
      <trkpt lat="41.651535" lon="2.097646">
        <ele>598.62</ele>
        <time>2016-04-10T05:40:05Z</time>
      </trkpt>
      <trkpt lat="41.651581" lon="2.097616">
        <ele>598.61</ele>
        <time>2016-04-10T05:40:10Z</time>
      </trkpt>
      <trkpt lat="41.651608" lon="2.097628">
        <ele>599.53</ele>
        <time>2016-04-10T05:40:13Z</time>
      </trkpt>
      <trkpt lat="41.651707" lon="2.097631">
        <ele>599.85</ele>
        <time>2016-04-10T05:40:17Z</time>
      </trkpt>
      <trkpt lat="41.651749" lon="2.097611">
        <ele>601.77</ele>
        <time>2016-04-10T05:40:20Z</time>
      </trkpt>
      <trkpt lat="41.651787" lon="2.097596">
        <ele>600.88</ele>
        <time>2016-04-10T05:40:22Z</time>
      </trkpt>
      <trkpt lat="41.651867" lon="2.097600">
        <ele>601.80</ele>
        <time>2016-04-10T05:40:29Z</time>
      </trkpt>
      <trkpt lat="41.652000" lon="2.097715">
        <ele>603.83</ele>
        <time>2016-04-10T05:40:34Z</time>
      </trkpt>
      <trkpt lat="41.652020" lon="2.097757">
        <ele>605.31</ele>
        <time>2016-04-10T05:40:36Z</time>
      </trkpt>
      <trkpt lat="41.652035" lon="2.097790">
        <ele>604.72</ele>
        <time>2016-04-10T05:40:38Z</time>
      </trkpt>
      <trkpt lat="41.652031" lon="2.097837">
        <ele>602.99</ele>
        <time>2016-04-10T05:40:39Z</time>
      </trkpt>
      <trkpt lat="41.652081" lon="2.097979">
        <ele>598.65</ele>
        <time>2016-04-10T05:40:50Z</time>
      </trkpt>
      <trkpt lat="41.652100" lon="2.097971">
        <ele>598.67</ele>
        <time>2016-04-10T05:40:53Z</time>
      </trkpt>
      <trkpt lat="41.652462" lon="2.097819">
        <ele>597.16</ele>
        <time>2016-04-10T05:41:16Z</time>
      </trkpt>
      <trkpt lat="41.652493" lon="2.097818">
        <ele>596.87</ele>
        <time>2016-04-10T05:41:18Z</time>
      </trkpt>
      <trkpt lat="41.652523" lon="2.097831">
        <ele>597.13</ele>
        <time>2016-04-10T05:41:21Z</time>
      </trkpt>
      <trkpt lat="41.652637" lon="2.097918">
        <ele>601.80</ele>
        <time>2016-04-10T05:41:28Z</time>
      </trkpt>
      <trkpt lat="41.652763" lon="2.098108">
        <ele>607.50</ele>
        <time>2016-04-10T05:41:44Z</time>
      </trkpt>
      <trkpt lat="41.652973" lon="2.098667">
        <ele>603.82</ele>
        <time>2016-04-10T05:42:15Z</time>
      </trkpt>
      <trkpt lat="41.652973" lon="2.098701">
        <ele>604.11</ele>
        <time>2016-04-10T05:42:17Z</time>
      </trkpt>
      <trkpt lat="41.653011" lon="2.098758">
        <ele>606.21</ele>
        <time>2016-04-10T05:42:19Z</time>
      </trkpt>
      <trkpt lat="41.653183" lon="2.098958">
        <ele>606.68</ele>
        <time>2016-04-10T05:42:31Z</time>
      </trkpt>
      <trkpt lat="41.653191" lon="2.099050">
        <ele>611.76</ele>
        <time>2016-04-10T05:42:34Z</time>
      </trkpt>
      <trkpt lat="41.653141" lon="2.099051">
        <ele>618.72</ele>
        <time>2016-04-10T05:42:40Z</time>
      </trkpt>
      <trkpt lat="41.652817" lon="2.098634">
        <ele>626.71</ele>
        <time>2016-04-10T05:43:06Z</time>
      </trkpt>
      <trkpt lat="41.652794" lon="2.098639">
        <ele>625.82</ele>
        <time>2016-04-10T05:43:09Z</time>
      </trkpt>
      <trkpt lat="41.652782" lon="2.098708">
        <ele>627.37</ele>
        <time>2016-04-10T05:43:13Z</time>
      </trkpt>
      <trkpt lat="41.652866" lon="2.098840">
        <ele>627.32</ele>
        <time>2016-04-10T05:43:23Z</time>
      </trkpt>
      <trkpt lat="41.653004" lon="2.099138">
        <ele>619.01</ele>
        <time>2016-04-10T05:43:41Z</time>
      </trkpt>
      <trkpt lat="41.653305" lon="2.099611">
        <ele>625.86</ele>
        <time>2016-04-10T05:44:12Z</time>
      </trkpt>
      <trkpt lat="41.653362" lon="2.099901">
        <ele>622.12</ele>
        <time>2016-04-10T05:44:26Z</time>
      </trkpt>
      <trkpt lat="41.653378" lon="2.100075">
        <ele>617.88</ele>
        <time>2016-04-10T05:44:36Z</time>
      </trkpt>
      <trkpt lat="41.653374" lon="2.100109">
        <ele>616.64</ele>
        <time>2016-04-10T05:44:38Z</time>
      </trkpt>
      <trkpt lat="41.653374" lon="2.100219">
        <ele>614.87</ele>
        <time>2016-04-10T05:44:43Z</time>
      </trkpt>
      <trkpt lat="41.653355" lon="2.100231">
        <ele>613.37</ele>
        <time>2016-04-10T05:44:45Z</time>
      </trkpt>
      <trkpt lat="41.653297" lon="2.100244">
        <ele>621.24</ele>
        <time>2016-04-10T05:44:47Z</time>
      </trkpt>
      <trkpt lat="41.653248" lon="2.100225">
        <ele>628.90</ele>
        <time>2016-04-10T05:44:50Z</time>
      </trkpt>
      <trkpt lat="41.653168" lon="2.099989">
        <ele>640.44</ele>
        <time>2016-04-10T05:45:04Z</time>
      </trkpt>
      <trkpt lat="41.653111" lon="2.099947">
        <ele>642.52</ele>
        <time>2016-04-10T05:45:09Z</time>
      </trkpt>
      <trkpt lat="41.653076" lon="2.099956">
        <ele>642.81</ele>
        <time>2016-04-10T05:45:11Z</time>
      </trkpt>
      <trkpt lat="41.653049" lon="2.099943">
        <ele>642.84</ele>
        <time>2016-04-10T05:45:13Z</time>
      </trkpt>
      <trkpt lat="41.653030" lon="2.099942">
        <ele>644.08</ele>
        <time>2016-04-10T05:45:15Z</time>
      </trkpt>
      <trkpt lat="41.653015" lon="2.099959">
        <ele>644.74</ele>
        <time>2016-04-10T05:45:16Z</time>
      </trkpt>
      <trkpt lat="41.652851" lon="2.100463">
        <ele>653.85</ele>
        <time>2016-04-10T05:45:41Z</time>
      </trkpt>
      <trkpt lat="41.652924" lon="2.100930">
        <ele>649.22</ele>
        <time>2016-04-10T05:46:03Z</time>
      </trkpt>
      <trkpt lat="41.652992" lon="2.101219">
        <ele>649.87</ele>
        <time>2016-04-10T05:46:19Z</time>
      </trkpt>
      <trkpt lat="41.652981" lon="2.101313">
        <ele>645.05</ele>
        <time>2016-04-10T05:46:26Z</time>
      </trkpt>
      <trkpt lat="41.652969" lon="2.101348">
        <ele>644.02</ele>
        <time>2016-04-10T05:46:28Z</time>
      </trkpt>
      <trkpt lat="41.652950" lon="2.101399">
        <ele>644.06</ele>
        <time>2016-04-10T05:46:31Z</time>
      </trkpt>
      <trkpt lat="41.652939" lon="2.101439">
        <ele>642.21</ele>
        <time>2016-04-10T05:46:33Z</time>
      </trkpt>
      <trkpt lat="41.652897" lon="2.101547">
        <ele>642.22</ele>
        <time>2016-04-10T05:46:40Z</time>
      </trkpt>
      <trkpt lat="41.652664" lon="2.101936">
        <ele>654.71</ele>
        <time>2016-04-10T05:47:03Z</time>
      </trkpt>
      <trkpt lat="41.652672" lon="2.101946">
        <ele>654.72</ele>
        <time>2016-04-10T05:47:04Z</time>
      </trkpt>
      <trkpt lat="41.652683" lon="2.101941">
        <ele>655.02</ele>
        <time>2016-04-10T05:47:06Z</time>
      </trkpt>
      <trkpt lat="41.652805" lon="2.101844">
        <ele>655.06</ele>
        <time>2016-04-10T05:47:18Z</time>
      </trkpt>
      <trkpt lat="41.652832" lon="2.101840">
        <ele>655.01</ele>
        <time>2016-04-10T05:47:20Z</time>
      </trkpt>
      <trkpt lat="41.652843" lon="2.101839">
        <ele>655.09</ele>
        <time>2016-04-10T05:47:22Z</time>
      </trkpt>
      <trkpt lat="41.652878" lon="2.101820">
        <ele>657.57</ele>
        <time>2016-04-10T05:47:25Z</time>
      </trkpt>
      <trkpt lat="41.652912" lon="2.101840">
        <ele>657.12</ele>
        <time>2016-04-10T05:47:27Z</time>
      </trkpt>
      <trkpt lat="41.652981" lon="2.101924">
        <ele>653.88</ele>
        <time>2016-04-10T05:47:34Z</time>
      </trkpt>
      <trkpt lat="41.653046" lon="2.102153">
        <ele>644.09</ele>
        <time>2016-04-10T05:47:48Z</time>
      </trkpt>
      <trkpt lat="41.653057" lon="2.102177">
        <ele>643.72</ele>
        <time>2016-04-10T05:47:50Z</time>
      </trkpt>
      <trkpt lat="41.653046" lon="2.102282">
        <ele>646.21</ele>
        <time>2016-04-10T05:47:57Z</time>
      </trkpt>
      <trkpt lat="41.653061" lon="2.102335">
        <ele>645.05</ele>
        <time>2016-04-10T05:48:00Z</time>
      </trkpt>
      <trkpt lat="41.653088" lon="2.102583">
        <ele>664.89</ele>
        <time>2016-04-10T05:48:11Z</time>
      </trkpt>
      <trkpt lat="41.653103" lon="2.102580">
        <ele>666.38</ele>
        <time>2016-04-10T05:48:12Z</time>
      </trkpt>
      <trkpt lat="41.653137" lon="2.102575">
        <ele>667.89</ele>
        <time>2016-04-10T05:48:16Z</time>
      </trkpt>
      <trkpt lat="41.653175" lon="2.102584">
        <ele>670.39</ele>
        <time>2016-04-10T05:48:19Z</time>
      </trkpt>
      <trkpt lat="41.653233" lon="2.102624">
        <ele>669.65</ele>
        <time>2016-04-10T05:48:21Z</time>
      </trkpt>
      <trkpt lat="41.653263" lon="2.102648">
        <ele>670.32</ele>
        <time>2016-04-10T05:48:23Z</time>
      </trkpt>
      <trkpt lat="41.653320" lon="2.102647">
        <ele>674.24</ele>
        <time>2016-04-10T05:48:28Z</time>
      </trkpt>
      <trkpt lat="41.653362" lon="2.102646">
        <ele>674.83</ele>
        <time>2016-04-10T05:48:30Z</time>
      </trkpt>
      <trkpt lat="41.653408" lon="2.102656">
        <ele>673.62</ele>
        <time>2016-04-10T05:48:33Z</time>
      </trkpt>
      <trkpt lat="41.653469" lon="2.102643">
        <ele>673.08</ele>
        <time>2016-04-10T05:48:37Z</time>
      </trkpt>
      <trkpt lat="41.653736" lon="2.102477">
        <ele>674.23</ele>
        <time>2016-04-10T05:48:52Z</time>
      </trkpt>
      <trkpt lat="41.653797" lon="2.102480">
        <ele>671.86</ele>
        <time>2016-04-10T05:48:54Z</time>
      </trkpt>
      <trkpt lat="41.653858" lon="2.102543">
        <ele>670.04</ele>
        <time>2016-04-10T05:48:56Z</time>
      </trkpt>
      <trkpt lat="41.653893" lon="2.102559">
        <ele>669.65</ele>
        <time>2016-04-10T05:48:58Z</time>
      </trkpt>
      <trkpt lat="41.654007" lon="2.102573">
        <ele>669.06</ele>
        <time>2016-04-10T05:49:03Z</time>
      </trkpt>
      <trkpt lat="41.654053" lon="2.102591">
        <ele>667.53</ele>
        <time>2016-04-10T05:49:05Z</time>
      </trkpt>
      <trkpt lat="41.654411" lon="2.102796">
        <ele>669.60</ele>
        <time>2016-04-10T05:49:15Z</time>
      </trkpt>
      <trkpt lat="41.654442" lon="2.102854">
        <ele>671.81</ele>
        <time>2016-04-10T05:49:17Z</time>
      </trkpt>
      <trkpt lat="41.654457" lon="2.103289">
        <ele>667.86</ele>
        <time>2016-04-10T05:49:31Z</time>
      </trkpt>
      <trkpt lat="41.654629" lon="2.103861">
        <ele>665.43</ele>
        <time>2016-04-10T05:49:46Z</time>
      </trkpt>
      <trkpt lat="41.654797" lon="2.104078">
        <ele>659.68</ele>
        <time>2016-04-10T05:49:55Z</time>
      </trkpt>
      <trkpt lat="41.654911" lon="2.104223">
        <ele>660.52</ele>
        <time>2016-04-10T05:50:00Z</time>
      </trkpt>
      <trkpt lat="41.655106" lon="2.104316">
        <ele>661.16</ele>
        <time>2016-04-10T05:50:07Z</time>
      </trkpt>
      <trkpt lat="41.655411" lon="2.104253">
        <ele>662.96</ele>
        <time>2016-04-10T05:50:16Z</time>
      </trkpt>
      <trkpt lat="41.655537" lon="2.104269">
        <ele>662.93</ele>
        <time>2016-04-10T05:50:18Z</time>
      </trkpt>
      <trkpt lat="41.655685" lon="2.104410">
        <ele>664.89</ele>
        <time>2016-04-10T05:50:23Z</time>
      </trkpt>
      <trkpt lat="41.655758" lon="2.104895">
        <ele>666.32</ele>
        <time>2016-04-10T05:50:35Z</time>
      </trkpt>
      <trkpt lat="41.655827" lon="2.105291">
        <ele>667.81</ele>
        <time>2016-04-10T05:50:47Z</time>
      </trkpt>
      <trkpt lat="41.656036" lon="2.105823">
        <ele>667.28</ele>
        <time>2016-04-10T05:51:01Z</time>
      </trkpt>
      <trkpt lat="41.656227" lon="2.106424">
        <ele>667.22</ele>
        <time>2016-04-10T05:51:12Z</time>
      </trkpt>
      <trkpt lat="41.656372" lon="2.107017">
        <ele>667.54</ele>
        <time>2016-04-10T05:51:24Z</time>
      </trkpt>
      <trkpt lat="41.656662" lon="2.107497">
        <ele>675.42</ele>
        <time>2016-04-10T05:51:40Z</time>
      </trkpt>
      <trkpt lat="41.656727" lon="2.107724">
        <ele>677.96</ele>
        <time>2016-04-10T05:51:47Z</time>
      </trkpt>
      <trkpt lat="41.656773" lon="2.107983">
        <ele>675.79</ele>
        <time>2016-04-10T05:51:52Z</time>
      </trkpt>
      <trkpt lat="41.656944" lon="2.108587">
        <ele>681.26</ele>
        <time>2016-04-10T05:52:02Z</time>
      </trkpt>
      <trkpt lat="41.657272" lon="2.109011">
        <ele>685.58</ele>
        <time>2016-04-10T05:52:13Z</time>
      </trkpt>
      <trkpt lat="41.657597" lon="2.109444">
        <ele>687.93</ele>
        <time>2016-04-10T05:52:30Z</time>
      </trkpt>
      <trkpt lat="41.657894" lon="2.109922">
        <ele>689.29</ele>
        <time>2016-04-10T05:52:44Z</time>
      </trkpt>
      <trkpt lat="41.658077" lon="2.110492">
        <ele>692.52</ele>
        <time>2016-04-10T05:53:00Z</time>
      </trkpt>
      <trkpt lat="41.658276" lon="2.111078">
        <ele>694.01</ele>
        <time>2016-04-10T05:53:15Z</time>
      </trkpt>
      <trkpt lat="41.658470" lon="2.111652">
        <ele>694.63</ele>
        <time>2016-04-10T05:53:29Z</time>
      </trkpt>
      <trkpt lat="41.658596" lon="2.112257">
        <ele>697.49</ele>
        <time>2016-04-10T05:53:43Z</time>
      </trkpt>
      <trkpt lat="41.658783" lon="2.112810">
        <ele>700.42</ele>
        <time>2016-04-10T05:53:59Z</time>
      </trkpt>
      <trkpt lat="41.659000" lon="2.113369">
        <ele>702.95</ele>
        <time>2016-04-10T05:54:16Z</time>
      </trkpt>
      <trkpt lat="41.659199" lon="2.113915">
        <ele>704.16</ele>
        <time>2016-04-10T05:54:30Z</time>
      </trkpt>
      <trkpt lat="41.659241" lon="2.114199">
        <ele>703.88</ele>
        <time>2016-04-10T05:54:37Z</time>
      </trkpt>
      <trkpt lat="41.659286" lon="2.114870">
        <ele>700.79</ele>
        <time>2016-04-10T05:54:53Z</time>
      </trkpt>
      <trkpt lat="41.659405" lon="2.115456">
        <ele>700.73</ele>
        <time>2016-04-10T05:55:03Z</time>
      </trkpt>
      <trkpt lat="41.659500" lon="2.116069">
        <ele>700.75</ele>
        <time>2016-04-10T05:55:14Z</time>
      </trkpt>
      <trkpt lat="41.659786" lon="2.116591">
        <ele>696.85</ele>
        <time>2016-04-10T05:55:24Z</time>
      </trkpt>
      <trkpt lat="41.660133" lon="2.117030">
        <ele>692.81</ele>
        <time>2016-04-10T05:55:31Z</time>
      </trkpt>
      <trkpt lat="41.660458" lon="2.117455">
        <ele>693.71</ele>
        <time>2016-04-10T05:55:40Z</time>
      </trkpt>
      <trkpt lat="41.660595" lon="2.117942">
        <ele>692.86</ele>
        <time>2016-04-10T05:55:49Z</time>
      </trkpt>
      <trkpt lat="41.660473" lon="2.118417">
        <ele>692.83</ele>
        <time>2016-04-10T05:55:59Z</time>
      </trkpt>
      <trkpt lat="41.660210" lon="2.118957">
        <ele>694.03</ele>
        <time>2016-04-10T05:56:22Z</time>
      </trkpt>
      <trkpt lat="41.660046" lon="2.119128">
        <ele>694.04</ele>
        <time>2016-04-10T05:56:29Z</time>
      </trkpt>
      <trkpt lat="41.659660" lon="2.119251">
        <ele>694.62</ele>
        <time>2016-04-10T05:56:51Z</time>
      </trkpt>
      <trkpt lat="41.659252" lon="2.119526">
        <ele>692.54</ele>
        <time>2016-04-10T05:57:19Z</time>
      </trkpt>
      <trkpt lat="41.659180" lon="2.119560">
        <ele>694.02</ele>
        <time>2016-04-10T05:57:23Z</time>
      </trkpt>
      <trkpt lat="41.659153" lon="2.119579">
        <ele>694.05</ele>
        <time>2016-04-10T05:57:26Z</time>
      </trkpt>
      <trkpt lat="41.658871" lon="2.119897">
        <ele>693.70</ele>
        <time>2016-04-10T05:57:49Z</time>
      </trkpt>
      <trkpt lat="41.658665" lon="2.120128">
        <ele>696.82</ele>
        <time>2016-04-10T05:58:05Z</time>
      </trkpt>
      <trkpt lat="41.658543" lon="2.120284">
        <ele>697.41</ele>
        <time>2016-04-10T05:58:13Z</time>
      </trkpt>
      <trkpt lat="41.658371" lon="2.120898">
        <ele>697.46</ele>
        <time>2016-04-10T05:58:31Z</time>
      </trkpt>
      <trkpt lat="41.658028" lon="2.121304">
        <ele>699.89</ele>
        <time>2016-04-10T05:58:43Z</time>
      </trkpt>
      <trkpt lat="41.657688" lon="2.121739">
        <ele>702.98</ele>
        <time>2016-04-10T05:59:06Z</time>
      </trkpt>
      <trkpt lat="41.657379" lon="2.122245">
        <ele>705.35</ele>
        <time>2016-04-10T05:59:18Z</time>
      </trkpt>
      <trkpt lat="41.657093" lon="2.122780">
        <ele>706.23</ele>
        <time>2016-04-10T05:59:28Z</time>
      </trkpt>
      <trkpt lat="41.656960" lon="2.123372">
        <ele>707.77</ele>
        <time>2016-04-10T05:59:35Z</time>
      </trkpt>
      <trkpt lat="41.656868" lon="2.124021">
        <ele>708.77</ele>
        <time>2016-04-10T05:59:44Z</time>
      </trkpt>
      <trkpt lat="41.656811" lon="2.124654">
        <ele>710.58</ele>
        <time>2016-04-10T05:59:53Z</time>
      </trkpt>
      <trkpt lat="41.656849" lon="2.124695">
        <ele>711.15</ele>
        <time>2016-04-10T05:59:54Z</time>
      </trkpt>
      <trkpt lat="41.656895" lon="2.124808">
        <ele>711.79</ele>
        <time>2016-04-10T05:59:56Z</time>
      </trkpt>
      <trkpt lat="41.656860" lon="2.125497">
        <ele>712.32</ele>
        <time>2016-04-10T06:00:05Z</time>
      </trkpt>
      <trkpt lat="41.656891" lon="2.125580">
        <ele>712.33</ele>
        <time>2016-04-10T06:00:08Z</time>
      </trkpt>
      <trkpt lat="41.656895" lon="2.125622">
        <ele>712.35</ele>
        <time>2016-04-10T06:00:10Z</time>
      </trkpt>
      <trkpt lat="41.657303" lon="2.126073">
        <ele>712.38</ele>
        <time>2016-04-10T06:00:19Z</time>
      </trkpt>
      <trkpt lat="41.657593" lon="2.126231">
        <ele>712.97</ele>
        <time>2016-04-10T06:00:24Z</time>
      </trkpt>
      <trkpt lat="41.658085" lon="2.126467">
        <ele>712.92</ele>
        <time>2016-04-10T06:00:31Z</time>
      </trkpt>
      <trkpt lat="41.658203" lon="2.126637">
        <ele>712.96</ele>
        <time>2016-04-10T06:00:34Z</time>
      </trkpt>
      <trkpt lat="41.658302" lon="2.126709">
        <ele>712.93</ele>
        <time>2016-04-10T06:00:36Z</time>
      </trkpt>
      <trkpt lat="41.658371" lon="2.126711">
        <ele>712.92</ele>
        <time>2016-04-10T06:00:38Z</time>
      </trkpt>
      <trkpt lat="41.658413" lon="2.126688">
        <ele>712.99</ele>
        <time>2016-04-10T06:00:41Z</time>
      </trkpt>
      <trkpt lat="41.658424" lon="2.126617">
        <ele>712.37</ele>
        <time>2016-04-10T06:00:43Z</time>
      </trkpt>
      <trkpt lat="41.658401" lon="2.126605">
        <ele>712.32</ele>
        <time>2016-04-10T06:00:45Z</time>
      </trkpt>
      <trkpt lat="41.658215" lon="2.126421">
        <ele>711.71</ele>
        <time>2016-04-10T06:00:50Z</time>
      </trkpt>
      <trkpt lat="41.657883" lon="2.125996">
        <ele>709.62</ele>
        <time>2016-04-10T06:00:59Z</time>
      </trkpt>
      <trkpt lat="41.657661" lon="2.125633">
        <ele>709.34</ele>
        <time>2016-04-10T06:01:06Z</time>
      </trkpt>
      <trkpt lat="41.657574" lon="2.125029">
        <ele>708.72</ele>
        <time>2016-04-10T06:01:13Z</time>
      </trkpt>
      <trkpt lat="41.657597" lon="2.124387">
        <ele>707.47</ele>
        <time>2016-04-10T06:01:20Z</time>
      </trkpt>
      <trkpt lat="41.657608" lon="2.124251">
        <ele>707.12</ele>
        <time>2016-04-10T06:01:21Z</time>
      </trkpt>
      <trkpt lat="41.657677" lon="2.124198">
        <ele>707.19</ele>
        <time>2016-04-10T06:01:23Z</time>
      </trkpt>
      <trkpt lat="41.657719" lon="2.124219">
        <ele>707.17</ele>
        <time>2016-04-10T06:01:25Z</time>
      </trkpt>
      <trkpt lat="41.657818" lon="2.124402">
        <ele>706.55</ele>
        <time>2016-04-10T06:01:28Z</time>
      </trkpt>
      <trkpt lat="41.657860" lon="2.124982">
        <ele>704.80</ele>
        <time>2016-04-10T06:01:35Z</time>
      </trkpt>
      <trkpt lat="41.657940" lon="2.125258">
        <ele>704.11</ele>
        <time>2016-04-10T06:01:39Z</time>
      </trkpt>
      <trkpt lat="41.658298" lon="2.125681">
        <ele>702.93</ele>
        <time>2016-04-10T06:01:46Z</time>
      </trkpt>
      <trkpt lat="41.658520" lon="2.125755">
        <ele>702.94</ele>
        <time>2016-04-10T06:01:49Z</time>
      </trkpt>
      <trkpt lat="41.658657" lon="2.125767">
        <ele>702.37</ele>
        <time>2016-04-10T06:01:53Z</time>
      </trkpt>
      <trkpt lat="41.659111" lon="2.126031">
        <ele>700.78</ele>
        <time>2016-04-10T06:02:00Z</time>
      </trkpt>
      <trkpt lat="41.659386" lon="2.125752">
        <ele>699.89</ele>
        <time>2016-04-10T06:02:07Z</time>
      </trkpt>
      <trkpt lat="41.659492" lon="2.125862">
        <ele>699.85</ele>
        <time>2016-04-10T06:02:12Z</time>
      </trkpt>
      <trkpt lat="41.659744" lon="2.126112">
        <ele>698.64</ele>
        <time>2016-04-10T06:02:17Z</time>
      </trkpt>
      <trkpt lat="41.659832" lon="2.126109">
        <ele>698.08</ele>
        <time>2016-04-10T06:02:19Z</time>
      </trkpt>
      <trkpt lat="41.660294" lon="2.125918">
        <ele>697.16</ele>
        <time>2016-04-10T06:02:26Z</time>
      </trkpt>
      <trkpt lat="41.660423" lon="2.125909">
        <ele>699.25</ele>
        <time>2016-04-10T06:02:29Z</time>
      </trkpt>
      <trkpt lat="41.660553" lon="2.125979">
        <ele>698.66</ele>
        <time>2016-04-10T06:02:31Z</time>
      </trkpt>
      <trkpt lat="41.660847" lon="2.126126">
        <ele>697.12</ele>
        <time>2016-04-10T06:02:36Z</time>
      </trkpt>
      <trkpt lat="41.661045" lon="2.126134">
        <ele>695.21</ele>
        <time>2016-04-10T06:02:38Z</time>
      </trkpt>
      <trkpt lat="41.661175" lon="2.126161">
        <ele>694.66</ele>
        <time>2016-04-10T06:02:40Z</time>
      </trkpt>
      <trkpt lat="41.661396" lon="2.126179">
        <ele>694.09</ele>
        <time>2016-04-10T06:02:43Z</time>
      </trkpt>
      <trkpt lat="41.661720" lon="2.126205">
        <ele>691.62</ele>
        <time>2016-04-10T06:02:47Z</time>
      </trkpt>
      <trkpt lat="41.661892" lon="2.126218">
        <ele>691.32</ele>
        <time>2016-04-10T06:02:50Z</time>
      </trkpt>
      <trkpt lat="41.662254" lon="2.126184">
        <ele>686.74</ele>
        <time>2016-04-10T06:02:54Z</time>
      </trkpt>
      <trkpt lat="41.662300" lon="2.125921">
        <ele>683.78</ele>
        <time>2016-04-10T06:02:57Z</time>
      </trkpt>
      <trkpt lat="41.662331" lon="2.125743">
        <ele>682.12</ele>
        <time>2016-04-10T06:02:59Z</time>
      </trkpt>
      <trkpt lat="41.662437" lon="2.125628">
        <ele>681.59</ele>
        <time>2016-04-10T06:03:01Z</time>
      </trkpt>
      <trkpt lat="41.662579" lon="2.125621">
        <ele>680.32</ele>
        <time>2016-04-10T06:03:04Z</time>
      </trkpt>
      <trkpt lat="41.662735" lon="2.125612">
        <ele>679.11</ele>
        <time>2016-04-10T06:03:06Z</time>
      </trkpt>
      <trkpt lat="41.662888" lon="2.125624">
        <ele>677.99</ele>
        <time>2016-04-10T06:03:08Z</time>
      </trkpt>
      <trkpt lat="41.663143" lon="2.125811">
        <ele>677.36</ele>
        <time>2016-04-10T06:03:11Z</time>
      </trkpt>
      <trkpt lat="41.663521" lon="2.126257">
        <ele>672.13</ele>
        <time>2016-04-10T06:03:18Z</time>
      </trkpt>
      <trkpt lat="41.663658" lon="2.126333">
        <ele>671.84</ele>
        <time>2016-04-10T06:03:20Z</time>
      </trkpt>
      <trkpt lat="41.663712" lon="2.126150">
        <ele>669.69</ele>
        <time>2016-04-10T06:03:23Z</time>
      </trkpt>
      <trkpt lat="41.663418" lon="2.125667">
        <ele>664.82</ele>
        <time>2016-04-10T06:03:32Z</time>
      </trkpt>
      <trkpt lat="41.663242" lon="2.125210">
        <ele>658.74</ele>
        <time>2016-04-10T06:03:41Z</time>
      </trkpt>
      <trkpt lat="41.663292" lon="2.125231">
        <ele>655.32</ele>
        <time>2016-04-10T06:04:23Z</time>
      </trkpt>
      <trkpt lat="41.663300" lon="2.125224">
        <ele>655.02</ele>
        <time>2016-04-10T06:04:24Z</time>
      </trkpt>
      <trkpt lat="41.663403" lon="2.125263">
        <ele>637.31</ele>
        <time>2016-04-10T06:05:39Z</time>
      </trkpt>
      <trkpt lat="41.663673" lon="2.125592">
        <ele>630.39</ele>
        <time>2016-04-10T06:05:55Z</time>
      </trkpt>
      <trkpt lat="41.663815" lon="2.125655">
        <ele>627.32</ele>
        <time>2016-04-10T06:06:00Z</time>
      </trkpt>
      <trkpt lat="41.664227" lon="2.126012">
        <ele>619.78</ele>
        <time>2016-04-10T06:06:09Z</time>
      </trkpt>
      <trkpt lat="41.664272" lon="2.126370">
        <ele>615.49</ele>
        <time>2016-04-10T06:06:16Z</time>
      </trkpt>
      <trkpt lat="41.664440" lon="2.126376">
        <ele>614.22</ele>
        <time>2016-04-10T06:06:21Z</time>
      </trkpt>
      <trkpt lat="41.664585" lon="2.126390">
        <ele>612.36</ele>
        <time>2016-04-10T06:06:23Z</time>
      </trkpt>
      <trkpt lat="41.664726" lon="2.126661">
        <ele>611.18</ele>
        <time>2016-04-10T06:06:30Z</time>
      </trkpt>
      <trkpt lat="41.664886" lon="2.127010">
        <ele>609.34</ele>
        <time>2016-04-10T06:06:35Z</time>
      </trkpt>
      <trkpt lat="41.665192" lon="2.127111">
        <ele>606.62</ele>
        <time>2016-04-10T06:06:45Z</time>
      </trkpt>
      <trkpt lat="41.665192" lon="2.127023">
        <ele>607.51</ele>
        <time>2016-04-10T06:06:47Z</time>
      </trkpt>
      <trkpt lat="41.664989" lon="2.126441">
        <ele>604.80</ele>
        <time>2016-04-10T06:06:54Z</time>
      </trkpt>
      <trkpt lat="41.664951" lon="2.125780">
        <ele>602.34</ele>
        <time>2016-04-10T06:06:59Z</time>
      </trkpt>
      <trkpt lat="41.665005" lon="2.125421">
        <ele>597.49</ele>
        <time>2016-04-10T06:07:05Z</time>
      </trkpt>
      <trkpt lat="41.665451" lon="2.125040">
        <ele>592.25</ele>
        <time>2016-04-10T06:07:13Z</time>
      </trkpt>
      <trkpt lat="41.665588" lon="2.125032">
        <ele>590.48</ele>
        <time>2016-04-10T06:07:15Z</time>
      </trkpt>
      <trkpt lat="41.666019" lon="2.125013">
        <ele>584.64</ele>
        <time>2016-04-10T06:07:20Z</time>
      </trkpt>
      <trkpt lat="41.666504" lon="2.124835">
        <ele>577.34</ele>
        <time>2016-04-10T06:07:24Z</time>
      </trkpt>
      <trkpt lat="41.666981" lon="2.124981">
        <ele>574.98</ele>
        <time>2016-04-10T06:07:31Z</time>
      </trkpt>
      <trkpt lat="41.667542" lon="2.125077">
        <ele>570.33</ele>
        <time>2016-04-10T06:07:36Z</time>
      </trkpt>
      <trkpt lat="41.667816" lon="2.125086">
        <ele>567.55</ele>
        <time>2016-04-10T06:07:41Z</time>
      </trkpt>
      <trkpt lat="41.667984" lon="2.125086">
        <ele>567.21</ele>
        <time>2016-04-10T06:07:43Z</time>
      </trkpt>
      <trkpt lat="41.668060" lon="2.125088">
        <ele>565.43</ele>
        <time>2016-04-10T06:07:45Z</time>
      </trkpt>
      <trkpt lat="41.668507" lon="2.125361">
        <ele>564.28</ele>
        <time>2016-04-10T06:07:50Z</time>
      </trkpt>
      <trkpt lat="41.668636" lon="2.125558">
        <ele>562.44</ele>
        <time>2016-04-10T06:07:55Z</time>
      </trkpt>
      <trkpt lat="41.668713" lon="2.126267">
        <ele>557.86</ele>
        <time>2016-04-10T06:08:02Z</time>
      </trkpt>
      <trkpt lat="41.668770" lon="2.126399">
        <ele>557.52</ele>
        <time>2016-04-10T06:08:04Z</time>
      </trkpt>
      <trkpt lat="41.669109" lon="2.126541">
        <ele>556.35</ele>
        <time>2016-04-10T06:08:09Z</time>
      </trkpt>
      <trkpt lat="41.669334" lon="2.126567">
        <ele>555.02</ele>
        <time>2016-04-10T06:08:14Z</time>
      </trkpt>
      <trkpt lat="41.669422" lon="2.126664">
        <ele>554.19</ele>
        <time>2016-04-10T06:08:16Z</time>
      </trkpt>
      <trkpt lat="41.669682" lon="2.127175">
        <ele>550.56</ele>
        <time>2016-04-10T06:08:23Z</time>
      </trkpt>
      <trkpt lat="41.670097" lon="2.127579">
        <ele>546.80</ele>
        <time>2016-04-10T06:08:30Z</time>
      </trkpt>
      <trkpt lat="41.670528" lon="2.127974">
        <ele>544.72</ele>
        <time>2016-04-10T06:08:35Z</time>
      </trkpt>
      <trkpt lat="41.670994" lon="2.128160">
        <ele>542.51</ele>
        <time>2016-04-10T06:08:42Z</time>
      </trkpt>
      <trkpt lat="41.671135" lon="2.128155">
        <ele>541.69</ele>
        <time>2016-04-10T06:08:44Z</time>
      </trkpt>
      <trkpt lat="41.671471" lon="2.128306">
        <ele>539.85</ele>
        <time>2016-04-10T06:08:51Z</time>
      </trkpt>
      <trkpt lat="41.671574" lon="2.128251">
        <ele>539.87</ele>
        <time>2016-04-10T06:08:54Z</time>
      </trkpt>
      <trkpt lat="41.671993" lon="2.127858">
        <ele>527.98</ele>
        <time>2016-04-10T06:09:03Z</time>
      </trkpt>
      <trkpt lat="41.672127" lon="2.127694">
        <ele>527.33</ele>
        <time>2016-04-10T06:09:05Z</time>
      </trkpt>
      <trkpt lat="41.672543" lon="2.127421">
        <ele>524.36</ele>
        <time>2016-04-10T06:09:12Z</time>
      </trkpt>
      <trkpt lat="41.672966" lon="2.127129">
        <ele>511.88</ele>
        <time>2016-04-10T06:09:17Z</time>
      </trkpt>
      <trkpt lat="41.673199" lon="2.127101">
        <ele>509.69</ele>
        <time>2016-04-10T06:09:19Z</time>
      </trkpt>
      <trkpt lat="41.673573" lon="2.127335">
        <ele>501.45</ele>
        <time>2016-04-10T06:09:24Z</time>
      </trkpt>
      <trkpt lat="41.673885" lon="2.127830">
        <ele>490.73</ele>
        <time>2016-04-10T06:09:29Z</time>
      </trkpt>
      <trkpt lat="41.674065" lon="2.128474">
        <ele>484.32</ele>
        <time>2016-04-10T06:09:36Z</time>
      </trkpt>
      <trkpt lat="41.674000" lon="2.128906">
        <ele>476.41</ele>
        <time>2016-04-10T06:09:40Z</time>
      </trkpt>
      <trkpt lat="41.673912" lon="2.129439">
        <ele>471.88</ele>
        <time>2016-04-10T06:09:47Z</time>
      </trkpt>
      <trkpt lat="41.673977" lon="2.129469">
        <ele>470.04</ele>
        <time>2016-04-10T06:09:48Z</time>
      </trkpt>
      <trkpt lat="41.674072" lon="2.129393">
        <ele>468.23</ele>
        <time>2016-04-10T06:09:54Z</time>
      </trkpt>
      <trkpt lat="41.674297" lon="2.129142">
        <ele>465.73</ele>
        <time>2016-04-10T06:10:04Z</time>
      </trkpt>
      <trkpt lat="41.674294" lon="2.129157">
        <ele>464.81</ele>
        <time>2016-04-10T06:10:06Z</time>
      </trkpt>
      <trkpt lat="41.674282" lon="2.129235">
        <ele>459.69</ele>
        <time>2016-04-10T06:10:30Z</time>
      </trkpt>
      <trkpt lat="41.674236" lon="2.129409">
        <ele>457.53</ele>
        <time>2016-04-10T06:10:32Z</time>
      </trkpt>
      <trkpt lat="41.674255" lon="2.129468">
        <ele>457.56</ele>
        <time>2016-04-10T06:10:34Z</time>
      </trkpt>
      <trkpt lat="41.674343" lon="2.129534">
        <ele>457.21</ele>
        <time>2016-04-10T06:10:35Z</time>
      </trkpt>
      <trkpt lat="41.674458" lon="2.129530">
        <ele>456.32</ele>
        <time>2016-04-10T06:10:37Z</time>
      </trkpt>
      <trkpt lat="41.674568" lon="2.129546">
        <ele>455.11</ele>
        <time>2016-04-10T06:10:39Z</time>
      </trkpt>
      <trkpt lat="41.674641" lon="2.129637">
        <ele>454.90</ele>
        <time>2016-04-10T06:10:42Z</time>
      </trkpt>
      <trkpt lat="41.674744" lon="2.129916">
        <ele>453.30</ele>
        <time>2016-04-10T06:10:46Z</time>
      </trkpt>
      <trkpt lat="41.674858" lon="2.130602">
        <ele>449.92</ele>
        <time>2016-04-10T06:10:53Z</time>
      </trkpt>
      <trkpt lat="41.674995" lon="2.131237">
        <ele>449.35</ele>
        <time>2016-04-10T06:10:58Z</time>
      </trkpt>
      <trkpt lat="41.675129" lon="2.131813">
        <ele>447.14</ele>
        <time>2016-04-10T06:11:03Z</time>
      </trkpt>
      <trkpt lat="41.675220" lon="2.132440">
        <ele>443.81</ele>
        <time>2016-04-10T06:11:07Z</time>
      </trkpt>
      <trkpt lat="41.675129" lon="2.133082">
        <ele>438.70</ele>
        <time>2016-04-10T06:11:14Z</time>
      </trkpt>
      <trkpt lat="41.674812" lon="2.133573">
        <ele>434.33</ele>
        <time>2016-04-10T06:11:19Z</time>
      </trkpt>
      <trkpt lat="41.674587" lon="2.134141">
        <ele>427.39</ele>
        <time>2016-04-10T06:11:24Z</time>
      </trkpt>
      <trkpt lat="41.674416" lon="2.134577">
        <ele>424.97</ele>
        <time>2016-04-10T06:11:31Z</time>
      </trkpt>
      <trkpt lat="41.674252" lon="2.135157">
        <ele>420.02</ele>
        <time>2016-04-10T06:11:38Z</time>
      </trkpt>
      <trkpt lat="41.674259" lon="2.135792">
        <ele>415.71</ele>
        <time>2016-04-10T06:11:47Z</time>
      </trkpt>
      <trkpt lat="41.674351" lon="2.136395">
        <ele>410.99</ele>
        <time>2016-04-10T06:12:04Z</time>
      </trkpt>
      <trkpt lat="41.674263" lon="2.137003">
        <ele>403.93</ele>
        <time>2016-04-10T06:12:18Z</time>
      </trkpt>
      <trkpt lat="41.674229" lon="2.137524">
        <ele>404.86</ele>
        <time>2016-04-10T06:12:32Z</time>
      </trkpt>
      <trkpt lat="41.674252" lon="2.137867">
        <ele>403.92</ele>
        <time>2016-04-10T06:12:44Z</time>
      </trkpt>
      <trkpt lat="41.674095" lon="2.138389">
        <ele>407.25</ele>
        <time>2016-04-10T06:13:03Z</time>
      </trkpt>
      <trkpt lat="41.673927" lon="2.138699">
        <ele>406.36</ele>
        <time>2016-04-10T06:13:16Z</time>
      </trkpt>
      <trkpt lat="41.673920" lon="2.138958">
        <ele>402.34</ele>
        <time>2016-04-10T06:13:24Z</time>
      </trkpt>
      <trkpt lat="41.674118" lon="2.139513">
        <ele>403.37</ele>
        <time>2016-04-10T06:13:45Z</time>
      </trkpt>
      <trkpt lat="41.674206" lon="2.140006">
        <ele>409.76</ele>
        <time>2016-04-10T06:15:23Z</time>
      </trkpt>
      <trkpt lat="41.674217" lon="2.140000">
        <ele>407.51</ele>
        <time>2016-04-10T06:15:45Z</time>
      </trkpt>
      <trkpt lat="41.674232" lon="2.140024">
        <ele>407.52</ele>
        <time>2016-04-10T06:15:47Z</time>
      </trkpt>
      <trkpt lat="41.674240" lon="2.140016">
        <ele>407.55</ele>
        <time>2016-04-10T06:15:56Z</time>
      </trkpt>
      <trkpt lat="41.674255" lon="2.140093">
        <ele>412.47</ele>
        <time>2016-04-10T06:19:18Z</time>
      </trkpt>
      <trkpt lat="41.674240" lon="2.140143">
        <ele>413.97</ele>
        <time>2016-04-10T06:19:56Z</time>
      </trkpt>
      <trkpt lat="41.674236" lon="2.140213">
        <ele>416.16</ele>
        <time>2016-04-10T06:20:00Z</time>
      </trkpt>
      <trkpt lat="41.674290" lon="2.140517">
        <ele>419.76</ele>
        <time>2016-04-10T06:20:10Z</time>
      </trkpt>
      <trkpt lat="41.674263" lon="2.141119">
        <ele>430.13</ele>
        <time>2016-04-10T06:20:31Z</time>
      </trkpt>
      <trkpt lat="41.674278" lon="2.141729">
        <ele>429.84</ele>
        <time>2016-04-10T06:20:50Z</time>
      </trkpt>
      <trkpt lat="41.674240" lon="2.142078">
        <ele>429.88</ele>
        <time>2016-04-10T06:21:04Z</time>
      </trkpt>
      <trkpt lat="41.674263" lon="2.142647">
        <ele>437.48</ele>
        <time>2016-04-10T06:21:23Z</time>
      </trkpt>
      <trkpt lat="41.674236" lon="2.143262">
        <ele>441.41</ele>
        <time>2016-04-10T06:21:51Z</time>
      </trkpt>
      <trkpt lat="41.674129" lon="2.143615">
        <ele>445.92</ele>
        <time>2016-04-10T06:22:10Z</time>
      </trkpt>
      <trkpt lat="41.674347" lon="2.144128">
        <ele>438.31</ele>
        <time>2016-04-10T06:22:38Z</time>
      </trkpt>
      <trkpt lat="41.674522" lon="2.144306">
        <ele>428.98</ele>
        <time>2016-04-10T06:22:52Z</time>
      </trkpt>
      <trkpt lat="41.674610" lon="2.144627">
        <ele>433.12</ele>
        <time>2016-04-10T06:23:08Z</time>
      </trkpt>
      <trkpt lat="41.674629" lon="2.145231">
        <ele>443.30</ele>
        <time>2016-04-10T06:23:34Z</time>
      </trkpt>
      <trkpt lat="41.674641" lon="2.145607">
        <ele>443.83</ele>
        <time>2016-04-10T06:23:50Z</time>
      </trkpt>
      <trkpt lat="41.674679" lon="2.145659">
        <ele>441.05</ele>
        <time>2016-04-10T06:23:53Z</time>
      </trkpt>
      <trkpt lat="41.675026" lon="2.146072">
        <ele>438.68</ele>
        <time>2016-04-10T06:24:21Z</time>
      </trkpt>
      <trkpt lat="41.675266" lon="2.146287">
        <ele>434.95</ele>
        <time>2016-04-10T06:24:37Z</time>
      </trkpt>
      <trkpt lat="41.675392" lon="2.146427">
        <ele>435.94</ele>
        <time>2016-04-10T06:24:45Z</time>
      </trkpt>
      <trkpt lat="41.675472" lon="2.146505">
        <ele>435.98</ele>
        <time>2016-04-10T06:24:51Z</time>
      </trkpt>
      <trkpt lat="41.675541" lon="2.146531">
        <ele>432.21</ele>
        <time>2016-04-10T06:24:54Z</time>
      </trkpt>
      <trkpt lat="41.675560" lon="2.146537">
        <ele>430.71</ele>
        <time>2016-04-10T06:24:56Z</time>
      </trkpt>
      <trkpt lat="41.675625" lon="2.146577">
        <ele>431.07</ele>
        <time>2016-04-10T06:24:59Z</time>
      </trkpt>
      <trkpt lat="41.675659" lon="2.146592">
        <ele>431.37</ele>
        <time>2016-04-10T06:25:01Z</time>
      </trkpt>
      <trkpt lat="41.675690" lon="2.146605">
        <ele>430.76</ele>
        <time>2016-04-10T06:25:03Z</time>
      </trkpt>
      <trkpt lat="41.675838" lon="2.146739">
        <ele>431.36</ele>
        <time>2016-04-10T06:25:13Z</time>
      </trkpt>
      <trkpt lat="41.675865" lon="2.146765">
        <ele>434.62</ele>
        <time>2016-04-10T06:25:15Z</time>
      </trkpt>
      <trkpt lat="41.676079" lon="2.146916">
        <ele>443.84</ele>
        <time>2016-04-10T06:25:27Z</time>
      </trkpt>
      <trkpt lat="41.676327" lon="2.147397">
        <ele>450.82</ele>
        <time>2016-04-10T06:25:48Z</time>
      </trkpt>
      <trkpt lat="41.676422" lon="2.147640">
        <ele>453.87</ele>
        <time>2016-04-10T06:25:57Z</time>
      </trkpt>
      <trkpt lat="41.676720" lon="2.148093">
        <ele>455.72</ele>
        <time>2016-04-10T06:26:18Z</time>
      </trkpt>
      <trkpt lat="41.677097" lon="2.148362">
        <ele>460.91</ele>
        <time>2016-04-10T06:26:42Z</time>
      </trkpt>
      <trkpt lat="41.677338" lon="2.148872">
        <ele>472.41</ele>
        <time>2016-04-10T06:27:01Z</time>
      </trkpt>
      <trkpt lat="41.677647" lon="2.149345">
        <ele>481.31</ele>
        <time>2016-04-10T06:27:24Z</time>
      </trkpt>
      <trkpt lat="41.677689" lon="2.149558">
        <ele>483.12</ele>
        <time>2016-04-10T06:27:33Z</time>
      </trkpt>
      <trkpt lat="41.677711" lon="2.149818">
        <ele>490.78</ele>
        <time>2016-04-10T06:27:45Z</time>
      </trkpt>
      <trkpt lat="41.677998" lon="2.150291">
        <ele>493.85</ele>
        <time>2016-04-10T06:28:13Z</time>
      </trkpt>
      <trkpt lat="41.678238" lon="2.150807">
        <ele>495.96</ele>
        <time>2016-04-10T06:28:39Z</time>
      </trkpt>
      <trkpt lat="41.678303" lon="2.150899">
        <ele>498.36</ele>
        <time>2016-04-10T06:28:44Z</time>
      </trkpt>
      <trkpt lat="41.678406" lon="2.150975">
        <ele>495.62</ele>
        <time>2016-04-10T06:28:51Z</time>
      </trkpt>
      <trkpt lat="41.678463" lon="2.150973">
        <ele>493.25</ele>
        <time>2016-04-10T06:28:53Z</time>
      </trkpt>
      <trkpt lat="41.678497" lon="2.150977">
        <ele>490.70</ele>
        <time>2016-04-10T06:28:56Z</time>
      </trkpt>
      <trkpt lat="41.678604" lon="2.151059">
        <ele>492.61</ele>
        <time>2016-04-10T06:29:03Z</time>
      </trkpt>
      <trkpt lat="41.678669" lon="2.151107">
        <ele>491.07</ele>
        <time>2016-04-10T06:29:07Z</time>
      </trkpt>
      <trkpt lat="41.678776" lon="2.151270">
        <ele>495.07</ele>
        <time>2016-04-10T06:29:15Z</time>
      </trkpt>
      <trkpt lat="41.678795" lon="2.151625">
        <ele>503.88</ele>
        <time>2016-04-10T06:29:26Z</time>
      </trkpt>
      <trkpt lat="41.678864" lon="2.152109">
        <ele>516.35</ele>
        <time>2016-04-10T06:29:43Z</time>
      </trkpt>
      <trkpt lat="41.678982" lon="2.152648">
        <ele>522.49</ele>
        <time>2016-04-10T06:29:57Z</time>
      </trkpt>
      <trkpt lat="41.679020" lon="2.153105">
        <ele>525.89</ele>
        <time>2016-04-10T06:30:06Z</time>
      </trkpt>
      <trkpt lat="41.679096" lon="2.153174">
        <ele>524.93</ele>
        <time>2016-04-10T06:30:09Z</time>
      </trkpt>
      <trkpt lat="41.679390" lon="2.153464">
        <ele>512.49</ele>
        <time>2016-04-10T06:30:23Z</time>
      </trkpt>
      <trkpt lat="41.679520" lon="2.154065">
        <ele>516.36</ele>
        <time>2016-04-10T06:30:39Z</time>
      </trkpt>
      <trkpt lat="41.679642" lon="2.154638">
        <ele>519.18</ele>
        <time>2016-04-10T06:30:55Z</time>
      </trkpt>
      <trkpt lat="41.679714" lon="2.155261">
        <ele>515.41</ele>
        <time>2016-04-10T06:31:10Z</time>
      </trkpt>
      <trkpt lat="41.679745" lon="2.155920">
        <ele>515.41</ele>
        <time>2016-04-10T06:31:24Z</time>
      </trkpt>
      <trkpt lat="41.679955" lon="2.156474">
        <ele>510.86</ele>
        <time>2016-04-10T06:31:33Z</time>
      </trkpt>
      <trkpt lat="41.680294" lon="2.156819">
        <ele>501.47</ele>
        <time>2016-04-10T06:31:42Z</time>
      </trkpt>
      <trkpt lat="41.680389" lon="2.156838">
        <ele>499.98</ele>
        <time>2016-04-10T06:31:45Z</time>
      </trkpt>
      <trkpt lat="41.680546" lon="2.156859">
        <ele>500.88</ele>
        <time>2016-04-10T06:31:47Z</time>
      </trkpt>
      <trkpt lat="41.680759" lon="2.156881">
        <ele>499.95</ele>
        <time>2016-04-10T06:31:52Z</time>
      </trkpt>
      <trkpt lat="41.681217" lon="2.157098">
        <ele>500.87</ele>
        <time>2016-04-10T06:32:01Z</time>
      </trkpt>
      <trkpt lat="41.681622" lon="2.157183">
        <ele>501.43</ele>
        <time>2016-04-10T06:32:11Z</time>
      </trkpt>
      <trkpt lat="41.681889" lon="2.157171">
        <ele>503.27</ele>
        <time>2016-04-10T06:32:18Z</time>
      </trkpt>
      <trkpt lat="41.682030" lon="2.157180">
        <ele>503.84</ele>
        <time>2016-04-10T06:32:22Z</time>
      </trkpt>
      <trkpt lat="41.682468" lon="2.157045">
        <ele>508.43</ele>
        <time>2016-04-10T06:32:36Z</time>
      </trkpt>
      <trkpt lat="41.682743" lon="2.156874">
        <ele>508.41</ele>
        <time>2016-04-10T06:32:50Z</time>
      </trkpt>
      <trkpt lat="41.683113" lon="2.156484">
        <ele>503.30</ele>
        <time>2016-04-10T06:33:09Z</time>
      </trkpt>
      <trkpt lat="41.683395" lon="2.156124">
        <ele>496.85</ele>
        <time>2016-04-10T06:33:30Z</time>
      </trkpt>
      <trkpt lat="41.683449" lon="2.156042">
        <ele>498.38</ele>
        <time>2016-04-10T06:33:35Z</time>
      </trkpt>
      <trkpt lat="41.683529" lon="2.155866">
        <ele>497.16</ele>
        <time>2016-04-10T06:33:42Z</time>
      </trkpt>
      <trkpt lat="41.683727" lon="2.155437">
        <ele>492.66</ele>
        <time>2016-04-10T06:33:59Z</time>
      </trkpt>
      <trkpt lat="41.683807" lon="2.155388">
        <ele>492.64</ele>
        <time>2016-04-10T06:34:03Z</time>
      </trkpt>
      <trkpt lat="41.683865" lon="2.155385">
        <ele>494.73</ele>
        <time>2016-04-10T06:34:06Z</time>
      </trkpt>
      <trkpt lat="41.683899" lon="2.155375">
        <ele>495.04</ele>
        <time>2016-04-10T06:34:08Z</time>
      </trkpt>
      <trkpt lat="41.684319" lon="2.155130">
        <ele>497.49</ele>
        <time>2016-04-10T06:34:24Z</time>
      </trkpt>
      <trkpt lat="41.684380" lon="2.155068">
        <ele>498.38</ele>
        <time>2016-04-10T06:34:29Z</time>
      </trkpt>
      <trkpt lat="41.684437" lon="2.154941">
        <ele>497.41</ele>
        <time>2016-04-10T06:34:31Z</time>
      </trkpt>
      <trkpt lat="41.684597" lon="2.154886">
        <ele>499.91</ele>
        <time>2016-04-10T06:34:36Z</time>
      </trkpt>
      <trkpt lat="41.684788" lon="2.155030">
        <ele>502.39</ele>
        <time>2016-04-10T06:34:41Z</time>
      </trkpt>
      <trkpt lat="41.684818" lon="2.155151">
        <ele>503.28</ele>
        <time>2016-04-10T06:34:43Z</time>
      </trkpt>
      <trkpt lat="41.684944" lon="2.155725">
        <ele>503.26</ele>
        <time>2016-04-10T06:35:00Z</time>
      </trkpt>
      <trkpt lat="41.685143" lon="2.156016">
        <ele>505.14</ele>
        <time>2016-04-10T06:35:09Z</time>
      </trkpt>
      <trkpt lat="41.685162" lon="2.156008">
        <ele>503.81</ele>
        <time>2016-04-10T06:35:11Z</time>
      </trkpt>
      <trkpt lat="41.685432" lon="2.155816">
        <ele>510.86</ele>
        <time>2016-04-10T06:35:25Z</time>
      </trkpt>
      <trkpt lat="41.685486" lon="2.155713">
        <ele>509.39</ele>
        <time>2016-04-10T06:35:30Z</time>
      </trkpt>
      <trkpt lat="41.685528" lon="2.155593">
        <ele>507.55</ele>
        <time>2016-04-10T06:35:33Z</time>
      </trkpt>
      <trkpt lat="41.685814" lon="2.155082">
        <ele>513.02</ele>
        <time>2016-04-10T06:35:53Z</time>
      </trkpt>
      <trkpt lat="41.685921" lon="2.154835">
        <ele>515.41</ele>
        <time>2016-04-10T06:36:01Z</time>
      </trkpt>
      <trkpt lat="41.686069" lon="2.154209">
        <ele>511.82</ele>
        <time>2016-04-10T06:36:15Z</time>
      </trkpt>
      <trkpt lat="41.686455" lon="2.153732">
        <ele>508.44</ele>
        <time>2016-04-10T06:36:26Z</time>
      </trkpt>
      <trkpt lat="41.686512" lon="2.153745">
        <ele>509.96</ele>
        <time>2016-04-10T06:36:27Z</time>
      </trkpt>
      <trkpt lat="41.686581" lon="2.153826">
        <ele>509.67</ele>
        <time>2016-04-10T06:36:29Z</time>
      </trkpt>
      <trkpt lat="41.686588" lon="2.153929">
        <ele>510.89</ele>
        <time>2016-04-10T06:36:31Z</time>
      </trkpt>
      <trkpt lat="41.686630" lon="2.154546">
        <ele>518.85</ele>
        <time>2016-04-10T06:36:45Z</time>
      </trkpt>
      <trkpt lat="41.686749" lon="2.154925">
        <ele>522.14</ele>
        <time>2016-04-10T06:36:55Z</time>
      </trkpt>
      <trkpt lat="41.687019" lon="2.155415">
        <ele>525.58</ele>
        <time>2016-04-10T06:37:11Z</time>
      </trkpt>
      <trkpt lat="41.687233" lon="2.155891">
        <ele>523.05</ele>
        <time>2016-04-10T06:37:20Z</time>
      </trkpt>
      <trkpt lat="41.687176" lon="2.156307">
        <ele>522.46</ele>
        <time>2016-04-10T06:37:27Z</time>
      </trkpt>
      <trkpt lat="41.687550" lon="2.156720">
        <ele>520.31</ele>
        <time>2016-04-10T06:37:35Z</time>
      </trkpt>
      <trkpt lat="41.687531" lon="2.156894">
        <ele>519.71</ele>
        <time>2016-04-10T06:37:37Z</time>
      </trkpt>
      <trkpt lat="41.687420" lon="2.157091">
        <ele>520.38</ele>
        <time>2016-04-10T06:37:41Z</time>
      </trkpt>
      <trkpt lat="41.687069" lon="2.157515">
        <ele>525.57</ele>
        <time>2016-04-10T06:37:53Z</time>
      </trkpt>
      <trkpt lat="41.686932" lon="2.157995">
        <ele>531.66</ele>
        <time>2016-04-10T06:38:10Z</time>
      </trkpt>
      <trkpt lat="41.686981" lon="2.158227">
        <ele>535.54</ele>
        <time>2016-04-10T06:38:19Z</time>
      </trkpt>
      <trkpt lat="41.687180" lon="2.158786">
        <ele>541.34</ele>
        <time>2016-04-10T06:38:43Z</time>
      </trkpt>
      <trkpt lat="41.687454" lon="2.159288">
        <ele>538.31</ele>
        <time>2016-04-10T06:39:04Z</time>
      </trkpt>
      <trkpt lat="41.687717" lon="2.159782">
        <ele>539.88</ele>
        <time>2016-04-10T06:39:16Z</time>
      </trkpt>
      <trkpt lat="41.688004" lon="2.160315">
        <ele>539.26</ele>
        <time>2016-04-10T06:39:27Z</time>
      </trkpt>
      <trkpt lat="41.688347" lon="2.160774">
        <ele>537.49</ele>
        <time>2016-04-10T06:39:37Z</time>
      </trkpt>
      <trkpt lat="41.688801" lon="2.160840">
        <ele>537.42</ele>
        <time>2016-04-10T06:39:46Z</time>
      </trkpt>
      <trkpt lat="41.689095" lon="2.160800">
        <ele>536.13</ele>
        <time>2016-04-10T06:39:51Z</time>
      </trkpt>
      <trkpt lat="41.689259" lon="2.160971">
        <ele>536.11</ele>
        <time>2016-04-10T06:39:55Z</time>
      </trkpt>
      <trkpt lat="41.689480" lon="2.161326">
        <ele>534.64</ele>
        <time>2016-04-10T06:40:03Z</time>
      </trkpt>
      <trkpt lat="41.689529" lon="2.161493">
        <ele>534.33</ele>
        <time>2016-04-10T06:40:09Z</time>
      </trkpt>
      <trkpt lat="41.689587" lon="2.161522">
        <ele>533.80</ele>
        <time>2016-04-10T06:40:14Z</time>
      </trkpt>
      <trkpt lat="41.689812" lon="2.161639">
        <ele>535.00</ele>
        <time>2016-04-10T06:40:23Z</time>
      </trkpt>
      <trkpt lat="41.689831" lon="2.161651">
        <ele>535.52</ele>
        <time>2016-04-10T06:40:24Z</time>
      </trkpt>
      <trkpt lat="41.690140" lon="2.161919">
        <ele>542.89</ele>
        <time>2016-04-10T06:40:38Z</time>
      </trkpt>
      <trkpt lat="41.690239" lon="2.162073">
        <ele>537.46</ele>
        <time>2016-04-10T06:40:45Z</time>
      </trkpt>
      <trkpt lat="41.690086" lon="2.162162">
        <ele>532.22</ele>
        <time>2016-04-10T06:41:22Z</time>
      </trkpt>
      <trkpt lat="41.690091" lon="2.162191">
        <ele>484.07</ele>
        <time>2013-12-21T11:00:20Z</time>
      </trkpt>
      <trkpt lat="41.690036" lon="2.162254">
        <ele>484.67</ele>
        <time>2013-12-21T11:00:25Z</time>
      </trkpt>
      <trkpt lat="41.690065" lon="2.162321">
        <ele>486.17</ele>
        <time>2013-12-21T11:00:30Z</time>
      </trkpt>
      <trkpt lat="41.690083" lon="2.162381">
        <ele>486.94</ele>
        <time>2013-12-21T11:00:33Z</time>
      </trkpt>
      <trkpt lat="41.690056" lon="2.162516">
        <ele>488.05</ele>
        <time>2013-12-21T11:00:37Z</time>
      </trkpt>
      <trkpt lat="41.690163" lon="2.162675">
        <ele>491.67</ele>
        <time>2013-12-21T11:00:47Z</time>
      </trkpt>
      <trkpt lat="41.690269" lon="2.162849">
        <ele>494.75</ele>
        <time>2013-12-21T11:00:58Z</time>
      </trkpt>
      <trkpt lat="41.690341" lon="2.162931">
        <ele>497.59</ele>
        <time>2013-12-21T11:01:08Z</time>
      </trkpt>
      <trkpt lat="41.690423" lon="2.162924">
        <ele>498.96</ele>
        <time>2013-12-21T11:01:12Z</time>
      </trkpt>
      <trkpt lat="41.690573" lon="2.162841">
        <ele>501.62</ele>
        <time>2013-12-21T11:01:27Z</time>
      </trkpt>
      <trkpt lat="41.690767" lon="2.162738">
        <ele>503.81</ele>
        <time>2013-12-21T11:01:41Z</time>
      </trkpt>
      <trkpt lat="41.690826" lon="2.162675">
        <ele>504.85</ele>
        <time>2013-12-21T11:01:51Z</time>
      </trkpt>
      <trkpt lat="41.690785" lon="2.162694">
        <ele>505.15</ele>
        <time>2013-12-21T11:01:55Z</time>
      </trkpt>
      <trkpt lat="41.690689" lon="2.162844">
        <ele>504.74</ele>
        <time>2013-12-21T11:02:04Z</time>
      </trkpt>
      <trkpt lat="41.690799" lon="2.163107">
        <ele>507.95</ele>
        <time>2013-12-21T11:02:20Z</time>
      </trkpt>
      <trkpt lat="41.690842" lon="2.163145">
        <ele>511.13</ele>
        <time>2013-12-21T11:02:32Z</time>
      </trkpt>
      <trkpt lat="41.690926" lon="2.163343">
        <ele>516.21</ele>
        <time>2013-12-21T11:02:56Z</time>
      </trkpt>
      <trkpt lat="41.690957" lon="2.163396">
        <ele>517.32</ele>
        <time>2013-12-21T11:03:04Z</time>
      </trkpt>
      <trkpt lat="41.691024" lon="2.163521">
        <ele>518.24</ele>
        <time>2013-12-21T11:03:13Z</time>
      </trkpt>
      <trkpt lat="41.691266" lon="2.163703">
        <ele>521.26</ele>
        <time>2013-12-21T11:03:30Z</time>
      </trkpt>
      <trkpt lat="41.691484" lon="2.163837">
        <ele>523.51</ele>
        <time>2013-12-21T11:03:42Z</time>
      </trkpt>
      <trkpt lat="41.691705" lon="2.163956">
        <ele>526.01</ele>
        <time>2013-12-21T11:03:55Z</time>
      </trkpt>
      <trkpt lat="41.691969" lon="2.164087">
        <ele>529.12</ele>
        <time>2013-12-21T11:04:10Z</time>
      </trkpt>
      <trkpt lat="41.692349" lon="2.164148">
        <ele>531.82</ele>
        <time>2013-12-21T11:04:28Z</time>
      </trkpt>
      <trkpt lat="41.692624" lon="2.164176">
        <ele>534.82</ele>
        <time>2013-12-21T11:04:44Z</time>
      </trkpt>
      <trkpt lat="41.692887" lon="2.164207">
        <ele>537.94</ele>
        <time>2013-12-21T11:04:59Z</time>
      </trkpt>
      <trkpt lat="41.693115" lon="2.164257">
        <ele>540.99</ele>
        <time>2013-12-21T11:05:14Z</time>
      </trkpt>
      <trkpt lat="41.693131" lon="2.164257">
        <ele>541.09</ele>
        <time>2013-12-21T11:05:15Z</time>
      </trkpt>
      <trkpt lat="41.693095" lon="2.164266">
        <ele>541.63</ele>
        <time>2013-12-21T11:05:24Z</time>
      </trkpt>
      <trkpt lat="41.693076" lon="2.164144">
        <ele>541.57</ele>
        <time>2013-12-21T11:05:32Z</time>
      </trkpt>
      <trkpt lat="41.693303" lon="2.164122">
        <ele>543.28</ele>
        <time>2013-12-21T11:05:45Z</time>
      </trkpt>
      <trkpt lat="41.693583" lon="2.164097">
        <ele>546.11</ele>
        <time>2013-12-21T11:06:01Z</time>
      </trkpt>
      <trkpt lat="41.693758" lon="2.164102">
        <ele>549.21</ele>
        <time>2013-12-21T11:06:13Z</time>
      </trkpt>
      <trkpt lat="41.693971" lon="2.164059">
        <ele>551.27</ele>
        <time>2013-12-21T11:06:26Z</time>
      </trkpt>
      <trkpt lat="41.694186" lon="2.164044">
        <ele>552.98</ele>
        <time>2013-12-21T11:06:39Z</time>
      </trkpt>
      <trkpt lat="41.694373" lon="2.164048">
        <ele>554.84</ele>
        <time>2013-12-21T11:06:53Z</time>
      </trkpt>
      <trkpt lat="41.694420" lon="2.164047">
        <ele>555.42</ele>
        <time>2013-12-21T11:07:00Z</time>
      </trkpt>
      <trkpt lat="41.694467" lon="2.164076">
        <ele>555.92</ele>
        <time>2013-12-21T11:07:13Z</time>
      </trkpt>
      <trkpt lat="41.694580" lon="2.164103">
        <ele>557.64</ele>
        <time>2013-12-21T11:07:26Z</time>
      </trkpt>
      <trkpt lat="41.694597" lon="2.164113">
        <ele>558.55</ele>
        <time>2013-12-21T11:07:31Z</time>
      </trkpt>
      <trkpt lat="41.694694" lon="2.164157">
        <ele>559.74</ele>
        <time>2013-12-21T11:07:43Z</time>
      </trkpt>
      <trkpt lat="41.694839" lon="2.164263">
        <ele>560.88</ele>
        <time>2013-12-21T11:07:55Z</time>
      </trkpt>
      <trkpt lat="41.694851" lon="2.164272">
        <ele>560.91</ele>
        <time>2013-12-21T11:07:56Z</time>
      </trkpt>
      <trkpt lat="41.694923" lon="2.164268">
        <ele>561.71</ele>
        <time>2013-12-21T11:08:01Z</time>
      </trkpt>
      <trkpt lat="41.695031" lon="2.164251">
        <ele>563.67</ele>
        <time>2013-12-21T11:08:12Z</time>
      </trkpt>
      <trkpt lat="41.695196" lon="2.164342">
        <ele>566.72</ele>
        <time>2013-12-21T11:08:32Z</time>
      </trkpt>
      <trkpt lat="41.695283" lon="2.164373">
        <ele>567.90</ele>
        <time>2013-12-21T11:08:41Z</time>
      </trkpt>
      <trkpt lat="41.695367" lon="2.164463">
        <ele>569.42</ele>
        <time>2013-12-21T11:08:52Z</time>
      </trkpt>
      <trkpt lat="41.695443" lon="2.164533">
        <ele>569.70</ele>
        <time>2013-12-21T11:09:00Z</time>
      </trkpt>
      <trkpt lat="41.695477" lon="2.164585">
        <ele>570.05</ele>
        <time>2013-12-21T11:09:06Z</time>
      </trkpt>
      <trkpt lat="41.695598" lon="2.164742">
        <ele>570.66</ele>
        <time>2013-12-21T11:09:16Z</time>
      </trkpt>
      <trkpt lat="41.695676" lon="2.164829">
        <ele>570.89</ele>
        <time>2013-12-21T11:09:22Z</time>
      </trkpt>
      <trkpt lat="41.695697" lon="2.164837">
        <ele>570.95</ele>
        <time>2013-12-21T11:09:24Z</time>
      </trkpt>
      <trkpt lat="41.695776" lon="2.164909">
        <ele>572.02</ele>
        <time>2013-12-21T11:09:35Z</time>
      </trkpt>
      <trkpt lat="41.695912" lon="2.164954">
        <ele>573.81</ele>
        <time>2013-12-21T11:09:49Z</time>
      </trkpt>
      <trkpt lat="41.695920" lon="2.164954">
        <ele>573.94</ele>
        <time>2013-12-21T11:09:50Z</time>
      </trkpt>
      <trkpt lat="41.696020" lon="2.164984">
        <ele>575.50</ele>
        <time>2013-12-21T11:10:02Z</time>
      </trkpt>
      <trkpt lat="41.696122" lon="2.165024">
        <ele>577.15</ele>
        <time>2013-12-21T11:10:15Z</time>
      </trkpt>
      <trkpt lat="41.696203" lon="2.165082">
        <ele>579.27</ele>
        <time>2013-12-21T11:10:28Z</time>
      </trkpt>
      <trkpt lat="41.696413" lon="2.164960">
        <ele>583.77</ele>
        <time>2013-12-21T11:11:07Z</time>
      </trkpt>
      <trkpt lat="41.696430" lon="2.164959">
        <ele>583.88</ele>
        <time>2013-12-21T11:11:08Z</time>
      </trkpt>
      <trkpt lat="41.696685" lon="2.164971">
        <ele>584.79</ele>
        <time>2013-12-21T11:11:19Z</time>
      </trkpt>
      <trkpt lat="41.696778" lon="2.165006">
        <ele>585.34</ele>
        <time>2013-12-21T11:11:23Z</time>
      </trkpt>
      <trkpt lat="41.697049" lon="2.165147">
        <ele>586.65</ele>
        <time>2013-12-21T11:11:36Z</time>
      </trkpt>
      <trkpt lat="41.697314" lon="2.165309">
        <ele>587.41</ele>
        <time>2013-12-21T11:11:48Z</time>
      </trkpt>
      <trkpt lat="41.697580" lon="2.165555">
        <ele>587.81</ele>
        <time>2013-12-21T11:11:59Z</time>
      </trkpt>
      <trkpt lat="41.697896" lon="2.165880">
        <ele>588.34</ele>
        <time>2013-12-21T11:12:12Z</time>
      </trkpt>
      <trkpt lat="41.698243" lon="2.166140">
        <ele>589.08</ele>
        <time>2013-12-21T11:12:25Z</time>
      </trkpt>
      <trkpt lat="41.698491" lon="2.166245">
        <ele>592.24</ele>
        <time>2013-12-21T11:12:35Z</time>
      </trkpt>
      <trkpt lat="41.698758" lon="2.166334">
        <ele>595.35</ele>
        <time>2013-12-21T11:12:47Z</time>
      </trkpt>
      <trkpt lat="41.698796" lon="2.166348">
        <ele>596.00</ele>
        <time>2013-12-21T11:12:49Z</time>
      </trkpt>
      <trkpt lat="41.698894" lon="2.166397">
        <ele>597.52</ele>
        <time>2013-12-21T11:12:54Z</time>
      </trkpt>
      <trkpt lat="41.699025" lon="2.166463">
        <ele>598.73</ele>
        <time>2013-12-21T11:13:00Z</time>
      </trkpt>
      <trkpt lat="41.699080" lon="2.166720">
        <ele>601.54</ele>
        <time>2013-12-21T11:13:12Z</time>
      </trkpt>
      <trkpt lat="41.699002" lon="2.166804">
        <ele>601.90</ele>
        <time>2013-12-21T11:13:16Z</time>
      </trkpt>
      <trkpt lat="41.698512" lon="2.167093">
        <ele>601.22</ele>
        <time>2013-12-21T11:13:29Z</time>
      </trkpt>
      <trkpt lat="41.698241" lon="2.167287">
        <ele>599.61</ele>
        <time>2013-12-21T11:13:38Z</time>
      </trkpt>
      <trkpt lat="41.698090" lon="2.167616">
        <ele>598.48</ele>
        <time>2013-12-21T11:13:47Z</time>
      </trkpt>
      <trkpt lat="41.698183" lon="2.167770">
        <ele>597.66</ele>
        <time>2013-12-21T11:13:52Z</time>
      </trkpt>
      <trkpt lat="41.698277" lon="2.167939">
        <ele>597.33</ele>
        <time>2013-12-21T11:13:59Z</time>
      </trkpt>
      <trkpt lat="41.698332" lon="2.167974">
        <ele>597.57</ele>
        <time>2013-12-21T11:14:02Z</time>
      </trkpt>
      <trkpt lat="41.698405" lon="2.168104">
        <ele>598.03</ele>
        <time>2013-12-21T11:14:07Z</time>
      </trkpt>
      <trkpt lat="41.698614" lon="2.168358">
        <ele>600.21</ele>
        <time>2013-12-21T11:14:21Z</time>
      </trkpt>
      <trkpt lat="41.698916" lon="2.168359">
        <ele>603.28</ele>
        <time>2013-12-21T11:14:36Z</time>
      </trkpt>
      <trkpt lat="41.699222" lon="2.168300">
        <ele>605.49</ele>
        <time>2013-12-21T11:14:51Z</time>
      </trkpt>
      <trkpt lat="41.699449" lon="2.168167">
        <ele>606.32</ele>
        <time>2013-12-21T11:15:02Z</time>
      </trkpt>
      <trkpt lat="41.699754" lon="2.168039">
        <ele>605.03</ele>
        <time>2013-12-21T11:15:12Z</time>
      </trkpt>
      <trkpt lat="41.700091" lon="2.168019">
        <ele>604.41</ele>
        <time>2013-12-21T11:15:22Z</time>
      </trkpt>
      <trkpt lat="41.700465" lon="2.168576">
        <ele>603.32</ele>
        <time>2013-12-21T11:15:37Z</time>
      </trkpt>
      <trkpt lat="41.700651" lon="2.169016">
        <ele>603.59</ele>
        <time>2013-12-21T11:15:48Z</time>
      </trkpt>
      <trkpt lat="41.700802" lon="2.169355">
        <ele>604.58</ele>
        <time>2013-12-21T11:15:59Z</time>
      </trkpt>
      <trkpt lat="41.701015" lon="2.169470">
        <ele>605.73</ele>
        <time>2013-12-21T11:16:08Z</time>
      </trkpt>
      <trkpt lat="41.701160" lon="2.169429">
        <ele>605.28</ele>
        <time>2013-12-21T11:16:12Z</time>
      </trkpt>
      <trkpt lat="41.701466" lon="2.169225">
        <ele>601.95</ele>
        <time>2013-12-21T11:16:22Z</time>
      </trkpt>
      <trkpt lat="41.701593" lon="2.169113">
        <ele>600.36</ele>
        <time>2013-12-21T11:16:26Z</time>
      </trkpt>
      <trkpt lat="41.701718" lon="2.168968">
        <ele>598.46</ele>
        <time>2013-12-21T11:16:30Z</time>
      </trkpt>
      <trkpt lat="41.701971" lon="2.168700">
        <ele>594.71</ele>
        <time>2013-12-21T11:16:37Z</time>
      </trkpt>
      <trkpt lat="41.702247" lon="2.168260">
        <ele>592.52</ele>
        <time>2013-12-21T11:16:48Z</time>
      </trkpt>
      <trkpt lat="41.702348" lon="2.168087">
        <ele>592.21</ele>
        <time>2013-12-21T11:16:52Z</time>
      </trkpt>
      <trkpt lat="41.702604" lon="2.167260">
        <ele>591.85</ele>
        <time>2013-12-21T11:17:10Z</time>
      </trkpt>
      <trkpt lat="41.702640" lon="2.167134">
        <ele>591.98</ele>
        <time>2013-12-21T11:17:13Z</time>
      </trkpt>
      <trkpt lat="41.702773" lon="2.166833">
        <ele>591.76</ele>
        <time>2013-12-21T11:17:19Z</time>
      </trkpt>
      <trkpt lat="41.702923" lon="2.166660">
        <ele>590.88</ele>
        <time>2013-12-21T11:17:23Z</time>
      </trkpt>
      <trkpt lat="41.703403" lon="2.166251">
        <ele>587.83</ele>
        <time>2013-12-21T11:17:35Z</time>
      </trkpt>
      <trkpt lat="41.703514" lon="2.166151">
        <ele>587.67</ele>
        <time>2013-12-21T11:17:38Z</time>
      </trkpt>
      <trkpt lat="41.703581" lon="2.166068">
        <ele>587.51</ele>
        <time>2013-12-21T11:17:40Z</time>
      </trkpt>
      <trkpt lat="41.703951" lon="2.165934">
        <ele>587.49</ele>
        <time>2013-12-21T11:17:50Z</time>
      </trkpt>
      <trkpt lat="41.703990" lon="2.165911">
        <ele>587.46</ele>
        <time>2013-12-21T11:17:51Z</time>
      </trkpt>
      <trkpt lat="41.704282" lon="2.165680">
        <ele>587.62</ele>
        <time>2013-12-21T11:17:59Z</time>
      </trkpt>
      <trkpt lat="41.704442" lon="2.165537">
        <ele>587.51</ele>
        <time>2013-12-21T11:18:03Z</time>
      </trkpt>
      <trkpt lat="41.704555" lon="2.165420">
        <ele>587.12</ele>
        <time>2013-12-21T11:18:06Z</time>
      </trkpt>
      <trkpt lat="41.704652" lon="2.165244">
        <ele>586.65</ele>
        <time>2013-12-21T11:18:10Z</time>
      </trkpt>
      <trkpt lat="41.704731" lon="2.165113">
        <ele>586.54</ele>
        <time>2013-12-21T11:18:13Z</time>
      </trkpt>
      <trkpt lat="41.704852" lon="2.164908">
        <ele>586.78</ele>
        <time>2013-12-21T11:18:18Z</time>
      </trkpt>
      <trkpt lat="41.705019" lon="2.164723">
        <ele>588.23</ele>
        <time>2013-12-21T11:18:29Z</time>
      </trkpt>
      <trkpt lat="41.705049" lon="2.164660">
        <ele>589.81</ele>
        <time>2013-12-21T11:18:39Z</time>
      </trkpt>
      <trkpt lat="41.705312" lon="2.164358">
        <ele>590.26</ele>
        <time>2013-12-21T11:18:50Z</time>
      </trkpt>
      <trkpt lat="41.705477" lon="2.163969">
        <ele>590.71</ele>
        <time>2013-12-21T11:19:01Z</time>
      </trkpt>
      <trkpt lat="41.705475" lon="2.163661">
        <ele>591.54</ele>
        <time>2013-12-21T11:19:10Z</time>
      </trkpt>
      <trkpt lat="41.705550" lon="2.163271">
        <ele>592.31</ele>
        <time>2013-12-21T11:19:22Z</time>
      </trkpt>
      <trkpt lat="41.705705" lon="2.163104">
        <ele>593.81</ele>
        <time>2013-12-21T11:19:30Z</time>
      </trkpt>
      <trkpt lat="41.705807" lon="2.162693">
        <ele>595.23</ele>
        <time>2013-12-21T11:19:42Z</time>
      </trkpt>
      <trkpt lat="41.705823" lon="2.162543">
        <ele>595.04</ele>
        <time>2013-12-21T11:19:47Z</time>
      </trkpt>
      <trkpt lat="41.705895" lon="2.162385">
        <ele>594.97</ele>
        <time>2013-12-21T11:19:55Z</time>
      </trkpt>
      <trkpt lat="41.705954" lon="2.162169">
        <ele>598.34</ele>
        <time>2013-12-21T11:20:07Z</time>
      </trkpt>
      <trkpt lat="41.706035" lon="2.161916">
        <ele>601.01</ele>
        <time>2013-12-21T11:20:19Z</time>
      </trkpt>
      <trkpt lat="41.706075" lon="2.161649">
        <ele>604.02</ele>
        <time>2013-12-21T11:20:31Z</time>
      </trkpt>
      <trkpt lat="41.706058" lon="2.161339">
        <ele>606.08</ele>
        <time>2013-12-21T11:20:44Z</time>
      </trkpt>
      <trkpt lat="41.706055" lon="2.160906">
        <ele>605.84</ele>
        <time>2013-12-21T11:20:56Z</time>
      </trkpt>
      <trkpt lat="41.706081" lon="2.160489">
        <ele>607.06</ele>
        <time>2013-12-21T11:21:10Z</time>
      </trkpt>
      <trkpt lat="41.706121" lon="2.160015">
        <ele>607.01</ele>
        <time>2013-12-21T11:21:23Z</time>
      </trkpt>
      <trkpt lat="41.706156" lon="2.159931">
        <ele>607.21</ele>
        <time>2013-12-21T11:21:26Z</time>
      </trkpt>
      <trkpt lat="41.706231" lon="2.159873">
        <ele>608.43</ele>
        <time>2013-12-21T11:21:33Z</time>
      </trkpt>
      <trkpt lat="41.706249" lon="2.159604">
        <ele>610.72</ele>
        <time>2013-12-21T11:21:47Z</time>
      </trkpt>
      <trkpt lat="41.706299" lon="2.159365">
        <ele>611.85</ele>
        <time>2013-12-21T11:21:57Z</time>
      </trkpt>
      <trkpt lat="41.706331" lon="2.158911">
        <ele>614.37</ele>
        <time>2013-12-21T11:22:10Z</time>
      </trkpt>
      <trkpt lat="41.706289" lon="2.158584">
        <ele>615.58</ele>
        <time>2013-12-21T11:22:22Z</time>
      </trkpt>
      <trkpt lat="41.706259" lon="2.158302">
        <ele>615.46</ele>
        <time>2013-12-21T11:22:32Z</time>
      </trkpt>
      <trkpt lat="41.706261" lon="2.157933">
        <ele>615.85</ele>
        <time>2013-12-21T11:22:45Z</time>
      </trkpt>
      <trkpt lat="41.706303" lon="2.157914">
        <ele>616.58</ele>
        <time>2013-12-21T11:22:58Z</time>
      </trkpt>
      <trkpt lat="41.706326" lon="2.157898">
        <ele>616.53</ele>
        <time>2013-12-21T11:23:01Z</time>
      </trkpt>
      <trkpt lat="41.706331" lon="2.157852">
        <ele>616.62</ele>
        <time>2013-12-21T11:23:06Z</time>
      </trkpt>
      <trkpt lat="41.706366" lon="2.157634">
        <ele>617.71</ele>
        <time>2013-12-21T11:23:20Z</time>
      </trkpt>
      <trkpt lat="41.706370" lon="2.157615">
        <ele>617.86</ele>
        <time>2013-12-21T11:23:21Z</time>
      </trkpt>
      <trkpt lat="41.706385" lon="2.157493">
        <ele>618.75</ele>
        <time>2013-12-21T11:23:32Z</time>
      </trkpt>
      <trkpt lat="41.706415" lon="2.157283">
        <ele>618.05</ele>
        <time>2013-12-21T11:23:51Z</time>
      </trkpt>
      <trkpt lat="41.706514" lon="2.157169">
        <ele>620.07</ele>
        <time>2013-12-21T11:24:15Z</time>
      </trkpt>
      <trkpt lat="41.706554" lon="2.157147">
        <ele>621.47</ele>
        <time>2013-12-21T11:24:29Z</time>
      </trkpt>
      <trkpt lat="41.706720" lon="2.156915">
        <ele>621.67</ele>
        <time>2013-12-21T11:24:55Z</time>
      </trkpt>
      <trkpt lat="41.706824" lon="2.156626">
        <ele>622.07</ele>
        <time>2013-12-21T11:25:09Z</time>
      </trkpt>
      <trkpt lat="41.707060" lon="2.156323">
        <ele>625.33</ele>
        <time>2013-12-21T11:25:26Z</time>
      </trkpt>
      <trkpt lat="41.707213" lon="2.156181">
        <ele>627.07</ele>
        <time>2013-12-21T11:25:37Z</time>
      </trkpt>
      <trkpt lat="41.707325" lon="2.156191">
        <ele>630.01</ele>
        <time>2013-12-21T11:25:56Z</time>
      </trkpt>
      <trkpt lat="41.707362" lon="2.156240">
        <ele>631.11</ele>
        <time>2013-12-21T11:26:02Z</time>
      </trkpt>
      <trkpt lat="41.707403" lon="2.156303">
        <ele>631.44</ele>
        <time>2013-12-21T11:26:07Z</time>
      </trkpt>
      <trkpt lat="41.707527" lon="2.156420">
        <ele>632.41</ele>
        <time>2013-12-21T11:26:21Z</time>
      </trkpt>
      <trkpt lat="41.707540" lon="2.156427">
        <ele>633.11</ele>
        <time>2013-12-21T11:26:25Z</time>
      </trkpt>
      <trkpt lat="41.707649" lon="2.156373">
        <ele>635.89</ele>
        <time>2013-12-21T11:26:51Z</time>
      </trkpt>
      <trkpt lat="41.707647" lon="2.156337">
        <ele>636.24</ele>
        <time>2013-12-21T11:26:56Z</time>
      </trkpt>
      <trkpt lat="41.707789" lon="2.156319">
        <ele>636.04</ele>
        <time>2013-12-21T11:27:24Z</time>
      </trkpt>
      <trkpt lat="41.708089" lon="2.156341">
        <ele>635.64</ele>
        <time>2013-12-21T11:27:36Z</time>
      </trkpt>
      <trkpt lat="41.708391" lon="2.156337">
        <ele>636.56</ele>
        <time>2013-12-21T11:27:47Z</time>
      </trkpt>
      <trkpt lat="41.708682" lon="2.156170">
        <ele>637.94</ele>
        <time>2013-12-21T11:27:59Z</time>
      </trkpt>
      <trkpt lat="41.708957" lon="2.155929">
        <ele>639.22</ele>
        <time>2013-12-21T11:28:11Z</time>
      </trkpt>
      <trkpt lat="41.709159" lon="2.155644">
        <ele>639.61</ele>
        <time>2013-12-21T11:28:21Z</time>
      </trkpt>
      <trkpt lat="41.709404" lon="2.155325">
        <ele>641.07</ele>
        <time>2013-12-21T11:28:35Z</time>
      </trkpt>
      <trkpt lat="41.709679" lon="2.155080">
        <ele>642.91</ele>
        <time>2013-12-21T11:28:49Z</time>
      </trkpt>
      <trkpt lat="41.710003" lon="2.155002">
        <ele>642.54</ele>
        <time>2013-12-21T11:29:00Z</time>
      </trkpt>
      <trkpt lat="41.710239" lon="2.155122">
        <ele>643.35</ele>
        <time>2013-12-21T11:29:10Z</time>
      </trkpt>
      <trkpt lat="41.710352" lon="2.155014">
        <ele>644.50</ele>
        <time>2013-12-21T11:29:18Z</time>
      </trkpt>
      <trkpt lat="41.710616" lon="2.154832">
        <ele>646.93</ele>
        <time>2013-12-21T11:29:32Z</time>
      </trkpt>
      <trkpt lat="41.710903" lon="2.154608">
        <ele>648.49</ele>
        <time>2013-12-21T11:29:46Z</time>
      </trkpt>
      <trkpt lat="41.711022" lon="2.154632">
        <ele>649.28</ele>
        <time>2013-12-21T11:29:51Z</time>
      </trkpt>
      <trkpt lat="41.711259" lon="2.154586">
        <ele>652.16</ele>
        <time>2013-12-21T11:30:03Z</time>
      </trkpt>
      <trkpt lat="41.711460" lon="2.154500">
        <ele>654.12</ele>
        <time>2013-12-21T11:30:15Z</time>
      </trkpt>
      <trkpt lat="41.711638" lon="2.154443">
        <ele>655.91</ele>
        <time>2013-12-21T11:30:26Z</time>
      </trkpt>
      <trkpt lat="41.711753" lon="2.154377">
        <ele>658.42</ele>
        <time>2013-12-21T11:30:37Z</time>
      </trkpt>
      <trkpt lat="41.711871" lon="2.154335">
        <ele>659.93</ele>
        <time>2013-12-21T11:30:46Z</time>
      </trkpt>
      <trkpt lat="41.712156" lon="2.154242">
        <ele>662.22</ele>
        <time>2013-12-21T11:31:02Z</time>
      </trkpt>
      <trkpt lat="41.712410" lon="2.154162">
        <ele>664.09</ele>
        <time>2013-12-21T11:31:17Z</time>
      </trkpt>
      <trkpt lat="41.712697" lon="2.154037">
        <ele>666.51</ele>
        <time>2013-12-21T11:31:30Z</time>
      </trkpt>
      <trkpt lat="41.712758" lon="2.154043">
        <ele>667.33</ele>
        <time>2013-12-21T11:31:34Z</time>
      </trkpt>
      <trkpt lat="41.712992" lon="2.154101">
        <ele>669.09</ele>
        <time>2013-12-21T11:31:46Z</time>
      </trkpt>
      <trkpt lat="41.713222" lon="2.154149">
        <ele>670.32</ele>
        <time>2013-12-21T11:31:57Z</time>
      </trkpt>
      <trkpt lat="41.713537" lon="2.154107">
        <ele>672.99</ele>
        <time>2013-12-21T11:32:13Z</time>
      </trkpt>
      <trkpt lat="41.713576" lon="2.154107">
        <ele>673.12</ele>
        <time>2013-12-21T11:32:15Z</time>
      </trkpt>
      <trkpt lat="41.713690" lon="2.154107">
        <ele>673.61</ele>
        <time>2013-12-21T11:32:19Z</time>
      </trkpt>
      <trkpt lat="41.713880" lon="2.154147">
        <ele>674.24</ele>
        <time>2013-12-21T11:32:26Z</time>
      </trkpt>
      <trkpt lat="41.713991" lon="2.154185">
        <ele>674.58</ele>
        <time>2013-12-21T11:32:31Z</time>
      </trkpt>
      <trkpt lat="41.714158" lon="2.154261">
        <ele>675.93</ele>
        <time>2013-12-21T11:32:41Z</time>
      </trkpt>
      <trkpt lat="41.714236" lon="2.154328">
        <ele>676.61</ele>
        <time>2013-12-21T11:32:46Z</time>
      </trkpt>
      <trkpt lat="41.714283" lon="2.154338">
        <ele>677.01</ele>
        <time>2013-12-21T11:32:49Z</time>
      </trkpt>
      <trkpt lat="41.714343" lon="2.154382">
        <ele>677.71</ele>
        <time>2013-12-21T11:32:53Z</time>
      </trkpt>
      <trkpt lat="41.714570" lon="2.154438">
        <ele>680.96</ele>
        <time>2013-12-21T11:33:09Z</time>
      </trkpt>
      <trkpt lat="41.714581" lon="2.154440">
        <ele>681.26</ele>
        <time>2013-12-21T11:33:10Z</time>
      </trkpt>
      <trkpt lat="41.714688" lon="2.154340">
        <ele>683.47</ele>
        <time>2013-12-21T11:33:26Z</time>
      </trkpt>
      <trkpt lat="41.714710" lon="2.154343">
        <ele>683.41</ele>
        <time>2013-12-21T11:33:29Z</time>
      </trkpt>
      <trkpt lat="41.715146" lon="2.154577">
        <ele>693.71</ele>
        <time>2013-12-21T11:35:22Z</time>
      </trkpt>
      <trkpt lat="41.715157" lon="2.154593">
        <ele>693.72</ele>
        <time>2013-12-21T11:35:23Z</time>
      </trkpt>
      <trkpt lat="41.715274" lon="2.154752">
        <ele>694.62</ele>
        <time>2013-12-21T11:35:37Z</time>
      </trkpt>
      <trkpt lat="41.715349" lon="2.154901">
        <ele>695.57</ele>
        <time>2013-12-21T11:35:55Z</time>
      </trkpt>
      <trkpt lat="41.715033" lon="2.155462">
        <ele>709.29</ele>
        <time>2013-12-21T11:37:34Z</time>
      </trkpt>
      <trkpt lat="41.714814" lon="2.155593">
        <ele>709.52</ele>
        <time>2013-12-21T11:37:48Z</time>
      </trkpt>
      <trkpt lat="41.714786" lon="2.155623">
        <ele>709.64</ele>
        <time>2013-12-21T11:37:50Z</time>
      </trkpt>
      <trkpt lat="41.714770" lon="2.155685">
        <ele>709.98</ele>
        <time>2013-12-21T11:37:53Z</time>
      </trkpt>
      <trkpt lat="41.714718" lon="2.155730">
        <ele>710.47</ele>
        <time>2013-12-21T11:37:57Z</time>
      </trkpt>
      <trkpt lat="41.714750" lon="2.155801">
        <ele>711.06</ele>
        <time>2013-12-21T11:38:02Z</time>
      </trkpt>
      <trkpt lat="41.715006" lon="2.155827">
        <ele>712.52</ele>
        <time>2013-12-21T11:38:14Z</time>
      </trkpt>
      <trkpt lat="41.715355" lon="2.155911">
        <ele>714.91</ele>
        <time>2013-12-21T11:38:29Z</time>
      </trkpt>
      <trkpt lat="41.715775" lon="2.155943">
        <ele>716.94</ele>
        <time>2013-12-21T11:38:46Z</time>
      </trkpt>
      <trkpt lat="41.716050" lon="2.155700">
        <ele>716.66</ele>
        <time>2013-12-21T11:38:57Z</time>
      </trkpt>
      <trkpt lat="41.716271" lon="2.155389">
        <ele>714.98</ele>
        <time>2013-12-21T11:39:08Z</time>
      </trkpt>
      <trkpt lat="41.716324" lon="2.155329">
        <ele>714.68</ele>
        <time>2013-12-21T11:39:10Z</time>
      </trkpt>
      <trkpt lat="41.716494" lon="2.154973">
        <ele>712.90</ele>
        <time>2013-12-21T11:39:18Z</time>
      </trkpt>
      <trkpt lat="41.716710" lon="2.154577">
        <ele>711.17</ele>
        <time>2013-12-21T11:39:25Z</time>
      </trkpt>
      <trkpt lat="41.716845" lon="2.154346">
        <ele>709.63</ele>
        <time>2013-12-21T11:39:28Z</time>
      </trkpt>
      <trkpt lat="41.717218" lon="2.153888">
        <ele>705.48</ele>
        <time>2013-12-21T11:39:35Z</time>
      </trkpt>
      <trkpt lat="41.717745" lon="2.153015">
        <ele>702.49</ele>
        <time>2013-12-21T11:39:48Z</time>
      </trkpt>
      <trkpt lat="41.717814" lon="2.152899">
        <ele>702.32</ele>
        <time>2013-12-21T11:39:50Z</time>
      </trkpt>
      <trkpt lat="41.717998" lon="2.152650">
        <ele>702.41</ele>
        <time>2013-12-21T11:39:55Z</time>
      </trkpt>
      <trkpt lat="41.718238" lon="2.152500">
        <ele>702.73</ele>
        <time>2013-12-21T11:40:01Z</time>
      </trkpt>
      <trkpt lat="41.718722" lon="2.152396">
        <ele>704.75</ele>
        <time>2013-12-21T11:40:14Z</time>
      </trkpt>
      <trkpt lat="41.719089" lon="2.152615">
        <ele>707.96</ele>
        <time>2013-12-21T11:40:26Z</time>
      </trkpt>
      <trkpt lat="41.719528" lon="2.152850">
        <ele>711.02</ele>
        <time>2013-12-21T11:40:42Z</time>
      </trkpt>
      <trkpt lat="41.719614" lon="2.152795">
        <ele>711.85</ele>
        <time>2013-12-21T11:40:46Z</time>
      </trkpt>
      <trkpt lat="41.719700" lon="2.152372">
        <ele>713.55</ele>
        <time>2013-12-21T11:40:58Z</time>
      </trkpt>
      <trkpt lat="41.719780" lon="2.151870">
        <ele>711.76</ele>
        <time>2013-12-21T11:41:05Z</time>
      </trkpt>
      <trkpt lat="41.719888" lon="2.151599">
        <ele>709.98</ele>
        <time>2013-12-21T11:41:08Z</time>
      </trkpt>
      <trkpt lat="41.720185" lon="2.151151">
        <ele>706.11</ele>
        <time>2013-12-21T11:41:13Z</time>
      </trkpt>
      <trkpt lat="41.720307" lon="2.150976">
        <ele>705.23</ele>
        <time>2013-12-21T11:41:15Z</time>
      </trkpt>
      <trkpt lat="41.720810" lon="2.150474">
        <ele>701.81</ele>
        <time>2013-12-21T11:41:22Z</time>
      </trkpt>
      <trkpt lat="41.721118" lon="2.150259">
        <ele>698.18</ele>
        <time>2013-12-21T11:41:29Z</time>
      </trkpt>
      <trkpt lat="41.721300" lon="2.150267">
        <ele>695.08</ele>
        <time>2013-12-21T11:41:38Z</time>
      </trkpt>
      <trkpt lat="41.721305" lon="2.150265">
        <ele>694.95</ele>
        <time>2013-12-21T11:41:42Z</time>
      </trkpt>
      <trkpt lat="41.721372" lon="2.150262">
        <ele>694.91</ele>
        <time>2013-12-21T11:41:51Z</time>
      </trkpt>
      <trkpt lat="41.721393" lon="2.150258">
        <ele>694.97</ele>
        <time>2013-12-21T11:41:52Z</time>
      </trkpt>
      <trkpt lat="41.721598" lon="2.150223">
        <ele>694.03</ele>
        <time>2013-12-21T11:41:56Z</time>
      </trkpt>
      <trkpt lat="41.721791" lon="2.150156">
        <ele>692.74</ele>
        <time>2013-12-21T11:42:00Z</time>
      </trkpt>
      <trkpt lat="41.722188" lon="2.150279">
        <ele>690.23</ele>
        <time>2013-12-21T11:42:08Z</time>
      </trkpt>
      <trkpt lat="41.722240" lon="2.150265">
        <ele>689.93</ele>
        <time>2013-12-21T11:42:09Z</time>
      </trkpt>
      <trkpt lat="41.722327" lon="2.150286">
        <ele>688.71</ele>
        <time>2013-12-21T11:42:13Z</time>
      </trkpt>
      <trkpt lat="41.722457" lon="2.150241">
        <ele>688.41</ele>
        <time>2013-12-21T11:42:18Z</time>
      </trkpt>
      <trkpt lat="41.722527" lon="2.150222">
        <ele>688.20</ele>
        <time>2013-12-21T11:42:20Z</time>
      </trkpt>
      <trkpt lat="41.722735" lon="2.150114">
        <ele>686.93</ele>
        <time>2013-12-21T11:42:27Z</time>
      </trkpt>
      <trkpt lat="41.722992" lon="2.149891">
        <ele>685.37</ele>
        <time>2013-12-21T11:42:40Z</time>
      </trkpt>
      <trkpt lat="41.723304" lon="2.149750">
        <ele>682.47</ele>
        <time>2013-12-21T11:42:49Z</time>
      </trkpt>
      <trkpt lat="41.723641" lon="2.149660">
        <ele>678.94</ele>
        <time>2013-12-21T11:42:59Z</time>
      </trkpt>
      <trkpt lat="41.723902" lon="2.149486">
        <ele>677.59</ele>
        <time>2013-12-21T11:43:04Z</time>
      </trkpt>
      <trkpt lat="41.724342" lon="2.149289">
        <ele>676.08</ele>
        <time>2013-12-21T11:43:15Z</time>
      </trkpt>
      <trkpt lat="41.724724" lon="2.149183">
        <ele>673.54</ele>
        <time>2013-12-21T11:43:24Z</time>
      </trkpt>
      <trkpt lat="41.724818" lon="2.149177">
        <ele>672.56</ele>
        <time>2013-12-21T11:43:30Z</time>
      </trkpt>
      <trkpt lat="41.724960" lon="2.149206">
        <ele>673.31</ele>
        <time>2013-12-21T11:43:42Z</time>
      </trkpt>
      <trkpt lat="41.725255" lon="2.149057">
        <ele>673.51</ele>
        <time>2013-12-21T11:43:54Z</time>
      </trkpt>
      <trkpt lat="41.725426" lon="2.148903">
        <ele>673.56</ele>
        <time>2013-12-21T11:43:59Z</time>
      </trkpt>
      <trkpt lat="41.725522" lon="2.148848">
        <ele>673.25</ele>
        <time>2013-12-21T11:44:01Z</time>
      </trkpt>
      <trkpt lat="41.725623" lon="2.148773">
        <ele>672.32</ele>
        <time>2013-12-21T11:44:04Z</time>
      </trkpt>
      <trkpt lat="41.725740" lon="2.148614">
        <ele>670.94</ele>
        <time>2013-12-21T11:44:10Z</time>
      </trkpt>
      <trkpt lat="41.725856" lon="2.148534">
        <ele>669.52</ele>
        <time>2013-12-21T11:44:15Z</time>
      </trkpt>
      <trkpt lat="41.726044" lon="2.148486">
        <ele>667.76</ele>
        <time>2013-12-21T11:44:23Z</time>
      </trkpt>
      <trkpt lat="41.726381" lon="2.148519">
        <ele>665.75</ele>
        <time>2013-12-21T11:44:35Z</time>
      </trkpt>
      <trkpt lat="41.726530" lon="2.148573">
        <ele>664.34</ele>
        <time>2013-12-21T11:44:40Z</time>
      </trkpt>
      <trkpt lat="41.726611" lon="2.148635">
        <ele>663.26</ele>
        <time>2013-12-21T11:44:44Z</time>
      </trkpt>
      <trkpt lat="41.726832" lon="2.148770">
        <ele>662.01</ele>
        <time>2013-12-21T11:44:51Z</time>
      </trkpt>
      <trkpt lat="41.727017" lon="2.149235">
        <ele>658.61</ele>
        <time>2013-12-21T11:44:58Z</time>
      </trkpt>
      <trkpt lat="41.727042" lon="2.149426">
        <ele>657.10</ele>
        <time>2013-12-21T11:45:00Z</time>
      </trkpt>
      <trkpt lat="41.727063" lon="2.149771">
        <ele>653.39</ele>
        <time>2013-12-21T11:45:05Z</time>
      </trkpt>
      <trkpt lat="41.727235" lon="2.149635">
        <ele>650.26</ele>
        <time>2013-12-21T11:45:09Z</time>
      </trkpt>
      <trkpt lat="41.727489" lon="2.149139">
        <ele>645.52</ele>
        <time>2013-12-21T11:45:14Z</time>
      </trkpt>
      <trkpt lat="41.727615" lon="2.148770">
        <ele>642.08</ele>
        <time>2013-12-21T11:45:17Z</time>
      </trkpt>
      <trkpt lat="41.727738" lon="2.148232">
        <ele>637.16</ele>
        <time>2013-12-21T11:45:21Z</time>
      </trkpt>
      <trkpt lat="41.727815" lon="2.147860">
        <ele>633.89</ele>
        <time>2013-12-21T11:45:24Z</time>
      </trkpt>
      <trkpt lat="41.727847" lon="2.147751">
        <ele>632.86</ele>
        <time>2013-12-21T11:45:25Z</time>
      </trkpt>
      <trkpt lat="41.727952" lon="2.147460">
        <ele>630.41</ele>
        <time>2013-12-21T11:45:28Z</time>
      </trkpt>
      <trkpt lat="41.728039" lon="2.147273">
        <ele>627.82</ele>
        <time>2013-12-21T11:45:31Z</time>
      </trkpt>
      <trkpt lat="41.728138" lon="2.147182">
        <ele>625.11</ele>
        <time>2013-12-21T11:45:34Z</time>
      </trkpt>
      <trkpt lat="41.728203" lon="2.147204">
        <ele>621.86</ele>
        <time>2013-12-21T11:45:42Z</time>
      </trkpt>
      <trkpt lat="41.728228" lon="2.147309">
        <ele>621.34</ele>
        <time>2013-12-21T11:45:46Z</time>
      </trkpt>
      <trkpt lat="41.728235" lon="2.147363">
        <ele>621.27</ele>
        <time>2013-12-21T11:45:47Z</time>
      </trkpt>
      <trkpt lat="41.728275" lon="2.147609">
        <ele>620.58</ele>
        <time>2013-12-21T11:45:51Z</time>
      </trkpt>
      <trkpt lat="41.728339" lon="2.148165">
        <ele>617.98</ele>
        <time>2013-12-21T11:45:59Z</time>
      </trkpt>
      <trkpt lat="41.728411" lon="2.149157">
        <ele>615.65</ele>
        <time>2013-12-21T11:46:12Z</time>
      </trkpt>
      <trkpt lat="41.728453" lon="2.149378">
        <ele>615.38</ele>
        <time>2013-12-21T11:46:15Z</time>
      </trkpt>
      <trkpt lat="41.728579" lon="2.149617">
        <ele>615.05</ele>
        <time>2013-12-21T11:46:19Z</time>
      </trkpt>
      <trkpt lat="41.728652" lon="2.149723">
        <ele>614.85</ele>
        <time>2013-12-21T11:46:21Z</time>
      </trkpt>
      <trkpt lat="41.728951" lon="2.150005">
        <ele>614.01</ele>
        <time>2013-12-21T11:46:27Z</time>
      </trkpt>
      <trkpt lat="41.729011" lon="2.150557">
        <ele>612.61</ele>
        <time>2013-12-21T11:46:34Z</time>
      </trkpt>
      <trkpt lat="41.728968" lon="2.150621">
        <ele>612.38</ele>
        <time>2013-12-21T11:46:35Z</time>
      </trkpt>
      <trkpt lat="41.728766" lon="2.150828">
        <ele>611.23</ele>
        <time>2013-12-21T11:46:43Z</time>
      </trkpt>
      <trkpt lat="41.728679" lon="2.150990">
        <ele>612.10</ele>
        <time>2013-12-21T11:46:52Z</time>
      </trkpt>
      <trkpt lat="41.728673" lon="2.150970">
        <ele>611.93</ele>
        <time>2013-12-21T11:46:58Z</time>
      </trkpt>
      <trkpt lat="41.728819" lon="2.150947">
        <ele>611.95</ele>
        <time>2013-12-21T11:47:04Z</time>
      </trkpt>
      <trkpt lat="41.728841" lon="2.150894">
        <ele>611.95</ele>
        <time>2013-12-21T11:47:05Z</time>
      </trkpt>
      <trkpt lat="41.729013" lon="2.150615">
        <ele>611.75</ele>
        <time>2013-12-21T11:47:13Z</time>
      </trkpt>
      <trkpt lat="41.728866" lon="2.150589">
        <ele>612.62</ele>
        <time>2013-12-21T11:47:21Z</time>
      </trkpt>
      <trkpt lat="41.728853" lon="2.150615">
        <ele>612.91</ele>
        <time>2013-12-21T11:47:22Z</time>
      </trkpt>
      <trkpt lat="41.728639" lon="2.151043">
        <ele>615.22</ele>
        <time>2013-12-21T11:47:34Z</time>
      </trkpt>
      <trkpt lat="41.728547" lon="2.151280">
        <ele>616.41</ele>
        <time>2013-12-21T11:47:40Z</time>
      </trkpt>
      <trkpt lat="41.728429" lon="2.151209">
        <ele>617.45</ele>
        <time>2013-12-21T11:47:46Z</time>
      </trkpt>
      <trkpt lat="41.728372" lon="2.151198">
        <ele>618.33</ele>
        <time>2013-12-21T11:47:50Z</time>
      </trkpt>
      <trkpt lat="41.728416" lon="2.151272">
        <ele>618.83</ele>
        <time>2013-12-21T11:47:55Z</time>
      </trkpt>
      <trkpt lat="41.728537" lon="2.151113">
        <ele>618.66</ele>
        <time>2013-12-21T11:48:00Z</time>
      </trkpt>
      <trkpt lat="41.728866" lon="2.150564">
        <ele>615.37</ele>
        <time>2013-12-21T11:48:11Z</time>
      </trkpt>
      <trkpt lat="41.728852" lon="2.150651">
        <ele>613.75</ele>
        <time>2013-12-21T11:48:18Z</time>
      </trkpt>
      <trkpt lat="41.728745" lon="2.150775">
        <ele>613.04</ele>
        <time>2013-12-21T11:48:21Z</time>
      </trkpt>
      <trkpt lat="41.728498" lon="2.151328">
        <ele>611.57</ele>
        <time>2013-12-21T11:48:31Z</time>
      </trkpt>
      <trkpt lat="41.728334" lon="2.151499">
        <ele>611.03</ele>
        <time>2013-12-21T11:48:35Z</time>
      </trkpt>
      <trkpt lat="41.727969" lon="2.151568">
        <ele>609.02</ele>
        <time>2013-12-21T11:48:40Z</time>
      </trkpt>
      <trkpt lat="41.727738" lon="2.151756">
        <ele>607.31</ele>
        <time>2013-12-21T11:48:44Z</time>
      </trkpt>
      <trkpt lat="41.727459" lon="2.152390">
        <ele>604.89</ele>
        <time>2013-12-21T11:48:55Z</time>
      </trkpt>
      <trkpt lat="41.727564" lon="2.152472">
        <ele>605.56</ele>
        <time>2013-12-21T11:49:00Z</time>
      </trkpt>
      <trkpt lat="41.727602" lon="2.152460">
        <ele>606.26</ele>
        <time>2013-12-21T11:49:04Z</time>
      </trkpt>
      <trkpt lat="41.727636" lon="2.152429">
        <ele>606.86</ele>
        <time>2013-12-21T11:49:10Z</time>
      </trkpt>
      <trkpt lat="41.727549" lon="2.152380">
        <ele>607.28</ele>
        <time>2013-12-21T11:51:03Z</time>
      </trkpt>
      <trkpt lat="41.727488" lon="2.152360">
        <ele>607.02</ele>
        <time>2013-12-21T11:51:06Z</time>
      </trkpt>
      <trkpt lat="41.727298" lon="2.152685">
        <ele>606.19</ele>
        <time>2013-12-21T11:51:16Z</time>
      </trkpt>
      <trkpt lat="41.727171" lon="2.152971">
        <ele>606.61</ele>
        <time>2013-12-21T11:51:26Z</time>
      </trkpt>
      <trkpt lat="41.727245" lon="2.152923">
        <ele>606.72</ele>
        <time>2013-12-21T11:51:31Z</time>
      </trkpt>
      <trkpt lat="41.727439" lon="2.152441">
        <ele>606.10</ele>
        <time>2013-12-21T11:51:42Z</time>
      </trkpt>
      <trkpt lat="41.727587" lon="2.152500">
        <ele>606.81</ele>
        <time>2013-12-21T11:51:50Z</time>
      </trkpt>
      <trkpt lat="41.727600" lon="2.152523">
        <ele>607.04</ele>
        <time>2013-12-21T11:51:51Z</time>
      </trkpt>
      <trkpt lat="41.727767" lon="2.152860">
        <ele>610.57</ele>
        <time>2013-12-21T11:52:02Z</time>
      </trkpt>
      <trkpt lat="41.727859" lon="2.153210">
        <ele>613.68</ele>
        <time>2013-12-21T11:52:12Z</time>
      </trkpt>
      <trkpt lat="41.727929" lon="2.153540">
        <ele>616.98</ele>
        <time>2013-12-21T11:52:23Z</time>
      </trkpt>
      <trkpt lat="41.727954" lon="2.153895">
        <ele>619.95</ele>
        <time>2013-12-21T11:52:36Z</time>
      </trkpt>
      <trkpt lat="41.727970" lon="2.154179">
        <ele>623.01</ele>
        <time>2013-12-21T11:52:48Z</time>
      </trkpt>
      <trkpt lat="41.727995" lon="2.154492">
        <ele>626.15</ele>
        <time>2013-12-21T11:53:01Z</time>
      </trkpt>
      <trkpt lat="41.728126" lon="2.154786">
        <ele>628.52</ele>
        <time>2013-12-21T11:53:14Z</time>
      </trkpt>
      <trkpt lat="41.728311" lon="2.155051">
        <ele>630.38</ele>
        <time>2013-12-21T11:53:27Z</time>
      </trkpt>
      <trkpt lat="41.728639" lon="2.155300">
        <ele>631.01</ele>
        <time>2013-12-21T11:53:41Z</time>
      </trkpt>
      <trkpt lat="41.728913" lon="2.155517">
        <ele>631.51</ele>
        <time>2013-12-21T11:53:53Z</time>
      </trkpt>
      <trkpt lat="41.729129" lon="2.155704">
        <ele>633.90</ele>
        <time>2013-12-21T11:54:04Z</time>
      </trkpt>
      <trkpt lat="41.729256" lon="2.155766">
        <ele>635.50</ele>
        <time>2013-12-21T11:54:11Z</time>
      </trkpt>
      <trkpt lat="41.729187" lon="2.155816">
        <ele>636.62</ele>
        <time>2013-12-21T11:54:16Z</time>
      </trkpt>
      <trkpt lat="41.728897" lon="2.155712">
        <ele>640.01</ele>
        <time>2013-12-21T11:54:29Z</time>
      </trkpt>
      <trkpt lat="41.728554" lon="2.155561">
        <ele>641.41</ele>
        <time>2013-12-21T11:54:43Z</time>
      </trkpt>
      <trkpt lat="41.728238" lon="2.155284">
        <ele>642.47</ele>
        <time>2013-12-21T11:54:57Z</time>
      </trkpt>
      <trkpt lat="41.727947" lon="2.155221">
        <ele>644.04</ele>
        <time>2013-12-21T11:55:12Z</time>
      </trkpt>
      <trkpt lat="41.727935" lon="2.155229">
        <ele>644.18</ele>
        <time>2013-12-21T11:55:13Z</time>
      </trkpt>
      <trkpt lat="41.727894" lon="2.155487">
        <ele>647.33</ele>
        <time>2013-12-21T11:55:26Z</time>
      </trkpt>
      <trkpt lat="41.727896" lon="2.155548">
        <ele>647.82</ele>
        <time>2013-12-21T11:55:28Z</time>
      </trkpt>
      <trkpt lat="41.727864" lon="2.155662">
        <ele>650.01</ele>
        <time>2013-12-21T11:55:40Z</time>
      </trkpt>
      <trkpt lat="41.727778" lon="2.155677">
        <ele>649.37</ele>
        <time>2013-12-21T11:55:49Z</time>
      </trkpt>
      <trkpt lat="41.727833" lon="2.155638">
        <ele>648.70</ele>
        <time>2013-12-21T11:57:11Z</time>
      </trkpt>
      <trkpt lat="41.727878" lon="2.155677">
        <ele>650.87</ele>
        <time>2013-12-21T11:57:27Z</time>
      </trkpt>
      <trkpt lat="41.727907" lon="2.155643">
        <ele>650.84</ele>
        <time>2013-12-21T11:57:36Z</time>
      </trkpt>
      <trkpt lat="41.727956" lon="2.155409">
        <ele>650.56</ele>
        <time>2013-12-21T11:57:42Z</time>
      </trkpt>
      <trkpt lat="41.727992" lon="2.155212">
        <ele>647.19</ele>
        <time>2013-12-21T11:57:49Z</time>
      </trkpt>
      <trkpt lat="41.727998" lon="2.155173">
        <ele>646.25</ele>
        <time>2013-12-21T11:57:52Z</time>
      </trkpt>
      <trkpt lat="41.727999" lon="2.155044">
        <ele>644.88</ele>
        <time>2013-12-21T11:57:57Z</time>
      </trkpt>
      <trkpt lat="41.728030" lon="2.154884">
        <ele>643.44</ele>
        <time>2013-12-21T11:58:10Z</time>
      </trkpt>
      <trkpt lat="41.727994" lon="2.155024">
        <ele>643.92</ele>
        <time>2013-12-21T12:02:24Z</time>
      </trkpt>
      <trkpt lat="41.727999" lon="2.155085">
        <ele>643.81</ele>
        <time>2013-12-21T12:02:29Z</time>
      </trkpt>
      <trkpt lat="41.727997" lon="2.155340">
        <ele>645.66</ele>
        <time>2013-12-21T12:02:44Z</time>
      </trkpt>
      <trkpt lat="41.727901" lon="2.155545">
        <ele>648.74</ele>
        <time>2013-12-21T12:02:52Z</time>
      </trkpt>
      <trkpt lat="41.727888" lon="2.155971">
        <ele>651.73</ele>
        <time>2013-12-21T12:03:05Z</time>
      </trkpt>
      <trkpt lat="41.727862" lon="2.156218">
        <ele>652.55</ele>
        <time>2013-12-21T12:03:13Z</time>
      </trkpt>
      <trkpt lat="41.727865" lon="2.156319">
        <ele>653.03</ele>
        <time>2013-12-21T12:03:17Z</time>
      </trkpt>
      <trkpt lat="41.727936" lon="2.156630">
        <ele>654.82</ele>
        <time>2013-12-21T12:03:31Z</time>
      </trkpt>
      <trkpt lat="41.727999" lon="2.157068">
        <ele>655.86</ele>
        <time>2013-12-21T12:03:46Z</time>
      </trkpt>
      <trkpt lat="41.727963" lon="2.157355">
        <ele>656.04</ele>
        <time>2013-12-21T12:03:55Z</time>
      </trkpt>
      <trkpt lat="41.727902" lon="2.157367">
        <ele>656.55</ele>
        <time>2013-12-21T12:04:03Z</time>
      </trkpt>
      <trkpt lat="41.727890" lon="2.157427">
        <ele>657.41</ele>
        <time>2013-12-21T12:05:24Z</time>
      </trkpt>
      <trkpt lat="41.727917" lon="2.157374">
        <ele>657.41</ele>
        <time>2013-12-21T12:05:27Z</time>
      </trkpt>
      <trkpt lat="41.727933" lon="2.157210">
        <ele>657.29</ele>
        <time>2013-12-21T12:05:32Z</time>
      </trkpt>
      <trkpt lat="41.727948" lon="2.156875">
        <ele>656.56</ele>
        <time>2013-12-21T12:05:40Z</time>
      </trkpt>
      <trkpt lat="41.728100" lon="2.156808">
        <ele>656.59</ele>
        <time>2013-12-21T12:05:47Z</time>
      </trkpt>
      <trkpt lat="41.728164" lon="2.156785">
        <ele>657.15</ele>
        <time>2013-12-21T12:05:50Z</time>
      </trkpt>
      <trkpt lat="41.728178" lon="2.156675">
        <ele>658.49</ele>
        <time>2013-12-21T12:05:54Z</time>
      </trkpt>
      <trkpt lat="41.728182" lon="2.156520">
        <ele>660.15</ele>
        <time>2013-12-21T12:05:59Z</time>
      </trkpt>
      <trkpt lat="41.728235" lon="2.156452">
        <ele>661.45</ele>
        <time>2013-12-21T12:06:03Z</time>
      </trkpt>
      <trkpt lat="41.728466" lon="2.156568">
        <ele>664.62</ele>
        <time>2013-12-21T12:06:15Z</time>
      </trkpt>
      <trkpt lat="41.728635" lon="2.156837">
        <ele>667.74</ele>
        <time>2013-12-21T12:06:27Z</time>
      </trkpt>
      <trkpt lat="41.728682" lon="2.157046">
        <ele>670.80</ele>
        <time>2013-12-21T12:06:37Z</time>
      </trkpt>
      <trkpt lat="41.728669" lon="2.157174">
        <ele>672.81</ele>
        <time>2013-12-21T12:06:46Z</time>
      </trkpt>
      <trkpt lat="41.728609" lon="2.157299">
        <ele>675.48</ele>
        <time>2013-12-21T12:06:58Z</time>
      </trkpt>
      <trkpt lat="41.728642" lon="2.157593">
        <ele>679.19</ele>
        <time>2013-12-21T12:07:12Z</time>
      </trkpt>
      <trkpt lat="41.728756" lon="2.157762">
        <ele>682.28</ele>
        <time>2013-12-21T12:07:25Z</time>
      </trkpt>
      <trkpt lat="41.728935" lon="2.157868">
        <ele>684.77</ele>
        <time>2013-12-21T12:07:39Z</time>
      </trkpt>
      <trkpt lat="41.729096" lon="2.157772">
        <ele>687.84</ele>
        <time>2013-12-21T12:07:52Z</time>
      </trkpt>
      <trkpt lat="41.729182" lon="2.157550">
        <ele>691.02</ele>
        <time>2013-12-21T12:08:05Z</time>
      </trkpt>
      <trkpt lat="41.729255" lon="2.157453">
        <ele>693.61</ele>
        <time>2013-12-21T12:08:14Z</time>
      </trkpt>
      <trkpt lat="41.729294" lon="2.157433">
        <ele>694.31</ele>
        <time>2013-12-21T12:08:17Z</time>
      </trkpt>
      <trkpt lat="41.729376" lon="2.157447">
        <ele>695.52</ele>
        <time>2013-12-21T12:08:23Z</time>
      </trkpt>
      <trkpt lat="41.729607" lon="2.157439">
        <ele>697.90</ele>
        <time>2013-12-21T12:08:38Z</time>
      </trkpt>
      <trkpt lat="41.729630" lon="2.157442">
        <ele>698.61</ele>
        <time>2013-12-21T12:08:40Z</time>
      </trkpt>
      <trkpt lat="41.729785" lon="2.157627">
        <ele>700.79</ele>
        <time>2013-12-21T12:08:55Z</time>
      </trkpt>
      <trkpt lat="41.729887" lon="2.157733">
        <ele>701.82</ele>
        <time>2013-12-21T12:09:02Z</time>
      </trkpt>
      <trkpt lat="41.729903" lon="2.157767">
        <ele>702.04</ele>
        <time>2013-12-21T12:09:04Z</time>
      </trkpt>
      <trkpt lat="41.729996" lon="2.157890">
        <ele>703.31</ele>
        <time>2013-12-21T12:09:14Z</time>
      </trkpt>
      <trkpt lat="41.730071" lon="2.158029">
        <ele>704.41</ele>
        <time>2013-12-21T12:09:28Z</time>
      </trkpt>
      <trkpt lat="41.730071" lon="2.158033">
        <ele>704.59</ele>
        <time>2013-12-21T12:09:29Z</time>
      </trkpt>
      <trkpt lat="41.730106" lon="2.158086">
        <ele>705.06</ele>
        <time>2013-12-21T12:10:06Z</time>
      </trkpt>
      <trkpt lat="41.730131" lon="2.158123">
        <ele>705.14</ele>
        <time>2013-12-21T12:10:08Z</time>
      </trkpt>
      <trkpt lat="41.730217" lon="2.158205">
        <ele>705.42</ele>
        <time>2013-12-21T12:10:13Z</time>
      </trkpt>
      <trkpt lat="41.730473" lon="2.158118">
        <ele>707.32</ele>
        <time>2013-12-21T12:10:25Z</time>
      </trkpt>
      <trkpt lat="41.730811" lon="2.158148">
        <ele>709.81</ele>
        <time>2013-12-21T12:10:38Z</time>
      </trkpt>
      <trkpt lat="41.731111" lon="2.158167">
        <ele>711.79</ele>
        <time>2013-12-21T12:10:50Z</time>
      </trkpt>
      <trkpt lat="41.731370" lon="2.158171">
        <ele>713.83</ele>
        <time>2013-12-21T12:11:01Z</time>
      </trkpt>
      <trkpt lat="41.731477" lon="2.158138">
        <ele>714.97</ele>
        <time>2013-12-21T12:11:06Z</time>
      </trkpt>
      <trkpt lat="41.731566" lon="2.158156">
        <ele>716.08</ele>
        <time>2013-12-21T12:11:10Z</time>
      </trkpt>
      <trkpt lat="41.731819" lon="2.158246">
        <ele>717.83</ele>
        <time>2013-12-21T12:11:21Z</time>
      </trkpt>
      <trkpt lat="41.732035" lon="2.158281">
        <ele>718.61</ele>
        <time>2013-12-21T12:11:31Z</time>
      </trkpt>
      <trkpt lat="41.732426" lon="2.158355">
        <ele>719.61</ele>
        <time>2013-12-21T12:11:44Z</time>
      </trkpt>
      <trkpt lat="41.732499" lon="2.158368">
        <ele>719.54</ele>
        <time>2013-12-21T12:11:46Z</time>
      </trkpt>
      <trkpt lat="41.732767" lon="2.158437">
        <ele>718.67</ele>
        <time>2013-12-21T12:11:53Z</time>
      </trkpt>
      <trkpt lat="41.732913" lon="2.158474">
        <ele>718.32</ele>
        <time>2013-12-21T12:11:57Z</time>
      </trkpt>
      <trkpt lat="41.733377" lon="2.158511">
        <ele>718.51</ele>
        <time>2013-12-21T12:12:10Z</time>
      </trkpt>
      <trkpt lat="41.733693" lon="2.158625">
        <ele>719.94</ele>
        <time>2013-12-21T12:12:19Z</time>
      </trkpt>
      <trkpt lat="41.734110" lon="2.158815">
        <ele>721.94</ele>
        <time>2013-12-21T12:12:31Z</time>
      </trkpt>
      <trkpt lat="41.734449" lon="2.159086">
        <ele>723.02</ele>
        <time>2013-12-21T12:12:42Z</time>
      </trkpt>
      <trkpt lat="41.734612" lon="2.159207">
        <ele>723.55</ele>
        <time>2013-12-21T12:12:47Z</time>
      </trkpt>
      <trkpt lat="41.735043" lon="2.159485">
        <ele>723.96</ele>
        <time>2013-12-21T12:12:59Z</time>
      </trkpt>
      <trkpt lat="41.735339" lon="2.159967">
        <ele>724.34</ele>
        <time>2013-12-21T12:13:10Z</time>
      </trkpt>
      <trkpt lat="41.735466" lon="2.160266">
        <ele>724.69</ele>
        <time>2013-12-21T12:13:15Z</time>
      </trkpt>
      <trkpt lat="41.735813" lon="2.160539">
        <ele>724.88</ele>
        <time>2013-12-21T12:13:24Z</time>
      </trkpt>
      <trkpt lat="41.736350" lon="2.160677">
        <ele>724.39</ele>
        <time>2013-12-21T12:13:36Z</time>
      </trkpt>
      <trkpt lat="41.736665" lon="2.160789">
        <ele>723.22</ele>
        <time>2013-12-21T12:13:42Z</time>
      </trkpt>
      <trkpt lat="41.736902" lon="2.160967">
        <ele>722.11</ele>
        <time>2013-12-21T12:13:47Z</time>
      </trkpt>
      <trkpt lat="41.736980" lon="2.161045">
        <ele>721.92</ele>
        <time>2013-12-21T12:13:49Z</time>
      </trkpt>
      <trkpt lat="41.737047" lon="2.161130">
        <ele>721.89</ele>
        <time>2013-12-21T12:13:51Z</time>
      </trkpt>
      <trkpt lat="41.737327" lon="2.161608">
        <ele>723.71</ele>
        <time>2013-12-21T12:14:03Z</time>
      </trkpt>
      <trkpt lat="41.737472" lon="2.161913">
        <ele>726.72</ele>
        <time>2013-12-21T12:14:12Z</time>
      </trkpt>
      <trkpt lat="41.737615" lon="2.162321">
        <ele>729.86</ele>
        <time>2013-12-21T12:14:24Z</time>
      </trkpt>
      <trkpt lat="41.737809" lon="2.162594">
        <ele>731.63</ele>
        <time>2013-12-21T12:14:35Z</time>
      </trkpt>
      <trkpt lat="41.738153" lon="2.162741">
        <ele>733.46</ele>
        <time>2013-12-21T12:14:48Z</time>
      </trkpt>
      <trkpt lat="41.738519" lon="2.162829">
        <ele>736.37</ele>
        <time>2013-12-21T12:15:02Z</time>
      </trkpt>
      <trkpt lat="41.738727" lon="2.162922">
        <ele>738.54</ele>
        <time>2013-12-21T12:15:11Z</time>
      </trkpt>
      <trkpt lat="41.738893" lon="2.163143">
        <ele>740.73</ele>
        <time>2013-12-21T12:15:21Z</time>
      </trkpt>
      <trkpt lat="41.738942" lon="2.163263">
        <ele>741.61</ele>
        <time>2013-12-21T12:15:26Z</time>
      </trkpt>
      <trkpt lat="41.739024" lon="2.163633">
        <ele>744.76</ele>
        <time>2013-12-21T12:15:39Z</time>
      </trkpt>
      <trkpt lat="41.739199" lon="2.163866">
        <ele>747.22</ele>
        <time>2013-12-21T12:15:51Z</time>
      </trkpt>
      <trkpt lat="41.739644" lon="2.164106">
        <ele>747.88</ele>
        <time>2013-12-21T12:16:05Z</time>
      </trkpt>
      <trkpt lat="41.740138" lon="2.164419">
        <ele>747.13</ele>
        <time>2013-12-21T12:16:19Z</time>
      </trkpt>
      <trkpt lat="41.740479" lon="2.164815">
        <ele>747.03</ele>
        <time>2013-12-21T12:16:31Z</time>
      </trkpt>
      <trkpt lat="41.740539" lon="2.164979">
        <ele>747.27</ele>
        <time>2013-12-21T12:16:35Z</time>
      </trkpt>
      <trkpt lat="41.740482" lon="2.165489">
        <ele>748.77</ele>
        <time>2013-12-21T12:16:46Z</time>
      </trkpt>
      <trkpt lat="41.740537" lon="2.165912">
        <ele>751.51</ele>
        <time>2013-12-21T12:16:58Z</time>
      </trkpt>
      <trkpt lat="41.740550" lon="2.165937">
        <ele>752.05</ele>
        <time>2013-12-21T12:16:59Z</time>
      </trkpt>
      <trkpt lat="41.740594" lon="2.166075">
        <ele>753.01</ele>
        <time>2013-12-21T12:17:04Z</time>
      </trkpt>
      <trkpt lat="41.740832" lon="2.166681">
        <ele>754.31</ele>
        <time>2013-12-21T12:17:21Z</time>
      </trkpt>
      <trkpt lat="41.741218" lon="2.166841">
        <ele>756.22</ele>
        <time>2013-12-21T12:17:34Z</time>
      </trkpt>
      <trkpt lat="41.741552" lon="2.167076">
        <ele>758.09</ele>
        <time>2013-12-21T12:17:47Z</time>
      </trkpt>
      <trkpt lat="41.741954" lon="2.167327">
        <ele>758.26</ele>
        <time>2013-12-21T12:18:00Z</time>
      </trkpt>
      <trkpt lat="41.742466" lon="2.167373">
        <ele>759.65</ele>
        <time>2013-12-21T12:18:15Z</time>
      </trkpt>
      <trkpt lat="41.742910" lon="2.167517">
        <ele>762.93</ele>
        <time>2013-12-21T12:18:30Z</time>
      </trkpt>
      <trkpt lat="41.743137" lon="2.167828">
        <ele>765.12</ele>
        <time>2013-12-21T12:18:41Z</time>
      </trkpt>
      <trkpt lat="41.743289" lon="2.168092">
        <ele>767.76</ele>
        <time>2013-12-21T12:18:53Z</time>
      </trkpt>
      <trkpt lat="41.743424" lon="2.168333">
        <ele>771.29</ele>
        <time>2013-12-21T12:19:05Z</time>
      </trkpt>
      <trkpt lat="41.743528" lon="2.168531">
        <ele>774.25</ele>
        <time>2013-12-21T12:19:16Z</time>
      </trkpt>
      <trkpt lat="41.743669" lon="2.168740">
        <ele>776.62</ele>
        <time>2013-12-21T12:19:27Z</time>
      </trkpt>
      <trkpt lat="41.743862" lon="2.169015">
        <ele>777.91</ele>
        <time>2013-12-21T12:19:39Z</time>
      </trkpt>
      <trkpt lat="41.744034" lon="2.169309">
        <ele>779.75</ele>
        <time>2013-12-21T12:19:51Z</time>
      </trkpt>
      <trkpt lat="41.744074" lon="2.169395">
        <ele>780.64</ele>
        <time>2013-12-21T12:19:55Z</time>
      </trkpt>
      <trkpt lat="41.744262" lon="2.169702">
        <ele>782.98</ele>
        <time>2013-12-21T12:20:08Z</time>
      </trkpt>
      <trkpt lat="41.744472" lon="2.170109">
        <ele>786.11</ele>
        <time>2013-12-21T12:20:24Z</time>
      </trkpt>
      <trkpt lat="41.744666" lon="2.170284">
        <ele>788.47</ele>
        <time>2013-12-21T12:20:36Z</time>
      </trkpt>
      <trkpt lat="41.744852" lon="2.170455">
        <ele>789.86</ele>
        <time>2013-12-21T12:20:48Z</time>
      </trkpt>
      <trkpt lat="41.745121" lon="2.170670">
        <ele>790.65</ele>
        <time>2013-12-21T12:21:02Z</time>
      </trkpt>
      <trkpt lat="41.745191" lon="2.170717">
        <ele>790.42</ele>
        <time>2013-12-21T12:21:04Z</time>
      </trkpt>
      <trkpt lat="41.745427" lon="2.170940">
        <ele>788.71</ele>
        <time>2013-12-21T12:21:10Z</time>
      </trkpt>
      <trkpt lat="41.745541" lon="2.171132">
        <ele>787.72</ele>
        <time>2013-12-21T12:21:13Z</time>
      </trkpt>
      <trkpt lat="41.745766" lon="2.171387">
        <ele>785.41</ele>
        <time>2013-12-21T12:21:17Z</time>
      </trkpt>
      <trkpt lat="41.746154" lon="2.171677">
        <ele>781.70</ele>
        <time>2013-12-21T12:21:23Z</time>
      </trkpt>
      <trkpt lat="41.746517" lon="2.171962">
        <ele>782.55</ele>
        <time>2013-12-21T12:21:33Z</time>
      </trkpt>
      <trkpt lat="41.746619" lon="2.172579">
        <ele>784.65</ele>
        <time>2013-12-21T12:21:45Z</time>
      </trkpt>
      <trkpt lat="41.746445" lon="2.173033">
        <ele>786.27</ele>
        <time>2013-12-21T12:21:56Z</time>
      </trkpt>
      <trkpt lat="41.746393" lon="2.173352">
        <ele>789.44</ele>
        <time>2013-12-21T12:22:05Z</time>
      </trkpt>
      <trkpt lat="41.746353" lon="2.173673">
        <ele>792.54</ele>
        <time>2013-12-21T12:22:16Z</time>
      </trkpt>
      <trkpt lat="41.746301" lon="2.174015">
        <ele>795.59</ele>
        <time>2013-12-21T12:22:27Z</time>
      </trkpt>
      <trkpt lat="41.746258" lon="2.174393">
        <ele>798.10</ele>
        <time>2013-12-21T12:22:40Z</time>
      </trkpt>
      <trkpt lat="41.746286" lon="2.174712">
        <ele>799.42</ele>
        <time>2013-12-21T12:22:51Z</time>
      </trkpt>
      <trkpt lat="41.746516" lon="2.175136">
        <ele>800.42</ele>
        <time>2013-12-21T12:23:05Z</time>
      </trkpt>
      <trkpt lat="41.746690" lon="2.175429">
        <ele>802.81</ele>
        <time>2013-12-21T12:23:17Z</time>
      </trkpt>
      <trkpt lat="41.746921" lon="2.175759">
        <ele>804.82</ele>
        <time>2013-12-21T12:23:29Z</time>
      </trkpt>
      <trkpt lat="41.747228" lon="2.176195">
        <ele>805.70</ele>
        <time>2013-12-21T12:23:42Z</time>
      </trkpt>
      <trkpt lat="41.747612" lon="2.176808">
        <ele>806.82</ele>
        <time>2013-12-21T12:24:00Z</time>
      </trkpt>
      <trkpt lat="41.747850" lon="2.177267">
        <ele>808.01</ele>
        <time>2013-12-21T12:24:14Z</time>
      </trkpt>
      <trkpt lat="41.748021" lon="2.177492">
        <ele>811.19</ele>
        <time>2013-12-21T12:24:25Z</time>
      </trkpt>
      <trkpt lat="41.748240" lon="2.177753">
        <ele>813.22</ele>
        <time>2013-12-21T12:24:38Z</time>
      </trkpt>
      <trkpt lat="41.748479" lon="2.178045">
        <ele>813.45</ele>
        <time>2013-12-21T12:24:48Z</time>
      </trkpt>
      <trkpt lat="41.748738" lon="2.178330">
        <ele>813.41</ele>
        <time>2013-12-21T12:24:58Z</time>
      </trkpt>
      <trkpt lat="41.749099" lon="2.178683">
        <ele>815.12</ele>
        <time>2013-12-21T12:25:11Z</time>
      </trkpt>
      <trkpt lat="41.749455" lon="2.178971">
        <ele>816.70</ele>
        <time>2013-12-21T12:25:23Z</time>
      </trkpt>
      <trkpt lat="41.749721" lon="2.179246">
        <ele>817.51</ele>
        <time>2013-12-21T12:25:33Z</time>
      </trkpt>
      <trkpt lat="41.750067" lon="2.179689">
        <ele>817.76</ele>
        <time>2013-12-21T12:25:46Z</time>
      </trkpt>
      <trkpt lat="41.750269" lon="2.180194">
        <ele>818.50</ele>
        <time>2013-12-21T12:25:58Z</time>
      </trkpt>
      <trkpt lat="41.750458" lon="2.180729">
        <ele>820.83</ele>
        <time>2013-12-21T12:26:13Z</time>
      </trkpt>
      <trkpt lat="41.750628" lon="2.181088">
        <ele>822.96</ele>
        <time>2013-12-21T12:26:24Z</time>
      </trkpt>
      <trkpt lat="41.750748" lon="2.181262">
        <ele>825.11</ele>
        <time>2013-12-21T12:26:33Z</time>
      </trkpt>
      <trkpt lat="41.750913" lon="2.181490">
        <ele>827.31</ele>
        <time>2013-12-21T12:26:45Z</time>
      </trkpt>
      <trkpt lat="41.750913" lon="2.181491">
        <ele>827.64</ele>
        <time>2013-12-21T12:26:48Z</time>
      </trkpt>
      <trkpt lat="41.750937" lon="2.181568">
        <ele>827.75</ele>
        <time>2013-12-21T12:28:23Z</time>
      </trkpt>
      <trkpt lat="41.751147" lon="2.182014">
        <ele>827.79</ele>
        <time>2013-12-21T12:28:35Z</time>
      </trkpt>
      <trkpt lat="41.751366" lon="2.182609">
        <ele>829.02</ele>
        <time>2013-12-21T12:28:49Z</time>
      </trkpt>
      <trkpt lat="41.751563" lon="2.183029">
        <ele>831.31</ele>
        <time>2013-12-21T12:29:00Z</time>
      </trkpt>
      <trkpt lat="41.751853" lon="2.183449">
        <ele>832.60</ele>
        <time>2013-12-21T12:29:13Z</time>
      </trkpt>
      <trkpt lat="41.752179" lon="2.183879">
        <ele>833.01</ele>
        <time>2013-12-21T12:29:25Z</time>
      </trkpt>
      <trkpt lat="41.752611" lon="2.184135">
        <ele>834.67</ele>
        <time>2013-12-21T12:29:39Z</time>
      </trkpt>
      <trkpt lat="41.752929" lon="2.184248">
        <ele>835.69</ele>
        <time>2013-12-21T12:29:49Z</time>
      </trkpt>
      <trkpt lat="41.753160" lon="2.184322">
        <ele>835.25</ele>
        <time>2013-12-21T12:29:55Z</time>
      </trkpt>
      <trkpt lat="41.753652" lon="2.184748">
        <ele>835.54</ele>
        <time>2013-12-21T12:30:11Z</time>
      </trkpt>
      <trkpt lat="41.753926" lon="2.185128">
        <ele>838.85</ele>
        <time>2013-12-21T12:30:23Z</time>
      </trkpt>
      <trkpt lat="41.753950" lon="2.185149">
        <ele>839.20</ele>
        <time>2013-12-21T12:30:24Z</time>
      </trkpt>
      <trkpt lat="41.754012" lon="2.185216">
        <ele>840.42</ele>
        <time>2013-12-21T12:30:28Z</time>
      </trkpt>
      <trkpt lat="41.754085" lon="2.185202">
        <ele>842.83</ele>
        <time>2013-12-21T12:30:40Z</time>
      </trkpt>
      <trkpt lat="41.754193" lon="2.185192">
        <ele>843.01</ele>
        <time>2013-12-21T12:30:56Z</time>
      </trkpt>
      <trkpt lat="41.754402" lon="2.185233">
        <ele>844.16</ele>
        <time>2013-12-21T12:31:16Z</time>
      </trkpt>
      <trkpt lat="41.754453" lon="2.185230">
        <ele>844.55</ele>
        <time>2013-12-21T12:31:26Z</time>
      </trkpt>
      <trkpt lat="41.754506" lon="2.185267">
        <ele>845.54</ele>
        <time>2013-12-21T12:32:03Z</time>
      </trkpt>
      <trkpt lat="41.754540" lon="2.185259">
        <ele>845.55</ele>
        <time>2013-12-21T12:32:10Z</time>
      </trkpt>
      <trkpt lat="41.754492" lon="2.185289">
        <ele>845.77</ele>
        <time>2013-12-21T12:33:05Z</time>
      </trkpt>
      <trkpt lat="41.754665" lon="2.185328">
        <ele>847.98</ele>
        <time>2013-12-21T12:33:21Z</time>
      </trkpt>
      <trkpt lat="41.754781" lon="2.185328">
        <ele>849.42</ele>
        <time>2013-12-21T12:33:36Z</time>
      </trkpt>
      <trkpt lat="41.754937" lon="2.185373">
        <ele>852.28</ele>
        <time>2013-12-21T12:33:55Z</time>
      </trkpt>
      <trkpt lat="41.755010" lon="2.185386">
        <ele>854.33</ele>
        <time>2013-12-21T12:34:05Z</time>
      </trkpt>
      <trkpt lat="41.755117" lon="2.185353">
        <ele>858.22</ele>
        <time>2013-12-21T12:35:00Z</time>
      </trkpt>
      <trkpt lat="41.755120" lon="2.185230">
        <ele>860.11</ele>
        <time>2013-12-21T12:35:15Z</time>
      </trkpt>
      <trkpt lat="41.755069" lon="2.185241">
        <ele>862.24</ele>
        <time>2013-12-21T12:42:41Z</time>
      </trkpt>
      <trkpt lat="41.755020" lon="2.185229">
        <ele>861.36</ele>
        <time>2013-12-21T12:42:49Z</time>
      </trkpt>
      <trkpt lat="41.755120" lon="2.185302">
        <ele>861.73</ele>
        <time>2013-12-21T12:43:00Z</time>
      </trkpt>
      <trkpt lat="41.755156" lon="2.185370">
        <ele>862.01</ele>
        <time>2013-12-21T12:43:04Z</time>
      </trkpt>
      <trkpt lat="41.755143" lon="2.185384">
        <ele>861.85</ele>
        <time>2013-12-21T12:43:06Z</time>
      </trkpt>
      <trkpt lat="41.755016" lon="2.185334">
        <ele>859.73</ele>
        <time>2013-12-21T12:43:15Z</time>
      </trkpt>
      <trkpt lat="41.754854" lon="2.185341">
        <ele>856.76</ele>
        <time>2013-12-21T12:43:24Z</time>
      </trkpt>
      <trkpt lat="41.754711" lon="2.185326">
        <ele>854.43</ele>
        <time>2013-12-21T12:43:30Z</time>
      </trkpt>
      <trkpt lat="41.754416" lon="2.185346">
        <ele>850.69</ele>
        <time>2013-12-21T12:43:39Z</time>
      </trkpt>
      <trkpt lat="41.754157" lon="2.185214">
        <ele>847.32</ele>
        <time>2013-12-21T12:43:45Z</time>
      </trkpt>
      <trkpt lat="41.754076" lon="2.185192">
        <ele>845.31</ele>
        <time>2013-12-21T12:43:53Z</time>
      </trkpt>
      <trkpt lat="41.754136" lon="2.185326">
        <ele>845.63</ele>
        <time>2013-12-21T12:44:05Z</time>
      </trkpt>
      <trkpt lat="41.754157" lon="2.185346">
        <ele>845.68</ele>
        <time>2013-12-21T12:44:06Z</time>
      </trkpt>
      <trkpt lat="41.754392" lon="2.185624">
        <ele>846.83</ele>
        <time>2013-12-21T12:44:19Z</time>
      </trkpt>
      <trkpt lat="41.754551" lon="2.185774">
        <ele>847.89</ele>
        <time>2013-12-21T12:44:26Z</time>
      </trkpt>
      <trkpt lat="41.754917" lon="2.186006">
        <ele>848.33</ele>
        <time>2013-12-21T12:44:39Z</time>
      </trkpt>
      <trkpt lat="41.754978" lon="2.186710">
        <ele>848.78</ele>
        <time>2013-12-21T12:44:53Z</time>
      </trkpt>
      <trkpt lat="41.755170" lon="2.187417">
        <ele>850.78</ele>
        <time>2013-12-21T12:45:08Z</time>
      </trkpt>
      <trkpt lat="41.755294" lon="2.187892">
        <ele>852.57</ele>
        <time>2013-12-21T12:45:20Z</time>
      </trkpt>
      <trkpt lat="41.755448" lon="2.188340">
        <ele>854.96</ele>
        <time>2013-12-21T12:45:33Z</time>
      </trkpt>
      <trkpt lat="41.755552" lon="2.188657">
        <ele>857.62</ele>
        <time>2013-12-21T12:45:44Z</time>
      </trkpt>
      <trkpt lat="41.755624" lon="2.189001">
        <ele>860.31</ele>
        <time>2013-12-21T12:45:55Z</time>
      </trkpt>
      <trkpt lat="41.755681" lon="2.189427">
        <ele>863.38</ele>
        <time>2013-12-21T12:46:09Z</time>
      </trkpt>
      <trkpt lat="41.755727" lon="2.189595">
        <ele>864.49</ele>
        <time>2013-12-21T12:46:16Z</time>
      </trkpt>
      <trkpt lat="41.755758" lon="2.189912">
        <ele>865.72</ele>
        <time>2013-12-21T12:46:27Z</time>
      </trkpt>
      <trkpt lat="41.755771" lon="2.190425">
        <ele>864.78</ele>
        <time>2013-12-21T12:46:37Z</time>
      </trkpt>
      <trkpt lat="41.755786" lon="2.190492">
        <ele>864.53</ele>
        <time>2013-12-21T12:46:38Z</time>
      </trkpt>
      <trkpt lat="41.755796" lon="2.190753">
        <ele>864.30</ele>
        <time>2013-12-21T12:46:42Z</time>
      </trkpt>
      <trkpt lat="41.755821" lon="2.191014">
        <ele>864.26</ele>
        <time>2013-12-21T12:46:47Z</time>
      </trkpt>
      <trkpt lat="41.755862" lon="2.191356">
        <ele>864.23</ele>
        <time>2013-12-21T12:46:54Z</time>
      </trkpt>
      <trkpt lat="41.755893" lon="2.191593">
        <ele>864.37</ele>
        <time>2013-12-21T12:46:58Z</time>
      </trkpt>
      <trkpt lat="41.755945" lon="2.191900">
        <ele>864.41</ele>
        <time>2013-12-21T12:47:04Z</time>
      </trkpt>
      <trkpt lat="41.755984" lon="2.192626">
        <ele>865.51</ele>
        <time>2013-12-21T12:47:18Z</time>
      </trkpt>
      <trkpt lat="41.755992" lon="2.192709">
        <ele>866.00</ele>
        <time>2013-12-21T12:47:20Z</time>
      </trkpt>
      <trkpt lat="41.755981" lon="2.192876">
        <ele>867.19</ele>
        <time>2013-12-21T12:47:25Z</time>
      </trkpt>
      <trkpt lat="41.756032" lon="2.193353">
        <ele>869.82</ele>
        <time>2013-12-21T12:47:37Z</time>
      </trkpt>
      <trkpt lat="41.756110" lon="2.193651">
        <ele>871.92</ele>
        <time>2013-12-21T12:47:48Z</time>
      </trkpt>
      <trkpt lat="41.756168" lon="2.193968">
        <ele>873.93</ele>
        <time>2013-12-21T12:47:58Z</time>
      </trkpt>
      <trkpt lat="41.756268" lon="2.194383">
        <ele>877.07</ele>
        <time>2013-12-21T12:48:12Z</time>
      </trkpt>
      <trkpt lat="41.756279" lon="2.194439">
        <ele>877.43</ele>
        <time>2013-12-21T12:48:14Z</time>
      </trkpt>
      <trkpt lat="41.756319" lon="2.194530">
        <ele>878.89</ele>
        <time>2013-12-21T12:48:18Z</time>
      </trkpt>
      <trkpt lat="41.756320" lon="2.194752">
        <ele>880.81</ele>
        <time>2013-12-21T12:48:27Z</time>
      </trkpt>
      <trkpt lat="41.756452" lon="2.195041">
        <ele>883.03</ele>
        <time>2013-12-21T12:48:40Z</time>
      </trkpt>
      <trkpt lat="41.756726" lon="2.195404">
        <ele>884.91</ele>
        <time>2013-12-21T12:48:57Z</time>
      </trkpt>
      <trkpt lat="41.756904" lon="2.195688">
        <ele>886.74</ele>
        <time>2013-12-21T12:49:09Z</time>
      </trkpt>
      <trkpt lat="41.757105" lon="2.195877">
        <ele>887.78</ele>
        <time>2013-12-21T12:49:20Z</time>
      </trkpt>
      <trkpt lat="41.757235" lon="2.196108">
        <ele>889.24</ele>
        <time>2013-12-21T12:49:29Z</time>
      </trkpt>
      <trkpt lat="41.757394" lon="2.196344">
        <ele>891.32</ele>
        <time>2013-12-21T12:49:40Z</time>
      </trkpt>
      <trkpt lat="41.757613" lon="2.196648">
        <ele>893.77</ele>
        <time>2013-12-21T12:49:55Z</time>
      </trkpt>
      <trkpt lat="41.757714" lon="2.196860">
        <ele>895.05</ele>
        <time>2013-12-21T12:50:04Z</time>
      </trkpt>
      <trkpt lat="41.757906" lon="2.197077">
        <ele>896.36</ele>
        <time>2013-12-21T12:50:16Z</time>
      </trkpt>
      <trkpt lat="41.758012" lon="2.197354">
        <ele>898.02</ele>
        <time>2013-12-21T12:50:27Z</time>
      </trkpt>
      <trkpt lat="41.758261" lon="2.197753">
        <ele>898.13</ele>
        <time>2013-12-21T12:50:38Z</time>
      </trkpt>
      <trkpt lat="41.758403" lon="2.197965">
        <ele>897.21</ele>
        <time>2013-12-21T12:50:43Z</time>
      </trkpt>
      <trkpt lat="41.758318" lon="2.198460">
        <ele>896.21</ele>
        <time>2013-12-21T12:50:53Z</time>
      </trkpt>
      <trkpt lat="41.758240" lon="2.198499">
        <ele>896.16</ele>
        <time>2013-12-21T12:50:55Z</time>
      </trkpt>
      <trkpt lat="41.757613" lon="2.198566">
        <ele>895.55</ele>
        <time>2013-12-21T12:51:08Z</time>
      </trkpt>
      <trkpt lat="41.757520" lon="2.198568">
        <ele>895.47</ele>
        <time>2013-12-21T12:51:10Z</time>
      </trkpt>
      <trkpt lat="41.757373" lon="2.198602">
        <ele>895.14</ele>
        <time>2013-12-21T12:51:13Z</time>
      </trkpt>
      <trkpt lat="41.757239" lon="2.198947">
        <ele>895.65</ele>
        <time>2013-12-21T12:51:21Z</time>
      </trkpt>
      <trkpt lat="41.757509" lon="2.199090">
        <ele>896.16</ele>
        <time>2013-12-21T12:51:27Z</time>
      </trkpt>
      <trkpt lat="41.757676" lon="2.199137">
        <ele>895.62</ele>
        <time>2013-12-21T12:51:30Z</time>
      </trkpt>
      <trkpt lat="41.757892" lon="2.199221">
        <ele>894.97</ele>
        <time>2013-12-21T12:51:34Z</time>
      </trkpt>
      <trkpt lat="41.758176" lon="2.199328">
        <ele>893.66</ele>
        <time>2013-12-21T12:51:40Z</time>
      </trkpt>
      <trkpt lat="41.758337" lon="2.199669">
        <ele>892.92</ele>
        <time>2013-12-21T12:51:48Z</time>
      </trkpt>
      <trkpt lat="41.758102" lon="2.199829">
        <ele>892.41</ele>
        <time>2013-12-21T12:51:56Z</time>
      </trkpt>
      <trkpt lat="41.757947" lon="2.199864">
        <ele>892.54</ele>
        <time>2013-12-21T12:52:00Z</time>
      </trkpt>
      <trkpt lat="41.757435" lon="2.200205">
        <ele>889.76</ele>
        <time>2013-12-21T12:52:11Z</time>
      </trkpt>
      <trkpt lat="41.757325" lon="2.200428">
        <ele>889.19</ele>
        <time>2013-12-21T12:52:15Z</time>
      </trkpt>
      <trkpt lat="41.757327" lon="2.200725">
        <ele>889.23</ele>
        <time>2013-12-21T12:52:20Z</time>
      </trkpt>
      <trkpt lat="41.757309" lon="2.201107">
        <ele>889.75</ele>
        <time>2013-12-21T12:52:27Z</time>
      </trkpt>
      <trkpt lat="41.757201" lon="2.201210">
        <ele>889.77</ele>
        <time>2013-12-21T12:52:30Z</time>
      </trkpt>
      <trkpt lat="41.757086" lon="2.201335">
        <ele>889.67</ele>
        <time>2013-12-21T12:52:33Z</time>
      </trkpt>
      <trkpt lat="41.757003" lon="2.201483">
        <ele>889.79</ele>
        <time>2013-12-21T12:52:36Z</time>
      </trkpt>
      <trkpt lat="41.756972" lon="2.201579">
        <ele>889.96</ele>
        <time>2013-12-21T12:52:38Z</time>
      </trkpt>
      <trkpt lat="41.756927" lon="2.201924">
        <ele>890.73</ele>
        <time>2013-12-21T12:52:44Z</time>
      </trkpt>
      <trkpt lat="41.756961" lon="2.202178">
        <ele>892.61</ele>
        <time>2013-12-21T12:52:51Z</time>
      </trkpt>
      <trkpt lat="41.757065" lon="2.202331">
        <ele>893.99</ele>
        <time>2013-12-21T12:52:57Z</time>
      </trkpt>
      <trkpt lat="41.757270" lon="2.202686">
        <ele>895.60</ele>
        <time>2013-12-21T12:53:11Z</time>
      </trkpt>
      <trkpt lat="41.757212" lon="2.202898">
        <ele>897.17</ele>
        <time>2013-12-21T12:53:19Z</time>
      </trkpt>
      <trkpt lat="41.757165" lon="2.203307">
        <ele>899.07</ele>
        <time>2013-12-21T12:53:32Z</time>
      </trkpt>
      <trkpt lat="41.757171" lon="2.203654">
        <ele>900.01</ele>
        <time>2013-12-21T12:53:43Z</time>
      </trkpt>
      <trkpt lat="41.757125" lon="2.203896">
        <ele>900.20</ele>
        <time>2013-12-21T12:53:49Z</time>
      </trkpt>
      <trkpt lat="41.756856" lon="2.204007">
        <ele>899.76</ele>
        <time>2013-12-21T12:53:59Z</time>
      </trkpt>
      <trkpt lat="41.756541" lon="2.203741">
        <ele>900.36</ele>
        <time>2013-12-21T12:54:12Z</time>
      </trkpt>
      <trkpt lat="41.756317" lon="2.203549">
        <ele>900.98</ele>
        <time>2013-12-21T12:54:23Z</time>
      </trkpt>
      <trkpt lat="41.755985" lon="2.203433">
        <ele>901.31</ele>
        <time>2013-12-21T12:54:33Z</time>
      </trkpt>
      <trkpt lat="41.755544" lon="2.203335">
        <ele>901.81</ele>
        <time>2013-12-21T12:54:46Z</time>
      </trkpt>
      <trkpt lat="41.755420" lon="2.203265">
        <ele>902.85</ele>
        <time>2013-12-21T12:54:53Z</time>
      </trkpt>
      <trkpt lat="41.755407" lon="2.203239">
        <ele>903.17</ele>
        <time>2013-12-21T12:54:55Z</time>
      </trkpt>
      <trkpt lat="41.755316" lon="2.203181">
        <ele>904.97</ele>
        <time>2013-12-21T12:55:03Z</time>
      </trkpt>
      <trkpt lat="41.755117" lon="2.203192">
        <ele>904.37</ele>
        <time>2013-12-21T12:55:14Z</time>
      </trkpt>
      <trkpt lat="41.755097" lon="2.203190">
        <ele>904.14</ele>
        <time>2013-12-21T12:55:15Z</time>
      </trkpt>
      <trkpt lat="41.754988" lon="2.203166">
        <ele>902.48</ele>
        <time>2013-12-21T12:55:21Z</time>
      </trkpt>
      <trkpt lat="41.754945" lon="2.203147">
        <ele>901.46</ele>
        <time>2013-12-21T12:55:24Z</time>
      </trkpt>
      <trkpt lat="41.754800" lon="2.203107">
        <ele>900.27</ele>
        <time>2013-12-21T12:55:29Z</time>
      </trkpt>
      <trkpt lat="41.754721" lon="2.203107">
        <ele>899.90</ele>
        <time>2013-12-21T12:55:31Z</time>
      </trkpt>
      <trkpt lat="41.754472" lon="2.203150">
        <ele>897.62</ele>
        <time>2013-12-21T12:55:42Z</time>
      </trkpt>
      <trkpt lat="41.754481" lon="2.203130">
        <ele>897.21</ele>
        <time>2013-12-21T12:55:46Z</time>
      </trkpt>
      <trkpt lat="41.745855" lon="2.223697">
        <ele>857.66</ele>
        <time>2013-12-21T13:16:26Z</time>
      </trkpt>
      <trkpt lat="41.745852" lon="2.223697">
        <ele>857.74</ele>
        <time>2013-12-21T13:16:28Z</time>
      </trkpt>
      <trkpt lat="41.745814" lon="2.223661">
        <ele>857.97</ele>
        <time>2013-12-21T13:17:20Z</time>
      </trkpt>
      <trkpt lat="41.745584" lon="2.223648">
        <ele>857.61</ele>
        <time>2013-12-21T13:17:27Z</time>
      </trkpt>
      <trkpt lat="41.745305" lon="2.223642">
        <ele>857.53</ele>
        <time>2013-12-21T13:17:34Z</time>
      </trkpt>
      <trkpt lat="41.745098" lon="2.223676">
        <ele>857.57</ele>
        <time>2013-12-21T13:17:39Z</time>
      </trkpt>
      <trkpt lat="41.744640" lon="2.223799">
        <ele>858.71</ele>
        <time>2013-12-21T13:17:51Z</time>
      </trkpt>
      <trkpt lat="41.744271" lon="2.223876">
        <ele>861.31</ele>
        <time>2013-12-21T13:18:02Z</time>
      </trkpt>
      <trkpt lat="41.743617" lon="2.224026">
        <ele>862.19</ele>
        <time>2013-12-21T13:18:18Z</time>
      </trkpt>
      <trkpt lat="41.743510" lon="2.224046">
        <ele>862.17</ele>
        <time>2013-12-21T13:18:21Z</time>
      </trkpt>
      <trkpt lat="41.743396" lon="2.224098">
        <ele>862.32</ele>
        <time>2013-12-21T13:18:24Z</time>
      </trkpt>
      <trkpt lat="41.743110" lon="2.224177">
        <ele>862.16</ele>
        <time>2013-12-21T13:18:31Z</time>
      </trkpt>
      <trkpt lat="41.742544" lon="2.224514">
        <ele>862.36</ele>
        <time>2013-12-21T13:18:47Z</time>
      </trkpt>
      <trkpt lat="41.742344" lon="2.224736">
        <ele>862.25</ele>
        <time>2013-12-21T13:18:53Z</time>
      </trkpt>
      <trkpt lat="41.741880" lon="2.225315">
        <ele>860.33</ele>
        <time>2013-12-21T13:19:06Z</time>
      </trkpt>
      <trkpt lat="41.741530" lon="2.226002">
        <ele>857.08</ele>
        <time>2013-12-21T13:19:14Z</time>
      </trkpt>
      <trkpt lat="41.741309" lon="2.226689">
        <ele>855.73</ele>
        <time>2013-12-21T13:19:22Z</time>
      </trkpt>
      <trkpt lat="41.741144" lon="2.227016">
        <ele>859.32</ele>
        <time>2013-12-21T13:19:30Z</time>
      </trkpt>
      <trkpt lat="41.740927" lon="2.227198">
        <ele>862.31</ele>
        <time>2013-12-21T13:19:39Z</time>
      </trkpt>
      <trkpt lat="41.740741" lon="2.227154">
        <ele>863.72</ele>
        <time>2013-12-21T13:19:45Z</time>
      </trkpt>
      <trkpt lat="41.740435" lon="2.226851">
        <ele>865.72</ele>
        <time>2013-12-21T13:19:57Z</time>
      </trkpt>
      <trkpt lat="41.740294" lon="2.226745">
        <ele>866.48</ele>
        <time>2013-12-21T13:20:02Z</time>
      </trkpt>
      <trkpt lat="41.740119" lon="2.226924">
        <ele>867.64</ele>
        <time>2013-12-21T13:20:10Z</time>
      </trkpt>
      <trkpt lat="41.739968" lon="2.227395">
        <ele>866.18</ele>
        <time>2013-12-21T13:20:17Z</time>
      </trkpt>
      <trkpt lat="41.739844" lon="2.227667">
        <ele>865.30</ele>
        <time>2013-12-21T13:20:21Z</time>
      </trkpt>
      <trkpt lat="41.739663" lon="2.227938">
        <ele>864.74</ele>
        <time>2013-12-21T13:20:26Z</time>
      </trkpt>
      <trkpt lat="41.739488" lon="2.228418">
        <ele>864.36</ele>
        <time>2013-12-21T13:20:33Z</time>
      </trkpt>
      <trkpt lat="41.739410" lon="2.228786">
        <ele>864.04</ele>
        <time>2013-12-21T13:20:38Z</time>
      </trkpt>
      <trkpt lat="41.739297" lon="2.229259">
        <ele>864.42</ele>
        <time>2013-12-21T13:20:45Z</time>
      </trkpt>
      <trkpt lat="41.739285" lon="2.229439">
        <ele>864.71</ele>
        <time>2013-12-21T13:20:48Z</time>
      </trkpt>
      <trkpt lat="41.739219" lon="2.229736">
        <ele>865.38</ele>
        <time>2013-12-21T13:20:53Z</time>
      </trkpt>
      <trkpt lat="41.739051" lon="2.230292">
        <ele>865.58</ele>
        <time>2013-12-21T13:21:02Z</time>
      </trkpt>
      <trkpt lat="41.738814" lon="2.231045">
        <ele>866.85</ele>
        <time>2013-12-21T13:21:15Z</time>
      </trkpt>
      <trkpt lat="41.738701" lon="2.231190">
        <ele>867.18</ele>
        <time>2013-12-21T13:21:19Z</time>
      </trkpt>
      <trkpt lat="41.738351" lon="2.231462">
        <ele>869.84</ele>
        <time>2013-12-21T13:21:32Z</time>
      </trkpt>
      <trkpt lat="41.738096" lon="2.231719">
        <ele>871.63</ele>
        <time>2013-12-21T13:21:42Z</time>
      </trkpt>
      <trkpt lat="41.737787" lon="2.231982">
        <ele>873.17</ele>
        <time>2013-12-21T13:21:54Z</time>
      </trkpt>
      <trkpt lat="41.737471" lon="2.232065">
        <ele>875.12</ele>
        <time>2013-12-21T13:22:05Z</time>
      </trkpt>
      <trkpt lat="41.737161" lon="2.232293">
        <ele>877.29</ele>
        <time>2013-12-21T13:22:18Z</time>
      </trkpt>
      <trkpt lat="41.736998" lon="2.232527">
        <ele>879.12</ele>
        <time>2013-12-21T13:22:28Z</time>
      </trkpt>
      <trkpt lat="41.736921" lon="2.233022">
        <ele>881.51</ele>
        <time>2013-12-21T13:22:42Z</time>
      </trkpt>
      <trkpt lat="41.736912" lon="2.233379">
        <ele>883.75</ele>
        <time>2013-12-21T13:22:54Z</time>
      </trkpt>
      <trkpt lat="41.736911" lon="2.233409">
        <ele>883.92</ele>
        <time>2013-12-21T13:22:55Z</time>
      </trkpt>
      <trkpt lat="41.736894" lon="2.233509">
        <ele>884.89</ele>
        <time>2013-12-21T13:22:59Z</time>
      </trkpt>
      <trkpt lat="41.736911" lon="2.233582">
        <ele>885.67</ele>
        <time>2013-12-21T13:23:02Z</time>
      </trkpt>
      <trkpt lat="41.736894" lon="2.233698">
        <ele>886.55</ele>
        <time>2013-12-21T13:23:06Z</time>
      </trkpt>
      <trkpt lat="41.736823" lon="2.234015">
        <ele>888.49</ele>
        <time>2013-12-21T13:23:17Z</time>
      </trkpt>
      <trkpt lat="41.736659" lon="2.234348">
        <ele>891.33</ele>
        <time>2013-12-21T13:23:32Z</time>
      </trkpt>
      <trkpt lat="41.736442" lon="2.234581">
        <ele>893.67</ele>
        <time>2013-12-21T13:23:44Z</time>
      </trkpt>
      <trkpt lat="41.736280" lon="2.234703">
        <ele>895.36</ele>
        <time>2013-12-21T13:23:52Z</time>
      </trkpt>
      <trkpt lat="41.736099" lon="2.234868">
        <ele>897.92</ele>
        <time>2013-12-21T13:24:04Z</time>
      </trkpt>
      <trkpt lat="41.735904" lon="2.235035">
        <ele>899.51</ele>
        <time>2013-12-21T13:24:14Z</time>
      </trkpt>
      <trkpt lat="41.735574" lon="2.235168">
        <ele>901.74</ele>
        <time>2013-12-21T13:24:29Z</time>
      </trkpt>
      <trkpt lat="41.735258" lon="2.235375">
        <ele>902.10</ele>
        <time>2013-12-21T13:24:42Z</time>
      </trkpt>
      <trkpt lat="41.735162" lon="2.235267">
        <ele>901.86</ele>
        <time>2013-12-21T13:24:45Z</time>
      </trkpt>
      <trkpt lat="41.734844" lon="2.234877">
        <ele>899.34</ele>
        <time>2013-12-21T13:24:52Z</time>
      </trkpt>
      <trkpt lat="41.734610" lon="2.234739">
        <ele>896.78</ele>
        <time>2013-12-21T13:24:56Z</time>
      </trkpt>
      <trkpt lat="41.734367" lon="2.234694">
        <ele>895.97</ele>
        <time>2013-12-21T13:25:00Z</time>
      </trkpt>
      <trkpt lat="41.734188" lon="2.234630">
        <ele>895.52</ele>
        <time>2013-12-21T13:25:03Z</time>
      </trkpt>
      <trkpt lat="41.734013" lon="2.234528">
        <ele>894.95</ele>
        <time>2013-12-21T13:25:06Z</time>
      </trkpt>
      <trkpt lat="41.733711" lon="2.234268">
        <ele>894.40</ele>
        <time>2013-12-21T13:25:12Z</time>
      </trkpt>
      <trkpt lat="41.733450" lon="2.234038">
        <ele>893.61</ele>
        <time>2013-12-21T13:25:17Z</time>
      </trkpt>
      <trkpt lat="41.733103" lon="2.233486">
        <ele>892.51</ele>
        <time>2013-12-21T13:25:26Z</time>
      </trkpt>
      <trkpt lat="41.732952" lon="2.233229">
        <ele>891.84</ele>
        <time>2013-12-21T13:25:30Z</time>
      </trkpt>
      <trkpt lat="41.732867" lon="2.232956">
        <ele>891.49</ele>
        <time>2013-12-21T13:25:34Z</time>
      </trkpt>
      <trkpt lat="41.732841" lon="2.232842">
        <ele>891.34</ele>
        <time>2013-12-21T13:25:36Z</time>
      </trkpt>
      <trkpt lat="41.732814" lon="2.232589">
        <ele>891.33</ele>
        <time>2013-12-21T13:25:40Z</time>
      </trkpt>
      <trkpt lat="41.732797" lon="2.232442">
        <ele>891.33</ele>
        <time>2013-12-21T13:25:42Z</time>
      </trkpt>
      <trkpt lat="41.732745" lon="2.232017">
        <ele>890.69</ele>
        <time>2013-12-21T13:25:47Z</time>
      </trkpt>
      <trkpt lat="41.732713" lon="2.231760">
        <ele>890.26</ele>
        <time>2013-12-21T13:25:50Z</time>
      </trkpt>
      <trkpt lat="41.732678" lon="2.231603">
        <ele>889.94</ele>
        <time>2013-12-21T13:25:52Z</time>
      </trkpt>
      <trkpt lat="41.732637" lon="2.231460">
        <ele>889.82</ele>
        <time>2013-12-21T13:25:54Z</time>
      </trkpt>
      <trkpt lat="41.732239" lon="2.231105">
        <ele>889.61</ele>
        <time>2013-12-21T13:26:02Z</time>
      </trkpt>
      <trkpt lat="41.732081" lon="2.231183">
        <ele>889.41</ele>
        <time>2013-12-21T13:26:05Z</time>
      </trkpt>
      <trkpt lat="41.731795" lon="2.231385">
        <ele>889.22</ele>
        <time>2013-12-21T13:26:10Z</time>
      </trkpt>
      <trkpt lat="41.731625" lon="2.231551">
        <ele>889.27</ele>
        <time>2013-12-21T13:26:13Z</time>
      </trkpt>
      <trkpt lat="41.731257" lon="2.231866">
        <ele>888.96</ele>
        <time>2013-12-21T13:26:19Z</time>
      </trkpt>
      <trkpt lat="41.730812" lon="2.231882">
        <ele>888.70</ele>
        <time>2013-12-21T13:26:26Z</time>
      </trkpt>
      <trkpt lat="41.730390" lon="2.231694">
        <ele>887.83</ele>
        <time>2013-12-21T13:26:33Z</time>
      </trkpt>
      <trkpt lat="41.730158" lon="2.231589">
        <ele>887.75</ele>
        <time>2013-12-21T13:26:37Z</time>
      </trkpt>
      <trkpt lat="41.729645" lon="2.231344">
        <ele>887.11</ele>
        <time>2013-12-21T13:26:46Z</time>
      </trkpt>
      <trkpt lat="41.729327" lon="2.231342">
        <ele>886.80</ele>
        <time>2013-12-21T13:26:52Z</time>
      </trkpt>
      <trkpt lat="41.729178" lon="2.231623">
        <ele>886.33</ele>
        <time>2013-12-21T13:26:57Z</time>
      </trkpt>
      <trkpt lat="41.729285" lon="2.232294">
        <ele>884.82</ele>
        <time>2013-12-21T13:27:05Z</time>
      </trkpt>
      <trkpt lat="41.729341" lon="2.232473">
        <ele>884.41</ele>
        <time>2013-12-21T13:27:07Z</time>
      </trkpt>
      <trkpt lat="41.729405" lon="2.232855">
        <ele>883.87</ele>
        <time>2013-12-21T13:27:11Z</time>
      </trkpt>
      <trkpt lat="41.729555" lon="2.233165">
        <ele>883.56</ele>
        <time>2013-12-21T13:27:15Z</time>
      </trkpt>
      <trkpt lat="41.729945" lon="2.233716">
        <ele>883.49</ele>
        <time>2013-12-21T13:27:24Z</time>
      </trkpt>
      <trkpt lat="41.729969" lon="2.233863">
        <ele>883.55</ele>
        <time>2013-12-21T13:27:26Z</time>
      </trkpt>
      <trkpt lat="41.729862" lon="2.234216">
        <ele>883.24</ele>
        <time>2013-12-21T13:27:31Z</time>
      </trkpt>
      <trkpt lat="41.729788" lon="2.234347">
        <ele>882.91</ele>
        <time>2013-12-21T13:27:33Z</time>
      </trkpt>
      <trkpt lat="41.729556" lon="2.234818">
        <ele>881.99</ele>
        <time>2013-12-21T13:27:40Z</time>
      </trkpt>
      <trkpt lat="41.729216" lon="2.235220">
        <ele>881.14</ele>
        <time>2013-12-21T13:27:47Z</time>
      </trkpt>
      <trkpt lat="41.728815" lon="2.235135">
        <ele>880.57</ele>
        <time>2013-12-21T13:27:54Z</time>
      </trkpt>
      <trkpt lat="41.728483" lon="2.234717">
        <ele>879.82</ele>
        <time>2013-12-21T13:28:01Z</time>
      </trkpt>
      <trkpt lat="41.728336" lon="2.234579">
        <ele>879.71</ele>
        <time>2013-12-21T13:28:04Z</time>
      </trkpt>
      <trkpt lat="41.728235" lon="2.234520">
        <ele>879.69</ele>
        <time>2013-12-21T13:28:06Z</time>
      </trkpt>
      <trkpt lat="41.727492" lon="2.234411">
        <ele>879.67</ele>
        <time>2013-12-21T13:28:19Z</time>
      </trkpt>
      <trkpt lat="41.727438" lon="2.234408">
        <ele>879.54</ele>
        <time>2013-12-21T13:28:20Z</time>
      </trkpt>
      <trkpt lat="41.727136" lon="2.234166">
        <ele>878.96</ele>
        <time>2013-12-21T13:28:27Z</time>
      </trkpt>
      <trkpt lat="41.726866" lon="2.233844">
        <ele>879.67</ele>
        <time>2013-12-21T13:28:35Z</time>
      </trkpt>
      <trkpt lat="41.726728" lon="2.233798">
        <ele>879.98</ele>
        <time>2013-12-21T13:28:38Z</time>
      </trkpt>
      <trkpt lat="41.726577" lon="2.233789">
        <ele>880.16</ele>
        <time>2013-12-21T13:28:41Z</time>
      </trkpt>
      <trkpt lat="41.725866" lon="2.233839">
        <ele>880.38</ele>
        <time>2013-12-21T13:28:54Z</time>
      </trkpt>
      <trkpt lat="41.725709" lon="2.233845">
        <ele>880.54</ele>
        <time>2013-12-21T13:28:57Z</time>
      </trkpt>
      <trkpt lat="41.725605" lon="2.233836">
        <ele>880.62</ele>
        <time>2013-12-21T13:28:59Z</time>
      </trkpt>
      <trkpt lat="41.724979" lon="2.233829">
        <ele>882.21</ele>
        <time>2013-12-21T13:29:13Z</time>
      </trkpt>
      <trkpt lat="41.724589" lon="2.233850">
        <ele>881.81</ele>
        <time>2013-12-21T13:29:21Z</time>
      </trkpt>
      <trkpt lat="41.724506" lon="2.233871">
        <ele>881.78</ele>
        <time>2013-12-21T13:29:23Z</time>
      </trkpt>
      <trkpt lat="41.724427" lon="2.233921">
        <ele>881.75</ele>
        <time>2013-12-21T13:29:25Z</time>
      </trkpt>
      <trkpt lat="41.724136" lon="2.234259">
        <ele>882.07</ele>
        <time>2013-12-21T13:29:34Z</time>
      </trkpt>
      <trkpt lat="41.723922" lon="2.234574">
        <ele>881.66</ele>
        <time>2013-12-21T13:29:41Z</time>
      </trkpt>
      <trkpt lat="41.723820" lon="2.234679">
        <ele>881.76</ele>
        <time>2013-12-21T13:29:44Z</time>
      </trkpt>
      <trkpt lat="41.723457" lon="2.234961">
        <ele>883.92</ele>
        <time>2013-12-21T13:29:56Z</time>
      </trkpt>
      <trkpt lat="41.723255" lon="2.235119">
        <ele>886.95</ele>
        <time>2013-12-21T13:30:06Z</time>
      </trkpt>
      <trkpt lat="41.722954" lon="2.235225">
        <ele>888.75</ele>
        <time>2013-12-21T13:30:17Z</time>
      </trkpt>
      <trkpt lat="41.722592" lon="2.235160">
        <ele>890.31</ele>
        <time>2013-12-21T13:30:30Z</time>
      </trkpt>
      <trkpt lat="41.722174" lon="2.235184">
        <ele>891.11</ele>
        <time>2013-12-21T13:30:43Z</time>
      </trkpt>
      <trkpt lat="41.721985" lon="2.235218">
        <ele>891.24</ele>
        <time>2013-12-21T13:30:48Z</time>
      </trkpt>
      <trkpt lat="41.721471" lon="2.235110">
        <ele>891.58</ele>
        <time>2013-12-21T13:31:03Z</time>
      </trkpt>
      <trkpt lat="41.721295" lon="2.235142">
        <ele>892.39</ele>
        <time>2013-12-21T13:31:08Z</time>
      </trkpt>
      <trkpt lat="41.721207" lon="2.235181">
        <ele>892.13</ele>
        <time>2013-12-21T13:31:10Z</time>
      </trkpt>
      <trkpt lat="41.720994" lon="2.235241">
        <ele>891.16</ele>
        <time>2013-12-21T13:31:14Z</time>
      </trkpt>
      <trkpt lat="41.720819" lon="2.235263">
        <ele>889.62</ele>
        <time>2013-12-21T13:31:17Z</time>
      </trkpt>
      <trkpt lat="41.720533" lon="2.235238">
        <ele>887.59</ele>
        <time>2013-12-21T13:31:22Z</time>
      </trkpt>
      <trkpt lat="41.720266" lon="2.235220">
        <ele>885.21</ele>
        <time>2013-12-21T13:31:31Z</time>
      </trkpt>
      <trkpt lat="41.720266" lon="2.235222">
        <ele>885.15</ele>
        <time>2013-12-21T13:31:32Z</time>
      </trkpt>
      <trkpt lat="41.720229" lon="2.235149">
        <ele>885.21</ele>
        <time>2013-12-21T13:32:23Z</time>
      </trkpt>
      <trkpt lat="41.720164" lon="2.234921">
        <ele>884.71</ele>
        <time>2013-12-21T13:32:27Z</time>
      </trkpt>
      <trkpt lat="41.720111" lon="2.234683">
        <ele>883.07</ele>
        <time>2013-12-21T13:32:35Z</time>
      </trkpt>
      <trkpt lat="41.720110" lon="2.234684">
        <ele>882.97</ele>
        <time>2013-12-21T13:32:36Z</time>
      </trkpt>
      <trkpt lat="41.720058" lon="2.234579">
        <ele>883.09</ele>
        <time>2013-12-21T13:33:01Z</time>
      </trkpt>
      <trkpt lat="41.720037" lon="2.234534">
        <ele>882.96</ele>
        <time>2013-12-21T13:33:02Z</time>
      </trkpt>
      <trkpt lat="41.719971" lon="2.234377">
        <ele>882.52</ele>
        <time>2013-12-21T13:33:05Z</time>
      </trkpt>
      <trkpt lat="41.719849" lon="2.234123">
        <ele>881.96</ele>
        <time>2013-12-21T13:33:10Z</time>
      </trkpt>
      <trkpt lat="41.719619" lon="2.233622">
        <ele>880.71</ele>
        <time>2013-12-21T13:33:19Z</time>
      </trkpt>
      <trkpt lat="41.719254" lon="2.233168">
        <ele>878.27</ele>
        <time>2013-12-21T13:33:26Z</time>
      </trkpt>
      <trkpt lat="41.718753" lon="2.232763">
        <ele>874.68</ele>
        <time>2013-12-21T13:33:34Z</time>
      </trkpt>
      <trkpt lat="41.718578" lon="2.232603">
        <ele>873.61</ele>
        <time>2013-12-21T13:33:37Z</time>
      </trkpt>
      <trkpt lat="41.718079" lon="2.232140">
        <ele>869.81</ele>
        <time>2013-12-21T13:33:45Z</time>
      </trkpt>
      <trkpt lat="41.717654" lon="2.231628">
        <ele>866.23</ele>
        <time>2013-12-21T13:33:53Z</time>
      </trkpt>
      <trkpt lat="41.717391" lon="2.231357">
        <ele>864.49</ele>
        <time>2013-12-21T13:33:57Z</time>
      </trkpt>
      <trkpt lat="41.717246" lon="2.231166">
        <ele>862.86</ele>
        <time>2013-12-21T13:34:00Z</time>
      </trkpt>
      <trkpt lat="41.716834" lon="2.230998">
        <ele>860.51</ele>
        <time>2013-12-21T13:34:09Z</time>
      </trkpt>
      <trkpt lat="41.716532" lon="2.231061">
        <ele>859.43</ele>
        <time>2013-12-21T13:34:14Z</time>
      </trkpt>
      <trkpt lat="41.716323" lon="2.231004">
        <ele>858.47</ele>
        <time>2013-12-21T13:34:17Z</time>
      </trkpt>
      <trkpt lat="41.716181" lon="2.230621">
        <ele>854.48</ele>
        <time>2013-12-21T13:34:23Z</time>
      </trkpt>
      <trkpt lat="41.716191" lon="2.230534">
        <ele>853.56</ele>
        <time>2013-12-21T13:34:24Z</time>
      </trkpt>
      <trkpt lat="41.716224" lon="2.230011">
        <ele>849.71</ele>
        <time>2013-12-21T13:34:29Z</time>
      </trkpt>
      <trkpt lat="41.716185" lon="2.229662">
        <ele>847.72</ele>
        <time>2013-12-21T13:34:32Z</time>
      </trkpt>
      <trkpt lat="41.716171" lon="2.229546">
        <ele>846.21</ele>
        <time>2013-12-21T13:34:33Z</time>
      </trkpt>
      <trkpt lat="41.715971" lon="2.229142">
        <ele>841.56</ele>
        <time>2013-12-21T13:34:39Z</time>
      </trkpt>
      <trkpt lat="41.715809" lon="2.229151">
        <ele>839.05</ele>
        <time>2013-12-21T13:34:42Z</time>
      </trkpt>
      <trkpt lat="41.715518" lon="2.229155">
        <ele>835.85</ele>
        <time>2013-12-21T13:34:47Z</time>
      </trkpt>
      <trkpt lat="41.715229" lon="2.229003">
        <ele>832.32</ele>
        <time>2013-12-21T13:34:54Z</time>
      </trkpt>
      <trkpt lat="41.715102" lon="2.228949">
        <ele>831.70</ele>
        <time>2013-12-21T13:34:57Z</time>
      </trkpt>
      <trkpt lat="41.714961" lon="2.228833">
        <ele>830.95</ele>
        <time>2013-12-21T13:35:01Z</time>
      </trkpt>
      <trkpt lat="41.714740" lon="2.228603">
        <ele>829.66</ele>
        <time>2013-12-21T13:35:10Z</time>
      </trkpt>
      <trkpt lat="41.714746" lon="2.228612">
        <ele>829.07</ele>
        <time>2013-12-21T13:35:18Z</time>
      </trkpt>
      <trkpt lat="41.714799" lon="2.228637">
        <ele>829.24</ele>
        <time>2013-12-21T13:35:57Z</time>
      </trkpt>
      <trkpt lat="41.714946" lon="2.228917">
        <ele>829.32</ele>
        <time>2013-12-21T13:36:06Z</time>
      </trkpt>
      <trkpt lat="41.715200" lon="2.229004">
        <ele>830.21</ele>
        <time>2013-12-21T13:36:16Z</time>
      </trkpt>
      <trkpt lat="41.715497" lon="2.229219">
        <ele>830.96</ele>
        <time>2013-12-21T13:36:26Z</time>
      </trkpt>
      <trkpt lat="41.715760" lon="2.229583">
        <ele>830.72</ele>
        <time>2013-12-21T13:36:36Z</time>
      </trkpt>
      <trkpt lat="41.715766" lon="2.229895">
        <ele>830.59</ele>
        <time>2013-12-21T13:36:45Z</time>
      </trkpt>
      <trkpt lat="41.715567" lon="2.230067">
        <ele>829.38</ele>
        <time>2013-12-21T13:36:50Z</time>
      </trkpt>
      <trkpt lat="41.715184" lon="2.230479">
        <ele>826.23</ele>
        <time>2013-12-21T13:36:58Z</time>
      </trkpt>
      <trkpt lat="41.715060" lon="2.230547">
        <ele>825.35</ele>
        <time>2013-12-21T13:37:00Z</time>
      </trkpt>
      <trkpt lat="41.714814" lon="2.230763">
        <ele>823.85</ele>
        <time>2013-12-21T13:37:04Z</time>
      </trkpt>
      <trkpt lat="41.714711" lon="2.231096">
        <ele>822.37</ele>
        <time>2013-12-21T13:37:08Z</time>
      </trkpt>
      <trkpt lat="41.714722" lon="2.231324">
        <ele>821.63</ele>
        <time>2013-12-21T13:37:11Z</time>
      </trkpt>
      <trkpt lat="41.714942" lon="2.231722">
        <ele>820.62</ele>
        <time>2013-12-21T13:37:17Z</time>
      </trkpt>
      <trkpt lat="41.715064" lon="2.231830">
        <ele>819.71</ele>
        <time>2013-12-21T13:37:19Z</time>
      </trkpt>
      <trkpt lat="41.715268" lon="2.231924">
        <ele>818.31</ele>
        <time>2013-12-21T13:37:22Z</time>
      </trkpt>
      <trkpt lat="41.715705" lon="2.232086">
        <ele>815.35</ele>
        <time>2013-12-21T13:37:27Z</time>
      </trkpt>
      <trkpt lat="41.716180" lon="2.232366">
        <ele>811.48</ele>
        <time>2013-12-21T13:37:33Z</time>
      </trkpt>
      <trkpt lat="41.716489" lon="2.232577">
        <ele>810.98</ele>
        <time>2013-12-21T13:37:39Z</time>
      </trkpt>
      <trkpt lat="41.716775" lon="2.232832">
        <ele>813.25</ele>
        <time>2013-12-21T13:37:47Z</time>
      </trkpt>
      <trkpt lat="41.716940" lon="2.232983">
        <ele>815.03</ele>
        <time>2013-12-21T13:37:53Z</time>
      </trkpt>
      <trkpt lat="41.716784" lon="2.233113">
        <ele>817.60</ele>
        <time>2013-12-21T13:38:01Z</time>
      </trkpt>
      <trkpt lat="41.716710" lon="2.233104">
        <ele>817.92</ele>
        <time>2013-12-21T13:38:03Z</time>
      </trkpt>
      <trkpt lat="41.716385" lon="2.233022">
        <ele>817.74</ele>
        <time>2013-12-21T13:38:10Z</time>
      </trkpt>
      <trkpt lat="41.716072" lon="2.232974">
        <ele>817.11</ele>
        <time>2013-12-21T13:38:16Z</time>
      </trkpt>
      <trkpt lat="41.715566" lon="2.233056">
        <ele>815.91</ele>
        <time>2013-12-21T13:38:27Z</time>
      </trkpt>
      <trkpt lat="41.715004" lon="2.233325">
        <ele>815.82</ele>
        <time>2013-12-21T13:38:40Z</time>
      </trkpt>
      <trkpt lat="41.714791" lon="2.233353">
        <ele>815.37</ele>
        <time>2013-12-21T13:38:44Z</time>
      </trkpt>
      <trkpt lat="41.714635" lon="2.233373">
        <ele>815.32</ele>
        <time>2013-12-21T13:38:47Z</time>
      </trkpt>
      <trkpt lat="41.714442" lon="2.233514">
        <ele>815.07</ele>
        <time>2013-12-21T13:38:51Z</time>
      </trkpt>
      <trkpt lat="41.714325" lon="2.234013">
        <ele>814.63</ele>
        <time>2013-12-21T13:38:58Z</time>
      </trkpt>
      <trkpt lat="41.714360" lon="2.234288">
        <ele>814.71</ele>
        <time>2013-12-21T13:39:02Z</time>
      </trkpt>
      <trkpt lat="41.714384" lon="2.234441">
        <ele>814.77</ele>
        <time>2013-12-21T13:39:04Z</time>
      </trkpt>
      <trkpt lat="41.714562" lon="2.235092">
        <ele>811.36</ele>
        <time>2013-12-21T13:39:11Z</time>
      </trkpt>
      <trkpt lat="41.714656" lon="2.235368">
        <ele>809.35</ele>
        <time>2013-12-21T13:39:14Z</time>
      </trkpt>
      <trkpt lat="41.714512" lon="2.235593">
        <ele>807.32</ele>
        <time>2013-12-21T13:39:20Z</time>
      </trkpt>
      <trkpt lat="41.714468" lon="2.235559">
        <ele>807.11</ele>
        <time>2013-12-21T13:39:21Z</time>
      </trkpt>
      <trkpt lat="41.714185" lon="2.235313">
        <ele>805.77</ele>
        <time>2013-12-21T13:39:27Z</time>
      </trkpt>
      <trkpt lat="41.713982" lon="2.235177">
        <ele>804.21</ele>
        <time>2013-12-21T13:39:31Z</time>
      </trkpt>
      <trkpt lat="41.713458" lon="2.235290">
        <ele>801.68</ele>
        <time>2013-12-21T13:39:39Z</time>
      </trkpt>
      <trkpt lat="41.713251" lon="2.235314">
        <ele>800.48</ele>
        <time>2013-12-21T13:39:44Z</time>
      </trkpt>
      <trkpt lat="41.713239" lon="2.235221">
        <ele>800.60</ele>
        <time>2013-12-21T13:39:46Z</time>
      </trkpt>
      <trkpt lat="41.713263" lon="2.234965">
        <ele>801.80</ele>
        <time>2013-12-21T13:39:51Z</time>
      </trkpt>
      <trkpt lat="41.713196" lon="2.234249">
        <ele>804.10</ele>
        <time>2013-12-21T13:40:04Z</time>
      </trkpt>
      <trkpt lat="41.713020" lon="2.233442">
        <ele>806.38</ele>
        <time>2013-12-21T13:40:20Z</time>
      </trkpt>
      <trkpt lat="41.712736" lon="2.232823">
        <ele>806.73</ele>
        <time>2013-12-21T13:40:35Z</time>
      </trkpt>
      <trkpt lat="41.712603" lon="2.232533">
        <ele>805.32</ele>
        <time>2013-12-21T13:40:40Z</time>
      </trkpt>
      <trkpt lat="41.712516" lon="2.232222">
        <ele>803.81</ele>
        <time>2013-12-21T13:40:44Z</time>
      </trkpt>
      <trkpt lat="41.712416" lon="2.231772">
        <ele>800.92</ele>
        <time>2013-12-21T13:40:49Z</time>
      </trkpt>
      <trkpt lat="41.712362" lon="2.231288">
        <ele>798.93</ele>
        <time>2013-12-21T13:40:54Z</time>
      </trkpt>
      <trkpt lat="41.712248" lon="2.231031">
        <ele>797.43</ele>
        <time>2013-12-21T13:40:57Z</time>
      </trkpt>
      <trkpt lat="41.712149" lon="2.230880">
        <ele>796.42</ele>
        <time>2013-12-21T13:40:59Z</time>
      </trkpt>
      <trkpt lat="41.711835" lon="2.230497">
        <ele>794.28</ele>
        <time>2013-12-21T13:41:05Z</time>
      </trkpt>
      <trkpt lat="41.711349" lon="2.230326">
        <ele>791.67</ele>
        <time>2013-12-21T13:41:12Z</time>
      </trkpt>
      <trkpt lat="41.711167" lon="2.230382">
        <ele>790.73</ele>
        <time>2013-12-21T13:41:14Z</time>
      </trkpt>
      <trkpt lat="41.710769" lon="2.230741">
        <ele>787.78</ele>
        <time>2013-12-21T13:41:19Z</time>
      </trkpt>
      <trkpt lat="41.710608" lon="2.231024">
        <ele>785.84</ele>
        <time>2013-12-21T13:41:22Z</time>
      </trkpt>
      <trkpt lat="41.710150" lon="2.231327">
        <ele>783.42</ele>
        <time>2013-12-21T13:41:29Z</time>
      </trkpt>
      <trkpt lat="41.709978" lon="2.231434">
        <ele>783.21</ele>
        <time>2013-12-21T13:41:32Z</time>
      </trkpt>
      <trkpt lat="41.709878" lon="2.231539">
        <ele>783.15</ele>
        <time>2013-12-21T13:41:34Z</time>
      </trkpt>
      <trkpt lat="41.709736" lon="2.231806">
        <ele>782.86</ele>
        <time>2013-12-21T13:41:38Z</time>
      </trkpt>
      <trkpt lat="41.709424" lon="2.232016">
        <ele>782.13</ele>
        <time>2013-12-21T13:41:45Z</time>
      </trkpt>
      <trkpt lat="41.709382" lon="2.232044">
        <ele>782.17</ele>
        <time>2013-12-21T13:41:46Z</time>
      </trkpt>
      <trkpt lat="41.709304" lon="2.232107">
        <ele>782.13</ele>
        <time>2013-12-21T13:41:48Z</time>
      </trkpt>
      <trkpt lat="41.709097" lon="2.232472">
        <ele>784.48</ele>
        <time>2013-12-21T13:41:58Z</time>
      </trkpt>
      <trkpt lat="41.709063" lon="2.232626">
        <ele>787.75</ele>
        <time>2013-12-21T13:42:05Z</time>
      </trkpt>
      <trkpt lat="41.709066" lon="2.232657">
        <ele>788.46</ele>
        <time>2013-12-21T13:42:07Z</time>
      </trkpt>
      <trkpt lat="41.709133" lon="2.232796">
        <ele>789.10</ele>
        <time>2013-12-21T13:42:12Z</time>
      </trkpt>
      <trkpt lat="41.708909" lon="2.233149">
        <ele>787.62</ele>
        <time>2013-12-21T13:42:18Z</time>
      </trkpt>
      <trkpt lat="41.708832" lon="2.233323">
        <ele>786.61</ele>
        <time>2013-12-21T13:42:21Z</time>
      </trkpt>
      <trkpt lat="41.708743" lon="2.233803">
        <ele>787.76</ele>
        <time>2013-12-21T13:42:32Z</time>
      </trkpt>
      <trkpt lat="41.708884" lon="2.234303">
        <ele>789.68</ele>
        <time>2013-12-21T13:42:44Z</time>
      </trkpt>
      <trkpt lat="41.708885" lon="2.234606">
        <ele>791.93</ele>
        <time>2013-12-21T13:42:53Z</time>
      </trkpt>
      <trkpt lat="41.708881" lon="2.234820">
        <ele>794.07</ele>
        <time>2013-12-21T13:43:04Z</time>
      </trkpt>
      <trkpt lat="41.708976" lon="2.234943">
        <ele>793.88</ele>
        <time>2013-12-21T13:43:10Z</time>
      </trkpt>
      <trkpt lat="41.708962" lon="2.235168">
        <ele>793.15</ele>
        <time>2013-12-21T13:43:14Z</time>
      </trkpt>
      <trkpt lat="41.708942" lon="2.235661">
        <ele>789.97</ele>
        <time>2013-12-21T13:43:20Z</time>
      </trkpt>
      <trkpt lat="41.708941" lon="2.235852">
        <ele>788.26</ele>
        <time>2013-12-21T13:43:22Z</time>
      </trkpt>
      <trkpt lat="41.708876" lon="2.236133">
        <ele>785.15</ele>
        <time>2013-12-21T13:43:25Z</time>
      </trkpt>
      <trkpt lat="41.708810" lon="2.236582">
        <ele>780.52</ele>
        <time>2013-12-21T13:43:29Z</time>
      </trkpt>
      <trkpt lat="41.708693" lon="2.237041">
        <ele>776.01</ele>
        <time>2013-12-21T13:43:33Z</time>
      </trkpt>
      <trkpt lat="41.708629" lon="2.237459">
        <ele>772.21</ele>
        <time>2013-12-21T13:43:37Z</time>
      </trkpt>
      <trkpt lat="41.708635" lon="2.238012">
        <ele>767.48</ele>
        <time>2013-12-21T13:43:42Z</time>
      </trkpt>
      <trkpt lat="41.708551" lon="2.238299">
        <ele>764.20</ele>
        <time>2013-12-21T13:43:45Z</time>
      </trkpt>
      <trkpt lat="41.708507" lon="2.238379">
        <ele>763.17</ele>
        <time>2013-12-21T13:43:46Z</time>
      </trkpt>
      <trkpt lat="41.708407" lon="2.238523">
        <ele>761.10</ele>
        <time>2013-12-21T13:43:48Z</time>
      </trkpt>
      <trkpt lat="41.708202" lon="2.238700">
        <ele>757.34</ele>
        <time>2013-12-21T13:43:54Z</time>
      </trkpt>
      <trkpt lat="41.708109" lon="2.238759">
        <ele>756.82</ele>
        <time>2013-12-21T13:43:56Z</time>
      </trkpt>
      <trkpt lat="41.707952" lon="2.238843">
        <ele>754.14</ele>
        <time>2013-12-21T13:44:03Z</time>
      </trkpt>
      <trkpt lat="41.707951" lon="2.238833">
        <ele>753.70</ele>
        <time>2013-12-21T13:44:07Z</time>
      </trkpt>
      <trkpt lat="41.707880" lon="2.238842">
        <ele>753.52</ele>
        <time>2013-12-21T13:45:10Z</time>
      </trkpt>
      <trkpt lat="41.707628" lon="2.238944">
        <ele>752.31</ele>
        <time>2013-12-21T13:45:15Z</time>
      </trkpt>
      <trkpt lat="41.707351" lon="2.238989">
        <ele>750.06</ele>
        <time>2013-12-21T13:45:19Z</time>
      </trkpt>
      <trkpt lat="41.707038" lon="2.239022">
        <ele>746.48</ele>
        <time>2013-12-21T13:45:23Z</time>
      </trkpt>
      <trkpt lat="41.706782" lon="2.239155">
        <ele>743.17</ele>
        <time>2013-12-21T13:45:27Z</time>
      </trkpt>
      <trkpt lat="41.706471" lon="2.239733">
        <ele>737.72</ele>
        <time>2013-12-21T13:45:33Z</time>
      </trkpt>
      <trkpt lat="41.706031" lon="2.240098">
        <ele>732.15</ele>
        <time>2013-12-21T13:45:39Z</time>
      </trkpt>
      <trkpt lat="41.705882" lon="2.240207">
        <ele>730.38</ele>
        <time>2013-12-21T13:45:41Z</time>
      </trkpt>
      <trkpt lat="41.705551" lon="2.240294">
        <ele>724.96</ele>
        <time>2013-12-21T13:45:45Z</time>
      </trkpt>
      <trkpt lat="41.705474" lon="2.240275">
        <ele>724.92</ele>
        <time>2013-12-21T13:45:46Z</time>
      </trkpt>
      <trkpt lat="41.705269" lon="2.240288">
        <ele>722.74</ele>
        <time>2013-12-21T13:45:50Z</time>
      </trkpt>
      <trkpt lat="41.705246" lon="2.240345">
        <ele>723.01</ele>
        <time>2013-12-21T13:45:52Z</time>
      </trkpt>
      <trkpt lat="41.705269" lon="2.240810">
        <ele>725.81</ele>
        <time>2013-12-21T13:46:04Z</time>
      </trkpt>
      <trkpt lat="41.705327" lon="2.240889">
        <ele>728.88</ele>
        <time>2013-12-21T13:46:15Z</time>
      </trkpt>
      <trkpt lat="41.705327" lon="2.240889">
        <ele>729.09</ele>
        <time>2013-12-21T13:46:16Z</time>
      </trkpt>
      <trkpt lat="41.705353" lon="2.240937">
        <ele>729.23</ele>
        <time>2013-12-21T13:48:02Z</time>
      </trkpt>
      <trkpt lat="41.705381" lon="2.241054">
        <ele>729.49</ele>
        <time>2013-12-21T13:48:06Z</time>
      </trkpt>
      <trkpt lat="41.705455" lon="2.241543">
        <ele>731.14</ele>
        <time>2013-12-21T13:48:18Z</time>
      </trkpt>
      <trkpt lat="41.705560" lon="2.242028">
        <ele>733.84</ele>
        <time>2013-12-21T13:48:33Z</time>
      </trkpt>
      <trkpt lat="41.705573" lon="2.242064">
        <ele>734.62</ele>
        <time>2013-12-21T13:48:39Z</time>
      </trkpt>
      <trkpt lat="41.705585" lon="2.242170">
        <ele>734.59</ele>
        <time>2013-12-21T13:49:37Z</time>
      </trkpt>
      <trkpt lat="41.705622" lon="2.242342">
        <ele>734.56</ele>
        <time>2013-12-21T13:49:41Z</time>
      </trkpt>
      <trkpt lat="41.705644" lon="2.242828">
        <ele>734.52</ele>
        <time>2013-12-21T13:49:50Z</time>
      </trkpt>
      <trkpt lat="41.705701" lon="2.243171">
        <ele>734.81</ele>
        <time>2013-12-21T13:49:57Z</time>
      </trkpt>
      <trkpt lat="41.705808" lon="2.243707">
        <ele>736.09</ele>
        <time>2013-12-21T13:50:08Z</time>
      </trkpt>
      <trkpt lat="41.705881" lon="2.244205">
        <ele>736.45</ele>
        <time>2013-12-21T13:50:18Z</time>
      </trkpt>
      <trkpt lat="41.705921" lon="2.244683">
        <ele>737.09</ele>
        <time>2013-12-21T13:50:27Z</time>
      </trkpt>
      <trkpt lat="41.706009" lon="2.245039">
        <ele>736.07</ele>
        <time>2013-12-21T13:50:32Z</time>
      </trkpt>
      <trkpt lat="41.706160" lon="2.245341">
        <ele>734.87</ele>
        <time>2013-12-21T13:50:37Z</time>
      </trkpt>
      <trkpt lat="41.706316" lon="2.245710">
        <ele>734.56</ele>
        <time>2013-12-21T13:50:43Z</time>
      </trkpt>
      <trkpt lat="41.706408" lon="2.245961">
        <ele>733.74</ele>
        <time>2013-12-21T13:50:46Z</time>
      </trkpt>
      <trkpt lat="41.706554" lon="2.246326">
        <ele>731.02</ele>
        <time>2013-12-21T13:50:50Z</time>
      </trkpt>
      <trkpt lat="41.706781" lon="2.246628">
        <ele>728.09</ele>
        <time>2013-12-21T13:50:54Z</time>
      </trkpt>
      <trkpt lat="41.706989" lon="2.247042">
        <ele>723.91</ele>
        <time>2013-12-21T13:50:59Z</time>
      </trkpt>
      <trkpt lat="41.706927" lon="2.247328">
        <ele>722.41</ele>
        <time>2013-12-21T13:51:03Z</time>
      </trkpt>
      <trkpt lat="41.706819" lon="2.247436">
        <ele>721.83</ele>
        <time>2013-12-21T13:51:05Z</time>
      </trkpt>
      <trkpt lat="41.706557" lon="2.247640">
        <ele>719.86</ele>
        <time>2013-12-21T13:51:09Z</time>
      </trkpt>
      <trkpt lat="41.706417" lon="2.247761">
        <ele>718.51</ele>
        <time>2013-12-21T13:51:11Z</time>
      </trkpt>
      <trkpt lat="41.706230" lon="2.247835">
        <ele>716.44</ele>
        <time>2013-12-21T13:51:18Z</time>
      </trkpt>
      <trkpt lat="41.706230" lon="2.247834">
        <ele>716.58</ele>
        <time>2013-12-21T13:51:19Z</time>
      </trkpt>
      <trkpt lat="41.706164" lon="2.247833">
        <ele>716.74</ele>
        <time>2013-12-21T13:52:00Z</time>
      </trkpt>
      <trkpt lat="41.706094" lon="2.247856">
        <ele>716.68</ele>
        <time>2013-12-21T13:52:03Z</time>
      </trkpt>
      <trkpt lat="41.705969" lon="2.247844">
        <ele>716.45</ele>
        <time>2013-12-21T13:52:07Z</time>
      </trkpt>
      <trkpt lat="41.705803" lon="2.247685">
        <ele>716.06</ele>
        <time>2013-12-21T13:52:12Z</time>
      </trkpt>
      <trkpt lat="41.705660" lon="2.247434">
        <ele>715.32</ele>
        <time>2013-12-21T13:52:23Z</time>
      </trkpt>
      <trkpt lat="41.705665" lon="2.247435">
        <ele>715.51</ele>
        <time>2013-12-21T13:52:26Z</time>
      </trkpt>
      <trkpt lat="41.705621" lon="2.247364">
        <ele>716.16</ele>
        <time>2013-12-21T13:57:16Z</time>
      </trkpt>
      <trkpt lat="41.705480" lon="2.247235">
        <ele>715.85</ele>
        <time>2013-12-21T13:57:22Z</time>
      </trkpt>
      <trkpt lat="41.705401" lon="2.247207">
        <ele>715.78</ele>
        <time>2013-12-21T13:57:24Z</time>
      </trkpt>
      <trkpt lat="41.704950" lon="2.246850">
        <ele>713.07</ele>
        <time>2013-12-21T13:57:33Z</time>
      </trkpt>
      <trkpt lat="41.704476" lon="2.246473">
        <ele>707.65</ele>
        <time>2013-12-21T13:57:39Z</time>
      </trkpt>
      <trkpt lat="41.704209" lon="2.246255">
        <ele>703.95</ele>
        <time>2013-12-21T13:57:42Z</time>
      </trkpt>
      <trkpt lat="41.703916" lon="2.246052">
        <ele>700.89</ele>
        <time>2013-12-21T13:57:45Z</time>
      </trkpt>
      <trkpt lat="41.703726" lon="2.245956">
        <ele>698.72</ele>
        <time>2013-12-21T13:57:47Z</time>
      </trkpt>
      <trkpt lat="41.703431" lon="2.245966">
        <ele>694.38</ele>
        <time>2013-12-21T13:57:53Z</time>
      </trkpt>
      <trkpt lat="41.703353" lon="2.246094">
        <ele>692.61</ele>
        <time>2013-12-21T13:57:56Z</time>
      </trkpt>
      <trkpt lat="41.703084" lon="2.246278">
        <ele>688.11</ele>
        <time>2013-12-21T13:58:01Z</time>
      </trkpt>
      <trkpt lat="41.702783" lon="2.246339">
        <ele>683.07</ele>
        <time>2013-12-21T13:58:08Z</time>
      </trkpt>
      <trkpt lat="41.702523" lon="2.246111">
        <ele>679.78</ele>
        <time>2013-12-21T13:58:12Z</time>
      </trkpt>
      <trkpt lat="41.702291" lon="2.246020">
        <ele>676.17</ele>
        <time>2013-12-21T13:58:15Z</time>
      </trkpt>
      <trkpt lat="41.702134" lon="2.245923">
        <ele>672.63</ele>
        <time>2013-12-21T13:58:18Z</time>
      </trkpt>
      <trkpt lat="41.702048" lon="2.245831">
        <ele>670.34</ele>
        <time>2013-12-21T13:58:20Z</time>
      </trkpt>
      <trkpt lat="41.701783" lon="2.245736">
        <ele>666.58</ele>
        <time>2013-12-21T13:58:25Z</time>
      </trkpt>
      <trkpt lat="41.701582" lon="2.245794">
        <ele>663.32</ele>
        <time>2013-12-21T13:58:29Z</time>
      </trkpt>
      <trkpt lat="41.701606" lon="2.245942">
        <ele>660.16</ele>
        <time>2013-12-21T13:58:34Z</time>
      </trkpt>
      <trkpt lat="41.701897" lon="2.246172">
        <ele>656.90</ele>
        <time>2013-12-21T13:58:41Z</time>
      </trkpt>
      <trkpt lat="41.701963" lon="2.246338">
        <ele>655.52</ele>
        <time>2013-12-21T13:58:43Z</time>
      </trkpt>
      <trkpt lat="41.702291" lon="2.246571">
        <ele>651.81</ele>
        <time>2013-12-21T13:58:49Z</time>
      </trkpt>
      <trkpt lat="41.702429" lon="2.246815">
        <ele>650.38</ele>
        <time>2013-12-21T13:58:52Z</time>
      </trkpt>
      <trkpt lat="41.702643" lon="2.247209">
        <ele>645.36</ele>
        <time>2013-12-21T13:58:58Z</time>
      </trkpt>
      <trkpt lat="41.702984" lon="2.247213">
        <ele>642.94</ele>
        <time>2013-12-21T13:59:04Z</time>
      </trkpt>
      <trkpt lat="41.703178" lon="2.247178">
        <ele>641.50</ele>
        <time>2013-12-21T13:59:07Z</time>
      </trkpt>
      <trkpt lat="41.703538" lon="2.247403">
        <ele>636.60</ele>
        <time>2013-12-21T13:59:13Z</time>
      </trkpt>
      <trkpt lat="41.703796" lon="2.247647">
        <ele>632.15</ele>
        <time>2013-12-21T13:59:22Z</time>
      </trkpt>
      <trkpt lat="41.703370" lon="2.247572">
        <ele>628.76</ele>
        <time>2013-12-21T13:59:29Z</time>
      </trkpt>
      <trkpt lat="41.703068" lon="2.247510">
        <ele>625.39</ele>
        <time>2013-12-21T13:59:33Z</time>
      </trkpt>
      <trkpt lat="41.703019" lon="2.247532">
        <ele>624.71</ele>
        <time>2013-12-21T13:59:34Z</time>
      </trkpt>
      <trkpt lat="41.702915" lon="2.247592">
        <ele>623.83</ele>
        <time>2013-12-21T13:59:36Z</time>
      </trkpt>
      <trkpt lat="41.702817" lon="2.247649">
        <ele>623.61</ele>
        <time>2013-12-21T13:59:38Z</time>
      </trkpt>
      <trkpt lat="41.702724" lon="2.247668">
        <ele>623.65</ele>
        <time>2013-12-21T13:59:40Z</time>
      </trkpt>
      <trkpt lat="41.702296" lon="2.247616">
        <ele>625.12</ele>
        <time>2013-12-21T13:59:50Z</time>
      </trkpt>
      <trkpt lat="41.702076" lon="2.247539">
        <ele>626.07</ele>
        <time>2013-12-21T13:59:55Z</time>
      </trkpt>
      <trkpt lat="41.701841" lon="2.247225">
        <ele>624.44</ele>
        <time>2013-12-21T14:00:00Z</time>
      </trkpt>
      <trkpt lat="41.701638" lon="2.247032">
        <ele>622.05</ele>
        <time>2013-12-21T14:00:03Z</time>
      </trkpt>
      <trkpt lat="41.701440" lon="2.246916">
        <ele>620.44</ele>
        <time>2013-12-21T14:00:05Z</time>
      </trkpt>
      <trkpt lat="41.701258" lon="2.246865">
        <ele>618.60</ele>
        <time>2013-12-21T14:00:07Z</time>
      </trkpt>
      <trkpt lat="41.700940" lon="2.246652">
        <ele>615.88</ele>
        <time>2013-12-21T14:00:11Z</time>
      </trkpt>
      <trkpt lat="41.700343" lon="2.246541">
        <ele>611.53</ele>
        <time>2013-12-21T14:00:19Z</time>
      </trkpt>
      <trkpt lat="41.700273" lon="2.246958">
        <ele>609.62</ele>
        <time>2013-12-21T14:00:23Z</time>
      </trkpt>
      <trkpt lat="41.700177" lon="2.247507">
        <ele>606.61</ele>
        <time>2013-12-21T14:00:28Z</time>
      </trkpt>
      <trkpt lat="41.699920" lon="2.248165">
        <ele>602.51</ele>
        <time>2013-12-21T14:00:34Z</time>
      </trkpt>
      <trkpt lat="41.699896" lon="2.248272">
        <ele>601.95</ele>
        <time>2013-12-21T14:00:35Z</time>
      </trkpt>
      <trkpt lat="41.699783" lon="2.248518">
        <ele>600.95</ele>
        <time>2013-12-21T14:00:38Z</time>
      </trkpt>
      <trkpt lat="41.699342" lon="2.248778">
        <ele>600.06</ele>
        <time>2013-12-21T14:00:45Z</time>
      </trkpt>
      <trkpt lat="41.699306" lon="2.248870">
        <ele>599.84</ele>
        <time>2013-12-21T14:00:46Z</time>
      </trkpt>
      <trkpt lat="41.699190" lon="2.249411">
        <ele>598.76</ele>
        <time>2013-12-21T14:00:52Z</time>
      </trkpt>
      <trkpt lat="41.698967" lon="2.249592">
        <ele>597.99</ele>
        <time>2013-12-21T14:00:56Z</time>
      </trkpt>
      <trkpt lat="41.698816" lon="2.249666">
        <ele>597.23</ele>
        <time>2013-12-21T14:00:58Z</time>
      </trkpt>
      <trkpt lat="41.698598" lon="2.249982">
        <ele>594.75</ele>
        <time>2013-12-21T14:01:02Z</time>
      </trkpt>
      <trkpt lat="41.698237" lon="2.250449">
        <ele>590.61</ele>
        <time>2013-12-21T14:01:08Z</time>
      </trkpt>
      <trkpt lat="41.698180" lon="2.250523">
        <ele>589.81</ele>
        <time>2013-12-21T14:01:09Z</time>
      </trkpt>
      <trkpt lat="41.697827" lon="2.250717">
        <ele>587.00</ele>
        <time>2013-12-21T14:01:15Z</time>
      </trkpt>
      <trkpt lat="41.698048" lon="2.250899">
        <ele>583.65</ele>
        <time>2013-12-21T14:01:20Z</time>
      </trkpt>
      <trkpt lat="41.698181" lon="2.251134">
        <ele>580.57</ele>
        <time>2013-12-21T14:01:25Z</time>
      </trkpt>
      <trkpt lat="41.698060" lon="2.251212">
        <ele>579.67</ele>
        <time>2013-12-21T14:01:27Z</time>
      </trkpt>
      <trkpt lat="41.697939" lon="2.251281">
        <ele>578.75</ele>
        <time>2013-12-21T14:01:29Z</time>
      </trkpt>
      <trkpt lat="41.697746" lon="2.251276">
        <ele>577.17</ele>
        <time>2013-12-21T14:01:32Z</time>
      </trkpt>
      <trkpt lat="41.697474" lon="2.251143">
        <ele>575.51</ele>
        <time>2013-12-21T14:01:36Z</time>
      </trkpt>
      <trkpt lat="41.697226" lon="2.250886">
        <ele>574.02</ele>
        <time>2013-12-21T14:01:40Z</time>
      </trkpt>
      <trkpt lat="41.697098" lon="2.250768">
        <ele>572.58</ele>
        <time>2013-12-21T14:01:42Z</time>
      </trkpt>
      <trkpt lat="41.697082" lon="2.250557">
        <ele>571.31</ele>
        <time>2013-12-21T14:01:46Z</time>
      </trkpt>
      <trkpt lat="41.697125" lon="2.250511">
        <ele>571.31</ele>
        <time>2013-12-21T14:01:48Z</time>
      </trkpt>
      <trkpt lat="41.697058" lon="2.250508">
        <ele>571.22</ele>
        <time>2013-12-21T14:01:52Z</time>
      </trkpt>
      <trkpt lat="41.696847" lon="2.250798">
        <ele>570.09</ele>
        <time>2013-12-21T14:01:57Z</time>
      </trkpt>
      <trkpt lat="41.696709" lon="2.251334">
        <ele>566.33</ele>
        <time>2013-12-21T14:02:02Z</time>
      </trkpt>
      <trkpt lat="41.696589" lon="2.251808">
        <ele>562.28</ele>
        <time>2013-12-21T14:02:06Z</time>
      </trkpt>
      <trkpt lat="41.696569" lon="2.252043">
        <ele>558.96</ele>
        <time>2013-12-21T14:02:08Z</time>
      </trkpt>
      <trkpt lat="41.696587" lon="2.252258">
        <ele>557.58</ele>
        <time>2013-12-21T14:02:10Z</time>
      </trkpt>
      <trkpt lat="41.696708" lon="2.252698">
        <ele>556.37</ele>
        <time>2013-12-21T14:02:15Z</time>
      </trkpt>
      <trkpt lat="41.697022" lon="2.253334">
        <ele>555.65</ele>
        <time>2013-12-21T14:02:23Z</time>
      </trkpt>
      <trkpt lat="41.697159" lon="2.253503">
        <ele>555.16</ele>
        <time>2013-12-21T14:02:26Z</time>
      </trkpt>
      <trkpt lat="41.697104" lon="2.253665">
        <ele>554.52</ele>
        <time>2013-12-21T14:02:31Z</time>
      </trkpt>
      <trkpt lat="41.697042" lon="2.253664">
        <ele>554.11</ele>
        <time>2013-12-21T14:02:32Z</time>
      </trkpt>
      <trkpt lat="41.696856" lon="2.253670">
        <ele>552.45</ele>
        <time>2013-12-21T14:02:35Z</time>
      </trkpt>
      <trkpt lat="41.696471" lon="2.253546">
        <ele>548.71</ele>
        <time>2013-12-21T14:02:40Z</time>
      </trkpt>
      <trkpt lat="41.696403" lon="2.253508">
        <ele>548.16</ele>
        <time>2013-12-21T14:02:41Z</time>
      </trkpt>
      <trkpt lat="41.696199" lon="2.253381">
        <ele>546.86</ele>
        <time>2013-12-21T14:02:44Z</time>
      </trkpt>
      <trkpt lat="41.696089" lon="2.253265">
        <ele>545.95</ele>
        <time>2013-12-21T14:02:46Z</time>
      </trkpt>
      <trkpt lat="41.695702" lon="2.252963">
        <ele>543.73</ele>
        <time>2013-12-21T14:02:52Z</time>
      </trkpt>
      <trkpt lat="41.695309" lon="2.252935">
        <ele>539.36</ele>
        <time>2013-12-21T14:02:58Z</time>
      </trkpt>
      <trkpt lat="41.695224" lon="2.252966">
        <ele>538.57</ele>
        <time>2013-12-21T14:02:59Z</time>
      </trkpt>
      <trkpt lat="41.694935" lon="2.253335">
        <ele>533.34</ele>
        <time>2013-12-21T14:03:06Z</time>
      </trkpt>
      <trkpt lat="41.694886" lon="2.253515">
        <ele>532.13</ele>
        <time>2013-12-21T14:03:08Z</time>
      </trkpt>
      <trkpt lat="41.694621" lon="2.254131">
        <ele>527.61</ele>
        <time>2013-12-21T14:03:14Z</time>
      </trkpt>
      <trkpt lat="41.694542" lon="2.254390">
        <ele>525.32</ele>
        <time>2013-12-21T14:03:16Z</time>
      </trkpt>
      <trkpt lat="41.694542" lon="2.254784">
        <ele>520.06</ele>
        <time>2013-12-21T14:03:20Z</time>
      </trkpt>
      <trkpt lat="41.694501" lon="2.254838">
        <ele>516.97</ele>
        <time>2013-12-21T14:03:23Z</time>
      </trkpt>
      <trkpt lat="41.694253" lon="2.254556">
        <ele>513.96</ele>
        <time>2013-12-21T14:03:30Z</time>
      </trkpt>
      <trkpt lat="41.693956" lon="2.254192">
        <ele>510.12</ele>
        <time>2013-12-21T14:03:35Z</time>
      </trkpt>
      <trkpt lat="41.693695" lon="2.254145">
        <ele>506.73</ele>
        <time>2013-12-21T14:03:38Z</time>
      </trkpt>
      <trkpt lat="41.693295" lon="2.254432">
        <ele>503.22</ele>
        <time>2013-12-21T14:03:43Z</time>
      </trkpt>
      <trkpt lat="41.693211" lon="2.254481">
        <ele>502.80</ele>
        <time>2013-12-21T14:03:44Z</time>
      </trkpt>
      <trkpt lat="41.693052" lon="2.254581">
        <ele>501.55</ele>
        <time>2013-12-21T14:03:46Z</time>
      </trkpt>
      <trkpt lat="41.692743" lon="2.255139">
        <ele>497.22</ele>
        <time>2013-12-21T14:03:53Z</time>
      </trkpt>
      <trkpt lat="41.692693" lon="2.255204">
        <ele>496.71</ele>
        <time>2013-12-21T14:03:54Z</time>
      </trkpt>
      <trkpt lat="41.692574" lon="2.255318">
        <ele>495.88</ele>
        <time>2013-12-21T14:03:56Z</time>
      </trkpt>
      <trkpt lat="41.692405" lon="2.255503">
        <ele>494.76</ele>
        <time>2013-12-21T14:03:59Z</time>
      </trkpt>
      <trkpt lat="41.692149" lon="2.255657">
        <ele>493.51</ele>
        <time>2013-12-21T14:04:03Z</time>
      </trkpt>
      <trkpt lat="41.691920" lon="2.255778">
        <ele>492.02</ele>
        <time>2013-12-21T14:04:06Z</time>
      </trkpt>
      <trkpt lat="41.691698" lon="2.255931">
        <ele>490.01</ele>
        <time>2013-12-21T14:04:09Z</time>
      </trkpt>
      <trkpt lat="41.691497" lon="2.255965">
        <ele>487.09</ele>
        <time>2013-12-21T14:04:12Z</time>
      </trkpt>
      <trkpt lat="41.691372" lon="2.256331">
        <ele>483.39</ele>
        <time>2013-12-21T14:04:18Z</time>
      </trkpt>
      <trkpt lat="41.691682" lon="2.256457">
        <ele>480.02</ele>
        <time>2013-12-21T14:04:23Z</time>
      </trkpt>
      <trkpt lat="41.691699" lon="2.256498">
        <ele>479.08</ele>
        <time>2013-12-21T14:04:25Z</time>
      </trkpt>
      <trkpt lat="41.691352" lon="2.256531">
        <ele>477.01</ele>
        <time>2013-12-21T14:04:29Z</time>
      </trkpt>
      <trkpt lat="41.691066" lon="2.256530">
        <ele>474.31</ele>
        <time>2013-12-21T14:04:32Z</time>
      </trkpt>
      <trkpt lat="41.690750" lon="2.256387">
        <ele>469.60</ele>
        <time>2013-12-21T14:04:38Z</time>
      </trkpt>
      <trkpt lat="41.690706" lon="2.256635">
        <ele>467.47</ele>
        <time>2013-12-21T14:04:42Z</time>
      </trkpt>
      <trkpt lat="41.690869" lon="2.256905">
        <ele>464.72</ele>
        <time>2013-12-21T14:04:46Z</time>
      </trkpt>
      <trkpt lat="41.691091" lon="2.257201">
        <ele>461.82</ele>
        <time>2013-12-21T14:04:50Z</time>
      </trkpt>
      <trkpt lat="41.691379" lon="2.257116">
        <ele>459.18</ele>
        <time>2013-12-21T14:04:56Z</time>
      </trkpt>
      <trkpt lat="41.691584" lon="2.257072">
        <ele>459.16</ele>
        <time>2013-12-21T14:05:01Z</time>
      </trkpt>
      <trkpt lat="41.691906" lon="2.257007">
        <ele>459.49</ele>
        <time>2013-12-21T14:05:08Z</time>
      </trkpt>
      <trkpt lat="41.692325" lon="2.256888">
        <ele>459.76</ele>
        <time>2013-12-21T14:05:17Z</time>
      </trkpt>
      <trkpt lat="41.692433" lon="2.256970">
        <ele>460.20</ele>
        <time>2013-12-21T14:05:25Z</time>
      </trkpt>
      <trkpt lat="41.692206" lon="2.257096">
        <ele>458.92</ele>
        <time>2013-12-21T14:05:29Z</time>
      </trkpt>
      <trkpt lat="41.691680" lon="2.257286">
        <ele>454.71</ele>
        <time>2013-12-21T14:05:37Z</time>
      </trkpt>
      <trkpt lat="41.691358" lon="2.257393">
        <ele>452.35</ele>
        <time>2013-12-21T14:05:42Z</time>
      </trkpt>
      <trkpt lat="41.691226" lon="2.257385">
        <ele>451.39</ele>
        <time>2013-12-21T14:05:44Z</time>
      </trkpt>
      <trkpt lat="41.691001" lon="2.257345">
        <ele>448.87</ele>
        <time>2013-12-21T14:05:51Z</time>
      </trkpt>
      <trkpt lat="41.690791" lon="2.257295">
        <ele>444.24</ele>
        <time>2013-12-21T14:05:58Z</time>
      </trkpt>
      <trkpt lat="41.690598" lon="2.257258">
        <ele>441.90</ele>
        <time>2013-12-21T14:06:02Z</time>
      </trkpt>
      <trkpt lat="41.690361" lon="2.257061">
        <ele>439.40</ele>
        <time>2013-12-21T14:06:07Z</time>
      </trkpt>
      <trkpt lat="41.689955" lon="2.257193">
        <ele>436.32</ele>
        <time>2013-12-21T14:06:16Z</time>
      </trkpt>
      <trkpt lat="41.689913" lon="2.257356">
        <ele>435.20</ele>
        <time>2013-12-21T14:06:20Z</time>
      </trkpt>
      <trkpt lat="41.689912" lon="2.257662">
        <ele>433.73</ele>
        <time>2013-12-21T14:06:25Z</time>
      </trkpt>
      <trkpt lat="41.689953" lon="2.258187">
        <ele>432.02</ele>
        <time>2013-12-21T14:06:33Z</time>
      </trkpt>
      <trkpt lat="41.689941" lon="2.258234">
        <ele>432.01</ele>
        <time>2013-12-21T14:06:34Z</time>
      </trkpt>
      <trkpt lat="41.689710" lon="2.258472">
        <ele>433.52</ele>
        <time>2013-12-21T14:06:41Z</time>
      </trkpt>
      <trkpt lat="41.689362" lon="2.258713">
        <ele>432.27</ele>
        <time>2013-12-21T14:06:49Z</time>
      </trkpt>
      <trkpt lat="41.689378" lon="2.258803">
        <ele>431.31</ele>
        <time>2013-12-21T14:06:50Z</time>
      </trkpt>
      <trkpt lat="41.689493" lon="2.259502">
        <ele>426.55</ele>
        <time>2013-12-21T14:06:58Z</time>
      </trkpt>
      <trkpt lat="41.689290" lon="2.259565">
        <ele>425.04</ele>
        <time>2013-12-21T14:07:01Z</time>
      </trkpt>
      <trkpt lat="41.689132" lon="2.259560">
        <ele>423.95</ele>
        <time>2013-12-21T14:07:03Z</time>
      </trkpt>
      <trkpt lat="41.688818" lon="2.259600">
        <ele>421.66</ele>
        <time>2013-12-21T14:07:07Z</time>
      </trkpt>
      <trkpt lat="41.688656" lon="2.259577">
        <ele>419.11</ele>
        <time>2013-12-21T14:07:09Z</time>
      </trkpt>
      <trkpt lat="41.688342" lon="2.259499">
        <ele>414.53</ele>
        <time>2013-12-21T14:07:13Z</time>
      </trkpt>
      <trkpt lat="41.688078" lon="2.259507">
        <ele>411.01</ele>
        <time>2013-12-21T14:07:16Z</time>
      </trkpt>
      <trkpt lat="41.687834" lon="2.259629">
        <ele>406.11</ele>
        <time>2013-12-21T14:07:20Z</time>
      </trkpt>
      <trkpt lat="41.687793" lon="2.259703">
        <ele>405.09</ele>
        <time>2013-12-21T14:07:21Z</time>
      </trkpt>
      <trkpt lat="41.687638" lon="2.259981">
        <ele>401.97</ele>
        <time>2013-12-21T14:07:24Z</time>
      </trkpt>
      <trkpt lat="41.687360" lon="2.260343">
        <ele>396.55</ele>
        <time>2013-12-21T14:07:28Z</time>
      </trkpt>
      <trkpt lat="41.687290" lon="2.260443">
        <ele>394.93</ele>
        <time>2013-12-21T14:07:29Z</time>
      </trkpt>
      <trkpt lat="41.686971" lon="2.260715">
        <ele>387.91</ele>
        <time>2013-12-21T14:07:33Z</time>
      </trkpt>
      <trkpt lat="41.686749" lon="2.260884">
        <ele>382.91</ele>
        <time>2013-12-21T14:07:37Z</time>
      </trkpt>
      <trkpt lat="41.686692" lon="2.260943">
        <ele>381.81</ele>
        <time>2013-12-21T14:07:38Z</time>
      </trkpt>
      <trkpt lat="41.686391" lon="2.260968">
        <ele>376.92</ele>
        <time>2013-12-21T14:07:42Z</time>
      </trkpt>
      <trkpt lat="41.686146" lon="2.260960">
        <ele>373.81</ele>
        <time>2013-12-21T14:07:45Z</time>
      </trkpt>
      <trkpt lat="41.686067" lon="2.260960">
        <ele>372.92</ele>
        <time>2013-12-21T14:07:46Z</time>
      </trkpt>
      <trkpt lat="41.685777" lon="2.261117">
        <ele>368.31</ele>
        <time>2013-12-21T14:07:51Z</time>
      </trkpt>
      <trkpt lat="41.685537" lon="2.261390">
        <ele>365.84</ele>
        <time>2013-12-21T14:07:56Z</time>
      </trkpt>
      <trkpt lat="41.685286" lon="2.261700">
        <ele>362.49</ele>
        <time>2013-12-21T14:08:00Z</time>
      </trkpt>
      <trkpt lat="41.685043" lon="2.261885">
        <ele>358.58</ele>
        <time>2013-12-21T14:08:03Z</time>
      </trkpt>
      <trkpt lat="41.684931" lon="2.262150">
        <ele>356.32</ele>
        <time>2013-12-21T14:08:07Z</time>
      </trkpt>
      <trkpt lat="41.684916" lon="2.262572">
        <ele>359.43</ele>
        <time>2013-12-21T14:08:17Z</time>
      </trkpt>
      <trkpt lat="41.684917" lon="2.262638">
        <ele>360.46</ele>
        <time>2013-12-21T14:08:20Z</time>
      </trkpt>
      <trkpt lat="41.684744" lon="2.262665">
        <ele>361.55</ele>
        <time>2013-12-21T14:08:26Z</time>
      </trkpt>
      <trkpt lat="41.684593" lon="2.262654">
        <ele>360.95</ele>
        <time>2013-12-21T14:08:29Z</time>
      </trkpt>
      <trkpt lat="41.684320" lon="2.262790">
        <ele>358.75</ele>
        <time>2013-12-21T14:08:32Z</time>
      </trkpt>
      <trkpt lat="41.684030" lon="2.263171">
        <ele>354.61</ele>
        <time>2013-12-21T14:08:37Z</time>
      </trkpt>
      <trkpt lat="41.683924" lon="2.263250">
        <ele>354.01</ele>
        <time>2013-12-21T14:08:39Z</time>
      </trkpt>
      <trkpt lat="41.683745" lon="2.263523">
        <ele>355.89</ele>
        <time>2013-12-21T14:08:47Z</time>
      </trkpt>
      <trkpt lat="41.683704" lon="2.263571">
        <ele>357.46</ele>
        <time>2013-12-21T14:08:50Z</time>
      </trkpt>
      <trkpt lat="41.683668" lon="2.263611">
        <ele>358.74</ele>
        <time>2013-12-21T14:08:54Z</time>
      </trkpt>
      <trkpt lat="41.683532" lon="2.263693">
        <ele>359.45</ele>
        <time>2013-12-21T14:08:59Z</time>
      </trkpt>
      <trkpt lat="41.683059" lon="2.263944">
        <ele>355.75</ele>
        <time>2013-12-21T14:09:06Z</time>
      </trkpt>
      <trkpt lat="41.683009" lon="2.264024">
        <ele>354.77</ele>
        <time>2013-12-21T14:09:07Z</time>
      </trkpt>
      <trkpt lat="41.682862" lon="2.264289">
        <ele>351.95</ele>
        <time>2013-12-21T14:09:10Z</time>
      </trkpt>
      <trkpt lat="41.682899" lon="2.264809">
        <ele>349.05</ele>
        <time>2013-12-21T14:09:17Z</time>
      </trkpt>
      <trkpt lat="41.682914" lon="2.265070">
        <ele>350.40</ele>
        <time>2013-12-21T14:09:23Z</time>
      </trkpt>
      <trkpt lat="41.682834" lon="2.265343">
        <ele>351.11</ele>
        <time>2013-12-21T14:09:30Z</time>
      </trkpt>
      <trkpt lat="41.682800" lon="2.265559">
        <ele>351.51</ele>
        <time>2013-12-21T14:09:35Z</time>
      </trkpt>
      <trkpt lat="41.682641" lon="2.265795">
        <ele>350.45</ele>
        <time>2013-12-21T14:09:39Z</time>
      </trkpt>
      <trkpt lat="41.682525" lon="2.266110">
        <ele>348.28</ele>
        <time>2013-12-21T14:09:43Z</time>
      </trkpt>
      <trkpt lat="41.682575" lon="2.266586">
        <ele>343.30</ele>
        <time>2013-12-21T14:09:50Z</time>
      </trkpt>
      <trkpt lat="41.682518" lon="2.266874">
        <ele>340.92</ele>
        <time>2013-12-21T14:09:55Z</time>
      </trkpt>
      <trkpt lat="41.682459" lon="2.267112">
        <ele>340.54</ele>
        <time>2013-12-21T14:10:00Z</time>
      </trkpt>
      <trkpt lat="41.682393" lon="2.267296">
        <ele>342.05</ele>
        <time>2013-12-21T14:10:05Z</time>
      </trkpt>
      <trkpt lat="41.682354" lon="2.267499">
        <ele>343.50</ele>
        <time>2013-12-21T14:10:10Z</time>
      </trkpt>
      <trkpt lat="41.682008" lon="2.268082">
        <ele>345.13</ele>
        <time>2013-12-21T14:10:25Z</time>
      </trkpt>
      <trkpt lat="41.682075" lon="2.268677">
        <ele>348.19</ele>
        <time>2013-12-21T14:10:40Z</time>
      </trkpt>
      <trkpt lat="41.682154" lon="2.269054">
        <ele>350.31</ele>
        <time>2013-12-21T14:10:51Z</time>
      </trkpt>
      <trkpt lat="41.682271" lon="2.269230">
        <ele>352.61</ele>
        <time>2013-12-21T14:11:00Z</time>
      </trkpt>
      <trkpt lat="41.682232" lon="2.269455">
        <ele>353.67</ele>
        <time>2013-12-21T14:11:08Z</time>
      </trkpt>
      <trkpt lat="41.682170" lon="2.269617">
        <ele>354.47</ele>
        <time>2013-12-21T14:11:13Z</time>
      </trkpt>
      <trkpt lat="41.682168" lon="2.269848">
        <ele>355.65</ele>
        <time>2013-12-21T14:11:20Z</time>
      </trkpt>
      <trkpt lat="41.682156" lon="2.269929">
        <ele>356.27</ele>
        <time>2013-12-21T14:11:24Z</time>
      </trkpt>
      <trkpt lat="41.682145" lon="2.270018">
        <ele>357.19</ele>
        <time>2013-12-21T14:11:29Z</time>
      </trkpt>
      <trkpt lat="41.682121" lon="2.270134">
        <ele>357.67</ele>
        <time>2013-12-21T14:11:34Z</time>
      </trkpt>
      <trkpt lat="41.681979" lon="2.270524">
        <ele>357.34</ele>
        <time>2013-12-21T14:11:46Z</time>
      </trkpt>
      <trkpt lat="41.681943" lon="2.270689">
        <ele>357.36</ele>
        <time>2013-12-21T14:11:55Z</time>
      </trkpt>
      <trkpt lat="41.681954" lon="2.270757">
        <ele>357.95</ele>
        <time>2013-12-21T14:12:50Z</time>
      </trkpt>
      <trkpt lat="41.681976" lon="2.270882">
        <ele>357.92</ele>
        <time>2013-12-21T14:12:53Z</time>
      </trkpt>
      <trkpt lat="41.682040" lon="2.271359">
        <ele>356.41</ele>
        <time>2013-12-21T14:13:00Z</time>
      </trkpt>
      <trkpt lat="41.681966" lon="2.271775">
        <ele>353.33</ele>
        <time>2013-12-21T14:13:05Z</time>
      </trkpt>
      <trkpt lat="41.681804" lon="2.272495">
        <ele>349.45</ele>
        <time>2013-12-21T14:13:13Z</time>
      </trkpt>
      <trkpt lat="41.681466" lon="2.273050">
        <ele>347.28</ele>
        <time>2013-12-21T14:13:21Z</time>
      </trkpt>
      <trkpt lat="41.681076" lon="2.273560">
        <ele>343.38</ele>
        <time>2013-12-21T14:13:28Z</time>
      </trkpt>
      <trkpt lat="41.681030" lon="2.273625">
        <ele>342.59</ele>
        <time>2013-12-21T14:13:29Z</time>
      </trkpt>
      <trkpt lat="41.681289" lon="2.273906">
        <ele>339.60</ele>
        <time>2013-12-21T14:13:35Z</time>
      </trkpt>
      <trkpt lat="41.681459" lon="2.274102">
        <ele>337.63</ele>
        <time>2013-12-21T14:13:38Z</time>
      </trkpt>
      <trkpt lat="41.681717" lon="2.274407">
        <ele>334.94</ele>
        <time>2013-12-21T14:13:42Z</time>
      </trkpt>
      <trkpt lat="41.682096" lon="2.274667">
        <ele>330.72</ele>
        <time>2013-12-21T14:13:47Z</time>
      </trkpt>
      <trkpt lat="41.682368" lon="2.274738">
        <ele>326.81</ele>
        <time>2013-12-21T14:13:51Z</time>
      </trkpt>
      <trkpt lat="41.682355" lon="2.274875">
        <ele>325.41</ele>
        <time>2013-12-21T14:13:53Z</time>
      </trkpt>
      <trkpt lat="41.682250" lon="2.275028">
        <ele>323.70</ele>
        <time>2013-12-21T14:13:55Z</time>
      </trkpt>
      <trkpt lat="41.682264" lon="2.275324">
        <ele>319.64</ele>
        <time>2013-12-21T14:13:59Z</time>
      </trkpt>
      <trkpt lat="41.682525" lon="2.275519">
        <ele>316.30</ele>
        <time>2013-12-21T14:14:03Z</time>
      </trkpt>
      <trkpt lat="41.682646" lon="2.275777">
        <ele>312.76</ele>
        <time>2013-12-21T14:14:07Z</time>
      </trkpt>
      <trkpt lat="41.682711" lon="2.276428">
        <ele>308.38</ele>
        <time>2013-12-21T14:14:13Z</time>
      </trkpt>
      <trkpt lat="41.682789" lon="2.276815">
        <ele>304.94</ele>
        <time>2013-12-21T14:14:16Z</time>
      </trkpt>
      <trkpt lat="41.682818" lon="2.276950">
        <ele>302.42</ele>
        <time>2013-12-21T14:14:17Z</time>
      </trkpt>
      <trkpt lat="41.682877" lon="2.277487">
        <ele>297.35</ele>
        <time>2013-12-21T14:14:21Z</time>
      </trkpt>
      <trkpt lat="41.682764" lon="2.277989">
        <ele>293.56</ele>
        <time>2013-12-21T14:14:25Z</time>
      </trkpt>
      <trkpt lat="41.682500" lon="2.278623">
        <ele>288.01</ele>
        <time>2013-12-21T14:14:31Z</time>
      </trkpt>
      <trkpt lat="41.682459" lon="2.278831">
        <ele>286.51</ele>
        <time>2013-12-21T14:14:33Z</time>
      </trkpt>
      <trkpt lat="41.682546" lon="2.279245">
        <ele>283.42</ele>
        <time>2013-12-21T14:14:38Z</time>
      </trkpt>
      <trkpt lat="41.682803" lon="2.279384">
        <ele>279.37</ele>
        <time>2013-12-21T14:14:43Z</time>
      </trkpt>
      <trkpt lat="41.682948" lon="2.279363">
        <ele>278.18</ele>
        <time>2013-12-21T14:14:45Z</time>
      </trkpt>
      <trkpt lat="41.683264" lon="2.279208">
        <ele>273.60</ele>
        <time>2013-12-21T14:14:49Z</time>
      </trkpt>
      <trkpt lat="41.683447" lon="2.279124">
        <ele>270.43</ele>
        <time>2013-12-21T14:14:52Z</time>
      </trkpt>
      <trkpt lat="41.683614" lon="2.279196">
        <ele>267.23</ele>
        <time>2013-12-21T14:14:57Z</time>
      </trkpt>
      <trkpt lat="41.683599" lon="2.279260">
        <ele>266.62</ele>
        <time>2013-12-21T14:14:58Z</time>
      </trkpt>
      <trkpt lat="41.683487" lon="2.279650">
        <ele>264.13</ele>
        <time>2013-12-21T14:15:03Z</time>
      </trkpt>
      <trkpt lat="41.683346" lon="2.280330">
        <ele>260.57</ele>
        <time>2013-12-21T14:15:10Z</time>
      </trkpt>
      <trkpt lat="41.683259" lon="2.280739">
        <ele>259.21</ele>
        <time>2013-12-21T14:15:15Z</time>
      </trkpt>
      <trkpt lat="41.683217" lon="2.280887">
        <ele>258.81</ele>
        <time>2013-12-21T14:15:17Z</time>
      </trkpt>
      <trkpt lat="41.683163" lon="2.281271">
        <ele>258.18</ele>
        <time>2013-12-21T14:15:22Z</time>
      </trkpt>
      <trkpt lat="41.683089" lon="2.281682">
        <ele>257.26</ele>
        <time>2013-12-21T14:15:28Z</time>
      </trkpt>
      <trkpt lat="41.683255" lon="2.281860">
        <ele>257.06</ele>
        <time>2013-12-21T14:15:34Z</time>
      </trkpt>
      <trkpt lat="41.683849" lon="2.281895">
        <ele>258.21</ele>
        <time>2013-12-21T14:15:47Z</time>
      </trkpt>
      <trkpt lat="41.684050" lon="2.281942">
        <ele>258.84</ele>
        <time>2013-12-21T14:15:52Z</time>
      </trkpt>
      <trkpt lat="41.684105" lon="2.282129">
        <ele>259.35</ele>
        <time>2013-12-21T14:15:56Z</time>
      </trkpt>
      <trkpt lat="41.691517" lon="2.281817">
        <ele>251.49</ele>
        <time>2012-05-11T09:51:06Z</time>
      </trkpt>
      <trkpt lat="41.691422" lon="2.281375">
        <ele>254.06</ele>
        <time>2012-05-11T09:51:16Z</time>
      </trkpt>
      <trkpt lat="41.691444" lon="2.281775">
        <ele>251.43</ele>
        <time>2012-05-11T09:51:26Z</time>
      </trkpt>
      <trkpt lat="41.691437" lon="2.281540">
        <ele>253.01</ele>
        <time>2012-05-11T09:51:36Z</time>
      </trkpt>
      <trkpt lat="41.691502" lon="2.281188">
        <ele>256.68</ele>
        <time>2012-05-11T09:51:46Z</time>
      </trkpt>
      <trkpt lat="41.691525" lon="2.281160">
        <ele>257.38</ele>
        <time>2012-05-11T09:51:56Z</time>
      </trkpt>
      <trkpt lat="41.691540" lon="2.281153">
        <ele>257.70</ele>
        <time>2012-05-11T09:52:06Z</time>
      </trkpt>
      <trkpt lat="41.691563" lon="2.281163">
        <ele>257.77</ele>
        <time>2012-05-11T09:52:16Z</time>
      </trkpt>
      <trkpt lat="41.691544" lon="2.281180">
        <ele>257.40</ele>
        <time>2012-05-11T09:52:26Z</time>
      </trkpt>
      <trkpt lat="41.691475" lon="2.281210">
        <ele>256.01</ele>
        <time>2012-05-11T09:52:36Z</time>
      </trkpt>
      <trkpt lat="41.691502" lon="2.281275">
        <ele>255.53</ele>
        <time>2012-05-11T09:52:46Z</time>
      </trkpt>
      <trkpt lat="41.691555" lon="2.281397">
        <ele>255.12</ele>
        <time>2012-05-11T09:52:56Z</time>
      </trkpt>
      <trkpt lat="41.691601" lon="2.281630">
        <ele>253.48</ele>
        <time>2012-05-11T09:53:06Z</time>
      </trkpt>
      <trkpt lat="41.691582" lon="2.281720">
        <ele>252.51</ele>
        <time>2012-05-11T09:53:16Z</time>
      </trkpt>
      <trkpt lat="41.691566" lon="2.281762">
        <ele>252.11</ele>
        <time>2012-05-11T09:53:26Z</time>
      </trkpt>
      <trkpt lat="41.691586" lon="2.281833">
        <ele>251.69</ele>
        <time>2012-05-11T09:53:36Z</time>
      </trkpt>
      <trkpt lat="41.691662" lon="2.282165">
        <ele>249.44</ele>
        <time>2012-05-11T09:53:46Z</time>
      </trkpt>
      <trkpt lat="41.691765" lon="2.282260">
        <ele>249.55</ele>
        <time>2012-05-11T09:53:56Z</time>
      </trkpt>
      <trkpt lat="41.692043" lon="2.282373">
        <ele>249.63</ele>
        <time>2012-05-11T09:54:06Z</time>
      </trkpt>
      <trkpt lat="41.692322" lon="2.282467">
        <ele>251.95</ele>
        <time>2012-05-11T09:54:16Z</time>
      </trkpt>
      <trkpt lat="41.692600" lon="2.282545">
        <ele>254.22</ele>
        <time>2012-05-11T09:54:26Z</time>
      </trkpt>
      <trkpt lat="41.692886" lon="2.282618">
        <ele>256.22</ele>
        <time>2012-05-11T09:54:36Z</time>
      </trkpt>
      <trkpt lat="41.693161" lon="2.282685">
        <ele>256.57</ele>
        <time>2012-05-11T09:54:46Z</time>
      </trkpt>
      <trkpt lat="41.693363" lon="2.282732">
        <ele>256.38</ele>
        <time>2012-05-11T09:54:56Z</time>
      </trkpt>
      <trkpt lat="41.693378" lon="2.282733">
        <ele>256.31</ele>
        <time>2012-05-11T09:55:06Z</time>
      </trkpt>
      <trkpt lat="41.693394" lon="2.282733">
        <ele>256.41</ele>
        <time>2012-05-11T09:55:16Z</time>
      </trkpt>
      <trkpt lat="41.693428" lon="2.282730">
        <ele>256.55</ele>
        <time>2012-05-11T09:55:26Z</time>
      </trkpt>
      <trkpt lat="41.693504" lon="2.282747">
        <ele>256.31</ele>
        <time>2012-05-11T09:55:36Z</time>
      </trkpt>
      <trkpt lat="41.693569" lon="2.282735">
        <ele>256.66</ele>
        <time>2012-05-11T09:55:46Z</time>
      </trkpt>
      <trkpt lat="41.693584" lon="2.282735">
        <ele>256.69</ele>
        <time>2012-05-11T09:55:56Z</time>
      </trkpt>
      <trkpt lat="41.693645" lon="2.282710">
        <ele>257.30</ele>
        <time>2012-05-11T09:56:06Z</time>
      </trkpt>
      <trkpt lat="41.693684" lon="2.282593">
        <ele>259.73</ele>
        <time>2012-05-11T09:56:16Z</time>
      </trkpt>
      <trkpt lat="41.693703" lon="2.282548">
        <ele>260.73</ele>
        <time>2012-05-11T09:56:26Z</time>
      </trkpt>
      <trkpt lat="41.693760" lon="2.282518">
        <ele>261.67</ele>
        <time>2012-05-11T09:56:36Z</time>
      </trkpt>
      <trkpt lat="41.693783" lon="2.282518">
        <ele>261.57</ele>
        <time>2012-05-11T09:56:46Z</time>
      </trkpt>
      <trkpt lat="41.694057" lon="2.282560">
        <ele>259.81</ele>
        <time>2012-05-11T09:56:56Z</time>
      </trkpt>
      <trkpt lat="41.694321" lon="2.282647">
        <ele>257.51</ele>
        <time>2012-05-11T09:57:06Z</time>
      </trkpt>
      <trkpt lat="41.694603" lon="2.282700">
        <ele>256.24</ele>
        <time>2012-05-11T09:57:16Z</time>
      </trkpt>
      <trkpt lat="41.694870" lon="2.282760">
        <ele>256.49</ele>
        <time>2012-05-11T09:57:26Z</time>
      </trkpt>
      <trkpt lat="41.694977" lon="2.282752">
        <ele>256.95</ele>
        <time>2012-05-11T09:57:36Z</time>
      </trkpt>
      <trkpt lat="41.695007" lon="2.282745">
        <ele>257.14</ele>
        <time>2012-05-11T09:57:46Z</time>
      </trkpt>
      <trkpt lat="41.695026" lon="2.282743">
        <ele>257.22</ele>
        <time>2012-05-11T09:57:56Z</time>
      </trkpt>
      <trkpt lat="41.695084" lon="2.282742">
        <ele>257.43</ele>
        <time>2012-05-11T09:58:06Z</time>
      </trkpt>
      <trkpt lat="41.695213" lon="2.282743">
        <ele>257.95</ele>
        <time>2012-05-11T09:58:16Z</time>
      </trkpt>
      <trkpt lat="41.695328" lon="2.282737">
        <ele>258.43</ele>
        <time>2012-05-11T09:58:26Z</time>
      </trkpt>
      <trkpt lat="41.695400" lon="2.282778">
        <ele>258.36</ele>
        <time>2012-05-11T09:58:36Z</time>
      </trkpt>
      <trkpt lat="41.695400" lon="2.282820">
        <ele>257.91</ele>
        <time>2012-05-11T09:58:46Z</time>
      </trkpt>
      <trkpt lat="41.695465" lon="2.283290">
        <ele>255.31</ele>
        <time>2012-05-11T09:58:56Z</time>
      </trkpt>
      <trkpt lat="41.695530" lon="2.283642">
        <ele>253.88</ele>
        <time>2012-05-11T09:59:06Z</time>
      </trkpt>
      <trkpt lat="41.695599" lon="2.284007">
        <ele>253.27</ele>
        <time>2012-05-11T09:59:16Z</time>
      </trkpt>
      <trkpt lat="41.695675" lon="2.284375">
        <ele>252.79</ele>
        <time>2012-05-11T09:59:26Z</time>
      </trkpt>
      <trkpt lat="41.695755" lon="2.284725">
        <ele>252.25</ele>
        <time>2012-05-11T09:59:36Z</time>
      </trkpt>
      <trkpt lat="41.695782" lon="2.284930">
        <ele>252.19</ele>
        <time>2012-05-11T09:59:46Z</time>
      </trkpt>
      <trkpt lat="41.695778" lon="2.284985">
        <ele>252.16</ele>
        <time>2012-05-11T09:59:56Z</time>
      </trkpt>
      <trkpt lat="41.695839" lon="2.285150">
        <ele>252.03</ele>
        <time>2012-05-11T10:00:06Z</time>
      </trkpt>
      <trkpt lat="41.696018" lon="2.285427">
        <ele>252.04</ele>
        <time>2012-05-11T10:00:16Z</time>
      </trkpt>
      <trkpt lat="41.696144" lon="2.285520">
        <ele>252.32</ele>
        <time>2012-05-11T10:00:26Z</time>
      </trkpt>
      <trkpt lat="41.696182" lon="2.285527">
        <ele>252.42</ele>
        <time>2012-05-11T10:00:36Z</time>
      </trkpt>
      <trkpt lat="41.696468" lon="2.285492">
        <ele>252.41</ele>
        <time>2012-05-11T10:00:46Z</time>
      </trkpt>
      <trkpt lat="41.696743" lon="2.285403">
        <ele>252.03</ele>
        <time>2012-05-11T10:00:56Z</time>
      </trkpt>
      <trkpt lat="41.697052" lon="2.285330">
        <ele>252.09</ele>
        <time>2012-05-11T10:01:06Z</time>
      </trkpt>
      <trkpt lat="41.697334" lon="2.285245">
        <ele>253.31</ele>
        <time>2012-05-11T10:01:16Z</time>
      </trkpt>
      <trkpt lat="41.697605" lon="2.285168">
        <ele>254.65</ele>
        <time>2012-05-11T10:01:26Z</time>
      </trkpt>
      <trkpt lat="41.697876" lon="2.285097">
        <ele>255.74</ele>
        <time>2012-05-11T10:01:36Z</time>
      </trkpt>
      <trkpt lat="41.698143" lon="2.284987">
        <ele>257.19</ele>
        <time>2012-05-11T10:01:46Z</time>
      </trkpt>
      <trkpt lat="41.698410" lon="2.284883">
        <ele>258.68</ele>
        <time>2012-05-11T10:01:56Z</time>
      </trkpt>
      <trkpt lat="41.698620" lon="2.284817">
        <ele>259.96</ele>
        <time>2012-05-11T10:02:06Z</time>
      </trkpt>
      <trkpt lat="41.698650" lon="2.284842">
        <ele>260.28</ele>
        <time>2012-05-11T10:02:16Z</time>
      </trkpt>
      <trkpt lat="41.698647" lon="2.284913">
        <ele>260.41</ele>
        <time>2012-05-11T10:02:26Z</time>
      </trkpt>
      <trkpt lat="41.698467" lon="2.285202">
        <ele>260.21</ele>
        <time>2012-05-11T10:02:36Z</time>
      </trkpt>
      <trkpt lat="41.698357" lon="2.285538">
        <ele>261.07</ele>
        <time>2012-05-11T10:02:46Z</time>
      </trkpt>
      <trkpt lat="41.698353" lon="2.285682">
        <ele>262.01</ele>
        <time>2012-05-11T10:02:56Z</time>
      </trkpt>
      <trkpt lat="41.698414" lon="2.285795">
        <ele>263.16</ele>
        <time>2012-05-11T10:03:06Z</time>
      </trkpt>
      <trkpt lat="41.698486" lon="2.285820">
        <ele>263.61</ele>
        <time>2012-05-11T10:03:16Z</time>
      </trkpt>
      <trkpt lat="41.698753" lon="2.285693">
        <ele>264.32</ele>
        <time>2012-05-11T10:03:26Z</time>
      </trkpt>
      <trkpt lat="41.699039" lon="2.285563">
        <ele>264.96</ele>
        <time>2012-05-11T10:03:36Z</time>
      </trkpt>
      <trkpt lat="41.699261" lon="2.285420">
        <ele>264.93</ele>
        <time>2012-05-11T10:03:46Z</time>
      </trkpt>
      <trkpt lat="41.699429" lon="2.285520">
        <ele>266.25</ele>
        <time>2012-05-11T10:03:56Z</time>
      </trkpt>
      <trkpt lat="41.699635" lon="2.285762">
        <ele>269.16</ele>
        <time>2012-05-11T10:04:06Z</time>
      </trkpt>
      <trkpt lat="41.699703" lon="2.285953">
        <ele>270.92</ele>
        <time>2012-05-11T10:04:16Z</time>
      </trkpt>
      <trkpt lat="41.699696" lon="2.286038">
        <ele>271.61</ele>
        <time>2012-05-11T10:04:26Z</time>
      </trkpt>
      <trkpt lat="41.699837" lon="2.286353">
        <ele>274.19</ele>
        <time>2012-05-11T10:04:36Z</time>
      </trkpt>
      <trkpt lat="41.699856" lon="2.286400">
        <ele>274.39</ele>
        <time>2012-05-11T10:04:46Z</time>
      </trkpt>
      <trkpt lat="41.699760" lon="2.286570">
        <ele>274.95</ele>
        <time>2012-05-11T10:04:56Z</time>
      </trkpt>
      <trkpt lat="41.699734" lon="2.286647">
        <ele>275.27</ele>
        <time>2012-05-11T10:05:06Z</time>
      </trkpt>
      <trkpt lat="41.699764" lon="2.286772">
        <ele>275.87</ele>
        <time>2012-05-11T10:05:16Z</time>
      </trkpt>
      <trkpt lat="41.699795" lon="2.287030">
        <ele>277.02</ele>
        <time>2012-05-11T10:05:26Z</time>
      </trkpt>
      <trkpt lat="41.699989" lon="2.287285">
        <ele>279.56</ele>
        <time>2012-05-11T10:05:36Z</time>
      </trkpt>
      <trkpt lat="41.700222" lon="2.287472">
        <ele>282.14</ele>
        <time>2012-05-11T10:05:46Z</time>
      </trkpt>
      <trkpt lat="41.700432" lon="2.287737">
        <ele>285.90</ele>
        <time>2012-05-11T10:05:56Z</time>
      </trkpt>
      <trkpt lat="41.700504" lon="2.287873">
        <ele>288.02</ele>
        <time>2012-05-11T10:06:06Z</time>
      </trkpt>
      <trkpt lat="41.700535" lon="2.288232">
        <ele>294.81</ele>
        <time>2012-05-11T10:06:16Z</time>
      </trkpt>
      <trkpt lat="41.700569" lon="2.288608">
        <ele>301.96</ele>
        <time>2012-05-11T10:06:26Z</time>
      </trkpt>
      <trkpt lat="41.700516" lon="2.288857">
        <ele>306.27</ele>
        <time>2012-05-11T10:06:36Z</time>
      </trkpt>
      <trkpt lat="41.700489" lon="2.288872">
        <ele>306.67</ele>
        <time>2012-05-11T10:06:46Z</time>
      </trkpt>
      <trkpt lat="41.700470" lon="2.288898">
        <ele>307.20</ele>
        <time>2012-05-11T10:06:56Z</time>
      </trkpt>
      <trkpt lat="41.700466" lon="2.288928">
        <ele>307.42</ele>
        <time>2012-05-11T10:07:06Z</time>
      </trkpt>
      <trkpt lat="41.700451" lon="2.289288">
        <ele>311.50</ele>
        <time>2012-05-11T10:07:16Z</time>
      </trkpt>
      <trkpt lat="41.700550" lon="2.289665">
        <ele>314.29</ele>
        <time>2012-05-11T10:07:26Z</time>
      </trkpt>
      <trkpt lat="41.700626" lon="2.290012">
        <ele>316.96</ele>
        <time>2012-05-11T10:07:36Z</time>
      </trkpt>
      <trkpt lat="41.700764" lon="2.290337">
        <ele>318.02</ele>
        <time>2012-05-11T10:07:46Z</time>
      </trkpt>
      <trkpt lat="41.700901" lon="2.290662">
        <ele>319.41</ele>
        <time>2012-05-11T10:07:56Z</time>
      </trkpt>
      <trkpt lat="41.701038" lon="2.290990">
        <ele>320.71</ele>
        <time>2012-05-11T10:08:06Z</time>
      </trkpt>
      <trkpt lat="41.701164" lon="2.291317">
        <ele>322.25</ele>
        <time>2012-05-11T10:08:16Z</time>
      </trkpt>
      <trkpt lat="41.701294" lon="2.291628">
        <ele>326.03</ele>
        <time>2012-05-11T10:08:26Z</time>
      </trkpt>
      <trkpt lat="41.701317" lon="2.291715">
        <ele>327.52</ele>
        <time>2012-05-11T10:08:36Z</time>
      </trkpt>
      <trkpt lat="41.701485" lon="2.292020">
        <ele>331.69</ele>
        <time>2012-05-11T10:08:46Z</time>
      </trkpt>
      <trkpt lat="41.701649" lon="2.292312">
        <ele>335.48</ele>
        <time>2012-05-11T10:08:56Z</time>
      </trkpt>
      <trkpt lat="41.701706" lon="2.292487">
        <ele>338.08</ele>
        <time>2012-05-11T10:09:06Z</time>
      </trkpt>
      <trkpt lat="41.701778" lon="2.292737">
        <ele>341.21</ele>
        <time>2012-05-11T10:09:16Z</time>
      </trkpt>
      <trkpt lat="41.701904" lon="2.292902">
        <ele>341.41</ele>
        <time>2012-05-11T10:09:26Z</time>
      </trkpt>
      <trkpt lat="41.701984" lon="2.292945">
        <ele>340.84</ele>
        <time>2012-05-11T10:09:36Z</time>
      </trkpt>
      <trkpt lat="41.702038" lon="2.292910">
        <ele>338.81</ele>
        <time>2012-05-11T10:09:46Z</time>
      </trkpt>
      <trkpt lat="41.702042" lon="2.292857">
        <ele>338.11</ele>
        <time>2012-05-11T10:09:56Z</time>
      </trkpt>
      <trkpt lat="41.701923" lon="2.292517">
        <ele>335.51</ele>
        <time>2012-05-11T10:10:06Z</time>
      </trkpt>
      <trkpt lat="41.701900" lon="2.292278">
        <ele>332.23</ele>
        <time>2012-05-11T10:10:16Z</time>
      </trkpt>
      <trkpt lat="41.701962" lon="2.291917">
        <ele>328.98</ele>
        <time>2012-05-11T10:10:26Z</time>
      </trkpt>
      <trkpt lat="41.702011" lon="2.291520">
        <ele>329.55</ele>
        <time>2012-05-11T10:10:36Z</time>
      </trkpt>
      <trkpt lat="41.702007" lon="2.291143">
        <ele>330.05</ele>
        <time>2012-05-11T10:10:46Z</time>
      </trkpt>
      <trkpt lat="41.702042" lon="2.290922">
        <ele>331.06</ele>
        <time>2012-05-11T10:10:56Z</time>
      </trkpt>
      <trkpt lat="41.702057" lon="2.290895">
        <ele>331.38</ele>
        <time>2012-05-11T10:11:06Z</time>
      </trkpt>
      <trkpt lat="41.702114" lon="2.290532">
        <ele>334.16</ele>
        <time>2012-05-11T10:11:16Z</time>
      </trkpt>
      <trkpt lat="41.702106" lon="2.290458">
        <ele>333.98</ele>
        <time>2012-05-11T10:11:26Z</time>
      </trkpt>
      <trkpt lat="41.702099" lon="2.290093">
        <ele>332.21</ele>
        <time>2012-05-11T10:11:36Z</time>
      </trkpt>
      <trkpt lat="41.702080" lon="2.289760">
        <ele>329.71</ele>
        <time>2012-05-11T10:11:46Z</time>
      </trkpt>
      <trkpt lat="41.702141" lon="2.289400">
        <ele>329.29</ele>
        <time>2012-05-11T10:11:56Z</time>
      </trkpt>
      <trkpt lat="41.702251" lon="2.289047">
        <ele>328.72</ele>
        <time>2012-05-11T10:12:06Z</time>
      </trkpt>
      <trkpt lat="41.702293" lon="2.288938">
        <ele>328.70</ele>
        <time>2012-05-11T10:12:16Z</time>
      </trkpt>
      <trkpt lat="41.702328" lon="2.288907">
        <ele>329.48</ele>
        <time>2012-05-11T10:12:26Z</time>
      </trkpt>
      <trkpt lat="41.702358" lon="2.288910">
        <ele>330.55</ele>
        <time>2012-05-11T10:12:36Z</time>
      </trkpt>
      <trkpt lat="41.702385" lon="2.288952">
        <ele>332.17</ele>
        <time>2012-05-11T10:12:46Z</time>
      </trkpt>
      <trkpt lat="41.702389" lon="2.288973">
        <ele>332.68</ele>
        <time>2012-05-11T10:12:56Z</time>
      </trkpt>
      <trkpt lat="41.702282" lon="2.289320">
        <ele>333.99</ele>
        <time>2012-05-11T10:13:06Z</time>
      </trkpt>
      <trkpt lat="41.702282" lon="2.289433">
        <ele>335.66</ele>
        <time>2012-05-11T10:13:16Z</time>
      </trkpt>
      <trkpt lat="41.702339" lon="2.289787">
        <ele>341.42</ele>
        <time>2012-05-11T10:13:26Z</time>
      </trkpt>
      <trkpt lat="41.702435" lon="2.290083">
        <ele>347.31</ele>
        <time>2012-05-11T10:13:36Z</time>
      </trkpt>
      <trkpt lat="41.702488" lon="2.290447">
        <ele>351.47</ele>
        <time>2012-05-11T10:13:46Z</time>
      </trkpt>
      <trkpt lat="41.702568" lon="2.290802">
        <ele>354.45</ele>
        <time>2012-05-11T10:13:56Z</time>
      </trkpt>
      <trkpt lat="41.702576" lon="2.290892">
        <ele>354.78</ele>
        <time>2012-05-11T10:14:06Z</time>
      </trkpt>
      <trkpt lat="41.702591" lon="2.290937">
        <ele>355.38</ele>
        <time>2012-05-11T10:14:16Z</time>
      </trkpt>
      <trkpt lat="41.702602" lon="2.291148">
        <ele>355.43</ele>
        <time>2012-05-11T10:14:26Z</time>
      </trkpt>
      <trkpt lat="41.702591" lon="2.291207">
        <ele>354.83</ele>
        <time>2012-05-11T10:14:36Z</time>
      </trkpt>
      <trkpt lat="41.702675" lon="2.291555">
        <ele>357.16</ele>
        <time>2012-05-11T10:14:46Z</time>
      </trkpt>
      <trkpt lat="41.702747" lon="2.291913">
        <ele>358.46</ele>
        <time>2012-05-11T10:14:56Z</time>
      </trkpt>
      <trkpt lat="41.702923" lon="2.292195">
        <ele>364.41</ele>
        <time>2012-05-11T10:15:06Z</time>
      </trkpt>
      <trkpt lat="41.702934" lon="2.292225">
        <ele>364.82</ele>
        <time>2012-05-11T10:15:16Z</time>
      </trkpt>
      <trkpt lat="41.702942" lon="2.292240">
        <ele>365.11</ele>
        <time>2012-05-11T10:15:26Z</time>
      </trkpt>
      <trkpt lat="41.703037" lon="2.292358">
        <ele>369.18</ele>
        <time>2012-05-11T10:15:36Z</time>
      </trkpt>
      <trkpt lat="41.703304" lon="2.292518">
        <ele>381.09</ele>
        <time>2012-05-11T10:15:46Z</time>
      </trkpt>
      <trkpt lat="41.703426" lon="2.292573">
        <ele>386.30</ele>
        <time>2012-05-11T10:15:56Z</time>
      </trkpt>
      <trkpt lat="41.703445" lon="2.292577">
        <ele>387.08</ele>
        <time>2012-05-11T10:16:06Z</time>
      </trkpt>
      <trkpt lat="41.703472" lon="2.292582">
        <ele>388.34</ele>
        <time>2012-05-11T10:16:16Z</time>
      </trkpt>
      <trkpt lat="41.703487" lon="2.292580">
        <ele>389.12</ele>
        <time>2012-05-11T10:16:26Z</time>
      </trkpt>
      <trkpt lat="41.703499" lon="2.292577">
        <ele>389.78</ele>
        <time>2012-05-11T10:16:36Z</time>
      </trkpt>
      <trkpt lat="41.703533" lon="2.292558">
        <ele>391.84</ele>
        <time>2012-05-11T10:16:46Z</time>
      </trkpt>
      <trkpt lat="41.703579" lon="2.292553">
        <ele>394.26</ele>
        <time>2012-05-11T10:16:56Z</time>
      </trkpt>
      <trkpt lat="41.703667" lon="2.292592">
        <ele>397.71</ele>
        <time>2012-05-11T10:17:06Z</time>
      </trkpt>
      <trkpt lat="41.703674" lon="2.292637">
        <ele>397.01</ele>
        <time>2012-05-11T10:17:16Z</time>
      </trkpt>
      <trkpt lat="41.703732" lon="2.292687">
        <ele>398.80</ele>
        <time>2012-05-11T10:17:26Z</time>
      </trkpt>
      <trkpt lat="41.703770" lon="2.292708">
        <ele>399.78</ele>
        <time>2012-05-11T10:17:36Z</time>
      </trkpt>
      <trkpt lat="41.703953" lon="2.292860">
        <ele>402.27</ele>
        <time>2012-05-11T10:17:46Z</time>
      </trkpt>
      <trkpt lat="41.703957" lon="2.292873">
        <ele>402.14</ele>
        <time>2012-05-11T10:17:56Z</time>
      </trkpt>
      <trkpt lat="41.704098" lon="2.293053">
        <ele>401.66</ele>
        <time>2012-05-11T10:18:06Z</time>
      </trkpt>
      <trkpt lat="41.704231" lon="2.293385">
        <ele>396.08</ele>
        <time>2012-05-11T10:18:16Z</time>
      </trkpt>
      <trkpt lat="41.704342" lon="2.293592">
        <ele>393.39</ele>
        <time>2012-05-11T10:18:26Z</time>
      </trkpt>
      <trkpt lat="41.704350" lon="2.293612">
        <ele>392.96</ele>
        <time>2012-05-11T10:18:36Z</time>
      </trkpt>
      <trkpt lat="41.704510" lon="2.293903">
        <ele>392.26</ele>
        <time>2012-05-11T10:18:46Z</time>
      </trkpt>
      <trkpt lat="41.704563" lon="2.294050">
        <ele>391.91</ele>
        <time>2012-05-11T10:18:56Z</time>
      </trkpt>
      <trkpt lat="41.704792" lon="2.294313">
        <ele>400.71</ele>
        <time>2012-05-11T10:19:06Z</time>
      </trkpt>
      <trkpt lat="41.704842" lon="2.294415">
        <ele>401.75</ele>
        <time>2012-05-11T10:19:16Z</time>
      </trkpt>
      <trkpt lat="41.704914" lon="2.294778">
        <ele>402.62</ele>
        <time>2012-05-11T10:19:26Z</time>
      </trkpt>
      <trkpt lat="41.704933" lon="2.294818">
        <ele>403.44</ele>
        <time>2012-05-11T10:19:36Z</time>
      </trkpt>
      <trkpt lat="41.704956" lon="2.294842">
        <ele>404.52</ele>
        <time>2012-05-11T10:19:46Z</time>
      </trkpt>
      <trkpt lat="41.704994" lon="2.294820">
        <ele>406.31</ele>
        <time>2012-05-11T10:19:56Z</time>
      </trkpt>
      <trkpt lat="41.705006" lon="2.294807">
        <ele>406.97</ele>
        <time>2012-05-11T10:20:06Z</time>
      </trkpt>
      <trkpt lat="41.704975" lon="2.294682">
        <ele>405.67</ele>
        <time>2012-05-11T10:20:16Z</time>
      </trkpt>
      <trkpt lat="41.705063" lon="2.294428">
        <ele>413.29</ele>
        <time>2012-05-11T10:20:26Z</time>
      </trkpt>
      <trkpt lat="41.704987" lon="2.294353">
        <ele>410.64</ele>
        <time>2012-05-11T10:20:36Z</time>
      </trkpt>
      <trkpt lat="41.704956" lon="2.294290">
        <ele>410.03</ele>
        <time>2012-05-11T10:20:46Z</time>
      </trkpt>
      <trkpt lat="41.704769" lon="2.293998">
        <ele>404.11</ele>
        <time>2012-05-11T10:20:56Z</time>
      </trkpt>
      <trkpt lat="41.704662" lon="2.293885">
        <ele>399.24</ele>
        <time>2012-05-11T10:21:06Z</time>
      </trkpt>
      <trkpt lat="41.704632" lon="2.293878">
        <ele>397.57</ele>
        <time>2012-05-11T10:21:16Z</time>
      </trkpt>
      <trkpt lat="41.704617" lon="2.293685">
        <ele>400.15</ele>
        <time>2012-05-11T10:21:26Z</time>
      </trkpt>
      <trkpt lat="41.704601" lon="2.293325">
        <ele>410.38</ele>
        <time>2012-05-11T10:21:36Z</time>
      </trkpt>
      <trkpt lat="41.704578" lon="2.292963">
        <ele>420.42</ele>
        <time>2012-05-11T10:21:46Z</time>
      </trkpt>
      <trkpt lat="41.704548" lon="2.292882">
        <ele>421.84</ele>
        <time>2012-05-11T10:21:56Z</time>
      </trkpt>
      <trkpt lat="41.704388" lon="2.292563">
        <ele>425.21</ele>
        <time>2012-05-11T10:22:06Z</time>
      </trkpt>
      <trkpt lat="41.704227" lon="2.292257">
        <ele>427.79</ele>
        <time>2012-05-11T10:22:16Z</time>
      </trkpt>
      <trkpt lat="41.704071" lon="2.291958">
        <ele>425.81</ele>
        <time>2012-05-11T10:22:26Z</time>
      </trkpt>
      <trkpt lat="41.703922" lon="2.291722">
        <ele>420.13</ele>
        <time>2012-05-11T10:22:36Z</time>
      </trkpt>
      <trkpt lat="41.703896" lon="2.291590">
        <ele>419.11</ele>
        <time>2012-05-11T10:22:46Z</time>
      </trkpt>
      <trkpt lat="41.703861" lon="2.291540">
        <ele>418.09</ele>
        <time>2012-05-11T10:22:56Z</time>
      </trkpt>
      <trkpt lat="41.703850" lon="2.291512">
        <ele>417.67</ele>
        <time>2012-05-11T10:23:06Z</time>
      </trkpt>
      <trkpt lat="41.703842" lon="2.291487">
        <ele>417.47</ele>
        <time>2012-05-11T10:23:16Z</time>
      </trkpt>
      <trkpt lat="41.703857" lon="2.291402">
        <ele>417.83</ele>
        <time>2012-05-11T10:23:26Z</time>
      </trkpt>
      <trkpt lat="41.703926" lon="2.291283">
        <ele>419.59</ele>
        <time>2012-05-11T10:23:36Z</time>
      </trkpt>
      <trkpt lat="41.703957" lon="2.291248">
        <ele>420.24</ele>
        <time>2012-05-11T10:23:46Z</time>
      </trkpt>
      <trkpt lat="41.704166" lon="2.291255">
        <ele>425.51</ele>
        <time>2012-05-11T10:23:56Z</time>
      </trkpt>
      <trkpt lat="41.704319" lon="2.291537">
        <ele>431.61</ele>
        <time>2012-05-11T10:24:06Z</time>
      </trkpt>
      <trkpt lat="41.704319" lon="2.291618">
        <ele>432.25</ele>
        <time>2012-05-11T10:24:16Z</time>
      </trkpt>
      <trkpt lat="41.704353" lon="2.291680">
        <ele>433.81</ele>
        <time>2012-05-11T10:24:26Z</time>
      </trkpt>
      <trkpt lat="41.704437" lon="2.291845">
        <ele>438.11</ele>
        <time>2012-05-11T10:24:36Z</time>
      </trkpt>
      <trkpt lat="41.704567" lon="2.292047">
        <ele>444.91</ele>
        <time>2012-05-11T10:24:46Z</time>
      </trkpt>
      <trkpt lat="41.704643" lon="2.292185">
        <ele>444.36</ele>
        <time>2012-05-11T10:24:56Z</time>
      </trkpt>
      <trkpt lat="41.704784" lon="2.292503">
        <ele>440.72</ele>
        <time>2012-05-11T10:25:06Z</time>
      </trkpt>
      <trkpt lat="41.704845" lon="2.292598">
        <ele>441.14</ele>
        <time>2012-05-11T10:25:16Z</time>
      </trkpt>
      <trkpt lat="41.704872" lon="2.292728">
        <ele>440.09</ele>
        <time>2012-05-11T10:25:26Z</time>
      </trkpt>
      <trkpt lat="41.704929" lon="2.292828">
        <ele>441.19</ele>
        <time>2012-05-11T10:25:36Z</time>
      </trkpt>
      <trkpt lat="41.705021" lon="2.292943">
        <ele>443.94</ele>
        <time>2012-05-11T10:25:46Z</time>
      </trkpt>
      <trkpt lat="41.705200" lon="2.293228">
        <ele>447.00</ele>
        <time>2012-05-11T10:25:56Z</time>
      </trkpt>
      <trkpt lat="41.705200" lon="2.293250">
        <ele>446.42</ele>
        <time>2012-05-11T10:26:06Z</time>
      </trkpt>
      <trkpt lat="41.705181" lon="2.293282">
        <ele>444.63</ele>
        <time>2012-05-11T10:26:16Z</time>
      </trkpt>
      <trkpt lat="41.705414" lon="2.293507">
        <ele>453.51</ele>
        <time>2012-05-11T10:26:26Z</time>
      </trkpt>
      <trkpt lat="41.705616" lon="2.293758">
        <ele>460.88</ele>
        <time>2012-05-11T10:26:36Z</time>
      </trkpt>
      <trkpt lat="41.705753" lon="2.294013">
        <ele>462.74</ele>
        <time>2012-05-11T10:26:46Z</time>
      </trkpt>
      <trkpt lat="41.705753" lon="2.294048">
        <ele>461.87</ele>
        <time>2012-05-11T10:26:56Z</time>
      </trkpt>
      <trkpt lat="41.705807" lon="2.294117">
        <ele>463.46</ele>
        <time>2012-05-11T10:27:06Z</time>
      </trkpt>
      <trkpt lat="41.705830" lon="2.294187">
        <ele>463.02</ele>
        <time>2012-05-11T10:27:16Z</time>
      </trkpt>
      <trkpt lat="41.705921" lon="2.294290">
        <ele>466.02</ele>
        <time>2012-05-11T10:27:26Z</time>
      </trkpt>
      <trkpt lat="41.705929" lon="2.294435">
        <ele>463.03</ele>
        <time>2012-05-11T10:27:36Z</time>
      </trkpt>
      <trkpt lat="41.705948" lon="2.294493">
        <ele>462.72</ele>
        <time>2012-05-11T10:27:46Z</time>
      </trkpt>
      <trkpt lat="41.705936" lon="2.294520">
        <ele>461.38</ele>
        <time>2012-05-11T10:27:56Z</time>
      </trkpt>
      <trkpt lat="41.705715" lon="2.294733">
        <ele>445.31</ele>
        <time>2012-05-11T10:28:06Z</time>
      </trkpt>
      <trkpt lat="41.705765" lon="2.294795">
        <ele>448.11</ele>
        <time>2012-05-11T10:28:16Z</time>
      </trkpt>
      <trkpt lat="41.705868" lon="2.295108">
        <ele>452.95</ele>
        <time>2012-05-11T10:28:26Z</time>
      </trkpt>
      <trkpt lat="41.705860" lon="2.295203">
        <ele>451.98</ele>
        <time>2012-05-11T10:28:36Z</time>
      </trkpt>
      <trkpt lat="41.705841" lon="2.295310">
        <ele>450.18</ele>
        <time>2012-05-11T10:28:46Z</time>
      </trkpt>
      <trkpt lat="41.706024" lon="2.295588">
        <ele>460.95</ele>
        <time>2012-05-11T10:28:56Z</time>
      </trkpt>
      <trkpt lat="41.706226" lon="2.295833">
        <ele>472.55</ele>
        <time>2012-05-11T10:29:06Z</time>
      </trkpt>
      <trkpt lat="41.706356" lon="2.295945">
        <ele>478.35</ele>
        <time>2012-05-11T10:29:16Z</time>
      </trkpt>
      <trkpt lat="41.706390" lon="2.295952">
        <ele>480.00</ele>
        <time>2012-05-11T10:29:26Z</time>
      </trkpt>
      <trkpt lat="41.706676" lon="2.296033">
        <ele>492.72</ele>
        <time>2012-05-11T10:29:36Z</time>
      </trkpt>
      <trkpt lat="41.706970" lon="2.296140">
        <ele>504.88</ele>
        <time>2012-05-11T10:29:46Z</time>
      </trkpt>
      <trkpt lat="41.707237" lon="2.296268">
        <ele>511.81</ele>
        <time>2012-05-11T10:29:56Z</time>
      </trkpt>
      <trkpt lat="41.707504" lon="2.296350">
        <ele>516.81</ele>
        <time>2012-05-11T10:30:06Z</time>
      </trkpt>
      <trkpt lat="41.707535" lon="2.296373">
        <ele>517.01</ele>
        <time>2012-05-11T10:30:16Z</time>
      </trkpt>
      <trkpt lat="41.707649" lon="2.296518">
        <ele>515.86</ele>
        <time>2012-05-11T10:30:26Z</time>
      </trkpt>
      <trkpt lat="41.707645" lon="2.296722">
        <ele>509.37</ele>
        <time>2012-05-11T10:30:36Z</time>
      </trkpt>
      <trkpt lat="41.707680" lon="2.296870">
        <ele>505.82</ele>
        <time>2012-05-11T10:30:46Z</time>
      </trkpt>
      <trkpt lat="41.707668" lon="2.296943">
        <ele>503.17</ele>
        <time>2012-05-11T10:30:56Z</time>
      </trkpt>
      <trkpt lat="41.707657" lon="2.296957">
        <ele>502.35</ele>
        <time>2012-05-11T10:31:06Z</time>
      </trkpt>
      <trkpt lat="41.707760" lon="2.297185">
        <ele>500.40</ele>
        <time>2012-05-11T10:31:16Z</time>
      </trkpt>
      <trkpt lat="41.707859" lon="2.297312">
        <ele>502.04</ele>
        <time>2012-05-11T10:31:26Z</time>
      </trkpt>
      <trkpt lat="41.707882" lon="2.297490">
        <ele>500.16</ele>
        <time>2012-05-11T10:31:36Z</time>
      </trkpt>
      <trkpt lat="41.707912" lon="2.297532">
        <ele>500.81</ele>
        <time>2012-05-11T10:31:46Z</time>
      </trkpt>
      <trkpt lat="41.707973" lon="2.297550">
        <ele>503.31</ele>
        <time>2012-05-11T10:31:56Z</time>
      </trkpt>
      <trkpt lat="41.708050" lon="2.297518">
        <ele>507.44</ele>
        <time>2012-05-11T10:32:06Z</time>
      </trkpt>
      <trkpt lat="41.708157" lon="2.297555">
        <ele>511.76</ele>
        <time>2012-05-11T10:32:16Z</time>
      </trkpt>
      <trkpt lat="41.708027" lon="2.297423">
        <ele>507.89</ele>
        <time>2012-05-11T10:32:26Z</time>
      </trkpt>
      <trkpt lat="41.707989" lon="2.297160">
        <ele>510.40</ele>
        <time>2012-05-11T10:32:36Z</time>
      </trkpt>
      <trkpt lat="41.708012" lon="2.297117">
        <ele>512.01</ele>
        <time>2012-05-11T10:32:46Z</time>
      </trkpt>
      <trkpt lat="41.708023" lon="2.297068">
        <ele>513.56</ele>
        <time>2012-05-11T10:32:56Z</time>
      </trkpt>
      <trkpt lat="41.708069" lon="2.296805">
        <ele>522.49</ele>
        <time>2012-05-11T10:33:06Z</time>
      </trkpt>
      <trkpt lat="41.708057" lon="2.296435">
        <ele>531.33</ele>
        <time>2012-05-11T10:33:16Z</time>
      </trkpt>
      <trkpt lat="41.707905" lon="2.296120">
        <ele>534.97</ele>
        <time>2012-05-11T10:33:26Z</time>
      </trkpt>
      <trkpt lat="41.707771" lon="2.295805">
        <ele>538.51</ele>
        <time>2012-05-11T10:33:36Z</time>
      </trkpt>
      <trkpt lat="41.707706" lon="2.295813">
        <ele>536.11</ele>
        <time>2012-05-11T10:33:46Z</time>
      </trkpt>
      <trkpt lat="41.707695" lon="2.295830">
        <ele>535.45</ele>
        <time>2012-05-11T10:33:56Z</time>
      </trkpt>
      <trkpt lat="41.707684" lon="2.295840">
        <ele>534.83</ele>
        <time>2012-05-11T10:34:06Z</time>
      </trkpt>
      <trkpt lat="41.707455" lon="2.296055">
        <ele>522.82</ele>
        <time>2012-05-11T10:34:16Z</time>
      </trkpt>
      <trkpt lat="41.707436" lon="2.296058">
        <ele>522.23</ele>
        <time>2012-05-11T10:34:26Z</time>
      </trkpt>
      <trkpt lat="41.707436" lon="2.296017">
        <ele>523.13</ele>
        <time>2012-05-11T10:34:36Z</time>
      </trkpt>
      <trkpt lat="41.707447" lon="2.296085">
        <ele>522.07</ele>
        <time>2012-05-11T10:34:46Z</time>
      </trkpt>
      <trkpt lat="41.707436" lon="2.296135">
        <ele>520.64</ele>
        <time>2012-05-11T10:34:56Z</time>
      </trkpt>
      <trkpt lat="41.707397" lon="2.295708">
        <ele>528.40</ele>
        <time>2012-05-11T10:35:06Z</time>
      </trkpt>
      <trkpt lat="41.707298" lon="2.295507">
        <ele>528.91</ele>
        <time>2012-05-11T10:35:16Z</time>
      </trkpt>
      <trkpt lat="41.707199" lon="2.295368">
        <ele>527.33</ele>
        <time>2012-05-11T10:35:26Z</time>
      </trkpt>
      <trkpt lat="41.707115" lon="2.295012">
        <ele>525.61</ele>
        <time>2012-05-11T10:35:36Z</time>
      </trkpt>
      <trkpt lat="41.707123" lon="2.294885">
        <ele>526.39</ele>
        <time>2012-05-11T10:35:46Z</time>
      </trkpt>
      <trkpt lat="41.707260" lon="2.294587">
        <ele>532.14</ele>
        <time>2012-05-11T10:35:56Z</time>
      </trkpt>
      <trkpt lat="41.707375" lon="2.294467">
        <ele>537.52</ele>
        <time>2012-05-11T10:36:06Z</time>
      </trkpt>
      <trkpt lat="41.707458" lon="2.294393">
        <ele>541.13</ele>
        <time>2012-05-11T10:36:16Z</time>
      </trkpt>
      <trkpt lat="41.707535" lon="2.294363">
        <ele>543.93</ele>
        <time>2012-05-11T10:36:26Z</time>
      </trkpt>
      <trkpt lat="41.707550" lon="2.294365">
        <ele>544.31</ele>
        <time>2012-05-11T10:36:36Z</time>
      </trkpt>
      <trkpt lat="41.707577" lon="2.294360">
        <ele>545.28</ele>
        <time>2012-05-11T10:36:46Z</time>
      </trkpt>
      <trkpt lat="41.707687" lon="2.294385">
        <ele>548.55</ele>
        <time>2012-05-11T10:36:56Z</time>
      </trkpt>
      <trkpt lat="41.707733" lon="2.294477">
        <ele>549.41</ele>
        <time>2012-05-11T10:37:06Z</time>
      </trkpt>
      <trkpt lat="41.707775" lon="2.294785">
        <ele>549.52</ele>
        <time>2012-05-11T10:37:16Z</time>
      </trkpt>
      <trkpt lat="41.707958" lon="2.294848">
        <ele>553.71</ele>
        <time>2012-05-11T10:37:26Z</time>
      </trkpt>
      <trkpt lat="41.707958" lon="2.294860">
        <ele>553.76</ele>
        <time>2012-05-11T10:37:36Z</time>
      </trkpt>
      <trkpt lat="41.707989" lon="2.294907">
        <ele>553.29</ele>
        <time>2012-05-11T10:37:46Z</time>
      </trkpt>
      <trkpt lat="41.707989" lon="2.294935">
        <ele>553.28</ele>
        <time>2012-05-11T10:37:56Z</time>
      </trkpt>
      <trkpt lat="41.707981" lon="2.294993">
        <ele>553.32</ele>
        <time>2012-05-11T10:38:06Z</time>
      </trkpt>
      <trkpt lat="41.707985" lon="2.295023">
        <ele>553.27</ele>
        <time>2012-05-11T10:38:16Z</time>
      </trkpt>
      <trkpt lat="41.708111" lon="2.295307">
        <ele>553.07</ele>
        <time>2012-05-11T10:38:26Z</time>
      </trkpt>
      <trkpt lat="41.708168" lon="2.295425">
        <ele>553.52</ele>
        <time>2012-05-11T10:38:36Z</time>
      </trkpt>
      <trkpt lat="41.708179" lon="2.295488">
        <ele>552.45</ele>
        <time>2012-05-11T10:38:46Z</time>
      </trkpt>
      <trkpt lat="41.708328" lon="2.295597">
        <ele>551.80</ele>
        <time>2012-05-11T10:38:56Z</time>
      </trkpt>
      <trkpt lat="41.708313" lon="2.295938">
        <ele>547.41</ele>
        <time>2012-05-11T10:39:06Z</time>
      </trkpt>
      <trkpt lat="41.708317" lon="2.295965">
        <ele>547.11</ele>
        <time>2012-05-11T10:39:16Z</time>
      </trkpt>
      <trkpt lat="41.708340" lon="2.296025">
        <ele>546.83</ele>
        <time>2012-05-11T10:39:26Z</time>
      </trkpt>
      <trkpt lat="41.708359" lon="2.296257">
        <ele>544.66</ele>
        <time>2012-05-11T10:39:36Z</time>
      </trkpt>
      <trkpt lat="41.708431" lon="2.296302">
        <ele>545.96</ele>
        <time>2012-05-11T10:39:46Z</time>
      </trkpt>
      <trkpt lat="41.708477" lon="2.296573">
        <ele>543.07</ele>
        <time>2012-05-11T10:39:56Z</time>
      </trkpt>
      <trkpt lat="41.708599" lon="2.296720">
        <ele>545.51</ele>
        <time>2012-05-11T10:40:06Z</time>
      </trkpt>
      <trkpt lat="41.708691" lon="2.296768">
        <ele>548.65</ele>
        <time>2012-05-11T10:40:16Z</time>
      </trkpt>
      <trkpt lat="41.708721" lon="2.296780">
        <ele>549.77</ele>
        <time>2012-05-11T10:40:26Z</time>
      </trkpt>
      <trkpt lat="41.708912" lon="2.296790">
        <ele>555.14</ele>
        <time>2012-05-11T10:40:36Z</time>
      </trkpt>
      <trkpt lat="41.708931" lon="2.296795">
        <ele>555.65</ele>
        <time>2012-05-11T10:40:46Z</time>
      </trkpt>
      <trkpt lat="41.709061" lon="2.296803">
        <ele>559.01</ele>
        <time>2012-05-11T10:40:56Z</time>
      </trkpt>
      <trkpt lat="41.709076" lon="2.296803">
        <ele>559.41</ele>
        <time>2012-05-11T10:41:06Z</time>
      </trkpt>
      <trkpt lat="41.709106" lon="2.296800">
        <ele>560.24</ele>
        <time>2012-05-11T10:41:16Z</time>
      </trkpt>
      <trkpt lat="41.709137" lon="2.296800">
        <ele>561.12</ele>
        <time>2012-05-11T10:41:26Z</time>
      </trkpt>
      <trkpt lat="41.709198" lon="2.296792">
        <ele>562.73</ele>
        <time>2012-05-11T10:41:36Z</time>
      </trkpt>
      <trkpt lat="41.709213" lon="2.296792">
        <ele>563.15</ele>
        <time>2012-05-11T10:41:46Z</time>
      </trkpt>
      <trkpt lat="41.709240" lon="2.296792">
        <ele>563.87</ele>
        <time>2012-05-11T10:41:56Z</time>
      </trkpt>
      <trkpt lat="41.709274" lon="2.296790">
        <ele>564.80</ele>
        <time>2012-05-11T10:42:06Z</time>
      </trkpt>
      <trkpt lat="41.709309" lon="2.296783">
        <ele>565.73</ele>
        <time>2012-05-11T10:42:16Z</time>
      </trkpt>
      <trkpt lat="41.709324" lon="2.296782">
        <ele>566.16</ele>
        <time>2012-05-11T10:42:26Z</time>
      </trkpt>
      <trkpt lat="41.709366" lon="2.296782">
        <ele>567.20</ele>
        <time>2012-05-11T10:42:36Z</time>
      </trkpt>
      <trkpt lat="41.709396" lon="2.296785">
        <ele>568.02</ele>
        <time>2012-05-11T10:42:46Z</time>
      </trkpt>
      <trkpt lat="41.709454" lon="2.296783">
        <ele>569.51</ele>
        <time>2012-05-11T10:42:56Z</time>
      </trkpt>
      <trkpt lat="41.709499" lon="2.296787">
        <ele>570.76</ele>
        <time>2012-05-11T10:43:06Z</time>
      </trkpt>
      <trkpt lat="41.709530" lon="2.296787">
        <ele>571.55</ele>
        <time>2012-05-11T10:43:16Z</time>
      </trkpt>
      <trkpt lat="41.709583" lon="2.296793">
        <ele>572.97</ele>
        <time>2012-05-11T10:43:26Z</time>
      </trkpt>
      <trkpt lat="41.709606" lon="2.296793">
        <ele>572.92</ele>
        <time>2012-05-11T10:43:36Z</time>
      </trkpt>
      <trkpt lat="41.709663" lon="2.296803">
        <ele>573.09</ele>
        <time>2012-05-11T10:43:46Z</time>
      </trkpt>
      <trkpt lat="41.709724" lon="2.296797">
        <ele>572.98</ele>
        <time>2012-05-11T10:43:56Z</time>
      </trkpt>
      <trkpt lat="41.709743" lon="2.296793">
        <ele>572.98</ele>
        <time>2012-05-11T10:44:06Z</time>
      </trkpt>
      <trkpt lat="41.710014" lon="2.296672">
        <ele>571.83</ele>
        <time>2012-05-11T10:44:16Z</time>
      </trkpt>
      <trkpt lat="41.710041" lon="2.296665">
        <ele>571.72</ele>
        <time>2012-05-11T10:44:26Z</time>
      </trkpt>
      <trkpt lat="41.710072" lon="2.296668">
        <ele>571.62</ele>
        <time>2012-05-11T10:44:36Z</time>
      </trkpt>
      <trkpt lat="41.710083" lon="2.296667">
        <ele>571.61</ele>
        <time>2012-05-11T10:44:46Z</time>
      </trkpt>
      <trkpt lat="41.710190" lon="2.296690">
        <ele>571.66</ele>
        <time>2012-05-11T10:44:56Z</time>
      </trkpt>
      <trkpt lat="41.710262" lon="2.296753">
        <ele>572.26</ele>
        <time>2012-05-11T10:45:06Z</time>
      </trkpt>
      <trkpt lat="41.710251" lon="2.296833">
        <ele>573.08</ele>
        <time>2012-05-11T10:45:16Z</time>
      </trkpt>
      <trkpt lat="41.710339" lon="2.297010">
        <ele>575.02</ele>
        <time>2012-05-11T10:45:26Z</time>
      </trkpt>
      <trkpt lat="41.710430" lon="2.297095">
        <ele>575.78</ele>
        <time>2012-05-11T10:45:36Z</time>
      </trkpt>
      <trkpt lat="41.710457" lon="2.297145">
        <ele>574.40</ele>
        <time>2012-05-11T10:45:46Z</time>
      </trkpt>
      <trkpt lat="41.710468" lon="2.297188">
        <ele>573.22</ele>
        <time>2012-05-11T10:45:56Z</time>
      </trkpt>
      <trkpt lat="41.710537" lon="2.297257">
        <ele>571.75</ele>
        <time>2012-05-11T10:46:06Z</time>
      </trkpt>
      <trkpt lat="41.710796" lon="2.297408">
        <ele>570.75</ele>
        <time>2012-05-11T10:46:16Z</time>
      </trkpt>
      <trkpt lat="41.711067" lon="2.297508">
        <ele>572.91</ele>
        <time>2012-05-11T10:46:26Z</time>
      </trkpt>
      <trkpt lat="41.711342" lon="2.297615">
        <ele>575.11</ele>
        <time>2012-05-11T10:46:36Z</time>
      </trkpt>
      <trkpt lat="41.711552" lon="2.297715">
        <ele>575.59</ele>
        <time>2012-05-11T10:46:46Z</time>
      </trkpt>
      <trkpt lat="41.711639" lon="2.297795">
        <ele>576.64</ele>
        <time>2012-05-11T10:46:56Z</time>
      </trkpt>
      <trkpt lat="41.711979" lon="2.297873">
        <ele>580.03</ele>
        <time>2012-05-11T10:47:06Z</time>
      </trkpt>
      <trkpt lat="41.712238" lon="2.297998">
        <ele>584.33</ele>
        <time>2012-05-11T10:47:16Z</time>
      </trkpt>
      <trkpt lat="41.712254" lon="2.298010">
        <ele>584.68</ele>
        <time>2012-05-11T10:47:26Z</time>
      </trkpt>
      <trkpt lat="41.712276" lon="2.298008">
        <ele>584.82</ele>
        <time>2012-05-11T10:47:36Z</time>
      </trkpt>
      <trkpt lat="41.712418" lon="2.298000">
        <ele>586.19</ele>
        <time>2012-05-11T10:47:46Z</time>
      </trkpt>
      <trkpt lat="41.712452" lon="2.297955">
        <ele>585.42</ele>
        <time>2012-05-11T10:47:56Z</time>
      </trkpt>
      <trkpt lat="41.712624" lon="2.297950">
        <ele>586.88</ele>
        <time>2012-05-11T10:48:06Z</time>
      </trkpt>
      <trkpt lat="41.712894" lon="2.297855">
        <ele>585.61</ele>
        <time>2012-05-11T10:48:16Z</time>
      </trkpt>
      <trkpt lat="41.713142" lon="2.297703">
        <ele>585.31</ele>
        <time>2012-05-11T10:48:26Z</time>
      </trkpt>
      <trkpt lat="41.713367" lon="2.297492">
        <ele>583.06</ele>
        <time>2012-05-11T10:48:36Z</time>
      </trkpt>
      <trkpt lat="41.713428" lon="2.297477">
        <ele>583.96</ele>
        <time>2012-05-11T10:48:46Z</time>
      </trkpt>
      <trkpt lat="41.713451" lon="2.297578">
        <ele>587.94</ele>
        <time>2012-05-11T10:48:56Z</time>
      </trkpt>
      <trkpt lat="41.713230" lon="2.297808">
        <ele>591.10</ele>
        <time>2012-05-11T10:49:06Z</time>
      </trkpt>
      <trkpt lat="41.713120" lon="2.297878">
        <ele>591.08</ele>
        <time>2012-05-11T10:49:16Z</time>
      </trkpt>
      <trkpt lat="41.713005" lon="2.297962">
        <ele>591.54</ele>
        <time>2012-05-11T10:49:26Z</time>
      </trkpt>
      <trkpt lat="41.712860" lon="2.298145">
        <ele>595.17</ele>
        <time>2012-05-11T10:49:36Z</time>
      </trkpt>
      <trkpt lat="41.712852" lon="2.298148">
        <ele>595.12</ele>
        <time>2012-05-11T10:49:46Z</time>
      </trkpt>
      <trkpt lat="41.712742" lon="2.298275">
        <ele>597.39</ele>
        <time>2012-05-11T10:49:56Z</time>
      </trkpt>
      <trkpt lat="41.712555" lon="2.298478">
        <ele>598.82</ele>
        <time>2012-05-11T10:50:06Z</time>
      </trkpt>
      <trkpt lat="41.712513" lon="2.298508">
        <ele>598.51</ele>
        <time>2012-05-11T10:50:16Z</time>
      </trkpt>
      <trkpt lat="41.712429" lon="2.298827">
        <ele>601.51</ele>
        <time>2012-05-11T10:50:26Z</time>
      </trkpt>
      <trkpt lat="41.712475" lon="2.298945">
        <ele>603.46</ele>
        <time>2012-05-11T10:50:36Z</time>
      </trkpt>
      <trkpt lat="41.712662" lon="2.299210">
        <ele>611.68</ele>
        <time>2012-05-11T10:50:46Z</time>
      </trkpt>
      <trkpt lat="41.712765" lon="2.299373">
        <ele>616.83</ele>
        <time>2012-05-11T10:50:56Z</time>
      </trkpt>
      <trkpt lat="41.712765" lon="2.299387">
        <ele>616.97</ele>
        <time>2012-05-11T10:51:06Z</time>
      </trkpt>
      <trkpt lat="41.712833" lon="2.299457">
        <ele>620.32</ele>
        <time>2012-05-11T10:51:16Z</time>
      </trkpt>
      <trkpt lat="41.712902" lon="2.299565">
        <ele>624.22</ele>
        <time>2012-05-11T10:51:26Z</time>
      </trkpt>
      <trkpt lat="41.712952" lon="2.299677">
        <ele>623.68</ele>
        <time>2012-05-11T10:51:36Z</time>
      </trkpt>
      <trkpt lat="41.713062" lon="2.299788">
        <ele>624.52</ele>
        <time>2012-05-11T10:51:46Z</time>
      </trkpt>
      <trkpt lat="41.713066" lon="2.299818">
        <ele>623.92</ele>
        <time>2012-05-11T10:51:56Z</time>
      </trkpt>
      <trkpt lat="41.713081" lon="2.299838">
        <ele>624.01</ele>
        <time>2012-05-11T10:52:06Z</time>
      </trkpt>
      <trkpt lat="41.713123" lon="2.299933">
        <ele>623.34</ele>
        <time>2012-05-11T10:52:16Z</time>
      </trkpt>
      <trkpt lat="41.713295" lon="2.300137">
        <ele>625.76</ele>
        <time>2012-05-11T10:52:26Z</time>
      </trkpt>
      <trkpt lat="41.713375" lon="2.300195">
        <ele>627.92</ele>
        <time>2012-05-11T10:52:36Z</time>
      </trkpt>
      <trkpt lat="41.713531" lon="2.300240">
        <ele>633.67</ele>
        <time>2012-05-11T10:52:46Z</time>
      </trkpt>
      <trkpt lat="41.713547" lon="2.300243">
        <ele>634.40</ele>
        <time>2012-05-11T10:52:56Z</time>
      </trkpt>
      <trkpt lat="41.713612" lon="2.300243">
        <ele>637.03</ele>
        <time>2012-05-11T10:53:06Z</time>
      </trkpt>
      <trkpt lat="41.713661" lon="2.300247">
        <ele>639.16</ele>
        <time>2012-05-11T10:53:16Z</time>
      </trkpt>
      <trkpt lat="41.713696" lon="2.300248">
        <ele>640.54</ele>
        <time>2012-05-11T10:53:26Z</time>
      </trkpt>
      <trkpt lat="41.713787" lon="2.300265">
        <ele>643.26</ele>
        <time>2012-05-11T10:53:36Z</time>
      </trkpt>
      <trkpt lat="41.713840" lon="2.300282">
        <ele>643.81</ele>
        <time>2012-05-11T10:53:46Z</time>
      </trkpt>
      <trkpt lat="41.713860" lon="2.300280">
        <ele>644.11</ele>
        <time>2012-05-11T10:53:56Z</time>
      </trkpt>
      <trkpt lat="41.713932" lon="2.300272">
        <ele>645.23</ele>
        <time>2012-05-11T10:54:06Z</time>
      </trkpt>
      <trkpt lat="41.713970" lon="2.300265">
        <ele>645.95</ele>
        <time>2012-05-11T10:54:16Z</time>
      </trkpt>
      <trkpt lat="41.713997" lon="2.300273">
        <ele>646.29</ele>
        <time>2012-05-11T10:54:26Z</time>
      </trkpt>
      <trkpt lat="41.714058" lon="2.300262">
        <ele>647.28</ele>
        <time>2012-05-11T10:54:36Z</time>
      </trkpt>
      <trkpt lat="41.714165" lon="2.300238">
        <ele>649.05</ele>
        <time>2012-05-11T10:54:46Z</time>
      </trkpt>
      <trkpt lat="41.714203" lon="2.300225">
        <ele>649.63</ele>
        <time>2012-05-11T10:54:56Z</time>
      </trkpt>
      <trkpt lat="41.714218" lon="2.300218">
        <ele>649.96</ele>
        <time>2012-05-11T10:55:06Z</time>
      </trkpt>
      <trkpt lat="41.714298" lon="2.300203">
        <ele>651.25</ele>
        <time>2012-05-11T10:55:16Z</time>
      </trkpt>
      <trkpt lat="41.714569" lon="2.300198">
        <ele>655.19</ele>
        <time>2012-05-11T10:55:26Z</time>
      </trkpt>
      <trkpt lat="41.714840" lon="2.300198">
        <ele>656.22</ele>
        <time>2012-05-11T10:55:36Z</time>
      </trkpt>
      <trkpt lat="41.714916" lon="2.300198">
        <ele>656.41</ele>
        <time>2012-05-11T10:55:46Z</time>
      </trkpt>
      <trkpt lat="41.714931" lon="2.300195">
        <ele>656.60</ele>
        <time>2012-05-11T10:55:56Z</time>
      </trkpt>
      <trkpt lat="41.714951" lon="2.300193">
        <ele>656.56</ele>
        <time>2012-05-11T10:56:06Z</time>
      </trkpt>
      <trkpt lat="41.714962" lon="2.300195">
        <ele>656.61</ele>
        <time>2012-05-11T10:56:16Z</time>
      </trkpt>
      <trkpt lat="41.714977" lon="2.300198">
        <ele>656.66</ele>
        <time>2012-05-11T10:56:26Z</time>
      </trkpt>
      <trkpt lat="41.715015" lon="2.300193">
        <ele>656.87</ele>
        <time>2012-05-11T10:56:36Z</time>
      </trkpt>
      <trkpt lat="41.715057" lon="2.300190">
        <ele>656.99</ele>
        <time>2012-05-11T10:56:46Z</time>
      </trkpt>
      <trkpt lat="41.715076" lon="2.300188">
        <ele>657.08</ele>
        <time>2012-05-11T10:56:56Z</time>
      </trkpt>
      <trkpt lat="41.715149" lon="2.300185">
        <ele>657.25</ele>
        <time>2012-05-11T10:57:06Z</time>
      </trkpt>
      <trkpt lat="41.715210" lon="2.300175">
        <ele>657.59</ele>
        <time>2012-05-11T10:57:16Z</time>
      </trkpt>
      <trkpt lat="41.715302" lon="2.300153">
        <ele>657.92</ele>
        <time>2012-05-11T10:57:26Z</time>
      </trkpt>
      <trkpt lat="41.715336" lon="2.300148">
        <ele>658.01</ele>
        <time>2012-05-11T10:57:36Z</time>
      </trkpt>
      <trkpt lat="41.715355" lon="2.300140">
        <ele>658.14</ele>
        <time>2012-05-11T10:57:46Z</time>
      </trkpt>
      <trkpt lat="41.715435" lon="2.300115">
        <ele>658.46</ele>
        <time>2012-05-11T10:57:56Z</time>
      </trkpt>
      <trkpt lat="41.715450" lon="2.300113">
        <ele>658.35</ele>
        <time>2012-05-11T10:58:06Z</time>
      </trkpt>
      <trkpt lat="41.715725" lon="2.299998">
        <ele>656.88</ele>
        <time>2012-05-11T10:58:16Z</time>
      </trkpt>
      <trkpt lat="41.715858" lon="2.299933">
        <ele>655.68</ele>
        <time>2012-05-11T10:58:26Z</time>
      </trkpt>
      <trkpt lat="41.715908" lon="2.299922">
        <ele>655.24</ele>
        <time>2012-05-11T10:58:36Z</time>
      </trkpt>
      <trkpt lat="41.715923" lon="2.299918">
        <ele>655.04</ele>
        <time>2012-05-11T10:58:46Z</time>
      </trkpt>
      <trkpt lat="41.716015" lon="2.299928">
        <ele>654.38</ele>
        <time>2012-05-11T10:58:56Z</time>
      </trkpt>
      <trkpt lat="41.715851" lon="2.300073">
        <ele>656.19</ele>
        <time>2012-05-11T10:59:06Z</time>
      </trkpt>
      <trkpt lat="41.716049" lon="2.299825">
        <ele>653.42</ele>
        <time>2012-05-11T10:59:16Z</time>
      </trkpt>
      <trkpt lat="41.716106" lon="2.299920">
        <ele>653.51</ele>
        <time>2012-05-11T10:59:26Z</time>
      </trkpt>
      <trkpt lat="41.716095" lon="2.299932">
        <ele>653.68</ele>
        <time>2012-05-11T10:59:36Z</time>
      </trkpt>
      <trkpt lat="41.716110" lon="2.299972">
        <ele>653.88</ele>
        <time>2012-05-11T10:59:46Z</time>
      </trkpt>
      <trkpt lat="41.716171" lon="2.300053">
        <ele>654.07</ele>
        <time>2012-05-11T10:59:56Z</time>
      </trkpt>
      <trkpt lat="41.716228" lon="2.300067">
        <ele>653.87</ele>
        <time>2012-05-11T11:00:06Z</time>
      </trkpt>
      <trkpt lat="41.716248" lon="2.300063">
        <ele>653.62</ele>
        <time>2012-05-11T11:00:16Z</time>
      </trkpt>
      <trkpt lat="41.716381" lon="2.300282">
        <ele>657.75</ele>
        <time>2012-05-11T11:00:26Z</time>
      </trkpt>
      <trkpt lat="41.716385" lon="2.300372">
        <ele>658.92</ele>
        <time>2012-05-11T11:00:36Z</time>
      </trkpt>
      <trkpt lat="41.716343" lon="2.300410">
        <ele>658.70</ele>
        <time>2012-05-11T11:00:46Z</time>
      </trkpt>
      <trkpt lat="41.716072" lon="2.300507">
        <ele>657.13</ele>
        <time>2012-05-11T11:00:56Z</time>
      </trkpt>
      <trkpt lat="41.715866" lon="2.300743">
        <ele>654.82</ele>
        <time>2012-05-11T11:01:06Z</time>
      </trkpt>
      <trkpt lat="41.715805" lon="2.300862">
        <ele>653.11</ele>
        <time>2012-05-11T11:01:16Z</time>
      </trkpt>
      <trkpt lat="41.715595" lon="2.301323">
        <ele>643.87</ele>
        <time>2012-05-11T11:01:26Z</time>
      </trkpt>
      <trkpt lat="41.715546" lon="2.301605">
        <ele>643.54</ele>
        <time>2012-05-11T11:01:36Z</time>
      </trkpt>
      <trkpt lat="41.715549" lon="2.301968">
        <ele>645.38</ele>
        <time>2012-05-11T11:01:46Z</time>
      </trkpt>
      <trkpt lat="41.715557" lon="2.302348">
        <ele>646.03</ele>
        <time>2012-05-11T11:01:56Z</time>
      </trkpt>
      <trkpt lat="41.715569" lon="2.302508">
        <ele>646.58</ele>
        <time>2012-05-11T11:02:06Z</time>
      </trkpt>
      <trkpt lat="41.715637" lon="2.302647">
        <ele>650.19</ele>
        <time>2012-05-11T11:02:16Z</time>
      </trkpt>
      <trkpt lat="41.715858" lon="2.302867">
        <ele>661.89</ele>
        <time>2012-05-11T11:02:26Z</time>
      </trkpt>
      <trkpt lat="41.716076" lon="2.303085">
        <ele>669.92</ele>
        <time>2012-05-11T11:02:36Z</time>
      </trkpt>
      <trkpt lat="41.716301" lon="2.303303">
        <ele>675.60</ele>
        <time>2012-05-11T11:02:46Z</time>
      </trkpt>
      <trkpt lat="41.716496" lon="2.303565">
        <ele>677.92</ele>
        <time>2012-05-11T11:02:56Z</time>
      </trkpt>
      <trkpt lat="41.716717" lon="2.303807">
        <ele>682.51</ele>
        <time>2012-05-11T11:03:06Z</time>
      </trkpt>
      <trkpt lat="41.716846" lon="2.304022">
        <ele>682.87</ele>
        <time>2012-05-11T11:03:16Z</time>
      </trkpt>
      <trkpt lat="41.716866" lon="2.304067">
        <ele>682.43</ele>
        <time>2012-05-11T11:03:26Z</time>
      </trkpt>
      <trkpt lat="41.716942" lon="2.304140">
        <ele>683.62</ele>
        <time>2012-05-11T11:03:36Z</time>
      </trkpt>
      <trkpt lat="41.716961" lon="2.304137">
        <ele>684.42</ele>
        <time>2012-05-11T11:03:46Z</time>
      </trkpt>
      <trkpt lat="41.716969" lon="2.304127">
        <ele>685.06</ele>
        <time>2012-05-11T11:03:56Z</time>
      </trkpt>
      <trkpt lat="41.716972" lon="2.304085">
        <ele>686.38</ele>
        <time>2012-05-11T11:04:06Z</time>
      </trkpt>
      <trkpt lat="41.716969" lon="2.304040">
        <ele>687.58</ele>
        <time>2012-05-11T11:04:16Z</time>
      </trkpt>
      <trkpt lat="41.716980" lon="2.303995">
        <ele>689.23</ele>
        <time>2012-05-11T11:04:26Z</time>
      </trkpt>
      <trkpt lat="41.716900" lon="2.303692">
        <ele>693.79</ele>
        <time>2012-05-11T11:04:36Z</time>
      </trkpt>
      <trkpt lat="41.716835" lon="2.303530">
        <ele>694.22</ele>
        <time>2012-05-11T11:04:46Z</time>
      </trkpt>
      <trkpt lat="41.716705" lon="2.303210">
        <ele>695.51</ele>
        <time>2012-05-11T11:04:56Z</time>
      </trkpt>
      <trkpt lat="41.716511" lon="2.302955">
        <ele>693.17</ele>
        <time>2012-05-11T11:05:06Z</time>
      </trkpt>
      <trkpt lat="41.716476" lon="2.302910">
        <ele>692.53</ele>
        <time>2012-05-11T11:05:16Z</time>
      </trkpt>
      <trkpt lat="41.716354" lon="2.302690">
        <ele>686.89</ele>
        <time>2012-05-11T11:05:26Z</time>
      </trkpt>
      <trkpt lat="41.716213" lon="2.302392">
        <ele>680.48</ele>
        <time>2012-05-11T11:05:36Z</time>
      </trkpt>
      <trkpt lat="41.716209" lon="2.302205">
        <ele>680.07</ele>
        <time>2012-05-11T11:05:46Z</time>
      </trkpt>
      <trkpt lat="41.716347" lon="2.301972">
        <ele>682.52</ele>
        <time>2012-05-11T11:05:56Z</time>
      </trkpt>
      <trkpt lat="41.716602" lon="2.301827">
        <ele>686.55</ele>
        <time>2012-05-11T11:06:06Z</time>
      </trkpt>
      <trkpt lat="41.716652" lon="2.301820">
        <ele>687.84</ele>
        <time>2012-05-11T11:06:16Z</time>
      </trkpt>
      <trkpt lat="41.716675" lon="2.301818">
        <ele>688.40</ele>
        <time>2012-05-11T11:06:26Z</time>
      </trkpt>
      <trkpt lat="41.716709" lon="2.301812">
        <ele>689.32</ele>
        <time>2012-05-11T11:06:36Z</time>
      </trkpt>
      <trkpt lat="41.716785" lon="2.301842">
        <ele>692.31</ele>
        <time>2012-05-11T11:06:46Z</time>
      </trkpt>
      <trkpt lat="41.716801" lon="2.301890">
        <ele>694.25</ele>
        <time>2012-05-11T11:06:56Z</time>
      </trkpt>
      <trkpt lat="41.716797" lon="2.301903">
        <ele>694.52</ele>
        <time>2012-05-11T11:07:06Z</time>
      </trkpt>
      <trkpt lat="41.716652" lon="2.302055">
        <ele>694.29</ele>
        <time>2012-05-11T11:07:16Z</time>
      </trkpt>
      <trkpt lat="41.716633" lon="2.302088">
        <ele>694.42</ele>
        <time>2012-05-11T11:07:26Z</time>
      </trkpt>
      <trkpt lat="41.716583" lon="2.302300">
        <ele>693.96</ele>
        <time>2012-05-11T11:07:36Z</time>
      </trkpt>
      <trkpt lat="41.716614" lon="2.302448">
        <ele>695.87</ele>
        <time>2012-05-11T11:07:46Z</time>
      </trkpt>
      <trkpt lat="41.716679" lon="2.302520">
        <ele>698.67</ele>
        <time>2012-05-11T11:07:56Z</time>
      </trkpt>
      <trkpt lat="41.716854" lon="2.302630">
        <ele>706.08</ele>
        <time>2012-05-11T11:08:06Z</time>
      </trkpt>
      <trkpt lat="41.717075" lon="2.302842">
        <ele>716.99</ele>
        <time>2012-05-11T11:08:16Z</time>
      </trkpt>
      <trkpt lat="41.717243" lon="2.303137">
        <ele>717.92</ele>
        <time>2012-05-11T11:08:26Z</time>
      </trkpt>
      <trkpt lat="41.717350" lon="2.303260">
        <ele>719.31</ele>
        <time>2012-05-11T11:08:36Z</time>
      </trkpt>
      <trkpt lat="41.717361" lon="2.303253">
        <ele>719.76</ele>
        <time>2012-05-11T11:08:46Z</time>
      </trkpt>
      <trkpt lat="41.717369" lon="2.303222">
        <ele>720.36</ele>
        <time>2012-05-11T11:08:56Z</time>
      </trkpt>
      <trkpt lat="41.717247" lon="2.302897">
        <ele>721.40</ele>
        <time>2012-05-11T11:09:06Z</time>
      </trkpt>
      <trkpt lat="41.717266" lon="2.302767">
        <ele>719.99</ele>
        <time>2012-05-11T11:09:16Z</time>
      </trkpt>
      <trkpt lat="41.717300" lon="2.302715">
        <ele>719.91</ele>
        <time>2012-05-11T11:09:26Z</time>
      </trkpt>
      <trkpt lat="41.717327" lon="2.302710">
        <ele>720.38</ele>
        <time>2012-05-11T11:09:36Z</time>
      </trkpt>
      <trkpt lat="41.717381" lon="2.302705">
        <ele>721.27</ele>
        <time>2012-05-11T11:09:46Z</time>
      </trkpt>
      <trkpt lat="41.717407" lon="2.302702">
        <ele>721.72</ele>
        <time>2012-05-11T11:09:56Z</time>
      </trkpt>
      <trkpt lat="41.717434" lon="2.302703">
        <ele>722.26</ele>
        <time>2012-05-11T11:10:06Z</time>
      </trkpt>
      <trkpt lat="41.717445" lon="2.302703">
        <ele>722.41</ele>
        <time>2012-05-11T11:10:16Z</time>
      </trkpt>
      <trkpt lat="41.717529" lon="2.302767">
        <ele>725.01</ele>
        <time>2012-05-11T11:10:26Z</time>
      </trkpt>
      <trkpt lat="41.717548" lon="2.302852">
        <ele>726.95</ele>
        <time>2012-05-11T11:10:36Z</time>
      </trkpt>
      <trkpt lat="41.717575" lon="2.302992">
        <ele>728.19</ele>
        <time>2012-05-11T11:10:46Z</time>
      </trkpt>
      <trkpt lat="41.717712" lon="2.303162">
        <ele>730.88</ele>
        <time>2012-05-11T11:10:56Z</time>
      </trkpt>
      <trkpt lat="41.717720" lon="2.303167">
        <ele>731.05</ele>
        <time>2012-05-11T11:11:06Z</time>
      </trkpt>
      <trkpt lat="41.717888" lon="2.303467">
        <ele>736.31</ele>
        <time>2012-05-11T11:11:16Z</time>
      </trkpt>
      <trkpt lat="41.718021" lon="2.303655">
        <ele>741.15</ele>
        <time>2012-05-11T11:11:26Z</time>
      </trkpt>
      <trkpt lat="41.718243" lon="2.303877">
        <ele>745.73</ele>
        <time>2012-05-11T11:11:36Z</time>
      </trkpt>
      <trkpt lat="41.718487" lon="2.304075">
        <ele>750.10</ele>
        <time>2012-05-11T11:11:46Z</time>
      </trkpt>
      <trkpt lat="41.718712" lon="2.304312">
        <ele>754.13</ele>
        <time>2012-05-11T11:11:56Z</time>
      </trkpt>
      <trkpt lat="41.718937" lon="2.304527">
        <ele>755.02</ele>
        <time>2012-05-11T11:12:06Z</time>
      </trkpt>
      <trkpt lat="41.718987" lon="2.304665">
        <ele>753.31</ele>
        <time>2012-05-11T11:12:16Z</time>
      </trkpt>
      <trkpt lat="41.719063" lon="2.305057">
        <ele>747.16</ele>
        <time>2012-05-11T11:12:26Z</time>
      </trkpt>
      <trkpt lat="41.719170" lon="2.305197">
        <ele>747.45</ele>
        <time>2012-05-11T11:12:36Z</time>
      </trkpt>
      <trkpt lat="41.719193" lon="2.305340">
        <ele>745.66</ele>
        <time>2012-05-11T11:12:46Z</time>
      </trkpt>
      <trkpt lat="41.719292" lon="2.305563">
        <ele>746.76</ele>
        <time>2012-05-11T11:12:56Z</time>
      </trkpt>
      <trkpt lat="41.719433" lon="2.305880">
        <ele>750.76</ele>
        <time>2012-05-11T11:13:06Z</time>
      </trkpt>
      <trkpt lat="41.719551" lon="2.306183">
        <ele>755.56</ele>
        <time>2012-05-11T11:13:16Z</time>
      </trkpt>
      <trkpt lat="41.719555" lon="2.306203">
        <ele>755.69</ele>
        <time>2012-05-11T11:13:26Z</time>
      </trkpt>
      <trkpt lat="41.719601" lon="2.306422">
        <ele>756.68</ele>
        <time>2012-05-11T11:13:36Z</time>
      </trkpt>
      <trkpt lat="41.719608" lon="2.306773">
        <ele>756.33</ele>
        <time>2012-05-11T11:13:46Z</time>
      </trkpt>
      <trkpt lat="41.719570" lon="2.307008">
        <ele>755.33</ele>
        <time>2012-05-11T11:13:56Z</time>
      </trkpt>
      <trkpt lat="41.719566" lon="2.307142">
        <ele>754.81</ele>
        <time>2012-05-11T11:14:06Z</time>
      </trkpt>
      <trkpt lat="41.719608" lon="2.307260">
        <ele>755.57</ele>
        <time>2012-05-11T11:14:16Z</time>
      </trkpt>
      <trkpt lat="41.719658" lon="2.307417">
        <ele>755.48</ele>
        <time>2012-05-11T11:14:26Z</time>
      </trkpt>
      <trkpt lat="41.719688" lon="2.307778">
        <ele>754.98</ele>
        <time>2012-05-11T11:14:36Z</time>
      </trkpt>
      <trkpt lat="41.719753" lon="2.307922">
        <ele>755.78</ele>
        <time>2012-05-11T11:14:46Z</time>
      </trkpt>
      <trkpt lat="41.719963" lon="2.308160">
        <ele>762.68</ele>
        <time>2012-05-11T11:14:56Z</time>
      </trkpt>
      <trkpt lat="41.720013" lon="2.308268">
        <ele>765.25</ele>
        <time>2012-05-11T11:15:06Z</time>
      </trkpt>
      <trkpt lat="41.720127" lon="2.308670">
        <ele>774.69</ele>
        <time>2012-05-11T11:15:16Z</time>
      </trkpt>
      <trkpt lat="41.720245" lon="2.308995">
        <ele>785.04</ele>
        <time>2012-05-11T11:15:26Z</time>
      </trkpt>
      <trkpt lat="41.720387" lon="2.309182">
        <ele>793.52</ele>
        <time>2012-05-11T11:15:36Z</time>
      </trkpt>
      <trkpt lat="41.720417" lon="2.309240">
        <ele>795.72</ele>
        <time>2012-05-11T11:15:46Z</time>
      </trkpt>
      <trkpt lat="41.720638" lon="2.309463">
        <ele>794.01</ele>
        <time>2012-05-11T11:15:56Z</time>
      </trkpt>
      <trkpt lat="41.720886" lon="2.309685">
        <ele>792.52</ele>
        <time>2012-05-11T11:16:06Z</time>
      </trkpt>
      <trkpt lat="41.720966" lon="2.309768">
        <ele>792.84</ele>
        <time>2012-05-11T11:16:16Z</time>
      </trkpt>
      <trkpt lat="41.721085" lon="2.309787">
        <ele>790.01</ele>
        <time>2012-05-11T11:16:26Z</time>
      </trkpt>
      <trkpt lat="41.721367" lon="2.309803">
        <ele>784.32</ele>
        <time>2012-05-11T11:16:36Z</time>
      </trkpt>
      <trkpt lat="41.721539" lon="2.309845">
        <ele>783.25</ele>
        <time>2012-05-11T11:16:46Z</time>
      </trkpt>
      <trkpt lat="41.721603" lon="2.309905">
        <ele>784.16</ele>
        <time>2012-05-11T11:16:56Z</time>
      </trkpt>
      <trkpt lat="41.721638" lon="2.310027">
        <ele>787.08</ele>
        <time>2012-05-11T11:17:06Z</time>
      </trkpt>
      <trkpt lat="41.721672" lon="2.310520">
        <ele>799.63</ele>
        <time>2012-05-11T11:17:16Z</time>
      </trkpt>
      <trkpt lat="41.721630" lon="2.310885">
        <ele>809.13</ele>
        <time>2012-05-11T11:17:26Z</time>
      </trkpt>
      <trkpt lat="41.721630" lon="2.311175">
        <ele>815.81</ele>
        <time>2012-05-11T11:17:36Z</time>
      </trkpt>
      <trkpt lat="41.721676" lon="2.311442">
        <ele>815.31</ele>
        <time>2012-05-11T11:17:46Z</time>
      </trkpt>
      <trkpt lat="41.721672" lon="2.311502">
        <ele>815.69</ele>
        <time>2012-05-11T11:17:56Z</time>
      </trkpt>
      <trkpt lat="41.721748" lon="2.311852">
        <ele>811.14</ele>
        <time>2012-05-11T11:18:06Z</time>
      </trkpt>
      <trkpt lat="41.721756" lon="2.312085">
        <ele>810.68</ele>
        <time>2012-05-11T11:18:16Z</time>
      </trkpt>
      <trkpt lat="41.721783" lon="2.312450">
        <ele>807.47</ele>
        <time>2012-05-11T11:18:26Z</time>
      </trkpt>
      <trkpt lat="41.721786" lon="2.312658">
        <ele>806.51</ele>
        <time>2012-05-11T11:18:36Z</time>
      </trkpt>
      <trkpt lat="41.721745" lon="2.312835">
        <ele>808.89</ele>
        <time>2012-05-11T11:18:46Z</time>
      </trkpt>
      <trkpt lat="41.721786" lon="2.312935">
        <ele>805.60</ele>
        <time>2012-05-11T11:18:56Z</time>
      </trkpt>
      <trkpt lat="41.721806" lon="2.312933">
        <ele>804.15</ele>
        <time>2012-05-11T11:19:06Z</time>
      </trkpt>
      <trkpt lat="41.721756" lon="2.312992">
        <ele>807.00</ele>
        <time>2012-05-11T11:19:16Z</time>
      </trkpt>
      <trkpt lat="41.721569" lon="2.313280">
        <ele>817.01</ele>
        <time>2012-05-11T11:19:26Z</time>
      </trkpt>
      <trkpt lat="41.721539" lon="2.313315">
        <ele>818.71</ele>
        <time>2012-05-11T11:19:36Z</time>
      </trkpt>
      <trkpt lat="41.721420" lon="2.313440">
        <ele>825.64</ele>
        <time>2012-05-11T11:19:46Z</time>
      </trkpt>
      <trkpt lat="41.721416" lon="2.313460">
        <ele>825.74</ele>
        <time>2012-05-11T11:19:56Z</time>
      </trkpt>
      <trkpt lat="41.721367" lon="2.313513">
        <ele>828.53</ele>
        <time>2012-05-11T11:20:06Z</time>
      </trkpt>
      <trkpt lat="41.721340" lon="2.313545">
        <ele>830.01</ele>
        <time>2012-05-11T11:20:16Z</time>
      </trkpt>
      <trkpt lat="41.721294" lon="2.313740">
        <ele>831.16</ele>
        <time>2012-05-11T11:20:26Z</time>
      </trkpt>
      <trkpt lat="41.721294" lon="2.313787">
        <ele>830.99</ele>
        <time>2012-05-11T11:20:36Z</time>
      </trkpt>
      <trkpt lat="41.721344" lon="2.313927">
        <ele>827.58</ele>
        <time>2012-05-11T11:20:46Z</time>
      </trkpt>
      <trkpt lat="41.721317" lon="2.314147">
        <ele>829.15</ele>
        <time>2012-05-11T11:20:56Z</time>
      </trkpt>
      <trkpt lat="41.721325" lon="2.314147">
        <ele>828.69</ele>
        <time>2012-05-11T11:21:06Z</time>
      </trkpt>
      <trkpt lat="41.721333" lon="2.314145">
        <ele>828.12</ele>
        <time>2012-05-11T11:21:16Z</time>
      </trkpt>
      <trkpt lat="41.721195" lon="2.314377">
        <ele>835.11</ele>
        <time>2012-05-11T11:21:26Z</time>
      </trkpt>
      <trkpt lat="41.721367" lon="2.314633">
        <ele>827.33</ele>
        <time>2012-05-11T11:21:36Z</time>
      </trkpt>
      <trkpt lat="41.721474" lon="2.314802">
        <ele>825.77</ele>
        <time>2012-05-11T11:21:46Z</time>
      </trkpt>
      <trkpt lat="41.721443" lon="2.315163">
        <ele>835.01</ele>
        <time>2012-05-11T11:21:56Z</time>
      </trkpt>
      <trkpt lat="41.721489" lon="2.315175">
        <ele>833.17</ele>
        <time>2012-05-11T11:22:06Z</time>
      </trkpt>
      <trkpt lat="41.721565" lon="2.315275">
        <ele>831.92</ele>
        <time>2012-05-11T11:22:16Z</time>
      </trkpt>
      <trkpt lat="41.721565" lon="2.315282">
        <ele>832.02</ele>
        <time>2012-05-11T11:22:26Z</time>
      </trkpt>
      <trkpt lat="41.721588" lon="2.315302">
        <ele>831.47</ele>
        <time>2012-05-11T11:22:36Z</time>
      </trkpt>
      <trkpt lat="41.721607" lon="2.315393">
        <ele>832.67</ele>
        <time>2012-05-11T11:22:46Z</time>
      </trkpt>
      <trkpt lat="41.721638" lon="2.315548">
        <ele>832.71</ele>
        <time>2012-05-11T11:22:56Z</time>
      </trkpt>
      <trkpt lat="41.721676" lon="2.315582">
        <ele>831.11</ele>
        <time>2012-05-11T11:23:06Z</time>
      </trkpt>
      <trkpt lat="41.721737" lon="2.315792">
        <ele>829.21</ele>
        <time>2012-05-11T11:23:16Z</time>
      </trkpt>
      <trkpt lat="41.721695" lon="2.315845">
        <ele>831.87</ele>
        <time>2012-05-11T11:23:26Z</time>
      </trkpt>
      <trkpt lat="41.721626" lon="2.316197">
        <ele>838.22</ele>
        <time>2012-05-11T11:23:36Z</time>
      </trkpt>
      <trkpt lat="41.721554" lon="2.316262">
        <ele>843.37</ele>
        <time>2012-05-11T11:23:46Z</time>
      </trkpt>
      <trkpt lat="41.721554" lon="2.316280">
        <ele>843.26</ele>
        <time>2012-05-11T11:23:56Z</time>
      </trkpt>
      <trkpt lat="41.721519" lon="2.316527">
        <ele>845.07</ele>
        <time>2012-05-11T11:24:06Z</time>
      </trkpt>
      <trkpt lat="41.721512" lon="2.316553">
        <ele>845.46</ele>
        <time>2012-05-11T11:24:16Z</time>
      </trkpt>
      <trkpt lat="41.721256" lon="2.316683">
        <ele>862.16</ele>
        <time>2012-05-11T11:24:26Z</time>
      </trkpt>
      <trkpt lat="41.721245" lon="2.316692">
        <ele>862.88</ele>
        <time>2012-05-11T11:24:36Z</time>
      </trkpt>
      <trkpt lat="41.721245" lon="2.316703">
        <ele>862.80</ele>
        <time>2012-05-11T11:24:46Z</time>
      </trkpt>
      <trkpt lat="41.721172" lon="2.316757">
        <ele>867.33</ele>
        <time>2012-05-11T11:24:56Z</time>
      </trkpt>
      <trkpt lat="41.721031" lon="2.316832">
        <ele>876.11</ele>
        <time>2012-05-11T11:25:06Z</time>
      </trkpt>
      <trkpt lat="41.721008" lon="2.316898">
        <ele>877.65</ele>
        <time>2012-05-11T11:25:16Z</time>
      </trkpt>
      <trkpt lat="41.720993" lon="2.316917">
        <ele>878.56</ele>
        <time>2012-05-11T11:25:26Z</time>
      </trkpt>
      <trkpt lat="41.721004" lon="2.316920">
        <ele>877.82</ele>
        <time>2012-05-11T11:25:36Z</time>
      </trkpt>
      <trkpt lat="41.721146" lon="2.317042">
        <ele>868.88</ele>
        <time>2012-05-11T11:25:46Z</time>
      </trkpt>
      <trkpt lat="41.721169" lon="2.317048">
        <ele>867.33</ele>
        <time>2012-05-11T11:25:56Z</time>
      </trkpt>
      <trkpt lat="41.720905" lon="2.317198">
        <ele>884.91</ele>
        <time>2012-05-11T11:26:06Z</time>
      </trkpt>
      <trkpt lat="41.720619" lon="2.317133">
        <ele>903.13</ele>
        <time>2012-05-11T11:26:16Z</time>
      </trkpt>
      <trkpt lat="41.720657" lon="2.317240">
        <ele>901.03</ele>
        <time>2012-05-11T11:26:26Z</time>
      </trkpt>
      <trkpt lat="41.720699" lon="2.317505">
        <ele>899.22</ele>
        <time>2012-05-11T11:26:36Z</time>
      </trkpt>
      <trkpt lat="41.720757" lon="2.317683">
        <ele>896.32</ele>
        <time>2012-05-11T11:26:46Z</time>
      </trkpt>
      <trkpt lat="41.720737" lon="2.317718">
        <ele>897.61</ele>
        <time>2012-05-11T11:26:56Z</time>
      </trkpt>
      <trkpt lat="41.720814" lon="2.317878">
        <ele>893.57</ele>
        <time>2012-05-11T11:27:06Z</time>
      </trkpt>
      <trkpt lat="41.720970" lon="2.318178">
        <ele>886.21</ele>
        <time>2012-05-11T11:27:16Z</time>
      </trkpt>
      <trkpt lat="41.721004" lon="2.318542">
        <ele>886.94</ele>
        <time>2012-05-11T11:27:26Z</time>
      </trkpt>
      <trkpt lat="41.721077" lon="2.318638">
        <ele>882.90</ele>
        <time>2012-05-11T11:27:36Z</time>
      </trkpt>
      <trkpt lat="41.721111" lon="2.318665">
        <ele>880.77</ele>
        <time>2012-05-11T11:27:46Z</time>
      </trkpt>
      <trkpt lat="41.721180" lon="2.318697">
        <ele>876.49</ele>
        <time>2012-05-11T11:27:56Z</time>
      </trkpt>
      <trkpt lat="41.721210" lon="2.319058">
        <ele>878.38</ele>
        <time>2012-05-11T11:28:06Z</time>
      </trkpt>
      <trkpt lat="41.721218" lon="2.319425">
        <ele>882.23</ele>
        <time>2012-05-11T11:28:16Z</time>
      </trkpt>
      <trkpt lat="41.721016" lon="2.319667">
        <ele>898.77</ele>
        <time>2012-05-11T11:28:26Z</time>
      </trkpt>
      <trkpt lat="41.720745" lon="2.319690">
        <ele>915.91</ele>
        <time>2012-05-11T11:28:36Z</time>
      </trkpt>
      <trkpt lat="41.720730" lon="2.319708">
        <ele>917.01</ele>
        <time>2012-05-11T11:28:46Z</time>
      </trkpt>
      <trkpt lat="41.720798" lon="2.319785">
        <ele>913.71</ele>
        <time>2012-05-11T11:28:56Z</time>
      </trkpt>
      <trkpt lat="41.720810" lon="2.319790">
        <ele>913.16</ele>
        <time>2012-05-11T11:29:06Z</time>
      </trkpt>
      <trkpt lat="41.721088" lon="2.319863">
        <ele>898.21</ele>
        <time>2012-05-11T11:29:16Z</time>
      </trkpt>
      <trkpt lat="41.721207" lon="2.319702">
        <ele>887.62</ele>
        <time>2012-05-11T11:29:26Z</time>
      </trkpt>
      <trkpt lat="41.721481" lon="2.319777">
        <ele>884.48</ele>
        <time>2012-05-11T11:29:36Z</time>
      </trkpt>
      <trkpt lat="41.721619" lon="2.319807">
        <ele>884.00</ele>
        <time>2012-05-11T11:29:46Z</time>
      </trkpt>
      <trkpt lat="41.721649" lon="2.319752">
        <ele>881.70</ele>
        <time>2012-05-11T11:29:56Z</time>
      </trkpt>
      <trkpt lat="41.721901" lon="2.319597">
        <ele>871.73</ele>
        <time>2012-05-11T11:30:06Z</time>
      </trkpt>
      <trkpt lat="41.722183" lon="2.319490">
        <ele>866.37</ele>
        <time>2012-05-11T11:30:16Z</time>
      </trkpt>
      <trkpt lat="41.722237" lon="2.319502">
        <ele>867.71</ele>
        <time>2012-05-11T11:30:26Z</time>
      </trkpt>
      <trkpt lat="41.722290" lon="2.319500">
        <ele>868.61</ele>
        <time>2012-05-11T11:30:36Z</time>
      </trkpt>
      <trkpt lat="41.722336" lon="2.319500">
        <ele>869.54</ele>
        <time>2012-05-11T11:30:46Z</time>
      </trkpt>
      <trkpt lat="41.722443" lon="2.319522">
        <ele>872.44</ele>
        <time>2012-05-11T11:30:56Z</time>
      </trkpt>
      <trkpt lat="41.722492" lon="2.319513">
        <ele>872.93</ele>
        <time>2012-05-11T11:31:06Z</time>
      </trkpt>
      <trkpt lat="41.722752" lon="2.319643">
        <ele>883.80</ele>
        <time>2012-05-11T11:31:16Z</time>
      </trkpt>
      <trkpt lat="41.722958" lon="2.319918">
        <ele>898.54</ele>
        <time>2012-05-11T11:31:26Z</time>
      </trkpt>
      <trkpt lat="41.723118" lon="2.320243">
        <ele>908.76</ele>
        <time>2012-05-11T11:31:36Z</time>
      </trkpt>
      <trkpt lat="41.723320" lon="2.320332">
        <ele>906.67</ele>
        <time>2012-05-11T11:31:46Z</time>
      </trkpt>
      <trkpt lat="41.723347" lon="2.320337">
        <ele>906.07</ele>
        <time>2012-05-11T11:31:56Z</time>
      </trkpt>
      <trkpt lat="41.723572" lon="2.320555">
        <ele>907.26</ele>
        <time>2012-05-11T11:32:06Z</time>
      </trkpt>
      <trkpt lat="41.723785" lon="2.320808">
        <ele>908.02</ele>
        <time>2012-05-11T11:32:16Z</time>
      </trkpt>
      <trkpt lat="41.723904" lon="2.320930">
        <ele>908.11</ele>
        <time>2012-05-11T11:32:26Z</time>
      </trkpt>
      <trkpt lat="41.724060" lon="2.321043">
        <ele>907.27</ele>
        <time>2012-05-11T11:32:36Z</time>
      </trkpt>
      <trkpt lat="41.724125" lon="2.321088">
        <ele>907.05</ele>
        <time>2012-05-11T11:32:46Z</time>
      </trkpt>
      <trkpt lat="41.724209" lon="2.321115">
        <ele>905.66</ele>
        <time>2012-05-11T11:32:56Z</time>
      </trkpt>
      <trkpt lat="41.724255" lon="2.321143">
        <ele>905.43</ele>
        <time>2012-05-11T11:33:06Z</time>
      </trkpt>
      <trkpt lat="41.724297" lon="2.321163">
        <ele>905.03</ele>
        <time>2012-05-11T11:33:16Z</time>
      </trkpt>
      <trkpt lat="41.724339" lon="2.321185">
        <ele>904.87</ele>
        <time>2012-05-11T11:33:26Z</time>
      </trkpt>
      <trkpt lat="41.724384" lon="2.321193">
        <ele>903.97</ele>
        <time>2012-05-11T11:33:36Z</time>
      </trkpt>
      <trkpt lat="41.724407" lon="2.321210">
        <ele>904.07</ele>
        <time>2012-05-11T11:33:46Z</time>
      </trkpt>
      <trkpt lat="41.724449" lon="2.321228">
        <ele>903.68</ele>
        <time>2012-05-11T11:33:56Z</time>
      </trkpt>
      <trkpt lat="41.724483" lon="2.321243">
        <ele>903.32</ele>
        <time>2012-05-11T11:34:06Z</time>
      </trkpt>
      <trkpt lat="41.724560" lon="2.321232">
        <ele>900.81</ele>
        <time>2012-05-11T11:34:16Z</time>
      </trkpt>
      <trkpt lat="41.724598" lon="2.321235">
        <ele>900.54</ele>
        <time>2012-05-11T11:34:26Z</time>
      </trkpt>
      <trkpt lat="41.724663" lon="2.321247">
        <ele>901.99</ele>
        <time>2012-05-11T11:34:36Z</time>
      </trkpt>
      <trkpt lat="41.724682" lon="2.321252">
        <ele>902.47</ele>
        <time>2012-05-11T11:34:46Z</time>
      </trkpt>
      <trkpt lat="41.724815" lon="2.321238">
        <ele>903.57</ele>
        <time>2012-05-11T11:34:56Z</time>
      </trkpt>
      <trkpt lat="41.724857" lon="2.321230">
        <ele>903.75</ele>
        <time>2012-05-11T11:35:06Z</time>
      </trkpt>
      <trkpt lat="41.724957" lon="2.321165">
        <ele>902.37</ele>
        <time>2012-05-11T11:35:16Z</time>
      </trkpt>
      <trkpt lat="41.724960" lon="2.321125">
        <ele>900.76</ele>
        <time>2012-05-11T11:35:26Z</time>
      </trkpt>
      <trkpt lat="41.724964" lon="2.321102">
        <ele>899.84</ele>
        <time>2012-05-11T11:35:36Z</time>
      </trkpt>
      <trkpt lat="41.725101" lon="2.320833">
        <ele>890.77</ele>
        <time>2012-05-11T11:35:46Z</time>
      </trkpt>
      <trkpt lat="41.725330" lon="2.320630">
        <ele>886.62</ele>
        <time>2012-05-11T11:35:56Z</time>
      </trkpt>
      <trkpt lat="41.725536" lon="2.320568">
        <ele>888.51</ele>
        <time>2012-05-11T11:36:06Z</time>
      </trkpt>
      <trkpt lat="41.725674" lon="2.320572">
        <ele>891.81</ele>
        <time>2012-05-11T11:36:16Z</time>
      </trkpt>
      <trkpt lat="41.725727" lon="2.320530">
        <ele>891.33</ele>
        <time>2012-05-11T11:36:26Z</time>
      </trkpt>
      <trkpt lat="41.725792" lon="2.320493">
        <ele>891.21</ele>
        <time>2012-05-11T11:36:36Z</time>
      </trkpt>
      <trkpt lat="41.725849" lon="2.320473">
        <ele>891.74</ele>
        <time>2012-05-11T11:36:46Z</time>
      </trkpt>
      <trkpt lat="41.726120" lon="2.320400">
        <ele>894.66</ele>
        <time>2012-05-11T11:36:56Z</time>
      </trkpt>
      <trkpt lat="41.726223" lon="2.320393">
        <ele>896.67</ele>
        <time>2012-05-11T11:37:06Z</time>
      </trkpt>
      <trkpt lat="41.726246" lon="2.320392">
        <ele>897.19</ele>
        <time>2012-05-11T11:37:16Z</time>
      </trkpt>
      <trkpt lat="41.726501" lon="2.320193">
        <ele>900.08</ele>
        <time>2012-05-11T11:37:26Z</time>
      </trkpt>
      <trkpt lat="41.726509" lon="2.320183">
        <ele>900.02</ele>
        <time>2012-05-11T11:37:36Z</time>
      </trkpt>
      <trkpt lat="41.726677" lon="2.320048">
        <ele>902.72</ele>
        <time>2012-05-11T11:37:46Z</time>
      </trkpt>
      <trkpt lat="41.726765" lon="2.319698">
        <ele>897.11</ele>
        <time>2012-05-11T11:37:56Z</time>
      </trkpt>
      <trkpt lat="41.726856" lon="2.319355">
        <ele>892.85</ele>
        <time>2012-05-11T11:38:06Z</time>
      </trkpt>
      <trkpt lat="41.726990" lon="2.319157">
        <ele>893.74</ele>
        <time>2012-05-11T11:38:16Z</time>
      </trkpt>
      <trkpt lat="41.727043" lon="2.319117">
        <ele>895.06</ele>
        <time>2012-05-11T11:38:26Z</time>
      </trkpt>
      <trkpt lat="41.727062" lon="2.319112">
        <ele>895.62</ele>
        <time>2012-05-11T11:38:36Z</time>
      </trkpt>
      <trkpt lat="41.727123" lon="2.319092">
        <ele>897.17</ele>
        <time>2012-05-11T11:38:46Z</time>
      </trkpt>
      <trkpt lat="41.727146" lon="2.319085">
        <ele>897.69</ele>
        <time>2012-05-11T11:38:56Z</time>
      </trkpt>
      <trkpt lat="41.727173" lon="2.319080">
        <ele>898.28</ele>
        <time>2012-05-11T11:39:06Z</time>
      </trkpt>
      <trkpt lat="41.727196" lon="2.319075">
        <ele>898.79</ele>
        <time>2012-05-11T11:39:16Z</time>
      </trkpt>
      <trkpt lat="41.727215" lon="2.319072">
        <ele>899.21</ele>
        <time>2012-05-11T11:39:26Z</time>
      </trkpt>
      <trkpt lat="41.727283" lon="2.319045">
        <ele>900.33</ele>
        <time>2012-05-11T11:39:36Z</time>
      </trkpt>
      <trkpt lat="41.727318" lon="2.319020">
        <ele>900.51</ele>
        <time>2012-05-11T11:39:46Z</time>
      </trkpt>
      <trkpt lat="41.727345" lon="2.319013">
        <ele>901.10</ele>
        <time>2012-05-11T11:39:56Z</time>
      </trkpt>
      <trkpt lat="41.727375" lon="2.319012">
        <ele>901.84</ele>
        <time>2012-05-11T11:40:06Z</time>
      </trkpt>
      <trkpt lat="41.727386" lon="2.319015">
        <ele>902.30</ele>
        <time>2012-05-11T11:40:16Z</time>
      </trkpt>
      <trkpt lat="41.727448" lon="2.318988">
        <ele>903.03</ele>
        <time>2012-05-11T11:40:26Z</time>
      </trkpt>
      <trkpt lat="41.727474" lon="2.318988">
        <ele>903.75</ele>
        <time>2012-05-11T11:40:36Z</time>
      </trkpt>
      <trkpt lat="41.727501" lon="2.318983">
        <ele>904.27</ele>
        <time>2012-05-11T11:40:46Z</time>
      </trkpt>
      <trkpt lat="41.727581" lon="2.318995">
        <ele>906.75</ele>
        <time>2012-05-11T11:40:56Z</time>
      </trkpt>
      <trkpt lat="41.727600" lon="2.318995">
        <ele>907.39</ele>
        <time>2012-05-11T11:41:06Z</time>
      </trkpt>
      <trkpt lat="41.727623" lon="2.318987">
        <ele>907.66</ele>
        <time>2012-05-11T11:41:16Z</time>
      </trkpt>
      <trkpt lat="41.727642" lon="2.318975">
        <ele>907.72</ele>
        <time>2012-05-11T11:41:26Z</time>
      </trkpt>
      <trkpt lat="41.727665" lon="2.318977">
        <ele>908.31</ele>
        <time>2012-05-11T11:41:36Z</time>
      </trkpt>
      <trkpt lat="41.727688" lon="2.318972">
        <ele>908.88</ele>
        <time>2012-05-11T11:41:46Z</time>
      </trkpt>
      <trkpt lat="41.727718" lon="2.318977">
        <ele>909.80</ele>
        <time>2012-05-11T11:41:56Z</time>
      </trkpt>
      <trkpt lat="41.727810" lon="2.318965">
        <ele>911.75</ele>
        <time>2012-05-11T11:42:06Z</time>
      </trkpt>
      <trkpt lat="41.727825" lon="2.318968">
        <ele>912.28</ele>
        <time>2012-05-11T11:42:16Z</time>
      </trkpt>
      <trkpt lat="41.728058" lon="2.318942">
        <ele>917.64</ele>
        <time>2012-05-11T11:42:26Z</time>
      </trkpt>
      <trkpt lat="41.728168" lon="2.318953">
        <ele>921.28</ele>
        <time>2012-05-11T11:42:36Z</time>
      </trkpt>
      <trkpt lat="41.728180" lon="2.318957">
        <ele>921.64</ele>
        <time>2012-05-11T11:42:46Z</time>
      </trkpt>
      <trkpt lat="41.728195" lon="2.318962">
        <ele>922.25</ele>
        <time>2012-05-11T11:42:56Z</time>
      </trkpt>
      <trkpt lat="41.728298" lon="2.318933">
        <ele>924.30</ele>
        <time>2012-05-11T11:43:06Z</time>
      </trkpt>
      <trkpt lat="41.728321" lon="2.318932">
        <ele>924.91</ele>
        <time>2012-05-11T11:43:16Z</time>
      </trkpt>
      <trkpt lat="41.728451" lon="2.318862">
        <ele>926.81</ele>
        <time>2012-05-11T11:43:26Z</time>
      </trkpt>
      <trkpt lat="41.728493" lon="2.318855">
        <ele>928.09</ele>
        <time>2012-05-11T11:43:36Z</time>
      </trkpt>
      <trkpt lat="41.728550" lon="2.318932">
        <ele>931.54</ele>
        <time>2012-05-11T11:43:46Z</time>
      </trkpt>
      <trkpt lat="41.728542" lon="2.318942">
        <ele>931.59</ele>
        <time>2012-05-11T11:43:56Z</time>
      </trkpt>
      <trkpt lat="41.728416" lon="2.319165">
        <ele>933.82</ele>
        <time>2012-05-11T11:44:06Z</time>
      </trkpt>
      <trkpt lat="41.728298" lon="2.319510">
        <ele>941.46</ele>
        <time>2012-05-11T11:44:16Z</time>
      </trkpt>
      <trkpt lat="41.728264" lon="2.319548">
        <ele>942.12</ele>
        <time>2012-05-11T11:44:26Z</time>
      </trkpt>
      <trkpt lat="41.728260" lon="2.319565">
        <ele>942.62</ele>
        <time>2012-05-11T11:44:36Z</time>
      </trkpt>
      <trkpt lat="41.728195" lon="2.319702">
        <ele>944.92</ele>
        <time>2012-05-11T11:44:46Z</time>
      </trkpt>
      <trkpt lat="41.728180" lon="2.319768">
        <ele>946.18</ele>
        <time>2012-05-11T11:44:56Z</time>
      </trkpt>
      <trkpt lat="41.728153" lon="2.319862">
        <ele>948.01</ele>
        <time>2012-05-11T11:45:06Z</time>
      </trkpt>
      <trkpt lat="41.728165" lon="2.319957">
        <ele>950.21</ele>
        <time>2012-05-11T11:45:16Z</time>
      </trkpt>
      <trkpt lat="41.728168" lon="2.320053">
        <ele>952.38</ele>
        <time>2012-05-11T11:45:26Z</time>
      </trkpt>
      <trkpt lat="41.728207" lon="2.320428">
        <ele>960.20</ele>
        <time>2012-05-11T11:45:36Z</time>
      </trkpt>
      <trkpt lat="41.728256" lon="2.321112">
        <ele>969.62</ele>
        <time>2012-05-11T11:45:46Z</time>
      </trkpt>
      <trkpt lat="41.728367" lon="2.321507">
        <ele>973.49</ele>
        <time>2012-05-11T11:45:56Z</time>
      </trkpt>
      <trkpt lat="41.728424" lon="2.321873">
        <ele>978.17</ele>
        <time>2012-05-11T11:46:06Z</time>
      </trkpt>
      <trkpt lat="41.728443" lon="2.321917">
        <ele>978.26</ele>
        <time>2012-05-11T11:46:16Z</time>
      </trkpt>
      <trkpt lat="41.728451" lon="2.322297">
        <ele>983.88</ele>
        <time>2012-05-11T11:46:26Z</time>
      </trkpt>
      <trkpt lat="41.728466" lon="2.322662">
        <ele>988.32</ele>
        <time>2012-05-11T11:46:36Z</time>
      </trkpt>
      <trkpt lat="41.728458" lon="2.323045">
        <ele>991.99</ele>
        <time>2012-05-11T11:46:46Z</time>
      </trkpt>
      <trkpt lat="41.728481" lon="2.323292">
        <ele>990.72</ele>
        <time>2012-05-11T11:46:56Z</time>
      </trkpt>
      <trkpt lat="41.728481" lon="2.323325">
        <ele>990.61</ele>
        <time>2012-05-11T11:47:06Z</time>
      </trkpt>
      <trkpt lat="41.728394" lon="2.323480">
        <ele>992.29</ele>
        <time>2012-05-11T11:47:16Z</time>
      </trkpt>
      <trkpt lat="41.728271" lon="2.323702">
        <ele>993.27</ele>
        <time>2012-05-11T11:47:26Z</time>
      </trkpt>
      <trkpt lat="41.728024" lon="2.323855">
        <ele>993.58</ele>
        <time>2012-05-11T11:47:36Z</time>
      </trkpt>
      <trkpt lat="41.727856" lon="2.323905">
        <ele>993.12</ele>
        <time>2012-05-11T11:47:46Z</time>
      </trkpt>
      <trkpt lat="41.727547" lon="2.323817">
        <ele>994.05</ele>
        <time>2012-05-11T11:47:56Z</time>
      </trkpt>
      <trkpt lat="41.727314" lon="2.323548">
        <ele>999.36</ele>
        <time>2012-05-11T11:48:06Z</time>
      </trkpt>
      <trkpt lat="41.727032" lon="2.323422">
        <ele>1001.38</ele>
        <time>2012-05-11T11:48:16Z</time>
      </trkpt>
      <trkpt lat="41.726753" lon="2.323447">
        <ele>999.85</ele>
        <time>2012-05-11T11:48:26Z</time>
      </trkpt>
      <trkpt lat="41.726456" lon="2.323415">
        <ele>999.25</ele>
        <time>2012-05-11T11:48:36Z</time>
      </trkpt>
      <trkpt lat="41.726410" lon="2.323398">
        <ele>999.21</ele>
        <time>2012-05-11T11:48:46Z</time>
      </trkpt>
      <trkpt lat="41.726372" lon="2.323393">
        <ele>999.11</ele>
        <time>2012-05-11T11:48:56Z</time>
      </trkpt>
      <trkpt lat="41.726105" lon="2.323467">
        <ele>997.17</ele>
        <time>2012-05-11T11:49:06Z</time>
      </trkpt>
      <trkpt lat="41.725822" lon="2.323643">
        <ele>996.34</ele>
        <time>2012-05-11T11:49:16Z</time>
      </trkpt>
      <trkpt lat="41.725517" lon="2.323902">
        <ele>995.41</ele>
        <time>2012-05-11T11:49:26Z</time>
      </trkpt>
      <trkpt lat="41.725292" lon="2.324205">
        <ele>989.33</ele>
        <time>2012-05-11T11:49:36Z</time>
      </trkpt>
      <trkpt lat="41.725105" lon="2.324488">
        <ele>980.95</ele>
        <time>2012-05-11T11:49:46Z</time>
      </trkpt>
      <trkpt lat="41.724804" lon="2.324700">
        <ele>969.56</ele>
        <time>2012-05-11T11:49:56Z</time>
      </trkpt>
      <trkpt lat="41.724655" lon="2.324640">
        <ele>967.42</ele>
        <time>2012-05-11T11:50:06Z</time>
      </trkpt>
      <trkpt lat="41.724586" lon="2.324598">
        <ele>966.77</ele>
        <time>2012-05-11T11:50:16Z</time>
      </trkpt>
      <trkpt lat="41.724403" lon="2.324410">
        <ele>964.09</ele>
        <time>2012-05-11T11:50:26Z</time>
      </trkpt>
      <trkpt lat="41.724255" lon="2.324060">
        <ele>967.71</ele>
        <time>2012-05-11T11:50:36Z</time>
      </trkpt>
      <trkpt lat="41.724075" lon="2.323760">
        <ele>971.31</ele>
        <time>2012-05-11T11:50:46Z</time>
      </trkpt>
      <trkpt lat="41.723866" lon="2.323460">
        <ele>973.53</ele>
        <time>2012-05-11T11:50:56Z</time>
      </trkpt>
      <trkpt lat="41.723621" lon="2.323308">
        <ele>974.91</ele>
        <time>2012-05-11T11:51:06Z</time>
      </trkpt>
      <trkpt lat="41.723347" lon="2.323288">
        <ele>973.04</ele>
        <time>2012-05-11T11:51:16Z</time>
      </trkpt>
      <trkpt lat="41.723072" lon="2.323188">
        <ele>974.18</ele>
        <time>2012-05-11T11:51:26Z</time>
      </trkpt>
      <trkpt lat="41.722748" lon="2.323103">
        <ele>977.51</ele>
        <time>2012-05-11T11:51:36Z</time>
      </trkpt>
      <trkpt lat="41.722412" lon="2.323080">
        <ele>981.09</ele>
        <time>2012-05-11T11:51:46Z</time>
      </trkpt>
      <trkpt lat="41.722118" lon="2.323373">
        <ele>977.27</ele>
        <time>2012-05-11T11:51:56Z</time>
      </trkpt>
      <trkpt lat="41.722000" lon="2.323652">
        <ele>972.50</ele>
        <time>2012-05-11T11:52:06Z</time>
      </trkpt>
      <trkpt lat="41.721958" lon="2.324253">
        <ele>960.31</ele>
        <time>2012-05-11T11:52:16Z</time>
      </trkpt>
      <trkpt lat="41.721882" lon="2.324622">
        <ele>953.13</ele>
        <time>2012-05-11T11:52:26Z</time>
      </trkpt>
      <trkpt lat="41.721748" lon="2.324953">
        <ele>946.51</ele>
        <time>2012-05-11T11:52:36Z</time>
      </trkpt>
      <trkpt lat="41.721584" lon="2.325320">
        <ele>939.81</ele>
        <time>2012-05-11T11:52:46Z</time>
      </trkpt>
      <trkpt lat="41.721539" lon="2.325682">
        <ele>932.79</ele>
        <time>2012-05-11T11:52:56Z</time>
      </trkpt>
      <trkpt lat="41.721550" lon="2.326058">
        <ele>924.89</ele>
        <time>2012-05-11T11:53:06Z</time>
      </trkpt>
      <trkpt lat="41.721527" lon="2.326442">
        <ele>917.31</ele>
        <time>2012-05-11T11:53:16Z</time>
      </trkpt>
      <trkpt lat="41.721485" lon="2.326898">
        <ele>908.94</ele>
        <time>2012-05-11T11:53:26Z</time>
      </trkpt>
      <trkpt lat="41.721485" lon="2.327275">
        <ele>901.25</ele>
        <time>2012-05-11T11:53:36Z</time>
      </trkpt>
      <trkpt lat="41.721458" lon="2.327455">
        <ele>897.45</ele>
        <time>2012-05-11T11:53:46Z</time>
      </trkpt>
      <trkpt lat="41.721416" lon="2.327497">
        <ele>896.55</ele>
        <time>2012-05-11T11:53:56Z</time>
      </trkpt>
      <trkpt lat="41.721302" lon="2.327483">
        <ele>896.90</ele>
        <time>2012-05-11T11:54:06Z</time>
      </trkpt>
      <trkpt lat="41.721050" lon="2.327263">
        <ele>895.31</ele>
        <time>2012-05-11T11:54:16Z</time>
      </trkpt>
      <trkpt lat="41.720795" lon="2.327068">
        <ele>891.51</ele>
        <time>2012-05-11T11:54:26Z</time>
      </trkpt>
      <trkpt lat="41.720543" lon="2.326853">
        <ele>888.77</ele>
        <time>2012-05-11T11:54:36Z</time>
      </trkpt>
      <trkpt lat="41.720318" lon="2.326638">
        <ele>887.76</ele>
        <time>2012-05-11T11:54:46Z</time>
      </trkpt>
      <trkpt lat="41.720097" lon="2.326412">
        <ele>887.35</ele>
        <time>2012-05-11T11:54:56Z</time>
      </trkpt>
      <trkpt lat="41.719849" lon="2.326152">
        <ele>887.05</ele>
        <time>2012-05-11T11:55:06Z</time>
      </trkpt>
      <trkpt lat="41.719604" lon="2.325930">
        <ele>886.22</ele>
        <time>2012-05-11T11:55:16Z</time>
      </trkpt>
      <trkpt lat="41.719345" lon="2.325713">
        <ele>895.76</ele>
        <time>2012-05-11T11:55:26Z</time>
      </trkpt>
      <trkpt lat="41.719135" lon="2.325515">
        <ele>905.02</ele>
        <time>2012-05-11T11:55:36Z</time>
      </trkpt>
      <trkpt lat="41.719131" lon="2.325537">
        <ele>904.45</ele>
        <time>2012-05-11T11:55:46Z</time>
      </trkpt>
      <trkpt lat="41.719151" lon="2.325603">
        <ele>902.03</ele>
        <time>2012-05-11T11:55:56Z</time>
      </trkpt>
      <trkpt lat="41.719311" lon="2.325978">
        <ele>888.22</ele>
        <time>2012-05-11T11:56:06Z</time>
      </trkpt>
      <trkpt lat="41.719444" lon="2.326408">
        <ele>873.31</ele>
        <time>2012-05-11T11:56:16Z</time>
      </trkpt>
      <trkpt lat="41.719555" lon="2.326787">
        <ele>860.36</ele>
        <time>2012-05-11T11:56:26Z</time>
      </trkpt>
      <trkpt lat="41.719742" lon="2.327137">
        <ele>854.63</ele>
        <time>2012-05-11T11:56:36Z</time>
      </trkpt>
      <trkpt lat="41.719963" lon="2.327435">
        <ele>853.06</ele>
        <time>2012-05-11T11:56:46Z</time>
      </trkpt>
      <trkpt lat="41.720200" lon="2.327843">
        <ele>848.45</ele>
        <time>2012-05-11T11:56:56Z</time>
      </trkpt>
      <trkpt lat="41.720333" lon="2.328168">
        <ele>842.83</ele>
        <time>2012-05-11T11:57:06Z</time>
      </trkpt>
      <trkpt lat="41.720478" lon="2.328622">
        <ele>833.64</ele>
        <time>2012-05-11T11:57:16Z</time>
      </trkpt>
      <trkpt lat="41.720589" lon="2.328977">
        <ele>829.26</ele>
        <time>2012-05-11T11:57:26Z</time>
      </trkpt>
      <trkpt lat="41.720718" lon="2.329303">
        <ele>827.25</ele>
        <time>2012-05-11T11:57:36Z</time>
      </trkpt>
      <trkpt lat="41.720890" lon="2.329645">
        <ele>826.30</ele>
        <time>2012-05-11T11:57:46Z</time>
      </trkpt>
      <trkpt lat="41.721031" lon="2.329985">
        <ele>823.72</ele>
        <time>2012-05-11T11:57:56Z</time>
      </trkpt>
      <trkpt lat="41.721085" lon="2.330340">
        <ele>817.01</ele>
        <time>2012-05-11T11:58:06Z</time>
      </trkpt>
      <trkpt lat="41.721123" lon="2.330722">
        <ele>810.02</ele>
        <time>2012-05-11T11:58:16Z</time>
      </trkpt>
      <trkpt lat="41.721180" lon="2.331112">
        <ele>803.96</ele>
        <time>2012-05-11T11:58:26Z</time>
      </trkpt>
      <trkpt lat="41.721230" lon="2.331262">
        <ele>802.98</ele>
        <time>2012-05-11T11:58:36Z</time>
      </trkpt>
      <trkpt lat="41.721432" lon="2.331600">
        <ele>804.25</ele>
        <time>2012-05-11T11:58:46Z</time>
      </trkpt>
      <trkpt lat="41.721611" lon="2.331875">
        <ele>804.77</ele>
        <time>2012-05-11T11:58:56Z</time>
      </trkpt>
      <trkpt lat="41.721897" lon="2.332152">
        <ele>806.95</ele>
        <time>2012-05-11T11:59:06Z</time>
      </trkpt>
      <trkpt lat="41.722221" lon="2.332395">
        <ele>805.09</ele>
        <time>2012-05-11T11:59:16Z</time>
      </trkpt>
      <trkpt lat="41.722301" lon="2.332347">
        <ele>805.87</ele>
        <time>2012-05-11T11:59:26Z</time>
      </trkpt>
      <trkpt lat="41.722515" lon="2.332025">
        <ele>812.44</ele>
        <time>2012-05-11T11:59:36Z</time>
      </trkpt>
      <trkpt lat="41.722713" lon="2.331747">
        <ele>817.93</ele>
        <time>2012-05-11T11:59:46Z</time>
      </trkpt>
      <trkpt lat="41.722897" lon="2.331478">
        <ele>823.41</ele>
        <time>2012-05-11T11:59:56Z</time>
      </trkpt>
      <trkpt lat="41.723080" lon="2.331140">
        <ele>822.67</ele>
        <time>2012-05-11T12:00:06Z</time>
      </trkpt>
      <trkpt lat="41.723282" lon="2.330832">
        <ele>817.13</ele>
        <time>2012-05-11T12:00:16Z</time>
      </trkpt>
      <trkpt lat="41.723446" lon="2.330425">
        <ele>814.48</ele>
        <time>2012-05-11T12:00:26Z</time>
      </trkpt>
      <trkpt lat="41.723427" lon="2.329877">
        <ele>819.07</ele>
        <time>2012-05-11T12:00:36Z</time>
      </trkpt>
      <trkpt lat="41.723404" lon="2.329515">
        <ele>823.08</ele>
        <time>2012-05-11T12:00:46Z</time>
      </trkpt>
      <trkpt lat="41.723423" lon="2.329405">
        <ele>823.48</ele>
        <time>2012-05-11T12:00:56Z</time>
      </trkpt>
      <trkpt lat="41.723457" lon="2.329380">
        <ele>822.09</ele>
        <time>2012-05-11T12:01:06Z</time>
      </trkpt>
      <trkpt lat="41.723537" lon="2.329395">
        <ele>817.67</ele>
        <time>2012-05-11T12:01:16Z</time>
      </trkpt>
      <trkpt lat="41.723763" lon="2.329598">
        <ele>803.00</ele>
        <time>2012-05-11T12:01:26Z</time>
      </trkpt>
      <trkpt lat="41.724030" lon="2.329792">
        <ele>802.82</ele>
        <time>2012-05-11T12:01:36Z</time>
      </trkpt>
      <trkpt lat="41.724312" lon="2.330078">
        <ele>797.11</ele>
        <time>2012-05-11T12:01:46Z</time>
      </trkpt>
      <trkpt lat="41.724518" lon="2.330425">
        <ele>785.74</ele>
        <time>2012-05-11T12:01:56Z</time>
      </trkpt>
      <trkpt lat="41.724663" lon="2.330857">
        <ele>773.89</ele>
        <time>2012-05-11T12:02:06Z</time>
      </trkpt>
      <trkpt lat="41.724751" lon="2.331118">
        <ele>767.66</ele>
        <time>2012-05-11T12:02:16Z</time>
      </trkpt>
      <trkpt lat="41.724785" lon="2.331127">
        <ele>767.84</ele>
        <time>2012-05-11T12:02:26Z</time>
      </trkpt>
      <trkpt lat="41.724815" lon="2.331110">
        <ele>768.63</ele>
        <time>2012-05-11T12:02:36Z</time>
      </trkpt>
      <trkpt lat="41.724834" lon="2.331152">
        <ele>767.79</ele>
        <time>2012-05-11T12:02:46Z</time>
      </trkpt>
      <trkpt lat="41.724941" lon="2.331080">
        <ele>770.96</ele>
        <time>2012-05-11T12:02:56Z</time>
      </trkpt>
      <trkpt lat="41.725117" lon="2.330825">
        <ele>779.89</ele>
        <time>2012-05-11T12:03:06Z</time>
      </trkpt>
      <trkpt lat="41.725208" lon="2.330485">
        <ele>789.91</ele>
        <time>2012-05-11T12:03:16Z</time>
      </trkpt>
      <trkpt lat="41.725380" lon="2.330138">
        <ele>800.73</ele>
        <time>2012-05-11T12:03:26Z</time>
      </trkpt>
      <trkpt lat="41.725418" lon="2.329950">
        <ele>805.71</ele>
        <time>2012-05-11T12:03:36Z</time>
      </trkpt>
      <trkpt lat="41.725460" lon="2.329713">
        <ele>811.32</ele>
        <time>2012-05-11T12:03:46Z</time>
      </trkpt>
      <trkpt lat="41.725533" lon="2.329693">
        <ele>811.12</ele>
        <time>2012-05-11T12:03:56Z</time>
      </trkpt>
      <trkpt lat="41.725655" lon="2.329867">
        <ele>805.50</ele>
        <time>2012-05-11T12:04:06Z</time>
      </trkpt>
      <trkpt lat="41.725796" lon="2.330285">
        <ele>792.94</ele>
        <time>2012-05-11T12:04:16Z</time>
      </trkpt>
      <trkpt lat="41.725983" lon="2.330622">
        <ele>781.62</ele>
        <time>2012-05-11T12:04:26Z</time>
      </trkpt>
      <trkpt lat="41.726219" lon="2.330985">
        <ele>768.72</ele>
        <time>2012-05-11T12:04:36Z</time>
      </trkpt>
      <trkpt lat="41.726311" lon="2.331337">
        <ele>761.17</ele>
        <time>2012-05-11T12:04:46Z</time>
      </trkpt>
      <trkpt lat="41.726418" lon="2.331792">
        <ele>753.04</ele>
        <time>2012-05-11T12:04:56Z</time>
      </trkpt>
      <trkpt lat="41.726597" lon="2.332058">
        <ele>753.38</ele>
        <time>2012-05-11T12:05:06Z</time>
      </trkpt>
      <trkpt lat="41.726852" lon="2.332233">
        <ele>756.71</ele>
        <time>2012-05-11T12:05:16Z</time>
      </trkpt>
      <trkpt lat="41.727123" lon="2.332433">
        <ele>757.61</ele>
        <time>2012-05-11T12:05:26Z</time>
      </trkpt>
      <trkpt lat="41.727207" lon="2.332438">
        <ele>758.63</ele>
        <time>2012-05-11T12:05:36Z</time>
      </trkpt>
      <trkpt lat="41.727337" lon="2.332347">
        <ele>764.92</ele>
        <time>2012-05-11T12:05:46Z</time>
      </trkpt>
      <trkpt lat="41.727592" lon="2.332197">
        <ele>776.49</ele>
        <time>2012-05-11T12:05:56Z</time>
      </trkpt>
      <trkpt lat="41.727886" lon="2.332023">
        <ele>789.85</ele>
        <time>2012-05-11T12:06:06Z</time>
      </trkpt>
      <trkpt lat="41.728161" lon="2.331958">
        <ele>782.43</ele>
        <time>2012-05-11T12:06:16Z</time>
      </trkpt>
      <trkpt lat="41.728367" lon="2.331685">
        <ele>783.20</ele>
        <time>2012-05-11T12:06:26Z</time>
      </trkpt>
      <trkpt lat="41.728420" lon="2.331407">
        <ele>790.28</ele>
        <time>2012-05-11T12:06:36Z</time>
      </trkpt>
      <trkpt lat="41.728497" lon="2.330985">
        <ele>799.44</ele>
        <time>2012-05-11T12:06:46Z</time>
      </trkpt>
      <trkpt lat="41.728657" lon="2.330792">
        <ele>797.68</ele>
        <time>2012-05-11T12:06:56Z</time>
      </trkpt>
      <trkpt lat="41.729057" lon="2.330698">
        <ele>782.51</ele>
        <time>2012-05-11T12:07:06Z</time>
      </trkpt>
      <trkpt lat="41.729366" lon="2.330613">
        <ele>772.01</ele>
        <time>2012-05-11T12:07:16Z</time>
      </trkpt>
      <trkpt lat="41.729618" lon="2.330562">
        <ele>763.28</ele>
        <time>2012-05-11T12:07:26Z</time>
      </trkpt>
      <trkpt lat="41.729687" lon="2.330555">
        <ele>760.59</ele>
        <time>2012-05-11T12:07:36Z</time>
      </trkpt>
      <trkpt lat="41.729836" lon="2.330463">
        <ele>757.49</ele>
        <time>2012-05-11T12:07:46Z</time>
      </trkpt>
      <trkpt lat="41.729912" lon="2.330278">
        <ele>757.95</ele>
        <time>2012-05-11T12:07:56Z</time>
      </trkpt>
      <trkpt lat="41.729862" lon="2.329947">
        <ele>765.85</ele>
        <time>2012-05-11T12:08:06Z</time>
      </trkpt>
      <trkpt lat="41.729744" lon="2.329600">
        <ele>777.68</ele>
        <time>2012-05-11T12:08:16Z</time>
      </trkpt>
      <trkpt lat="41.729744" lon="2.329337">
        <ele>782.15</ele>
        <time>2012-05-11T12:08:26Z</time>
      </trkpt>
      <trkpt lat="41.729801" lon="2.329163">
        <ele>782.86</ele>
        <time>2012-05-11T12:08:36Z</time>
      </trkpt>
      <trkpt lat="41.729935" lon="2.329130">
        <ele>778.56</ele>
        <time>2012-05-11T12:08:46Z</time>
      </trkpt>
      <trkpt lat="41.730247" lon="2.329250">
        <ele>763.21</ele>
        <time>2012-05-11T12:08:56Z</time>
      </trkpt>
      <trkpt lat="41.730556" lon="2.329393">
        <ele>751.41</ele>
        <time>2012-05-11T12:09:06Z</time>
      </trkpt>
      <trkpt lat="41.730835" lon="2.329563">
        <ele>744.94</ele>
        <time>2012-05-11T12:09:16Z</time>
      </trkpt>
      <trkpt lat="41.730980" lon="2.329575">
        <ele>744.44</ele>
        <time>2012-05-11T12:09:26Z</time>
      </trkpt>
      <trkpt lat="41.731186" lon="2.329538">
        <ele>746.15</ele>
        <time>2012-05-11T12:09:36Z</time>
      </trkpt>
      <trkpt lat="41.731300" lon="2.329637">
        <ele>742.26</ele>
        <time>2012-05-11T12:09:46Z</time>
      </trkpt>
      <trkpt lat="41.731525" lon="2.329878">
        <ele>733.49</ele>
        <time>2012-05-11T12:09:56Z</time>
      </trkpt>
      <trkpt lat="41.731819" lon="2.330042">
        <ele>727.76</ele>
        <time>2012-05-11T12:10:06Z</time>
      </trkpt>
      <trkpt lat="41.732079" lon="2.330097">
        <ele>726.59</ele>
        <time>2012-05-11T12:10:16Z</time>
      </trkpt>
      <trkpt lat="41.732357" lon="2.330033">
        <ele>729.24</ele>
        <time>2012-05-11T12:10:26Z</time>
      </trkpt>
      <trkpt lat="41.732567" lon="2.330015">
        <ele>729.85</ele>
        <time>2012-05-11T12:10:36Z</time>
      </trkpt>
      <trkpt lat="41.732822" lon="2.330028">
        <ele>728.61</ele>
        <time>2012-05-11T12:10:46Z</time>
      </trkpt>
      <trkpt lat="41.733131" lon="2.329903">
        <ele>732.61</ele>
        <time>2012-05-11T12:10:56Z</time>
      </trkpt>
      <trkpt lat="41.733410" lon="2.329783">
        <ele>736.02</ele>
        <time>2012-05-11T12:11:06Z</time>
      </trkpt>
      <trkpt lat="41.733513" lon="2.329773">
        <ele>735.32</ele>
        <time>2012-05-11T12:11:16Z</time>
      </trkpt>
      <trkpt lat="41.733814" lon="2.329877">
        <ele>724.45</ele>
        <time>2012-05-11T12:11:26Z</time>
      </trkpt>
      <trkpt lat="41.734085" lon="2.329912">
        <ele>717.02</ele>
        <time>2012-05-11T12:11:36Z</time>
      </trkpt>
      <trkpt lat="41.734154" lon="2.329922">
        <ele>715.08</ele>
        <time>2012-05-11T12:11:46Z</time>
      </trkpt>
      <trkpt lat="41.734455" lon="2.329972">
        <ele>706.50</ele>
        <time>2012-05-11T12:11:56Z</time>
      </trkpt>
      <trkpt lat="41.734718" lon="2.329805">
        <ele>705.13</ele>
        <time>2012-05-11T12:12:06Z</time>
      </trkpt>
      <trkpt lat="41.734837" lon="2.329640">
        <ele>705.06</ele>
        <time>2012-05-11T12:12:16Z</time>
      </trkpt>
      <trkpt lat="41.734863" lon="2.329333">
        <ele>706.84</ele>
        <time>2012-05-11T12:12:26Z</time>
      </trkpt>
      <trkpt lat="41.734756" lon="2.328952">
        <ele>716.52</ele>
        <time>2012-05-11T12:12:36Z</time>
      </trkpt>
      <trkpt lat="41.734703" lon="2.328570">
        <ele>717.81</ele>
        <time>2012-05-11T12:12:46Z</time>
      </trkpt>
      <trkpt lat="41.734734" lon="2.328472">
        <ele>714.06</ele>
        <time>2012-05-11T12:12:56Z</time>
      </trkpt>
      <trkpt lat="41.734787" lon="2.328090">
        <ele>704.59</ele>
        <time>2012-05-11T12:13:06Z</time>
      </trkpt>
      <trkpt lat="41.734688" lon="2.327738">
        <ele>705.63</ele>
        <time>2012-05-11T12:13:16Z</time>
      </trkpt>
      <trkpt lat="41.734451" lon="2.327387">
        <ele>713.27</ele>
        <time>2012-05-11T12:13:26Z</time>
      </trkpt>
      <trkpt lat="41.734398" lon="2.327258">
        <ele>714.36</ele>
        <time>2012-05-11T12:13:36Z</time>
      </trkpt>
      <trkpt lat="41.734463" lon="2.327168">
        <ele>711.34</ele>
        <time>2012-05-11T12:13:46Z</time>
      </trkpt>
      <trkpt lat="41.734470" lon="2.327170">
        <ele>711.19</ele>
        <time>2012-05-11T12:13:56Z</time>
      </trkpt>
      <trkpt lat="41.734734" lon="2.327348">
        <ele>705.88</ele>
        <time>2012-05-11T12:14:06Z</time>
      </trkpt>
      <trkpt lat="41.735004" lon="2.327542">
        <ele>699.59</ele>
        <time>2012-05-11T12:14:16Z</time>
      </trkpt>
      <trkpt lat="41.735313" lon="2.327773">
        <ele>686.82</ele>
        <time>2012-05-11T12:14:26Z</time>
      </trkpt>
      <trkpt lat="41.735424" lon="2.327987">
        <ele>678.21</ele>
        <time>2012-05-11T12:14:36Z</time>
      </trkpt>
      <trkpt lat="41.735439" lon="2.328377">
        <ele>673.77</ele>
        <time>2012-05-11T12:14:46Z</time>
      </trkpt>
      <trkpt lat="41.735497" lon="2.328420">
        <ele>672.49</ele>
        <time>2012-05-11T12:14:56Z</time>
      </trkpt>
      <trkpt lat="41.735596" lon="2.328422">
        <ele>671.08</ele>
        <time>2012-05-11T12:15:06Z</time>
      </trkpt>
      <trkpt lat="41.735737" lon="2.328318">
        <ele>670.74</ele>
        <time>2012-05-11T12:15:16Z</time>
      </trkpt>
      <trkpt lat="41.735950" lon="2.328000">
        <ele>674.76</ele>
        <time>2012-05-11T12:15:26Z</time>
      </trkpt>
      <trkpt lat="41.736092" lon="2.327880">
        <ele>676.75</ele>
        <time>2012-05-11T12:15:36Z</time>
      </trkpt>
      <trkpt lat="41.736118" lon="2.327880">
        <ele>676.64</ele>
        <time>2012-05-11T12:15:46Z</time>
      </trkpt>
      <trkpt lat="41.736156" lon="2.327908">
        <ele>675.76</ele>
        <time>2012-05-11T12:15:56Z</time>
      </trkpt>
      <trkpt lat="41.736172" lon="2.328000">
        <ele>673.34</ele>
        <time>2012-05-11T12:16:06Z</time>
      </trkpt>
      <trkpt lat="41.736156" lon="2.328040">
        <ele>672.42</ele>
        <time>2012-05-11T12:16:16Z</time>
      </trkpt>
      <trkpt lat="41.735992" lon="2.328360">
        <ele>666.71</ele>
        <time>2012-05-11T12:16:26Z</time>
      </trkpt>
      <trkpt lat="41.735855" lon="2.328742">
        <ele>661.23</ele>
        <time>2012-05-11T12:16:36Z</time>
      </trkpt>
      <trkpt lat="41.735752" lon="2.328887">
        <ele>661.88</ele>
        <time>2012-05-11T12:16:46Z</time>
      </trkpt>
      <trkpt lat="41.735535" lon="2.329102">
        <ele>665.60</ele>
        <time>2012-05-11T12:16:56Z</time>
      </trkpt>
      <trkpt lat="41.735630" lon="2.329272">
        <ele>661.77</ele>
        <time>2012-05-11T12:17:06Z</time>
      </trkpt>
      <trkpt lat="41.735695" lon="2.329490">
        <ele>657.85</ele>
        <time>2012-05-11T12:17:16Z</time>
      </trkpt>
      <trkpt lat="41.735645" lon="2.329903">
        <ele>655.21</ele>
        <time>2012-05-11T12:17:26Z</time>
      </trkpt>
      <trkpt lat="41.735546" lon="2.330243">
        <ele>654.46</ele>
        <time>2012-05-11T12:17:36Z</time>
      </trkpt>
      <trkpt lat="41.735546" lon="2.330583">
        <ele>647.48</ele>
        <time>2012-05-11T12:17:46Z</time>
      </trkpt>
      <trkpt lat="41.735374" lon="2.330890">
        <ele>640.24</ele>
        <time>2012-05-11T12:17:56Z</time>
      </trkpt>
      <trkpt lat="41.735172" lon="2.331133">
        <ele>633.62</ele>
        <time>2012-05-11T12:18:06Z</time>
      </trkpt>
      <trkpt lat="41.734978" lon="2.331400">
        <ele>629.51</ele>
        <time>2012-05-11T12:18:16Z</time>
      </trkpt>
      <trkpt lat="41.734707" lon="2.331557">
        <ele>629.50</ele>
        <time>2012-05-11T12:18:26Z</time>
      </trkpt>
      <trkpt lat="41.734436" lon="2.331635">
        <ele>629.12</ele>
        <time>2012-05-11T12:18:36Z</time>
      </trkpt>
      <trkpt lat="41.734283" lon="2.331618">
        <ele>629.77</ele>
        <time>2012-05-11T12:18:46Z</time>
      </trkpt>
      <trkpt lat="41.734173" lon="2.331282">
        <ele>636.83</ele>
        <time>2012-05-11T12:18:56Z</time>
      </trkpt>
      <trkpt lat="41.734009" lon="2.331682">
        <ele>628.83</ele>
        <time>2012-05-11T12:19:06Z</time>
      </trkpt>
      <trkpt lat="41.734062" lon="2.331845">
        <ele>625.11</ele>
        <time>2012-05-11T12:19:16Z</time>
      </trkpt>
      <trkpt lat="41.734127" lon="2.331727">
        <ele>627.84</ele>
        <time>2012-05-11T12:19:26Z</time>
      </trkpt>
      <trkpt lat="41.734131" lon="2.331765">
        <ele>627.06</ele>
        <time>2012-05-11T12:19:36Z</time>
      </trkpt>
      <trkpt lat="41.734196" lon="2.331848">
        <ele>625.45</ele>
        <time>2012-05-11T12:19:46Z</time>
      </trkpt>
      <trkpt lat="41.734222" lon="2.331865">
        <ele>625.12</ele>
        <time>2012-05-11T12:19:56Z</time>
      </trkpt>
      <trkpt lat="41.734306" lon="2.331888">
        <ele>625.01</ele>
        <time>2012-05-11T12:20:06Z</time>
      </trkpt>
      <trkpt lat="41.734329" lon="2.331888">
        <ele>625.13</ele>
        <time>2012-05-11T12:20:16Z</time>
      </trkpt>
      <trkpt lat="41.734394" lon="2.331902">
        <ele>625.29</ele>
        <time>2012-05-11T12:20:26Z</time>
      </trkpt>
      <trkpt lat="41.734440" lon="2.331903">
        <ele>625.38</ele>
        <time>2012-05-11T12:20:36Z</time>
      </trkpt>
      <trkpt lat="41.734470" lon="2.331907">
        <ele>625.47</ele>
        <time>2012-05-11T12:20:46Z</time>
      </trkpt>
      <trkpt lat="41.734554" lon="2.331895">
        <ele>625.94</ele>
        <time>2012-05-11T12:20:56Z</time>
      </trkpt>
      <trkpt lat="41.734570" lon="2.331902">
        <ele>625.99</ele>
        <time>2012-05-11T12:21:06Z</time>
      </trkpt>
      <trkpt lat="41.734612" lon="2.331902">
        <ele>626.07</ele>
        <time>2012-05-11T12:21:16Z</time>
      </trkpt>
      <trkpt lat="41.734653" lon="2.331892">
        <ele>626.38</ele>
        <time>2012-05-11T12:21:26Z</time>
      </trkpt>
      <trkpt lat="41.734787" lon="2.331833">
        <ele>627.16</ele>
        <time>2012-05-11T12:21:36Z</time>
      </trkpt>
      <trkpt lat="41.734810" lon="2.331835">
        <ele>627.22</ele>
        <time>2012-05-11T12:21:46Z</time>
      </trkpt>
      <trkpt lat="41.734818" lon="2.331832">
        <ele>627.21</ele>
        <time>2012-05-11T12:21:56Z</time>
      </trkpt>
      <trkpt lat="41.734852" lon="2.331830">
        <ele>627.35</ele>
        <time>2012-05-11T12:22:06Z</time>
      </trkpt>
      <trkpt lat="41.734924" lon="2.331813">
        <ele>627.51</ele>
        <time>2012-05-11T12:22:16Z</time>
      </trkpt>
      <trkpt lat="41.734936" lon="2.331813">
        <ele>627.60</ele>
        <time>2012-05-11T12:22:26Z</time>
      </trkpt>
      <trkpt lat="41.735199" lon="2.331732">
        <ele>628.19</ele>
        <time>2012-05-11T12:22:36Z</time>
      </trkpt>
      <trkpt lat="41.735302" lon="2.331608">
        <ele>628.06</ele>
        <time>2012-05-11T12:22:46Z</time>
      </trkpt>
      <trkpt lat="41.735317" lon="2.331593">
        <ele>628.02</ele>
        <time>2012-05-11T12:22:56Z</time>
      </trkpt>
      <trkpt lat="41.735466" lon="2.331495">
        <ele>628.15</ele>
        <time>2012-05-11T12:23:06Z</time>
      </trkpt>
      <trkpt lat="41.735485" lon="2.331495">
        <ele>628.43</ele>
        <time>2012-05-11T12:23:16Z</time>
      </trkpt>
      <trkpt lat="41.735577" lon="2.331505">
        <ele>629.59</ele>
        <time>2012-05-11T12:23:26Z</time>
      </trkpt>
      <trkpt lat="41.735813" lon="2.331672">
        <ele>634.01</ele>
        <time>2012-05-11T12:23:36Z</time>
      </trkpt>
      <trkpt lat="41.735962" lon="2.331850">
        <ele>638.81</ele>
        <time>2012-05-11T12:23:46Z</time>
      </trkpt>
      <trkpt lat="41.736050" lon="2.331947">
        <ele>642.05</ele>
        <time>2012-05-11T12:23:56Z</time>
      </trkpt>
      <trkpt lat="41.736122" lon="2.332017">
        <ele>644.86</ele>
        <time>2012-05-11T12:24:06Z</time>
      </trkpt>
      <trkpt lat="41.736153" lon="2.332005">
        <ele>645.27</ele>
        <time>2012-05-11T12:24:16Z</time>
      </trkpt>
      <trkpt lat="41.736198" lon="2.332013">
        <ele>646.43</ele>
        <time>2012-05-11T12:24:26Z</time>
      </trkpt>
      <trkpt lat="41.736233" lon="2.332030">
        <ele>647.57</ele>
        <time>2012-05-11T12:24:36Z</time>
      </trkpt>
      <trkpt lat="41.736279" lon="2.332042">
        <ele>648.48</ele>
        <time>2012-05-11T12:24:46Z</time>
      </trkpt>
      <trkpt lat="41.736423" lon="2.332152">
        <ele>652.93</ele>
        <time>2012-05-11T12:24:56Z</time>
      </trkpt>
      <trkpt lat="41.736629" lon="2.332385">
        <ele>661.52</ele>
        <time>2012-05-11T12:25:06Z</time>
      </trkpt>
      <trkpt lat="41.736790" lon="2.332427">
        <ele>662.71</ele>
        <time>2012-05-11T12:25:16Z</time>
      </trkpt>
      <trkpt lat="41.736832" lon="2.332407">
        <ele>662.22</ele>
        <time>2012-05-11T12:25:26Z</time>
      </trkpt>
      <trkpt lat="41.736912" lon="2.332373">
        <ele>661.41</ele>
        <time>2012-05-11T12:25:36Z</time>
      </trkpt>
      <trkpt lat="41.736942" lon="2.332388">
        <ele>661.86</ele>
        <time>2012-05-11T12:25:46Z</time>
      </trkpt>
      <trkpt lat="41.736988" lon="2.332417">
        <ele>662.48</ele>
        <time>2012-05-11T12:25:56Z</time>
      </trkpt>
      <trkpt lat="41.737152" lon="2.332712">
        <ele>669.01</ele>
        <time>2012-05-11T12:26:06Z</time>
      </trkpt>
      <trkpt lat="41.737267" lon="2.333002">
        <ele>676.27</ele>
        <time>2012-05-11T12:26:16Z</time>
      </trkpt>
      <trkpt lat="41.737263" lon="2.333052">
        <ele>677.98</ele>
        <time>2012-05-11T12:26:26Z</time>
      </trkpt>
      <trkpt lat="41.737232" lon="2.333127">
        <ele>680.42</ele>
        <time>2012-05-11T12:26:36Z</time>
      </trkpt>
      <trkpt lat="41.737194" lon="2.333318">
        <ele>687.36</ele>
        <time>2012-05-11T12:26:46Z</time>
      </trkpt>
      <trkpt lat="41.737312" lon="2.333645">
        <ele>697.30</ele>
        <time>2012-05-11T12:26:56Z</time>
      </trkpt>
      <trkpt lat="41.737400" lon="2.333990">
        <ele>707.02</ele>
        <time>2012-05-11T12:27:06Z</time>
      </trkpt>
      <trkpt lat="41.737438" lon="2.334102">
        <ele>709.73</ele>
        <time>2012-05-11T12:27:16Z</time>
      </trkpt>
      <trkpt lat="41.737465" lon="2.334135">
        <ele>710.01</ele>
        <time>2012-05-11T12:27:26Z</time>
      </trkpt>
      <trkpt lat="41.737556" lon="2.334360">
        <ele>714.11</ele>
        <time>2012-05-11T12:27:36Z</time>
      </trkpt>
      <trkpt lat="41.737621" lon="2.334508">
        <ele>715.97</ele>
        <time>2012-05-11T12:27:46Z</time>
      </trkpt>
      <trkpt lat="41.737724" lon="2.334828">
        <ele>719.97</ele>
        <time>2012-05-11T12:27:56Z</time>
      </trkpt>
      <trkpt lat="41.737751" lon="2.334852">
        <ele>719.33</ele>
        <time>2012-05-11T12:28:06Z</time>
      </trkpt>
      <trkpt lat="41.737915" lon="2.335045">
        <ele>716.66</ele>
        <time>2012-05-11T12:28:16Z</time>
      </trkpt>
      <trkpt lat="41.737999" lon="2.334998">
        <ele>716.29</ele>
        <time>2012-05-11T12:28:26Z</time>
      </trkpt>
      <trkpt lat="41.738022" lon="2.335003">
        <ele>716.53</ele>
        <time>2012-05-11T12:28:36Z</time>
      </trkpt>
      <trkpt lat="41.738014" lon="2.335007">
        <ele>716.59</ele>
        <time>2012-05-11T12:28:46Z</time>
      </trkpt>
      <trkpt lat="41.738014" lon="2.334995">
        <ele>716.36</ele>
        <time>2012-05-11T12:28:56Z</time>
      </trkpt>
      <trkpt lat="41.738068" lon="2.334772">
        <ele>712.33</ele>
        <time>2012-05-11T12:29:06Z</time>
      </trkpt>
      <trkpt lat="41.738140" lon="2.334423">
        <ele>707.21</ele>
        <time>2012-05-11T12:29:16Z</time>
      </trkpt>
      <trkpt lat="41.738201" lon="2.334062">
        <ele>702.98</ele>
        <time>2012-05-11T12:29:26Z</time>
      </trkpt>
      <trkpt lat="41.738220" lon="2.333687">
        <ele>698.22</ele>
        <time>2012-05-11T12:29:36Z</time>
      </trkpt>
      <trkpt lat="41.738258" lon="2.333560">
        <ele>698.23</ele>
        <time>2012-05-11T12:29:46Z</time>
      </trkpt>
      <trkpt lat="41.738346" lon="2.333383">
        <ele>699.77</ele>
        <time>2012-05-11T12:29:56Z</time>
      </trkpt>
      <trkpt lat="41.738335" lon="2.332992">
        <ele>695.80</ele>
        <time>2012-05-11T12:30:06Z</time>
      </trkpt>
      <trkpt lat="41.738304" lon="2.332848">
        <ele>693.98</ele>
        <time>2012-05-11T12:30:16Z</time>
      </trkpt>
      <trkpt lat="41.738338" lon="2.332543">
        <ele>695.69</ele>
        <time>2012-05-11T12:30:26Z</time>
      </trkpt>
      <trkpt lat="41.738354" lon="2.332485">
        <ele>696.39</ele>
        <time>2012-05-11T12:30:36Z</time>
      </trkpt>
      <trkpt lat="41.738415" lon="2.332132">
        <ele>698.76</ele>
        <time>2012-05-11T12:30:46Z</time>
      </trkpt>
      <trkpt lat="41.738472" lon="2.332037">
        <ele>700.93</ele>
        <time>2012-05-11T12:30:56Z</time>
      </trkpt>
      <trkpt lat="41.738682" lon="2.331770">
        <ele>707.21</ele>
        <time>2012-05-11T12:31:06Z</time>
      </trkpt>
      <trkpt lat="41.738708" lon="2.331727">
        <ele>707.75</ele>
        <time>2012-05-11T12:31:16Z</time>
      </trkpt>
      <trkpt lat="41.738853" lon="2.331562">
        <ele>709.88</ele>
        <time>2012-05-11T12:31:26Z</time>
      </trkpt>
      <trkpt lat="41.738972" lon="2.331408">
        <ele>710.43</ele>
        <time>2012-05-11T12:31:36Z</time>
      </trkpt>
      <trkpt lat="41.739208" lon="2.331227">
        <ele>711.08</ele>
        <time>2012-05-11T12:31:46Z</time>
      </trkpt>
      <trkpt lat="41.739449" lon="2.331062">
        <ele>709.79</ele>
        <time>2012-05-11T12:31:56Z</time>
      </trkpt>
      <trkpt lat="41.739529" lon="2.330988">
        <ele>708.68</ele>
        <time>2012-05-11T12:32:06Z</time>
      </trkpt>
      <trkpt lat="41.739647" lon="2.330953">
        <ele>708.75</ele>
        <time>2012-05-11T12:32:16Z</time>
      </trkpt>
      <trkpt lat="41.739845" lon="2.331038">
        <ele>711.80</ele>
        <time>2012-05-11T12:32:26Z</time>
      </trkpt>
      <trkpt lat="41.739914" lon="2.331108">
        <ele>713.51</ele>
        <time>2012-05-11T12:32:36Z</time>
      </trkpt>
      <trkpt lat="41.739967" lon="2.331172">
        <ele>714.93</ele>
        <time>2012-05-11T12:32:46Z</time>
      </trkpt>
      <trkpt lat="41.740173" lon="2.331440">
        <ele>722.31</ele>
        <time>2012-05-11T12:32:56Z</time>
      </trkpt>
      <trkpt lat="41.740410" lon="2.331638">
        <ele>729.64</ele>
        <time>2012-05-11T12:33:06Z</time>
      </trkpt>
      <trkpt lat="41.740665" lon="2.331760">
        <ele>732.55</ele>
        <time>2012-05-11T12:33:16Z</time>
      </trkpt>
      <trkpt lat="41.740696" lon="2.331767">
        <ele>732.68</ele>
        <time>2012-05-11T12:33:26Z</time>
      </trkpt>
      <trkpt lat="41.740971" lon="2.331728">
        <ele>730.84</ele>
        <time>2012-05-11T12:33:36Z</time>
      </trkpt>
      <trkpt lat="41.741001" lon="2.331722">
        <ele>730.66</ele>
        <time>2012-05-11T12:33:46Z</time>
      </trkpt>
      <trkpt lat="41.741066" lon="2.331722">
        <ele>730.47</ele>
        <time>2012-05-11T12:33:56Z</time>
      </trkpt>
      <trkpt lat="41.741085" lon="2.331720">
        <ele>730.38</ele>
        <time>2012-05-11T12:34:06Z</time>
      </trkpt>
      <trkpt lat="41.741096" lon="2.331722">
        <ele>730.37</ele>
        <time>2012-05-11T12:34:16Z</time>
      </trkpt>
      <trkpt lat="41.741108" lon="2.331723">
        <ele>730.33</ele>
        <time>2012-05-11T12:34:26Z</time>
      </trkpt>
      <trkpt lat="41.741203" lon="2.331762">
        <ele>730.82</ele>
        <time>2012-05-11T12:34:36Z</time>
      </trkpt>
      <trkpt lat="41.741432" lon="2.331963">
        <ele>735.21</ele>
        <time>2012-05-11T12:34:46Z</time>
      </trkpt>
      <trkpt lat="41.741508" lon="2.332053">
        <ele>736.69</ele>
        <time>2012-05-11T12:34:56Z</time>
      </trkpt>
      <trkpt lat="41.741539" lon="2.332065">
        <ele>736.94</ele>
        <time>2012-05-11T12:35:06Z</time>
      </trkpt>
      <trkpt lat="41.741562" lon="2.332073">
        <ele>737.05</ele>
        <time>2012-05-11T12:35:16Z</time>
      </trkpt>
      <trkpt lat="41.741817" lon="2.332225">
        <ele>742.51</ele>
        <time>2012-05-11T12:35:26Z</time>
      </trkpt>
      <trkpt lat="41.742062" lon="2.332385">
        <ele>747.05</ele>
        <time>2012-05-11T12:35:36Z</time>
      </trkpt>
      <trkpt lat="41.742302" lon="2.332538">
        <ele>752.54</ele>
        <time>2012-05-11T12:35:46Z</time>
      </trkpt>
      <trkpt lat="41.742371" lon="2.332595">
        <ele>753.97</ele>
        <time>2012-05-11T12:35:56Z</time>
      </trkpt>
      <trkpt lat="41.742409" lon="2.332622">
        <ele>754.66</ele>
        <time>2012-05-11T12:36:06Z</time>
      </trkpt>
      <trkpt lat="41.742443" lon="2.332638">
        <ele>754.95</ele>
        <time>2012-05-11T12:36:16Z</time>
      </trkpt>
      <trkpt lat="41.742683" lon="2.332808">
        <ele>757.22</ele>
        <time>2012-05-11T12:36:26Z</time>
      </trkpt>
      <trkpt lat="41.742851" lon="2.332998">
        <ele>760.41</ele>
        <time>2012-05-11T12:36:36Z</time>
      </trkpt>
      <trkpt lat="41.742882" lon="2.333115">
        <ele>764.63</ele>
        <time>2012-05-11T12:36:46Z</time>
      </trkpt>
      <trkpt lat="41.742950" lon="2.333190">
        <ele>767.57</ele>
        <time>2012-05-11T12:36:56Z</time>
      </trkpt>
      <trkpt lat="41.743015" lon="2.333200">
        <ele>768.66</ele>
        <time>2012-05-11T12:37:06Z</time>
      </trkpt>
      <trkpt lat="41.743092" lon="2.333145">
        <ele>767.77</ele>
        <time>2012-05-11T12:37:16Z</time>
      </trkpt>
      <trkpt lat="41.743153" lon="2.333025">
        <ele>765.19</ele>
        <time>2012-05-11T12:37:26Z</time>
      </trkpt>
      <trkpt lat="41.743164" lon="2.332957">
        <ele>763.52</ele>
        <time>2012-05-11T12:37:36Z</time>
      </trkpt>
      <trkpt lat="41.743183" lon="2.332930">
        <ele>763.19</ele>
        <time>2012-05-11T12:37:46Z</time>
      </trkpt>
      <trkpt lat="41.743240" lon="2.332692">
        <ele>765.15</ele>
        <time>2012-05-11T12:37:56Z</time>
      </trkpt>
      <trkpt lat="41.743214" lon="2.332322">
        <ele>766.03</ele>
        <time>2012-05-11T12:38:06Z</time>
      </trkpt>
      <trkpt lat="41.743202" lon="2.332202">
        <ele>766.12</ele>
        <time>2012-05-11T12:38:16Z</time>
      </trkpt>
      <trkpt lat="41.743206" lon="2.332188">
        <ele>766.31</ele>
        <time>2012-05-11T12:38:26Z</time>
      </trkpt>
      <trkpt lat="41.743080" lon="2.331865">
        <ele>763.87</ele>
        <time>2012-05-11T12:38:36Z</time>
      </trkpt>
      <trkpt lat="41.743073" lon="2.331858">
        <ele>763.64</ele>
        <time>2012-05-11T12:38:46Z</time>
      </trkpt>
      <trkpt lat="41.743027" lon="2.331775">
        <ele>762.61</ele>
        <time>2012-05-11T12:38:56Z</time>
      </trkpt>
      <trkpt lat="41.742985" lon="2.331675">
        <ele>762.00</ele>
        <time>2012-05-11T12:39:06Z</time>
      </trkpt>
      <trkpt lat="41.742977" lon="2.331665">
        <ele>761.72</ele>
        <time>2012-05-11T12:39:16Z</time>
      </trkpt>
      <trkpt lat="41.742882" lon="2.331303">
        <ele>761.75</ele>
        <time>2012-05-11T12:39:26Z</time>
      </trkpt>
      <trkpt lat="41.742886" lon="2.331122">
        <ele>764.79</ele>
        <time>2012-05-11T12:39:36Z</time>
      </trkpt>
      <trkpt lat="41.742947" lon="2.331047">
        <ele>767.97</ele>
        <time>2012-05-11T12:39:46Z</time>
      </trkpt>
      <trkpt lat="41.742989" lon="2.331068">
        <ele>769.01</ele>
        <time>2012-05-11T12:39:56Z</time>
      </trkpt>
      <trkpt lat="41.743156" lon="2.331323">
        <ele>770.81</ele>
        <time>2012-05-11T12:40:06Z</time>
      </trkpt>
      <trkpt lat="41.743382" lon="2.331532">
        <ele>777.21</ele>
        <time>2012-05-11T12:40:16Z</time>
      </trkpt>
      <trkpt lat="41.743519" lon="2.331638">
        <ele>781.47</ele>
        <time>2012-05-11T12:40:26Z</time>
      </trkpt>
      <trkpt lat="41.743526" lon="2.331653">
        <ele>781.51</ele>
        <time>2012-05-11T12:40:36Z</time>
      </trkpt>
      <trkpt lat="41.743576" lon="2.331670">
        <ele>783.30</ele>
        <time>2012-05-11T12:40:46Z</time>
      </trkpt>
      <trkpt lat="41.743622" lon="2.331653">
        <ele>785.03</ele>
        <time>2012-05-11T12:40:56Z</time>
      </trkpt>
      <trkpt lat="41.743652" lon="2.331615">
        <ele>786.35</ele>
        <time>2012-05-11T12:41:06Z</time>
      </trkpt>
      <trkpt lat="41.743633" lon="2.331525">
        <ele>786.29</ele>
        <time>2012-05-11T12:41:16Z</time>
      </trkpt>
      <trkpt lat="41.743439" lon="2.331442">
        <ele>779.93</ele>
        <time>2012-05-11T12:41:26Z</time>
      </trkpt>
      <trkpt lat="41.743404" lon="2.331250">
        <ele>780.05</ele>
        <time>2012-05-11T12:41:36Z</time>
      </trkpt>
      <trkpt lat="41.743481" lon="2.330898">
        <ele>788.53</ele>
        <time>2012-05-11T12:41:46Z</time>
      </trkpt>
      <trkpt lat="41.743580" lon="2.330548">
        <ele>797.62</ele>
        <time>2012-05-11T12:41:56Z</time>
      </trkpt>
      <trkpt lat="41.743687" lon="2.330212">
        <ele>809.21</ele>
        <time>2012-05-11T12:42:06Z</time>
      </trkpt>
      <trkpt lat="41.743664" lon="2.330138">
        <ele>810.78</ele>
        <time>2012-05-11T12:42:16Z</time>
      </trkpt>
      <trkpt lat="41.743481" lon="2.329962">
        <ele>810.43</ele>
        <time>2012-05-11T12:42:26Z</time>
      </trkpt>
      <trkpt lat="41.743267" lon="2.329702">
        <ele>811.94</ele>
        <time>2012-05-11T12:42:36Z</time>
      </trkpt>
      <trkpt lat="41.743134" lon="2.329472">
        <ele>813.68</ele>
        <time>2012-05-11T12:42:46Z</time>
      </trkpt>
      <trkpt lat="41.743084" lon="2.329357">
        <ele>814.24</ele>
        <time>2012-05-11T12:42:56Z</time>
      </trkpt>
      <trkpt lat="41.743008" lon="2.329132">
        <ele>815.77</ele>
        <time>2012-05-11T12:43:06Z</time>
      </trkpt>
      <trkpt lat="41.742989" lon="2.329082">
        <ele>816.04</ele>
        <time>2012-05-11T12:43:16Z</time>
      </trkpt>
      <trkpt lat="41.742970" lon="2.329053">
        <ele>815.85</ele>
        <time>2012-05-11T12:43:26Z</time>
      </trkpt>
      <trkpt lat="41.742867" lon="2.328893">
        <ele>815.06</ele>
        <time>2012-05-11T12:43:36Z</time>
      </trkpt>
      <trkpt lat="41.742668" lon="2.328633">
        <ele>810.02</ele>
        <time>2012-05-11T12:43:46Z</time>
      </trkpt>
      <trkpt lat="41.742626" lon="2.328540">
        <ele>808.21</ele>
        <time>2012-05-11T12:43:56Z</time>
      </trkpt>
      <trkpt lat="41.742607" lon="2.328417">
        <ele>807.29</ele>
        <time>2012-05-11T12:44:06Z</time>
      </trkpt>
      <trkpt lat="41.742619" lon="2.328393">
        <ele>807.55</ele>
        <time>2012-05-11T12:44:16Z</time>
      </trkpt>
      <trkpt lat="41.742737" lon="2.328275">
        <ele>811.25</ele>
        <time>2012-05-11T12:44:26Z</time>
      </trkpt>
      <trkpt lat="41.742779" lon="2.328190">
        <ele>812.35</ele>
        <time>2012-05-11T12:44:36Z</time>
      </trkpt>
      <trkpt lat="41.742722" lon="2.328358">
        <ele>810.91</ele>
        <time>2012-05-11T12:44:46Z</time>
      </trkpt>
      <trkpt lat="41.742828" lon="2.328005">
        <ele>813.37</ele>
        <time>2012-05-11T12:44:56Z</time>
      </trkpt>
      <trkpt lat="41.742672" lon="2.328343">
        <ele>809.23</ele>
        <time>2012-05-11T12:45:06Z</time>
      </trkpt>
      <trkpt lat="41.742565" lon="2.328563">
        <ele>806.25</ele>
        <time>2012-05-11T12:45:16Z</time>
      </trkpt>
      <trkpt lat="41.742626" lon="2.328488">
        <ele>808.10</ele>
        <time>2012-05-11T12:45:26Z</time>
      </trkpt>
      <trkpt lat="41.742641" lon="2.328185">
        <ele>807.61</ele>
        <time>2012-05-11T12:45:36Z</time>
      </trkpt>
      <trkpt lat="41.742699" lon="2.327828">
        <ele>808.11</ele>
        <time>2012-05-11T12:45:46Z</time>
      </trkpt>
      <trkpt lat="41.742744" lon="2.327703">
        <ele>808.92</ele>
        <time>2012-05-11T12:45:56Z</time>
      </trkpt>
      <trkpt lat="41.742825" lon="2.327667">
        <ele>811.51</ele>
        <time>2012-05-11T12:46:06Z</time>
      </trkpt>
      <trkpt lat="41.742901" lon="2.327650">
        <ele>814.24</ele>
        <time>2012-05-11T12:46:16Z</time>
      </trkpt>
      <trkpt lat="41.742920" lon="2.327635">
        <ele>814.81</ele>
        <time>2012-05-11T12:46:26Z</time>
      </trkpt>
      <trkpt lat="41.743153" lon="2.327432">
        <ele>824.22</ele>
        <time>2012-05-11T12:46:36Z</time>
      </trkpt>
      <trkpt lat="41.743267" lon="2.327330">
        <ele>828.97</ele>
        <time>2012-05-11T12:46:46Z</time>
      </trkpt>
      <trkpt lat="41.743347" lon="2.327235">
        <ele>832.25</ele>
        <time>2012-05-11T12:46:56Z</time>
      </trkpt>
      <trkpt lat="41.743385" lon="2.327212">
        <ele>833.88</ele>
        <time>2012-05-11T12:47:06Z</time>
      </trkpt>
      <trkpt lat="41.743431" lon="2.327168">
        <ele>835.74</ele>
        <time>2012-05-11T12:47:16Z</time>
      </trkpt>
      <trkpt lat="41.743462" lon="2.327118">
        <ele>837.02</ele>
        <time>2012-05-11T12:47:26Z</time>
      </trkpt>
      <trkpt lat="41.743473" lon="2.327008">
        <ele>838.51</ele>
        <time>2012-05-11T12:47:36Z</time>
      </trkpt>
      <trkpt lat="41.743477" lon="2.326975">
        <ele>839.25</ele>
        <time>2012-05-11T12:47:46Z</time>
      </trkpt>
      <trkpt lat="41.743469" lon="2.326893">
        <ele>840.07</ele>
        <time>2012-05-11T12:47:56Z</time>
      </trkpt>
      <trkpt lat="41.743328" lon="2.326762">
        <ele>835.43</ele>
        <time>2012-05-11T12:48:06Z</time>
      </trkpt>
      <trkpt lat="41.743271" lon="2.326568">
        <ele>835.53</ele>
        <time>2012-05-11T12:48:16Z</time>
      </trkpt>
      <trkpt lat="41.743198" lon="2.326433">
        <ele>833.94</ele>
        <time>2012-05-11T12:48:26Z</time>
      </trkpt>
      <trkpt lat="41.743202" lon="2.326070">
        <ele>837.16</ele>
        <time>2012-05-11T12:48:36Z</time>
      </trkpt>
      <trkpt lat="41.743290" lon="2.325712">
        <ele>842.25</ele>
        <time>2012-05-11T12:48:46Z</time>
      </trkpt>
      <trkpt lat="41.743305" lon="2.325587">
        <ele>843.22</ele>
        <time>2012-05-11T12:48:56Z</time>
      </trkpt>
      <trkpt lat="41.743313" lon="2.325553">
        <ele>843.76</ele>
        <time>2012-05-11T12:49:06Z</time>
      </trkpt>
      <trkpt lat="41.743355" lon="2.325192">
        <ele>845.21</ele>
        <time>2012-05-11T12:49:16Z</time>
      </trkpt>
      <trkpt lat="41.743462" lon="2.324843">
        <ele>849.31</ele>
        <time>2012-05-11T12:49:26Z</time>
      </trkpt>
      <trkpt lat="41.743607" lon="2.324538">
        <ele>855.87</ele>
        <time>2012-05-11T12:49:36Z</time>
      </trkpt>
      <trkpt lat="41.743637" lon="2.324368">
        <ele>857.34</ele>
        <time>2012-05-11T12:49:46Z</time>
      </trkpt>
      <trkpt lat="41.743629" lon="2.324312">
        <ele>856.99</ele>
        <time>2012-05-11T12:49:56Z</time>
      </trkpt>
      <trkpt lat="41.743649" lon="2.324193">
        <ele>857.92</ele>
        <time>2012-05-11T12:50:06Z</time>
      </trkpt>
      <trkpt lat="41.743748" lon="2.323947">
        <ele>862.97</ele>
        <time>2012-05-11T12:50:16Z</time>
      </trkpt>
      <trkpt lat="41.743805" lon="2.323582">
        <ele>865.52</ele>
        <time>2012-05-11T12:50:26Z</time>
      </trkpt>
      <trkpt lat="41.743793" lon="2.323467">
        <ele>865.22</ele>
        <time>2012-05-11T12:50:36Z</time>
      </trkpt>
      <trkpt lat="41.743778" lon="2.323445">
        <ele>864.79</ele>
        <time>2012-05-11T12:50:46Z</time>
      </trkpt>
      <trkpt lat="41.743763" lon="2.323430">
        <ele>864.25</ele>
        <time>2012-05-11T12:50:56Z</time>
      </trkpt>
      <trkpt lat="41.743748" lon="2.323037">
        <ele>864.62</ele>
        <time>2012-05-11T12:51:06Z</time>
      </trkpt>
      <trkpt lat="41.743778" lon="2.322987">
        <ele>865.61</ele>
        <time>2012-05-11T12:51:16Z</time>
      </trkpt>
      <trkpt lat="41.743900" lon="2.322938">
        <ele>869.19</ele>
        <time>2012-05-11T12:51:26Z</time>
      </trkpt>
      <trkpt lat="41.743938" lon="2.322933">
        <ele>870.23</ele>
        <time>2012-05-11T12:51:36Z</time>
      </trkpt>
      <trkpt lat="41.744053" lon="2.322842">
        <ele>873.54</ele>
        <time>2012-05-11T12:51:46Z</time>
      </trkpt>
      <trkpt lat="41.744087" lon="2.322837">
        <ele>874.34</ele>
        <time>2012-05-11T12:51:56Z</time>
      </trkpt>
      <trkpt lat="41.744347" lon="2.322730">
        <ele>880.15</ele>
        <time>2012-05-11T12:52:06Z</time>
      </trkpt>
      <trkpt lat="41.744404" lon="2.322727">
        <ele>881.34</ele>
        <time>2012-05-11T12:52:16Z</time>
      </trkpt>
      <trkpt lat="41.744518" lon="2.322787">
        <ele>884.66</ele>
        <time>2012-05-11T12:52:26Z</time>
      </trkpt>
      <trkpt lat="41.744667" lon="2.322770">
        <ele>887.02</ele>
        <time>2012-05-11T12:52:36Z</time>
      </trkpt>
      <trkpt lat="41.744678" lon="2.322768">
        <ele>887.13</ele>
        <time>2012-05-11T12:52:46Z</time>
      </trkpt>
      <trkpt lat="41.744732" lon="2.322755">
        <ele>887.61</ele>
        <time>2012-05-11T12:52:56Z</time>
      </trkpt>
      <trkpt lat="41.744766" lon="2.322752">
        <ele>888.01</ele>
        <time>2012-05-11T12:53:06Z</time>
      </trkpt>
      <trkpt lat="41.744820" lon="2.322742">
        <ele>888.63</ele>
        <time>2012-05-11T12:53:16Z</time>
      </trkpt>
      <trkpt lat="41.744850" lon="2.322763">
        <ele>889.37</ele>
        <time>2012-05-11T12:53:26Z</time>
      </trkpt>
      <trkpt lat="41.744995" lon="2.322838">
        <ele>892.34</ele>
        <time>2012-05-11T12:53:36Z</time>
      </trkpt>
      <trkpt lat="41.745010" lon="2.322823">
        <ele>892.40</ele>
        <time>2012-05-11T12:53:46Z</time>
      </trkpt>
      <trkpt lat="41.745026" lon="2.322825">
        <ele>892.52</ele>
        <time>2012-05-11T12:53:56Z</time>
      </trkpt>
      <trkpt lat="41.745087" lon="2.322840">
        <ele>893.52</ele>
        <time>2012-05-11T12:54:06Z</time>
      </trkpt>
      <trkpt lat="41.745125" lon="2.322850">
        <ele>894.22</ele>
        <time>2012-05-11T12:54:16Z</time>
      </trkpt>
      <trkpt lat="41.745144" lon="2.322848">
        <ele>894.49</ele>
        <time>2012-05-11T12:54:26Z</time>
      </trkpt>
      <trkpt lat="41.745251" lon="2.322863">
        <ele>896.08</ele>
        <time>2012-05-11T12:54:36Z</time>
      </trkpt>
      <trkpt lat="41.745304" lon="2.322850">
        <ele>896.62</ele>
        <time>2012-05-11T12:54:46Z</time>
      </trkpt>
      <trkpt lat="41.745495" lon="2.322838">
        <ele>899.41</ele>
        <time>2012-05-11T12:54:56Z</time>
      </trkpt>
      <trkpt lat="41.745564" lon="2.322812">
        <ele>900.47</ele>
        <time>2012-05-11T12:55:06Z</time>
      </trkpt>
      <trkpt lat="41.745834" lon="2.322818">
        <ele>905.94</ele>
        <time>2012-05-11T12:55:16Z</time>
      </trkpt>
      <trkpt lat="41.746105" lon="2.322862">
        <ele>911.79</ele>
        <time>2012-05-11T12:55:26Z</time>
      </trkpt>
      <trkpt lat="41.746384" lon="2.322808">
        <ele>917.57</ele>
        <time>2012-05-11T12:55:36Z</time>
      </trkpt>
      <trkpt lat="41.746475" lon="2.322835">
        <ele>919.93</ele>
        <time>2012-05-11T12:55:46Z</time>
      </trkpt>
      <trkpt lat="41.746487" lon="2.322837">
        <ele>920.32</ele>
        <time>2012-05-11T12:55:56Z</time>
      </trkpt>
      <trkpt lat="41.746708" lon="2.323048">
        <ele>928.76</ele>
        <time>2012-05-11T12:56:06Z</time>
      </trkpt>
      <trkpt lat="41.746761" lon="2.323133">
        <ele>931.95</ele>
        <time>2012-05-11T12:56:16Z</time>
      </trkpt>
      <trkpt lat="41.746891" lon="2.323458">
        <ele>941.75</ele>
        <time>2012-05-11T12:56:26Z</time>
      </trkpt>
      <trkpt lat="41.746937" lon="2.323578">
        <ele>944.91</ele>
        <time>2012-05-11T12:56:36Z</time>
      </trkpt>
      <trkpt lat="41.747017" lon="2.323692">
        <ele>948.21</ele>
        <time>2012-05-11T12:56:46Z</time>
      </trkpt>
      <trkpt lat="41.747032" lon="2.323738">
        <ele>949.37</ele>
        <time>2012-05-11T12:56:56Z</time>
      </trkpt>
      <trkpt lat="41.747051" lon="2.323768">
        <ele>950.23</ele>
        <time>2012-05-11T12:57:06Z</time>
      </trkpt>
      <trkpt lat="41.747120" lon="2.323923">
        <ele>955.71</ele>
        <time>2012-05-11T12:57:16Z</time>
      </trkpt>
      <trkpt lat="41.747337" lon="2.324150">
        <ele>963.50</ele>
        <time>2012-05-11T12:57:26Z</time>
      </trkpt>
      <trkpt lat="41.747349" lon="2.324157">
        <ele>963.68</ele>
        <time>2012-05-11T12:57:36Z</time>
      </trkpt>
      <trkpt lat="41.747364" lon="2.324163">
        <ele>963.87</ele>
        <time>2012-05-11T12:57:46Z</time>
      </trkpt>
      <trkpt lat="41.747375" lon="2.324173">
        <ele>964.07</ele>
        <time>2012-05-11T12:57:56Z</time>
      </trkpt>
      <trkpt lat="41.747433" lon="2.324230">
        <ele>965.23</ele>
        <time>2012-05-11T12:58:06Z</time>
      </trkpt>
      <trkpt lat="41.747437" lon="2.324252">
        <ele>965.67</ele>
        <time>2012-05-11T12:58:16Z</time>
      </trkpt>
      <trkpt lat="41.747433" lon="2.324283">
        <ele>966.11</ele>
        <time>2012-05-11T12:58:26Z</time>
      </trkpt>
      <trkpt lat="41.747414" lon="2.324303">
        <ele>966.51</ele>
        <time>2012-05-11T12:58:36Z</time>
      </trkpt>
      <trkpt lat="41.747414" lon="2.324285">
        <ele>966.27</ele>
        <time>2012-05-11T12:58:46Z</time>
      </trkpt>
      <trkpt lat="41.747417" lon="2.324257">
        <ele>965.75</ele>
        <time>2012-05-11T12:58:56Z</time>
      </trkpt>
      <trkpt lat="41.747391" lon="2.324225">
        <ele>965.12</ele>
        <time>2012-05-11T12:59:06Z</time>
      </trkpt>
      <trkpt lat="41.747398" lon="2.324192">
        <ele>964.57</ele>
        <time>2012-05-11T12:59:16Z</time>
      </trkpt>
      <trkpt lat="41.747410" lon="2.324082">
        <ele>962.68</ele>
        <time>2012-05-11T12:59:26Z</time>
      </trkpt>
      <trkpt lat="41.747192" lon="2.323960">
        <ele>957.72</ele>
        <time>2012-05-11T12:59:36Z</time>
      </trkpt>
      <trkpt lat="41.747135" lon="2.323947">
        <ele>956.68</ele>
        <time>2012-05-11T12:59:46Z</time>
      </trkpt>
      <trkpt lat="41.747128" lon="2.323925">
        <ele>955.94</ele>
        <time>2012-05-11T12:59:56Z</time>
      </trkpt>
      <trkpt lat="41.746876" lon="2.323755">
        <ele>948.20</ele>
        <time>2012-05-11T13:00:06Z</time>
      </trkpt>
      <trkpt lat="41.746700" lon="2.323733">
        <ele>945.92</ele>
        <time>2012-05-11T13:00:16Z</time>
      </trkpt>
      <trkpt lat="41.746540" lon="2.323778">
        <ele>945.71</ele>
        <time>2012-05-11T13:00:26Z</time>
      </trkpt>
      <trkpt lat="41.746532" lon="2.323797">
        <ele>946.27</ele>
        <time>2012-05-11T13:00:36Z</time>
      </trkpt>
      <trkpt lat="41.746265" lon="2.323903">
        <ele>947.38</ele>
        <time>2012-05-11T13:00:46Z</time>
      </trkpt>
      <trkpt lat="41.746014" lon="2.324070">
        <ele>945.82</ele>
        <time>2012-05-11T13:00:56Z</time>
      </trkpt>
      <trkpt lat="41.745983" lon="2.324093">
        <ele>945.67</ele>
        <time>2012-05-11T13:01:06Z</time>
      </trkpt>
      <trkpt lat="41.745964" lon="2.324113">
        <ele>945.61</ele>
        <time>2012-05-11T13:01:16Z</time>
      </trkpt>
      <trkpt lat="41.745708" lon="2.324280">
        <ele>942.50</ele>
        <time>2012-05-11T13:01:26Z</time>
      </trkpt>
      <trkpt lat="41.745533" lon="2.324490">
        <ele>941.93</ele>
        <time>2012-05-11T13:01:36Z</time>
      </trkpt>
      <trkpt lat="41.745483" lon="2.324730">
        <ele>945.39</ele>
        <time>2012-05-11T13:01:46Z</time>
      </trkpt>
      <trkpt lat="41.745483" lon="2.324842">
        <ele>947.55</ele>
        <time>2012-05-11T13:01:56Z</time>
      </trkpt>
      <trkpt lat="41.745468" lon="2.325078">
        <ele>951.62</ele>
        <time>2012-05-11T13:02:06Z</time>
      </trkpt>
      <trkpt lat="41.745461" lon="2.325448">
        <ele>958.01</ele>
        <time>2012-05-11T13:02:16Z</time>
      </trkpt>
      <trkpt lat="41.745537" lon="2.325807">
        <ele>961.93</ele>
        <time>2012-05-11T13:02:26Z</time>
      </trkpt>
      <trkpt lat="41.745663" lon="2.326137">
        <ele>969.98</ele>
        <time>2012-05-11T13:02:36Z</time>
      </trkpt>
      <trkpt lat="41.745686" lon="2.326185">
        <ele>971.58</ele>
        <time>2012-05-11T13:02:46Z</time>
      </trkpt>
      <trkpt lat="41.745689" lon="2.326212">
        <ele>971.81</ele>
        <time>2012-05-11T13:02:56Z</time>
      </trkpt>
      <trkpt lat="41.745735" lon="2.326302">
        <ele>974.39</ele>
        <time>2012-05-11T13:03:06Z</time>
      </trkpt>
      <trkpt lat="41.745846" lon="2.326653">
        <ele>977.29</ele>
        <time>2012-05-11T13:03:16Z</time>
      </trkpt>
      <trkpt lat="41.745964" lon="2.326983">
        <ele>980.77</ele>
        <time>2012-05-11T13:03:26Z</time>
      </trkpt>
      <trkpt lat="41.746136" lon="2.327273">
        <ele>987.13</ele>
        <time>2012-05-11T13:03:36Z</time>
      </trkpt>
      <trkpt lat="41.746197" lon="2.327322">
        <ele>989.99</ele>
        <time>2012-05-11T13:03:46Z</time>
      </trkpt>
      <trkpt lat="41.746151" lon="2.327358">
        <ele>986.61</ele>
        <time>2012-05-11T13:03:56Z</time>
      </trkpt>
      <trkpt lat="41.746174" lon="2.327297">
        <ele>988.91</ele>
        <time>2012-05-11T13:04:06Z</time>
      </trkpt>
      <trkpt lat="41.746315" lon="2.327613">
        <ele>992.35</ele>
        <time>2012-05-11T13:04:16Z</time>
      </trkpt>
      <trkpt lat="41.746326" lon="2.327653">
        <ele>992.45</ele>
        <time>2012-05-11T13:04:26Z</time>
      </trkpt>
      <trkpt lat="41.746342" lon="2.327722">
        <ele>992.25</ele>
        <time>2012-05-11T13:04:36Z</time>
      </trkpt>
      <trkpt lat="41.746433" lon="2.328067">
        <ele>993.03</ele>
        <time>2012-05-11T13:04:46Z</time>
      </trkpt>
      <trkpt lat="41.746525" lon="2.328415">
        <ele>994.89</ele>
        <time>2012-05-11T13:04:56Z</time>
      </trkpt>
      <trkpt lat="41.746635" lon="2.328750">
        <ele>998.35</ele>
        <time>2012-05-11T13:05:06Z</time>
      </trkpt>
      <trkpt lat="41.746742" lon="2.329093">
        <ele>1001.13</ele>
        <time>2012-05-11T13:05:16Z</time>
      </trkpt>
      <trkpt lat="41.746841" lon="2.329440">
        <ele>1003.33</ele>
        <time>2012-05-11T13:05:26Z</time>
      </trkpt>
      <trkpt lat="41.746960" lon="2.329778">
        <ele>1006.46</ele>
        <time>2012-05-11T13:05:36Z</time>
      </trkpt>
      <trkpt lat="41.747093" lon="2.330107">
        <ele>1009.91</ele>
        <time>2012-05-11T13:05:46Z</time>
      </trkpt>
      <trkpt lat="41.747154" lon="2.330380">
        <ele>1009.71</ele>
        <time>2012-05-11T13:05:56Z</time>
      </trkpt>
      <trkpt lat="41.747154" lon="2.330393">
        <ele>1009.58</ele>
        <time>2012-05-11T13:06:06Z</time>
      </trkpt>
      <trkpt lat="41.747265" lon="2.330730">
        <ele>1011.96</ele>
        <time>2012-05-11T13:06:16Z</time>
      </trkpt>
      <trkpt lat="41.747398" lon="2.331067">
        <ele>1014.98</ele>
        <time>2012-05-11T13:06:26Z</time>
      </trkpt>
      <trkpt lat="41.747517" lon="2.331400">
        <ele>1016.43</ele>
        <time>2012-05-11T13:06:36Z</time>
      </trkpt>
      <trkpt lat="41.747643" lon="2.331730">
        <ele>1018.39</ele>
        <time>2012-05-11T13:06:46Z</time>
      </trkpt>
      <trkpt lat="41.747795" lon="2.332043">
        <ele>1022.16</ele>
        <time>2012-05-11T13:06:56Z</time>
      </trkpt>
      <trkpt lat="41.747952" lon="2.332347">
        <ele>1026.38</ele>
        <time>2012-05-11T13:07:06Z</time>
      </trkpt>
      <trkpt lat="41.748108" lon="2.332655">
        <ele>1029.77</ele>
        <time>2012-05-11T13:07:16Z</time>
      </trkpt>
      <trkpt lat="41.748253" lon="2.332960">
        <ele>1031.04</ele>
        <time>2012-05-11T13:07:26Z</time>
      </trkpt>
      <trkpt lat="41.748287" lon="2.333008">
        <ele>1032.21</ele>
        <time>2012-05-11T13:07:36Z</time>
      </trkpt>
      <trkpt lat="41.748318" lon="2.333043">
        <ele>1033.41</ele>
        <time>2012-05-11T13:07:46Z</time>
      </trkpt>
      <trkpt lat="41.748474" lon="2.333363">
        <ele>1037.03</ele>
        <time>2012-05-11T13:07:56Z</time>
      </trkpt>
      <trkpt lat="41.748562" lon="2.333707">
        <ele>1035.94</ele>
        <time>2012-05-11T13:08:06Z</time>
      </trkpt>
      <trkpt lat="41.748569" lon="2.333718">
        <ele>1036.02</ele>
        <time>2012-05-11T13:08:16Z</time>
      </trkpt>
      <trkpt lat="41.748737" lon="2.333950">
        <ele>1038.84</ele>
        <time>2012-05-11T13:08:26Z</time>
      </trkpt>
      <trkpt lat="41.748974" lon="2.334137">
        <ele>1047.90</ele>
        <time>2012-05-11T13:08:36Z</time>
      </trkpt>
      <trkpt lat="41.749088" lon="2.334310">
        <ele>1050.23</ele>
        <time>2012-05-11T13:08:46Z</time>
      </trkpt>
      <trkpt lat="41.749149" lon="2.334437">
        <ele>1050.54</ele>
        <time>2012-05-11T13:08:56Z</time>
      </trkpt>
      <trkpt lat="41.749157" lon="2.334492">
        <ele>1049.76</ele>
        <time>2012-05-11T13:09:06Z</time>
      </trkpt>
      <trkpt lat="41.749168" lon="2.334667">
        <ele>1046.21</ele>
        <time>2012-05-11T13:09:16Z</time>
      </trkpt>
      <trkpt lat="41.749161" lon="2.334678">
        <ele>1045.62</ele>
        <time>2012-05-11T13:09:26Z</time>
      </trkpt>
      <trkpt lat="41.749161" lon="2.334700">
        <ele>1045.11</ele>
        <time>2012-05-11T13:09:36Z</time>
      </trkpt>
      <trkpt lat="41.749184" lon="2.334757">
        <ele>1045.17</ele>
        <time>2012-05-11T13:09:46Z</time>
      </trkpt>
      <trkpt lat="41.749214" lon="2.334965">
        <ele>1042.35</ele>
        <time>2012-05-11T13:09:56Z</time>
      </trkpt>
      <trkpt lat="41.749214" lon="2.334980">
        <ele>1041.98</ele>
        <time>2012-05-11T13:10:06Z</time>
      </trkpt>
      <trkpt lat="41.749233" lon="2.335107">
        <ele>1040.37</ele>
        <time>2012-05-11T13:10:16Z</time>
      </trkpt>
      <trkpt lat="41.749252" lon="2.335177">
        <ele>1039.95</ele>
        <time>2012-05-11T13:10:26Z</time>
      </trkpt>
      <trkpt lat="41.749348" lon="2.335222">
        <ele>1044.77</ele>
        <time>2012-05-11T13:10:36Z</time>
      </trkpt>
      <trkpt lat="41.749397" lon="2.335182">
        <ele>1048.42</ele>
        <time>2012-05-11T13:10:46Z</time>
      </trkpt>
      <trkpt lat="41.749382" lon="2.335113">
        <ele>1048.93</ele>
        <time>2012-05-11T13:10:56Z</time>
      </trkpt>
      <trkpt lat="41.749336" lon="2.335085">
        <ele>1046.83</ele>
        <time>2012-05-11T13:11:06Z</time>
      </trkpt>
      <trkpt lat="41.749290" lon="2.335053">
        <ele>1044.81</ele>
        <time>2012-05-11T13:11:16Z</time>
      </trkpt>
      <trkpt lat="41.749317" lon="2.334695">
        <ele>1053.91</ele>
        <time>2012-05-11T13:11:26Z</time>
      </trkpt>
      <trkpt lat="41.749287" lon="2.334688">
        <ele>1052.41</ele>
        <time>2012-05-11T13:11:36Z</time>
      </trkpt>
      <trkpt lat="41.749367" lon="2.334388">
        <ele>1063.92</ele>
        <time>2012-05-11T13:11:46Z</time>
      </trkpt>
      <trkpt lat="41.749371" lon="2.334338">
        <ele>1065.36</ele>
        <time>2012-05-11T13:11:56Z</time>
      </trkpt>
      <trkpt lat="41.749367" lon="2.334330">
        <ele>1065.37</ele>
        <time>2012-05-11T13:12:06Z</time>
      </trkpt>
      <trkpt lat="41.749329" lon="2.334202">
        <ele>1066.34</ele>
        <time>2012-05-11T13:12:16Z</time>
      </trkpt>
      <trkpt lat="41.749287" lon="2.334177">
        <ele>1064.57</ele>
        <time>2012-05-11T13:12:26Z</time>
      </trkpt>
      <trkpt lat="41.749256" lon="2.334145">
        <ele>1063.65</ele>
        <time>2012-05-11T13:12:36Z</time>
      </trkpt>
      <trkpt lat="41.749233" lon="2.334112">
        <ele>1063.18</ele>
        <time>2012-05-11T13:12:46Z</time>
      </trkpt>
      <trkpt lat="41.749180" lon="2.334085">
        <ele>1060.76</ele>
        <time>2012-05-11T13:12:56Z</time>
      </trkpt>
      <trkpt lat="41.749157" lon="2.334082">
        <ele>1059.53</ele>
        <time>2012-05-11T13:13:06Z</time>
      </trkpt>
      <trkpt lat="41.749016" lon="2.334062">
        <ele>1052.01</ele>
        <time>2012-05-11T13:13:16Z</time>
      </trkpt>
      <trkpt lat="41.749004" lon="2.334060">
        <ele>1051.32</ele>
        <time>2012-05-11T13:13:26Z</time>
      </trkpt>
      <trkpt lat="41.748997" lon="2.334055">
        <ele>1051.11</ele>
        <time>2012-05-11T13:13:36Z</time>
      </trkpt>
      <trkpt lat="41.748985" lon="2.334052">
        <ele>1050.44</ele>
        <time>2012-05-11T13:13:46Z</time>
      </trkpt>
      <trkpt lat="41.748959" lon="2.334077">
        <ele>1048.48</ele>
        <time>2012-05-11T13:13:56Z</time>
      </trkpt>
      <trkpt lat="41.748932" lon="2.334092">
        <ele>1046.55</ele>
        <time>2012-05-11T13:14:06Z</time>
      </trkpt>
      <trkpt lat="41.748913" lon="2.334060">
        <ele>1046.28</ele>
        <time>2012-05-11T13:14:16Z</time>
      </trkpt>
      <trkpt lat="41.748821" lon="2.334085">
        <ele>1040.44</ele>
        <time>2012-05-11T13:14:26Z</time>
      </trkpt>
      <trkpt lat="41.748730" lon="2.333958">
        <ele>1038.34</ele>
        <time>2012-05-11T13:14:36Z</time>
      </trkpt>
      <trkpt lat="41.748825" lon="2.333588">
        <ele>1051.42</ele>
        <time>2012-05-11T13:14:46Z</time>
      </trkpt>
      <trkpt lat="41.748901" lon="2.333200">
        <ele>1063.41</ele>
        <time>2012-05-11T13:14:56Z</time>
      </trkpt>
      <trkpt lat="41.748901" lon="2.333137">
        <ele>1064.71</ele>
        <time>2012-05-11T13:15:06Z</time>
      </trkpt>
      <trkpt lat="41.748898" lon="2.333108">
        <ele>1065.02</ele>
        <time>2012-05-11T13:15:16Z</time>
      </trkpt>
      <trkpt lat="41.748886" lon="2.332865">
        <ele>1069.82</ele>
        <time>2012-05-11T13:15:26Z</time>
      </trkpt>
      <trkpt lat="41.748772" lon="2.332537">
        <ele>1074.54</ele>
        <time>2012-05-11T13:15:36Z</time>
      </trkpt>
      <trkpt lat="41.748764" lon="2.332523">
        <ele>1074.57</ele>
        <time>2012-05-11T13:15:46Z</time>
      </trkpt>
      <trkpt lat="41.748756" lon="2.332497">
        <ele>1075.06</ele>
        <time>2012-05-11T13:15:56Z</time>
      </trkpt>
      <trkpt lat="41.748741" lon="2.332497">
        <ele>1074.06</ele>
        <time>2012-05-11T13:16:06Z</time>
      </trkpt>
      <trkpt lat="41.748711" lon="2.332485">
        <ele>1072.60</ele>
        <time>2012-05-11T13:16:16Z</time>
      </trkpt>
      <trkpt lat="41.748699" lon="2.332478">
        <ele>1072.03</ele>
        <time>2012-05-11T13:16:26Z</time>
      </trkpt>
      <trkpt lat="41.748680" lon="2.332462">
        <ele>1071.45</ele>
        <time>2012-05-11T13:16:36Z</time>
      </trkpt>
      <trkpt lat="41.748642" lon="2.332398">
        <ele>1071.11</ele>
        <time>2012-05-11T13:16:46Z</time>
      </trkpt>
      <trkpt lat="41.748631" lon="2.332388">
        <ele>1070.71</ele>
        <time>2012-05-11T13:16:56Z</time>
      </trkpt>
      <trkpt lat="41.748489" lon="2.332285">
        <ele>1064.56</ele>
        <time>2012-05-11T13:17:06Z</time>
      </trkpt>
      <trkpt lat="41.748421" lon="2.332063">
        <ele>1066.47</ele>
        <time>2012-05-11T13:17:16Z</time>
      </trkpt>
      <trkpt lat="41.748375" lon="2.331892">
        <ele>1066.65</ele>
        <time>2012-05-11T13:17:26Z</time>
      </trkpt>
      <trkpt lat="41.748348" lon="2.331870">
        <ele>1065.13</ele>
        <time>2012-05-11T13:17:36Z</time>
      </trkpt>
      <trkpt lat="41.748283" lon="2.331797">
        <ele>1061.75</ele>
        <time>2012-05-11T13:17:46Z</time>
      </trkpt>
      <trkpt lat="41.748245" lon="2.331765">
        <ele>1059.55</ele>
        <time>2012-05-11T13:17:56Z</time>
      </trkpt>
      <trkpt lat="41.748222" lon="2.331733">
        <ele>1058.44</ele>
        <time>2012-05-11T13:18:06Z</time>
      </trkpt>
      <trkpt lat="41.748207" lon="2.331722">
        <ele>1057.57</ele>
        <time>2012-05-11T13:18:16Z</time>
      </trkpt>
      <trkpt lat="41.748192" lon="2.331460">
        <ele>1061.63</ele>
        <time>2012-05-11T13:18:26Z</time>
      </trkpt>
      <trkpt lat="41.748207" lon="2.331272">
        <ele>1066.62</ele>
        <time>2012-05-11T13:18:36Z</time>
      </trkpt>
      <trkpt lat="41.748192" lon="2.331257">
        <ele>1065.71</ele>
        <time>2012-05-11T13:18:46Z</time>
      </trkpt>
      <trkpt lat="41.748165" lon="2.331078">
        <ele>1067.67</ele>
        <time>2012-05-11T13:18:56Z</time>
      </trkpt>
      <trkpt lat="41.748138" lon="2.331013">
        <ele>1067.06</ele>
        <time>2012-05-11T13:19:06Z</time>
      </trkpt>
      <trkpt lat="41.748138" lon="2.330997">
        <ele>1067.49</ele>
        <time>2012-05-11T13:19:16Z</time>
      </trkpt>
      <trkpt lat="41.748100" lon="2.330892">
        <ele>1066.86</ele>
        <time>2012-05-11T13:19:26Z</time>
      </trkpt>
      <trkpt lat="41.748096" lon="2.330530">
        <ele>1074.96</ele>
        <time>2012-05-11T13:19:36Z</time>
      </trkpt>
      <trkpt lat="41.748096" lon="2.330518">
        <ele>1075.28</ele>
        <time>2012-05-11T13:19:46Z</time>
      </trkpt>
      <trkpt lat="41.748074" lon="2.330458">
        <ele>1074.99</ele>
        <time>2012-05-11T13:19:56Z</time>
      </trkpt>
      <trkpt lat="41.748005" lon="2.330152">
        <ele>1075.02</ele>
        <time>2012-05-11T13:20:06Z</time>
      </trkpt>
      <trkpt lat="41.747993" lon="2.330113">
        <ele>1074.77</ele>
        <time>2012-05-11T13:20:16Z</time>
      </trkpt>
      <trkpt lat="41.747955" lon="2.329747">
        <ele>1078.01</ele>
        <time>2012-05-11T13:20:26Z</time>
      </trkpt>
      <trkpt lat="41.747883" lon="2.329393">
        <ele>1077.71</ele>
        <time>2012-05-11T13:20:36Z</time>
      </trkpt>
      <trkpt lat="41.747833" lon="2.329017">
        <ele>1078.26</ele>
        <time>2012-05-11T13:20:46Z</time>
      </trkpt>
      <trkpt lat="41.747822" lon="2.328905">
        <ele>1078.72</ele>
        <time>2012-05-11T13:20:56Z</time>
      </trkpt>
      <trkpt lat="41.747826" lon="2.328538">
        <ele>1080.73</ele>
        <time>2012-05-11T13:21:06Z</time>
      </trkpt>
      <trkpt lat="41.747837" lon="2.328173">
        <ele>1081.43</ele>
        <time>2012-05-11T13:21:16Z</time>
      </trkpt>
      <trkpt lat="41.747799" lon="2.327812">
        <ele>1077.59</ele>
        <time>2012-05-11T13:21:26Z</time>
      </trkpt>
      <trkpt lat="41.747818" lon="2.327757">
        <ele>1077.62</ele>
        <time>2012-05-11T13:21:36Z</time>
      </trkpt>
      <trkpt lat="41.747902" lon="2.327678">
        <ele>1080.43</ele>
        <time>2012-05-11T13:21:46Z</time>
      </trkpt>
      <trkpt lat="41.747913" lon="2.327677">
        <ele>1080.95</ele>
        <time>2012-05-11T13:21:56Z</time>
      </trkpt>
      <trkpt lat="41.747932" lon="2.327675">
        <ele>1081.15</ele>
        <time>2012-05-11T13:22:06Z</time>
      </trkpt>
      <trkpt lat="41.747982" lon="2.327717">
        <ele>1082.41</ele>
        <time>2012-05-11T13:22:16Z</time>
      </trkpt>
      <trkpt lat="41.747936" lon="2.327865">
        <ele>1085.21</ele>
        <time>2012-05-11T13:22:26Z</time>
      </trkpt>
      <trkpt lat="41.747993" lon="2.327730">
        <ele>1082.72</ele>
        <time>2012-05-11T13:22:36Z</time>
      </trkpt>
      <trkpt lat="41.748039" lon="2.327768">
        <ele>1084.14</ele>
        <time>2012-05-11T13:22:46Z</time>
      </trkpt>
      <trkpt lat="41.748051" lon="2.327773">
        <ele>1084.35</ele>
        <time>2012-05-11T13:22:56Z</time>
      </trkpt>
      <trkpt lat="41.748322" lon="2.327862">
        <ele>1090.25</ele>
        <time>2012-05-11T13:23:06Z</time>
      </trkpt>
      <trkpt lat="41.748428" lon="2.327925">
        <ele>1094.28</ele>
        <time>2012-05-11T13:23:16Z</time>
      </trkpt>
      <trkpt lat="41.748493" lon="2.327962">
        <ele>1096.16</ele>
        <time>2012-05-11T13:23:26Z</time>
      </trkpt>
      <trkpt lat="41.748528" lon="2.327975">
        <ele>1097.17</ele>
        <time>2012-05-11T13:23:36Z</time>
      </trkpt>
      <trkpt lat="41.748798" lon="2.328060">
        <ele>1103.82</ele>
        <time>2012-05-11T13:23:46Z</time>
      </trkpt>
      <trkpt lat="41.749062" lon="2.328168">
        <ele>1106.86</ele>
        <time>2012-05-11T13:23:56Z</time>
      </trkpt>
      <trkpt lat="41.749332" lon="2.328268">
        <ele>1111.01</ele>
        <time>2012-05-11T13:24:06Z</time>
      </trkpt>
      <trkpt lat="41.749359" lon="2.328272">
        <ele>1111.11</ele>
        <time>2012-05-11T13:24:16Z</time>
      </trkpt>
      <trkpt lat="41.749435" lon="2.328288">
        <ele>1111.98</ele>
        <time>2012-05-11T13:24:26Z</time>
      </trkpt>
      <trkpt lat="41.749477" lon="2.328268">
        <ele>1110.89</ele>
        <time>2012-05-11T13:24:36Z</time>
      </trkpt>
      <trkpt lat="41.749634" lon="2.328303">
        <ele>1112.72</ele>
        <time>2012-05-11T13:24:46Z</time>
      </trkpt>
      <trkpt lat="41.749672" lon="2.328315">
        <ele>1113.46</ele>
        <time>2012-05-11T13:24:56Z</time>
      </trkpt>
      <trkpt lat="41.749718" lon="2.328325">
        <ele>1114.02</ele>
        <time>2012-05-11T13:25:06Z</time>
      </trkpt>
      <trkpt lat="41.749744" lon="2.328327">
        <ele>1114.18</ele>
        <time>2012-05-11T13:25:16Z</time>
      </trkpt>
      <trkpt lat="41.749844" lon="2.328252">
        <ele>1109.84</ele>
        <time>2012-05-11T13:25:26Z</time>
      </trkpt>
      <trkpt lat="41.750046" lon="2.328257">
        <ele>1110.13</ele>
        <time>2012-05-11T13:25:36Z</time>
      </trkpt>
      <trkpt lat="41.750210" lon="2.328260">
        <ele>1110.32</ele>
        <time>2012-05-11T13:25:46Z</time>
      </trkpt>
      <trkpt lat="41.750244" lon="2.328252">
        <ele>1109.92</ele>
        <time>2012-05-11T13:25:56Z</time>
      </trkpt>
      <trkpt lat="41.750389" lon="2.328248">
        <ele>1109.71</ele>
        <time>2012-05-11T13:26:06Z</time>
      </trkpt>
      <trkpt lat="41.750565" lon="2.328287">
        <ele>1113.08</ele>
        <time>2012-05-11T13:26:16Z</time>
      </trkpt>
      <trkpt lat="41.750641" lon="2.328330">
        <ele>1115.99</ele>
        <time>2012-05-11T13:26:26Z</time>
      </trkpt>
      <trkpt lat="41.750660" lon="2.328335">
        <ele>1116.35</ele>
        <time>2012-05-11T13:26:36Z</time>
      </trkpt>
      <trkpt lat="41.750778" lon="2.328375">
        <ele>1119.34</ele>
        <time>2012-05-11T13:26:46Z</time>
      </trkpt>
      <trkpt lat="41.750793" lon="2.328378">
        <ele>1119.64</ele>
        <time>2012-05-11T13:26:56Z</time>
      </trkpt>
      <trkpt lat="41.750935" lon="2.328387">
        <ele>1121.08</ele>
        <time>2012-05-11T13:27:06Z</time>
      </trkpt>
      <trkpt lat="41.750957" lon="2.328385">
        <ele>1121.15</ele>
        <time>2012-05-11T13:27:16Z</time>
      </trkpt>
      <trkpt lat="41.751026" lon="2.328400">
        <ele>1122.32</ele>
        <time>2012-05-11T13:27:26Z</time>
      </trkpt>
      <trkpt lat="41.751278" lon="2.328588">
        <ele>1132.80</ele>
        <time>2012-05-11T13:27:36Z</time>
      </trkpt>
      <trkpt lat="41.751312" lon="2.328623">
        <ele>1134.02</ele>
        <time>2012-05-11T13:27:46Z</time>
      </trkpt>
      <trkpt lat="41.751362" lon="2.328710">
        <ele>1137.51</ele>
        <time>2012-05-11T13:27:56Z</time>
      </trkpt>
      <trkpt lat="41.751358" lon="2.328775">
        <ele>1140.59</ele>
        <time>2012-05-11T13:28:06Z</time>
      </trkpt>
      <trkpt lat="41.751324" lon="2.328797">
        <ele>1141.92</ele>
        <time>2012-05-11T13:28:16Z</time>
      </trkpt>
      <trkpt lat="41.751316" lon="2.328768">
        <ele>1140.87</ele>
        <time>2012-05-11T13:28:26Z</time>
      </trkpt>
      <trkpt lat="41.751228" lon="2.328632">
        <ele>1135.13</ele>
        <time>2012-05-11T13:28:36Z</time>
      </trkpt>
      <trkpt lat="41.751175" lon="2.328595">
        <ele>1133.04</ele>
        <time>2012-05-11T13:28:46Z</time>
      </trkpt>
      <trkpt lat="41.750893" lon="2.328628">
        <ele>1133.35</ele>
        <time>2012-05-11T13:28:56Z</time>
      </trkpt>
      <trkpt lat="41.750618" lon="2.328617">
        <ele>1131.53</ele>
        <time>2012-05-11T13:29:06Z</time>
      </trkpt>
      <trkpt lat="41.750507" lon="2.328668">
        <ele>1133.90</ele>
        <time>2012-05-11T13:29:16Z</time>
      </trkpt>
      <trkpt lat="41.750412" lon="2.328688">
        <ele>1134.51</ele>
        <time>2012-05-11T13:29:26Z</time>
      </trkpt>
      <trkpt lat="41.750374" lon="2.328697">
        <ele>1135.13</ele>
        <time>2012-05-11T13:29:36Z</time>
      </trkpt>
      <trkpt lat="41.750092" lon="2.328712">
        <ele>1136.21</ele>
        <time>2012-05-11T13:29:46Z</time>
      </trkpt>
      <trkpt lat="41.750046" lon="2.328717">
        <ele>1136.58</ele>
        <time>2012-05-11T13:29:56Z</time>
      </trkpt>
      <trkpt lat="41.749775" lon="2.328760">
        <ele>1139.25</ele>
        <time>2012-05-11T13:30:06Z</time>
      </trkpt>
      <trkpt lat="41.749500" lon="2.328820">
        <ele>1140.90</ele>
        <time>2012-05-11T13:30:16Z</time>
      </trkpt>
      <trkpt lat="41.749222" lon="2.328847">
        <ele>1137.49</ele>
        <time>2012-05-11T13:30:26Z</time>
      </trkpt>
      <trkpt lat="41.749104" lon="2.328855">
        <ele>1135.78</ele>
        <time>2012-05-11T13:30:36Z</time>
      </trkpt>
      <trkpt lat="41.748997" lon="2.328907">
        <ele>1134.91</ele>
        <time>2012-05-11T13:30:46Z</time>
      </trkpt>
      <trkpt lat="41.748947" lon="2.328947">
        <ele>1134.62</ele>
        <time>2012-05-11T13:30:56Z</time>
      </trkpt>
      <trkpt lat="41.748894" lon="2.329023">
        <ele>1134.75</ele>
        <time>2012-05-11T13:31:06Z</time>
      </trkpt>
      <trkpt lat="41.748970" lon="2.329062">
        <ele>1137.16</ele>
        <time>2012-05-11T13:31:16Z</time>
      </trkpt>
      <trkpt lat="41.749165" lon="2.329062">
        <ele>1142.02</ele>
        <time>2012-05-11T13:31:26Z</time>
      </trkpt>
      <trkpt lat="41.749325" lon="2.329053">
        <ele>1145.71</ele>
        <time>2012-05-11T13:31:36Z</time>
      </trkpt>
      <trkpt lat="41.749599" lon="2.329083">
        <ele>1153.43</ele>
        <time>2012-05-11T13:31:46Z</time>
      </trkpt>
      <trkpt lat="41.749626" lon="2.329085">
        <ele>1153.65</ele>
        <time>2012-05-11T13:31:56Z</time>
      </trkpt>
      <trkpt lat="41.749748" lon="2.329108">
        <ele>1154.95</ele>
        <time>2012-05-11T13:32:06Z</time>
      </trkpt>
      <trkpt lat="41.749893" lon="2.329123">
        <ele>1156.18</ele>
        <time>2012-05-11T13:32:16Z</time>
      </trkpt>
      <trkpt lat="41.749985" lon="2.329140">
        <ele>1157.22</ele>
        <time>2012-05-11T13:32:26Z</time>
      </trkpt>
      <trkpt lat="41.750015" lon="2.329140">
        <ele>1157.35</ele>
        <time>2012-05-11T13:32:36Z</time>
      </trkpt>
      <trkpt lat="41.750214" lon="2.329185">
        <ele>1160.26</ele>
        <time>2012-05-11T13:32:46Z</time>
      </trkpt>
      <trkpt lat="41.750252" lon="2.329178">
        <ele>1160.08</ele>
        <time>2012-05-11T13:32:56Z</time>
      </trkpt>
      <trkpt lat="41.750271" lon="2.329182">
        <ele>1160.34</ele>
        <time>2012-05-11T13:33:06Z</time>
      </trkpt>
      <trkpt lat="41.750328" lon="2.329152">
        <ele>1158.92</ele>
        <time>2012-05-11T13:33:16Z</time>
      </trkpt>
      <trkpt lat="41.750355" lon="2.329153">
        <ele>1159.11</ele>
        <time>2012-05-11T13:33:26Z</time>
      </trkpt>
      <trkpt lat="41.750370" lon="2.329152">
        <ele>1159.15</ele>
        <time>2012-05-11T13:33:36Z</time>
      </trkpt>
      <trkpt lat="41.750393" lon="2.329148">
        <ele>1158.98</ele>
        <time>2012-05-11T13:33:46Z</time>
      </trkpt>
      <trkpt lat="41.750431" lon="2.329165">
        <ele>1159.98</ele>
        <time>2012-05-11T13:33:56Z</time>
      </trkpt>
      <trkpt lat="41.750462" lon="2.329172">
        <ele>1160.25</ele>
        <time>2012-05-11T13:34:06Z</time>
      </trkpt>
      <trkpt lat="41.750690" lon="2.329315">
        <ele>1167.06</ele>
        <time>2012-05-11T13:34:16Z</time>
      </trkpt>
      <trkpt lat="41.750881" lon="2.329600">
        <ele>1179.79</ele>
        <time>2012-05-11T13:34:26Z</time>
      </trkpt>
      <trkpt lat="41.750999" lon="2.329937">
        <ele>1189.86</ele>
        <time>2012-05-11T13:34:36Z</time>
      </trkpt>
      <trkpt lat="41.751156" lon="2.330240">
        <ele>1199.21</ele>
        <time>2012-05-11T13:34:46Z</time>
      </trkpt>
      <trkpt lat="41.751671" lon="2.330667">
        <ele>1203.23</ele>
        <time>2012-05-11T13:34:56Z</time>
      </trkpt>
      <trkpt lat="41.751720" lon="2.330685">
        <ele>1202.91</ele>
        <time>2012-05-11T13:35:06Z</time>
      </trkpt>
      <trkpt lat="41.751545" lon="2.330792">
        <ele>1207.31</ele>
        <time>2012-05-11T13:35:16Z</time>
      </trkpt>
      <trkpt lat="41.751293" lon="2.330930">
        <ele>1213.15</ele>
        <time>2012-05-11T13:35:26Z</time>
      </trkpt>
      <trkpt lat="41.751030" lon="2.331015">
        <ele>1212.10</ele>
        <time>2012-05-11T13:35:36Z</time>
      </trkpt>
      <trkpt lat="41.750774" lon="2.331148">
        <ele>1209.39</ele>
        <time>2012-05-11T13:35:46Z</time>
      </trkpt>
      <trkpt lat="41.750843" lon="2.331495">
        <ele>1209.83</ele>
        <time>2012-05-11T13:35:56Z</time>
      </trkpt>
      <trkpt lat="41.750923" lon="2.331512">
        <ele>1211.76</ele>
        <time>2012-05-11T13:36:06Z</time>
      </trkpt>
      <trkpt lat="41.750942" lon="2.331518">
        <ele>1212.15</ele>
        <time>2012-05-11T13:36:16Z</time>
      </trkpt>
      <trkpt lat="41.751034" lon="2.331542">
        <ele>1214.54</ele>
        <time>2012-05-11T13:36:26Z</time>
      </trkpt>
      <trkpt lat="41.751076" lon="2.331565">
        <ele>1215.52</ele>
        <time>2012-05-11T13:36:36Z</time>
      </trkpt>
      <trkpt lat="41.751247" lon="2.331598">
        <ele>1220.29</ele>
        <time>2012-05-11T13:36:46Z</time>
      </trkpt>
      <trkpt lat="41.751259" lon="2.331595">
        <ele>1220.21</ele>
        <time>2012-05-11T13:36:56Z</time>
      </trkpt>
      <trkpt lat="41.751518" lon="2.331742">
        <ele>1220.51</ele>
        <time>2012-05-11T13:37:06Z</time>
      </trkpt>
      <trkpt lat="41.751686" lon="2.331888">
        <ele>1222.24</ele>
        <time>2012-05-11T13:37:16Z</time>
      </trkpt>
      <trkpt lat="41.751743" lon="2.332012">
        <ele>1224.06</ele>
        <time>2012-05-11T13:37:26Z</time>
      </trkpt>
      <trkpt lat="41.751747" lon="2.332027">
        <ele>1224.22</ele>
        <time>2012-05-11T13:37:36Z</time>
      </trkpt>
      <trkpt lat="41.751801" lon="2.332180">
        <ele>1225.85</ele>
        <time>2012-05-11T13:37:46Z</time>
      </trkpt>
      <trkpt lat="41.751900" lon="2.332532">
        <ele>1229.49</ele>
        <time>2012-05-11T13:37:56Z</time>
      </trkpt>
      <trkpt lat="41.752033" lon="2.332860">
        <ele>1235.15</ele>
        <time>2012-05-11T13:38:06Z</time>
      </trkpt>
      <trkpt lat="41.752205" lon="2.333147">
        <ele>1236.67</ele>
        <time>2012-05-11T13:38:16Z</time>
      </trkpt>
      <trkpt lat="41.752419" lon="2.333413">
        <ele>1237.06</ele>
        <time>2012-05-11T13:38:26Z</time>
      </trkpt>
      <trkpt lat="41.752472" lon="2.333505">
        <ele>1237.72</ele>
        <time>2012-05-11T13:38:36Z</time>
      </trkpt>
      <trkpt lat="41.752567" lon="2.333600">
        <ele>1238.51</ele>
        <time>2012-05-11T13:38:46Z</time>
      </trkpt>
      <trkpt lat="41.752716" lon="2.333910">
        <ele>1241.31</ele>
        <time>2012-05-11T13:38:56Z</time>
      </trkpt>
      <trkpt lat="41.752804" lon="2.334038">
        <ele>1242.67</ele>
        <time>2012-05-11T13:39:06Z</time>
      </trkpt>
      <trkpt lat="41.752853" lon="2.334058">
        <ele>1243.13</ele>
        <time>2012-05-11T13:39:16Z</time>
      </trkpt>
      <trkpt lat="41.752872" lon="2.334062">
        <ele>1243.37</ele>
        <time>2012-05-11T13:39:26Z</time>
      </trkpt>
      <trkpt lat="41.752907" lon="2.334068">
        <ele>1243.65</ele>
        <time>2012-05-11T13:39:36Z</time>
      </trkpt>
      <trkpt lat="41.753082" lon="2.334025">
        <ele>1243.46</ele>
        <time>2012-05-11T13:39:46Z</time>
      </trkpt>
      <trkpt lat="41.753342" lon="2.333877">
        <ele>1242.44</ele>
        <time>2012-05-11T13:39:56Z</time>
      </trkpt>
      <trkpt lat="41.753490" lon="2.333847">
        <ele>1242.34</ele>
        <time>2012-05-11T13:40:06Z</time>
      </trkpt>
      <trkpt lat="41.753647" lon="2.333947">
        <ele>1243.16</ele>
        <time>2012-05-11T13:40:16Z</time>
      </trkpt>
      <trkpt lat="41.753868" lon="2.334177">
        <ele>1244.58</ele>
        <time>2012-05-11T13:40:26Z</time>
      </trkpt>
      <trkpt lat="41.754158" lon="2.334305">
        <ele>1244.81</ele>
        <time>2012-05-11T13:40:36Z</time>
      </trkpt>
      <trkpt lat="41.754227" lon="2.334305">
        <ele>1244.81</ele>
        <time>2012-05-11T13:40:46Z</time>
      </trkpt>
      <trkpt lat="41.754532" lon="2.334200">
        <ele>1244.20</ele>
        <time>2012-05-11T13:40:56Z</time>
      </trkpt>
      <trkpt lat="41.754807" lon="2.334032">
        <ele>1244.51</ele>
        <time>2012-05-11T13:41:06Z</time>
      </trkpt>
      <trkpt lat="41.755074" lon="2.333963">
        <ele>1245.44</ele>
        <time>2012-05-11T13:41:16Z</time>
      </trkpt>
      <trkpt lat="41.755089" lon="2.333963">
        <ele>1245.59</ele>
        <time>2012-05-11T13:41:26Z</time>
      </trkpt>
      <trkpt lat="41.755104" lon="2.333965">
        <ele>1245.55</ele>
        <time>2012-05-11T13:41:36Z</time>
      </trkpt>
      <trkpt lat="41.755234" lon="2.333982">
        <ele>1246.04</ele>
        <time>2012-05-11T13:41:46Z</time>
      </trkpt>
      <trkpt lat="41.755245" lon="2.333982">
        <ele>1246.11</ele>
        <time>2012-05-11T13:41:56Z</time>
      </trkpt>
      <trkpt lat="41.755535" lon="2.334050">
        <ele>1246.82</ele>
        <time>2012-05-11T13:42:06Z</time>
      </trkpt>
      <trkpt lat="41.755592" lon="2.334057">
        <ele>1246.88</ele>
        <time>2012-05-11T13:42:16Z</time>
      </trkpt>
      <trkpt lat="41.755856" lon="2.333955">
        <ele>1246.91</ele>
        <time>2012-05-11T13:42:26Z</time>
      </trkpt>
      <trkpt lat="41.756138" lon="2.333855">
        <ele>1246.61</ele>
        <time>2012-05-11T13:42:36Z</time>
      </trkpt>
      <trkpt lat="41.756424" lon="2.333810">
        <ele>1247.38</ele>
        <time>2012-05-11T13:42:46Z</time>
      </trkpt>
      <trkpt lat="41.756462" lon="2.333810">
        <ele>1247.56</ele>
        <time>2012-05-11T13:42:56Z</time>
      </trkpt>
      <trkpt lat="41.756504" lon="2.333808">
        <ele>1247.74</ele>
        <time>2012-05-11T13:43:06Z</time>
      </trkpt>
      <trkpt lat="41.756737" lon="2.333793">
        <ele>1249.07</ele>
        <time>2012-05-11T13:43:16Z</time>
      </trkpt>
      <trkpt lat="41.757019" lon="2.333837">
        <ele>1250.67</ele>
        <time>2012-05-11T13:43:26Z</time>
      </trkpt>
      <trkpt lat="41.757313" lon="2.333890">
        <ele>1252.99</ele>
        <time>2012-05-11T13:43:36Z</time>
      </trkpt>
      <trkpt lat="41.757580" lon="2.333983">
        <ele>1255.09</ele>
        <time>2012-05-11T13:43:46Z</time>
      </trkpt>
      <trkpt lat="41.757835" lon="2.334103">
        <ele>1256.97</ele>
        <time>2012-05-11T13:43:56Z</time>
      </trkpt>
      <trkpt lat="41.757877" lon="2.334108">
        <ele>1257.39</ele>
        <time>2012-05-11T13:44:06Z</time>
      </trkpt>
      <trkpt lat="41.757889" lon="2.334110">
        <ele>1257.31</ele>
        <time>2012-05-11T13:44:16Z</time>
      </trkpt>
      <trkpt lat="41.757954" lon="2.334137">
        <ele>1257.41</ele>
        <time>2012-05-11T13:44:26Z</time>
      </trkpt>
      <trkpt lat="41.758194" lon="2.334332">
        <ele>1256.98</ele>
        <time>2012-05-11T13:44:36Z</time>
      </trkpt>
      <trkpt lat="41.758419" lon="2.334572">
        <ele>1258.16</ele>
        <time>2012-05-11T13:44:46Z</time>
      </trkpt>
      <trkpt lat="41.758606" lon="2.334845">
        <ele>1257.69</ele>
        <time>2012-05-11T13:44:56Z</time>
      </trkpt>
      <trkpt lat="41.758820" lon="2.335077">
        <ele>1257.78</ele>
        <time>2012-05-11T13:45:06Z</time>
      </trkpt>
      <trkpt lat="41.759033" lon="2.335337">
        <ele>1257.95</ele>
        <time>2012-05-11T13:45:16Z</time>
      </trkpt>
      <trkpt lat="41.759220" lon="2.335625">
        <ele>1259.04</ele>
        <time>2012-05-11T13:45:26Z</time>
      </trkpt>
      <trkpt lat="41.759403" lon="2.335912">
        <ele>1260.66</ele>
        <time>2012-05-11T13:45:36Z</time>
      </trkpt>
      <trkpt lat="41.759518" lon="2.336278">
        <ele>1262.56</ele>
        <time>2012-05-11T13:45:46Z</time>
      </trkpt>
      <trkpt lat="41.759636" lon="2.336570">
        <ele>1263.28</ele>
        <time>2012-05-11T13:45:56Z</time>
      </trkpt>
      <trkpt lat="41.759396" lon="2.336782">
        <ele>1262.21</ele>
        <time>2012-05-11T13:46:06Z</time>
      </trkpt>
      <trkpt lat="41.759186" lon="2.337020">
        <ele>1261.01</ele>
        <time>2012-05-11T13:46:16Z</time>
      </trkpt>
      <trkpt lat="41.758961" lon="2.337232">
        <ele>1260.12</ele>
        <time>2012-05-11T13:46:26Z</time>
      </trkpt>
      <trkpt lat="41.758823" lon="2.337345">
        <ele>1259.79</ele>
        <time>2012-05-11T13:46:36Z</time>
      </trkpt>
      <trkpt lat="41.758640" lon="2.337713">
        <ele>1261.39</ele>
        <time>2012-05-11T13:46:46Z</time>
      </trkpt>
      <trkpt lat="41.758465" lon="2.337987">
        <ele>1263.11</ele>
        <time>2012-05-11T13:46:56Z</time>
      </trkpt>
      <trkpt lat="41.758408" lon="2.337983">
        <ele>1263.36</ele>
        <time>2012-05-11T13:47:06Z</time>
      </trkpt>
      <trkpt lat="41.758129" lon="2.337913">
        <ele>1264.29</ele>
        <time>2012-05-11T13:47:16Z</time>
      </trkpt>
      <trkpt lat="41.757847" lon="2.337900">
        <ele>1264.47</ele>
        <time>2012-05-11T13:47:26Z</time>
      </trkpt>
      <trkpt lat="41.757591" lon="2.337932">
        <ele>1263.25</ele>
        <time>2012-05-11T13:47:36Z</time>
      </trkpt>
      <trkpt lat="41.757366" lon="2.338137">
        <ele>1264.26</ele>
        <time>2012-05-11T13:47:46Z</time>
      </trkpt>
      <trkpt lat="41.757187" lon="2.338423">
        <ele>1267.42</ele>
        <time>2012-05-11T13:47:56Z</time>
      </trkpt>
      <trkpt lat="41.757015" lon="2.338712">
        <ele>1270.61</ele>
        <time>2012-05-11T13:48:06Z</time>
      </trkpt>
      <trkpt lat="41.756817" lon="2.338975">
        <ele>1269.59</ele>
        <time>2012-05-11T13:48:16Z</time>
      </trkpt>
      <trkpt lat="41.756584" lon="2.339223">
        <ele>1268.67</ele>
        <time>2012-05-11T13:48:26Z</time>
      </trkpt>
      <trkpt lat="41.756371" lon="2.339452">
        <ele>1268.62</ele>
        <time>2012-05-11T13:48:36Z</time>
      </trkpt>
      <trkpt lat="41.756168" lon="2.339723">
        <ele>1268.25</ele>
        <time>2012-05-11T13:48:46Z</time>
      </trkpt>
      <trkpt lat="41.755997" lon="2.340023">
        <ele>1267.23</ele>
        <time>2012-05-11T13:48:56Z</time>
      </trkpt>
      <trkpt lat="41.755783" lon="2.340310">
        <ele>1266.53</ele>
        <time>2012-05-11T13:49:06Z</time>
      </trkpt>
      <trkpt lat="41.755573" lon="2.340563">
        <ele>1266.28</ele>
        <time>2012-05-11T13:49:16Z</time>
      </trkpt>
      <trkpt lat="41.755405" lon="2.340855">
        <ele>1267.44</ele>
        <time>2012-05-11T13:49:26Z</time>
      </trkpt>
      <trkpt lat="41.755142" lon="2.341055">
        <ele>1262.52</ele>
        <time>2012-05-11T13:49:36Z</time>
      </trkpt>
      <trkpt lat="41.754898" lon="2.341292">
        <ele>1257.02</ele>
        <time>2012-05-11T13:49:46Z</time>
      </trkpt>
      <trkpt lat="41.754875" lon="2.341368">
        <ele>1256.91</ele>
        <time>2012-05-11T13:49:56Z</time>
      </trkpt>
      <trkpt lat="41.754814" lon="2.341595">
        <ele>1257.22</ele>
        <time>2012-05-11T13:50:06Z</time>
      </trkpt>
      <trkpt lat="41.754784" lon="2.341648">
        <ele>1257.11</ele>
        <time>2012-05-11T13:50:16Z</time>
      </trkpt>
      <trkpt lat="41.754707" lon="2.341902">
        <ele>1258.37</ele>
        <time>2012-05-11T13:50:26Z</time>
      </trkpt>
      <trkpt lat="41.754547" lon="2.342135">
        <ele>1259.16</ele>
        <time>2012-05-11T13:50:36Z</time>
      </trkpt>
      <trkpt lat="41.754536" lon="2.342172">
        <ele>1259.76</ele>
        <time>2012-05-11T13:50:46Z</time>
      </trkpt>
      <trkpt lat="41.754345" lon="2.342437">
        <ele>1261.86</ele>
        <time>2012-05-11T13:50:56Z</time>
      </trkpt>
      <trkpt lat="41.754189" lon="2.342732">
        <ele>1267.95</ele>
        <time>2012-05-11T13:51:06Z</time>
      </trkpt>
      <trkpt lat="41.754211" lon="2.342805">
        <ele>1270.47</ele>
        <time>2012-05-11T13:51:16Z</time>
      </trkpt>
      <trkpt lat="41.754185" lon="2.342843">
        <ele>1271.36</ele>
        <time>2012-05-11T13:51:26Z</time>
      </trkpt>
      <trkpt lat="41.754181" lon="2.342848">
        <ele>1271.52</ele>
        <time>2012-05-11T13:51:36Z</time>
      </trkpt>
      <trkpt lat="41.754166" lon="2.342903">
        <ele>1273.11</ele>
        <time>2012-05-11T13:51:46Z</time>
      </trkpt>
      <trkpt lat="41.754158" lon="2.342943">
        <ele>1273.68</ele>
        <time>2012-05-11T13:51:56Z</time>
      </trkpt>
      <trkpt lat="41.754101" lon="2.343025">
        <ele>1273.86</ele>
        <time>2012-05-11T13:52:06Z</time>
      </trkpt>
      <trkpt lat="41.754040" lon="2.343080">
        <ele>1274.12</ele>
        <time>2012-05-11T13:52:16Z</time>
      </trkpt>
      <trkpt lat="41.753887" lon="2.343295">
        <ele>1277.15</ele>
        <time>2012-05-11T13:52:26Z</time>
      </trkpt>
      <trkpt lat="41.753937" lon="2.343257">
        <ele>1276.33</ele>
        <time>2012-05-11T13:52:36Z</time>
      </trkpt>
      <trkpt lat="41.753979" lon="2.343325">
        <ele>1277.07</ele>
        <time>2012-05-11T13:52:46Z</time>
      </trkpt>
      <trkpt lat="41.754051" lon="2.343217">
        <ele>1275.54</ele>
        <time>2012-05-11T13:52:56Z</time>
      </trkpt>
      <trkpt lat="41.754181" lon="2.342883">
        <ele>1272.70</ele>
        <time>2012-05-11T13:53:06Z</time>
      </trkpt>
      <trkpt lat="41.754288" lon="2.342550">
        <ele>1263.92</ele>
        <time>2012-05-11T13:53:16Z</time>
      </trkpt>
      <trkpt lat="41.754295" lon="2.342442">
        <ele>1261.03</ele>
        <time>2012-05-11T13:53:26Z</time>
      </trkpt>
      <trkpt lat="41.754253" lon="2.342348">
        <ele>1257.31</ele>
        <time>2012-05-11T13:53:36Z</time>
      </trkpt>
      <trkpt lat="41.754192" lon="2.342382">
        <ele>1257.01</ele>
        <time>2012-05-11T13:53:46Z</time>
      </trkpt>
      <trkpt lat="41.754097" lon="2.342468">
        <ele>1258.00</ele>
        <time>2012-05-11T13:53:56Z</time>
      </trkpt>
      <trkpt lat="41.753990" lon="2.342492">
        <ele>1256.80</ele>
        <time>2012-05-11T13:54:06Z</time>
      </trkpt>
      <trkpt lat="41.753952" lon="2.342570">
        <ele>1258.94</ele>
        <time>2012-05-11T13:54:16Z</time>
      </trkpt>
      <trkpt lat="41.753979" lon="2.342632">
        <ele>1261.62</ele>
        <time>2012-05-11T13:54:26Z</time>
      </trkpt>
      <trkpt lat="41.753983" lon="2.342620">
        <ele>1261.27</ele>
        <time>2012-05-11T13:54:36Z</time>
      </trkpt>
      <trkpt lat="41.753906" lon="2.342587">
        <ele>1258.71</ele>
        <time>2012-05-11T13:54:46Z</time>
      </trkpt>
      <trkpt lat="41.753845" lon="2.342668">
        <ele>1260.98</ele>
        <time>2012-05-11T13:54:56Z</time>
      </trkpt>
      <trkpt lat="41.753834" lon="2.342677">
        <ele>1261.19</ele>
        <time>2012-05-11T13:55:06Z</time>
      </trkpt>
      <trkpt lat="41.753777" lon="2.342772">
        <ele>1264.22</ele>
        <time>2012-05-11T13:55:16Z</time>
      </trkpt>
      <trkpt lat="41.753769" lon="2.342790">
        <ele>1264.91</ele>
        <time>2012-05-11T13:55:26Z</time>
      </trkpt>
      <trkpt lat="41.753746" lon="2.342842">
        <ele>1266.77</ele>
        <time>2012-05-11T13:55:36Z</time>
      </trkpt>
      <trkpt lat="41.753525" lon="2.343062">
        <ele>1266.56</ele>
        <time>2012-05-11T13:55:46Z</time>
      </trkpt>
      <trkpt lat="41.753284" lon="2.343237">
        <ele>1264.14</ele>
        <time>2012-05-11T13:55:56Z</time>
      </trkpt>
      <trkpt lat="41.753235" lon="2.343318">
        <ele>1264.85</ele>
        <time>2012-05-11T13:56:06Z</time>
      </trkpt>
      <trkpt lat="41.753220" lon="2.343348">
        <ele>1265.29</ele>
        <time>2012-05-11T13:56:16Z</time>
      </trkpt>
      <trkpt lat="41.753044" lon="2.343545">
        <ele>1266.16</ele>
        <time>2012-05-11T13:56:26Z</time>
      </trkpt>
      <trkpt lat="41.752991" lon="2.343662">
        <ele>1268.13</ele>
        <time>2012-05-11T13:56:36Z</time>
      </trkpt>
      <trkpt lat="41.752819" lon="2.343967">
        <ele>1269.13</ele>
        <time>2012-05-11T13:56:46Z</time>
      </trkpt>
      <trkpt lat="41.752728" lon="2.344322">
        <ele>1272.77</ele>
        <time>2012-05-11T13:56:56Z</time>
      </trkpt>
      <trkpt lat="41.752586" lon="2.344655">
        <ele>1274.01</ele>
        <time>2012-05-11T13:57:06Z</time>
      </trkpt>
      <trkpt lat="41.752480" lon="2.345005">
        <ele>1274.81</ele>
        <time>2012-05-11T13:57:16Z</time>
      </trkpt>
      <trkpt lat="41.752407" lon="2.345378">
        <ele>1277.57</ele>
        <time>2012-05-11T13:57:26Z</time>
      </trkpt>
      <trkpt lat="41.752285" lon="2.345652">
        <ele>1277.16</ele>
        <time>2012-05-11T13:57:36Z</time>
      </trkpt>
      <trkpt lat="41.752106" lon="2.345930">
        <ele>1276.81</ele>
        <time>2012-05-11T13:57:46Z</time>
      </trkpt>
      <trkpt lat="41.751900" lon="2.346202">
        <ele>1281.00</ele>
        <time>2012-05-11T13:57:56Z</time>
      </trkpt>
      <trkpt lat="41.751774" lon="2.346270">
        <ele>1282.65</ele>
        <time>2012-05-11T13:58:06Z</time>
      </trkpt>
      <trkpt lat="41.751499" lon="2.346348">
        <ele>1285.12</ele>
        <time>2012-05-11T13:58:16Z</time>
      </trkpt>
      <trkpt lat="41.751331" lon="2.346390">
        <ele>1286.52</ele>
        <time>2012-05-11T13:58:26Z</time>
      </trkpt>
      <trkpt lat="41.751057" lon="2.346343">
        <ele>1290.36</ele>
        <time>2012-05-11T13:58:36Z</time>
      </trkpt>
      <trkpt lat="41.750980" lon="2.346297">
        <ele>1291.75</ele>
        <time>2012-05-11T13:58:46Z</time>
      </trkpt>
      <trkpt lat="41.750751" lon="2.346100">
        <ele>1294.02</ele>
        <time>2012-05-11T13:58:56Z</time>
      </trkpt>
      <trkpt lat="41.750610" lon="2.346082">
        <ele>1296.71</ele>
        <time>2012-05-11T13:59:06Z</time>
      </trkpt>
      <trkpt lat="41.750542" lon="2.346100">
        <ele>1298.35</ele>
        <time>2012-05-11T13:59:16Z</time>
      </trkpt>
      <trkpt lat="41.750298" lon="2.345938">
        <ele>1300.16</ele>
        <time>2012-05-11T13:59:26Z</time>
      </trkpt>
      <trkpt lat="41.750053" lon="2.345778">
        <ele>1300.07</ele>
        <time>2012-05-11T13:59:36Z</time>
      </trkpt>
      <trkpt lat="41.749844" lon="2.345587">
        <ele>1299.75</ele>
        <time>2012-05-11T13:59:46Z</time>
      </trkpt>
      <trkpt lat="41.749813" lon="2.345535">
        <ele>1299.53</ele>
        <time>2012-05-11T13:59:56Z</time>
      </trkpt>
      <trkpt lat="41.749660" lon="2.345385">
        <ele>1298.64</ele>
        <time>2012-05-11T14:00:06Z</time>
      </trkpt>
      <trkpt lat="41.749641" lon="2.345378">
        <ele>1298.42</ele>
        <time>2012-05-11T14:00:16Z</time>
      </trkpt>
      <trkpt lat="41.749619" lon="2.345365">
        <ele>1298.11</ele>
        <time>2012-05-11T14:00:26Z</time>
      </trkpt>
      <trkpt lat="41.749340" lon="2.345423">
        <ele>1294.54</ele>
        <time>2012-05-11T14:00:36Z</time>
      </trkpt>
      <trkpt lat="41.749172" lon="2.345412">
        <ele>1290.51</ele>
        <time>2012-05-11T14:00:46Z</time>
      </trkpt>
      <trkpt lat="41.749161" lon="2.345437">
        <ele>1290.41</ele>
        <time>2012-05-11T14:00:56Z</time>
      </trkpt>
      <trkpt lat="41.749115" lon="2.345620">
        <ele>1289.99</ele>
        <time>2012-05-11T14:01:06Z</time>
      </trkpt>
      <trkpt lat="41.749096" lon="2.345667">
        <ele>1289.67</ele>
        <time>2012-05-11T14:01:16Z</time>
      </trkpt>
      <trkpt lat="41.749107" lon="2.345565">
        <ele>1318.10</ele>
        <time>2016-02-12T11:37:19Z</time>
      </trkpt>
      <trkpt lat="41.749113" lon="2.345541">
        <ele>1318.10</ele>
        <time>2016-02-12T11:37:39Z</time>
      </trkpt>
      <trkpt lat="41.749122" lon="2.345516">
        <ele>1318.10</ele>
        <time>2016-02-12T11:37:59Z</time>
      </trkpt>
      <trkpt lat="41.749148" lon="2.345485">
        <ele>1318.17</ele>
        <time>2016-02-12T11:38:19Z</time>
      </trkpt>
      <trkpt lat="41.749164" lon="2.345446">
        <ele>1319.01</ele>
        <time>2016-02-12T11:38:39Z</time>
      </trkpt>
      <trkpt lat="41.749170" lon="2.345418">
        <ele>1319.07</ele>
        <time>2016-02-12T11:38:59Z</time>
      </trkpt>
      <trkpt lat="41.749176" lon="2.345390">
        <ele>1319.10</ele>
        <time>2016-02-12T11:39:19Z</time>
      </trkpt>
      <trkpt lat="41.749190" lon="2.345369">
        <ele>1319.05</ele>
        <time>2016-02-12T11:39:39Z</time>
      </trkpt>
      <trkpt lat="41.749214" lon="2.345354">
        <ele>1319.05</ele>
        <time>2016-02-12T11:39:59Z</time>
      </trkpt>
      <trkpt lat="41.749246" lon="2.345346">
        <ele>1319.00</ele>
        <time>2016-02-12T11:40:19Z</time>
      </trkpt>
      <trkpt lat="41.749284" lon="2.345351">
        <ele>1319.01</ele>
        <time>2016-02-12T11:40:39Z</time>
      </trkpt>
      <trkpt lat="41.749321" lon="2.345366">
        <ele>1319.01</ele>
        <time>2016-02-12T11:40:59Z</time>
      </trkpt>
      <trkpt lat="41.749351" lon="2.345381">
        <ele>1318.89</ele>
        <time>2016-02-12T11:41:19Z</time>
      </trkpt>
      <trkpt lat="41.749374" lon="2.345393">
        <ele>1317.03</ele>
        <time>2016-02-12T11:41:39Z</time>
      </trkpt>
      <trkpt lat="41.749398" lon="2.345399">
        <ele>1317.02</ele>
        <time>2016-02-12T11:41:59Z</time>
      </trkpt>
      <trkpt lat="41.749427" lon="2.345405">
        <ele>1317.06</ele>
        <time>2016-02-12T11:42:19Z</time>
      </trkpt>
      <trkpt lat="41.749460" lon="2.345409">
        <ele>1317.01</ele>
        <time>2016-02-12T11:42:39Z</time>
      </trkpt>
      <trkpt lat="41.749491" lon="2.345408">
        <ele>1317.06</ele>
        <time>2016-02-12T11:42:59Z</time>
      </trkpt>
      <trkpt lat="41.749523" lon="2.345407">
        <ele>1317.10</ele>
        <time>2016-02-12T11:43:19Z</time>
      </trkpt>
      <trkpt lat="41.749558" lon="2.345402">
        <ele>1317.10</ele>
        <time>2016-02-12T11:43:39Z</time>
      </trkpt>
      <trkpt lat="41.749595" lon="2.345397">
        <ele>1317.09</ele>
        <time>2016-02-12T11:43:59Z</time>
      </trkpt>
      <trkpt lat="41.749630" lon="2.345398">
        <ele>1317.04</ele>
        <time>2016-02-12T11:44:19Z</time>
      </trkpt>
      <trkpt lat="41.749662" lon="2.345402">
        <ele>1316.63</ele>
        <time>2016-02-12T11:44:39Z</time>
      </trkpt>
      <trkpt lat="41.749690" lon="2.345410">
        <ele>1313.01</ele>
        <time>2016-02-12T11:44:59Z</time>
      </trkpt>
      <trkpt lat="41.749717" lon="2.345432">
        <ele>1313.09</ele>
        <time>2016-02-12T11:45:19Z</time>
      </trkpt>
      <trkpt lat="41.749746" lon="2.345466">
        <ele>1313.06</ele>
        <time>2016-02-12T11:45:39Z</time>
      </trkpt>
      <trkpt lat="41.749781" lon="2.345507">
        <ele>1313.06</ele>
        <time>2016-02-12T11:45:59Z</time>
      </trkpt>
      <trkpt lat="41.749820" lon="2.345554">
        <ele>1312.63</ele>
        <time>2016-02-12T11:46:19Z</time>
      </trkpt>
      <trkpt lat="41.749857" lon="2.345605">
        <ele>1309.05</ele>
        <time>2016-02-12T11:46:39Z</time>
      </trkpt>
      <trkpt lat="41.749900" lon="2.345656">
        <ele>1309.08</ele>
        <time>2016-02-12T11:46:59Z</time>
      </trkpt>
      <trkpt lat="41.749956" lon="2.345704">
        <ele>1309.05</ele>
        <time>2016-02-12T11:47:19Z</time>
      </trkpt>
      <trkpt lat="41.750022" lon="2.345754">
        <ele>1309.04</ele>
        <time>2016-02-12T11:47:39Z</time>
      </trkpt>
      <trkpt lat="41.750096" lon="2.345803">
        <ele>1308.75</ele>
        <time>2016-02-12T11:47:59Z</time>
      </trkpt>
      <trkpt lat="41.750174" lon="2.345849">
        <ele>1305.70</ele>
        <time>2016-02-12T11:48:19Z</time>
      </trkpt>
      <trkpt lat="41.750251" lon="2.345902">
        <ele>1302.92</ele>
        <time>2016-02-12T11:48:39Z</time>
      </trkpt>
      <trkpt lat="41.750327" lon="2.345968">
        <ele>1301.91</ele>
        <time>2016-02-12T11:48:59Z</time>
      </trkpt>
      <trkpt lat="41.750402" lon="2.346035">
        <ele>1300.35</ele>
        <time>2016-02-12T11:49:19Z</time>
      </trkpt>
      <trkpt lat="41.750482" lon="2.346089">
        <ele>1300.20</ele>
        <time>2016-02-12T11:49:39Z</time>
      </trkpt>
      <trkpt lat="41.750562" lon="2.346129">
        <ele>1300.96</ele>
        <time>2016-02-12T11:49:59Z</time>
      </trkpt>
      <trkpt lat="41.750635" lon="2.346157">
        <ele>1299.99</ele>
        <time>2016-02-12T11:50:19Z</time>
      </trkpt>
      <trkpt lat="41.750701" lon="2.346184">
        <ele>1298.94</ele>
        <time>2016-02-12T11:50:39Z</time>
      </trkpt>
      <trkpt lat="41.750765" lon="2.346211">
        <ele>1297.99</ele>
        <time>2016-02-12T11:50:59Z</time>
      </trkpt>
      <trkpt lat="41.750826" lon="2.346236">
        <ele>1296.95</ele>
        <time>2016-02-12T11:51:19Z</time>
      </trkpt>
      <trkpt lat="41.750882" lon="2.346260">
        <ele>1296.24</ele>
        <time>2016-02-12T11:51:39Z</time>
      </trkpt>
      <trkpt lat="41.750936" lon="2.346286">
        <ele>1294.83</ele>
        <time>2016-02-12T11:51:59Z</time>
      </trkpt>
      <trkpt lat="41.750993" lon="2.346315">
        <ele>1293.06</ele>
        <time>2016-02-12T11:52:19Z</time>
      </trkpt>
      <trkpt lat="41.751051" lon="2.346344">
        <ele>1292.91</ele>
        <time>2016-02-12T11:52:39Z</time>
      </trkpt>
      <trkpt lat="41.751113" lon="2.346375">
        <ele>1292.01</ele>
        <time>2016-02-12T11:52:59Z</time>
      </trkpt>
      <trkpt lat="41.751179" lon="2.346401">
        <ele>1291.98</ele>
        <time>2016-02-12T11:53:19Z</time>
      </trkpt>
      <trkpt lat="41.751249" lon="2.346413">
        <ele>1291.26</ele>
        <time>2016-02-12T11:53:39Z</time>
      </trkpt>
      <trkpt lat="41.751323" lon="2.346408">
        <ele>1289.43</ele>
        <time>2016-02-12T11:53:59Z</time>
      </trkpt>
      <trkpt lat="41.751399" lon="2.346393">
        <ele>1289.00</ele>
        <time>2016-02-12T11:54:19Z</time>
      </trkpt>
      <trkpt lat="41.751475" lon="2.346373">
        <ele>1288.03</ele>
        <time>2016-02-12T11:54:39Z</time>
      </trkpt>
      <trkpt lat="41.751551" lon="2.346354">
        <ele>1288.07</ele>
        <time>2016-02-12T11:54:59Z</time>
      </trkpt>
      <trkpt lat="41.751627" lon="2.346344">
        <ele>1288.09</ele>
        <time>2016-02-12T11:55:19Z</time>
      </trkpt>
      <trkpt lat="41.751702" lon="2.346335">
        <ele>1288.10</ele>
        <time>2016-02-12T11:55:39Z</time>
      </trkpt>
      <trkpt lat="41.751774" lon="2.346316">
        <ele>1287.93</ele>
        <time>2016-02-12T11:55:59Z</time>
      </trkpt>
      <trkpt lat="41.751841" lon="2.346285">
        <ele>1287.29</ele>
        <time>2016-02-12T11:56:19Z</time>
      </trkpt>
      <trkpt lat="41.751902" lon="2.346242">
        <ele>1288.01</ele>
        <time>2016-02-12T11:56:39Z</time>
      </trkpt>
      <trkpt lat="41.751950" lon="2.346188">
        <ele>1288.01</ele>
        <time>2016-02-12T11:56:59Z</time>
      </trkpt>
      <trkpt lat="41.751992" lon="2.346135">
        <ele>1288.02</ele>
        <time>2016-02-12T11:57:19Z</time>
      </trkpt>
      <trkpt lat="41.752032" lon="2.346094">
        <ele>1288.17</ele>
        <time>2016-02-12T11:57:39Z</time>
      </trkpt>
      <trkpt lat="41.752068" lon="2.346069">
        <ele>1288.93</ele>
        <time>2016-02-12T11:57:59Z</time>
      </trkpt>
      <trkpt lat="41.752100" lon="2.346052">
        <ele>1288.05</ele>
        <time>2016-02-12T11:58:19Z</time>
      </trkpt>
      <trkpt lat="41.752133" lon="2.346032">
        <ele>1288.08</ele>
        <time>2016-02-12T11:58:39Z</time>
      </trkpt>
      <trkpt lat="41.752164" lon="2.346006">
        <ele>1288.01</ele>
        <time>2016-02-12T11:58:59Z</time>
      </trkpt>
      <trkpt lat="41.752192" lon="2.345981">
        <ele>1288.08</ele>
        <time>2016-02-12T11:59:19Z</time>
      </trkpt>
      <trkpt lat="41.752219" lon="2.345956">
        <ele>1288.05</ele>
        <time>2016-02-12T11:59:39Z</time>
      </trkpt>
      <trkpt lat="41.752248" lon="2.345936">
        <ele>1288.02</ele>
        <time>2016-02-12T11:59:59Z</time>
      </trkpt>
      <trkpt lat="41.752276" lon="2.345921">
        <ele>1288.00</ele>
        <time>2016-02-12T12:00:19Z</time>
      </trkpt>
      <trkpt lat="41.752305" lon="2.345910">
        <ele>1288.01</ele>
        <time>2016-02-12T12:00:39Z</time>
      </trkpt>
      <trkpt lat="41.752332" lon="2.345898">
        <ele>1288.01</ele>
        <time>2016-02-12T12:00:59Z</time>
      </trkpt>
      <trkpt lat="41.752355" lon="2.345878">
        <ele>1288.33</ele>
        <time>2016-02-12T12:01:19Z</time>
      </trkpt>
      <trkpt lat="41.752377" lon="2.345856">
        <ele>1291.04</ele>
        <time>2016-02-12T12:01:39Z</time>
      </trkpt>
      <trkpt lat="41.752400" lon="2.345832">
        <ele>1291.01</ele>
        <time>2016-02-12T12:01:59Z</time>
      </trkpt>
      <trkpt lat="41.752425" lon="2.345810">
        <ele>1291.10</ele>
        <time>2016-02-12T12:02:19Z</time>
      </trkpt>
      <trkpt lat="41.752451" lon="2.345792">
        <ele>1291.03</ele>
        <time>2016-02-12T12:02:39Z</time>
      </trkpt>
      <trkpt lat="41.752479" lon="2.345776">
        <ele>1291.27</ele>
        <time>2016-02-12T12:02:59Z</time>
      </trkpt>
      <trkpt lat="41.752510" lon="2.345762">
        <ele>1293.03</ele>
        <time>2016-02-12T12:03:19Z</time>
      </trkpt>
      <trkpt lat="41.752541" lon="2.345748">
        <ele>1293.08</ele>
        <time>2016-02-12T12:03:39Z</time>
      </trkpt>
      <trkpt lat="41.752571" lon="2.345730">
        <ele>1293.04</ele>
        <time>2016-02-12T12:03:59Z</time>
      </trkpt>
      <trkpt lat="41.752598" lon="2.345710">
        <ele>1293.07</ele>
        <time>2016-02-12T12:04:19Z</time>
      </trkpt>
      <trkpt lat="41.752623" lon="2.345692">
        <ele>1293.22</ele>
        <time>2016-02-12T12:04:39Z</time>
      </trkpt>
      <trkpt lat="41.752648" lon="2.345676">
        <ele>1295.01</ele>
        <time>2016-02-12T12:04:59Z</time>
      </trkpt>
      <trkpt lat="41.752673" lon="2.345662">
        <ele>1295.09</ele>
        <time>2016-02-12T12:05:19Z</time>
      </trkpt>
      <trkpt lat="41.752696" lon="2.345646">
        <ele>1295.10</ele>
        <time>2016-02-12T12:05:39Z</time>
      </trkpt>
      <trkpt lat="41.752719" lon="2.345630">
        <ele>1295.03</ele>
        <time>2016-02-12T12:05:59Z</time>
      </trkpt>
      <trkpt lat="41.752741" lon="2.345619">
        <ele>1295.03</ele>
        <time>2016-02-12T12:06:19Z</time>
      </trkpt>
      <trkpt lat="41.752764" lon="2.345608">
        <ele>1297.03</ele>
        <time>2016-02-12T12:06:39Z</time>
      </trkpt>
      <trkpt lat="41.752785" lon="2.345600">
        <ele>1297.01</ele>
        <time>2016-02-12T12:06:59Z</time>
      </trkpt>
      <trkpt lat="41.752804" lon="2.345596">
        <ele>1297.03</ele>
        <time>2016-02-12T12:07:19Z</time>
      </trkpt>
      <trkpt lat="41.752823" lon="2.345592">
        <ele>1297.09</ele>
        <time>2016-02-12T12:07:39Z</time>
      </trkpt>
      <trkpt lat="41.752844" lon="2.345586">
        <ele>1297.12</ele>
        <time>2016-02-12T12:07:59Z</time>
      </trkpt>
      <trkpt lat="41.752862" lon="2.345574">
        <ele>1298.09</ele>
        <time>2016-02-12T12:08:19Z</time>
      </trkpt>
      <trkpt lat="41.752877" lon="2.345558">
        <ele>1298.02</ele>
        <time>2016-02-12T12:08:39Z</time>
      </trkpt>
      <trkpt lat="41.752893" lon="2.345540">
        <ele>1298.01</ele>
        <time>2016-02-12T12:08:59Z</time>
      </trkpt>
      <trkpt lat="41.752910" lon="2.345518">
        <ele>1298.03</ele>
        <time>2016-02-12T12:09:19Z</time>
      </trkpt>
      <trkpt lat="41.752930" lon="2.345494">
        <ele>1298.03</ele>
        <time>2016-02-12T12:09:39Z</time>
      </trkpt>
      <trkpt lat="41.752952" lon="2.345466">
        <ele>1298.02</ele>
        <time>2016-02-12T12:09:59Z</time>
      </trkpt>
      <trkpt lat="41.752976" lon="2.345436">
        <ele>1298.08</ele>
        <time>2016-02-12T12:10:19Z</time>
      </trkpt>
      <trkpt lat="41.753001" lon="2.345402">
        <ele>1298.09</ele>
        <time>2016-02-12T12:10:39Z</time>
      </trkpt>
      <trkpt lat="41.753027" lon="2.345364">
        <ele>1298.08</ele>
        <time>2016-02-12T12:10:59Z</time>
      </trkpt>
      <trkpt lat="41.753054" lon="2.345324">
        <ele>1297.82</ele>
        <time>2016-02-12T12:11:19Z</time>
      </trkpt>
      <trkpt lat="41.753083" lon="2.345282">
        <ele>1296.08</ele>
        <time>2016-02-12T12:11:39Z</time>
      </trkpt>
      <trkpt lat="41.753110" lon="2.345236">
        <ele>1296.07</ele>
        <time>2016-02-12T12:11:59Z</time>
      </trkpt>
      <trkpt lat="41.753137" lon="2.345188">
        <ele>1296.01</ele>
        <time>2016-02-12T12:12:19Z</time>
      </trkpt>
      <trkpt lat="41.753160" lon="2.345138">
        <ele>1296.01</ele>
        <time>2016-02-12T12:12:39Z</time>
      </trkpt>
      <trkpt lat="41.753181" lon="2.345086">
        <ele>1296.01</ele>
        <time>2016-02-12T12:12:59Z</time>
      </trkpt>
      <trkpt lat="41.753200" lon="2.345034">
        <ele>1296.07</ele>
        <time>2016-02-12T12:13:19Z</time>
      </trkpt>
      <trkpt lat="41.753218" lon="2.344978">
        <ele>1296.05</ele>
        <time>2016-02-12T12:13:39Z</time>
      </trkpt>
      <trkpt lat="41.753236" lon="2.344926">
        <ele>1296.06</ele>
        <time>2016-02-12T12:13:59Z</time>
      </trkpt>
      <trkpt lat="41.753258" lon="2.344878">
        <ele>1296.09</ele>
        <time>2016-02-12T12:14:19Z</time>
      </trkpt>
      <trkpt lat="41.753281" lon="2.344826">
        <ele>1295.82</ele>
        <time>2016-02-12T12:14:39Z</time>
      </trkpt>
      <trkpt lat="41.753302" lon="2.344772">
        <ele>1294.04</ele>
        <time>2016-02-12T12:14:59Z</time>
      </trkpt>
      <trkpt lat="41.753319" lon="2.344718">
        <ele>1294.06</ele>
        <time>2016-02-12T12:15:19Z</time>
      </trkpt>
      <trkpt lat="41.753332" lon="2.344658">
        <ele>1294.02</ele>
        <time>2016-02-12T12:15:39Z</time>
      </trkpt>
      <trkpt lat="41.753347" lon="2.344598">
        <ele>1294.07</ele>
        <time>2016-02-12T12:15:59Z</time>
      </trkpt>
      <trkpt lat="41.753365" lon="2.344536">
        <ele>1293.64</ele>
        <time>2016-02-12T12:16:19Z</time>
      </trkpt>
      <trkpt lat="41.753386" lon="2.344482">
        <ele>1290.03</ele>
        <time>2016-02-12T12:16:39Z</time>
      </trkpt>
      <trkpt lat="41.753407" lon="2.344436">
        <ele>1290.01</ele>
        <time>2016-02-12T12:16:59Z</time>
      </trkpt>
      <trkpt lat="41.753425" lon="2.344396">
        <ele>1290.05</ele>
        <time>2016-02-12T12:17:19Z</time>
      </trkpt>
      <trkpt lat="41.753438" lon="2.344348">
        <ele>1290.05</ele>
        <time>2016-02-12T12:17:39Z</time>
      </trkpt>
      <trkpt lat="41.753446" lon="2.344292">
        <ele>1289.70</ele>
        <time>2016-02-12T12:17:59Z</time>
      </trkpt>
      <trkpt lat="41.753453" lon="2.344229">
        <ele>1286.07</ele>
        <time>2016-02-12T12:18:19Z</time>
      </trkpt>
      <trkpt lat="41.753462" lon="2.344167">
        <ele>1286.01</ele>
        <time>2016-02-12T12:18:39Z</time>
      </trkpt>
      <trkpt lat="41.753468" lon="2.344112">
        <ele>1286.08</ele>
        <time>2016-02-12T12:18:59Z</time>
      </trkpt>
      <trkpt lat="41.753476" lon="2.344063">
        <ele>1286.18</ele>
        <time>2016-02-12T12:19:19Z</time>
      </trkpt>
      <trkpt lat="41.753486" lon="2.344018">
        <ele>1286.84</ele>
        <time>2016-02-12T12:19:39Z</time>
      </trkpt>
      <trkpt lat="41.753496" lon="2.343973">
        <ele>1286.05</ele>
        <time>2016-02-12T12:19:59Z</time>
      </trkpt>
      <trkpt lat="41.753504" lon="2.343929">
        <ele>1286.06</ele>
        <time>2016-02-12T12:20:19Z</time>
      </trkpt>
      <trkpt lat="41.753508" lon="2.343893">
        <ele>1285.92</ele>
        <time>2016-02-12T12:20:39Z</time>
      </trkpt>
      <trkpt lat="41.753510" lon="2.343864">
        <ele>1285.11</ele>
        <time>2016-02-12T12:20:59Z</time>
      </trkpt>
      <trkpt lat="41.753514" lon="2.343832">
        <ele>1286.10</ele>
        <time>2016-02-12T12:21:19Z</time>
      </trkpt>
      <trkpt lat="41.753522" lon="2.343802">
        <ele>1286.04</ele>
        <time>2016-02-12T12:21:39Z</time>
      </trkpt>
      <trkpt lat="41.753536" lon="2.343776">
        <ele>1286.09</ele>
        <time>2016-02-12T12:21:59Z</time>
      </trkpt>
      <trkpt lat="41.753554" lon="2.343747">
        <ele>1286.07</ele>
        <time>2016-02-12T12:22:19Z</time>
      </trkpt>
      <trkpt lat="41.753570" lon="2.343716">
        <ele>1286.03</ele>
        <time>2016-02-12T12:22:39Z</time>
      </trkpt>
      <trkpt lat="41.753580" lon="2.343688">
        <ele>1286.09</ele>
        <time>2016-02-12T12:22:59Z</time>
      </trkpt>
      <trkpt lat="41.753592" lon="2.343661">
        <ele>1286.10</ele>
        <time>2016-02-12T12:23:19Z</time>
      </trkpt>
      <trkpt lat="41.753608" lon="2.343629">
        <ele>1286.08</ele>
        <time>2016-02-12T12:23:39Z</time>
      </trkpt>
      <trkpt lat="41.753626" lon="2.343594">
        <ele>1286.05</ele>
        <time>2016-02-12T12:23:59Z</time>
      </trkpt>
      <trkpt lat="41.753644" lon="2.343557">
        <ele>1286.00</ele>
        <time>2016-02-12T12:24:19Z</time>
      </trkpt>
      <trkpt lat="41.753662" lon="2.343522">
        <ele>1285.81</ele>
        <time>2016-02-12T12:24:39Z</time>
      </trkpt>
      <trkpt lat="41.753674" lon="2.343484">
        <ele>1284.01</ele>
        <time>2016-02-12T12:24:59Z</time>
      </trkpt>
      <trkpt lat="41.753685" lon="2.343447">
        <ele>1284.06</ele>
        <time>2016-02-12T12:25:19Z</time>
      </trkpt>
      <trkpt lat="41.753700" lon="2.343413">
        <ele>1284.10</ele>
        <time>2016-02-12T12:25:39Z</time>
      </trkpt>
      <trkpt lat="41.753720" lon="2.343379">
        <ele>1284.03</ele>
        <time>2016-02-12T12:25:59Z</time>
      </trkpt>
      <trkpt lat="41.753742" lon="2.343348">
        <ele>1284.05</ele>
        <time>2016-02-12T12:26:19Z</time>
      </trkpt>
      <trkpt lat="41.753770" lon="2.343315">
        <ele>1284.02</ele>
        <time>2016-02-12T12:26:39Z</time>
      </trkpt>
      <trkpt lat="41.753794" lon="2.343276">
        <ele>1284.03</ele>
        <time>2016-02-12T12:26:59Z</time>
      </trkpt>
      <trkpt lat="41.753812" lon="2.343241">
        <ele>1284.07</ele>
        <time>2016-02-12T12:27:19Z</time>
      </trkpt>
      <trkpt lat="41.753830" lon="2.343215">
        <ele>1284.06</ele>
        <time>2016-02-12T12:27:39Z</time>
      </trkpt>
      <trkpt lat="41.753847" lon="2.343198">
        <ele>1283.89</ele>
        <time>2016-02-12T12:27:59Z</time>
      </trkpt>
      <trkpt lat="41.753862" lon="2.343185">
        <ele>1282.01</ele>
        <time>2016-02-12T12:28:19Z</time>
      </trkpt>
      <trkpt lat="41.753880" lon="2.343175">
        <ele>1282.03</ele>
        <time>2016-02-12T12:28:39Z</time>
      </trkpt>
      <trkpt lat="41.753898" lon="2.343163">
        <ele>1282.01</ele>
        <time>2016-02-12T12:28:59Z</time>
      </trkpt>
      <trkpt lat="41.753926" lon="2.343137">
        <ele>1282.08</ele>
        <time>2016-02-12T12:29:19Z</time>
      </trkpt>
      <trkpt lat="41.753940" lon="2.343121">
        <ele>1282.06</ele>
        <time>2016-02-12T12:29:39Z</time>
      </trkpt>
      <trkpt lat="41.753956" lon="2.343105">
        <ele>1282.04</ele>
        <time>2016-02-12T12:29:59Z</time>
      </trkpt>
      <trkpt lat="41.753970" lon="2.343091">
        <ele>1282.08</ele>
        <time>2016-02-12T12:30:19Z</time>
      </trkpt>
      <trkpt lat="41.753983" lon="2.343070">
        <ele>1282.04</ele>
        <time>2016-02-12T12:30:39Z</time>
      </trkpt>
      <trkpt lat="41.754052" lon="2.342994">
        <ele>1283.03</ele>
        <time>2016-02-12T12:30:59Z</time>
      </trkpt>
      <trkpt lat="41.754072" lon="2.342977">
        <ele>1283.07</ele>
        <time>2016-02-12T12:31:19Z</time>
      </trkpt>
      <trkpt lat="41.754094" lon="2.342957">
        <ele>1283.08</ele>
        <time>2016-02-12T12:31:39Z</time>
      </trkpt>
      <trkpt lat="41.754115" lon="2.342925">
        <ele>1283.18</ele>
        <time>2016-02-12T12:31:59Z</time>
      </trkpt>
      <trkpt lat="41.754122" lon="2.342901">
        <ele>1284.03</ele>
        <time>2016-02-12T12:32:19Z</time>
      </trkpt>
      <trkpt lat="41.754143" lon="2.342783">
        <ele>1284.03</ele>
        <time>2016-02-12T12:32:39Z</time>
      </trkpt>
      <trkpt lat="41.754157" lon="2.342748">
        <ele>1284.01</ele>
        <time>2016-02-12T12:32:59Z</time>
      </trkpt>
      <trkpt lat="41.754176" lon="2.342714">
        <ele>1284.10</ele>
        <time>2016-02-12T12:33:19Z</time>
      </trkpt>
      <trkpt lat="41.754194" lon="2.342693">
        <ele>1284.04</ele>
        <time>2016-02-12T12:33:39Z</time>
      </trkpt>
      <trkpt lat="41.754213" lon="2.342661">
        <ele>1284.08</ele>
        <time>2016-02-12T12:33:59Z</time>
      </trkpt>
      <trkpt lat="41.754231" lon="2.342617">
        <ele>1284.01</ele>
        <time>2016-02-12T12:34:19Z</time>
      </trkpt>
      <trkpt lat="41.754245" lon="2.342570">
        <ele>1284.05</ele>
        <time>2016-02-12T12:34:39Z</time>
      </trkpt>
      <trkpt lat="41.754260" lon="2.342528">
        <ele>1284.03</ele>
        <time>2016-02-12T12:34:59Z</time>
      </trkpt>
      <trkpt lat="41.754275" lon="2.342491">
        <ele>1284.10</ele>
        <time>2016-02-12T12:35:19Z</time>
      </trkpt>
      <trkpt lat="41.754292" lon="2.342453">
        <ele>1284.04</ele>
        <time>2016-02-12T12:35:39Z</time>
      </trkpt>
      <trkpt lat="41.754313" lon="2.342418">
        <ele>1283.81</ele>
        <time>2016-02-12T12:35:59Z</time>
      </trkpt>
      <trkpt lat="41.754337" lon="2.342386">
        <ele>1281.42</ele>
        <time>2016-02-12T12:36:19Z</time>
      </trkpt>
      <trkpt lat="41.754363" lon="2.342352">
        <ele>1281.00</ele>
        <time>2016-02-12T12:36:39Z</time>
      </trkpt>
      <trkpt lat="41.754387" lon="2.342321">
        <ele>1281.01</ele>
        <time>2016-02-12T12:36:59Z</time>
      </trkpt>
      <trkpt lat="41.754409" lon="2.342294">
        <ele>1281.06</ele>
        <time>2016-02-12T12:37:19Z</time>
      </trkpt>
      <trkpt lat="41.754428" lon="2.342270">
        <ele>1281.03</ele>
        <time>2016-02-12T12:37:39Z</time>
      </trkpt>
      <trkpt lat="41.754445" lon="2.342250">
        <ele>1281.01</ele>
        <time>2016-02-12T12:37:59Z</time>
      </trkpt>
      <trkpt lat="41.754461" lon="2.342230">
        <ele>1281.09</ele>
        <time>2016-02-12T12:38:19Z</time>
      </trkpt>
      <trkpt lat="41.754478" lon="2.342208">
        <ele>1281.09</ele>
        <time>2016-02-12T12:38:39Z</time>
      </trkpt>
      <trkpt lat="41.754496" lon="2.342186">
        <ele>1281.07</ele>
        <time>2016-02-12T12:38:59Z</time>
      </trkpt>
      <trkpt lat="41.754512" lon="2.342164">
        <ele>1281.06</ele>
        <time>2016-02-12T12:39:19Z</time>
      </trkpt>
      <trkpt lat="41.754520" lon="2.342141">
        <ele>1281.03</ele>
        <time>2016-02-12T12:39:39Z</time>
      </trkpt>
      <trkpt lat="41.754545" lon="2.342100">
        <ele>1281.04</ele>
        <time>2016-02-12T12:39:59Z</time>
      </trkpt>
      <trkpt lat="41.754568" lon="2.342078">
        <ele>1281.02</ele>
        <time>2016-02-12T12:40:19Z</time>
      </trkpt>
      <trkpt lat="41.754591" lon="2.342044">
        <ele>1281.02</ele>
        <time>2016-02-12T12:40:39Z</time>
      </trkpt>
      <trkpt lat="41.754614" lon="2.342004">
        <ele>1281.01</ele>
        <time>2016-02-12T12:40:59Z</time>
      </trkpt>
      <trkpt lat="41.754633" lon="2.341960">
        <ele>1281.01</ele>
        <time>2016-02-12T12:41:19Z</time>
      </trkpt>
      <trkpt lat="41.754649" lon="2.341912">
        <ele>1281.03</ele>
        <time>2016-02-12T12:41:39Z</time>
      </trkpt>
      <trkpt lat="41.754660" lon="2.341867">
        <ele>1281.02</ele>
        <time>2016-02-12T12:41:59Z</time>
      </trkpt>
      <trkpt lat="41.754673" lon="2.341828">
        <ele>1280.95</ele>
        <time>2016-02-12T12:42:19Z</time>
      </trkpt>
      <trkpt lat="41.754695" lon="2.341792">
        <ele>1280.02</ele>
        <time>2016-02-12T12:42:39Z</time>
      </trkpt>
      <trkpt lat="41.754718" lon="2.341750">
        <ele>1280.01</ele>
        <time>2016-02-12T12:42:59Z</time>
      </trkpt>
      <trkpt lat="41.754743" lon="2.341706">
        <ele>1280.04</ele>
        <time>2016-02-12T12:43:19Z</time>
      </trkpt>
      <trkpt lat="41.754770" lon="2.341656">
        <ele>1280.09</ele>
        <time>2016-02-12T12:43:39Z</time>
      </trkpt>
      <trkpt lat="41.754799" lon="2.341610">
        <ele>1280.03</ele>
        <time>2016-02-12T12:43:59Z</time>
      </trkpt>
      <trkpt lat="41.754828" lon="2.341560">
        <ele>1280.03</ele>
        <time>2016-02-12T12:44:19Z</time>
      </trkpt>
      <trkpt lat="41.754850" lon="2.341498">
        <ele>1280.01</ele>
        <time>2016-02-12T12:44:39Z</time>
      </trkpt>
      <trkpt lat="41.754866" lon="2.341430">
        <ele>1280.01</ele>
        <time>2016-02-12T12:44:59Z</time>
      </trkpt>
      <trkpt lat="41.754881" lon="2.341362">
        <ele>1280.05</ele>
        <time>2016-02-12T12:45:19Z</time>
      </trkpt>
      <trkpt lat="41.754906" lon="2.341298">
        <ele>1279.64</ele>
        <time>2016-02-12T12:45:39Z</time>
      </trkpt>
      <trkpt lat="41.754941" lon="2.341246">
        <ele>1276.09</ele>
        <time>2016-02-12T12:45:59Z</time>
      </trkpt>
      <trkpt lat="41.754981" lon="2.341199">
        <ele>1276.10</ele>
        <time>2016-02-12T12:46:19Z</time>
      </trkpt>
      <trkpt lat="41.755023" lon="2.341158">
        <ele>1276.02</ele>
        <time>2016-02-12T12:46:39Z</time>
      </trkpt>
      <trkpt lat="41.755065" lon="2.341126">
        <ele>1276.02</ele>
        <time>2016-02-12T12:46:59Z</time>
      </trkpt>
      <trkpt lat="41.755106" lon="2.341100">
        <ele>1276.09</ele>
        <time>2016-02-12T12:47:19Z</time>
      </trkpt>
      <trkpt lat="41.755144" lon="2.341072">
        <ele>1275.04</ele>
        <time>2016-02-12T12:47:39Z</time>
      </trkpt>
      <trkpt lat="41.755178" lon="2.341040">
        <ele>1275.08</ele>
        <time>2016-02-12T12:47:59Z</time>
      </trkpt>
      <trkpt lat="41.755211" lon="2.341003">
        <ele>1275.03</ele>
        <time>2016-02-12T12:48:19Z</time>
      </trkpt>
      <trkpt lat="41.755244" lon="2.340966">
        <ele>1275.03</ele>
        <time>2016-02-12T12:48:39Z</time>
      </trkpt>
      <trkpt lat="41.755282" lon="2.340942">
        <ele>1275.01</ele>
        <time>2016-02-12T12:48:59Z</time>
      </trkpt>
      <trkpt lat="41.755323" lon="2.340924">
        <ele>1277.07</ele>
        <time>2016-02-12T12:49:19Z</time>
      </trkpt>
      <trkpt lat="41.755364" lon="2.340904">
        <ele>1277.10</ele>
        <time>2016-02-12T12:49:39Z</time>
      </trkpt>
      <trkpt lat="41.755402" lon="2.340874">
        <ele>1277.04</ele>
        <time>2016-02-12T12:49:59Z</time>
      </trkpt>
      <trkpt lat="41.755436" lon="2.340840">
        <ele>1277.04</ele>
        <time>2016-02-12T12:50:19Z</time>
      </trkpt>
      <trkpt lat="41.755464" lon="2.340802">
        <ele>1277.02</ele>
        <time>2016-02-12T12:50:39Z</time>
      </trkpt>
      <trkpt lat="41.755488" lon="2.340758">
        <ele>1277.09</ele>
        <time>2016-02-12T12:50:59Z</time>
      </trkpt>
      <trkpt lat="41.755511" lon="2.340712">
        <ele>1277.03</ele>
        <time>2016-02-12T12:51:19Z</time>
      </trkpt>
      <trkpt lat="41.755537" lon="2.340666">
        <ele>1277.01</ele>
        <time>2016-02-12T12:51:39Z</time>
      </trkpt>
      <trkpt lat="41.755564" lon="2.340616">
        <ele>1277.06</ele>
        <time>2016-02-12T12:51:59Z</time>
      </trkpt>
      <trkpt lat="41.755592" lon="2.340565">
        <ele>1276.96</ele>
        <time>2016-02-12T12:52:19Z</time>
      </trkpt>
      <trkpt lat="41.755622" lon="2.340517">
        <ele>1276.01</ele>
        <time>2016-02-12T12:52:39Z</time>
      </trkpt>
      <trkpt lat="41.755657" lon="2.340472">
        <ele>1276.01</ele>
        <time>2016-02-12T12:52:59Z</time>
      </trkpt>
      <trkpt lat="41.755695" lon="2.340432">
        <ele>1276.07</ele>
        <time>2016-02-12T12:53:19Z</time>
      </trkpt>
      <trkpt lat="41.755732" lon="2.340393">
        <ele>1276.08</ele>
        <time>2016-02-12T12:53:39Z</time>
      </trkpt>
      <trkpt lat="41.755770" lon="2.340352">
        <ele>1276.02</ele>
        <time>2016-02-12T12:53:59Z</time>
      </trkpt>
      <trkpt lat="41.755807" lon="2.340310">
        <ele>1276.07</ele>
        <time>2016-02-12T12:54:19Z</time>
      </trkpt>
      <trkpt lat="41.755842" lon="2.340266">
        <ele>1276.04</ele>
        <time>2016-02-12T12:54:39Z</time>
      </trkpt>
      <trkpt lat="41.755876" lon="2.340224">
        <ele>1276.03</ele>
        <time>2016-02-12T12:54:59Z</time>
      </trkpt>
      <trkpt lat="41.755909" lon="2.340182">
        <ele>1276.03</ele>
        <time>2016-02-12T12:55:19Z</time>
      </trkpt>
      <trkpt lat="41.755940" lon="2.340140">
        <ele>1275.96</ele>
        <time>2016-02-12T12:55:39Z</time>
      </trkpt>
      <trkpt lat="41.755970" lon="2.340100">
        <ele>1275.10</ele>
        <time>2016-02-12T12:55:59Z</time>
      </trkpt>
      <trkpt lat="41.755998" lon="2.340060">
        <ele>1275.01</ele>
        <time>2016-02-12T12:56:19Z</time>
      </trkpt>
      <trkpt lat="41.756024" lon="2.340020">
        <ele>1275.03</ele>
        <time>2016-02-12T12:56:39Z</time>
      </trkpt>
      <trkpt lat="41.756048" lon="2.339980">
        <ele>1275.01</ele>
        <time>2016-02-12T12:56:59Z</time>
      </trkpt>
      <trkpt lat="41.756070" lon="2.339939">
        <ele>1275.02</ele>
        <time>2016-02-12T12:57:19Z</time>
      </trkpt>
      <trkpt lat="41.756092" lon="2.339898">
        <ele>1275.03</ele>
        <time>2016-02-12T12:57:39Z</time>
      </trkpt>
      <trkpt lat="41.756116" lon="2.339856">
        <ele>1275.07</ele>
        <time>2016-02-12T12:57:59Z</time>
      </trkpt>
      <trkpt lat="41.756137" lon="2.339813">
        <ele>1275.06</ele>
        <time>2016-02-12T12:58:19Z</time>
      </trkpt>
      <trkpt lat="41.756162" lon="2.339769">
        <ele>1275.08</ele>
        <time>2016-02-12T12:58:39Z</time>
      </trkpt>
      <trkpt lat="41.756188" lon="2.339726">
        <ele>1275.06</ele>
        <time>2016-02-12T12:58:59Z</time>
      </trkpt>
      <trkpt lat="41.756216" lon="2.339685">
        <ele>1275.04</ele>
        <time>2016-02-12T12:59:19Z</time>
      </trkpt>
      <trkpt lat="41.756243" lon="2.339644">
        <ele>1275.03</ele>
        <time>2016-02-12T12:59:39Z</time>
      </trkpt>
      <trkpt lat="41.756272" lon="2.339603">
        <ele>1275.01</ele>
        <time>2016-02-12T12:59:59Z</time>
      </trkpt>
      <trkpt lat="41.756298" lon="2.339562">
        <ele>1275.02</ele>
        <time>2016-02-12T13:00:19Z</time>
      </trkpt>
      <trkpt lat="41.756328" lon="2.339522">
        <ele>1275.00</ele>
        <time>2016-02-12T13:00:39Z</time>
      </trkpt>
      <trkpt lat="41.756358" lon="2.339484">
        <ele>1275.01</ele>
        <time>2016-02-12T13:00:59Z</time>
      </trkpt>
      <trkpt lat="41.756388" lon="2.339446">
        <ele>1275.05</ele>
        <time>2016-02-12T13:01:19Z</time>
      </trkpt>
      <trkpt lat="41.756416" lon="2.339406">
        <ele>1275.05</ele>
        <time>2016-02-12T13:01:39Z</time>
      </trkpt>
      <trkpt lat="41.756444" lon="2.339366">
        <ele>1275.06</ele>
        <time>2016-02-12T13:01:59Z</time>
      </trkpt>
      <trkpt lat="41.756474" lon="2.339332">
        <ele>1275.01</ele>
        <time>2016-02-12T13:02:19Z</time>
      </trkpt>
      <trkpt lat="41.756506" lon="2.339302">
        <ele>1275.07</ele>
        <time>2016-02-12T13:02:39Z</time>
      </trkpt>
      <trkpt lat="41.756536" lon="2.339271">
        <ele>1275.01</ele>
        <time>2016-02-12T13:02:59Z</time>
      </trkpt>
      <trkpt lat="41.756566" lon="2.339240">
        <ele>1275.09</ele>
        <time>2016-02-12T13:03:19Z</time>
      </trkpt>
      <trkpt lat="41.756596" lon="2.339208">
        <ele>1275.10</ele>
        <time>2016-02-12T13:03:39Z</time>
      </trkpt>
      <trkpt lat="41.756624" lon="2.339176">
        <ele>1275.04</ele>
        <time>2016-02-12T13:03:59Z</time>
      </trkpt>
      <trkpt lat="41.756652" lon="2.339145">
        <ele>1275.09</ele>
        <time>2016-02-12T13:04:19Z</time>
      </trkpt>
      <trkpt lat="41.756682" lon="2.339114">
        <ele>1275.01</ele>
        <time>2016-02-12T13:04:39Z</time>
      </trkpt>
      <trkpt lat="41.756710" lon="2.339085">
        <ele>1275.01</ele>
        <time>2016-02-12T13:04:59Z</time>
      </trkpt>
      <trkpt lat="41.756736" lon="2.339055">
        <ele>1275.04</ele>
        <time>2016-02-12T13:05:19Z</time>
      </trkpt>
      <trkpt lat="41.756764" lon="2.339025">
        <ele>1275.26</ele>
        <time>2016-02-12T13:05:39Z</time>
      </trkpt>
      <trkpt lat="41.756790" lon="2.338995">
        <ele>1277.10</ele>
        <time>2016-02-12T13:05:59Z</time>
      </trkpt>
      <trkpt lat="41.756818" lon="2.338964">
        <ele>1277.03</ele>
        <time>2016-02-12T13:06:19Z</time>
      </trkpt>
      <trkpt lat="41.756846" lon="2.338932">
        <ele>1277.07</ele>
        <time>2016-02-12T13:06:39Z</time>
      </trkpt>
      <trkpt lat="41.756876" lon="2.338898">
        <ele>1277.09</ele>
        <time>2016-02-12T13:06:59Z</time>
      </trkpt>
      <trkpt lat="41.756910" lon="2.338863">
        <ele>1277.04</ele>
        <time>2016-02-12T13:07:19Z</time>
      </trkpt>
      <trkpt lat="41.756942" lon="2.338825">
        <ele>1277.05</ele>
        <time>2016-02-12T13:07:39Z</time>
      </trkpt>
      <trkpt lat="41.756974" lon="2.338782">
        <ele>1277.05</ele>
        <time>2016-02-12T13:07:59Z</time>
      </trkpt>
      <trkpt lat="41.757010" lon="2.338737">
        <ele>1277.09</ele>
        <time>2016-02-12T13:08:19Z</time>
      </trkpt>
      <trkpt lat="41.757044" lon="2.338686">
        <ele>1277.02</ele>
        <time>2016-02-12T13:08:39Z</time>
      </trkpt>
      <trkpt lat="41.757074" lon="2.338631">
        <ele>1277.01</ele>
        <time>2016-02-12T13:08:59Z</time>
      </trkpt>
      <trkpt lat="41.757106" lon="2.338575">
        <ele>1273.05</ele>
        <time>2016-02-12T13:09:19Z</time>
      </trkpt>
      <trkpt lat="41.757140" lon="2.338519">
        <ele>1273.04</ele>
        <time>2016-02-12T13:09:39Z</time>
      </trkpt>
      <trkpt lat="41.757172" lon="2.338463">
        <ele>1273.02</ele>
        <time>2016-02-12T13:09:59Z</time>
      </trkpt>
      <trkpt lat="41.757208" lon="2.338409">
        <ele>1273.07</ele>
        <time>2016-02-12T13:10:19Z</time>
      </trkpt>
      <trkpt lat="41.757244" lon="2.338354">
        <ele>1272.86</ele>
        <time>2016-02-12T13:10:39Z</time>
      </trkpt>
      <trkpt lat="41.757278" lon="2.338296">
        <ele>1271.01</ele>
        <time>2016-02-12T13:10:59Z</time>
      </trkpt>
      <trkpt lat="41.757312" lon="2.338235">
        <ele>1271.05</ele>
        <time>2016-02-12T13:11:19Z</time>
      </trkpt>
      <trkpt lat="41.757350" lon="2.338174">
        <ele>1271.05</ele>
        <time>2016-02-12T13:11:39Z</time>
      </trkpt>
      <trkpt lat="41.757390" lon="2.338117">
        <ele>1271.08</ele>
        <time>2016-02-12T13:11:59Z</time>
      </trkpt>
      <trkpt lat="41.757437" lon="2.338067">
        <ele>1270.91</ele>
        <time>2016-02-12T13:12:19Z</time>
      </trkpt>
      <trkpt lat="41.757488" lon="2.338026">
        <ele>1269.32</ele>
        <time>2016-02-12T13:12:39Z</time>
      </trkpt>
      <trkpt lat="41.757546" lon="2.337988">
        <ele>1269.01</ele>
        <time>2016-02-12T13:12:59Z</time>
      </trkpt>
      <trkpt lat="41.757606" lon="2.337952">
        <ele>1269.06</ele>
        <time>2016-02-12T13:13:19Z</time>
      </trkpt>
      <trkpt lat="41.757670" lon="2.337915">
        <ele>1269.02</ele>
        <time>2016-02-12T13:13:39Z</time>
      </trkpt>
      <trkpt lat="41.757740" lon="2.337889">
        <ele>1268.98</ele>
        <time>2016-02-12T13:13:59Z</time>
      </trkpt>
      <trkpt lat="41.757814" lon="2.337885">
        <ele>1267.31</ele>
        <time>2016-02-12T13:14:19Z</time>
      </trkpt>
      <trkpt lat="41.757888" lon="2.337891">
        <ele>1267.01</ele>
        <time>2016-02-12T13:14:39Z</time>
      </trkpt>
      <trkpt lat="41.757964" lon="2.337901">
        <ele>1267.09</ele>
        <time>2016-02-12T13:14:59Z</time>
      </trkpt>
      <trkpt lat="41.758038" lon="2.337908">
        <ele>1267.09</ele>
        <time>2016-02-12T13:15:19Z</time>
      </trkpt>
      <trkpt lat="41.758112" lon="2.337914">
        <ele>1266.89</ele>
        <time>2016-02-12T13:15:39Z</time>
      </trkpt>
      <trkpt lat="41.758184" lon="2.337920">
        <ele>1265.03</ele>
        <time>2016-02-12T13:15:59Z</time>
      </trkpt>
      <trkpt lat="41.758255" lon="2.337929">
        <ele>1265.05</ele>
        <time>2016-02-12T13:16:19Z</time>
      </trkpt>
      <trkpt lat="41.758325" lon="2.337938">
        <ele>1265.01</ele>
        <time>2016-02-12T13:16:39Z</time>
      </trkpt>
      <trkpt lat="41.758393" lon="2.337945">
        <ele>1265.01</ele>
        <time>2016-02-12T13:16:59Z</time>
      </trkpt>
      <trkpt lat="41.758460" lon="2.337943">
        <ele>1264.92</ele>
        <time>2016-02-12T13:17:19Z</time>
      </trkpt>
      <trkpt lat="41.758524" lon="2.337929">
        <ele>1264.04</ele>
        <time>2016-02-12T13:17:39Z</time>
      </trkpt>
      <trkpt lat="41.758581" lon="2.337901">
        <ele>1264.04</ele>
        <time>2016-02-12T13:17:59Z</time>
      </trkpt>
      <trkpt lat="41.758624" lon="2.337859">
        <ele>1264.02</ele>
        <time>2016-02-12T13:18:19Z</time>
      </trkpt>
      <trkpt lat="41.758656" lon="2.337810">
        <ele>1264.08</ele>
        <time>2016-02-12T13:18:39Z</time>
      </trkpt>
      <trkpt lat="41.758684" lon="2.337757">
        <ele>1264.05</ele>
        <time>2016-02-12T13:18:59Z</time>
      </trkpt>
      <trkpt lat="41.758711" lon="2.337703">
        <ele>1263.08</ele>
        <time>2016-02-12T13:19:19Z</time>
      </trkpt>
      <trkpt lat="41.758737" lon="2.337650">
        <ele>1263.07</ele>
        <time>2016-02-12T13:19:39Z</time>
      </trkpt>
      <trkpt lat="41.758763" lon="2.337598">
        <ele>1263.03</ele>
        <time>2016-02-12T13:19:59Z</time>
      </trkpt>
      <trkpt lat="41.758789" lon="2.337547">
        <ele>1263.05</ele>
        <time>2016-02-12T13:20:19Z</time>
      </trkpt>
      <trkpt lat="41.758815" lon="2.337499">
        <ele>1263.01</ele>
        <time>2016-02-12T13:20:39Z</time>
      </trkpt>
      <trkpt lat="41.758838" lon="2.337449">
        <ele>1263.01</ele>
        <time>2016-02-12T13:20:59Z</time>
      </trkpt>
      <trkpt lat="41.758860" lon="2.337403">
        <ele>1263.09</ele>
        <time>2016-02-12T13:21:19Z</time>
      </trkpt>
      <trkpt lat="41.758884" lon="2.337360">
        <ele>1263.01</ele>
        <time>2016-02-12T13:21:39Z</time>
      </trkpt>
      <trkpt lat="41.758910" lon="2.337321">
        <ele>1263.03</ele>
        <time>2016-02-12T13:21:59Z</time>
      </trkpt>
      <trkpt lat="41.758939" lon="2.337290">
        <ele>1263.37</ele>
        <time>2016-02-12T13:22:19Z</time>
      </trkpt>
      <trkpt lat="41.758971" lon="2.337267">
        <ele>1266.04</ele>
        <time>2016-02-12T13:22:39Z</time>
      </trkpt>
      <trkpt lat="41.759006" lon="2.337250">
        <ele>1266.09</ele>
        <time>2016-02-12T13:22:59Z</time>
      </trkpt>
      <trkpt lat="41.759043" lon="2.337233">
        <ele>1266.09</ele>
        <time>2016-02-12T13:23:19Z</time>
      </trkpt>
      <trkpt lat="41.759081" lon="2.337214">
        <ele>1266.02</ele>
        <time>2016-02-12T13:23:39Z</time>
      </trkpt>
      <trkpt lat="41.759118" lon="2.337190">
        <ele>1266.09</ele>
        <time>2016-02-12T13:23:59Z</time>
      </trkpt>
      <trkpt lat="41.759156" lon="2.337159">
        <ele>1267.07</ele>
        <time>2016-02-12T13:24:19Z</time>
      </trkpt>
      <trkpt lat="41.759196" lon="2.337118">
        <ele>1267.02</ele>
        <time>2016-02-12T13:24:39Z</time>
      </trkpt>
      <trkpt lat="41.759238" lon="2.337071">
        <ele>1267.01</ele>
        <time>2016-02-12T13:24:59Z</time>
      </trkpt>
      <trkpt lat="41.759283" lon="2.337022">
        <ele>1267.04</ele>
        <time>2016-02-12T13:25:19Z</time>
      </trkpt>
      <trkpt lat="41.759331" lon="2.336974">
        <ele>1266.66</ele>
        <time>2016-02-12T13:25:39Z</time>
      </trkpt>
      <trkpt lat="41.759383" lon="2.336928">
        <ele>1263.04</ele>
        <time>2016-02-12T13:25:59Z</time>
      </trkpt>
      <trkpt lat="41.759437" lon="2.336881">
        <ele>1263.06</ele>
        <time>2016-02-12T13:26:19Z</time>
      </trkpt>
      <trkpt lat="41.759487" lon="2.336834">
        <ele>1263.02</ele>
        <time>2016-02-12T13:26:39Z</time>
      </trkpt>
      <trkpt lat="41.759538" lon="2.336788">
        <ele>1263.06</ele>
        <time>2016-02-12T13:26:59Z</time>
      </trkpt>
      <trkpt lat="41.759587" lon="2.336746">
        <ele>1263.02</ele>
        <time>2016-02-12T13:27:19Z</time>
      </trkpt>
      <trkpt lat="41.759635" lon="2.336707">
        <ele>1263.06</ele>
        <time>2016-02-12T13:27:39Z</time>
      </trkpt>
      <trkpt lat="41.759684" lon="2.336680">
        <ele>1263.02</ele>
        <time>2016-02-12T13:27:59Z</time>
      </trkpt>
      <trkpt lat="41.759732" lon="2.336675">
        <ele>1263.07</ele>
        <time>2016-02-12T13:28:19Z</time>
      </trkpt>
      <trkpt lat="41.759776" lon="2.336691">
        <ele>1263.01</ele>
        <time>2016-02-12T13:28:39Z</time>
      </trkpt>
      <trkpt lat="41.759814" lon="2.336721">
        <ele>1263.01</ele>
        <time>2016-02-12T13:28:59Z</time>
      </trkpt>
      <trkpt lat="41.759845" lon="2.336762">
        <ele>1263.04</ele>
        <time>2016-02-12T13:29:19Z</time>
      </trkpt>
      <trkpt lat="41.759875" lon="2.336805">
        <ele>1263.09</ele>
        <time>2016-02-12T13:29:39Z</time>
      </trkpt>
      <trkpt lat="41.759907" lon="2.336846">
        <ele>1263.03</ele>
        <time>2016-02-12T13:29:59Z</time>
      </trkpt>
      <trkpt lat="41.759939" lon="2.336887">
        <ele>1263.04</ele>
        <time>2016-02-12T13:30:19Z</time>
      </trkpt>
      <trkpt lat="41.759971" lon="2.336930">
        <ele>1263.08</ele>
        <time>2016-02-12T13:30:39Z</time>
      </trkpt>
      <trkpt lat="41.760002" lon="2.336973">
        <ele>1263.01</ele>
        <time>2016-02-12T13:30:59Z</time>
      </trkpt>
      <trkpt lat="41.760031" lon="2.337015">
        <ele>1263.02</ele>
        <time>2016-02-12T13:31:19Z</time>
      </trkpt>
      <trkpt lat="41.760061" lon="2.337056">
        <ele>1263.08</ele>
        <time>2016-02-12T13:31:39Z</time>
      </trkpt>
      <trkpt lat="41.760090" lon="2.337095">
        <ele>1263.02</ele>
        <time>2016-02-12T13:31:59Z</time>
      </trkpt>
      <trkpt lat="41.760118" lon="2.337134">
        <ele>1263.20</ele>
        <time>2016-02-12T13:32:19Z</time>
      </trkpt>
      <trkpt lat="41.760146" lon="2.337173">
        <ele>1265.01</ele>
        <time>2016-02-12T13:32:39Z</time>
      </trkpt>
      <trkpt lat="41.760175" lon="2.337209">
        <ele>1265.01</ele>
        <time>2016-02-12T13:32:59Z</time>
      </trkpt>
      <trkpt lat="41.760205" lon="2.337245">
        <ele>1265.07</ele>
        <time>2016-02-12T13:33:19Z</time>
      </trkpt>
      <trkpt lat="41.760234" lon="2.337282">
        <ele>1265.04</ele>
        <time>2016-02-12T13:33:39Z</time>
      </trkpt>
      <trkpt lat="41.760262" lon="2.337319">
        <ele>1265.09</ele>
        <time>2016-02-12T13:33:59Z</time>
      </trkpt>
      <trkpt lat="41.760290" lon="2.337354">
        <ele>1265.02</ele>
        <time>2016-02-12T13:34:19Z</time>
      </trkpt>
      <trkpt lat="41.760318" lon="2.337387">
        <ele>1265.06</ele>
        <time>2016-02-12T13:34:39Z</time>
      </trkpt>
      <trkpt lat="41.760347" lon="2.337417">
        <ele>1265.06</ele>
        <time>2016-02-12T13:34:59Z</time>
      </trkpt>
      <trkpt lat="41.760377" lon="2.337448">
        <ele>1265.02</ele>
        <time>2016-02-12T13:35:19Z</time>
      </trkpt>
      <trkpt lat="41.760408" lon="2.337479">
        <ele>1265.22</ele>
        <time>2016-02-12T13:35:39Z</time>
      </trkpt>
      <trkpt lat="41.760440" lon="2.337507">
        <ele>1267.08</ele>
        <time>2016-02-12T13:35:59Z</time>
      </trkpt>
      <trkpt lat="41.760473" lon="2.337532">
        <ele>1267.09</ele>
        <time>2016-02-12T13:36:19Z</time>
      </trkpt>
      <trkpt lat="41.760506" lon="2.337553">
        <ele>1267.02</ele>
        <time>2016-02-12T13:36:39Z</time>
      </trkpt>
      <trkpt lat="41.760539" lon="2.337570">
        <ele>1267.01</ele>
        <time>2016-02-12T13:36:59Z</time>
      </trkpt>
      <trkpt lat="41.760573" lon="2.337587">
        <ele>1267.10</ele>
        <time>2016-02-12T13:37:19Z</time>
      </trkpt>
      <trkpt lat="41.760608" lon="2.337600">
        <ele>1267.08</ele>
        <time>2016-02-12T13:37:39Z</time>
      </trkpt>
      <trkpt lat="41.760641" lon="2.337611">
        <ele>1267.06</ele>
        <time>2016-02-12T13:37:59Z</time>
      </trkpt>
      <trkpt lat="41.760675" lon="2.337620">
        <ele>1267.03</ele>
        <time>2016-02-12T13:38:19Z</time>
      </trkpt>
      <trkpt lat="41.760710" lon="2.337629">
        <ele>1267.03</ele>
        <time>2016-02-12T13:38:39Z</time>
      </trkpt>
      <trkpt lat="41.760743" lon="2.337635">
        <ele>1267.20</ele>
        <time>2016-02-12T13:38:59Z</time>
      </trkpt>
      <trkpt lat="41.760777" lon="2.337640">
        <ele>1268.05</ele>
        <time>2016-02-12T13:39:19Z</time>
      </trkpt>
      <trkpt lat="41.760810" lon="2.337643">
        <ele>1268.08</ele>
        <time>2016-02-12T13:39:39Z</time>
      </trkpt>
      <trkpt lat="41.760844" lon="2.337644">
        <ele>1268.07</ele>
        <time>2016-02-12T13:39:59Z</time>
      </trkpt>
      <trkpt lat="41.760878" lon="2.337646">
        <ele>1268.01</ele>
        <time>2016-02-12T13:40:19Z</time>
      </trkpt>
      <trkpt lat="41.760912" lon="2.337647">
        <ele>1268.01</ele>
        <time>2016-02-12T13:40:39Z</time>
      </trkpt>
      <trkpt lat="41.760947" lon="2.337647">
        <ele>1268.01</ele>
        <time>2016-02-12T13:40:59Z</time>
      </trkpt>
      <trkpt lat="41.760982" lon="2.337646">
        <ele>1268.06</ele>
        <time>2016-02-12T13:41:19Z</time>
      </trkpt>
      <trkpt lat="41.761017" lon="2.337645">
        <ele>1268.09</ele>
        <time>2016-02-12T13:41:39Z</time>
      </trkpt>
      <trkpt lat="41.761052" lon="2.337645">
        <ele>1268.04</ele>
        <time>2016-02-12T13:41:59Z</time>
      </trkpt>
      <trkpt lat="41.761087" lon="2.337644">
        <ele>1268.21</ele>
        <time>2016-02-12T13:42:19Z</time>
      </trkpt>
      <trkpt lat="41.761120" lon="2.337645">
        <ele>1270.01</ele>
        <time>2016-02-12T13:42:39Z</time>
      </trkpt>
      <trkpt lat="41.761153" lon="2.337646">
        <ele>1270.08</ele>
        <time>2016-02-12T13:42:59Z</time>
      </trkpt>
      <trkpt lat="41.761183" lon="2.337644">
        <ele>1270.10</ele>
        <time>2016-02-12T13:43:19Z</time>
      </trkpt>
      <trkpt lat="41.761213" lon="2.337643">
        <ele>1270.06</ele>
        <time>2016-02-12T13:43:39Z</time>
      </trkpt>
      <trkpt lat="41.761245" lon="2.337643">
        <ele>1270.08</ele>
        <time>2016-02-12T13:43:59Z</time>
      </trkpt>
      <trkpt lat="41.761278" lon="2.337643">
        <ele>1270.04</ele>
        <time>2016-02-12T13:44:19Z</time>
      </trkpt>
      <trkpt lat="41.761311" lon="2.337643">
        <ele>1270.02</ele>
        <time>2016-02-12T13:44:39Z</time>
      </trkpt>
      <trkpt lat="41.761345" lon="2.337647">
        <ele>1270.01</ele>
        <time>2016-02-12T13:44:59Z</time>
      </trkpt>
      <trkpt lat="41.761379" lon="2.337652">
        <ele>1270.06</ele>
        <time>2016-02-12T13:45:19Z</time>
      </trkpt>
      <trkpt lat="41.761412" lon="2.337657">
        <ele>1270.25</ele>
        <time>2016-02-12T13:45:39Z</time>
      </trkpt>
      <trkpt lat="41.761444" lon="2.337662">
        <ele>1272.09</ele>
        <time>2016-02-12T13:45:59Z</time>
      </trkpt>
      <trkpt lat="41.761475" lon="2.337665">
        <ele>1272.07</ele>
        <time>2016-02-12T13:46:19Z</time>
      </trkpt>
      <trkpt lat="41.761507" lon="2.337667">
        <ele>1272.03</ele>
        <time>2016-02-12T13:46:39Z</time>
      </trkpt>
      <trkpt lat="41.761538" lon="2.337670">
        <ele>1272.05</ele>
        <time>2016-02-12T13:46:59Z</time>
      </trkpt>
      <trkpt lat="41.761569" lon="2.337673">
        <ele>1272.01</ele>
        <time>2016-02-12T13:47:19Z</time>
      </trkpt>
      <trkpt lat="41.761599" lon="2.337680">
        <ele>1272.09</ele>
        <time>2016-02-12T13:47:39Z</time>
      </trkpt>
      <trkpt lat="41.761627" lon="2.337690">
        <ele>1272.04</ele>
        <time>2016-02-12T13:47:59Z</time>
      </trkpt>
      <trkpt lat="41.761654" lon="2.337704">
        <ele>1272.09</ele>
        <time>2016-02-12T13:48:19Z</time>
      </trkpt>
      <trkpt lat="41.761681" lon="2.337719">
        <ele>1272.01</ele>
        <time>2016-02-12T13:48:39Z</time>
      </trkpt>
      <trkpt lat="41.761707" lon="2.337730">
        <ele>1272.01</ele>
        <time>2016-02-12T13:48:59Z</time>
      </trkpt>
      <trkpt lat="41.761734" lon="2.337741">
        <ele>1275.07</ele>
        <time>2016-02-12T13:49:19Z</time>
      </trkpt>
      <trkpt lat="41.761760" lon="2.337755">
        <ele>1275.04</ele>
        <time>2016-02-12T13:49:39Z</time>
      </trkpt>
      <trkpt lat="41.761785" lon="2.337773">
        <ele>1275.03</ele>
        <time>2016-02-12T13:49:59Z</time>
      </trkpt>
      <trkpt lat="41.761810" lon="2.337794">
        <ele>1275.05</ele>
        <time>2016-02-12T13:50:19Z</time>
      </trkpt>
      <trkpt lat="41.761836" lon="2.337815">
        <ele>1275.04</ele>
        <time>2016-02-12T13:50:39Z</time>
      </trkpt>
      <trkpt lat="41.761863" lon="2.337837">
        <ele>1275.03</ele>
        <time>2016-02-12T13:50:59Z</time>
      </trkpt>
      <trkpt lat="41.761891" lon="2.337860">
        <ele>1275.02</ele>
        <time>2016-02-12T13:51:19Z</time>
      </trkpt>
      <trkpt lat="41.761919" lon="2.337883">
        <ele>1275.04</ele>
        <time>2016-02-12T13:51:39Z</time>
      </trkpt>
      <trkpt lat="41.761948" lon="2.337907">
        <ele>1275.08</ele>
        <time>2016-02-12T13:51:59Z</time>
      </trkpt>
      <trkpt lat="41.761975" lon="2.337933">
        <ele>1275.13</ele>
        <time>2016-02-12T13:52:19Z</time>
      </trkpt>
      <trkpt lat="41.762000" lon="2.337961">
        <ele>1276.03</ele>
        <time>2016-02-12T13:52:39Z</time>
      </trkpt>
      <trkpt lat="41.762026" lon="2.337989">
        <ele>1276.01</ele>
        <time>2016-02-12T13:52:59Z</time>
      </trkpt>
      <trkpt lat="41.762050" lon="2.338018">
        <ele>1276.08</ele>
        <time>2016-02-12T13:53:19Z</time>
      </trkpt>
      <trkpt lat="41.762073" lon="2.338047">
        <ele>1276.09</ele>
        <time>2016-02-12T13:53:39Z</time>
      </trkpt>
      <trkpt lat="41.762095" lon="2.338076">
        <ele>1276.10</ele>
        <time>2016-02-12T13:53:59Z</time>
      </trkpt>
      <trkpt lat="41.762116" lon="2.338105">
        <ele>1276.02</ele>
        <time>2016-02-12T13:54:19Z</time>
      </trkpt>
      <trkpt lat="41.762137" lon="2.338135">
        <ele>1276.04</ele>
        <time>2016-02-12T13:54:39Z</time>
      </trkpt>
      <trkpt lat="41.762155" lon="2.338165">
        <ele>1276.03</ele>
        <time>2016-02-12T13:54:59Z</time>
      </trkpt>
      <trkpt lat="41.762172" lon="2.338196">
        <ele>1276.08</ele>
        <time>2016-02-12T13:55:19Z</time>
      </trkpt>
      <trkpt lat="41.762188" lon="2.338225">
        <ele>1276.29</ele>
        <time>2016-02-12T13:55:39Z</time>
      </trkpt>
      <trkpt lat="41.762204" lon="2.338253">
        <ele>1278.02</ele>
        <time>2016-02-12T13:55:59Z</time>
      </trkpt>
      <trkpt lat="41.762219" lon="2.338281">
        <ele>1278.07</ele>
        <time>2016-02-12T13:56:19Z</time>
      </trkpt>
      <trkpt lat="41.762233" lon="2.338309">
        <ele>1278.01</ele>
        <time>2016-02-12T13:56:39Z</time>
      </trkpt>
      <trkpt lat="41.762248" lon="2.338335">
        <ele>1278.01</ele>
        <time>2016-02-12T13:56:59Z</time>
      </trkpt>
      <trkpt lat="41.762263" lon="2.338360">
        <ele>1278.09</ele>
        <time>2016-02-12T13:57:19Z</time>
      </trkpt>
      <trkpt lat="41.762277" lon="2.338385">
        <ele>1278.02</ele>
        <time>2016-02-12T13:57:39Z</time>
      </trkpt>
      <trkpt lat="41.762294" lon="2.338408">
        <ele>1278.09</ele>
        <time>2016-02-12T13:57:59Z</time>
      </trkpt>
      <trkpt lat="41.762311" lon="2.338431">
        <ele>1278.09</ele>
        <time>2016-02-12T13:58:19Z</time>
      </trkpt>
      <trkpt lat="41.762327" lon="2.338455">
        <ele>1278.07</ele>
        <time>2016-02-12T13:58:39Z</time>
      </trkpt>
      <trkpt lat="41.762345" lon="2.338480">
        <ele>1278.24</ele>
        <time>2016-02-12T13:58:59Z</time>
      </trkpt>
      <trkpt lat="41.762365" lon="2.338505">
        <ele>1280.02</ele>
        <time>2016-02-12T13:59:19Z</time>
      </trkpt>
      <trkpt lat="41.762389" lon="2.338529">
        <ele>1280.03</ele>
        <time>2016-02-12T13:59:39Z</time>
      </trkpt>
      <trkpt lat="41.762412" lon="2.338553">
        <ele>1280.07</ele>
        <time>2016-02-12T13:59:59Z</time>
      </trkpt>
      <trkpt lat="41.762434" lon="2.338575">
        <ele>1280.04</ele>
        <time>2016-02-12T14:00:19Z</time>
      </trkpt>
      <trkpt lat="41.762453" lon="2.338594">
        <ele>1280.03</ele>
        <time>2016-02-12T14:00:39Z</time>
      </trkpt>
      <trkpt lat="41.762473" lon="2.338612">
        <ele>1280.01</ele>
        <time>2016-02-12T14:00:59Z</time>
      </trkpt>
      <trkpt lat="41.762496" lon="2.338629">
        <ele>1280.06</ele>
        <time>2016-02-12T14:01:19Z</time>
      </trkpt>
      <trkpt lat="41.762520" lon="2.338647">
        <ele>1280.02</ele>
        <time>2016-02-12T14:01:39Z</time>
      </trkpt>
      <trkpt lat="41.762544" lon="2.338665">
        <ele>1280.05</ele>
        <time>2016-02-12T14:01:59Z</time>
      </trkpt>
      <trkpt lat="41.762566" lon="2.338684">
        <ele>1280.23</ele>
        <time>2016-02-12T14:02:19Z</time>
      </trkpt>
      <trkpt lat="41.762589" lon="2.338699">
        <ele>1282.02</ele>
        <time>2016-02-12T14:02:39Z</time>
      </trkpt>
      <trkpt lat="41.762614" lon="2.338711">
        <ele>1282.06</ele>
        <time>2016-02-12T14:02:59Z</time>
      </trkpt>
      <trkpt lat="41.762639" lon="2.338723">
        <ele>1282.06</ele>
        <time>2016-02-12T14:03:19Z</time>
      </trkpt>
      <trkpt lat="41.762664" lon="2.338735">
        <ele>1282.06</ele>
        <time>2016-02-12T14:03:39Z</time>
      </trkpt>
      <trkpt lat="41.762690" lon="2.338748">
        <ele>1282.09</ele>
        <time>2016-02-12T14:03:59Z</time>
      </trkpt>
      <trkpt lat="41.762716" lon="2.338762">
        <ele>1282.06</ele>
        <time>2016-02-12T14:04:19Z</time>
      </trkpt>
      <trkpt lat="41.762742" lon="2.338776">
        <ele>1282.03</ele>
        <time>2016-02-12T14:04:39Z</time>
      </trkpt>
      <trkpt lat="41.762766" lon="2.338791">
        <ele>1282.01</ele>
        <time>2016-02-12T14:04:59Z</time>
      </trkpt>
      <trkpt lat="41.762789" lon="2.338809">
        <ele>1282.04</ele>
        <time>2016-02-12T14:05:19Z</time>
      </trkpt>
      <trkpt lat="41.762812" lon="2.338830">
        <ele>1282.14</ele>
        <time>2016-02-12T14:05:39Z</time>
      </trkpt>
      <trkpt lat="41.762833" lon="2.338853">
        <ele>1283.05</ele>
        <time>2016-02-12T14:05:59Z</time>
      </trkpt>
      <trkpt lat="41.762853" lon="2.338878">
        <ele>1283.05</ele>
        <time>2016-02-12T14:06:19Z</time>
      </trkpt>
      <trkpt lat="41.762872" lon="2.338905">
        <ele>1283.09</ele>
        <time>2016-02-12T14:06:39Z</time>
      </trkpt>
      <trkpt lat="41.762892" lon="2.338932">
        <ele>1283.06</ele>
        <time>2016-02-12T14:06:59Z</time>
      </trkpt>
      <trkpt lat="41.762910" lon="2.338959">
        <ele>1283.08</ele>
        <time>2016-02-12T14:07:19Z</time>
      </trkpt>
      <trkpt lat="41.762926" lon="2.338987">
        <ele>1283.04</ele>
        <time>2016-02-12T14:07:39Z</time>
      </trkpt>
      <trkpt lat="41.762938" lon="2.339018">
        <ele>1283.10</ele>
        <time>2016-02-12T14:07:59Z</time>
      </trkpt>
      <trkpt lat="41.762946" lon="2.339050">
        <ele>1283.02</ele>
        <time>2016-02-12T14:08:19Z</time>
      </trkpt>
      <trkpt lat="41.762952" lon="2.339081">
        <ele>1283.03</ele>
        <time>2016-02-12T14:08:39Z</time>
      </trkpt>
      <trkpt lat="41.762957" lon="2.339112">
        <ele>1283.21</ele>
        <time>2016-02-12T14:08:59Z</time>
      </trkpt>
      <trkpt lat="41.762961" lon="2.339141">
        <ele>1285.04</ele>
        <time>2016-02-12T14:09:19Z</time>
      </trkpt>
      <trkpt lat="41.762965" lon="2.339168">
        <ele>1285.07</ele>
        <time>2016-02-12T14:09:39Z</time>
      </trkpt>
      <trkpt lat="41.762968" lon="2.339197">
        <ele>1285.07</ele>
        <time>2016-02-12T14:09:59Z</time>
      </trkpt>
      <trkpt lat="41.762973" lon="2.339229">
        <ele>1285.05</ele>
        <time>2016-02-12T14:10:19Z</time>
      </trkpt>
      <trkpt lat="41.762979" lon="2.339262">
        <ele>1285.03</ele>
        <time>2016-02-12T14:10:39Z</time>
      </trkpt>
      <trkpt lat="41.762987" lon="2.339294">
        <ele>1285.10</ele>
        <time>2016-02-12T14:10:59Z</time>
      </trkpt>
      <trkpt lat="41.762993" lon="2.339329">
        <ele>1285.02</ele>
        <time>2016-02-12T14:11:19Z</time>
      </trkpt>
      <trkpt lat="41.762998" lon="2.339367">
        <ele>1285.08</ele>
        <time>2016-02-12T14:11:39Z</time>
      </trkpt>
      <trkpt lat="41.763004" lon="2.339406">
        <ele>1285.04</ele>
        <time>2016-02-12T14:11:59Z</time>
      </trkpt>
      <trkpt lat="41.763009" lon="2.339444">
        <ele>1285.29</ele>
        <time>2016-02-12T14:12:19Z</time>
      </trkpt>
      <trkpt lat="41.763013" lon="2.339483">
        <ele>1287.01</ele>
        <time>2016-02-12T14:12:39Z</time>
      </trkpt>
      <trkpt lat="41.763017" lon="2.339521">
        <ele>1287.01</ele>
        <time>2016-02-12T14:12:59Z</time>
      </trkpt>
      <trkpt lat="41.763021" lon="2.339558">
        <ele>1287.08</ele>
        <time>2016-02-12T14:13:19Z</time>
      </trkpt>
      <trkpt lat="41.763027" lon="2.339591">
        <ele>1287.02</ele>
        <time>2016-02-12T14:13:39Z</time>
      </trkpt>
      <trkpt lat="41.763031" lon="2.339621">
        <ele>1287.04</ele>
        <time>2016-02-12T14:13:59Z</time>
      </trkpt>
      <trkpt lat="41.763035" lon="2.339649">
        <ele>1287.08</ele>
        <time>2016-02-12T14:14:19Z</time>
      </trkpt>
      <trkpt lat="41.763042" lon="2.339675">
        <ele>1287.07</ele>
        <time>2016-02-12T14:14:39Z</time>
      </trkpt>
      <trkpt lat="41.763053" lon="2.339698">
        <ele>1287.09</ele>
        <time>2016-02-12T14:14:59Z</time>
      </trkpt>
      <trkpt lat="41.763069" lon="2.339716">
        <ele>1287.05</ele>
        <time>2016-02-12T14:15:19Z</time>
      </trkpt>
      <trkpt lat="41.763099" lon="2.339730">
        <ele>1287.94</ele>
        <time>2016-02-12T14:15:39Z</time>
      </trkpt>
      <trkpt lat="41.763121" lon="2.339731">
        <ele>1288.02</ele>
        <time>2016-02-12T14:15:59Z</time>
      </trkpt>
      <trkpt lat="41.763142" lon="2.339731">
        <ele>1288.07</ele>
        <time>2016-02-12T14:16:19Z</time>
      </trkpt>
      <trkpt lat="41.763164" lon="2.339735">
        <ele>1288.01</ele>
        <time>2016-02-12T14:16:39Z</time>
      </trkpt>
      <trkpt lat="41.763133" lon="2.339785">
        <ele>1287.01</ele>
        <time>2016-02-12T14:16:59Z</time>
      </trkpt>
      <trkpt lat="41.763110" lon="2.339787">
        <ele>1287.08</ele>
        <time>2016-02-12T14:17:19Z</time>
      </trkpt>
      <trkpt lat="41.763091" lon="2.339739">
        <ele>1288.03</ele>
        <time>2016-02-12T14:17:39Z</time>
      </trkpt>
      <trkpt lat="41.763101" lon="2.339690">
        <ele>1288.06</ele>
        <time>2016-02-12T14:17:59Z</time>
      </trkpt>
      <trkpt lat="41.763108" lon="2.339659">
        <ele>1288.09</ele>
        <time>2016-02-12T14:18:19Z</time>
      </trkpt>
      <trkpt lat="41.763111" lon="2.339619">
        <ele>1288.09</ele>
        <time>2016-02-12T14:18:39Z</time>
      </trkpt>
      <trkpt lat="41.763112" lon="2.339572">
        <ele>1288.07</ele>
        <time>2016-02-12T14:18:59Z</time>
      </trkpt>
      <trkpt lat="41.763114" lon="2.339526">
        <ele>1288.08</ele>
        <time>2016-02-12T14:19:19Z</time>
      </trkpt>
      <trkpt lat="41.763116" lon="2.339484">
        <ele>1288.05</ele>
        <time>2016-02-12T14:19:39Z</time>
      </trkpt>
      <trkpt lat="41.763118" lon="2.339439">
        <ele>1288.08</ele>
        <time>2016-02-12T14:19:59Z</time>
      </trkpt>
      <trkpt lat="41.763118" lon="2.339391">
        <ele>1288.06</ele>
        <time>2016-02-12T14:20:19Z</time>
      </trkpt>
      <trkpt lat="41.763119" lon="2.339343">
        <ele>1288.02</ele>
        <time>2016-02-12T14:20:39Z</time>
      </trkpt>
      <trkpt lat="41.763122" lon="2.339296">
        <ele>1288.01</ele>
        <time>2016-02-12T14:20:59Z</time>
      </trkpt>
      <trkpt lat="41.763124" lon="2.339248">
        <ele>1288.09</ele>
        <time>2016-02-12T14:21:19Z</time>
      </trkpt>
      <trkpt lat="41.763127" lon="2.339202">
        <ele>1288.03</ele>
        <time>2016-02-12T14:21:39Z</time>
      </trkpt>
      <trkpt lat="41.763132" lon="2.339154">
        <ele>1288.08</ele>
        <time>2016-02-12T14:21:59Z</time>
      </trkpt>
      <trkpt lat="41.763138" lon="2.339107">
        <ele>1288.03</ele>
        <time>2016-02-12T14:22:19Z</time>
      </trkpt>
      <trkpt lat="41.763143" lon="2.339059">
        <ele>1288.07</ele>
        <time>2016-02-12T14:22:39Z</time>
      </trkpt>
      <trkpt lat="41.763148" lon="2.339012">
        <ele>1288.07</ele>
        <time>2016-02-12T14:22:59Z</time>
      </trkpt>
      <trkpt lat="41.763153" lon="2.338964">
        <ele>1288.09</ele>
        <time>2016-02-12T14:23:19Z</time>
      </trkpt>
      <trkpt lat="41.763158" lon="2.338915">
        <ele>1288.05</ele>
        <time>2016-02-12T14:23:39Z</time>
      </trkpt>
      <trkpt lat="41.763162" lon="2.338866">
        <ele>1288.02</ele>
        <time>2016-02-12T14:23:59Z</time>
      </trkpt>
      <trkpt lat="41.763163" lon="2.338820">
        <ele>1288.10</ele>
        <time>2016-02-12T14:24:19Z</time>
      </trkpt>
      <trkpt lat="41.763161" lon="2.338774">
        <ele>1288.02</ele>
        <time>2016-02-12T14:24:39Z</time>
      </trkpt>
      <trkpt lat="41.763153" lon="2.338733">
        <ele>1288.01</ele>
        <time>2016-02-12T14:24:59Z</time>
      </trkpt>
      <trkpt lat="41.763144" lon="2.338694">
        <ele>1288.02</ele>
        <time>2016-02-12T14:25:19Z</time>
      </trkpt>
      <trkpt lat="41.763133" lon="2.338657">
        <ele>1288.02</ele>
        <time>2016-02-12T14:25:39Z</time>
      </trkpt>
      <trkpt lat="41.763118" lon="2.338623">
        <ele>1288.09</ele>
        <time>2016-02-12T14:25:59Z</time>
      </trkpt>
      <trkpt lat="41.763102" lon="2.338594">
        <ele>1288.08</ele>
        <time>2016-02-12T14:26:19Z</time>
      </trkpt>
      <trkpt lat="41.763086" lon="2.338564">
        <ele>1288.22</ele>
        <time>2016-02-12T14:26:39Z</time>
      </trkpt>
      <trkpt lat="41.763068" lon="2.338532">
        <ele>1290.05</ele>
        <time>2016-02-12T14:26:59Z</time>
      </trkpt>
      <trkpt lat="41.763050" lon="2.338497">
        <ele>1290.07</ele>
        <time>2016-02-12T14:27:19Z</time>
      </trkpt>
      <trkpt lat="41.763030" lon="2.338458">
        <ele>1290.07</ele>
        <time>2016-02-12T14:27:39Z</time>
      </trkpt>
      <trkpt lat="41.763013" lon="2.338415">
        <ele>1290.09</ele>
        <time>2016-02-12T14:27:59Z</time>
      </trkpt>
      <trkpt lat="41.763000" lon="2.338370">
        <ele>1290.02</ele>
        <time>2016-02-12T14:28:19Z</time>
      </trkpt>
      <trkpt lat="41.762994" lon="2.338325">
        <ele>1290.03</ele>
        <time>2016-02-12T14:28:39Z</time>
      </trkpt>
      <trkpt lat="41.762990" lon="2.338280">
        <ele>1290.01</ele>
        <time>2016-02-12T14:28:59Z</time>
      </trkpt>
      <trkpt lat="41.762990" lon="2.338237">
        <ele>1290.08</ele>
        <time>2016-02-12T14:29:19Z</time>
      </trkpt>
      <trkpt lat="41.762991" lon="2.338195">
        <ele>1290.08</ele>
        <time>2016-02-12T14:29:39Z</time>
      </trkpt>
      <trkpt lat="41.762993" lon="2.338155">
        <ele>1290.26</ele>
        <time>2016-02-12T14:29:59Z</time>
      </trkpt>
      <trkpt lat="41.762996" lon="2.338114">
        <ele>1292.08</ele>
        <time>2016-02-12T14:30:19Z</time>
      </trkpt>
      <trkpt lat="41.763000" lon="2.338073">
        <ele>1292.04</ele>
        <time>2016-02-12T14:30:39Z</time>
      </trkpt>
      <trkpt lat="41.763005" lon="2.338032">
        <ele>1292.04</ele>
        <time>2016-02-12T14:30:59Z</time>
      </trkpt>
      <trkpt lat="41.763012" lon="2.337991">
        <ele>1292.01</ele>
        <time>2016-02-12T14:31:19Z</time>
      </trkpt>
      <trkpt lat="41.763017" lon="2.337950">
        <ele>1292.08</ele>
        <time>2016-02-12T14:31:39Z</time>
      </trkpt>
      <trkpt lat="41.763022" lon="2.337910">
        <ele>1292.02</ele>
        <time>2016-02-12T14:31:59Z</time>
      </trkpt>
      <trkpt lat="41.763027" lon="2.337870">
        <ele>1292.08</ele>
        <time>2016-02-12T14:32:19Z</time>
      </trkpt>
      <trkpt lat="41.763030" lon="2.337829">
        <ele>1292.01</ele>
        <time>2016-02-12T14:32:39Z</time>
      </trkpt>
      <trkpt lat="41.763032" lon="2.337787">
        <ele>1292.01</ele>
        <time>2016-02-12T14:32:59Z</time>
      </trkpt>
      <trkpt lat="41.763035" lon="2.337745">
        <ele>1292.08</ele>
        <time>2016-02-12T14:33:19Z</time>
      </trkpt>
      <trkpt lat="41.763037" lon="2.337701">
        <ele>1292.04</ele>
        <time>2016-02-12T14:33:39Z</time>
      </trkpt>
      <trkpt lat="41.763039" lon="2.337656">
        <ele>1292.06</ele>
        <time>2016-02-12T14:33:59Z</time>
      </trkpt>
      <trkpt lat="41.763042" lon="2.337610">
        <ele>1292.10</ele>
        <time>2016-02-12T14:34:19Z</time>
      </trkpt>
      <trkpt lat="41.763044" lon="2.337562">
        <ele>1292.05</ele>
        <time>2016-02-12T14:34:39Z</time>
      </trkpt>
      <trkpt lat="41.763049" lon="2.337512">
        <ele>1292.05</ele>
        <time>2016-02-12T14:34:59Z</time>
      </trkpt>
      <trkpt lat="41.763059" lon="2.337462">
        <ele>1292.05</ele>
        <time>2016-02-12T14:35:19Z</time>
      </trkpt>
      <trkpt lat="41.763068" lon="2.337410">
        <ele>1292.06</ele>
        <time>2016-02-12T14:35:39Z</time>
      </trkpt>
      <trkpt lat="41.763075" lon="2.337354">
        <ele>1292.03</ele>
        <time>2016-02-12T14:35:59Z</time>
      </trkpt>
      <trkpt lat="41.763084" lon="2.337295">
        <ele>1292.06</ele>
        <time>2016-02-12T14:36:19Z</time>
      </trkpt>
      <trkpt lat="41.763094" lon="2.337234">
        <ele>1291.81</ele>
        <time>2016-02-12T14:36:39Z</time>
      </trkpt>
      <trkpt lat="41.763107" lon="2.337171">
        <ele>1290.01</ele>
        <time>2016-02-12T14:36:59Z</time>
      </trkpt>
      <trkpt lat="41.763121" lon="2.337106">
        <ele>1290.09</ele>
        <time>2016-02-12T14:37:19Z</time>
      </trkpt>
      <trkpt lat="41.763136" lon="2.337039">
        <ele>1290.10</ele>
        <time>2016-02-12T14:37:39Z</time>
      </trkpt>
      <trkpt lat="41.763151" lon="2.336969">
        <ele>1290.06</ele>
        <time>2016-02-12T14:37:59Z</time>
      </trkpt>
      <trkpt lat="41.763163" lon="2.336898">
        <ele>1290.00</ele>
        <time>2016-02-12T14:38:19Z</time>
      </trkpt>
      <trkpt lat="41.763172" lon="2.336831">
        <ele>1289.07</ele>
        <time>2016-02-12T14:38:39Z</time>
      </trkpt>
      <trkpt lat="41.763181" lon="2.336772">
        <ele>1289.09</ele>
        <time>2016-02-12T14:38:59Z</time>
      </trkpt>
      <trkpt lat="41.763191" lon="2.336723">
        <ele>1289.09</ele>
        <time>2016-02-12T14:39:19Z</time>
      </trkpt>
      <trkpt lat="41.763200" lon="2.336683">
        <ele>1289.05</ele>
        <time>2016-02-12T14:39:39Z</time>
      </trkpt>
      <trkpt lat="41.763210" lon="2.336648">
        <ele>1288.96</ele>
        <time>2016-02-12T14:39:59Z</time>
      </trkpt>
      <trkpt lat="41.763220" lon="2.336613">
        <ele>1288.01</ele>
        <time>2016-02-12T14:40:19Z</time>
      </trkpt>
      <trkpt lat="41.763230" lon="2.336578">
        <ele>1288.02</ele>
        <time>2016-02-12T14:40:39Z</time>
      </trkpt>
      <trkpt lat="41.763240" lon="2.336545">
        <ele>1288.01</ele>
        <time>2016-02-12T14:40:59Z</time>
      </trkpt>
      <trkpt lat="41.763248" lon="2.336517">
        <ele>1288.08</ele>
        <time>2016-02-12T14:41:19Z</time>
      </trkpt>
      <trkpt lat="41.763262" lon="2.336483">
        <ele>1288.02</ele>
        <time>2016-02-12T14:41:39Z</time>
      </trkpt>
      <trkpt lat="41.763268" lon="2.336519">
        <ele>1288.08</ele>
        <time>2016-02-12T14:41:59Z</time>
      </trkpt>
      <trkpt lat="41.763256" lon="2.336538">
        <ele>1288.03</ele>
        <time>2016-02-12T14:42:19Z</time>
      </trkpt>
      <trkpt lat="41.763244" lon="2.336568">
        <ele>1288.07</ele>
        <time>2016-02-12T14:42:39Z</time>
      </trkpt>
      <trkpt lat="41.763234" lon="2.336604">
        <ele>1288.06</ele>
        <time>2016-02-12T14:42:59Z</time>
      </trkpt>
      <trkpt lat="41.763224" lon="2.336643">
        <ele>1288.10</ele>
        <time>2016-02-12T14:43:19Z</time>
      </trkpt>
      <trkpt lat="41.763212" lon="2.336684">
        <ele>1288.01</ele>
        <time>2016-02-12T14:43:39Z</time>
      </trkpt>
      <trkpt lat="41.763202" lon="2.336723">
        <ele>1288.08</ele>
        <time>2016-02-12T14:43:59Z</time>
      </trkpt>
      <trkpt lat="41.763194" lon="2.336761">
        <ele>1288.06</ele>
        <time>2016-02-12T14:44:19Z</time>
      </trkpt>
      <trkpt lat="41.763186" lon="2.336801">
        <ele>1288.02</ele>
        <time>2016-02-12T14:44:39Z</time>
      </trkpt>
      <trkpt lat="41.763182" lon="2.336840">
        <ele>1288.01</ele>
        <time>2016-02-12T14:44:59Z</time>
      </trkpt>
      <trkpt lat="41.763178" lon="2.336880">
        <ele>1288.25</ele>
        <time>2016-02-12T14:45:19Z</time>
      </trkpt>
      <trkpt lat="41.763174" lon="2.336920">
        <ele>1290.05</ele>
        <time>2016-02-12T14:45:39Z</time>
      </trkpt>
      <trkpt lat="41.763166" lon="2.336964">
        <ele>1290.01</ele>
        <time>2016-02-12T14:45:59Z</time>
      </trkpt>
      <trkpt lat="41.763156" lon="2.337015">
        <ele>1290.03</ele>
        <time>2016-02-12T14:46:19Z</time>
      </trkpt>
      <trkpt lat="41.763144" lon="2.337074">
        <ele>1290.09</ele>
        <time>2016-02-12T14:46:39Z</time>
      </trkpt>
      <trkpt lat="41.763130" lon="2.337135">
        <ele>1290.06</ele>
        <time>2016-02-12T14:46:59Z</time>
      </trkpt>
      <trkpt lat="41.763116" lon="2.337194">
        <ele>1290.03</ele>
        <time>2016-02-12T14:47:19Z</time>
      </trkpt>
      <trkpt lat="41.763104" lon="2.337251">
        <ele>1290.03</ele>
        <time>2016-02-12T14:47:39Z</time>
      </trkpt>
      <trkpt lat="41.763092" lon="2.337304">
        <ele>1290.04</ele>
        <time>2016-02-12T14:47:59Z</time>
      </trkpt>
      <trkpt lat="41.763082" lon="2.337353">
        <ele>1290.08</ele>
        <time>2016-02-12T14:48:19Z</time>
      </trkpt>
      <trkpt lat="41.763076" lon="2.337400">
        <ele>1290.01</ele>
        <time>2016-02-12T14:48:39Z</time>
      </trkpt>
      <trkpt lat="41.763073" lon="2.337448">
        <ele>1292.01</ele>
        <time>2016-02-12T14:48:59Z</time>
      </trkpt>
      <trkpt lat="41.763068" lon="2.337497">
        <ele>1292.10</ele>
        <time>2016-02-12T14:49:19Z</time>
      </trkpt>
      <trkpt lat="41.763064" lon="2.337546">
        <ele>1292.06</ele>
        <time>2016-02-12T14:49:39Z</time>
      </trkpt>
      <trkpt lat="41.763060" lon="2.337595">
        <ele>1292.07</ele>
        <time>2016-02-12T14:49:59Z</time>
      </trkpt>
      <trkpt lat="41.763056" lon="2.337643">
        <ele>1292.09</ele>
        <time>2016-02-12T14:50:19Z</time>
      </trkpt>
      <trkpt lat="41.763052" lon="2.337693">
        <ele>1292.09</ele>
        <time>2016-02-12T14:50:39Z</time>
      </trkpt>
      <trkpt lat="41.763050" lon="2.337743">
        <ele>1292.05</ele>
        <time>2016-02-12T14:50:59Z</time>
      </trkpt>
      <trkpt lat="41.763048" lon="2.337794">
        <ele>1292.09</ele>
        <time>2016-02-12T14:51:19Z</time>
      </trkpt>
      <trkpt lat="41.763044" lon="2.337847">
        <ele>1292.04</ele>
        <time>2016-02-12T14:51:39Z</time>
      </trkpt>
      <trkpt lat="41.763039" lon="2.337900">
        <ele>1292.14</ele>
        <time>2016-02-12T14:51:59Z</time>
      </trkpt>
      <trkpt lat="41.763032" lon="2.337955">
        <ele>1292.97</ele>
        <time>2016-02-12T14:52:19Z</time>
      </trkpt>
      <trkpt lat="41.763024" lon="2.338011">
        <ele>1293.02</ele>
        <time>2016-02-12T14:52:39Z</time>
      </trkpt>
      <trkpt lat="41.763016" lon="2.338068">
        <ele>1293.01</ele>
        <time>2016-02-12T14:52:59Z</time>
      </trkpt>
      <trkpt lat="41.763008" lon="2.338122">
        <ele>1293.06</ele>
        <time>2016-02-12T14:53:19Z</time>
      </trkpt>
      <trkpt lat="41.763000" lon="2.338179">
        <ele>1293.07</ele>
        <time>2016-02-12T14:53:39Z</time>
      </trkpt>
      <trkpt lat="41.762996" lon="2.338238">
        <ele>1293.02</ele>
        <time>2016-02-12T14:53:59Z</time>
      </trkpt>
      <trkpt lat="41.762998" lon="2.338300">
        <ele>1293.06</ele>
        <time>2016-02-12T14:54:19Z</time>
      </trkpt>
      <trkpt lat="41.763004" lon="2.338363">
        <ele>1293.07</ele>
        <time>2016-02-12T14:54:39Z</time>
      </trkpt>
      <trkpt lat="41.763022" lon="2.338425">
        <ele>1293.03</ele>
        <time>2016-02-12T14:54:59Z</time>
      </trkpt>
      <trkpt lat="41.763044" lon="2.338484">
        <ele>1293.03</ele>
        <time>2016-02-12T14:55:19Z</time>
      </trkpt>
      <trkpt lat="41.763074" lon="2.338541">
        <ele>1293.08</ele>
        <time>2016-02-12T14:55:39Z</time>
      </trkpt>
      <trkpt lat="41.763100" lon="2.338599">
        <ele>1293.08</ele>
        <time>2016-02-12T14:55:59Z</time>
      </trkpt>
      <trkpt lat="41.763126" lon="2.338659">
        <ele>1293.06</ele>
        <time>2016-02-12T14:56:19Z</time>
      </trkpt>
      <trkpt lat="41.763150" lon="2.338730">
        <ele>1293.02</ele>
        <time>2016-02-12T14:56:39Z</time>
      </trkpt>
      <trkpt lat="41.763164" lon="2.338814">
        <ele>1293.01</ele>
        <time>2016-02-12T14:56:59Z</time>
      </trkpt>
      <trkpt lat="41.763168" lon="2.338907">
        <ele>1293.10</ele>
        <time>2016-02-12T14:57:19Z</time>
      </trkpt>
      <trkpt lat="41.763162" lon="2.339005">
        <ele>1293.02</ele>
        <time>2016-02-12T14:57:39Z</time>
      </trkpt>
      <trkpt lat="41.763154" lon="2.339104">
        <ele>1293.08</ele>
        <time>2016-02-12T14:57:59Z</time>
      </trkpt>
      <trkpt lat="41.763144" lon="2.339204">
        <ele>1293.09</ele>
        <time>2016-02-12T14:58:19Z</time>
      </trkpt>
      <trkpt lat="41.763136" lon="2.339304">
        <ele>1292.46</ele>
        <time>2016-02-12T14:58:39Z</time>
      </trkpt>
      <trkpt lat="41.763129" lon="2.339406">
        <ele>1286.14</ele>
        <time>2016-02-12T14:58:59Z</time>
      </trkpt>
      <trkpt lat="41.763125" lon="2.339508">
        <ele>1287.07</ele>
        <time>2016-02-12T14:59:19Z</time>
      </trkpt>
      <trkpt lat="41.763119" lon="2.339609">
        <ele>1287.16</ele>
        <time>2016-02-12T14:59:39Z</time>
      </trkpt>
      <trkpt lat="41.763108" lon="2.339707">
        <ele>1288.02</ele>
        <time>2016-02-12T14:59:59Z</time>
      </trkpt>
      <trkpt lat="41.763090" lon="2.339800">
        <ele>1287.99</ele>
        <time>2016-02-12T15:00:19Z</time>
      </trkpt>
      <trkpt lat="41.763066" lon="2.339886">
        <ele>1287.32</ele>
        <time>2016-02-12T15:00:39Z</time>
      </trkpt>
      <trkpt lat="41.763041" lon="2.339964">
        <ele>1288.01</ele>
        <time>2016-02-12T15:00:59Z</time>
      </trkpt>
      <trkpt lat="41.763018" lon="2.340034">
        <ele>1288.09</ele>
        <time>2016-02-12T15:01:19Z</time>
      </trkpt>
      <trkpt lat="41.762997" lon="2.340096">
        <ele>1289.11</ele>
        <time>2016-02-12T15:01:39Z</time>
      </trkpt>
      <trkpt lat="41.762977" lon="2.340151">
        <ele>1290.11</ele>
        <time>2016-02-12T15:01:59Z</time>
      </trkpt>
      <trkpt lat="41.762958" lon="2.340202">
        <ele>1291.05</ele>
        <time>2016-02-12T15:02:19Z</time>
      </trkpt>
      <trkpt lat="41.762938" lon="2.340248">
        <ele>1291.02</ele>
        <time>2016-02-12T15:02:39Z</time>
      </trkpt>
      <trkpt lat="41.762916" lon="2.340294">
        <ele>1291.02</ele>
        <time>2016-02-12T15:02:59Z</time>
      </trkpt>
      <trkpt lat="41.762890" lon="2.340341">
        <ele>1291.05</ele>
        <time>2016-02-12T15:03:19Z</time>
      </trkpt>
      <trkpt lat="41.762863" lon="2.340391">
        <ele>1291.17</ele>
        <time>2016-02-12T15:03:39Z</time>
      </trkpt>
      <trkpt lat="41.762835" lon="2.340445">
        <ele>1292.08</ele>
        <time>2016-02-12T15:03:59Z</time>
      </trkpt>
      <trkpt lat="41.762804" lon="2.340503">
        <ele>1292.01</ele>
        <time>2016-02-12T15:04:19Z</time>
      </trkpt>
      <trkpt lat="41.762773" lon="2.340564">
        <ele>1292.02</ele>
        <time>2016-02-12T15:04:39Z</time>
      </trkpt>
      <trkpt lat="41.762745" lon="2.340621">
        <ele>1292.01</ele>
        <time>2016-02-12T15:04:59Z</time>
      </trkpt>
      <trkpt lat="41.762719" lon="2.340674">
        <ele>1292.09</ele>
        <time>2016-02-12T15:05:19Z</time>
      </trkpt>
      <trkpt lat="41.762694" lon="2.340727">
        <ele>1292.05</ele>
        <time>2016-02-12T15:05:39Z</time>
      </trkpt>
      <trkpt lat="41.762668" lon="2.340779">
        <ele>1292.03</ele>
        <time>2016-02-12T15:05:59Z</time>
      </trkpt>
      <trkpt lat="41.762640" lon="2.340834">
        <ele>1292.01</ele>
        <time>2016-02-12T15:06:19Z</time>
      </trkpt>
      <trkpt lat="41.762613" lon="2.340892">
        <ele>1292.02</ele>
        <time>2016-02-12T15:06:39Z</time>
      </trkpt>
      <trkpt lat="41.762585" lon="2.340949">
        <ele>1292.03</ele>
        <time>2016-02-12T15:06:59Z</time>
      </trkpt>
      <trkpt lat="41.762557" lon="2.341004">
        <ele>1292.08</ele>
        <time>2016-02-12T15:07:19Z</time>
      </trkpt>
      <trkpt lat="41.762528" lon="2.341056">
        <ele>1292.06</ele>
        <time>2016-02-12T15:07:39Z</time>
      </trkpt>
      <trkpt lat="41.762500" lon="2.341107">
        <ele>1292.07</ele>
        <time>2016-02-12T15:07:59Z</time>
      </trkpt>
      <trkpt lat="41.762472" lon="2.341157">
        <ele>1292.03</ele>
        <time>2016-02-12T15:08:19Z</time>
      </trkpt>
      <trkpt lat="41.762447" lon="2.341207">
        <ele>1292.12</ele>
        <time>2016-02-12T15:08:39Z</time>
      </trkpt>
      <trkpt lat="41.762422" lon="2.341258">
        <ele>1293.01</ele>
        <time>2016-02-12T15:08:59Z</time>
      </trkpt>
      <trkpt lat="41.762396" lon="2.341308">
        <ele>1293.05</ele>
        <time>2016-02-12T15:09:19Z</time>
      </trkpt>
      <trkpt lat="41.762370" lon="2.341357">
        <ele>1293.03</ele>
        <time>2016-02-12T15:09:39Z</time>
      </trkpt>
      <trkpt lat="41.762344" lon="2.341407">
        <ele>1293.09</ele>
        <time>2016-02-12T15:09:59Z</time>
      </trkpt>
      <trkpt lat="41.762317" lon="2.341456">
        <ele>1293.02</ele>
        <time>2016-02-12T15:10:19Z</time>
      </trkpt>
      <trkpt lat="41.762291" lon="2.341504">
        <ele>1293.03</ele>
        <time>2016-02-12T15:10:39Z</time>
      </trkpt>
      <trkpt lat="41.762266" lon="2.341551">
        <ele>1293.06</ele>
        <time>2016-02-12T15:10:59Z</time>
      </trkpt>
      <trkpt lat="41.762242" lon="2.341599">
        <ele>1293.04</ele>
        <time>2016-02-12T15:11:19Z</time>
      </trkpt>
      <trkpt lat="41.762217" lon="2.341649">
        <ele>1293.03</ele>
        <time>2016-02-12T15:11:39Z</time>
      </trkpt>
      <trkpt lat="41.762194" lon="2.341703">
        <ele>1293.01</ele>
        <time>2016-02-12T15:11:59Z</time>
      </trkpt>
      <trkpt lat="41.762170" lon="2.341759">
        <ele>1293.04</ele>
        <time>2016-02-12T15:12:19Z</time>
      </trkpt>
      <trkpt lat="41.762143" lon="2.341814">
        <ele>1293.01</ele>
        <time>2016-02-12T15:12:39Z</time>
      </trkpt>
      <trkpt lat="41.762113" lon="2.341872">
        <ele>1293.01</ele>
        <time>2016-02-12T15:12:59Z</time>
      </trkpt>
      <trkpt lat="41.762084" lon="2.341940">
        <ele>1293.05</ele>
        <time>2016-02-12T15:13:19Z</time>
      </trkpt>
      <trkpt lat="41.762056" lon="2.342017">
        <ele>1293.08</ele>
        <time>2016-02-12T15:13:39Z</time>
      </trkpt>
      <trkpt lat="41.762028" lon="2.342096">
        <ele>1293.09</ele>
        <time>2016-02-12T15:13:59Z</time>
      </trkpt>
      <trkpt lat="41.761997" lon="2.342171">
        <ele>1293.06</ele>
        <time>2016-02-12T15:14:19Z</time>
      </trkpt>
      <trkpt lat="41.761962" lon="2.342247">
        <ele>1293.04</ele>
        <time>2016-02-12T15:14:39Z</time>
      </trkpt>
      <trkpt lat="41.761929" lon="2.342327">
        <ele>1293.04</ele>
        <time>2016-02-12T15:14:59Z</time>
      </trkpt>
      <trkpt lat="41.761898" lon="2.342408">
        <ele>1292.56</ele>
        <time>2016-02-12T15:15:19Z</time>
      </trkpt>
      <trkpt lat="41.761869" lon="2.342486">
        <ele>1286.72</ele>
        <time>2016-02-12T15:15:39Z</time>
      </trkpt>
      <trkpt lat="41.761842" lon="2.342566">
        <ele>1283.96</ele>
        <time>2016-02-12T15:15:59Z</time>
      </trkpt>
      <trkpt lat="41.761817" lon="2.342650">
        <ele>1282.98</ele>
        <time>2016-02-12T15:16:19Z</time>
      </trkpt>
      <trkpt lat="41.761791" lon="2.342738">
        <ele>1282.21</ele>
        <time>2016-02-12T15:16:39Z</time>
      </trkpt>
      <trkpt lat="41.761762" lon="2.342826">
        <ele>1280.81</ele>
        <time>2016-02-12T15:16:59Z</time>
      </trkpt>
      <trkpt lat="41.761735" lon="2.342917">
        <ele>1279.04</ele>
        <time>2016-02-12T15:17:19Z</time>
      </trkpt>
      <trkpt lat="41.761709" lon="2.343013">
        <ele>1279.04</ele>
        <time>2016-02-12T15:17:39Z</time>
      </trkpt>
      <trkpt lat="41.761677" lon="2.343113">
        <ele>1278.98</ele>
        <time>2016-02-12T15:17:59Z</time>
      </trkpt>
      <trkpt lat="41.761641" lon="2.343215">
        <ele>1277.94</ele>
        <time>2016-02-12T15:18:19Z</time>
      </trkpt>
      <trkpt lat="41.761602" lon="2.343317">
        <ele>1276.32</ele>
        <time>2016-02-12T15:18:39Z</time>
      </trkpt>
      <trkpt lat="41.761566" lon="2.343412">
        <ele>1275.02</ele>
        <time>2016-02-12T15:18:59Z</time>
      </trkpt>
      <trkpt lat="41.761534" lon="2.343495">
        <ele>1275.05</ele>
        <time>2016-02-12T15:19:19Z</time>
      </trkpt>
      <trkpt lat="41.761505" lon="2.343569">
        <ele>1274.96</ele>
        <time>2016-02-12T15:19:39Z</time>
      </trkpt>
      <trkpt lat="41.761470" lon="2.343628">
        <ele>1274.17</ele>
        <time>2016-02-12T15:19:59Z</time>
      </trkpt>
      <trkpt lat="41.761431" lon="2.343667">
        <ele>1274.98</ele>
        <time>2016-02-12T15:20:19Z</time>
      </trkpt>
      <trkpt lat="41.761388" lon="2.343695">
        <ele>1274.71</ele>
        <time>2016-02-12T15:20:39Z</time>
      </trkpt>
      <trkpt lat="41.761337" lon="2.343721">
        <ele>1271.91</ele>
        <time>2016-02-12T15:20:59Z</time>
      </trkpt>
      <trkpt lat="41.761277" lon="2.343752">
        <ele>1270.98</ele>
        <time>2016-02-12T15:21:19Z</time>
      </trkpt>
      <trkpt lat="41.761214" lon="2.343791">
        <ele>1270.25</ele>
        <time>2016-02-12T15:21:39Z</time>
      </trkpt>
      <trkpt lat="41.761151" lon="2.343840">
        <ele>1268.95</ele>
        <time>2016-02-12T15:21:59Z</time>
      </trkpt>
      <trkpt lat="41.761093" lon="2.343902">
        <ele>1268.04</ele>
        <time>2016-02-12T15:22:19Z</time>
      </trkpt>
      <trkpt lat="41.761040" lon="2.343973">
        <ele>1268.02</ele>
        <time>2016-02-12T15:22:39Z</time>
      </trkpt>
      <trkpt lat="41.760988" lon="2.344042">
        <ele>1267.98</ele>
        <time>2016-02-12T15:22:59Z</time>
      </trkpt>
      <trkpt lat="41.760935" lon="2.344106">
        <ele>1266.94</ele>
        <time>2016-02-12T15:23:19Z</time>
      </trkpt>
      <trkpt lat="41.760878" lon="2.344171">
        <ele>1265.95</ele>
        <time>2016-02-12T15:23:39Z</time>
      </trkpt>
      <trkpt lat="41.760815" lon="2.344235">
        <ele>1265.23</ele>
        <time>2016-02-12T15:23:59Z</time>
      </trkpt>
      <trkpt lat="41.760753" lon="2.344301">
        <ele>1265.07</ele>
        <time>2016-02-12T15:24:19Z</time>
      </trkpt>
      <trkpt lat="41.760697" lon="2.344371">
        <ele>1265.01</ele>
        <time>2016-02-12T15:24:39Z</time>
      </trkpt>
      <trkpt lat="41.760648" lon="2.344439">
        <ele>1265.11</ele>
        <time>2016-02-12T15:24:59Z</time>
      </trkpt>
      <trkpt lat="41.760605" lon="2.344503">
        <ele>1265.97</ele>
        <time>2016-02-12T15:25:19Z</time>
      </trkpt>
      <trkpt lat="41.760564" lon="2.344566">
        <ele>1265.08</ele>
        <time>2016-02-12T15:25:39Z</time>
      </trkpt>
      <trkpt lat="41.760527" lon="2.344632">
        <ele>1265.03</ele>
        <time>2016-02-12T15:25:59Z</time>
      </trkpt>
      <trkpt lat="41.760492" lon="2.344698">
        <ele>1265.02</ele>
        <time>2016-02-12T15:26:19Z</time>
      </trkpt>
      <trkpt lat="41.760459" lon="2.344769">
        <ele>1265.04</ele>
        <time>2016-02-12T15:26:39Z</time>
      </trkpt>
      <trkpt lat="41.760436" lon="2.344847">
        <ele>1264.82</ele>
        <time>2016-02-12T15:26:59Z</time>
      </trkpt>
      <trkpt lat="41.760429" lon="2.344932">
        <ele>1263.06</ele>
        <time>2016-02-12T15:27:19Z</time>
      </trkpt>
      <trkpt lat="41.760437" lon="2.345012">
        <ele>1263.04</ele>
        <time>2016-02-12T15:27:39Z</time>
      </trkpt>
      <trkpt lat="41.760459" lon="2.345086">
        <ele>1263.07</ele>
        <time>2016-02-12T15:27:59Z</time>
      </trkpt>
      <trkpt lat="41.760495" lon="2.345155">
        <ele>1263.04</ele>
        <time>2016-02-12T15:28:19Z</time>
      </trkpt>
      <trkpt lat="41.760544" lon="2.345218">
        <ele>1262.73</ele>
        <time>2016-02-12T15:28:39Z</time>
      </trkpt>
      <trkpt lat="41.760601" lon="2.345281">
        <ele>1258.81</ele>
        <time>2016-02-12T15:28:59Z</time>
      </trkpt>
      <trkpt lat="41.760656" lon="2.345355">
        <ele>1255.02</ele>
        <time>2016-02-12T15:29:19Z</time>
      </trkpt>
      <trkpt lat="41.760704" lon="2.345444">
        <ele>1255.07</ele>
        <time>2016-02-12T15:29:39Z</time>
      </trkpt>
      <trkpt lat="41.760743" lon="2.345547">
        <ele>1254.76</ele>
        <time>2016-02-12T15:29:59Z</time>
      </trkpt>
      <trkpt lat="41.760772" lon="2.345661">
        <ele>1251.99</ele>
        <time>2016-02-12T15:30:19Z</time>
      </trkpt>
      <trkpt lat="41.760799" lon="2.345781">
        <ele>1250.33</ele>
        <time>2016-02-12T15:30:39Z</time>
      </trkpt>
      <trkpt lat="41.760821" lon="2.345906">
        <ele>1248.87</ele>
        <time>2016-02-12T15:30:59Z</time>
      </trkpt>
      <trkpt lat="41.760840" lon="2.346032">
        <ele>1246.99</ele>
        <time>2016-02-12T15:31:19Z</time>
      </trkpt>
      <trkpt lat="41.760853" lon="2.346160">
        <ele>1246.01</ele>
        <time>2016-02-12T15:31:39Z</time>
      </trkpt>
      <trkpt lat="41.760865" lon="2.346289">
        <ele>1245.93</ele>
        <time>2016-02-12T15:31:59Z</time>
      </trkpt>
      <trkpt lat="41.760888" lon="2.346411">
        <ele>1244.99</ele>
        <time>2016-02-12T15:32:19Z</time>
      </trkpt>
      <trkpt lat="41.760918" lon="2.346530">
        <ele>1244.11</ele>
        <time>2016-02-12T15:32:39Z</time>
      </trkpt>
      <trkpt lat="41.760936" lon="2.346654">
        <ele>1242.41</ele>
        <time>2016-02-12T15:32:59Z</time>
      </trkpt>
      <trkpt lat="41.760936" lon="2.346785">
        <ele>1240.04</ele>
        <time>2016-02-12T15:33:19Z</time>
      </trkpt>
      <trkpt lat="41.760937" lon="2.346918">
        <ele>1239.99</ele>
        <time>2016-02-12T15:33:39Z</time>
      </trkpt>
      <trkpt lat="41.760945" lon="2.347049">
        <ele>1238.92</ele>
        <time>2016-02-12T15:33:59Z</time>
      </trkpt>
      <trkpt lat="41.760953" lon="2.347179">
        <ele>1238.23</ele>
        <time>2016-02-12T15:34:19Z</time>
      </trkpt>
      <trkpt lat="41.760955" lon="2.347310">
        <ele>1238.08</ele>
        <time>2016-02-12T15:34:39Z</time>
      </trkpt>
      <trkpt lat="41.760958" lon="2.347438">
        <ele>1237.95</ele>
        <time>2016-02-12T15:34:59Z</time>
      </trkpt>
      <trkpt lat="41.760966" lon="2.347558">
        <ele>1237.09</ele>
        <time>2016-02-12T15:35:19Z</time>
      </trkpt>
      <trkpt lat="41.760974" lon="2.347671">
        <ele>1236.95</ele>
        <time>2016-02-12T15:35:39Z</time>
      </trkpt>
      <trkpt lat="41.760984" lon="2.347777">
        <ele>1236.27</ele>
        <time>2016-02-12T15:35:59Z</time>
      </trkpt>
      <trkpt lat="41.761007" lon="2.347881">
        <ele>1234.89</ele>
        <time>2016-02-12T15:36:19Z</time>
      </trkpt>
      <trkpt lat="41.761047" lon="2.347978">
        <ele>1232.81</ele>
        <time>2016-02-12T15:36:39Z</time>
      </trkpt>
      <trkpt lat="41.761088" lon="2.348081">
        <ele>1230.91</ele>
        <time>2016-02-12T15:36:59Z</time>
      </trkpt>
      <trkpt lat="41.761124" lon="2.348188">
        <ele>1230.10</ele>
        <time>2016-02-12T15:37:19Z</time>
      </trkpt>
      <trkpt lat="41.761154" lon="2.348287">
        <ele>1229.94</ele>
        <time>2016-02-12T15:37:39Z</time>
      </trkpt>
      <trkpt lat="41.761172" lon="2.348372">
        <ele>1228.97</ele>
        <time>2016-02-12T15:37:59Z</time>
      </trkpt>
      <trkpt lat="41.761165" lon="2.348445">
        <ele>1228.28</ele>
        <time>2016-02-12T15:38:19Z</time>
      </trkpt>
      <trkpt lat="41.761130" lon="2.348499">
        <ele>1227.04</ele>
        <time>2016-02-12T15:38:39Z</time>
      </trkpt>
      <trkpt lat="41.761080" lon="2.348534">
        <ele>1227.06</ele>
        <time>2016-02-12T15:38:59Z</time>
      </trkpt>
      <trkpt lat="41.761023" lon="2.348565">
        <ele>1227.03</ele>
        <time>2016-02-12T15:39:19Z</time>
      </trkpt>
      <trkpt lat="41.760964" lon="2.348610">
        <ele>1225.95</ele>
        <time>2016-02-12T15:39:39Z</time>
      </trkpt>
      <trkpt lat="41.760907" lon="2.348673">
        <ele>1225.04</ele>
        <time>2016-02-12T15:39:59Z</time>
      </trkpt>
      <trkpt lat="41.760854" lon="2.348745">
        <ele>1224.92</ele>
        <time>2016-02-12T15:40:19Z</time>
      </trkpt>
      <trkpt lat="41.760808" lon="2.348824">
        <ele>1224.21</ele>
        <time>2016-02-12T15:40:39Z</time>
      </trkpt>
      <trkpt lat="41.760770" lon="2.348911">
        <ele>1223.91</ele>
        <time>2016-02-12T15:40:59Z</time>
      </trkpt>
      <trkpt lat="41.760741" lon="2.349005">
        <ele>1223.04</ele>
        <time>2016-02-12T15:41:19Z</time>
      </trkpt>
      <trkpt lat="41.760726" lon="2.349105">
        <ele>1223.06</ele>
        <time>2016-02-12T15:41:39Z</time>
      </trkpt>
      <trkpt lat="41.760725" lon="2.349212">
        <ele>1222.99</ele>
        <time>2016-02-12T15:41:59Z</time>
      </trkpt>
      <trkpt lat="41.760739" lon="2.349322">
        <ele>1221.87</ele>
        <time>2016-02-12T15:42:19Z</time>
      </trkpt>
      <trkpt lat="41.760765" lon="2.349430">
        <ele>1219.91</ele>
        <time>2016-02-12T15:42:39Z</time>
      </trkpt>
      <trkpt lat="41.760800" lon="2.349532">
        <ele>1219.28</ele>
        <time>2016-02-12T15:42:59Z</time>
      </trkpt>
      <trkpt lat="41.760849" lon="2.349628">
        <ele>1217.84</ele>
        <time>2016-02-12T15:43:19Z</time>
      </trkpt>
      <trkpt lat="41.760913" lon="2.349714">
        <ele>1215.98</ele>
        <time>2016-02-12T15:43:39Z</time>
      </trkpt>
      <trkpt lat="41.760986" lon="2.349794">
        <ele>1214.90</ele>
        <time>2016-02-12T15:43:59Z</time>
      </trkpt>
      <trkpt lat="41.761061" lon="2.349876">
        <ele>1212.95</ele>
        <time>2016-02-12T15:44:19Z</time>
      </trkpt>
      <trkpt lat="41.761141" lon="2.349960">
        <ele>1211.32</ele>
        <time>2016-02-12T15:44:39Z</time>
      </trkpt>
      <trkpt lat="41.761225" lon="2.350044">
        <ele>1209.91</ele>
        <time>2016-02-12T15:44:59Z</time>
      </trkpt>
      <trkpt lat="41.761312" lon="2.350125">
        <ele>1209.06</ele>
        <time>2016-02-12T15:45:19Z</time>
      </trkpt>
      <trkpt lat="41.761398" lon="2.350203">
        <ele>1209.06</ele>
        <time>2016-02-12T15:45:39Z</time>
      </trkpt>
      <trkpt lat="41.761479" lon="2.350280">
        <ele>1207.83</ele>
        <time>2016-02-12T15:45:59Z</time>
      </trkpt>
      <trkpt lat="41.761552" lon="2.350367">
        <ele>1205.54</ele>
        <time>2016-02-12T15:46:19Z</time>
      </trkpt>
      <trkpt lat="41.761619" lon="2.350465">
        <ele>1204.99</ele>
        <time>2016-02-12T15:46:39Z</time>
      </trkpt>
      <trkpt lat="41.761686" lon="2.350561">
        <ele>1203.95</ele>
        <time>2016-02-12T15:46:59Z</time>
      </trkpt>
      <trkpt lat="41.761754" lon="2.350658">
        <ele>1202.98</ele>
        <time>2016-02-12T15:47:19Z</time>
      </trkpt>
      <trkpt lat="41.761817" lon="2.350764">
        <ele>1202.08</ele>
        <time>2016-02-12T15:47:39Z</time>
      </trkpt>
      <trkpt lat="41.761874" lon="2.350873">
        <ele>1202.02</ele>
        <time>2016-02-12T15:47:59Z</time>
      </trkpt>
      <trkpt lat="41.761927" lon="2.350977">
        <ele>1200.90</ele>
        <time>2016-02-12T15:48:19Z</time>
      </trkpt>
      <trkpt lat="41.761980" lon="2.351071">
        <ele>1199.91</ele>
        <time>2016-02-12T15:48:39Z</time>
      </trkpt>
      <trkpt lat="41.762032" lon="2.351160">
        <ele>1199.01</ele>
        <time>2016-02-12T15:48:59Z</time>
      </trkpt>
      <trkpt lat="41.762088" lon="2.351234">
        <ele>1198.82</ele>
        <time>2016-02-12T15:49:19Z</time>
      </trkpt>
      <trkpt lat="41.762146" lon="2.351300">
        <ele>1196.97</ele>
        <time>2016-02-12T15:49:39Z</time>
      </trkpt>
      <trkpt lat="41.762204" lon="2.351370">
        <ele>1196.21</ele>
        <time>2016-02-12T15:49:59Z</time>
      </trkpt>
      <trkpt lat="41.762264" lon="2.351447">
        <ele>1193.98</ele>
        <time>2016-02-12T15:50:19Z</time>
      </trkpt>
      <trkpt lat="41.762322" lon="2.351528">
        <ele>1192.98</ele>
        <time>2016-02-12T15:50:39Z</time>
      </trkpt>
      <trkpt lat="41.762375" lon="2.351617">
        <ele>1192.02</ele>
        <time>2016-02-12T15:50:59Z</time>
      </trkpt>
      <trkpt lat="41.762423" lon="2.351715">
        <ele>1191.94</ele>
        <time>2016-02-12T15:51:19Z</time>
      </trkpt>
      <trkpt lat="41.762471" lon="2.351817">
        <ele>1191.03</ele>
        <time>2016-02-12T15:51:39Z</time>
      </trkpt>
      <trkpt lat="41.762520" lon="2.351921">
        <ele>1190.40</ele>
        <time>2016-02-12T15:51:59Z</time>
      </trkpt>
      <trkpt lat="41.762574" lon="2.352021">
        <ele>1189.03</ele>
        <time>2016-02-12T15:52:19Z</time>
      </trkpt>
      <trkpt lat="41.762635" lon="2.352118">
        <ele>1188.82</ele>
        <time>2016-02-12T15:52:39Z</time>
      </trkpt>
      <trkpt lat="41.762705" lon="2.352203">
        <ele>1186.81</ele>
        <time>2016-02-12T15:52:59Z</time>
      </trkpt>
      <trkpt lat="41.762780" lon="2.352284">
        <ele>1184.92</ele>
        <time>2016-02-12T15:53:19Z</time>
      </trkpt>
      <trkpt lat="41.762852" lon="2.352376">
        <ele>1184.26</ele>
        <time>2016-02-12T15:53:39Z</time>
      </trkpt>
      <trkpt lat="41.762917" lon="2.352476">
        <ele>1182.86</ele>
        <time>2016-02-12T15:53:59Z</time>
      </trkpt>
      <trkpt lat="41.762977" lon="2.352575">
        <ele>1180.95</ele>
        <time>2016-02-12T15:54:19Z</time>
      </trkpt>
      <trkpt lat="41.763034" lon="2.352670">
        <ele>1180.06</ele>
        <time>2016-02-12T15:54:39Z</time>
      </trkpt>
      <trkpt lat="41.763087" lon="2.352757">
        <ele>1180.07</ele>
        <time>2016-02-12T15:54:59Z</time>
      </trkpt>
      <trkpt lat="41.763142" lon="2.352831">
        <ele>1180.01</ele>
        <time>2016-02-12T15:55:19Z</time>
      </trkpt>
      <trkpt lat="41.763193" lon="2.352899">
        <ele>1180.07</ele>
        <time>2016-02-12T15:55:39Z</time>
      </trkpt>
      <trkpt lat="41.763241" lon="2.352956">
        <ele>1179.98</ele>
        <time>2016-02-12T15:55:59Z</time>
      </trkpt>
      <trkpt lat="41.763292" lon="2.353004">
        <ele>1178.93</ele>
        <time>2016-02-12T15:56:19Z</time>
      </trkpt>
      <trkpt lat="41.763352" lon="2.353032">
        <ele>1178.02</ele>
        <time>2016-02-12T15:56:39Z</time>
      </trkpt>
      <trkpt lat="41.763416" lon="2.353064">
        <ele>1177.91</ele>
        <time>2016-02-12T15:56:59Z</time>
      </trkpt>
      <trkpt lat="41.763482" lon="2.353099">
        <ele>1176.94</ele>
        <time>2016-02-12T15:57:19Z</time>
      </trkpt>
      <trkpt lat="41.763549" lon="2.353132">
        <ele>1176.04</ele>
        <time>2016-02-12T15:57:39Z</time>
      </trkpt>
      <trkpt lat="41.763613" lon="2.353163">
        <ele>1176.01</ele>
        <time>2016-02-12T15:57:59Z</time>
      </trkpt>
      <trkpt lat="41.763673" lon="2.353185">
        <ele>1175.28</ele>
        <time>2016-02-12T15:58:19Z</time>
      </trkpt>
      <trkpt lat="41.763734" lon="2.353204">
        <ele>1173.61</ele>
        <time>2016-02-12T15:58:39Z</time>
      </trkpt>
      <trkpt lat="41.763789" lon="2.353251">
        <ele>1170.03</ele>
        <time>2016-02-12T15:58:59Z</time>
      </trkpt>
      <trkpt lat="41.763840" lon="2.353311">
        <ele>1170.04</ele>
        <time>2016-02-12T15:59:19Z</time>
      </trkpt>
      <trkpt lat="41.763884" lon="2.353387">
        <ele>1169.91</ele>
        <time>2016-02-12T15:59:39Z</time>
      </trkpt>
      <trkpt lat="41.763930" lon="2.353470">
        <ele>1168.92</ele>
        <time>2016-02-12T15:59:59Z</time>
      </trkpt>
      <trkpt lat="41.763981" lon="2.353555">
        <ele>1168.29</ele>
        <time>2016-02-12T16:00:19Z</time>
      </trkpt>
      <trkpt lat="41.764033" lon="2.353640">
        <ele>1167.82</ele>
        <time>2016-02-12T16:00:39Z</time>
      </trkpt>
      <trkpt lat="41.764085" lon="2.353730">
        <ele>1165.91</ele>
        <time>2016-02-12T16:00:59Z</time>
      </trkpt>
      <trkpt lat="41.764137" lon="2.353826">
        <ele>1165.04</ele>
        <time>2016-02-12T16:01:19Z</time>
      </trkpt>
      <trkpt lat="41.764187" lon="2.353927">
        <ele>1164.74</ele>
        <time>2016-02-12T16:01:39Z</time>
      </trkpt>
      <trkpt lat="41.764233" lon="2.354028">
        <ele>1162.02</ele>
        <time>2016-02-12T16:01:59Z</time>
      </trkpt>
      <trkpt lat="41.764277" lon="2.354131">
        <ele>1162.04</ele>
        <time>2016-02-12T16:02:19Z</time>
      </trkpt>
      <trkpt lat="41.764319" lon="2.354238">
        <ele>1160.90</ele>
        <time>2016-02-12T16:02:39Z</time>
      </trkpt>
      <trkpt lat="41.764357" lon="2.354349">
        <ele>1158.91</ele>
        <time>2016-02-12T16:02:59Z</time>
      </trkpt>
      <trkpt lat="41.764386" lon="2.354468">
        <ele>1157.84</ele>
        <time>2016-02-12T16:03:19Z</time>
      </trkpt>
      <trkpt lat="41.764410" lon="2.354589">
        <ele>1155.98</ele>
        <time>2016-02-12T16:03:39Z</time>
      </trkpt>
      <trkpt lat="41.764431" lon="2.354708">
        <ele>1155.22</ele>
        <time>2016-02-12T16:03:59Z</time>
      </trkpt>
      <trkpt lat="41.764453" lon="2.354825">
        <ele>1153.90</ele>
        <time>2016-02-12T16:04:19Z</time>
      </trkpt>
      <trkpt lat="41.764481" lon="2.354942">
        <ele>1153.21</ele>
        <time>2016-02-12T16:04:39Z</time>
      </trkpt>
      <trkpt lat="41.764517" lon="2.355058">
        <ele>1151.91</ele>
        <time>2016-02-12T16:04:59Z</time>
      </trkpt>
      <trkpt lat="41.764559" lon="2.355178">
        <ele>1150.94</ele>
        <time>2016-02-12T16:05:19Z</time>
      </trkpt>
      <trkpt lat="41.764604" lon="2.355299">
        <ele>1150.24</ele>
        <time>2016-02-12T16:05:39Z</time>
      </trkpt>
      <trkpt lat="41.764656" lon="2.355413">
        <ele>1147.96</ele>
        <time>2016-02-12T16:05:59Z</time>
      </trkpt>
      <trkpt lat="41.764710" lon="2.355519">
        <ele>1147.05</ele>
        <time>2016-02-12T16:06:19Z</time>
      </trkpt>
      <trkpt lat="41.764760" lon="2.355618">
        <ele>1147.08</ele>
        <time>2016-02-12T16:06:39Z</time>
      </trkpt>
      <trkpt lat="41.764806" lon="2.355719">
        <ele>1146.99</ele>
        <time>2016-02-12T16:06:59Z</time>
      </trkpt>
      <trkpt lat="41.764844" lon="2.355824">
        <ele>1146.08</ele>
        <time>2016-02-12T16:07:19Z</time>
      </trkpt>
      <trkpt lat="41.764878" lon="2.355927">
        <ele>1146.04</ele>
        <time>2016-02-12T16:07:39Z</time>
      </trkpt>
      <trkpt lat="41.764915" lon="2.356015">
        <ele>1146.00</ele>
        <time>2016-02-12T16:07:59Z</time>
      </trkpt>
      <trkpt lat="41.764956" lon="2.356091">
        <ele>1144.92</ele>
        <time>2016-02-12T16:08:19Z</time>
      </trkpt>
      <trkpt lat="41.765003" lon="2.356155">
        <ele>1143.93</ele>
        <time>2016-02-12T16:08:39Z</time>
      </trkpt>
      <trkpt lat="41.765059" lon="2.356208">
        <ele>1142.81</ele>
        <time>2016-02-12T16:08:59Z</time>
      </trkpt>
      <trkpt lat="41.765118" lon="2.356263">
        <ele>1140.81</ele>
        <time>2016-02-12T16:09:19Z</time>
      </trkpt>
      <trkpt lat="41.765181" lon="2.356317">
        <ele>1138.96</ele>
        <time>2016-02-12T16:09:39Z</time>
      </trkpt>
      <trkpt lat="41.765243" lon="2.356378">
        <ele>1138.28</ele>
        <time>2016-02-12T16:09:59Z</time>
      </trkpt>
      <trkpt lat="41.765305" lon="2.356441">
        <ele>1137.93</ele>
        <time>2016-02-12T16:10:19Z</time>
      </trkpt>
      <trkpt lat="41.765364" lon="2.356505">
        <ele>1136.98</ele>
        <time>2016-02-12T16:10:39Z</time>
      </trkpt>
      <trkpt lat="41.765419" lon="2.356562">
        <ele>1136.20</ele>
        <time>2016-02-12T16:10:59Z</time>
      </trkpt>
      <trkpt lat="41.765475" lon="2.356607">
        <ele>1135.96</ele>
        <time>2016-02-12T16:11:19Z</time>
      </trkpt>
      <trkpt lat="41.765536" lon="2.356626">
        <ele>1134.92</ele>
        <time>2016-02-12T16:11:39Z</time>
      </trkpt>
      <trkpt lat="41.765598" lon="2.356630">
        <ele>1134.06</ele>
        <time>2016-02-12T16:11:59Z</time>
      </trkpt>
      <trkpt lat="41.765658" lon="2.356622">
        <ele>1133.90</ele>
        <time>2016-02-12T16:12:19Z</time>
      </trkpt>
      <trkpt lat="41.765715" lon="2.356609">
        <ele>1133.22</ele>
        <time>2016-02-12T16:12:39Z</time>
      </trkpt>
      <trkpt lat="41.765768" lon="2.356588">
        <ele>1133.01</ele>
        <time>2016-02-12T16:12:59Z</time>
      </trkpt>
      <trkpt lat="41.765818" lon="2.356572">
        <ele>1133.04</ele>
        <time>2016-02-12T16:13:19Z</time>
      </trkpt>
      <trkpt lat="41.765850" lon="2.356589">
        <ele>1133.07</ele>
        <time>2016-02-12T16:13:39Z</time>
      </trkpt>
      <trkpt lat="41.765855" lon="2.356623">
        <ele>1133.10</ele>
        <time>2016-02-12T16:13:59Z</time>
      </trkpt>
      <trkpt lat="41.765842" lon="2.356655">
        <ele>1132.96</ele>
        <time>2016-02-12T16:14:19Z</time>
      </trkpt>
      <trkpt lat="41.765815" lon="2.356676">
        <ele>1131.95</ele>
        <time>2016-02-12T16:14:39Z</time>
      </trkpt>
      <trkpt lat="41.765781" lon="2.356688">
        <ele>1131.05</ele>
        <time>2016-02-12T16:14:59Z</time>
      </trkpt>
      <trkpt lat="41.765742" lon="2.356696">
        <ele>1131.08</ele>
        <time>2016-02-12T16:15:19Z</time>
      </trkpt>
      <trkpt lat="41.765696" lon="2.356704">
        <ele>1131.09</ele>
        <time>2016-02-12T16:15:39Z</time>
      </trkpt>
      <trkpt lat="41.765645" lon="2.356716">
        <ele>1131.05</ele>
        <time>2016-02-12T16:15:59Z</time>
      </trkpt>
      <trkpt lat="41.765591" lon="2.356729">
        <ele>1131.03</ele>
        <time>2016-02-12T16:16:19Z</time>
      </trkpt>
      <trkpt lat="41.765532" lon="2.356737">
        <ele>1131.02</ele>
        <time>2016-02-12T16:16:39Z</time>
      </trkpt>
      <trkpt lat="41.765470" lon="2.356735">
        <ele>1130.61</ele>
        <time>2016-02-12T16:16:59Z</time>
      </trkpt>
      <trkpt lat="41.765403" lon="2.356726">
        <ele>1126.80</ele>
        <time>2016-02-12T16:17:19Z</time>
      </trkpt>
      <trkpt lat="41.765334" lon="2.356715">
        <ele>1126.08</ele>
        <time>2016-02-12T16:17:39Z</time>
      </trkpt>
      <trkpt lat="41.765264" lon="2.356699">
        <ele>1126.04</ele>
        <time>2016-02-12T16:17:59Z</time>
      </trkpt>
      <trkpt lat="41.765196" lon="2.356680">
        <ele>1126.09</ele>
        <time>2016-02-12T16:18:19Z</time>
      </trkpt>
      <trkpt lat="41.765126" lon="2.356656">
        <ele>1125.79</ele>
        <time>2016-02-12T16:18:39Z</time>
      </trkpt>
      <trkpt lat="41.765053" lon="2.356626">
        <ele>1121.81</ele>
        <time>2016-02-12T16:18:59Z</time>
      </trkpt>
      <trkpt lat="41.764981" lon="2.356590">
        <ele>1120.62</ele>
        <time>2016-02-12T16:19:19Z</time>
      </trkpt>
      <trkpt lat="41.764908" lon="2.356552">
        <ele>1116.74</ele>
        <time>2016-02-12T16:19:39Z</time>
      </trkpt>
      <trkpt lat="41.764836" lon="2.356505">
        <ele>1114.14</ele>
        <time>2016-02-12T16:19:59Z</time>
      </trkpt>
      <trkpt lat="41.764767" lon="2.356453">
        <ele>1115.07</ele>
        <time>2016-02-12T16:20:19Z</time>
      </trkpt>
      <trkpt lat="41.764700" lon="2.356397">
        <ele>1115.02</ele>
        <time>2016-02-12T16:20:39Z</time>
      </trkpt>
      <trkpt lat="41.764637" lon="2.356337">
        <ele>1115.01</ele>
        <time>2016-02-12T16:20:59Z</time>
      </trkpt>
      <trkpt lat="41.764576" lon="2.356277">
        <ele>1114.03</ele>
        <time>2016-02-12T16:21:19Z</time>
      </trkpt>
      <trkpt lat="41.764515" lon="2.356215">
        <ele>1114.04</ele>
        <time>2016-02-12T16:21:39Z</time>
      </trkpt>
      <trkpt lat="41.764451" lon="2.356158">
        <ele>1114.02</ele>
        <time>2016-02-12T16:21:59Z</time>
      </trkpt>
      <trkpt lat="41.764382" lon="2.356111">
        <ele>1113.93</ele>
        <time>2016-02-12T16:22:19Z</time>
      </trkpt>
      <trkpt lat="41.764311" lon="2.356062">
        <ele>1112.86</ele>
        <time>2016-02-12T16:22:39Z</time>
      </trkpt>
      <trkpt lat="41.764242" lon="2.356002">
        <ele>1110.57</ele>
        <time>2016-02-12T16:22:59Z</time>
      </trkpt>
      <trkpt lat="41.764177" lon="2.355927">
        <ele>1109.92</ele>
        <time>2016-02-12T16:23:19Z</time>
      </trkpt>
      <trkpt lat="41.764112" lon="2.355848">
        <ele>1108.35</ele>
        <time>2016-02-12T16:23:39Z</time>
      </trkpt>
      <trkpt lat="41.764043" lon="2.355773">
        <ele>1106.95</ele>
        <time>2016-02-12T16:23:59Z</time>
      </trkpt>
      <trkpt lat="41.763970" lon="2.355703">
        <ele>1105.99</ele>
        <time>2016-02-12T16:24:19Z</time>
      </trkpt>
      <trkpt lat="41.763899" lon="2.355631">
        <ele>1105.02</ele>
        <time>2016-02-12T16:24:39Z</time>
      </trkpt>
      <trkpt lat="41.763835" lon="2.355553">
        <ele>1105.01</ele>
        <time>2016-02-12T16:24:59Z</time>
      </trkpt>
      <trkpt lat="41.763775" lon="2.355475">
        <ele>1103.93</ele>
        <time>2016-02-12T16:25:19Z</time>
      </trkpt>
      <trkpt lat="41.763721" lon="2.355392">
        <ele>1102.98</ele>
        <time>2016-02-12T16:25:39Z</time>
      </trkpt>
      <trkpt lat="41.763673" lon="2.355305">
        <ele>1102.10</ele>
        <time>2016-02-12T16:25:59Z</time>
      </trkpt>
      <trkpt lat="41.763621" lon="2.355215">
        <ele>1102.03</ele>
        <time>2016-02-12T16:26:19Z</time>
      </trkpt>
      <trkpt lat="41.763563" lon="2.355130">
        <ele>1101.95</ele>
        <time>2016-02-12T16:26:39Z</time>
      </trkpt>
      <trkpt lat="41.763502" lon="2.355051">
        <ele>1101.16</ele>
        <time>2016-02-12T16:26:59Z</time>
      </trkpt>
      <trkpt lat="41.763432" lon="2.354986">
        <ele>1099.95</ele>
        <time>2016-02-12T16:27:19Z</time>
      </trkpt>
      <trkpt lat="41.763355" lon="2.354938">
        <ele>1097.99</ele>
        <time>2016-02-12T16:27:39Z</time>
      </trkpt>
      <trkpt lat="41.763274" lon="2.354900">
        <ele>1097.05</ele>
        <time>2016-02-12T16:27:59Z</time>
      </trkpt>
      <trkpt lat="41.763191" lon="2.354871">
        <ele>1097.03</ele>
        <time>2016-02-12T16:28:19Z</time>
      </trkpt>
      <trkpt lat="41.763113" lon="2.354858">
        <ele>1097.02</ele>
        <time>2016-02-12T16:28:39Z</time>
      </trkpt>
      <trkpt lat="41.763038" lon="2.354845">
        <ele>1097.01</ele>
        <time>2016-02-12T16:28:59Z</time>
      </trkpt>
      <trkpt lat="41.762968" lon="2.354814">
        <ele>1096.84</ele>
        <time>2016-02-12T16:29:19Z</time>
      </trkpt>
      <trkpt lat="41.762902" lon="2.354764">
        <ele>1094.97</ele>
        <time>2016-02-12T16:29:39Z</time>
      </trkpt>
      <trkpt lat="41.762833" lon="2.354703">
        <ele>1094.14</ele>
        <time>2016-02-12T16:29:59Z</time>
      </trkpt>
      <trkpt lat="41.762758" lon="2.354644">
        <ele>1092.93</ele>
        <time>2016-02-12T16:30:19Z</time>
      </trkpt>
      <trkpt lat="41.762677" lon="2.354587">
        <ele>1091.95</ele>
        <time>2016-02-12T16:30:39Z</time>
      </trkpt>
      <trkpt lat="41.762590" lon="2.354533">
        <ele>1091.28</ele>
        <time>2016-02-12T16:30:59Z</time>
      </trkpt>
      <trkpt lat="41.762497" lon="2.354479">
        <ele>1088.82</ele>
        <time>2016-02-12T16:31:19Z</time>
      </trkpt>
      <trkpt lat="41.762400" lon="2.354427">
        <ele>1086.95</ele>
        <time>2016-02-12T16:31:39Z</time>
      </trkpt>
      <trkpt lat="41.762304" lon="2.354367">
        <ele>1085.99</ele>
        <time>2016-02-12T16:31:59Z</time>
      </trkpt>
      <trkpt lat="41.762212" lon="2.354308">
        <ele>1085.04</ele>
        <time>2016-02-12T16:32:19Z</time>
      </trkpt>
      <trkpt lat="41.762130" lon="2.354255">
        <ele>1085.03</ele>
        <time>2016-02-12T16:32:39Z</time>
      </trkpt>
      <trkpt lat="41.762047" lon="2.354219">
        <ele>1083.81</ele>
        <time>2016-02-12T16:32:59Z</time>
      </trkpt>
      <trkpt lat="41.761952" lon="2.354193">
        <ele>1081.92</ele>
        <time>2016-02-12T16:33:19Z</time>
      </trkpt>
      <trkpt lat="41.761857" lon="2.354177">
        <ele>1081.03</ele>
        <time>2016-02-12T16:33:39Z</time>
      </trkpt>
      <trkpt lat="41.761763" lon="2.354160">
        <ele>1080.99</ele>
        <time>2016-02-12T16:33:59Z</time>
      </trkpt>
      <trkpt lat="41.761669" lon="2.354144">
        <ele>1079.39</ele>
        <time>2016-02-12T16:34:19Z</time>
      </trkpt>
      <trkpt lat="41.761573" lon="2.354128">
        <ele>1078.84</ele>
        <time>2016-02-12T16:34:39Z</time>
      </trkpt>
      <trkpt lat="41.761466" lon="2.354111">
        <ele>1076.87</ele>
        <time>2016-02-12T16:34:59Z</time>
      </trkpt>
      <trkpt lat="41.761360" lon="2.354094">
        <ele>1075.05</ele>
        <time>2016-02-12T16:35:19Z</time>
      </trkpt>
      <trkpt lat="41.761255" lon="2.354075">
        <ele>1075.09</ele>
        <time>2016-02-12T16:35:39Z</time>
      </trkpt>
      <trkpt lat="41.761156" lon="2.354048">
        <ele>1075.03</ele>
        <time>2016-02-12T16:35:59Z</time>
      </trkpt>
      <trkpt lat="41.761072" lon="2.354010">
        <ele>1075.05</ele>
        <time>2016-02-12T16:36:19Z</time>
      </trkpt>
      <trkpt lat="41.761004" lon="2.353963">
        <ele>1075.01</ele>
        <time>2016-02-12T16:36:39Z</time>
      </trkpt>
      <trkpt lat="41.760946" lon="2.353924">
        <ele>1074.91</ele>
        <time>2016-02-12T16:36:59Z</time>
      </trkpt>
      <trkpt lat="41.760893" lon="2.353908">
        <ele>1073.98</ele>
        <time>2016-02-12T16:37:19Z</time>
      </trkpt>
      <trkpt lat="41.760849" lon="2.353932">
        <ele>1072.97</ele>
        <time>2016-02-12T16:37:39Z</time>
      </trkpt>
      <trkpt lat="41.760832" lon="2.353991">
        <ele>1072.02</ele>
        <time>2016-02-12T16:37:59Z</time>
      </trkpt>
      <trkpt lat="41.760840" lon="2.354062">
        <ele>1071.99</ele>
        <time>2016-02-12T16:38:19Z</time>
      </trkpt>
      <trkpt lat="41.760870" lon="2.354128">
        <ele>1071.15</ele>
        <time>2016-02-12T16:38:39Z</time>
      </trkpt>
      <trkpt lat="41.760913" lon="2.354177">
        <ele>1070.04</ele>
        <time>2016-02-12T16:38:59Z</time>
      </trkpt>
      <trkpt lat="41.760964" lon="2.354220">
        <ele>1070.02</ele>
        <time>2016-02-12T16:39:19Z</time>
      </trkpt>
      <trkpt lat="41.761020" lon="2.354259">
        <ele>1070.03</ele>
        <time>2016-02-12T16:39:39Z</time>
      </trkpt>
      <trkpt lat="41.761080" lon="2.354305">
        <ele>1070.04</ele>
        <time>2016-02-12T16:39:59Z</time>
      </trkpt>
      <trkpt lat="41.761147" lon="2.354354">
        <ele>1069.87</ele>
        <time>2016-02-12T16:40:19Z</time>
      </trkpt>
      <trkpt lat="41.761217" lon="2.354396">
        <ele>1068.02</ele>
        <time>2016-02-12T16:40:39Z</time>
      </trkpt>
      <trkpt lat="41.761289" lon="2.354439">
        <ele>1068.01</ele>
        <time>2016-02-12T16:40:59Z</time>
      </trkpt>
      <trkpt lat="41.761361" lon="2.354478">
        <ele>1068.06</ele>
        <time>2016-02-12T16:41:19Z</time>
      </trkpt>
      <trkpt lat="41.761434" lon="2.354537">
        <ele>1068.06</ele>
        <time>2016-02-12T16:41:39Z</time>
      </trkpt>
      <trkpt lat="41.761512" lon="2.354600">
        <ele>1067.62</ele>
        <time>2016-02-12T16:41:59Z</time>
      </trkpt>
      <trkpt lat="41.761590" lon="2.354646">
        <ele>1063.73</ele>
        <time>2016-02-12T16:42:19Z</time>
      </trkpt>
      <trkpt lat="41.761674" lon="2.354683">
        <ele>1060.66</ele>
        <time>2016-02-12T16:42:39Z</time>
      </trkpt>
      <trkpt lat="41.761761" lon="2.354733">
        <ele>1059.26</ele>
        <time>2016-02-12T16:42:59Z</time>
      </trkpt>
      <trkpt lat="41.761843" lon="2.354793">
        <ele>1056.87</ele>
        <time>2016-02-12T16:43:19Z</time>
      </trkpt>
      <trkpt lat="41.761921" lon="2.354870">
        <ele>1054.96</ele>
        <time>2016-02-12T16:43:39Z</time>
      </trkpt>
      <trkpt lat="41.761994" lon="2.354962">
        <ele>1054.07</ele>
        <time>2016-02-12T16:43:59Z</time>
      </trkpt>
      <trkpt lat="41.762063" lon="2.355067">
        <ele>1053.98</ele>
        <time>2016-02-12T16:44:19Z</time>
      </trkpt>
      <trkpt lat="41.762132" lon="2.355173">
        <ele>1053.22</ele>
        <time>2016-02-12T16:44:39Z</time>
      </trkpt>
      <trkpt lat="41.762201" lon="2.355283">
        <ele>1051.91</ele>
        <time>2016-02-12T16:44:59Z</time>
      </trkpt>
      <trkpt lat="41.762270" lon="2.355388">
        <ele>1050.98</ele>
        <time>2016-02-12T16:45:19Z</time>
      </trkpt>
      <trkpt lat="41.762337" lon="2.355493">
        <ele>1049.95</ele>
        <time>2016-02-12T16:45:39Z</time>
      </trkpt>
      <trkpt lat="41.762407" lon="2.355588">
        <ele>1048.92</ele>
        <time>2016-02-12T16:45:59Z</time>
      </trkpt>
      <trkpt lat="41.762479" lon="2.355689">
        <ele>1047.34</ele>
        <time>2016-02-12T16:46:19Z</time>
      </trkpt>
      <trkpt lat="41.762553" lon="2.355788">
        <ele>1045.96</ele>
        <time>2016-02-12T16:46:39Z</time>
      </trkpt>
      <trkpt lat="41.762623" lon="2.355891">
        <ele>1044.94</ele>
        <time>2016-02-12T16:46:59Z</time>
      </trkpt>
      <trkpt lat="41.762691" lon="2.355994">
        <ele>1043.98</ele>
        <time>2016-02-12T16:47:19Z</time>
      </trkpt>
      <trkpt lat="41.762759" lon="2.356096">
        <ele>1042.94</ele>
        <time>2016-02-12T16:47:39Z</time>
      </trkpt>
      <trkpt lat="41.762826" lon="2.356189">
        <ele>1042.30</ele>
        <time>2016-02-12T16:47:59Z</time>
      </trkpt>
      <trkpt lat="41.762888" lon="2.356281">
        <ele>1040.93</ele>
        <time>2016-02-12T16:48:19Z</time>
      </trkpt>
      <trkpt lat="41.762948" lon="2.356374">
        <ele>1039.92</ele>
        <time>2016-02-12T16:48:39Z</time>
      </trkpt>
      <trkpt lat="41.763006" lon="2.356471">
        <ele>1039.11</ele>
        <time>2016-02-12T16:48:59Z</time>
      </trkpt>
      <trkpt lat="41.763063" lon="2.356570">
        <ele>1037.97</ele>
        <time>2016-02-12T16:49:19Z</time>
      </trkpt>
      <trkpt lat="41.763116" lon="2.356673">
        <ele>1037.22</ele>
        <time>2016-02-12T16:49:39Z</time>
      </trkpt>
      <trkpt lat="41.763164" lon="2.356773">
        <ele>1037.03</ele>
        <time>2016-02-12T16:49:59Z</time>
      </trkpt>
      <trkpt lat="41.763210" lon="2.356870">
        <ele>1037.01</ele>
        <time>2016-02-12T16:50:19Z</time>
      </trkpt>
      <trkpt lat="41.763250" lon="2.356961">
        <ele>1036.92</ele>
        <time>2016-02-12T16:50:39Z</time>
      </trkpt>
      <trkpt lat="41.763283" lon="2.357046">
        <ele>1035.97</ele>
        <time>2016-02-12T16:50:59Z</time>
      </trkpt>
      <trkpt lat="41.763316" lon="2.357126">
        <ele>1034.93</ele>
        <time>2016-02-12T16:51:19Z</time>
      </trkpt>
      <trkpt lat="41.763353" lon="2.357204">
        <ele>1034.07</ele>
        <time>2016-02-12T16:51:39Z</time>
      </trkpt>
      <trkpt lat="41.763398" lon="2.357278">
        <ele>1034.07</ele>
        <time>2016-02-12T16:51:59Z</time>
      </trkpt>
      <trkpt lat="41.763448" lon="2.357349">
        <ele>1032.04</ele>
        <time>2016-02-12T16:52:19Z</time>
      </trkpt>
      <trkpt lat="41.763506" lon="2.357415">
        <ele>1031.83</ele>
        <time>2016-02-12T16:52:39Z</time>
      </trkpt>
      <trkpt lat="41.763568" lon="2.357477">
        <ele>1029.91</ele>
        <time>2016-02-12T16:52:59Z</time>
      </trkpt>
      <trkpt lat="41.763628" lon="2.357543">
        <ele>1028.93</ele>
        <time>2016-02-12T16:53:19Z</time>
      </trkpt>
      <trkpt lat="41.763683" lon="2.357621">
        <ele>1027.98</ele>
        <time>2016-02-12T16:53:39Z</time>
      </trkpt>
      <trkpt lat="41.763736" lon="2.357708">
        <ele>1026.36</ele>
        <time>2016-02-12T16:53:59Z</time>
      </trkpt>
      <trkpt lat="41.763788" lon="2.357802">
        <ele>1024.83</ele>
        <time>2016-02-12T16:54:19Z</time>
      </trkpt>
      <trkpt lat="41.763838" lon="2.357899">
        <ele>1022.96</ele>
        <time>2016-02-12T16:54:39Z</time>
      </trkpt>
      <trkpt lat="41.763887" lon="2.357998">
        <ele>1021.97</ele>
        <time>2016-02-12T16:54:59Z</time>
      </trkpt>
      <trkpt lat="41.763937" lon="2.358093">
        <ele>1021.19</ele>
        <time>2016-02-12T16:55:19Z</time>
      </trkpt>
      <trkpt lat="41.763982" lon="2.358190">
        <ele>1020.97</ele>
        <time>2016-02-12T16:55:39Z</time>
      </trkpt>
      <trkpt lat="41.764027" lon="2.358283">
        <ele>1019.39</ele>
        <time>2016-02-12T16:55:59Z</time>
      </trkpt>
      <trkpt lat="41.764076" lon="2.358371">
        <ele>1019.08</ele>
        <time>2016-02-12T16:56:19Z</time>
      </trkpt>
      <trkpt lat="41.764130" lon="2.358451">
        <ele>1019.02</ele>
        <time>2016-02-12T16:56:39Z</time>
      </trkpt>
      <trkpt lat="41.764189" lon="2.358517">
        <ele>1019.01</ele>
        <time>2016-02-12T16:56:59Z</time>
      </trkpt>
      <trkpt lat="41.764238" lon="2.358571">
        <ele>1019.08</ele>
        <time>2016-02-12T16:57:19Z</time>
      </trkpt>
      <trkpt lat="41.764265" lon="2.358631">
        <ele>1018.91</ele>
        <time>2016-02-12T16:57:39Z</time>
      </trkpt>
      <trkpt lat="41.764264" lon="2.358687">
        <ele>1017.98</ele>
        <time>2016-02-12T16:57:59Z</time>
      </trkpt>
      <trkpt lat="41.764239" lon="2.358726">
        <ele>1016.98</ele>
        <time>2016-02-12T16:58:19Z</time>
      </trkpt>
      <trkpt lat="41.764199" lon="2.358736">
        <ele>1015.98</ele>
        <time>2016-02-12T16:58:39Z</time>
      </trkpt>
      <trkpt lat="41.764158" lon="2.358710">
        <ele>1015.28</ele>
        <time>2016-02-12T16:58:59Z</time>
      </trkpt>
      <trkpt lat="41.764122" lon="2.358664">
        <ele>1016.01</ele>
        <time>2016-02-12T16:59:19Z</time>
      </trkpt>
      <trkpt lat="41.764086" lon="2.358605">
        <ele>1016.04</ele>
        <time>2016-02-12T16:59:39Z</time>
      </trkpt>
      <trkpt lat="41.764043" lon="2.358541">
        <ele>1015.97</ele>
        <time>2016-02-12T16:59:59Z</time>
      </trkpt>
      <trkpt lat="41.763992" lon="2.358478">
        <ele>1014.79</ele>
        <time>2016-02-12T17:00:19Z</time>
      </trkpt>
      <trkpt lat="41.763936" lon="2.358412">
        <ele>1011.81</ele>
        <time>2016-02-12T17:00:39Z</time>
      </trkpt>
      <trkpt lat="41.763875" lon="2.358342">
        <ele>1009.91</ele>
        <time>2016-02-12T17:00:59Z</time>
      </trkpt>
      <trkpt lat="41.763813" lon="2.358270">
        <ele>1009.22</ele>
        <time>2016-02-12T17:01:19Z</time>
      </trkpt>
      <trkpt lat="41.763749" lon="2.358194">
        <ele>1008.26</ele>
        <time>2016-02-12T17:01:39Z</time>
      </trkpt>
      <trkpt lat="41.763684" lon="2.358121">
        <ele>1007.10</ele>
        <time>2016-02-12T17:01:59Z</time>
      </trkpt>
      <trkpt lat="41.763620" lon="2.358050">
        <ele>1006.94</ele>
        <time>2016-02-12T17:02:19Z</time>
      </trkpt>
      <trkpt lat="41.763551" lon="2.357981">
        <ele>1005.92</ele>
        <time>2016-02-12T17:02:39Z</time>
      </trkpt>
      <trkpt lat="41.763478" lon="2.357913">
        <ele>1004.98</ele>
        <time>2016-02-12T17:02:59Z</time>
      </trkpt>
      <trkpt lat="41.763401" lon="2.357847">
        <ele>1004.29</ele>
        <time>2016-02-12T17:03:19Z</time>
      </trkpt>
      <trkpt lat="41.763320" lon="2.357790">
        <ele>1003.98</ele>
        <time>2016-02-12T17:03:39Z</time>
      </trkpt>
      <trkpt lat="41.763238" lon="2.357740">
        <ele>1002.98</ele>
        <time>2016-02-12T17:03:59Z</time>
      </trkpt>
      <trkpt lat="41.763158" lon="2.357687">
        <ele>1001.71</ele>
        <time>2016-02-12T17:04:19Z</time>
      </trkpt>
      <trkpt lat="41.763079" lon="2.357628">
        <ele>999.02</ele>
        <time>2016-02-12T17:04:39Z</time>
      </trkpt>
      <trkpt lat="41.763002" lon="2.357554">
        <ele>999.01</ele>
        <time>2016-02-12T17:04:59Z</time>
      </trkpt>
      <trkpt lat="41.762928" lon="2.357478">
        <ele>998.97</ele>
        <time>2016-02-12T17:05:19Z</time>
      </trkpt>
      <trkpt lat="41.762852" lon="2.357404">
        <ele>998.08</ele>
        <time>2016-02-12T17:05:39Z</time>
      </trkpt>
      <trkpt lat="41.762777" lon="2.357333">
        <ele>998.05</ele>
        <time>2016-02-12T17:05:59Z</time>
      </trkpt>
      <trkpt lat="41.762698" lon="2.357264">
        <ele>997.91</ele>
        <time>2016-02-12T17:06:19Z</time>
      </trkpt>
      <trkpt lat="41.762624" lon="2.357193">
        <ele>997.07</ele>
        <time>2016-02-12T17:06:39Z</time>
      </trkpt>
      <trkpt lat="41.762553" lon="2.357127">
        <ele>997.02</ele>
        <time>2016-02-12T17:06:59Z</time>
      </trkpt>
      <trkpt lat="41.762485" lon="2.357069">
        <ele>995.93</ele>
        <time>2016-02-12T17:07:19Z</time>
      </trkpt>
      <trkpt lat="41.762425" lon="2.357010">
        <ele>995.16</ele>
        <time>2016-02-12T17:07:39Z</time>
      </trkpt>
      <trkpt lat="41.762372" lon="2.356935">
        <ele>995.99</ele>
        <time>2016-02-12T17:07:59Z</time>
      </trkpt>
      <trkpt lat="41.762325" lon="2.356847">
        <ele>994.98</ele>
        <time>2016-02-12T17:08:19Z</time>
      </trkpt>
      <trkpt lat="41.762278" lon="2.356754">
        <ele>993.92</ele>
        <time>2016-02-12T17:08:39Z</time>
      </trkpt>
      <trkpt lat="41.762231" lon="2.356659">
        <ele>993.21</ele>
        <time>2016-02-12T17:08:59Z</time>
      </trkpt>
      <trkpt lat="41.762186" lon="2.356567">
        <ele>993.08</ele>
        <time>2016-02-12T17:09:19Z</time>
      </trkpt>
      <trkpt lat="41.762140" lon="2.356481">
        <ele>993.02</ele>
        <time>2016-02-12T17:09:39Z</time>
      </trkpt>
      <trkpt lat="41.762097" lon="2.356398">
        <ele>993.02</ele>
        <time>2016-02-12T17:09:59Z</time>
      </trkpt>
      <trkpt lat="41.762051" lon="2.356320">
        <ele>992.96</ele>
        <time>2016-02-12T17:10:19Z</time>
      </trkpt>
      <trkpt lat="41.761999" lon="2.356254">
        <ele>992.01</ele>
        <time>2016-02-12T17:10:39Z</time>
      </trkpt>
      <trkpt lat="41.761940" lon="2.356203">
        <ele>992.02</ele>
        <time>2016-02-12T17:10:59Z</time>
      </trkpt>
      <trkpt lat="41.761875" lon="2.356167">
        <ele>992.04</ele>
        <time>2016-02-12T17:11:19Z</time>
      </trkpt>
      <trkpt lat="41.761813" lon="2.356159">
        <ele>992.02</ele>
        <time>2016-02-12T17:11:39Z</time>
      </trkpt>
      <trkpt lat="41.761750" lon="2.356196">
        <ele>991.81</ele>
        <time>2016-02-12T17:11:59Z</time>
      </trkpt>
      <trkpt lat="41.761700" lon="2.356276">
        <ele>990.02</ele>
        <time>2016-02-12T17:12:19Z</time>
      </trkpt>
      <trkpt lat="41.761655" lon="2.356368">
        <ele>990.00</ele>
        <time>2016-02-12T17:12:39Z</time>
      </trkpt>
      <trkpt lat="41.761603" lon="2.356455">
        <ele>990.01</ele>
        <time>2016-02-12T17:12:59Z</time>
      </trkpt>
      <trkpt lat="41.761538" lon="2.356529">
        <ele>990.05</ele>
        <time>2016-02-12T17:13:19Z</time>
      </trkpt>
      <trkpt lat="41.761463" lon="2.356578">
        <ele>989.47</ele>
        <time>2016-02-12T17:13:39Z</time>
      </trkpt>
      <trkpt lat="41.761382" lon="2.356616">
        <ele>983.01</ele>
        <time>2016-02-12T17:13:59Z</time>
      </trkpt>
      <trkpt lat="41.761304" lon="2.356652">
        <ele>983.04</ele>
        <time>2016-02-12T17:14:19Z</time>
      </trkpt>
      <trkpt lat="41.761233" lon="2.356692">
        <ele>983.07</ele>
        <time>2016-02-12T17:14:39Z</time>
      </trkpt>
      <trkpt lat="41.761163" lon="2.356749">
        <ele>983.05</ele>
        <time>2016-02-12T17:14:59Z</time>
      </trkpt>
      <trkpt lat="41.761092" lon="2.356817">
        <ele>983.06</ele>
        <time>2016-02-12T17:15:19Z</time>
      </trkpt>
      <trkpt lat="41.761023" lon="2.356886">
        <ele>978.93</ele>
        <time>2016-02-12T17:15:39Z</time>
      </trkpt>
      <trkpt lat="41.760954" lon="2.356960">
        <ele>977.92</ele>
        <time>2016-02-12T17:15:59Z</time>
      </trkpt>
      <trkpt lat="41.760886" lon="2.357038">
        <ele>977.08</ele>
        <time>2016-02-12T17:16:19Z</time>
      </trkpt>
      <trkpt lat="41.760815" lon="2.357118">
        <ele>976.91</ele>
        <time>2016-02-12T17:16:39Z</time>
      </trkpt>
      <trkpt lat="41.760737" lon="2.357186">
        <ele>975.91</ele>
        <time>2016-02-12T17:16:59Z</time>
      </trkpt>
      <trkpt lat="41.760655" lon="2.357233">
        <ele>975.29</ele>
        <time>2016-02-12T17:17:19Z</time>
      </trkpt>
      <trkpt lat="41.760569" lon="2.357259">
        <ele>974.88</ele>
        <time>2016-02-12T17:17:39Z</time>
      </trkpt>
      <trkpt lat="41.760496" lon="2.357257">
        <ele>973.06</ele>
        <time>2016-02-12T17:17:59Z</time>
      </trkpt>
      <trkpt lat="41.760427" lon="2.357230">
        <ele>972.97</ele>
        <time>2016-02-12T17:18:19Z</time>
      </trkpt>
      <trkpt lat="41.760361" lon="2.357184">
        <ele>972.09</ele>
        <time>2016-02-12T17:18:39Z</time>
      </trkpt>
      <trkpt lat="41.760301" lon="2.357124">
        <ele>972.13</ele>
        <time>2016-02-12T17:18:59Z</time>
      </trkpt>
      <trkpt lat="41.760245" lon="2.357055">
        <ele>972.81</ele>
        <time>2016-02-12T17:19:19Z</time>
      </trkpt>
      <trkpt lat="41.760187" lon="2.356979">
        <ele>973.04</ele>
        <time>2016-02-12T17:19:39Z</time>
      </trkpt>
      <trkpt lat="41.760125" lon="2.356903">
        <ele>972.98</ele>
        <time>2016-02-12T17:19:59Z</time>
      </trkpt>
      <trkpt lat="41.760060" lon="2.356828">
        <ele>971.96</ele>
        <time>2016-02-12T17:20:19Z</time>
      </trkpt>
      <trkpt lat="41.759990" lon="2.356753">
        <ele>971.12</ele>
        <time>2016-02-12T17:20:39Z</time>
      </trkpt>
      <trkpt lat="41.759917" lon="2.356676">
        <ele>969.91</ele>
        <time>2016-02-12T17:20:59Z</time>
      </trkpt>
      <trkpt lat="41.759842" lon="2.356598">
        <ele>968.33</ele>
        <time>2016-02-12T17:21:19Z</time>
      </trkpt>
      <trkpt lat="41.759767" lon="2.356518">
        <ele>966.91</ele>
        <time>2016-02-12T17:21:39Z</time>
      </trkpt>
      <trkpt lat="41.759694" lon="2.356433">
        <ele>965.97</ele>
        <time>2016-02-12T17:21:59Z</time>
      </trkpt>
      <trkpt lat="41.759627" lon="2.356344">
        <ele>965.03</ele>
        <time>2016-02-12T17:22:19Z</time>
      </trkpt>
      <trkpt lat="41.759565" lon="2.356258">
        <ele>965.07</ele>
        <time>2016-02-12T17:22:39Z</time>
      </trkpt>
      <trkpt lat="41.759515" lon="2.356177">
        <ele>965.09</ele>
        <time>2016-02-12T17:22:59Z</time>
      </trkpt>
      <trkpt lat="41.759485" lon="2.356101">
        <ele>964.93</ele>
        <time>2016-02-12T17:23:19Z</time>
      </trkpt>
      <trkpt lat="41.759483" lon="2.356021">
        <ele>964.03</ele>
        <time>2016-02-12T17:23:39Z</time>
      </trkpt>
      <trkpt lat="41.759499" lon="2.355940">
        <ele>964.08</ele>
        <time>2016-02-12T17:23:59Z</time>
      </trkpt>
      <trkpt lat="41.759524" lon="2.355862">
        <ele>963.96</ele>
        <time>2016-02-12T17:24:19Z</time>
      </trkpt>
      <trkpt lat="41.759544" lon="2.355786">
        <ele>963.03</ele>
        <time>2016-02-12T17:24:39Z</time>
      </trkpt>
      <trkpt lat="41.759544" lon="2.355715">
        <ele>962.91</ele>
        <time>2016-02-12T17:24:59Z</time>
      </trkpt>
      <trkpt lat="41.759519" lon="2.355666">
        <ele>962.09</ele>
        <time>2016-02-12T17:25:19Z</time>
      </trkpt>
      <trkpt lat="41.759479" lon="2.355655">
        <ele>962.09</ele>
        <time>2016-02-12T17:25:39Z</time>
      </trkpt>
      <trkpt lat="41.759442" lon="2.355683">
        <ele>962.03</ele>
        <time>2016-02-12T17:25:59Z</time>
      </trkpt>
      <trkpt lat="41.759419" lon="2.355740">
        <ele>962.09</ele>
        <time>2016-02-12T17:26:19Z</time>
      </trkpt>
      <trkpt lat="41.759402" lon="2.355806">
        <ele>962.03</ele>
        <time>2016-02-12T17:26:39Z</time>
      </trkpt>
      <trkpt lat="41.759382" lon="2.355877">
        <ele>962.03</ele>
        <time>2016-02-12T17:26:59Z</time>
      </trkpt>
      <trkpt lat="41.759367" lon="2.355954">
        <ele>961.04</ele>
        <time>2016-02-12T17:27:19Z</time>
      </trkpt>
      <trkpt lat="41.759369" lon="2.356037">
        <ele>961.07</ele>
        <time>2016-02-12T17:27:39Z</time>
      </trkpt>
      <trkpt lat="41.759388" lon="2.356123">
        <ele>961.04</ele>
        <time>2016-02-12T17:27:59Z</time>
      </trkpt>
      <trkpt lat="41.759416" lon="2.356208">
        <ele>961.06</ele>
        <time>2016-02-12T17:28:19Z</time>
      </trkpt>
      <trkpt lat="41.759450" lon="2.356296">
        <ele>961.01</ele>
        <time>2016-02-12T17:28:39Z</time>
      </trkpt>
      <trkpt lat="41.759490" lon="2.356386">
        <ele>955.81</ele>
        <time>2016-02-12T17:28:59Z</time>
      </trkpt>
      <trkpt lat="41.759529" lon="2.356479">
        <ele>953.96</ele>
        <time>2016-02-12T17:29:19Z</time>
      </trkpt>
      <trkpt lat="41.759573" lon="2.356576">
        <ele>953.04</ele>
        <time>2016-02-12T17:29:39Z</time>
      </trkpt>
      <trkpt lat="41.759621" lon="2.356675">
        <ele>952.98</ele>
        <time>2016-02-12T17:29:59Z</time>
      </trkpt>
      <trkpt lat="41.759673" lon="2.356771">
        <ele>952.00</ele>
        <time>2016-02-12T17:30:19Z</time>
      </trkpt>
      <trkpt lat="41.759724" lon="2.356870">
        <ele>950.34</ele>
        <time>2016-02-12T17:30:39Z</time>
      </trkpt>
      <trkpt lat="41.759771" lon="2.356970">
        <ele>948.92</ele>
        <time>2016-02-12T17:30:59Z</time>
      </trkpt>
      <trkpt lat="41.759816" lon="2.357071">
        <ele>947.95</ele>
        <time>2016-02-12T17:31:19Z</time>
      </trkpt>
      <trkpt lat="41.759858" lon="2.357173">
        <ele>947.02</ele>
        <time>2016-02-12T17:31:39Z</time>
      </trkpt>
      <trkpt lat="41.759898" lon="2.357272">
        <ele>947.00</ele>
        <time>2016-02-12T17:31:59Z</time>
      </trkpt>
      <trkpt lat="41.759936" lon="2.357372">
        <ele>946.03</ele>
        <time>2016-02-12T17:32:19Z</time>
      </trkpt>
      <trkpt lat="41.759973" lon="2.357474">
        <ele>946.02</ele>
        <time>2016-02-12T17:32:39Z</time>
      </trkpt>
      <trkpt lat="41.760009" lon="2.357582">
        <ele>943.81</ele>
        <time>2016-02-12T17:32:59Z</time>
      </trkpt>
      <trkpt lat="41.760045" lon="2.357692">
        <ele>941.42</ele>
        <time>2016-02-12T17:33:19Z</time>
      </trkpt>
      <trkpt lat="41.760081" lon="2.357802">
        <ele>939.91</ele>
        <time>2016-02-12T17:33:39Z</time>
      </trkpt>
      <trkpt lat="41.760120" lon="2.357911">
        <ele>938.96</ele>
        <time>2016-02-12T17:33:59Z</time>
      </trkpt>
      <trkpt lat="41.760158" lon="2.358015">
        <ele>937.94</ele>
        <time>2016-02-12T17:34:19Z</time>
      </trkpt>
      <trkpt lat="41.760194" lon="2.358111">
        <ele>937.23</ele>
        <time>2016-02-12T17:34:39Z</time>
      </trkpt>
      <trkpt lat="41.760227" lon="2.358201">
        <ele>937.08</ele>
        <time>2016-02-12T17:34:59Z</time>
      </trkpt>
      <trkpt lat="41.760261" lon="2.358282">
        <ele>937.04</ele>
        <time>2016-02-12T17:35:19Z</time>
      </trkpt>
      <trkpt lat="41.760296" lon="2.358363">
        <ele>937.07</ele>
        <time>2016-02-12T17:35:39Z</time>
      </trkpt>
      <trkpt lat="41.760339" lon="2.358434">
        <ele>936.95</ele>
        <time>2016-02-12T17:35:59Z</time>
      </trkpt>
      <trkpt lat="41.760388" lon="2.358492">
        <ele>936.00</ele>
        <time>2016-02-12T17:36:19Z</time>
      </trkpt>
      <trkpt lat="41.760446" lon="2.358527">
        <ele>935.91</ele>
        <time>2016-02-12T17:36:39Z</time>
      </trkpt>
      <trkpt lat="41.760508" lon="2.358538">
        <ele>935.21</ele>
        <time>2016-02-12T17:36:59Z</time>
      </trkpt>
      <trkpt lat="41.760572" lon="2.358534">
        <ele>933.86</ele>
        <time>2016-02-12T17:37:19Z</time>
      </trkpt>
      <trkpt lat="41.760634" lon="2.358520">
        <ele>931.99</ele>
        <time>2016-02-12T17:37:39Z</time>
      </trkpt>
      <trkpt lat="41.760696" lon="2.358499">
        <ele>931.04</ele>
        <time>2016-02-12T17:37:59Z</time>
      </trkpt>
      <trkpt lat="41.760764" lon="2.358467">
        <ele>931.10</ele>
        <time>2016-02-12T17:38:19Z</time>
      </trkpt>
      <trkpt lat="41.760833" lon="2.358420">
        <ele>930.72</ele>
        <time>2016-02-12T17:38:39Z</time>
      </trkpt>
      <trkpt lat="41.760902" lon="2.358369">
        <ele>928.08</ele>
        <time>2016-02-12T17:38:59Z</time>
      </trkpt>
      <trkpt lat="41.760971" lon="2.358322">
        <ele>928.03</ele>
        <time>2016-02-12T17:39:19Z</time>
      </trkpt>
      <trkpt lat="41.761043" lon="2.358285">
        <ele>927.28</ele>
        <time>2016-02-12T17:39:39Z</time>
      </trkpt>
      <trkpt lat="41.761116" lon="2.358252">
        <ele>926.06</ele>
        <time>2016-02-12T17:39:59Z</time>
      </trkpt>
      <trkpt lat="41.761186" lon="2.358221">
        <ele>926.05</ele>
        <time>2016-02-12T17:40:19Z</time>
      </trkpt>
      <trkpt lat="41.761252" lon="2.358191">
        <ele>925.92</ele>
        <time>2016-02-12T17:40:39Z</time>
      </trkpt>
      <trkpt lat="41.761319" lon="2.358161">
        <ele>924.81</ele>
        <time>2016-02-12T17:40:59Z</time>
      </trkpt>
      <trkpt lat="41.761386" lon="2.358130">
        <ele>922.96</ele>
        <time>2016-02-12T17:41:19Z</time>
      </trkpt>
      <trkpt lat="41.761455" lon="2.358108">
        <ele>922.22</ele>
        <time>2016-02-12T17:41:39Z</time>
      </trkpt>
      <trkpt lat="41.761520" lon="2.358093">
        <ele>921.87</ele>
        <time>2016-02-12T17:41:59Z</time>
      </trkpt>
      <trkpt lat="41.761586" lon="2.358087">
        <ele>919.93</ele>
        <time>2016-02-12T17:42:19Z</time>
      </trkpt>
      <trkpt lat="41.761650" lon="2.358110">
        <ele>919.01</ele>
        <time>2016-02-12T17:42:39Z</time>
      </trkpt>
      <trkpt lat="41.761707" lon="2.358163">
        <ele>919.08</ele>
        <time>2016-02-12T17:42:59Z</time>
      </trkpt>
      <trkpt lat="41.761757" lon="2.358237">
        <ele>918.87</ele>
        <time>2016-02-12T17:43:19Z</time>
      </trkpt>
      <trkpt lat="41.761804" lon="2.358326">
        <ele>916.95</ele>
        <time>2016-02-12T17:43:39Z</time>
      </trkpt>
      <trkpt lat="41.761845" lon="2.358423">
        <ele>916.27</ele>
        <time>2016-02-12T17:43:59Z</time>
      </trkpt>
      <trkpt lat="41.761874" lon="2.358529">
        <ele>914.99</ele>
        <time>2016-02-12T17:44:19Z</time>
      </trkpt>
      <trkpt lat="41.761896" lon="2.358640">
        <ele>913.91</ele>
        <time>2016-02-12T17:44:39Z</time>
      </trkpt>
      <trkpt lat="41.761913" lon="2.358753">
        <ele>912.91</ele>
        <time>2016-02-12T17:44:59Z</time>
      </trkpt>
      <trkpt lat="41.761935" lon="2.358864">
        <ele>911.86</ele>
        <time>2016-02-12T17:45:19Z</time>
      </trkpt>
      <trkpt lat="41.761966" lon="2.358977">
        <ele>910.02</ele>
        <time>2016-02-12T17:45:39Z</time>
      </trkpt>
      <trkpt lat="41.762006" lon="2.359093">
        <ele>910.09</ele>
        <time>2016-02-12T17:45:59Z</time>
      </trkpt>
      <trkpt lat="41.762053" lon="2.359204">
        <ele>909.06</ele>
        <time>2016-02-12T17:46:19Z</time>
      </trkpt>
      <trkpt lat="41.762102" lon="2.359308">
        <ele>908.88</ele>
        <time>2016-02-12T17:46:39Z</time>
      </trkpt>
      <trkpt lat="41.762144" lon="2.359404">
        <ele>906.96</ele>
        <time>2016-02-12T17:46:59Z</time>
      </trkpt>
      <trkpt lat="41.762182" lon="2.359497">
        <ele>905.94</ele>
        <time>2016-02-12T17:47:19Z</time>
      </trkpt>
      <trkpt lat="41.762219" lon="2.359593">
        <ele>904.31</ele>
        <time>2016-02-12T17:47:39Z</time>
      </trkpt>
      <trkpt lat="41.762252" lon="2.359694">
        <ele>902.97</ele>
        <time>2016-02-12T17:47:59Z</time>
      </trkpt>
      <trkpt lat="41.762271" lon="2.359801">
        <ele>901.99</ele>
        <time>2016-02-12T17:48:19Z</time>
      </trkpt>
      <trkpt lat="41.762278" lon="2.359913">
        <ele>901.01</ele>
        <time>2016-02-12T17:48:39Z</time>
      </trkpt>
      <trkpt lat="41.762289" lon="2.360022">
        <ele>901.01</ele>
        <time>2016-02-12T17:48:59Z</time>
      </trkpt>
      <trkpt lat="41.762308" lon="2.360130">
        <ele>900.92</ele>
        <time>2016-02-12T17:49:19Z</time>
      </trkpt>
      <trkpt lat="41.762333" lon="2.360235">
        <ele>900.00</ele>
        <time>2016-02-12T17:49:39Z</time>
      </trkpt>
      <trkpt lat="41.762365" lon="2.360338">
        <ele>899.22</ele>
        <time>2016-02-12T17:49:59Z</time>
      </trkpt>
      <trkpt lat="41.762401" lon="2.360444">
        <ele>897.88</ele>
        <time>2016-02-12T17:50:19Z</time>
      </trkpt>
      <trkpt lat="41.762438" lon="2.360551">
        <ele>895.92</ele>
        <time>2016-02-12T17:50:39Z</time>
      </trkpt>
      <trkpt lat="41.762472" lon="2.360657">
        <ele>895.09</ele>
        <time>2016-02-12T17:50:59Z</time>
      </trkpt>
      <trkpt lat="41.762506" lon="2.360758">
        <ele>894.98</ele>
        <time>2016-02-12T17:51:19Z</time>
      </trkpt>
      <trkpt lat="41.762546" lon="2.360847">
        <ele>894.05</ele>
        <time>2016-02-12T17:51:39Z</time>
      </trkpt>
      <trkpt lat="41.762588" lon="2.360929">
        <ele>894.09</ele>
        <time>2016-02-12T17:51:59Z</time>
      </trkpt>
      <trkpt lat="41.762637" lon="2.360996">
        <ele>893.28</ele>
        <time>2016-02-12T17:52:19Z</time>
      </trkpt>
      <trkpt lat="41.762694" lon="2.361044">
        <ele>893.02</ele>
        <time>2016-02-12T17:52:39Z</time>
      </trkpt>
      <trkpt lat="41.762745" lon="2.361079">
        <ele>892.91</ele>
        <time>2016-02-12T17:52:59Z</time>
      </trkpt>
      <trkpt lat="41.762782" lon="2.361113">
        <ele>892.08</ele>
        <time>2016-02-12T17:53:19Z</time>
      </trkpt>
      <trkpt lat="41.762801" lon="2.361153">
        <ele>891.98</ele>
        <time>2016-02-12T17:53:39Z</time>
      </trkpt>
      <trkpt lat="41.762801" lon="2.361198">
        <ele>891.08</ele>
        <time>2016-02-12T17:53:59Z</time>
      </trkpt>
      <trkpt lat="41.762779" lon="2.361230">
        <ele>891.01</ele>
        <time>2016-02-12T17:54:19Z</time>
      </trkpt>
      <trkpt lat="41.762745" lon="2.361235">
        <ele>891.09</ele>
        <time>2016-02-12T17:54:39Z</time>
      </trkpt>
      <trkpt lat="41.762708" lon="2.361216">
        <ele>890.93</ele>
        <time>2016-02-12T17:54:59Z</time>
      </trkpt>
      <trkpt lat="41.762667" lon="2.361185">
        <ele>889.31</ele>
        <time>2016-02-12T17:55:19Z</time>
      </trkpt>
      <trkpt lat="41.762620" lon="2.361150">
        <ele>887.88</ele>
        <time>2016-02-12T17:55:39Z</time>
      </trkpt>
      <trkpt lat="41.762570" lon="2.361109">
        <ele>885.98</ele>
        <time>2016-02-12T17:55:59Z</time>
      </trkpt>
      <trkpt lat="41.762516" lon="2.361061">
        <ele>885.09</ele>
        <time>2016-02-12T17:56:19Z</time>
      </trkpt>
      <trkpt lat="41.762459" lon="2.361002">
        <ele>884.82</ele>
        <time>2016-02-12T17:56:39Z</time>
      </trkpt>
      <trkpt lat="41.762398" lon="2.360937">
        <ele>882.81</ele>
        <time>2016-02-12T17:56:59Z</time>
      </trkpt>
      <trkpt lat="41.762332" lon="2.360866">
        <ele>881.08</ele>
        <time>2016-02-12T17:57:19Z</time>
      </trkpt>
      <trkpt lat="41.762264" lon="2.360791">
        <ele>881.08</ele>
        <time>2016-02-12T17:57:39Z</time>
      </trkpt>
      <trkpt lat="41.762194" lon="2.360714">
        <ele>878.90</ele>
        <time>2016-02-12T17:57:59Z</time>
      </trkpt>
      <trkpt lat="41.762126" lon="2.360633">
        <ele>877.08</ele>
        <time>2016-02-12T17:58:19Z</time>
      </trkpt>
      <trkpt lat="41.762058" lon="2.360549">
        <ele>877.03</ele>
        <time>2016-02-12T17:58:39Z</time>
      </trkpt>
      <trkpt lat="41.761990" lon="2.360465">
        <ele>876.04</ele>
        <time>2016-02-12T17:58:59Z</time>
      </trkpt>
      <trkpt lat="41.761926" lon="2.360384">
        <ele>875.96</ele>
        <time>2016-02-12T17:59:19Z</time>
      </trkpt>
      <trkpt lat="41.761868" lon="2.360300">
        <ele>875.27</ele>
        <time>2016-02-12T17:59:39Z</time>
      </trkpt>
      <trkpt lat="41.761821" lon="2.360209">
        <ele>875.87</ele>
        <time>2016-02-12T17:59:59Z</time>
      </trkpt>
      <trkpt lat="41.761774" lon="2.360112">
        <ele>874.09</ele>
        <time>2016-02-12T18:00:19Z</time>
      </trkpt>
      <trkpt lat="41.761715" lon="2.360018">
        <ele>873.91</ele>
        <time>2016-02-12T18:00:39Z</time>
      </trkpt>
      <trkpt lat="41.761648" lon="2.359936">
        <ele>872.91</ele>
        <time>2016-02-12T18:00:59Z</time>
      </trkpt>
      <trkpt lat="41.761576" lon="2.359865">
        <ele>871.39</ele>
        <time>2016-02-12T18:01:19Z</time>
      </trkpt>
      <trkpt lat="41.761505" lon="2.359814">
        <ele>870.05</ele>
        <time>2016-02-12T18:01:39Z</time>
      </trkpt>
      <trkpt lat="41.761442" lon="2.359775">
        <ele>869.97</ele>
        <time>2016-02-12T18:01:59Z</time>
      </trkpt>
      <trkpt lat="41.761388" lon="2.359748">
        <ele>869.06</ele>
        <time>2016-02-12T18:02:19Z</time>
      </trkpt>
      <trkpt lat="41.761332" lon="2.359732">
        <ele>869.06</ele>
        <time>2016-02-12T18:02:39Z</time>
      </trkpt>
      <trkpt lat="41.761282" lon="2.359733">
        <ele>869.00</ele>
        <time>2016-02-12T18:02:59Z</time>
      </trkpt>
      <trkpt lat="41.761242" lon="2.359758">
        <ele>867.84</ele>
        <time>2016-02-12T18:03:19Z</time>
      </trkpt>
      <trkpt lat="41.761218" lon="2.359810">
        <ele>865.92</ele>
        <time>2016-02-12T18:03:39Z</time>
      </trkpt>
      <trkpt lat="41.761219" lon="2.359885">
        <ele>865.07</ele>
        <time>2016-02-12T18:03:59Z</time>
      </trkpt>
      <trkpt lat="41.761242" lon="2.359966">
        <ele>865.00</ele>
        <time>2016-02-12T18:04:19Z</time>
      </trkpt>
      <trkpt lat="41.761272" lon="2.360048">
        <ele>863.92</ele>
        <time>2016-02-12T18:04:39Z</time>
      </trkpt>
      <trkpt lat="41.761291" lon="2.360137">
        <ele>863.11</ele>
        <time>2016-02-12T18:04:59Z</time>
      </trkpt>
      <trkpt lat="41.761293" lon="2.360231">
        <ele>862.73</ele>
        <time>2016-02-12T18:05:19Z</time>
      </trkpt>
      <trkpt lat="41.761276" lon="2.360327">
        <ele>860.00</ele>
        <time>2016-02-12T18:05:39Z</time>
      </trkpt>
      <trkpt lat="41.761245" lon="2.360431">
        <ele>859.03</ele>
        <time>2016-02-12T18:05:59Z</time>
      </trkpt>
      <trkpt lat="41.761201" lon="2.360532">
        <ele>859.02</ele>
        <time>2016-02-12T18:06:19Z</time>
      </trkpt>
      <trkpt lat="41.761145" lon="2.360642">
        <ele>857.81</ele>
        <time>2016-02-12T18:06:39Z</time>
      </trkpt>
      <trkpt lat="41.761087" lon="2.360744">
        <ele>855.95</ele>
        <time>2016-02-12T18:06:59Z</time>
      </trkpt>
      <trkpt lat="41.761032" lon="2.360850">
        <ele>854.93</ele>
        <time>2016-02-12T18:07:19Z</time>
      </trkpt>
      <trkpt lat="41.760987" lon="2.360960">
        <ele>853.89</ele>
        <time>2016-02-12T18:07:39Z</time>
      </trkpt>
      <trkpt lat="41.760952" lon="2.361077">
        <ele>852.00</ele>
        <time>2016-02-12T18:07:59Z</time>
      </trkpt>
      <trkpt lat="41.760923" lon="2.361202">
        <ele>851.21</ele>
        <time>2016-02-12T18:08:19Z</time>
      </trkpt>
      <trkpt lat="41.760902" lon="2.361333">
        <ele>850.93</ele>
        <time>2016-02-12T18:08:39Z</time>
      </trkpt>
      <trkpt lat="41.760888" lon="2.361460">
        <ele>849.91</ele>
        <time>2016-02-12T18:08:59Z</time>
      </trkpt>
      <trkpt lat="41.760880" lon="2.361579">
        <ele>849.02</ele>
        <time>2016-02-12T18:09:19Z</time>
      </trkpt>
      <trkpt lat="41.760875" lon="2.361688">
        <ele>849.05</ele>
        <time>2016-02-12T18:09:39Z</time>
      </trkpt>
      <trkpt lat="41.760872" lon="2.361788">
        <ele>849.08</ele>
        <time>2016-02-12T18:09:59Z</time>
      </trkpt>
      <trkpt lat="41.760869" lon="2.361888">
        <ele>847.99</ele>
        <time>2016-02-12T18:10:19Z</time>
      </trkpt>
      <trkpt lat="41.760868" lon="2.361988">
        <ele>847.07</ele>
        <time>2016-02-12T18:10:39Z</time>
      </trkpt>
      <trkpt lat="41.760866" lon="2.362083">
        <ele>846.97</ele>
        <time>2016-02-12T18:10:59Z</time>
      </trkpt>
      <trkpt lat="41.760862" lon="2.362172">
        <ele>846.21</ele>
        <time>2016-02-12T18:11:19Z</time>
      </trkpt>
      <trkpt lat="41.760859" lon="2.362252">
        <ele>845.94</ele>
        <time>2016-02-12T18:11:39Z</time>
      </trkpt>
      <trkpt lat="41.760854" lon="2.362316">
        <ele>845.09</ele>
        <time>2016-02-12T18:11:59Z</time>
      </trkpt>
      <trkpt lat="41.760849" lon="2.362373">
        <ele>845.07</ele>
        <time>2016-02-12T18:12:19Z</time>
      </trkpt>
      <trkpt lat="41.760844" lon="2.362428">
        <ele>845.02</ele>
        <time>2016-02-12T18:12:39Z</time>
      </trkpt>
      <trkpt lat="41.760838" lon="2.362485">
        <ele>844.91</ele>
        <time>2016-02-12T18:12:59Z</time>
      </trkpt>
      <trkpt lat="41.760833" lon="2.362546">
        <ele>844.26</ele>
        <time>2016-02-12T18:13:19Z</time>
      </trkpt>
      <trkpt lat="41.760830" lon="2.362609">
        <ele>844.04</ele>
        <time>2016-02-12T18:13:39Z</time>
      </trkpt>
      <trkpt lat="41.760826" lon="2.362673">
        <ele>844.08</ele>
        <time>2016-02-12T18:13:59Z</time>
      </trkpt>
      <trkpt lat="41.760820" lon="2.362734">
        <ele>843.98</ele>
        <time>2016-02-12T18:14:19Z</time>
      </trkpt>
      <trkpt lat="41.760815" lon="2.362795">
        <ele>843.02</ele>
        <time>2016-02-12T18:14:39Z</time>
      </trkpt>
      <trkpt lat="41.760811" lon="2.362859">
        <ele>843.03</ele>
        <time>2016-02-12T18:14:59Z</time>
      </trkpt>
      <trkpt lat="41.760810" lon="2.362926">
        <ele>842.99</ele>
        <time>2016-02-12T18:15:19Z</time>
      </trkpt>
      <trkpt lat="41.760809" lon="2.362999">
        <ele>842.02</ele>
        <time>2016-02-12T18:15:39Z</time>
      </trkpt>
      <trkpt lat="41.760815" lon="2.363077">
        <ele>842.09</ele>
        <time>2016-02-12T18:15:59Z</time>
      </trkpt>
      <trkpt lat="41.760834" lon="2.363155">
        <ele>842.09</ele>
        <time>2016-02-12T18:16:19Z</time>
      </trkpt>
      <trkpt lat="41.760865" lon="2.363229">
        <ele>842.02</ele>
        <time>2016-02-12T18:16:39Z</time>
      </trkpt>
      <trkpt lat="41.760907" lon="2.363297">
        <ele>841.71</ele>
        <time>2016-02-12T18:16:59Z</time>
      </trkpt>
      <trkpt lat="41.760957" lon="2.363359">
        <ele>839.07</ele>
        <time>2016-02-12T18:17:19Z</time>
      </trkpt>
      <trkpt lat="41.761010" lon="2.363413">
        <ele>839.09</ele>
        <time>2016-02-12T18:17:39Z</time>
      </trkpt>
      <trkpt lat="41.761065" lon="2.363463">
        <ele>839.09</ele>
        <time>2016-02-12T18:17:59Z</time>
      </trkpt>
      <trkpt lat="41.761121" lon="2.363507">
        <ele>839.02</ele>
        <time>2016-02-12T18:18:19Z</time>
      </trkpt>
      <trkpt lat="41.761177" lon="2.363553">
        <ele>838.77</ele>
        <time>2016-02-12T18:18:39Z</time>
      </trkpt>
      <trkpt lat="41.761230" lon="2.363606">
        <ele>835.77</ele>
        <time>2016-02-12T18:18:59Z</time>
      </trkpt>
      <trkpt lat="41.761284" lon="2.363664">
        <ele>834.96</ele>
        <time>2016-02-12T18:19:19Z</time>
      </trkpt>
      <trkpt lat="41.761342" lon="2.363720">
        <ele>834.04</ele>
        <time>2016-02-12T18:19:39Z</time>
      </trkpt>
      <trkpt lat="41.761403" lon="2.363767">
        <ele>833.92</ele>
        <time>2016-02-12T18:19:59Z</time>
      </trkpt>
      <trkpt lat="41.761466" lon="2.363811">
        <ele>833.03</ele>
        <time>2016-02-12T18:20:19Z</time>
      </trkpt>
      <trkpt lat="41.761528" lon="2.363861">
        <ele>832.91</ele>
        <time>2016-02-12T18:20:39Z</time>
      </trkpt>
      <trkpt lat="41.761581" lon="2.363925">
        <ele>831.91</ele>
        <time>2016-02-12T18:20:59Z</time>
      </trkpt>
      <trkpt lat="41.761625" lon="2.364000">
        <ele>831.21</ele>
        <time>2016-02-12T18:21:19Z</time>
      </trkpt>
      <trkpt lat="41.761661" lon="2.364079">
        <ele>830.96</ele>
        <time>2016-02-12T18:21:39Z</time>
      </trkpt>
      <trkpt lat="41.761685" lon="2.364161">
        <ele>829.98</ele>
        <time>2016-02-12T18:21:59Z</time>
      </trkpt>
      <trkpt lat="41.761696" lon="2.364247">
        <ele>829.07</ele>
        <time>2016-02-12T18:22:19Z</time>
      </trkpt>
      <trkpt lat="41.761694" lon="2.364336">
        <ele>829.06</ele>
        <time>2016-02-12T18:22:39Z</time>
      </trkpt>
      <trkpt lat="41.761679" lon="2.364422">
        <ele>829.04</ele>
        <time>2016-02-12T18:22:59Z</time>
      </trkpt>
      <trkpt lat="41.761647" lon="2.364493">
        <ele>828.92</ele>
        <time>2016-02-12T18:23:19Z</time>
      </trkpt>
      <trkpt lat="41.761593" lon="2.364545">
        <ele>828.27</ele>
        <time>2016-02-12T18:23:39Z</time>
      </trkpt>
      <trkpt lat="41.761526" lon="2.364575">
        <ele>827.25</ele>
        <time>2016-02-12T18:23:59Z</time>
      </trkpt>
      <trkpt lat="41.761456" lon="2.364595">
        <ele>825.90</ele>
        <time>2016-02-12T18:24:19Z</time>
      </trkpt>
      <trkpt lat="41.761382" lon="2.364607">
        <ele>825.02</ele>
        <time>2016-02-12T18:24:39Z</time>
      </trkpt>
      <trkpt lat="41.761306" lon="2.364603">
        <ele>824.81</ele>
        <time>2016-02-12T18:24:59Z</time>
      </trkpt>
      <trkpt lat="41.761229" lon="2.364580">
        <ele>823.00</ele>
        <time>2016-02-12T18:25:19Z</time>
      </trkpt>
      <trkpt lat="41.761154" lon="2.364539">
        <ele>821.98</ele>
        <time>2016-02-12T18:25:39Z</time>
      </trkpt>
      <trkpt lat="41.761072" lon="2.364498">
        <ele>821.26</ele>
        <time>2016-02-12T18:25:59Z</time>
      </trkpt>
      <trkpt lat="41.760986" lon="2.364472">
        <ele>820.09</ele>
        <time>2016-02-12T18:26:19Z</time>
      </trkpt>
      <trkpt lat="41.760898" lon="2.364462">
        <ele>820.09</ele>
        <time>2016-02-12T18:26:39Z</time>
      </trkpt>
      <trkpt lat="41.760811" lon="2.364452">
        <ele>820.03</ele>
        <time>2016-02-12T18:26:59Z</time>
      </trkpt>
      <trkpt lat="41.760733" lon="2.364429">
        <ele>819.94</ele>
        <time>2016-02-12T18:27:19Z</time>
      </trkpt>
      <trkpt lat="41.760663" lon="2.364389">
        <ele>819.02</ele>
        <time>2016-02-12T18:27:39Z</time>
      </trkpt>
      <trkpt lat="41.760604" lon="2.364332">
        <ele>819.01</ele>
        <time>2016-02-12T18:27:59Z</time>
      </trkpt>
      <trkpt lat="41.760552" lon="2.364264">
        <ele>818.03</ele>
        <time>2016-02-12T18:28:19Z</time>
      </trkpt>
      <trkpt lat="41.760506" lon="2.364194">
        <ele>818.01</ele>
        <time>2016-02-12T18:28:39Z</time>
      </trkpt>
      <trkpt lat="41.760461" lon="2.364124">
        <ele>818.01</ele>
        <time>2016-02-12T18:28:59Z</time>
      </trkpt>
      <trkpt lat="41.760423" lon="2.364049">
        <ele>818.03</ele>
        <time>2016-02-12T18:29:19Z</time>
      </trkpt>
      <trkpt lat="41.760396" lon="2.363968">
        <ele>818.05</ele>
        <time>2016-02-12T18:29:39Z</time>
      </trkpt>
      <trkpt lat="41.760374" lon="2.363878">
        <ele>818.08</ele>
        <time>2016-02-12T18:29:59Z</time>
      </trkpt>
      <trkpt lat="41.760353" lon="2.363785">
        <ele>818.05</ele>
        <time>2016-02-12T18:30:19Z</time>
      </trkpt>
      <trkpt lat="41.760321" lon="2.363689">
        <ele>816.09</ele>
        <time>2016-02-12T18:30:39Z</time>
      </trkpt>
      <trkpt lat="41.760276" lon="2.363605">
        <ele>816.07</ele>
        <time>2016-02-12T18:30:59Z</time>
      </trkpt>
      <trkpt lat="41.760223" lon="2.363531">
        <ele>816.04</ele>
        <time>2016-02-12T18:31:19Z</time>
      </trkpt>
      <trkpt lat="41.760171" lon="2.363456">
        <ele>816.09</ele>
        <time>2016-02-12T18:31:39Z</time>
      </trkpt>
      <trkpt lat="41.760131" lon="2.363373">
        <ele>815.83</ele>
        <time>2016-02-12T18:31:59Z</time>
      </trkpt>
      <trkpt lat="41.760105" lon="2.363277">
        <ele>813.59</ele>
        <time>2016-02-12T18:32:19Z</time>
      </trkpt>
      <trkpt lat="41.760096" lon="2.363171">
        <ele>813.01</ele>
        <time>2016-02-12T18:32:39Z</time>
      </trkpt>
      <trkpt lat="41.760103" lon="2.363060">
        <ele>813.01</ele>
        <time>2016-02-12T18:32:59Z</time>
      </trkpt>
      <trkpt lat="41.760117" lon="2.362945">
        <ele>813.04</ele>
        <time>2016-02-12T18:33:19Z</time>
      </trkpt>
      <trkpt lat="41.760128" lon="2.362831">
        <ele>812.85</ele>
        <time>2016-02-12T18:33:39Z</time>
      </trkpt>
      <trkpt lat="41.760137" lon="2.362724">
        <ele>811.10</ele>
        <time>2016-02-12T18:33:59Z</time>
      </trkpt>
      <trkpt lat="41.760135" lon="2.362632">
        <ele>811.03</ele>
        <time>2016-02-12T18:34:19Z</time>
      </trkpt>
      <trkpt lat="41.760115" lon="2.362562">
        <ele>811.04</ele>
        <time>2016-02-12T18:34:39Z</time>
      </trkpt>
      <trkpt lat="41.760077" lon="2.362523">
        <ele>811.01</ele>
        <time>2016-02-12T18:34:59Z</time>
      </trkpt>
      <trkpt lat="41.760034" lon="2.362534">
        <ele>810.67</ele>
        <time>2016-02-12T18:35:19Z</time>
      </trkpt>
      <trkpt lat="41.760010" lon="2.362586">
        <ele>806.99</ele>
        <time>2016-02-12T18:35:39Z</time>
      </trkpt>
      <trkpt lat="41.760007" lon="2.362657">
        <ele>805.93</ele>
        <time>2016-02-12T18:35:59Z</time>
      </trkpt>
      <trkpt lat="41.760011" lon="2.362737">
        <ele>804.97</ele>
        <time>2016-02-12T18:36:19Z</time>
      </trkpt>
      <trkpt lat="41.760011" lon="2.362822">
        <ele>804.21</ele>
        <time>2016-02-12T18:36:39Z</time>
      </trkpt>
      <trkpt lat="41.760005" lon="2.362910">
        <ele>803.91</ele>
        <time>2016-02-12T18:36:59Z</time>
      </trkpt>
      <trkpt lat="41.759994" lon="2.362999">
        <ele>802.93</ele>
        <time>2016-02-12T18:37:19Z</time>
      </trkpt>
      <trkpt lat="41.759975" lon="2.363087">
        <ele>802.24</ele>
        <time>2016-02-12T18:37:39Z</time>
      </trkpt>
      <trkpt lat="41.759953" lon="2.363174">
        <ele>802.04</ele>
        <time>2016-02-12T18:37:59Z</time>
      </trkpt>
      <trkpt lat="41.759935" lon="2.363264">
        <ele>802.10</ele>
        <time>2016-02-12T18:38:19Z</time>
      </trkpt>
      <trkpt lat="41.759922" lon="2.363360">
        <ele>801.98</ele>
        <time>2016-02-12T18:38:39Z</time>
      </trkpt>
      <trkpt lat="41.759918" lon="2.363452">
        <ele>801.09</ele>
        <time>2016-02-12T18:38:59Z</time>
      </trkpt>
      <trkpt lat="41.759926" lon="2.363550">
        <ele>800.95</ele>
        <time>2016-02-12T18:39:19Z</time>
      </trkpt>
      <trkpt lat="41.759946" lon="2.363651">
        <ele>800.00</ele>
        <time>2016-02-12T18:39:39Z</time>
      </trkpt>
      <trkpt lat="41.759972" lon="2.363750">
        <ele>799.23</ele>
        <time>2016-02-12T18:39:59Z</time>
      </trkpt>
      <trkpt lat="41.759994" lon="2.363850">
        <ele>798.86</ele>
        <time>2016-02-12T18:40:19Z</time>
      </trkpt>
      <trkpt lat="41.760006" lon="2.363953">
        <ele>796.91</ele>
        <time>2016-02-12T18:40:39Z</time>
      </trkpt>
      <trkpt lat="41.760010" lon="2.364060">
        <ele>796.01</ele>
        <time>2016-02-12T18:40:59Z</time>
      </trkpt>
      <trkpt lat="41.760014" lon="2.364170">
        <ele>796.02</ele>
        <time>2016-02-12T18:41:19Z</time>
      </trkpt>
      <trkpt lat="41.760024" lon="2.364281">
        <ele>795.96</ele>
        <time>2016-02-12T18:41:39Z</time>
      </trkpt>
      <trkpt lat="41.760042" lon="2.364392">
        <ele>795.22</ele>
        <time>2016-02-12T18:41:59Z</time>
      </trkpt>
      <trkpt lat="41.760080" lon="2.364493">
        <ele>794.83</ele>
        <time>2016-02-12T18:42:19Z</time>
      </trkpt>
      <trkpt lat="41.760132" lon="2.364589">
        <ele>793.06</ele>
        <time>2016-02-12T18:42:39Z</time>
      </trkpt>
      <trkpt lat="41.760194" lon="2.364677">
        <ele>793.09</ele>
        <time>2016-02-12T18:42:59Z</time>
      </trkpt>
      <trkpt lat="41.760262" lon="2.364759">
        <ele>792.99</ele>
        <time>2016-02-12T18:43:19Z</time>
      </trkpt>
      <trkpt lat="41.760328" lon="2.364852">
        <ele>792.30</ele>
        <time>2016-02-12T18:43:39Z</time>
      </trkpt>
      <trkpt lat="41.760387" lon="2.364950">
        <ele>790.93</ele>
        <time>2016-02-12T18:43:59Z</time>
      </trkpt>
      <trkpt lat="41.760438" lon="2.365054">
        <ele>789.99</ele>
        <time>2016-02-12T18:44:19Z</time>
      </trkpt>
      <trkpt lat="41.760488" lon="2.365155">
        <ele>788.91</ele>
        <time>2016-02-12T18:44:39Z</time>
      </trkpt>
      <trkpt lat="41.760555" lon="2.365235">
        <ele>787.91</ele>
        <time>2016-02-12T18:44:59Z</time>
      </trkpt>
      <trkpt lat="41.760638" lon="2.365287">
        <ele>786.91</ele>
        <time>2016-02-12T18:45:19Z</time>
      </trkpt>
      <trkpt lat="41.760724" lon="2.365344">
        <ele>786.28</ele>
        <time>2016-02-12T18:45:39Z</time>
      </trkpt>
      <trkpt lat="41.760800" lon="2.365417">
        <ele>785.00</ele>
        <time>2016-02-12T18:45:59Z</time>
      </trkpt>
      <trkpt lat="41.760867" lon="2.365506">
        <ele>783.96</ele>
        <time>2016-02-12T18:46:19Z</time>
      </trkpt>
      <trkpt lat="41.760932" lon="2.365594">
        <ele>782.98</ele>
        <time>2016-02-12T18:46:39Z</time>
      </trkpt>
      <trkpt lat="41.761006" lon="2.365678">
        <ele>782.05</ele>
        <time>2016-02-12T18:46:59Z</time>
      </trkpt>
      <trkpt lat="41.761088" lon="2.365745">
        <ele>782.05</ele>
        <time>2016-02-12T18:47:19Z</time>
      </trkpt>
      <trkpt lat="41.761178" lon="2.365797">
        <ele>780.00</ele>
        <time>2016-02-12T18:47:39Z</time>
      </trkpt>
      <trkpt lat="41.761274" lon="2.365840">
        <ele>778.99</ele>
        <time>2016-02-12T18:47:59Z</time>
      </trkpt>
      <trkpt lat="41.761370" lon="2.365876">
        <ele>778.09</ele>
        <time>2016-02-12T18:48:19Z</time>
      </trkpt>
      <trkpt lat="41.761466" lon="2.365919">
        <ele>777.92</ele>
        <time>2016-02-12T18:48:39Z</time>
      </trkpt>
      <trkpt lat="41.761558" lon="2.365972">
        <ele>777.21</ele>
        <time>2016-02-12T18:48:59Z</time>
      </trkpt>
      <trkpt lat="41.761647" lon="2.366030">
        <ele>777.10</ele>
        <time>2016-02-12T18:49:19Z</time>
      </trkpt>
      <trkpt lat="41.761738" lon="2.366071">
        <ele>776.99</ele>
        <time>2016-02-12T18:49:39Z</time>
      </trkpt>
      <trkpt lat="41.761830" lon="2.366098">
        <ele>776.07</ele>
        <time>2016-02-12T18:49:59Z</time>
      </trkpt>
      <trkpt lat="41.761926" lon="2.366106">
        <ele>775.96</ele>
        <time>2016-02-12T18:50:19Z</time>
      </trkpt>
      <trkpt lat="41.762022" lon="2.366095">
        <ele>775.22</ele>
        <time>2016-02-12T18:50:39Z</time>
      </trkpt>
      <trkpt lat="41.762120" lon="2.366077">
        <ele>774.04</ele>
        <time>2016-02-12T18:50:59Z</time>
      </trkpt>
      <trkpt lat="41.762210" lon="2.366066">
        <ele>774.03</ele>
        <time>2016-02-12T18:51:19Z</time>
      </trkpt>
      <trkpt lat="41.762288" lon="2.366038">
        <ele>774.19</ele>
        <time>2016-02-12T18:51:39Z</time>
      </trkpt>
      <trkpt lat="41.762350" lon="2.365988">
        <ele>775.00</ele>
        <time>2016-02-12T18:51:59Z</time>
      </trkpt>
      <trkpt lat="41.762380" lon="2.365912">
        <ele>774.02</ele>
        <time>2016-02-12T18:52:19Z</time>
      </trkpt>
      <trkpt lat="41.762382" lon="2.365822">
        <ele>774.02</ele>
        <time>2016-02-12T18:52:39Z</time>
      </trkpt>
      <trkpt lat="41.762364" lon="2.365731">
        <ele>774.01</ele>
        <time>2016-02-12T18:52:59Z</time>
      </trkpt>
      <trkpt lat="41.762338" lon="2.365639">
        <ele>774.04</ele>
        <time>2016-02-12T18:53:19Z</time>
      </trkpt>
      <trkpt lat="41.762314" lon="2.365541">
        <ele>773.61</ele>
        <time>2016-02-12T18:53:39Z</time>
      </trkpt>
      <trkpt lat="41.762302" lon="2.365437">
        <ele>770.09</ele>
        <time>2016-02-12T18:53:59Z</time>
      </trkpt>
      <trkpt lat="41.762308" lon="2.365335">
        <ele>770.06</ele>
        <time>2016-02-12T18:54:19Z</time>
      </trkpt>
      <trkpt lat="41.762322" lon="2.365228">
        <ele>770.04</ele>
        <time>2016-02-12T18:54:39Z</time>
      </trkpt>
      <trkpt lat="41.762342" lon="2.365119">
        <ele>770.04</ele>
        <time>2016-02-12T18:54:59Z</time>
      </trkpt>
      <trkpt lat="41.762364" lon="2.365004">
        <ele>769.73</ele>
        <time>2016-02-12T18:55:19Z</time>
      </trkpt>
      <trkpt lat="41.762390" lon="2.364890">
        <ele>766.67</ele>
        <time>2016-02-12T18:55:39Z</time>
      </trkpt>
      <trkpt lat="41.762426" lon="2.364776">
        <ele>765.98</ele>
        <time>2016-02-12T18:55:59Z</time>
      </trkpt>
      <trkpt lat="41.762468" lon="2.364664">
        <ele>765.01</ele>
        <time>2016-02-12T18:56:19Z</time>
      </trkpt>
      <trkpt lat="41.762512" lon="2.364554">
        <ele>765.02</ele>
        <time>2016-02-12T18:56:39Z</time>
      </trkpt>
      <trkpt lat="41.762550" lon="2.364452">
        <ele>765.01</ele>
        <time>2016-02-12T18:56:59Z</time>
      </trkpt>
      <trkpt lat="41.762588" lon="2.364371">
        <ele>764.93</ele>
        <time>2016-02-12T18:57:19Z</time>
      </trkpt>
      <trkpt lat="41.762624" lon="2.364324">
        <ele>764.02</ele>
        <time>2016-02-12T18:57:39Z</time>
      </trkpt>
      <trkpt lat="41.762666" lon="2.364320">
        <ele>764.09</ele>
        <time>2016-02-12T18:57:59Z</time>
      </trkpt>
      <trkpt lat="41.762696" lon="2.364356">
        <ele>763.84</ele>
        <time>2016-02-12T18:58:19Z</time>
      </trkpt>
      <trkpt lat="41.762708" lon="2.364416">
        <ele>761.95</ele>
        <time>2016-02-12T18:58:39Z</time>
      </trkpt>
      <trkpt lat="41.762701" lon="2.364496">
        <ele>761.08</ele>
        <time>2016-02-12T18:58:59Z</time>
      </trkpt>
      <trkpt lat="41.762691" lon="2.364582">
        <ele>761.09</ele>
        <time>2016-02-12T18:59:19Z</time>
      </trkpt>
      <trkpt lat="41.762689" lon="2.364672">
        <ele>761.07</ele>
        <time>2016-02-12T18:59:39Z</time>
      </trkpt>
      <trkpt lat="41.762696" lon="2.364767">
        <ele>759.93</ele>
        <time>2016-02-12T18:59:59Z</time>
      </trkpt>
      <trkpt lat="41.762706" lon="2.364865">
        <ele>758.99</ele>
        <time>2016-02-12T19:00:19Z</time>
      </trkpt>
      <trkpt lat="41.762721" lon="2.364963">
        <ele>758.01</ele>
        <time>2016-02-12T19:00:39Z</time>
      </trkpt>
      <trkpt lat="41.762747" lon="2.365061">
        <ele>757.91</ele>
        <time>2016-02-12T19:00:59Z</time>
      </trkpt>
      <trkpt lat="41.762788" lon="2.365153">
        <ele>757.05</ele>
        <time>2016-02-12T19:01:19Z</time>
      </trkpt>
      <trkpt lat="41.762840" lon="2.365241">
        <ele>757.00</ele>
        <time>2016-02-12T19:01:39Z</time>
      </trkpt>
      <trkpt lat="41.762905" lon="2.365317">
        <ele>755.63</ele>
        <time>2016-02-12T19:01:59Z</time>
      </trkpt>
      <trkpt lat="41.762977" lon="2.365385">
        <ele>754.05</ele>
        <time>2016-02-12T19:02:19Z</time>
      </trkpt>
      <trkpt lat="41.763051" lon="2.365452">
        <ele>754.07</ele>
        <time>2016-02-12T19:02:39Z</time>
      </trkpt>
      <trkpt lat="41.763118" lon="2.365530">
        <ele>754.03</ele>
        <time>2016-02-12T19:02:59Z</time>
      </trkpt>
      <trkpt lat="41.763169" lon="2.365625">
        <ele>753.92</ele>
        <time>2016-02-12T19:03:19Z</time>
      </trkpt>
      <trkpt lat="41.763209" lon="2.365726">
        <ele>753.28</ele>
        <time>2016-02-12T19:03:39Z</time>
      </trkpt>
      <trkpt lat="41.763251" lon="2.365830">
        <ele>751.93</ele>
        <time>2016-02-12T19:03:59Z</time>
      </trkpt>
      <trkpt lat="41.763301" lon="2.365929">
        <ele>750.96</ele>
        <time>2016-02-12T19:04:19Z</time>
      </trkpt>
      <trkpt lat="41.763359" lon="2.366022">
        <ele>749.91</ele>
        <time>2016-02-12T19:04:39Z</time>
      </trkpt>
      <trkpt lat="41.763426" lon="2.366105">
        <ele>748.91</ele>
        <time>2016-02-12T19:04:59Z</time>
      </trkpt>
      <trkpt lat="41.763502" lon="2.366180">
        <ele>747.93</ele>
        <time>2016-02-12T19:05:19Z</time>
      </trkpt>
      <trkpt lat="41.763587" lon="2.366247">
        <ele>747.26</ele>
        <time>2016-02-12T19:05:39Z</time>
      </trkpt>
      <trkpt lat="41.763674" lon="2.366320">
        <ele>745.82</ele>
        <time>2016-02-12T19:05:59Z</time>
      </trkpt>
      <trkpt lat="41.763757" lon="2.366401">
        <ele>743.98</ele>
        <time>2016-02-12T19:06:19Z</time>
      </trkpt>
      <trkpt lat="41.763833" lon="2.366494">
        <ele>742.98</ele>
        <time>2016-02-12T19:06:39Z</time>
      </trkpt>
      <trkpt lat="41.763911" lon="2.366583">
        <ele>742.02</ele>
        <time>2016-02-12T19:06:59Z</time>
      </trkpt>
      <trkpt lat="41.763990" lon="2.366651">
        <ele>742.10</ele>
        <time>2016-02-12T19:07:19Z</time>
      </trkpt>
      <trkpt lat="41.764065" lon="2.366703">
        <ele>742.04</ele>
        <time>2016-02-12T19:07:39Z</time>
      </trkpt>
      <trkpt lat="41.764127" lon="2.366758">
        <ele>741.92</ele>
        <time>2016-02-12T19:07:59Z</time>
      </trkpt>
      <trkpt lat="41.764165" lon="2.366826">
        <ele>741.10</ele>
        <time>2016-02-12T19:08:19Z</time>
      </trkpt>
      <trkpt lat="41.764172" lon="2.366906">
        <ele>739.91</ele>
        <time>2016-02-12T19:08:39Z</time>
      </trkpt>
      <trkpt lat="41.764155" lon="2.366985">
        <ele>739.01</ele>
        <time>2016-02-12T19:08:59Z</time>
      </trkpt>
      <trkpt lat="41.764130" lon="2.367079">
        <ele>738.91</ele>
        <time>2016-02-12T19:09:19Z</time>
      </trkpt>
      <trkpt lat="41.764104" lon="2.367181">
        <ele>738.25</ele>
        <time>2016-02-12T19:09:39Z</time>
      </trkpt>
      <trkpt lat="41.764070" lon="2.367280">
        <ele>737.06</ele>
        <time>2016-02-12T19:09:59Z</time>
      </trkpt>
      <trkpt lat="41.764033" lon="2.367372">
        <ele>736.96</ele>
        <time>2016-02-12T19:10:19Z</time>
      </trkpt>
      <trkpt lat="41.764007" lon="2.367465">
        <ele>736.08</ele>
        <time>2016-02-12T19:10:39Z</time>
      </trkpt>
      <trkpt lat="41.764007" lon="2.367565">
        <ele>735.99</ele>
        <time>2016-02-12T19:10:59Z</time>
      </trkpt>
      <trkpt lat="41.764040" lon="2.367659">
        <ele>734.91</ele>
        <time>2016-02-12T19:11:19Z</time>
      </trkpt>
      <trkpt lat="41.764094" lon="2.367745">
        <ele>733.38</ele>
        <time>2016-02-12T19:11:39Z</time>
      </trkpt>
      <trkpt lat="41.764159" lon="2.367827">
        <ele>731.87</ele>
        <time>2016-02-12T19:11:59Z</time>
      </trkpt>
      <trkpt lat="41.764227" lon="2.367912">
        <ele>729.99</ele>
        <time>2016-02-12T19:12:19Z</time>
      </trkpt>
      <trkpt lat="41.764294" lon="2.368004">
        <ele>729.01</ele>
        <time>2016-02-12T19:12:39Z</time>
      </trkpt>
      <trkpt lat="41.764364" lon="2.368094">
        <ele>728.91</ele>
        <time>2016-02-12T19:12:59Z</time>
      </trkpt>
      <trkpt lat="41.764438" lon="2.368183">
        <ele>728.29</ele>
        <time>2016-02-12T19:13:19Z</time>
      </trkpt>
      <trkpt lat="41.764513" lon="2.368270">
        <ele>724.96</ele>
        <time>2016-02-12T19:13:39Z</time>
      </trkpt>
      <trkpt lat="41.764584" lon="2.368367">
        <ele>723.95</ele>
        <time>2016-02-12T19:13:59Z</time>
      </trkpt>
      <trkpt lat="41.764651" lon="2.368473">
        <ele>722.99</ele>
        <time>2016-02-12T19:14:19Z</time>
      </trkpt>
      <trkpt lat="41.764711" lon="2.368591">
        <ele>721.38</ele>
        <time>2016-02-12T19:14:39Z</time>
      </trkpt>
      <trkpt lat="41.764766" lon="2.368717">
        <ele>720.24</ele>
        <time>2016-02-12T19:14:59Z</time>
      </trkpt>
      <trkpt lat="41.764814" lon="2.368849">
        <ele>719.10</ele>
        <time>2016-02-12T19:15:19Z</time>
      </trkpt>
      <trkpt lat="41.764853" lon="2.368980">
        <ele>719.02</ele>
        <time>2016-02-12T19:15:39Z</time>
      </trkpt>
      <trkpt lat="41.764880" lon="2.369115">
        <ele>718.99</ele>
        <time>2016-02-12T19:15:59Z</time>
      </trkpt>
      <trkpt lat="41.764892" lon="2.369245">
        <ele>717.96</ele>
        <time>2016-02-12T19:16:19Z</time>
      </trkpt>
      <trkpt lat="41.764897" lon="2.369384">
        <ele>716.32</ele>
        <time>2016-02-12T19:16:39Z</time>
      </trkpt>
      <trkpt lat="41.764904" lon="2.369530">
        <ele>714.81</ele>
        <time>2016-02-12T19:16:59Z</time>
      </trkpt>
      <trkpt lat="41.764920" lon="2.369679">
        <ele>712.93</ele>
        <time>2016-02-12T19:17:19Z</time>
      </trkpt>
      <trkpt lat="41.764932" lon="2.369828">
        <ele>711.96</ele>
        <time>2016-02-12T19:17:39Z</time>
      </trkpt>
      <trkpt lat="41.764925" lon="2.369986">
        <ele>711.21</ele>
        <time>2016-02-12T19:17:59Z</time>
      </trkpt>
      <trkpt lat="41.764912" lon="2.370150">
        <ele>708.96</ele>
        <time>2016-02-12T19:18:19Z</time>
      </trkpt>
      <trkpt lat="41.764901" lon="2.370316">
        <ele>707.84</ele>
        <time>2016-02-12T19:18:39Z</time>
      </trkpt>
      <trkpt lat="41.764895" lon="2.370476">
        <ele>706.07</ele>
        <time>2016-02-12T19:18:59Z</time>
      </trkpt>
      <trkpt lat="41.764886" lon="2.370629">
        <ele>706.01</ele>
        <time>2016-02-12T19:19:19Z</time>
      </trkpt>
      <trkpt lat="41.764864" lon="2.370786">
        <ele>703.91</ele>
        <time>2016-02-12T19:19:39Z</time>
      </trkpt>
      <trkpt lat="41.764839" lon="2.370943">
        <ele>703.05</ele>
        <time>2016-02-12T19:19:59Z</time>
      </trkpt>
      <trkpt lat="41.764819" lon="2.371095">
        <ele>703.01</ele>
        <time>2016-02-12T19:20:19Z</time>
      </trkpt>
      <trkpt lat="41.764814" lon="2.371244">
        <ele>702.92</ele>
        <time>2016-02-12T19:20:39Z</time>
      </trkpt>
      <trkpt lat="41.764830" lon="2.371386">
        <ele>702.31</ele>
        <time>2016-02-12T19:20:59Z</time>
      </trkpt>
      <trkpt lat="41.764876" lon="2.371510">
        <ele>700.05</ele>
        <time>2016-02-12T19:21:19Z</time>
      </trkpt>
      <trkpt lat="41.764942" lon="2.371621">
        <ele>699.88</ele>
        <time>2016-02-12T19:21:39Z</time>
      </trkpt>
      <trkpt lat="41.765015" lon="2.371728">
        <ele>697.57</ele>
        <time>2016-02-12T19:21:59Z</time>
      </trkpt>
      <trkpt lat="41.765089" lon="2.371837">
        <ele>695.49</ele>
        <time>2016-02-12T19:22:19Z</time>
      </trkpt>
      <trkpt lat="41.765163" lon="2.371950">
        <ele>693.89</ele>
        <time>2016-02-12T19:22:39Z</time>
      </trkpt>
      <trkpt lat="41.765230" lon="2.372069">
        <ele>691.07</ele>
        <time>2016-02-12T19:22:59Z</time>
      </trkpt>
      <trkpt lat="41.765290" lon="2.372191">
        <ele>691.12</ele>
        <time>2016-02-12T19:23:19Z</time>
      </trkpt>
      <trkpt lat="41.765340" lon="2.372306">
        <ele>692.03</ele>
        <time>2016-02-12T19:23:39Z</time>
      </trkpt>
      <trkpt lat="41.765374" lon="2.372418">
        <ele>692.07</ele>
        <time>2016-02-12T19:23:59Z</time>
      </trkpt>
      <trkpt lat="41.765391" lon="2.372534">
        <ele>692.09</ele>
        <time>2016-02-12T19:24:19Z</time>
      </trkpt>
      <trkpt lat="41.765400" lon="2.372642">
        <ele>692.01</ele>
        <time>2016-02-12T19:24:39Z</time>
      </trkpt>
      <trkpt lat="41.765409" lon="2.372740">
        <ele>692.11</ele>
        <time>2016-02-12T19:24:59Z</time>
      </trkpt>
      <trkpt lat="41.765424" lon="2.372817">
        <ele>693.05</ele>
        <time>2016-02-12T19:25:19Z</time>
      </trkpt>
      <trkpt lat="41.765439" lon="2.372871">
        <ele>693.09</ele>
        <time>2016-02-12T19:25:39Z</time>
      </trkpt>
      <trkpt lat="41.765447" lon="2.372921">
        <ele>693.10</ele>
        <time>2016-02-12T19:25:59Z</time>
      </trkpt>
      <trkpt lat="41.765444" lon="2.372980">
        <ele>693.09</ele>
        <time>2016-02-12T19:26:19Z</time>
      </trkpt>
      <trkpt lat="41.765430" lon="2.373052">
        <ele>693.04</ele>
        <time>2016-02-12T19:26:39Z</time>
      </trkpt>
      <trkpt lat="41.765410" lon="2.373131">
        <ele>693.07</ele>
        <time>2016-02-12T19:26:59Z</time>
      </trkpt>
      <trkpt lat="41.765388" lon="2.373215">
        <ele>689.90</ele>
        <time>2016-02-12T19:27:19Z</time>
      </trkpt>
      <trkpt lat="41.765365" lon="2.373301">
        <ele>689.01</ele>
        <time>2016-02-12T19:27:39Z</time>
      </trkpt>
      <trkpt lat="41.765341" lon="2.373393">
        <ele>689.03</ele>
        <time>2016-02-12T19:27:59Z</time>
      </trkpt>
      <trkpt lat="41.765313" lon="2.373488">
        <ele>689.09</ele>
        <time>2016-02-12T19:28:19Z</time>
      </trkpt>
      <trkpt lat="41.765282" lon="2.373585">
        <ele>688.71</ele>
        <time>2016-02-12T19:28:39Z</time>
      </trkpt>
      <trkpt lat="41.765251" lon="2.373685">
        <ele>685.71</ele>
        <time>2016-02-12T19:28:59Z</time>
      </trkpt>
      <trkpt lat="41.765225" lon="2.373793">
        <ele>683.03</ele>
        <time>2016-02-12T19:29:19Z</time>
      </trkpt>
      <trkpt lat="41.765205" lon="2.373908">
        <ele>683.00</ele>
        <time>2016-02-12T19:29:39Z</time>
      </trkpt>
      <trkpt lat="41.765190" lon="2.374030">
        <ele>681.93</ele>
        <time>2016-02-12T19:29:59Z</time>
      </trkpt>
      <trkpt lat="41.765184" lon="2.374157">
        <ele>680.84</ele>
        <time>2016-02-12T19:30:19Z</time>
      </trkpt>
      <trkpt lat="41.765182" lon="2.374288">
        <ele>678.94</ele>
        <time>2016-02-12T19:30:39Z</time>
      </trkpt>
      <trkpt lat="41.765180" lon="2.374421">
        <ele>678.28</ele>
        <time>2016-02-12T19:30:59Z</time>
      </trkpt>
      <trkpt lat="41.765183" lon="2.374556">
        <ele>676.07</ele>
        <time>2016-02-12T19:31:19Z</time>
      </trkpt>
      <trkpt lat="41.765188" lon="2.374694">
        <ele>676.06</ele>
        <time>2016-02-12T19:31:39Z</time>
      </trkpt>
      <trkpt lat="41.765190" lon="2.374836">
        <ele>675.95</ele>
        <time>2016-02-12T19:31:59Z</time>
      </trkpt>
      <trkpt lat="41.765188" lon="2.374979">
        <ele>674.36</ele>
        <time>2016-02-12T19:32:19Z</time>
      </trkpt>
      <trkpt lat="41.765187" lon="2.375125">
        <ele>672.81</ele>
        <time>2016-02-12T19:32:39Z</time>
      </trkpt>
      <trkpt lat="41.765189" lon="2.375274">
        <ele>670.91</ele>
        <time>2016-02-12T19:32:59Z</time>
      </trkpt>
      <trkpt lat="41.765193" lon="2.375423">
        <ele>670.04</ele>
        <time>2016-02-12T19:33:19Z</time>
      </trkpt>
      <trkpt lat="41.765197" lon="2.375559">
        <ele>670.03</ele>
        <time>2016-02-12T19:33:39Z</time>
      </trkpt>
      <trkpt lat="41.765205" lon="2.375677">
        <ele>669.98</ele>
        <time>2016-02-12T19:33:59Z</time>
      </trkpt>
      <trkpt lat="41.765225" lon="2.375779">
        <ele>669.29</ele>
        <time>2016-02-12T19:34:19Z</time>
      </trkpt>
      <trkpt lat="41.765267" lon="2.375865">
        <ele>667.92</ele>
        <time>2016-02-12T19:34:39Z</time>
      </trkpt>
      <trkpt lat="41.765331" lon="2.375915">
        <ele>667.02</ele>
        <time>2016-02-12T19:34:59Z</time>
      </trkpt>
      <trkpt lat="41.765403" lon="2.375929">
        <ele>667.07</ele>
        <time>2016-02-12T19:35:19Z</time>
      </trkpt>
      <trkpt lat="41.765477" lon="2.375918">
        <ele>667.00</ele>
        <time>2016-02-12T19:35:39Z</time>
      </trkpt>
      <trkpt lat="41.765552" lon="2.375894">
        <ele>665.97</ele>
        <time>2016-02-12T19:35:59Z</time>
      </trkpt>
      <trkpt lat="41.765628" lon="2.375869">
        <ele>665.20</ele>
        <time>2016-02-12T19:36:19Z</time>
      </trkpt>
      <trkpt lat="41.765707" lon="2.375844">
        <ele>664.72</ele>
        <time>2016-02-12T19:36:39Z</time>
      </trkpt>
      <trkpt lat="41.765790" lon="2.375817">
        <ele>661.91</ele>
        <time>2016-02-12T19:36:59Z</time>
      </trkpt>
      <trkpt lat="41.765874" lon="2.375780">
        <ele>661.03</ele>
        <time>2016-02-12T19:37:19Z</time>
      </trkpt>
      <trkpt lat="41.765956" lon="2.375731">
        <ele>661.02</ele>
        <time>2016-02-12T19:37:39Z</time>
      </trkpt>
      <trkpt lat="41.766033" lon="2.375669">
        <ele>660.98</ele>
        <time>2016-02-12T19:37:59Z</time>
      </trkpt>
      <trkpt lat="41.766105" lon="2.375596">
        <ele>660.23</ele>
        <time>2016-02-12T19:38:19Z</time>
      </trkpt>
      <trkpt lat="41.766176" lon="2.375516">
        <ele>658.92</ele>
        <time>2016-02-12T19:38:39Z</time>
      </trkpt>
      <trkpt lat="41.766249" lon="2.375445">
        <ele>658.05</ele>
        <time>2016-02-12T19:38:59Z</time>
      </trkpt>
      <trkpt lat="41.766326" lon="2.375390">
        <ele>658.02</ele>
        <time>2016-02-12T19:39:19Z</time>
      </trkpt>
      <trkpt lat="41.766409" lon="2.375354">
        <ele>658.05</ele>
        <time>2016-02-12T19:39:39Z</time>
      </trkpt>
      <trkpt lat="41.766495" lon="2.375342">
        <ele>658.08</ele>
        <time>2016-02-12T19:39:59Z</time>
      </trkpt>
      <trkpt lat="41.766582" lon="2.375350">
        <ele>656.04</ele>
        <time>2016-02-12T19:40:19Z</time>
      </trkpt>
      <trkpt lat="41.766671" lon="2.375377">
        <ele>655.92</ele>
        <time>2016-02-12T19:40:39Z</time>
      </trkpt>
      <trkpt lat="41.766759" lon="2.375422">
        <ele>654.81</ele>
        <time>2016-02-12T19:40:59Z</time>
      </trkpt>
      <trkpt lat="41.766845" lon="2.375481">
        <ele>652.94</ele>
        <time>2016-02-12T19:41:19Z</time>
      </trkpt>
      <trkpt lat="41.766929" lon="2.375550">
        <ele>651.94</ele>
        <time>2016-02-12T19:41:39Z</time>
      </trkpt>
      <trkpt lat="41.767013" lon="2.375625">
        <ele>651.24</ele>
        <time>2016-02-12T19:41:59Z</time>
      </trkpt>
      <trkpt lat="41.767095" lon="2.375706">
        <ele>649.83</ele>
        <time>2016-02-12T19:42:19Z</time>
      </trkpt>
      <trkpt lat="41.767178" lon="2.375786">
        <ele>648.04</ele>
        <time>2016-02-12T19:42:39Z</time>
      </trkpt>
      <trkpt lat="41.767263" lon="2.375856">
        <ele>647.95</ele>
        <time>2016-02-12T19:42:59Z</time>
      </trkpt>
      <trkpt lat="41.767351" lon="2.375898">
        <ele>647.05</ele>
        <time>2016-02-12T19:43:19Z</time>
      </trkpt>
      <trkpt lat="41.767439" lon="2.375907">
        <ele>647.06</ele>
        <time>2016-02-12T19:43:39Z</time>
      </trkpt>
      <trkpt lat="41.767525" lon="2.375891">
        <ele>645.99</ele>
        <time>2016-02-12T19:43:59Z</time>
      </trkpt>
      <trkpt lat="41.767608" lon="2.375871">
        <ele>644.82</ele>
        <time>2016-02-12T19:44:19Z</time>
      </trkpt>
      <trkpt lat="41.767689" lon="2.375866">
        <ele>642.93</ele>
        <time>2016-02-12T19:44:39Z</time>
      </trkpt>
      <trkpt lat="41.767770" lon="2.375892">
        <ele>642.01</ele>
        <time>2016-02-12T19:44:59Z</time>
      </trkpt>
      <trkpt lat="41.767845" lon="2.375944">
        <ele>641.92</ele>
        <time>2016-02-12T19:45:19Z</time>
      </trkpt>
      <trkpt lat="41.767919" lon="2.375996">
        <ele>641.27</ele>
        <time>2016-02-12T19:45:39Z</time>
      </trkpt>
      <trkpt lat="41.767990" lon="2.376034">
        <ele>640.07</ele>
        <time>2016-02-12T19:45:59Z</time>
      </trkpt>
      <trkpt lat="41.768059" lon="2.376038">
        <ele>640.01</ele>
        <time>2016-02-12T19:46:19Z</time>
      </trkpt>
      <trkpt lat="41.768127" lon="2.376017">
        <ele>639.77</ele>
        <time>2016-02-12T19:46:39Z</time>
      </trkpt>
      <trkpt lat="41.768196" lon="2.375981">
        <ele>636.98</ele>
        <time>2016-02-12T19:46:59Z</time>
      </trkpt>
      <trkpt lat="41.768266" lon="2.375926">
        <ele>635.93</ele>
        <time>2016-02-12T19:47:19Z</time>
      </trkpt>
      <trkpt lat="41.768337" lon="2.375868">
        <ele>635.28</ele>
        <time>2016-02-12T19:47:39Z</time>
      </trkpt>
      <trkpt lat="41.768413" lon="2.375808">
        <ele>633.87</ele>
        <time>2016-02-12T19:47:59Z</time>
      </trkpt>
      <trkpt lat="41.768489" lon="2.375745">
        <ele>632.10</ele>
        <time>2016-02-12T19:48:19Z</time>
      </trkpt>
      <trkpt lat="41.768560" lon="2.375675">
        <ele>632.92</ele>
        <time>2016-02-12T19:48:39Z</time>
      </trkpt>
      <trkpt lat="41.768624" lon="2.375602">
        <ele>631.91</ele>
        <time>2016-02-12T19:48:59Z</time>
      </trkpt>
      <trkpt lat="41.768682" lon="2.375532">
        <ele>631.02</ele>
        <time>2016-02-12T19:49:19Z</time>
      </trkpt>
      <trkpt lat="41.768747" lon="2.375467">
        <ele>631.05</ele>
        <time>2016-02-12T19:49:39Z</time>
      </trkpt>
      <trkpt lat="41.768822" lon="2.375412">
        <ele>629.04</ele>
        <time>2016-02-12T19:49:59Z</time>
      </trkpt>
      <trkpt lat="41.768905" lon="2.375366">
        <ele>628.75</ele>
        <time>2016-02-12T19:50:19Z</time>
      </trkpt>
      <trkpt lat="41.768993" lon="2.375320">
        <ele>625.88</ele>
        <time>2016-02-12T19:50:39Z</time>
      </trkpt>
      <trkpt lat="41.769084" lon="2.375269">
        <ele>624.10</ele>
        <time>2016-02-12T19:50:59Z</time>
      </trkpt>
      <trkpt lat="41.769178" lon="2.375226">
        <ele>624.08</ele>
        <time>2016-02-12T19:51:19Z</time>
      </trkpt>
      <trkpt lat="41.769279" lon="2.375195">
        <ele>621.98</ele>
        <time>2016-02-12T19:51:39Z</time>
      </trkpt>
      <trkpt lat="41.769383" lon="2.375178">
        <ele>621.08</ele>
        <time>2016-02-12T19:51:59Z</time>
      </trkpt>
      <trkpt lat="41.769490" lon="2.375176">
        <ele>620.90</ele>
        <time>2016-02-12T19:52:19Z</time>
      </trkpt>
      <trkpt lat="41.769598" lon="2.375183">
        <ele>620.13</ele>
        <time>2016-02-12T19:52:39Z</time>
      </trkpt>
      <trkpt lat="41.769698" lon="2.375182">
        <ele>619.21</ele>
        <time>2016-02-12T19:52:59Z</time>
      </trkpt>
      <trkpt lat="41.769783" lon="2.375178">
        <ele>619.14</ele>
        <time>2016-02-12T19:53:19Z</time>
      </trkpt>
      <trkpt lat="41.769847" lon="2.375182">
        <ele>619.99</ele>
        <time>2016-02-12T19:53:39Z</time>
      </trkpt>
      <trkpt lat="41.769889" lon="2.375201">
        <ele>618.95</ele>
        <time>2016-02-12T19:53:59Z</time>
      </trkpt>
      <trkpt lat="41.769903" lon="2.375245">
        <ele>617.92</ele>
        <time>2016-02-12T19:54:19Z</time>
      </trkpt>
      <trkpt lat="41.769885" lon="2.375294">
        <ele>616.96</ele>
        <time>2016-02-12T19:54:39Z</time>
      </trkpt>
      <trkpt lat="41.769839" lon="2.375330">
        <ele>615.88</ele>
        <time>2016-02-12T19:54:59Z</time>
      </trkpt>
      <trkpt lat="41.769781" lon="2.375353">
        <ele>613.92</ele>
        <time>2016-02-12T19:55:19Z</time>
      </trkpt>
      <trkpt lat="41.769711" lon="2.375373">
        <ele>612.97</ele>
        <time>2016-02-12T19:55:39Z</time>
      </trkpt>
      <trkpt lat="41.769630" lon="2.375395">
        <ele>612.30</ele>
        <time>2016-02-12T19:55:59Z</time>
      </trkpt>
      <trkpt lat="41.769544" lon="2.375424">
        <ele>610.72</ele>
        <time>2016-02-12T19:56:19Z</time>
      </trkpt>
      <trkpt lat="41.769456" lon="2.375457">
        <ele>607.73</ele>
        <time>2016-02-12T19:56:39Z</time>
      </trkpt>
      <trkpt lat="41.769364" lon="2.375499">
        <ele>604.91</ele>
        <time>2016-02-12T19:56:59Z</time>
      </trkpt>
      <trkpt lat="41.769270" lon="2.375561">
        <ele>603.95</ele>
        <time>2016-02-12T19:57:19Z</time>
      </trkpt>
      <trkpt lat="41.769173" lon="2.375643">
        <ele>603.25</ele>
        <time>2016-02-12T19:57:39Z</time>
      </trkpt>
      <trkpt lat="41.769079" lon="2.375732">
        <ele>600.76</ele>
        <time>2016-02-12T19:57:59Z</time>
      </trkpt>
      <trkpt lat="41.768987" lon="2.375824">
        <ele>597.96</ele>
        <time>2016-02-12T19:58:19Z</time>
      </trkpt>
      <trkpt lat="41.768897" lon="2.375922">
        <ele>596.98</ele>
        <time>2016-02-12T19:58:39Z</time>
      </trkpt>
      <trkpt lat="41.768808" lon="2.376031">
        <ele>595.70</ele>
        <time>2016-02-12T19:58:59Z</time>
      </trkpt>
      <trkpt lat="41.768718" lon="2.376145">
        <ele>595.08</ele>
        <time>2016-02-12T19:59:19Z</time>
      </trkpt>
      <trkpt lat="41.768628" lon="2.376259">
        <ele>594.91</ele>
        <time>2016-02-12T19:59:39Z</time>
      </trkpt>
      <trkpt lat="41.768540" lon="2.376383">
        <ele>594.17</ele>
        <time>2016-02-12T19:59:59Z</time>
      </trkpt>
      <trkpt lat="41.768458" lon="2.376503">
        <ele>594.81</ele>
        <time>2016-02-12T20:00:19Z</time>
      </trkpt>
      <trkpt lat="41.768382" lon="2.376601">
        <ele>593.81</ele>
        <time>2016-02-12T20:00:39Z</time>
      </trkpt>
      <trkpt lat="41.768306" lon="2.376672">
        <ele>591.81</ele>
        <time>2016-02-12T20:00:59Z</time>
      </trkpt>
      <trkpt lat="41.768222" lon="2.376716">
        <ele>589.85</ele>
        <time>2016-02-12T20:01:19Z</time>
      </trkpt>
      <trkpt lat="41.768126" lon="2.376739">
        <ele>587.99</ele>
        <time>2016-02-12T20:01:39Z</time>
      </trkpt>
      <trkpt lat="41.768022" lon="2.376749">
        <ele>587.27</ele>
        <time>2016-02-12T20:01:59Z</time>
      </trkpt>
      <trkpt lat="41.767917" lon="2.376762">
        <ele>585.78</ele>
        <time>2016-02-12T20:02:19Z</time>
      </trkpt>
      <trkpt lat="41.767812" lon="2.376803">
        <ele>583.01</ele>
        <time>2016-02-12T20:02:39Z</time>
      </trkpt>
      <trkpt lat="41.767710" lon="2.376882">
        <ele>582.89</ele>
        <time>2016-02-12T20:02:59Z</time>
      </trkpt>
      <trkpt lat="41.767620" lon="2.376983">
        <ele>580.94</ele>
        <time>2016-02-12T20:03:19Z</time>
      </trkpt>
      <trkpt lat="41.767533" lon="2.377090">
        <ele>580.25</ele>
        <time>2016-02-12T20:03:39Z</time>
      </trkpt>
      <trkpt lat="41.767448" lon="2.377182">
        <ele>579.08</ele>
        <time>2016-02-12T20:03:59Z</time>
      </trkpt>
      <trkpt lat="41.767366" lon="2.377248">
        <ele>579.04</ele>
        <time>2016-02-12T20:04:19Z</time>
      </trkpt>
      <trkpt lat="41.767284" lon="2.377283">
        <ele>578.82</ele>
        <time>2016-02-12T20:04:39Z</time>
      </trkpt>
      <trkpt lat="41.767200" lon="2.377279">
        <ele>577.01</ele>
        <time>2016-02-12T20:04:59Z</time>
      </trkpt>
      <trkpt lat="41.767116" lon="2.377240">
        <ele>577.03</ele>
        <time>2016-02-12T20:05:19Z</time>
      </trkpt>
      <trkpt lat="41.767028" lon="2.377186">
        <ele>575.08</ele>
        <time>2016-02-12T20:05:39Z</time>
      </trkpt>
      <trkpt lat="41.766932" lon="2.377135">
        <ele>574.73</ele>
        <time>2016-02-12T20:05:59Z</time>
      </trkpt>
      <trkpt lat="41.766832" lon="2.377092">
        <ele>571.78</ele>
        <time>2016-02-12T20:06:19Z</time>
      </trkpt>
      <trkpt lat="41.766732" lon="2.377067">
        <ele>568.99</ele>
        <time>2016-02-12T20:06:39Z</time>
      </trkpt>
      <trkpt lat="41.766638" lon="2.377070">
        <ele>568.26</ele>
        <time>2016-02-12T20:06:59Z</time>
      </trkpt>
      <trkpt lat="41.766554" lon="2.377108">
        <ele>567.81</ele>
        <time>2016-02-12T20:07:19Z</time>
      </trkpt>
      <trkpt lat="41.766474" lon="2.377164">
        <ele>565.94</ele>
        <time>2016-02-12T20:07:39Z</time>
      </trkpt>
      <trkpt lat="41.766394" lon="2.377223">
        <ele>564.84</ele>
        <time>2016-02-12T20:07:59Z</time>
      </trkpt>
      <trkpt lat="41.766326" lon="2.377302">
        <ele>562.95</ele>
        <time>2016-02-12T20:08:19Z</time>
      </trkpt>
      <trkpt lat="41.766279" lon="2.377410">
        <ele>562.21</ele>
        <time>2016-02-12T20:08:39Z</time>
      </trkpt>
      <trkpt lat="41.766258" lon="2.377537">
        <ele>561.91</ele>
        <time>2016-02-12T20:08:59Z</time>
      </trkpt>
      <trkpt lat="41.766254" lon="2.377663">
        <ele>560.81</ele>
        <time>2016-02-12T20:09:19Z</time>
      </trkpt>
      <trkpt lat="41.766244" lon="2.377797">
        <ele>559.02</ele>
        <time>2016-02-12T20:09:39Z</time>
      </trkpt>
      <trkpt lat="41.766228" lon="2.377935">
        <ele>558.98</ele>
        <time>2016-02-12T20:09:59Z</time>
      </trkpt>
      <trkpt lat="41.766204" lon="2.378072">
        <ele>558.26</ele>
        <time>2016-02-12T20:10:19Z</time>
      </trkpt>
      <trkpt lat="41.766164" lon="2.378200">
        <ele>555.86</ele>
        <time>2016-02-12T20:10:39Z</time>
      </trkpt>
      <trkpt lat="41.766108" lon="2.378315">
        <ele>553.98</ele>
        <time>2016-02-12T20:10:59Z</time>
      </trkpt>
      <trkpt lat="41.766040" lon="2.378411">
        <ele>553.07</ele>
        <time>2016-02-12T20:11:19Z</time>
      </trkpt>
      <trkpt lat="41.765958" lon="2.378489">
        <ele>553.04</ele>
        <time>2016-02-12T20:11:39Z</time>
      </trkpt>
      <trkpt lat="41.765866" lon="2.378553">
        <ele>552.29</ele>
        <time>2016-02-12T20:11:59Z</time>
      </trkpt>
      <trkpt lat="41.765774" lon="2.378609">
        <ele>550.92</ele>
        <time>2016-02-12T20:12:19Z</time>
      </trkpt>
      <trkpt lat="41.765694" lon="2.378677">
        <ele>550.03</ele>
        <time>2016-02-12T20:12:39Z</time>
      </trkpt>
      <trkpt lat="41.765626" lon="2.378766">
        <ele>549.91</ele>
        <time>2016-02-12T20:12:59Z</time>
      </trkpt>
      <trkpt lat="41.765572" lon="2.378871">
        <ele>548.96</ele>
        <time>2016-02-12T20:13:19Z</time>
      </trkpt>
      <trkpt lat="41.765522" lon="2.378984">
        <ele>548.26</ele>
        <time>2016-02-12T20:13:39Z</time>
      </trkpt>
      <trkpt lat="41.765463" lon="2.379088">
        <ele>546.76</ele>
        <time>2016-02-12T20:13:59Z</time>
      </trkpt>
      <trkpt lat="41.765386" lon="2.379175">
        <ele>543.91</ele>
        <time>2016-02-12T20:14:19Z</time>
      </trkpt>
      <trkpt lat="41.765306" lon="2.379250">
        <ele>543.01</ele>
        <time>2016-02-12T20:14:39Z</time>
      </trkpt>
      <trkpt lat="41.765224" lon="2.379317">
        <ele>543.07</ele>
        <time>2016-02-12T20:14:59Z</time>
      </trkpt>
      <trkpt lat="41.765148" lon="2.379387">
        <ele>543.09</ele>
        <time>2016-02-12T20:15:19Z</time>
      </trkpt>
      <trkpt lat="41.765080" lon="2.379471">
        <ele>543.02</ele>
        <time>2016-02-12T20:15:39Z</time>
      </trkpt>
      <trkpt lat="41.765014" lon="2.379569">
        <ele>540.83</ele>
        <time>2016-02-12T20:15:59Z</time>
      </trkpt>
      <trkpt lat="41.764956" lon="2.379673">
        <ele>538.93</ele>
        <time>2016-02-12T20:16:19Z</time>
      </trkpt>
      <trkpt lat="41.764902" lon="2.379786">
        <ele>537.91</ele>
        <time>2016-02-12T20:16:39Z</time>
      </trkpt>
      <trkpt lat="41.764850" lon="2.379900">
        <ele>537.01</ele>
        <time>2016-02-12T20:16:59Z</time>
      </trkpt>
      <trkpt lat="41.764797" lon="2.380010">
        <ele>537.06</ele>
        <time>2016-02-12T20:17:19Z</time>
      </trkpt>
      <trkpt lat="41.764742" lon="2.380118">
        <ele>534.94</ele>
        <time>2016-02-12T20:17:39Z</time>
      </trkpt>
      <trkpt lat="41.764685" lon="2.380223">
        <ele>533.39</ele>
        <time>2016-02-12T20:17:59Z</time>
      </trkpt>
      <trkpt lat="41.764628" lon="2.380335">
        <ele>531.88</ele>
        <time>2016-02-12T20:18:19Z</time>
      </trkpt>
      <trkpt lat="41.764580" lon="2.380449">
        <ele>529.97</ele>
        <time>2016-02-12T20:18:39Z</time>
      </trkpt>
      <trkpt lat="41.764537" lon="2.380575">
        <ele>529.28</ele>
        <time>2016-02-12T20:18:59Z</time>
      </trkpt>
      <trkpt lat="41.764495" lon="2.380700">
        <ele>529.09</ele>
        <time>2016-02-12T20:19:19Z</time>
      </trkpt>
      <trkpt lat="41.764452" lon="2.380807">
        <ele>529.09</ele>
        <time>2016-02-12T20:19:39Z</time>
      </trkpt>
      <trkpt lat="41.764405" lon="2.380900">
        <ele>529.07</ele>
        <time>2016-02-12T20:19:59Z</time>
      </trkpt>
      <trkpt lat="41.764355" lon="2.380975">
        <ele>529.07</ele>
        <time>2016-02-12T20:20:19Z</time>
      </trkpt>
      <trkpt lat="41.764298" lon="2.381015">
        <ele>528.91</ele>
        <time>2016-02-12T20:20:39Z</time>
      </trkpt>
      <trkpt lat="41.764233" lon="2.381018">
        <ele>528.21</ele>
        <time>2016-02-12T20:20:59Z</time>
      </trkpt>
      <trkpt lat="41.764177" lon="2.380976">
        <ele>526.94</ele>
        <time>2016-02-12T20:21:19Z</time>
      </trkpt>
      <trkpt lat="41.764128" lon="2.380906">
        <ele>525.96</ele>
        <time>2016-02-12T20:21:39Z</time>
      </trkpt>
      <trkpt lat="41.764087" lon="2.380820">
        <ele>525.00</ele>
        <time>2016-02-12T20:21:59Z</time>
      </trkpt>
      <trkpt lat="41.764043" lon="2.380731">
        <ele>524.02</ele>
        <time>2016-02-12T20:22:19Z</time>
      </trkpt>
      <trkpt lat="41.763992" lon="2.380649">
        <ele>524.07</ele>
        <time>2016-02-12T20:22:39Z</time>
      </trkpt>
      <trkpt lat="41.763930" lon="2.380578">
        <ele>524.10</ele>
        <time>2016-02-12T20:22:59Z</time>
      </trkpt>
      <trkpt lat="41.763862" lon="2.380517">
        <ele>524.08</ele>
        <time>2016-02-12T20:23:19Z</time>
      </trkpt>
      <trkpt lat="41.763788" lon="2.380462">
        <ele>523.88</ele>
        <time>2016-02-12T20:23:39Z</time>
      </trkpt>
      <trkpt lat="41.763712" lon="2.380410">
        <ele>522.04</ele>
        <time>2016-02-12T20:23:59Z</time>
      </trkpt>
      <trkpt lat="41.763638" lon="2.380357">
        <ele>522.05</ele>
        <time>2016-02-12T20:24:19Z</time>
      </trkpt>
      <trkpt lat="41.763566" lon="2.380299">
        <ele>522.01</ele>
        <time>2016-02-12T20:24:39Z</time>
      </trkpt>
      <trkpt lat="41.763493" lon="2.380242">
        <ele>522.01</ele>
        <time>2016-02-12T20:24:59Z</time>
      </trkpt>
      <trkpt lat="41.763424" lon="2.380182">
        <ele>521.84</ele>
        <time>2016-02-12T20:25:19Z</time>
      </trkpt>
      <trkpt lat="41.763360" lon="2.380121">
        <ele>520.04</ele>
        <time>2016-02-12T20:25:39Z</time>
      </trkpt>
      <trkpt lat="41.763297" lon="2.380061">
        <ele>520.02</ele>
        <time>2016-02-12T20:25:59Z</time>
      </trkpt>
      <trkpt lat="41.763234" lon="2.380005">
        <ele>520.06</ele>
        <time>2016-02-12T20:26:19Z</time>
      </trkpt>
      <trkpt lat="41.763170" lon="2.379947">
        <ele>520.02</ele>
        <time>2016-02-12T20:26:39Z</time>
      </trkpt>
      <trkpt lat="41.763106" lon="2.379888">
        <ele>520.16</ele>
        <time>2016-02-12T20:26:59Z</time>
      </trkpt>
      <trkpt lat="41.763041" lon="2.379833">
        <ele>521.76</ele>
        <time>2016-02-12T20:27:19Z</time>
      </trkpt>
      <trkpt lat="41.762976" lon="2.379785">
        <ele>522.03</ele>
        <time>2016-02-12T20:27:39Z</time>
      </trkpt>
      <trkpt lat="41.762910" lon="2.379747">
        <ele>522.04</ele>
        <time>2016-02-12T20:27:59Z</time>
      </trkpt>
      <trkpt lat="41.762840" lon="2.379715">
        <ele>522.05</ele>
        <time>2016-02-12T20:28:19Z</time>
      </trkpt>
      <trkpt lat="41.762769" lon="2.379688">
        <ele>521.81</ele>
        <time>2016-02-12T20:28:39Z</time>
      </trkpt>
      <trkpt lat="41.762698" lon="2.379661">
        <ele>520.01</ele>
        <time>2016-02-12T20:28:59Z</time>
      </trkpt>
      <trkpt lat="41.762630" lon="2.379630">
        <ele>520.08</ele>
        <time>2016-02-12T20:29:19Z</time>
      </trkpt>
      <trkpt lat="41.762564" lon="2.379588">
        <ele>520.03</ele>
        <time>2016-02-12T20:29:39Z</time>
      </trkpt>
      <trkpt lat="41.762506" lon="2.379528">
        <ele>520.09</ele>
        <time>2016-02-12T20:29:59Z</time>
      </trkpt>
      <trkpt lat="41.762459" lon="2.379449">
        <ele>520.10</ele>
        <time>2016-02-12T20:30:19Z</time>
      </trkpt>
      <trkpt lat="41.762424" lon="2.379354">
        <ele>520.06</ele>
        <time>2016-02-12T20:30:39Z</time>
      </trkpt>
      <trkpt lat="41.762397" lon="2.379252">
        <ele>520.09</ele>
        <time>2016-02-12T20:30:59Z</time>
      </trkpt>
      <trkpt lat="41.762377" lon="2.379143">
        <ele>520.06</ele>
        <time>2016-02-12T20:31:19Z</time>
      </trkpt>
      <trkpt lat="41.762359" lon="2.379030">
        <ele>520.09</ele>
        <time>2016-02-12T20:31:39Z</time>
      </trkpt>
      <trkpt lat="41.762344" lon="2.378911">
        <ele>519.45</ele>
        <time>2016-02-12T20:31:59Z</time>
      </trkpt>
      <trkpt lat="41.762335" lon="2.378785">
        <ele>512.86</ele>
        <time>2016-02-12T20:32:19Z</time>
      </trkpt>
      <trkpt lat="41.762327" lon="2.378651">
        <ele>510.92</ele>
        <time>2016-02-12T20:32:39Z</time>
      </trkpt>
      <trkpt lat="41.762307" lon="2.378517">
        <ele>509.91</ele>
        <time>2016-02-12T20:32:59Z</time>
      </trkpt>
      <trkpt lat="41.762277" lon="2.378382">
        <ele>508.32</ele>
        <time>2016-02-12T20:33:19Z</time>
      </trkpt>
      <trkpt lat="41.762241" lon="2.378249">
        <ele>506.03</ele>
        <time>2016-02-12T20:33:39Z</time>
      </trkpt>
      <trkpt lat="41.762198" lon="2.378121">
        <ele>506.05</ele>
        <time>2016-02-12T20:33:59Z</time>
      </trkpt>
      <trkpt lat="41.762148" lon="2.378001">
        <ele>506.04</ele>
        <time>2016-02-12T20:34:19Z</time>
      </trkpt>
      <trkpt lat="41.762089" lon="2.377892">
        <ele>505.94</ele>
        <time>2016-02-12T20:34:39Z</time>
      </trkpt>
      <trkpt lat="41.762022" lon="2.377792">
        <ele>504.37</ele>
        <time>2016-02-12T20:34:59Z</time>
      </trkpt>
      <trkpt lat="41.761964" lon="2.377692">
        <ele>502.88</ele>
        <time>2016-02-12T20:35:19Z</time>
      </trkpt>
      <trkpt lat="41.761927" lon="2.377587">
        <ele>501.04</ele>
        <time>2016-02-12T20:35:39Z</time>
      </trkpt>
      <trkpt lat="41.761910" lon="2.377485">
        <ele>501.04</ele>
        <time>2016-02-12T20:35:59Z</time>
      </trkpt>
      <trkpt lat="41.761902" lon="2.377391">
        <ele>500.92</ele>
        <time>2016-02-12T20:36:19Z</time>
      </trkpt>
      <trkpt lat="41.761887" lon="2.377321">
        <ele>500.02</ele>
        <time>2016-02-12T20:36:39Z</time>
      </trkpt>
      <trkpt lat="41.761859" lon="2.377283">
        <ele>500.01</ele>
        <time>2016-02-12T20:36:59Z</time>
      </trkpt>
      <trkpt lat="41.761822" lon="2.377285">
        <ele>500.03</ele>
        <time>2016-02-12T20:37:19Z</time>
      </trkpt>
      <trkpt lat="41.761789" lon="2.377330">
        <ele>500.01</ele>
        <time>2016-02-12T20:37:39Z</time>
      </trkpt>
      <trkpt lat="41.761776" lon="2.377409">
        <ele>498.83</ele>
        <time>2016-02-12T20:37:59Z</time>
      </trkpt>
      <trkpt lat="41.761776" lon="2.377497">
        <ele>496.98</ele>
        <time>2016-02-12T20:38:19Z</time>
      </trkpt>
      <trkpt lat="41.761785" lon="2.377587">
        <ele>495.87</ele>
        <time>2016-02-12T20:38:39Z</time>
      </trkpt>
      <trkpt lat="41.761799" lon="2.377684">
        <ele>494.07</ele>
        <time>2016-02-12T20:38:59Z</time>
      </trkpt>
      <trkpt lat="41.761820" lon="2.377791">
        <ele>493.94</ele>
        <time>2016-02-12T20:39:19Z</time>
      </trkpt>
      <trkpt lat="41.761845" lon="2.377898">
        <ele>493.30</ele>
        <time>2016-02-12T20:39:39Z</time>
      </trkpt>
      <trkpt lat="41.761876" lon="2.378020">
        <ele>491.73</ele>
        <time>2016-02-12T20:39:59Z</time>
      </trkpt>
      <trkpt lat="41.761904" lon="2.378146">
        <ele>489.09</ele>
        <time>2016-02-12T20:40:19Z</time>
      </trkpt>
      <trkpt lat="41.761932" lon="2.378268">
        <ele>489.01</ele>
        <time>2016-02-12T20:40:39Z</time>
      </trkpt>
      <trkpt lat="41.761957" lon="2.378390">
        <ele>488.91</ele>
        <time>2016-02-12T20:40:59Z</time>
      </trkpt>
      <trkpt lat="41.761981" lon="2.378509">
        <ele>488.07</ele>
        <time>2016-02-12T20:41:19Z</time>
      </trkpt>
      <trkpt lat="41.762002" lon="2.378628">
        <ele>488.07</ele>
        <time>2016-02-12T20:41:39Z</time>
      </trkpt>
      <trkpt lat="41.762015" lon="2.378749">
        <ele>487.08</ele>
        <time>2016-02-12T20:41:59Z</time>
      </trkpt>
      <trkpt lat="41.762024" lon="2.378867">
        <ele>487.02</ele>
        <time>2016-02-12T20:42:19Z</time>
      </trkpt>
      <trkpt lat="41.762029" lon="2.378983">
        <ele>487.14</ele>
        <time>2016-02-12T20:42:39Z</time>
      </trkpt>
      <trkpt lat="41.762031" lon="2.379095">
        <ele>488.07</ele>
        <time>2016-02-12T20:42:59Z</time>
      </trkpt>
      <trkpt lat="41.762034" lon="2.379204">
        <ele>488.05</ele>
        <time>2016-02-12T20:43:19Z</time>
      </trkpt>
      <trkpt lat="41.762033" lon="2.379310">
        <ele>488.04</ele>
        <time>2016-02-12T20:43:39Z</time>
      </trkpt>
      <trkpt lat="41.762029" lon="2.379412">
        <ele>488.02</ele>
        <time>2016-02-12T20:43:59Z</time>
      </trkpt>
      <trkpt lat="41.762025" lon="2.379512">
        <ele>488.10</ele>
        <time>2016-02-12T20:44:19Z</time>
      </trkpt>
      <trkpt lat="41.762027" lon="2.379609">
        <ele>488.02</ele>
        <time>2016-02-12T20:44:39Z</time>
      </trkpt>
      <trkpt lat="41.762035" lon="2.379705">
        <ele>488.01</ele>
        <time>2016-02-12T20:44:59Z</time>
      </trkpt>
      <trkpt lat="41.762055" lon="2.379803">
        <ele>487.96</ele>
        <time>2016-02-12T20:45:19Z</time>
      </trkpt>
      <trkpt lat="41.762093" lon="2.379897">
        <ele>487.29</ele>
        <time>2016-02-12T20:45:39Z</time>
      </trkpt>
      <trkpt lat="41.762152" lon="2.379978">
        <ele>487.06</ele>
        <time>2016-02-12T20:45:59Z</time>
      </trkpt>
      <trkpt lat="41.762226" lon="2.380044">
        <ele>487.03</ele>
        <time>2016-02-12T20:46:19Z</time>
      </trkpt>
      <trkpt lat="41.762308" lon="2.380106">
        <ele>487.05</ele>
        <time>2016-02-12T20:46:39Z</time>
      </trkpt>
      <trkpt lat="41.762395" lon="2.380168">
        <ele>487.06</ele>
        <time>2016-02-12T20:46:59Z</time>
      </trkpt>
      <trkpt lat="41.762485" lon="2.380232">
        <ele>487.08</ele>
        <time>2016-02-12T20:47:19Z</time>
      </trkpt>
      <trkpt lat="41.762575" lon="2.380303">
        <ele>487.05</ele>
        <time>2016-02-12T20:47:39Z</time>
      </trkpt>
      <trkpt lat="41.762667" lon="2.380374">
        <ele>487.05</ele>
        <time>2016-02-12T20:47:59Z</time>
      </trkpt>
      <trkpt lat="41.762754" lon="2.380445">
        <ele>487.06</ele>
        <time>2016-02-12T20:48:19Z</time>
      </trkpt>
      <trkpt lat="41.762834" lon="2.380523">
        <ele>486.52</ele>
        <time>2016-02-12T20:48:39Z</time>
      </trkpt>
      <trkpt lat="41.762899" lon="2.380612">
        <ele>480.71</ele>
        <time>2016-02-12T20:48:59Z</time>
      </trkpt>
      <trkpt lat="41.762940" lon="2.380708">
        <ele>477.74</ele>
        <time>2016-02-12T20:49:19Z</time>
      </trkpt>
      <trkpt lat="41.762963" lon="2.380817">
        <ele>476.23</ele>
        <time>2016-02-12T20:49:39Z</time>
      </trkpt>
      <trkpt lat="41.762982" lon="2.380935">
        <ele>473.80</ele>
        <time>2016-02-12T20:49:59Z</time>
      </trkpt>
      <trkpt lat="41.763005" lon="2.381055">
        <ele>470.86</ele>
        <time>2016-02-12T20:50:19Z</time>
      </trkpt>
      <trkpt lat="41.763029" lon="2.381179">
        <ele>469.07</ele>
        <time>2016-02-12T20:50:39Z</time>
      </trkpt>
      <trkpt lat="41.763046" lon="2.381311">
        <ele>469.01</ele>
        <time>2016-02-12T20:50:59Z</time>
      </trkpt>
      <trkpt lat="41.763051" lon="2.381447">
        <ele>468.89</ele>
        <time>2016-02-12T20:51:19Z</time>
      </trkpt>
      <trkpt lat="41.763042" lon="2.381585">
        <ele>467.00</ele>
        <time>2016-02-12T20:51:39Z</time>
      </trkpt>
      <trkpt lat="41.763023" lon="2.381726">
        <ele>466.10</ele>
        <time>2016-02-12T20:51:59Z</time>
      </trkpt>
      <trkpt lat="41.763003" lon="2.381869">
        <ele>466.01</ele>
        <time>2016-02-12T20:52:19Z</time>
      </trkpt>
      <trkpt lat="41.762989" lon="2.382015">
        <ele>466.03</ele>
        <time>2016-02-12T20:52:39Z</time>
      </trkpt>
      <trkpt lat="41.762983" lon="2.382159">
        <ele>464.81</ele>
        <time>2016-02-12T20:52:59Z</time>
      </trkpt>
      <trkpt lat="41.762982" lon="2.382302">
        <ele>462.84</ele>
        <time>2016-02-12T20:53:19Z</time>
      </trkpt>
      <trkpt lat="41.762982" lon="2.382456">
        <ele>460.92</ele>
        <time>2016-02-12T20:53:39Z</time>
      </trkpt>
      <trkpt lat="41.762969" lon="2.382601">
        <ele>460.26</ele>
        <time>2016-02-12T20:53:59Z</time>
      </trkpt>
      <trkpt lat="41.762941" lon="2.382734">
        <ele>459.96</ele>
        <time>2016-02-12T20:54:19Z</time>
      </trkpt>
      <trkpt lat="41.762898" lon="2.382854">
        <ele>459.00</ele>
        <time>2016-02-12T20:54:39Z</time>
      </trkpt>
      <trkpt lat="41.762840" lon="2.382956">
        <ele>457.95</ele>
        <time>2016-02-12T20:54:59Z</time>
      </trkpt>
      <trkpt lat="41.762766" lon="2.383044">
        <ele>457.07</ele>
        <time>2016-02-12T20:55:19Z</time>
      </trkpt>
      <trkpt lat="41.762678" lon="2.383104">
        <ele>457.02</ele>
        <time>2016-02-12T20:55:39Z</time>
      </trkpt>
      <trkpt lat="41.762579" lon="2.383138">
        <ele>456.27</ele>
        <time>2016-02-12T20:55:59Z</time>
      </trkpt>
      <trkpt lat="41.762472" lon="2.383151">
        <ele>453.84</ele>
        <time>2016-02-12T20:56:19Z</time>
      </trkpt>
      <trkpt lat="41.762368" lon="2.383155">
        <ele>452.03</ele>
        <time>2016-02-12T20:56:39Z</time>
      </trkpt>
      <trkpt lat="41.762267" lon="2.383158">
        <ele>452.01</ele>
        <time>2016-02-12T20:56:59Z</time>
      </trkpt>
      <trkpt lat="41.762179" lon="2.383173">
        <ele>452.03</ele>
        <time>2016-02-12T20:57:19Z</time>
      </trkpt>
      <trkpt lat="41.762103" lon="2.383198">
        <ele>450.85</ele>
        <time>2016-02-12T20:57:39Z</time>
      </trkpt>
      <trkpt lat="41.762037" lon="2.383241">
        <ele>448.95</ele>
        <time>2016-02-12T20:57:59Z</time>
      </trkpt>
      <trkpt lat="41.761982" lon="2.383311">
        <ele>447.90</ele>
        <time>2016-02-12T20:58:19Z</time>
      </trkpt>
      <trkpt lat="41.761937" lon="2.383406">
        <ele>445.83</ele>
        <time>2016-02-12T20:58:39Z</time>
      </trkpt>
      <trkpt lat="41.761897" lon="2.383519">
        <ele>444.07</ele>
        <time>2016-02-12T20:58:59Z</time>
      </trkpt>
      <trkpt lat="41.761856" lon="2.383644">
        <ele>444.03</ele>
        <time>2016-02-12T20:59:19Z</time>
      </trkpt>
      <trkpt lat="41.761811" lon="2.383774">
        <ele>441.65</ele>
        <time>2016-02-12T20:59:39Z</time>
      </trkpt>
      <trkpt lat="41.761768" lon="2.383909">
        <ele>437.97</ele>
        <time>2016-02-12T20:59:59Z</time>
      </trkpt>
      <trkpt lat="41.761729" lon="2.384051">
        <ele>437.04</ele>
        <time>2016-02-12T21:00:19Z</time>
      </trkpt>
      <trkpt lat="41.761686" lon="2.384193">
        <ele>436.92</ele>
        <time>2016-02-12T21:00:39Z</time>
      </trkpt>
      <trkpt lat="41.761637" lon="2.384331">
        <ele>436.21</ele>
        <time>2016-02-12T21:00:59Z</time>
      </trkpt>
      <trkpt lat="41.761594" lon="2.384469">
        <ele>434.72</ele>
        <time>2016-02-12T21:01:19Z</time>
      </trkpt>
      <trkpt lat="41.761559" lon="2.384606">
        <ele>432.06</ele>
        <time>2016-02-12T21:01:39Z</time>
      </trkpt>
      <trkpt lat="41.761520" lon="2.384742">
        <ele>431.99</ele>
        <time>2016-02-12T21:01:59Z</time>
      </trkpt>
      <trkpt lat="41.761464" lon="2.384871">
        <ele>431.39</ele>
        <time>2016-02-12T21:02:19Z</time>
      </trkpt>
      <trkpt lat="41.761395" lon="2.384985">
        <ele>431.07</ele>
        <time>2016-02-12T21:02:39Z</time>
      </trkpt>
      <trkpt lat="41.761329" lon="2.385092">
        <ele>430.98</ele>
        <time>2016-02-12T21:02:59Z</time>
      </trkpt>
      <trkpt lat="41.761285" lon="2.385213">
        <ele>429.97</ele>
        <time>2016-02-12T21:03:19Z</time>
      </trkpt>
      <trkpt lat="41.761268" lon="2.385347">
        <ele>428.98</ele>
        <time>2016-02-12T21:03:39Z</time>
      </trkpt>
      <trkpt lat="41.761277" lon="2.385495">
        <ele>428.25</ele>
        <time>2016-02-12T21:03:59Z</time>
      </trkpt>
      <trkpt lat="41.761310" lon="2.385645">
        <ele>427.76</ele>
        <time>2016-02-12T21:04:19Z</time>
      </trkpt>
      <trkpt lat="41.761355" lon="2.385768">
        <ele>424.91</ele>
        <time>2016-02-12T21:04:39Z</time>
      </trkpt>
      <trkpt lat="41.761408" lon="2.385911">
        <ele>423.91</ele>
        <time>2016-02-12T21:04:59Z</time>
      </trkpt>
      <trkpt lat="41.761452" lon="2.386051">
        <ele>423.28</ele>
        <time>2016-02-12T21:05:19Z</time>
      </trkpt>
      <trkpt lat="41.761499" lon="2.386184">
        <ele>420.96</ele>
        <time>2016-02-12T21:05:39Z</time>
      </trkpt>
      <trkpt lat="41.761555" lon="2.386304">
        <ele>419.92</ele>
        <time>2016-02-12T21:05:59Z</time>
      </trkpt>
      <trkpt lat="41.761625" lon="2.386403">
        <ele>419.09</ele>
        <time>2016-02-12T21:06:19Z</time>
      </trkpt>
      <trkpt lat="41.761699" lon="2.386478">
        <ele>418.83</ele>
        <time>2016-02-12T21:06:39Z</time>
      </trkpt>
      <trkpt lat="41.761777" lon="2.386529">
        <ele>416.96</ele>
        <time>2016-02-12T21:06:59Z</time>
      </trkpt>
      <trkpt lat="41.761868" lon="2.386537">
        <ele>415.34</ele>
        <time>2016-02-12T21:07:19Z</time>
      </trkpt>
      <trkpt lat="41.761963" lon="2.386517">
        <ele>413.97</ele>
        <time>2016-02-12T21:07:39Z</time>
      </trkpt>
      <trkpt lat="41.762054" lon="2.386471">
        <ele>412.91</ele>
        <time>2016-02-12T21:07:59Z</time>
      </trkpt>
      <trkpt lat="41.762133" lon="2.386403">
        <ele>411.94</ele>
        <time>2016-02-12T21:08:19Z</time>
      </trkpt>
      <trkpt lat="41.762196" lon="2.386330">
        <ele>411.21</ele>
        <time>2016-02-12T21:08:39Z</time>
      </trkpt>
      <trkpt lat="41.762255" lon="2.386258">
        <ele>410.21</ele>
        <time>2016-02-12T21:08:59Z</time>
      </trkpt>
      <trkpt lat="41.762310" lon="2.386208">
        <ele>409.04</ele>
        <time>2016-02-12T21:09:19Z</time>
      </trkpt>
      <trkpt lat="41.762356" lon="2.386188">
        <ele>409.05</ele>
        <time>2016-02-12T21:09:39Z</time>
      </trkpt>
      <trkpt lat="41.762405" lon="2.386197">
        <ele>408.96</ele>
        <time>2016-02-12T21:09:59Z</time>
      </trkpt>
      <trkpt lat="41.762446" lon="2.386245">
        <ele>407.98</ele>
        <time>2016-02-12T21:10:19Z</time>
      </trkpt>
      <trkpt lat="41.762474" lon="2.386320">
        <ele>406.94</ele>
        <time>2016-02-12T21:10:39Z</time>
      </trkpt>
      <trkpt lat="41.762491" lon="2.386399">
        <ele>405.99</ele>
        <time>2016-02-12T21:10:59Z</time>
      </trkpt>
      <trkpt lat="41.762506" lon="2.386479">
        <ele>405.07</ele>
        <time>2016-02-12T21:11:19Z</time>
      </trkpt>
      <trkpt lat="41.762526" lon="2.386550">
        <ele>405.05</ele>
        <time>2016-02-12T21:11:39Z</time>
      </trkpt>
      <trkpt lat="41.762551" lon="2.386596">
        <ele>405.10</ele>
        <time>2016-02-12T21:11:59Z</time>
      </trkpt>
      <trkpt lat="41.762583" lon="2.386631">
        <ele>405.02</ele>
        <time>2016-02-12T21:12:19Z</time>
      </trkpt>
      <trkpt lat="41.762606" lon="2.386650">
        <ele>405.02</ele>
        <time>2016-02-12T21:12:39Z</time>
      </trkpt>
      <trkpt lat="41.762625" lon="2.386676">
        <ele>405.01</ele>
        <time>2016-02-12T21:12:59Z</time>
      </trkpt>
      <trkpt lat="41.762655" lon="2.386688">
        <ele>406.08</ele>
        <time>2016-02-12T21:13:19Z</time>
      </trkpt>
      <trkpt lat="41.762681" lon="2.386735">
        <ele>406.01</ele>
        <time>2016-02-12T21:13:39Z</time>
      </trkpt>
      <trkpt lat="41.762697" lon="2.386773">
        <ele>406.07</ele>
        <time>2016-02-12T21:13:59Z</time>
      </trkpt>
      <trkpt lat="41.762706" lon="2.386822">
        <ele>406.08</ele>
        <time>2016-02-12T21:14:19Z</time>
      </trkpt>
      <trkpt lat="41.762705" lon="2.386877">
        <ele>406.02</ele>
        <time>2016-02-12T21:14:39Z</time>
      </trkpt>
      <trkpt lat="41.762696" lon="2.386935">
        <ele>406.06</ele>
        <time>2016-02-12T21:14:59Z</time>
      </trkpt>
      <trkpt lat="41.762683" lon="2.387000">
        <ele>406.04</ele>
        <time>2016-02-12T21:15:19Z</time>
      </trkpt>
      <trkpt lat="41.762671" lon="2.387067">
        <ele>406.06</ele>
        <time>2016-02-12T21:15:39Z</time>
      </trkpt>
      <trkpt lat="41.762628" lon="2.387185">
        <ele>403.09</ele>
        <time>2016-02-12T21:15:59Z</time>
      </trkpt>
      <trkpt lat="41.762601" lon="2.387245">
        <ele>403.01</ele>
        <time>2016-02-12T21:16:19Z</time>
      </trkpt>
      <trkpt lat="41.762558" lon="2.387359">
        <ele>403.03</ele>
        <time>2016-02-12T21:16:39Z</time>
      </trkpt>
      <trkpt lat="41.762516" lon="2.387472">
        <ele>403.01</ele>
        <time>2016-02-12T21:16:59Z</time>
      </trkpt>
      <trkpt lat="41.762471" lon="2.387594">
        <ele>403.07</ele>
        <time>2016-02-12T21:17:19Z</time>
      </trkpt>
      <trkpt lat="41.762450" lon="2.387652">
        <ele>403.11</ele>
        <time>2016-02-12T21:17:39Z</time>
      </trkpt>
      <trkpt lat="41.762403" lon="2.387757">
        <ele>404.04</ele>
        <time>2016-02-12T21:17:59Z</time>
      </trkpt>
      <trkpt lat="41.762328" lon="2.387865">
        <ele>404.01</ele>
        <time>2016-02-12T21:18:19Z</time>
      </trkpt>
      <trkpt lat="41.762242" lon="2.387972">
        <ele>404.07</ele>
        <time>2016-02-12T21:18:39Z</time>
      </trkpt>
      <trkpt lat="41.762151" lon="2.388025">
        <ele>408.05</ele>
        <time>2016-02-12T21:18:59Z</time>
      </trkpt>
      <trkpt lat="41.762115" lon="2.388039">
        <ele>408.04</ele>
        <time>2016-02-12T21:19:19Z</time>
      </trkpt>
      <trkpt lat="41.762077" lon="2.388045">
        <ele>408.07</ele>
        <time>2016-02-12T21:19:39Z</time>
      </trkpt>
      <trkpt lat="41.762040" lon="2.388052">
        <ele>408.05</ele>
        <time>2016-02-12T21:19:59Z</time>
      </trkpt>
      <trkpt lat="41.762000" lon="2.388063">
        <ele>408.03</ele>
        <time>2016-02-12T21:20:19Z</time>
      </trkpt>
      <trkpt lat="41.761959" lon="2.388074">
        <ele>408.02</ele>
        <time>2016-02-12T21:20:39Z</time>
      </trkpt>
      <trkpt lat="41.761914" lon="2.388088">
        <ele>408.01</ele>
        <time>2016-02-12T21:20:59Z</time>
      </trkpt>
      <trkpt lat="41.761867" lon="2.388099">
        <ele>408.07</ele>
        <time>2016-02-12T21:21:19Z</time>
      </trkpt>
      <trkpt lat="41.761816" lon="2.388110">
        <ele>408.06</ele>
        <time>2016-02-12T21:21:39Z</time>
      </trkpt>
      <trkpt lat="41.761763" lon="2.388120">
        <ele>408.08</ele>
        <time>2016-02-12T21:21:59Z</time>
      </trkpt>
      <trkpt lat="41.761710" lon="2.388128">
        <ele>408.05</ele>
        <time>2016-02-12T21:22:19Z</time>
      </trkpt>
      <trkpt lat="41.761655" lon="2.388133">
        <ele>408.07</ele>
        <time>2016-02-12T21:22:39Z</time>
      </trkpt>
      <trkpt lat="41.761599" lon="2.388134">
        <ele>408.07</ele>
        <time>2016-02-12T21:22:59Z</time>
      </trkpt>
      <trkpt lat="41.761540" lon="2.388135">
        <ele>408.06</ele>
        <time>2016-02-12T21:23:19Z</time>
      </trkpt>
      <trkpt lat="41.761476" lon="2.388138">
        <ele>408.08</ele>
        <time>2016-02-12T21:23:39Z</time>
      </trkpt>
      <trkpt lat="41.761406" lon="2.388142">
        <ele>408.08</ele>
        <time>2016-02-12T21:23:59Z</time>
      </trkpt>
      <trkpt lat="41.761332" lon="2.388149">
        <ele>408.06</ele>
        <time>2016-02-12T21:24:19Z</time>
      </trkpt>
      <trkpt lat="41.761259" lon="2.388158">
        <ele>408.03</ele>
        <time>2016-02-12T21:24:39Z</time>
      </trkpt>
      <trkpt lat="41.761181" lon="2.388181">
        <ele>408.01</ele>
        <time>2016-02-12T21:24:59Z</time>
      </trkpt>
      <trkpt lat="41.761098" lon="2.388218">
        <ele>407.62</ele>
        <time>2016-02-12T21:25:19Z</time>
      </trkpt>
      <trkpt lat="41.761007" lon="2.388274">
        <ele>403.27</ele>
        <time>2016-02-12T21:25:39Z</time>
      </trkpt>
      <trkpt lat="41.760912" lon="2.388334">
        <ele>396.08</ele>
        <time>2016-02-12T21:25:59Z</time>
      </trkpt>
      <trkpt lat="41.760805" lon="2.388392">
        <ele>396.03</ele>
        <time>2016-02-12T21:26:19Z</time>
      </trkpt>
      <trkpt lat="41.760695" lon="2.388433">
        <ele>395.92</ele>
        <time>2016-02-12T21:26:39Z</time>
      </trkpt>
      <trkpt lat="41.760583" lon="2.388460">
        <ele>394.37</ele>
        <time>2016-02-12T21:26:59Z</time>
      </trkpt>
      <trkpt lat="41.760476" lon="2.388492">
        <ele>392.97</ele>
        <time>2016-02-12T21:27:19Z</time>
      </trkpt>
      <trkpt lat="41.760369" lon="2.388527">
        <ele>391.99</ele>
        <time>2016-02-12T21:27:39Z</time>
      </trkpt>
      <trkpt lat="41.760266" lon="2.388562">
        <ele>391.02</ele>
        <time>2016-02-12T21:27:59Z</time>
      </trkpt>
      <trkpt lat="41.760168" lon="2.388613">
        <ele>391.04</ele>
        <time>2016-02-12T21:28:19Z</time>
      </trkpt>
      <trkpt lat="41.760073" lon="2.388671">
        <ele>391.01</ele>
        <time>2016-02-12T21:28:39Z</time>
      </trkpt>
      <trkpt lat="41.759983" lon="2.388732">
        <ele>390.91</ele>
        <time>2016-02-12T21:28:59Z</time>
      </trkpt>
      <trkpt lat="41.759893" lon="2.388795">
        <ele>389.92</ele>
        <time>2016-02-12T21:29:19Z</time>
      </trkpt>
      <trkpt lat="41.759803" lon="2.388862">
        <ele>389.01</ele>
        <time>2016-02-12T21:29:39Z</time>
      </trkpt>
      <trkpt lat="41.759717" lon="2.388923">
        <ele>389.09</ele>
        <time>2016-02-12T21:29:59Z</time>
      </trkpt>
      <trkpt lat="41.759633" lon="2.388982">
        <ele>389.02</ele>
        <time>2016-02-12T21:30:19Z</time>
      </trkpt>
      <trkpt lat="41.759552" lon="2.389040">
        <ele>389.02</ele>
        <time>2016-02-12T21:30:39Z</time>
      </trkpt>
      <trkpt lat="41.759471" lon="2.389097">
        <ele>389.06</ele>
        <time>2016-02-12T21:30:59Z</time>
      </trkpt>
      <trkpt lat="41.759392" lon="2.389153">
        <ele>389.05</ele>
        <time>2016-02-12T21:31:19Z</time>
      </trkpt>
      <trkpt lat="41.759315" lon="2.389205">
        <ele>389.08</ele>
        <time>2016-02-12T21:31:39Z</time>
      </trkpt>
      <trkpt lat="41.759241" lon="2.389254">
        <ele>389.02</ele>
        <time>2016-02-12T21:31:59Z</time>
      </trkpt>
      <trkpt lat="41.759168" lon="2.389303">
        <ele>389.09</ele>
        <time>2016-02-12T21:32:19Z</time>
      </trkpt>
      <trkpt lat="41.759096" lon="2.389345">
        <ele>389.01</ele>
        <time>2016-02-12T21:32:39Z</time>
      </trkpt>
      <trkpt lat="41.759026" lon="2.389381">
        <ele>389.01</ele>
        <time>2016-02-12T21:32:59Z</time>
      </trkpt>
      <trkpt lat="41.758961" lon="2.389407">
        <ele>389.05</ele>
        <time>2016-02-12T21:33:19Z</time>
      </trkpt>
      <trkpt lat="41.758902" lon="2.389431">
        <ele>389.06</ele>
        <time>2016-02-12T21:33:39Z</time>
      </trkpt>
      <trkpt lat="41.758851" lon="2.389455">
        <ele>389.03</ele>
        <time>2016-02-12T21:33:59Z</time>
      </trkpt>
      <trkpt lat="41.758804" lon="2.389478">
        <ele>389.07</ele>
        <time>2016-02-12T21:34:19Z</time>
      </trkpt>
      <trkpt lat="41.758762" lon="2.389507">
        <ele>389.02</ele>
        <time>2016-02-12T21:34:39Z</time>
      </trkpt>
      <trkpt lat="41.758723" lon="2.389543">
        <ele>389.07</ele>
        <time>2016-02-12T21:34:59Z</time>
      </trkpt>
      <trkpt lat="41.758686" lon="2.389581">
        <ele>389.02</ele>
        <time>2016-02-12T21:35:19Z</time>
      </trkpt>
      <trkpt lat="41.758646" lon="2.389623">
        <ele>394.07</ele>
        <time>2016-02-12T21:35:39Z</time>
      </trkpt>
      <trkpt lat="41.758608" lon="2.389668">
        <ele>394.10</ele>
        <time>2016-02-12T21:35:59Z</time>
      </trkpt>
      <trkpt lat="41.758569" lon="2.389711">
        <ele>394.01</ele>
        <time>2016-02-12T21:36:19Z</time>
      </trkpt>
      <trkpt lat="41.758532" lon="2.389752">
        <ele>394.03</ele>
        <time>2016-02-12T21:36:39Z</time>
      </trkpt>
      <trkpt lat="41.758499" lon="2.389791">
        <ele>394.31</ele>
        <time>2016-02-12T21:36:59Z</time>
      </trkpt>
      <trkpt lat="41.758466" lon="2.389829">
        <ele>397.07</ele>
        <time>2016-02-12T21:37:19Z</time>
      </trkpt>
      <trkpt lat="41.758435" lon="2.389867">
        <ele>397.02</ele>
        <time>2016-02-12T21:37:39Z</time>
      </trkpt>
      <trkpt lat="41.758405" lon="2.389902">
        <ele>397.09</ele>
        <time>2016-02-12T21:37:59Z</time>
      </trkpt>
      <trkpt lat="41.758377" lon="2.389931">
        <ele>397.09</ele>
        <time>2016-02-12T21:38:19Z</time>
      </trkpt>
      <trkpt lat="41.758351" lon="2.389959">
        <ele>397.44</ele>
        <time>2016-02-12T21:38:39Z</time>
      </trkpt>
      <trkpt lat="41.758329" lon="2.389987">
        <ele>401.08</ele>
        <time>2016-02-12T21:38:59Z</time>
      </trkpt>
      <trkpt lat="41.758310" lon="2.390019">
        <ele>401.07</ele>
        <time>2016-02-12T21:39:19Z</time>
      </trkpt>
      <trkpt lat="41.758290" lon="2.390057">
        <ele>402.04</ele>
        <time>2016-02-12T21:39:39Z</time>
      </trkpt>
      <trkpt lat="41.758270" lon="2.390096">
        <ele>402.08</ele>
        <time>2016-02-12T21:39:59Z</time>
      </trkpt>
      <trkpt lat="41.758250" lon="2.390138">
        <ele>402.09</ele>
        <time>2016-02-12T21:40:19Z</time>
      </trkpt>
      <trkpt lat="41.758224" lon="2.390178">
        <ele>402.02</ele>
        <time>2016-02-12T21:40:39Z</time>
      </trkpt>
      <trkpt lat="41.758196" lon="2.390220">
        <ele>402.11</ele>
        <time>2016-02-12T21:40:59Z</time>
      </trkpt>
      <trkpt lat="41.758173" lon="2.390259">
        <ele>403.18</ele>
        <time>2016-02-12T21:41:19Z</time>
      </trkpt>
      <trkpt lat="41.758153" lon="2.390296">
        <ele>404.09</ele>
        <time>2016-02-12T21:41:39Z</time>
      </trkpt>
      <trkpt lat="41.758129" lon="2.390339">
        <ele>404.06</ele>
        <time>2016-02-12T21:41:59Z</time>
      </trkpt>
      <trkpt lat="41.758107" lon="2.390375">
        <ele>404.09</ele>
        <time>2016-02-12T21:42:19Z</time>
      </trkpt>
      <trkpt lat="41.758085" lon="2.390407">
        <ele>404.03</ele>
        <time>2016-02-12T21:42:39Z</time>
      </trkpt>
      <trkpt lat="41.758066" lon="2.390439">
        <ele>404.04</ele>
        <time>2016-02-12T21:42:59Z</time>
      </trkpt>
      <trkpt lat="41.758046" lon="2.390480">
        <ele>404.08</ele>
        <time>2016-02-12T21:43:19Z</time>
      </trkpt>
      <trkpt lat="41.758031" lon="2.390522">
        <ele>404.17</ele>
        <time>2016-02-12T21:43:39Z</time>
      </trkpt>
      <trkpt lat="41.758020" lon="2.390563">
        <ele>405.72</ele>
        <time>2016-02-12T21:43:59Z</time>
      </trkpt>
      <trkpt lat="41.758008" lon="2.390601">
        <ele>406.10</ele>
        <time>2016-02-12T21:44:19Z</time>
      </trkpt>
      <trkpt lat="41.757996" lon="2.390649">
        <ele>406.02</ele>
        <time>2016-02-12T21:44:39Z</time>
      </trkpt>
      <trkpt lat="41.757988" lon="2.390693">
        <ele>406.01</ele>
        <time>2016-02-12T21:44:59Z</time>
      </trkpt>
      <trkpt lat="41.757985" lon="2.390743">
        <ele>406.24</ele>
        <time>2016-02-12T21:45:19Z</time>
      </trkpt>
      <trkpt lat="41.757986" lon="2.390790">
        <ele>408.09</ele>
        <time>2016-02-12T21:45:39Z</time>
      </trkpt>
      <trkpt lat="41.757985" lon="2.390836">
        <ele>408.01</ele>
        <time>2016-02-12T21:45:59Z</time>
      </trkpt>
      <trkpt lat="41.757984" lon="2.390878">
        <ele>408.03</ele>
        <time>2016-02-12T21:46:19Z</time>
      </trkpt>
      <trkpt lat="41.757981" lon="2.390922">
        <ele>408.09</ele>
        <time>2016-02-12T21:46:39Z</time>
      </trkpt>
      <trkpt lat="41.757979" lon="2.390966">
        <ele>408.13</ele>
        <time>2016-02-12T21:46:59Z</time>
      </trkpt>
      <trkpt lat="41.757977" lon="2.391006">
        <ele>409.06</ele>
        <time>2016-02-12T21:47:19Z</time>
      </trkpt>
      <trkpt lat="41.757971" lon="2.391045">
        <ele>409.07</ele>
        <time>2016-02-12T21:47:39Z</time>
      </trkpt>
      <trkpt lat="41.757966" lon="2.391085">
        <ele>409.06</ele>
        <time>2016-02-12T21:47:59Z</time>
      </trkpt>
      <trkpt lat="41.757963" lon="2.391127">
        <ele>409.01</ele>
        <time>2016-02-12T21:48:19Z</time>
      </trkpt>
      <trkpt lat="41.757956" lon="2.391165">
        <ele>409.12</ele>
        <time>2016-02-12T21:48:39Z</time>
      </trkpt>
      <trkpt lat="41.757947" lon="2.391206">
        <ele>409.91</ele>
        <time>2016-02-12T21:48:59Z</time>
      </trkpt>
      <trkpt lat="41.757937" lon="2.391247">
        <ele>410.02</ele>
        <time>2016-02-12T21:49:19Z</time>
      </trkpt>
      <trkpt lat="41.757925" lon="2.391287">
        <ele>410.10</ele>
        <time>2016-02-12T21:49:39Z</time>
      </trkpt>
      <trkpt lat="41.757913" lon="2.391325">
        <ele>410.08</ele>
        <time>2016-02-12T21:49:59Z</time>
      </trkpt>
      <trkpt lat="41.757902" lon="2.391368">
        <ele>410.30</ele>
        <time>2016-02-12T21:50:19Z</time>
      </trkpt>
      <trkpt lat="41.757893" lon="2.391414">
        <ele>412.07</ele>
        <time>2016-02-12T21:50:39Z</time>
      </trkpt>
      <trkpt lat="41.757887" lon="2.391462">
        <ele>412.05</ele>
        <time>2016-02-12T21:50:59Z</time>
      </trkpt>
      <trkpt lat="41.757885" lon="2.391514">
        <ele>412.07</ele>
        <time>2016-02-12T21:51:19Z</time>
      </trkpt>
      <trkpt lat="41.757888" lon="2.391567">
        <ele>412.04</ele>
        <time>2016-02-12T21:51:39Z</time>
      </trkpt>
      <trkpt lat="41.757891" lon="2.391621">
        <ele>412.02</ele>
        <time>2016-02-12T21:51:59Z</time>
      </trkpt>
      <trkpt lat="41.757890" lon="2.391675">
        <ele>412.00</ele>
        <time>2016-02-12T21:52:19Z</time>
      </trkpt>
      <trkpt lat="41.757884" lon="2.391730">
        <ele>412.01</ele>
        <time>2016-02-12T21:52:39Z</time>
      </trkpt>
      <trkpt lat="41.757876" lon="2.391785">
        <ele>412.01</ele>
        <time>2016-02-12T21:52:59Z</time>
      </trkpt>
      <trkpt lat="41.757868" lon="2.391840">
        <ele>412.01</ele>
        <time>2016-02-12T21:53:19Z</time>
      </trkpt>
      <trkpt lat="41.757864" lon="2.391893">
        <ele>412.04</ele>
        <time>2016-02-12T21:53:39Z</time>
      </trkpt>
      <trkpt lat="41.757864" lon="2.391947">
        <ele>412.07</ele>
        <time>2016-02-12T21:53:59Z</time>
      </trkpt>
      <trkpt lat="41.757870" lon="2.392001">
        <ele>412.08</ele>
        <time>2016-02-12T21:54:19Z</time>
      </trkpt>
      <trkpt lat="41.757882" lon="2.392054">
        <ele>412.05</ele>
        <time>2016-02-12T21:54:39Z</time>
      </trkpt>
      <trkpt lat="41.757898" lon="2.392106">
        <ele>412.03</ele>
        <time>2016-02-12T21:54:59Z</time>
      </trkpt>
      <trkpt lat="41.757918" lon="2.392156">
        <ele>411.96</ele>
        <time>2016-02-12T21:55:19Z</time>
      </trkpt>
      <trkpt lat="41.757936" lon="2.392207">
        <ele>411.09</ele>
        <time>2016-02-12T21:55:39Z</time>
      </trkpt>
      <trkpt lat="41.757951" lon="2.392259">
        <ele>411.05</ele>
        <time>2016-02-12T21:55:59Z</time>
      </trkpt>
      <trkpt lat="41.757963" lon="2.392311">
        <ele>411.05</ele>
        <time>2016-02-12T21:56:19Z</time>
      </trkpt>
      <trkpt lat="41.757972" lon="2.392363">
        <ele>411.01</ele>
        <time>2016-02-12T21:56:39Z</time>
      </trkpt>
      <trkpt lat="41.757975" lon="2.392413">
        <ele>411.01</ele>
        <time>2016-02-12T21:56:59Z</time>
      </trkpt>
      <trkpt lat="41.757975" lon="2.392460">
        <ele>411.01</ele>
        <time>2016-02-12T21:57:19Z</time>
      </trkpt>
      <trkpt lat="41.757972" lon="2.392503">
        <ele>411.04</ele>
        <time>2016-02-12T21:57:39Z</time>
      </trkpt>
      <trkpt lat="41.757964" lon="2.392546">
        <ele>411.02</ele>
        <time>2016-02-12T21:57:59Z</time>
      </trkpt>
      <trkpt lat="41.757952" lon="2.392590">
        <ele>411.08</ele>
        <time>2016-02-12T21:58:19Z</time>
      </trkpt>
      <trkpt lat="41.757941" lon="2.392627">
        <ele>411.45</ele>
        <time>2016-02-12T21:58:39Z</time>
      </trkpt>
      <trkpt lat="41.757922" lon="2.392663">
        <ele>415.06</ele>
        <time>2016-02-12T21:58:59Z</time>
      </trkpt>
      <trkpt lat="41.757901" lon="2.392694">
        <ele>415.05</ele>
        <time>2016-02-12T21:59:19Z</time>
      </trkpt>
      <trkpt lat="41.757876" lon="2.392721">
        <ele>415.09</ele>
        <time>2016-02-12T21:59:39Z</time>
      </trkpt>
      <trkpt lat="41.757852" lon="2.392745">
        <ele>415.06</ele>
        <time>2016-02-12T21:59:59Z</time>
      </trkpt>
      <trkpt lat="41.757831" lon="2.392760">
        <ele>415.20</ele>
        <time>2016-02-12T22:00:19Z</time>
      </trkpt>
      <trkpt lat="41.757811" lon="2.392774">
        <ele>417.02</ele>
        <time>2016-02-12T22:00:39Z</time>
      </trkpt>
      <trkpt lat="41.757791" lon="2.392784">
        <ele>417.01</ele>
        <time>2016-02-12T22:00:59Z</time>
      </trkpt>
      <trkpt lat="41.757771" lon="2.392795">
        <ele>417.06</ele>
        <time>2016-02-12T22:01:19Z</time>
      </trkpt>
      <trkpt lat="41.757748" lon="2.392807">
        <ele>417.07</ele>
        <time>2016-02-12T22:01:39Z</time>
      </trkpt>
      <trkpt lat="41.757725" lon="2.392823">
        <ele>417.29</ele>
        <time>2016-02-12T22:01:59Z</time>
      </trkpt>
      <trkpt lat="41.757706" lon="2.392843">
        <ele>419.03</ele>
        <time>2016-02-12T22:02:19Z</time>
      </trkpt>
      <trkpt lat="41.757688" lon="2.392862">
        <ele>419.09</ele>
        <time>2016-02-12T22:02:39Z</time>
      </trkpt>
      <trkpt lat="41.757671" lon="2.392878">
        <ele>419.03</ele>
        <time>2016-02-12T22:02:59Z</time>
      </trkpt>
      <trkpt lat="41.757652" lon="2.392893">
        <ele>419.06</ele>
        <time>2016-02-12T22:03:19Z</time>
      </trkpt>
      <trkpt lat="41.757637" lon="2.392911">
        <ele>419.03</ele>
        <time>2016-02-12T22:03:39Z</time>
      </trkpt>
      <trkpt lat="41.757613" lon="2.392948">
        <ele>421.02</ele>
        <time>2016-02-12T22:03:59Z</time>
      </trkpt>
      <trkpt lat="41.757601" lon="2.392971">
        <ele>421.09</ele>
        <time>2016-02-12T22:04:19Z</time>
      </trkpt>
      <trkpt lat="41.757592" lon="2.392995">
        <ele>421.01</ele>
        <time>2016-02-12T22:04:39Z</time>
      </trkpt>
      <trkpt lat="41.757584" lon="2.393017">
        <ele>421.01</ele>
        <time>2016-02-12T22:04:59Z</time>
      </trkpt>
      <trkpt lat="41.757576" lon="2.393040">
        <ele>421.03</ele>
        <time>2016-02-12T22:05:19Z</time>
      </trkpt>
      <trkpt lat="41.757569" lon="2.393067">
        <ele>421.03</ele>
        <time>2016-02-12T22:05:39Z</time>
      </trkpt>
      <trkpt lat="41.757563" lon="2.393094">
        <ele>421.01</ele>
        <time>2016-02-12T22:05:59Z</time>
      </trkpt>
      <trkpt lat="41.757558" lon="2.393122">
        <ele>421.06</ele>
        <time>2016-02-12T22:06:19Z</time>
      </trkpt>
      <trkpt lat="41.757550" lon="2.393153">
        <ele>421.04</ele>
        <time>2016-02-12T22:06:39Z</time>
      </trkpt>
      <trkpt lat="41.757539" lon="2.393184">
        <ele>421.03</ele>
        <time>2016-02-12T22:06:59Z</time>
      </trkpt>
      <trkpt lat="41.757523" lon="2.393218">
        <ele>421.08</ele>
        <time>2016-02-12T22:07:19Z</time>
      </trkpt>
      <trkpt lat="41.757506" lon="2.393252">
        <ele>421.01</ele>
        <time>2016-02-12T22:07:39Z</time>
      </trkpt>
      <trkpt lat="41.757492" lon="2.393285">
        <ele>421.05</ele>
        <time>2016-02-12T22:07:59Z</time>
      </trkpt>
      <trkpt lat="41.757477" lon="2.393316">
        <ele>421.13</ele>
        <time>2016-02-12T22:08:19Z</time>
      </trkpt>
      <trkpt lat="41.757462" lon="2.393348">
        <ele>422.02</ele>
        <time>2016-02-12T22:08:39Z</time>
      </trkpt>
      <trkpt lat="41.757447" lon="2.393383">
        <ele>422.01</ele>
        <time>2016-02-12T22:08:59Z</time>
      </trkpt>
      <trkpt lat="41.757434" lon="2.393417">
        <ele>422.10</ele>
        <time>2016-02-12T22:09:19Z</time>
      </trkpt>
      <trkpt lat="41.757420" lon="2.393452">
        <ele>422.07</ele>
        <time>2016-02-12T22:09:39Z</time>
      </trkpt>
      <trkpt lat="41.757406" lon="2.393489">
        <ele>422.06</ele>
        <time>2016-02-12T22:09:59Z</time>
      </trkpt>
      <trkpt lat="41.757393" lon="2.393527">
        <ele>422.02</ele>
        <time>2016-02-12T22:10:19Z</time>
      </trkpt>
      <trkpt lat="41.757382" lon="2.393563">
        <ele>422.08</ele>
        <time>2016-02-12T22:10:39Z</time>
      </trkpt>
      <trkpt lat="41.757369" lon="2.393600">
        <ele>422.07</ele>
        <time>2016-02-12T22:10:59Z</time>
      </trkpt>
      <trkpt lat="41.757356" lon="2.393634">
        <ele>422.02</ele>
        <time>2016-02-12T22:11:19Z</time>
      </trkpt>
      <trkpt lat="41.757346" lon="2.393668">
        <ele>422.29</ele>
        <time>2016-02-12T22:11:39Z</time>
      </trkpt>
      <trkpt lat="41.757336" lon="2.393704">
        <ele>424.07</ele>
        <time>2016-02-12T22:11:59Z</time>
      </trkpt>
      <trkpt lat="41.757326" lon="2.393735">
        <ele>424.06</ele>
        <time>2016-02-12T22:12:19Z</time>
      </trkpt>
      <trkpt lat="41.757315" lon="2.393766">
        <ele>424.02</ele>
        <time>2016-02-12T22:12:39Z</time>
      </trkpt>
      <trkpt lat="41.757306" lon="2.393796">
        <ele>424.01</ele>
        <time>2016-02-12T22:12:59Z</time>
      </trkpt>
      <trkpt lat="41.757297" lon="2.393821">
        <ele>424.09</ele>
        <time>2016-02-12T22:13:19Z</time>
      </trkpt>
      <trkpt lat="41.757286" lon="2.393850">
        <ele>424.05</ele>
        <time>2016-02-12T22:13:39Z</time>
      </trkpt>
      <trkpt lat="41.757276" lon="2.393879">
        <ele>424.05</ele>
        <time>2016-02-12T22:13:59Z</time>
      </trkpt>
      <trkpt lat="41.757268" lon="2.393911">
        <ele>424.02</ele>
        <time>2016-02-12T22:14:19Z</time>
      </trkpt>
      <trkpt lat="41.757261" lon="2.393943">
        <ele>424.08</ele>
        <time>2016-02-12T22:14:39Z</time>
      </trkpt>
      <trkpt lat="41.757256" lon="2.393978">
        <ele>424.13</ele>
        <time>2016-02-12T22:14:59Z</time>
      </trkpt>
      <trkpt lat="41.757253" lon="2.394013">
        <ele>425.08</ele>
        <time>2016-02-12T22:15:19Z</time>
      </trkpt>
      <trkpt lat="41.757246" lon="2.394048">
        <ele>425.07</ele>
        <time>2016-02-12T22:15:39Z</time>
      </trkpt>
      <trkpt lat="41.757235" lon="2.394081">
        <ele>425.06</ele>
        <time>2016-02-12T22:15:59Z</time>
      </trkpt>
      <trkpt lat="41.757223" lon="2.394114">
        <ele>425.01</ele>
        <time>2016-02-12T22:16:19Z</time>
      </trkpt>
      <trkpt lat="41.757208" lon="2.394150">
        <ele>425.02</ele>
        <time>2016-02-12T22:16:39Z</time>
      </trkpt>
      <trkpt lat="41.757190" lon="2.394184">
        <ele>425.01</ele>
        <time>2016-02-12T22:16:59Z</time>
      </trkpt>
      <trkpt lat="41.757167" lon="2.394210">
        <ele>425.02</ele>
        <time>2016-02-12T22:17:19Z</time>
      </trkpt>
      <trkpt lat="41.757140" lon="2.394224">
        <ele>425.08</ele>
        <time>2016-02-12T22:17:39Z</time>
      </trkpt>
      <trkpt lat="41.757110" lon="2.394229">
        <ele>425.10</ele>
        <time>2016-02-12T22:17:59Z</time>
      </trkpt>
      <trkpt lat="41.757078" lon="2.394226">
        <ele>425.25</ele>
        <time>2016-02-12T22:18:19Z</time>
      </trkpt>
      <trkpt lat="41.757045" lon="2.394217">
        <ele>427.01</ele>
        <time>2016-02-12T22:18:39Z</time>
      </trkpt>
      <trkpt lat="41.757009" lon="2.394205">
        <ele>427.07</ele>
        <time>2016-02-12T22:18:59Z</time>
      </trkpt>
      <trkpt lat="41.756977" lon="2.394193">
        <ele>427.08</ele>
        <time>2016-02-12T22:19:19Z</time>
      </trkpt>
      <trkpt lat="41.756946" lon="2.394181">
        <ele>427.08</ele>
        <time>2016-02-12T22:19:39Z</time>
      </trkpt>
      <trkpt lat="41.756912" lon="2.394172">
        <ele>427.07</ele>
        <time>2016-02-12T22:19:59Z</time>
      </trkpt>
      <trkpt lat="41.756881" lon="2.394162">
        <ele>427.03</ele>
        <time>2016-02-12T22:20:19Z</time>
      </trkpt>
      <trkpt lat="41.756848" lon="2.394153">
        <ele>427.02</ele>
        <time>2016-02-12T22:20:39Z</time>
      </trkpt>
      <trkpt lat="41.756816" lon="2.394147">
        <ele>427.01</ele>
        <time>2016-02-12T22:20:59Z</time>
      </trkpt>
      <trkpt lat="41.756784" lon="2.394142">
        <ele>427.10</ele>
        <time>2016-02-12T22:21:19Z</time>
      </trkpt>
      <trkpt lat="41.756751" lon="2.394136">
        <ele>427.05</ele>
        <time>2016-02-12T22:21:39Z</time>
      </trkpt>
      <trkpt lat="41.756718" lon="2.394127">
        <ele>427.10</ele>
        <time>2016-02-12T22:21:59Z</time>
      </trkpt>
      <trkpt lat="41.756683" lon="2.394117">
        <ele>427.08</ele>
        <time>2016-02-12T22:22:19Z</time>
      </trkpt>
      <trkpt lat="41.756649" lon="2.394109">
        <ele>427.02</ele>
        <time>2016-02-12T22:22:39Z</time>
      </trkpt>
      <trkpt lat="41.756617" lon="2.394101">
        <ele>427.01</ele>
        <time>2016-02-12T22:22:59Z</time>
      </trkpt>
      <trkpt lat="41.756583" lon="2.394095">
        <ele>427.08</ele>
        <time>2016-02-12T22:23:19Z</time>
      </trkpt>
      <trkpt lat="41.756549" lon="2.394090">
        <ele>427.09</ele>
        <time>2016-02-12T22:23:39Z</time>
      </trkpt>
      <trkpt lat="41.756515" lon="2.394086">
        <ele>427.01</ele>
        <time>2016-02-12T22:23:59Z</time>
      </trkpt>
      <trkpt lat="41.756481" lon="2.394076">
        <ele>427.04</ele>
        <time>2016-02-12T22:24:19Z</time>
      </trkpt>
      <trkpt lat="41.756447" lon="2.394064">
        <ele>427.01</ele>
        <time>2016-02-12T22:24:39Z</time>
      </trkpt>
      <trkpt lat="41.756411" lon="2.394049">
        <ele>427.01</ele>
        <time>2016-02-12T22:24:59Z</time>
      </trkpt>
      <trkpt lat="41.756375" lon="2.394030">
        <ele>427.08</ele>
        <time>2016-02-12T22:25:19Z</time>
      </trkpt>
      <trkpt lat="41.756337" lon="2.394006">
        <ele>427.02</ele>
        <time>2016-02-12T22:25:39Z</time>
      </trkpt>
      <trkpt lat="41.756299" lon="2.393979">
        <ele>427.02</ele>
        <time>2016-02-12T22:25:59Z</time>
      </trkpt>
      <trkpt lat="41.756258" lon="2.393947">
        <ele>427.02</ele>
        <time>2016-02-12T22:26:19Z</time>
      </trkpt>
      <trkpt lat="41.756216" lon="2.393910">
        <ele>427.02</ele>
        <time>2016-02-12T22:26:39Z</time>
      </trkpt>
      <trkpt lat="41.756172" lon="2.393870">
        <ele>427.05</ele>
        <time>2016-02-12T22:26:59Z</time>
      </trkpt>
      <trkpt lat="41.756127" lon="2.393827">
        <ele>427.04</ele>
        <time>2016-02-12T22:27:19Z</time>
      </trkpt>
      <trkpt lat="41.756081" lon="2.393781">
        <ele>427.01</ele>
        <time>2016-02-12T22:27:39Z</time>
      </trkpt>
      <trkpt lat="41.756034" lon="2.393738">
        <ele>427.07</ele>
        <time>2016-02-12T22:27:59Z</time>
      </trkpt>
      <trkpt lat="41.755987" lon="2.393702">
        <ele>426.83</ele>
        <time>2016-02-12T22:28:19Z</time>
      </trkpt>
      <trkpt lat="41.755943" lon="2.393672">
        <ele>424.42</ele>
        <time>2016-02-12T22:28:39Z</time>
      </trkpt>
      <trkpt lat="41.755902" lon="2.393647">
        <ele>424.01</ele>
        <time>2016-02-12T22:28:59Z</time>
      </trkpt>
      <trkpt lat="41.755859" lon="2.393623">
        <ele>424.08</ele>
        <time>2016-02-12T22:29:19Z</time>
      </trkpt>
      <trkpt lat="41.755809" lon="2.393602">
        <ele>424.03</ele>
        <time>2016-02-12T22:29:39Z</time>
      </trkpt>
      <trkpt lat="41.755754" lon="2.393592">
        <ele>423.78</ele>
        <time>2016-02-12T22:29:59Z</time>
      </trkpt>
      <trkpt lat="41.755694" lon="2.393599">
        <ele>421.03</ele>
        <time>2016-02-12T22:30:19Z</time>
      </trkpt>
      <trkpt lat="41.755632" lon="2.393629">
        <ele>421.04</ele>
        <time>2016-02-12T22:30:39Z</time>
      </trkpt>
      <trkpt lat="41.755571" lon="2.393680">
        <ele>421.02</ele>
        <time>2016-02-12T22:30:59Z</time>
      </trkpt>
      <trkpt lat="41.755513" lon="2.393747">
        <ele>421.09</ele>
        <time>2016-02-12T22:31:19Z</time>
      </trkpt>
      <trkpt lat="41.755460" lon="2.393824">
        <ele>421.07</ele>
        <time>2016-02-12T22:31:39Z</time>
      </trkpt>
      <trkpt lat="41.755413" lon="2.393911">
        <ele>417.80</ele>
        <time>2016-02-12T22:31:59Z</time>
      </trkpt>
      <trkpt lat="41.755374" lon="2.394010">
        <ele>414.91</ele>
        <time>2016-02-12T22:32:19Z</time>
      </trkpt>
      <trkpt lat="41.755343" lon="2.394122">
        <ele>414.03</ele>
        <time>2016-02-12T22:32:39Z</time>
      </trkpt>
      <trkpt lat="41.755317" lon="2.394233">
        <ele>413.91</ele>
        <time>2016-02-12T22:32:59Z</time>
      </trkpt>
      <trkpt lat="41.755290" lon="2.394348">
        <ele>413.01</ele>
        <time>2016-02-12T22:33:19Z</time>
      </trkpt>
      <trkpt lat="41.755261" lon="2.394465">
        <ele>413.09</ele>
        <time>2016-02-12T22:33:39Z</time>
      </trkpt>
      <trkpt lat="41.755226" lon="2.394584">
        <ele>411.94</ele>
        <time>2016-02-12T22:33:59Z</time>
      </trkpt>
      <trkpt lat="41.755180" lon="2.394698">
        <ele>411.08</ele>
        <time>2016-02-12T22:34:19Z</time>
      </trkpt>
      <trkpt lat="41.755127" lon="2.394808">
        <ele>410.95</ele>
        <time>2016-02-12T22:34:39Z</time>
      </trkpt>
      <trkpt lat="41.755069" lon="2.394919">
        <ele>410.18</ele>
        <time>2016-02-12T22:34:59Z</time>
      </trkpt>
      <trkpt lat="41.755009" lon="2.395033">
        <ele>408.47</ele>
        <time>2016-02-12T22:35:19Z</time>
      </trkpt>
      <trkpt lat="41.754945" lon="2.395147">
        <ele>406.96</ele>
        <time>2016-02-12T22:35:39Z</time>
      </trkpt>
      <trkpt lat="41.754875" lon="2.395257">
        <ele>405.91</ele>
        <time>2016-02-12T22:35:59Z</time>
      </trkpt>
      <trkpt lat="41.754804" lon="2.395369">
        <ele>404.92</ele>
        <time>2016-02-12T22:36:19Z</time>
      </trkpt>
      <trkpt lat="41.754744" lon="2.395496">
        <ele>403.90</ele>
        <time>2016-02-12T22:36:39Z</time>
      </trkpt>
      <trkpt lat="41.754708" lon="2.395633">
        <ele>403.21</ele>
        <time>2016-02-12T22:36:59Z</time>
      </trkpt>
      <trkpt lat="41.754698" lon="2.395780">
        <ele>401.92</ele>
        <time>2016-02-12T22:37:19Z</time>
      </trkpt>
      <trkpt lat="41.754701" lon="2.395929">
        <ele>400.93</ele>
        <time>2016-02-12T22:37:39Z</time>
      </trkpt>
      <trkpt lat="41.754701" lon="2.396078">
        <ele>399.91</ele>
        <time>2016-02-12T22:37:59Z</time>
      </trkpt>
      <trkpt lat="41.754680" lon="2.396225">
        <ele>399.21</ele>
        <time>2016-02-12T22:38:19Z</time>
      </trkpt>
      <trkpt lat="41.754635" lon="2.396368">
        <ele>398.76</ele>
        <time>2016-02-12T22:38:39Z</time>
      </trkpt>
      <trkpt lat="41.754576" lon="2.396506">
        <ele>395.99</ele>
        <time>2016-02-12T22:38:59Z</time>
      </trkpt>
      <trkpt lat="41.754508" lon="2.396641">
        <ele>394.99</ele>
        <time>2016-02-12T22:39:19Z</time>
      </trkpt>
      <trkpt lat="41.754437" lon="2.396773">
        <ele>394.24</ele>
        <time>2016-02-12T22:39:39Z</time>
      </trkpt>
      <trkpt lat="41.754363" lon="2.396903">
        <ele>392.86</ele>
        <time>2016-02-12T22:39:59Z</time>
      </trkpt>
      <trkpt lat="41.754287" lon="2.397030">
        <ele>391.05</ele>
        <time>2016-02-12T22:40:19Z</time>
      </trkpt>
      <trkpt lat="41.754203" lon="2.397164">
        <ele>390.92</ele>
        <time>2016-02-12T22:40:39Z</time>
      </trkpt>
      <trkpt lat="41.754116" lon="2.397292">
        <ele>389.31</ele>
        <time>2016-02-12T22:40:59Z</time>
      </trkpt>
      <trkpt lat="41.754026" lon="2.397413">
        <ele>389.10</ele>
        <time>2016-02-12T22:41:19Z</time>
      </trkpt>
      <trkpt lat="41.753921" lon="2.397500">
        <ele>388.03</ele>
        <time>2016-02-12T22:41:39Z</time>
      </trkpt>
      <trkpt lat="41.753815" lon="2.397555">
        <ele>388.10</ele>
        <time>2016-02-12T22:41:59Z</time>
      </trkpt>
      <trkpt lat="41.753717" lon="2.397596">
        <ele>387.97</ele>
        <time>2016-02-12T22:42:19Z</time>
      </trkpt>
      <trkpt lat="41.753629" lon="2.397634">
        <ele>387.24</ele>
        <time>2016-02-12T22:42:39Z</time>
      </trkpt>
      <trkpt lat="41.753547" lon="2.397681">
        <ele>386.89</ele>
        <time>2016-02-12T22:42:59Z</time>
      </trkpt>
      <trkpt lat="41.753472" lon="2.397749">
        <ele>385.10</ele>
        <time>2016-02-12T22:43:19Z</time>
      </trkpt>
      <trkpt lat="41.753411" lon="2.397845">
        <ele>384.98</ele>
        <time>2016-02-12T22:43:39Z</time>
      </trkpt>
      <trkpt lat="41.753363" lon="2.397960">
        <ele>383.99</ele>
        <time>2016-02-12T22:43:59Z</time>
      </trkpt>
      <trkpt lat="41.753317" lon="2.398085">
        <ele>383.28</ele>
        <time>2016-02-12T22:44:19Z</time>
      </trkpt>
      <trkpt lat="41.753273" lon="2.398211">
        <ele>381.82</ele>
        <time>2016-02-12T22:44:39Z</time>
      </trkpt>
      <trkpt lat="41.753235" lon="2.398344">
        <ele>379.91</ele>
        <time>2016-02-12T22:44:59Z</time>
      </trkpt>
      <trkpt lat="41.753211" lon="2.398486">
        <ele>378.93</ele>
        <time>2016-02-12T22:45:19Z</time>
      </trkpt>
      <trkpt lat="41.753212" lon="2.398645">
        <ele>378.25</ele>
        <time>2016-02-12T22:45:39Z</time>
      </trkpt>
      <trkpt lat="41.753230" lon="2.398800">
        <ele>376.97</ele>
        <time>2016-02-12T22:45:59Z</time>
      </trkpt>
      <trkpt lat="41.753247" lon="2.398942">
        <ele>375.89</ele>
        <time>2016-02-12T22:46:19Z</time>
      </trkpt>
      <trkpt lat="41.753244" lon="2.399087">
        <ele>374.07</ele>
        <time>2016-02-12T22:46:39Z</time>
      </trkpt>
      <trkpt lat="41.753219" lon="2.399237">
        <ele>374.05</ele>
        <time>2016-02-12T22:46:59Z</time>
      </trkpt>
      <trkpt lat="41.753186" lon="2.399382">
        <ele>374.05</ele>
        <time>2016-02-12T22:47:19Z</time>
      </trkpt>
      <trkpt lat="41.753146" lon="2.399528">
        <ele>373.25</ele>
        <time>2016-02-12T22:47:39Z</time>
      </trkpt>
      <trkpt lat="41.753098" lon="2.399667">
        <ele>370.97</ele>
        <time>2016-02-12T22:47:59Z</time>
      </trkpt>
      <trkpt lat="41.753037" lon="2.399792">
        <ele>370.01</ele>
        <time>2016-02-12T22:48:19Z</time>
      </trkpt>
      <trkpt lat="41.752966" lon="2.399908">
        <ele>370.01</ele>
        <time>2016-02-12T22:48:39Z</time>
      </trkpt>
      <trkpt lat="41.752889" lon="2.400021">
        <ele>369.91</ele>
        <time>2016-02-12T22:48:59Z</time>
      </trkpt>
      <trkpt lat="41.752811" lon="2.400121">
        <ele>369.05</ele>
        <time>2016-02-12T22:49:19Z</time>
      </trkpt>
      <trkpt lat="41.752728" lon="2.400213">
        <ele>369.04</ele>
        <time>2016-02-12T22:49:39Z</time>
      </trkpt>
      <trkpt lat="41.752645" lon="2.400298">
        <ele>369.10</ele>
        <time>2016-02-12T22:49:59Z</time>
      </trkpt>
      <trkpt lat="41.752564" lon="2.400380">
        <ele>369.04</ele>
        <time>2016-02-12T22:50:19Z</time>
      </trkpt>
      <trkpt lat="41.752485" lon="2.400463">
        <ele>369.09</ele>
        <time>2016-02-12T22:50:39Z</time>
      </trkpt>
      <trkpt lat="41.752406" lon="2.400544">
        <ele>368.97</ele>
        <time>2016-02-12T22:50:59Z</time>
      </trkpt>
      <trkpt lat="41.752333" lon="2.400622">
        <ele>368.10</ele>
        <time>2016-02-12T22:51:19Z</time>
      </trkpt>
      <trkpt lat="41.752257" lon="2.400700">
        <ele>367.95</ele>
        <time>2016-02-12T22:51:39Z</time>
      </trkpt>
      <trkpt lat="41.752183" lon="2.400773">
        <ele>367.29</ele>
        <time>2016-02-12T22:51:59Z</time>
      </trkpt>
      <trkpt lat="41.752107" lon="2.400844">
        <ele>367.07</ele>
        <time>2016-02-12T22:52:19Z</time>
      </trkpt>
      <trkpt lat="41.752026" lon="2.400913">
        <ele>367.02</ele>
        <time>2016-02-12T22:52:39Z</time>
      </trkpt>
      <trkpt lat="41.751942" lon="2.400975">
        <ele>367.01</ele>
        <time>2016-02-12T22:52:59Z</time>
      </trkpt>
      <trkpt lat="41.751859" lon="2.401031">
        <ele>367.02</ele>
        <time>2016-02-12T22:53:19Z</time>
      </trkpt>
      <trkpt lat="41.751769" lon="2.401074">
        <ele>366.99</ele>
        <time>2016-02-12T22:53:39Z</time>
      </trkpt>
      <trkpt lat="41.751670" lon="2.401103">
        <ele>365.62</ele>
        <time>2016-02-12T22:53:59Z</time>
      </trkpt>
      <trkpt lat="41.751574" lon="2.401121">
        <ele>365.01</ele>
        <time>2016-02-12T22:54:19Z</time>
      </trkpt>
      <trkpt lat="41.751479" lon="2.401128">
        <ele>365.10</ele>
        <time>2016-02-12T22:54:39Z</time>
      </trkpt>
      <trkpt lat="41.751384" lon="2.401129">
        <ele>365.03</ele>
        <time>2016-02-12T22:54:59Z</time>
      </trkpt>
      <trkpt lat="41.751289" lon="2.401130">
        <ele>364.98</ele>
        <time>2016-02-12T22:55:19Z</time>
      </trkpt>
      <trkpt lat="41.751196" lon="2.401140">
        <ele>364.24</ele>
        <time>2016-02-12T22:55:39Z</time>
      </trkpt>
      <trkpt lat="41.751104" lon="2.401160">
        <ele>364.03</ele>
        <time>2016-02-12T22:55:59Z</time>
      </trkpt>
      <trkpt lat="41.751012" lon="2.401190">
        <ele>364.07</ele>
        <time>2016-02-12T22:56:19Z</time>
      </trkpt>
      <trkpt lat="41.750917" lon="2.401227">
        <ele>364.01</ele>
        <time>2016-02-12T22:56:39Z</time>
      </trkpt>
      <trkpt lat="41.750820" lon="2.401264">
        <ele>363.81</ele>
        <time>2016-02-12T22:56:59Z</time>
      </trkpt>
      <trkpt lat="41.750721" lon="2.401301">
        <ele>361.52</ele>
        <time>2016-02-12T22:57:19Z</time>
      </trkpt>
      <trkpt lat="41.750621" lon="2.401340">
        <ele>361.06</ele>
        <time>2016-02-12T22:57:39Z</time>
      </trkpt>
      <trkpt lat="41.750521" lon="2.401381">
        <ele>361.03</ele>
        <time>2016-02-12T22:57:59Z</time>
      </trkpt>
      <trkpt lat="41.750420" lon="2.401422">
        <ele>360.95</ele>
        <time>2016-02-12T22:58:19Z</time>
      </trkpt>
      <trkpt lat="41.750319" lon="2.401462">
        <ele>360.08</ele>
        <time>2016-02-12T22:58:39Z</time>
      </trkpt>
      <trkpt lat="41.750218" lon="2.401502">
        <ele>360.03</ele>
        <time>2016-02-12T22:58:59Z</time>
      </trkpt>
      <trkpt lat="41.750118" lon="2.401544">
        <ele>360.02</ele>
        <time>2016-02-12T22:59:19Z</time>
      </trkpt>
      <trkpt lat="41.750017" lon="2.401584">
        <ele>360.06</ele>
        <time>2016-02-12T22:59:39Z</time>
      </trkpt>
      <trkpt lat="41.749915" lon="2.401625">
        <ele>360.00</ele>
        <time>2016-02-12T22:59:59Z</time>
      </trkpt>
      <trkpt lat="41.749815" lon="2.401666">
        <ele>359.32</ele>
        <time>2016-02-12T23:00:19Z</time>
      </trkpt>
      <trkpt lat="41.749715" lon="2.401708">
        <ele>357.03</ele>
        <time>2016-02-12T23:00:39Z</time>
      </trkpt>
      <trkpt lat="41.749617" lon="2.401750">
        <ele>356.71</ele>
        <time>2016-02-12T23:00:59Z</time>
      </trkpt>
      <trkpt lat="41.749521" lon="2.401790">
        <ele>354.01</ele>
        <time>2016-02-12T23:01:19Z</time>
      </trkpt>
      <trkpt lat="41.749426" lon="2.401830">
        <ele>354.18</ele>
        <time>2016-02-12T23:01:39Z</time>
      </trkpt>
      <trkpt lat="41.749332" lon="2.401872">
        <ele>354.84</ele>
        <time>2016-02-12T23:01:59Z</time>
      </trkpt>
      <trkpt lat="41.749238" lon="2.401912">
        <ele>355.99</ele>
        <time>2016-02-12T23:02:19Z</time>
      </trkpt>
      <trkpt lat="41.749143" lon="2.401952">
        <ele>354.96</ele>
        <time>2016-02-12T23:02:39Z</time>
      </trkpt>
      <trkpt lat="41.749047" lon="2.401991">
        <ele>354.08</ele>
        <time>2016-02-12T23:02:59Z</time>
      </trkpt>
      <trkpt lat="41.748952" lon="2.402032">
        <ele>354.08</ele>
        <time>2016-02-12T23:03:19Z</time>
      </trkpt>
      <trkpt lat="41.748856" lon="2.402072">
        <ele>354.06</ele>
        <time>2016-02-12T23:03:39Z</time>
      </trkpt>
      <trkpt lat="41.748760" lon="2.402108">
        <ele>352.93</ele>
        <time>2016-02-12T23:03:59Z</time>
      </trkpt>
      <trkpt lat="41.748663" lon="2.402143">
        <ele>351.97</ele>
        <time>2016-02-12T23:04:19Z</time>
      </trkpt>
      <trkpt lat="41.748565" lon="2.402172">
        <ele>351.01</ele>
        <time>2016-02-12T23:04:39Z</time>
      </trkpt>
      <trkpt lat="41.748466" lon="2.402196">
        <ele>350.91</ele>
        <time>2016-02-12T23:04:59Z</time>
      </trkpt>
      <trkpt lat="41.748366" lon="2.402213">
        <ele>350.28</ele>
        <time>2016-02-12T23:05:19Z</time>
      </trkpt>
      <trkpt lat="41.748264" lon="2.402229">
        <ele>350.03</ele>
        <time>2016-02-12T23:05:39Z</time>
      </trkpt>
      <trkpt lat="41.748161" lon="2.402244">
        <ele>350.09</ele>
        <time>2016-02-12T23:05:59Z</time>
      </trkpt>
      <trkpt lat="41.748057" lon="2.402258">
        <ele>349.93</ele>
        <time>2016-02-12T23:06:19Z</time>
      </trkpt>
      <trkpt lat="41.747950" lon="2.402272">
        <ele>349.13</ele>
        <time>2016-02-12T23:06:39Z</time>
      </trkpt>
      <trkpt lat="41.747841" lon="2.402286">
        <ele>348.22</ele>
        <time>2016-02-12T23:06:59Z</time>
      </trkpt>
      <trkpt lat="41.747732" lon="2.402300">
        <ele>347.03</ele>
        <time>2016-02-12T23:07:19Z</time>
      </trkpt>
      <trkpt lat="41.747627" lon="2.402318">
        <ele>347.07</ele>
        <time>2016-02-12T23:07:39Z</time>
      </trkpt>
      <trkpt lat="41.747530" lon="2.402330">
        <ele>347.02</ele>
        <time>2016-02-12T23:07:59Z</time>
      </trkpt>
      <trkpt lat="41.747437" lon="2.402332">
        <ele>346.91</ele>
        <time>2016-02-12T23:08:19Z</time>
      </trkpt>
      <trkpt lat="41.747344" lon="2.402314">
        <ele>346.22</ele>
        <time>2016-02-12T23:08:39Z</time>
      </trkpt>
      <trkpt lat="41.747253" lon="2.402276">
        <ele>345.01</ele>
        <time>2016-02-12T23:08:59Z</time>
      </trkpt>
      <trkpt lat="41.747162" lon="2.402230">
        <ele>345.04</ele>
        <time>2016-02-12T23:09:19Z</time>
      </trkpt>
      <trkpt lat="41.747073" lon="2.402184">
        <ele>344.93</ele>
        <time>2016-02-12T23:09:39Z</time>
      </trkpt>
      <trkpt lat="41.746987" lon="2.402136">
        <ele>344.03</ele>
        <time>2016-02-12T23:09:59Z</time>
      </trkpt>
      <trkpt lat="41.746904" lon="2.402088">
        <ele>344.05</ele>
        <time>2016-02-12T23:10:19Z</time>
      </trkpt>
      <trkpt lat="41.746823" lon="2.402044">
        <ele>344.06</ele>
        <time>2016-02-12T23:10:39Z</time>
      </trkpt>
      <trkpt lat="41.746743" lon="2.402002">
        <ele>344.07</ele>
        <time>2016-02-12T23:10:59Z</time>
      </trkpt>
      <trkpt lat="41.746665" lon="2.401972">
        <ele>344.09</ele>
        <time>2016-02-12T23:11:19Z</time>
      </trkpt>
      <trkpt lat="41.746588" lon="2.401956">
        <ele>344.02</ele>
        <time>2016-02-12T23:11:39Z</time>
      </trkpt>
      <trkpt lat="41.746511" lon="2.401956">
        <ele>344.04</ele>
        <time>2016-02-12T23:11:59Z</time>
      </trkpt>
      <trkpt lat="41.746438" lon="2.401984">
        <ele>344.08</ele>
        <time>2016-02-12T23:12:19Z</time>
      </trkpt>
      <trkpt lat="41.746369" lon="2.402042">
        <ele>344.01</ele>
        <time>2016-02-12T23:12:39Z</time>
      </trkpt>
      <trkpt lat="41.746298" lon="2.402108">
        <ele>344.01</ele>
        <time>2016-02-12T23:12:59Z</time>
      </trkpt>
      <trkpt lat="41.746230" lon="2.402173">
        <ele>344.06</ele>
        <time>2016-02-12T23:13:19Z</time>
      </trkpt>
      <trkpt lat="41.746162" lon="2.402236">
        <ele>344.10</ele>
        <time>2016-02-12T23:13:39Z</time>
      </trkpt>
      <trkpt lat="41.746095" lon="2.402300">
        <ele>344.09</ele>
        <time>2016-02-12T23:13:59Z</time>
      </trkpt>
      <trkpt lat="41.746028" lon="2.402364">
        <ele>344.09</ele>
        <time>2016-02-12T23:14:19Z</time>
      </trkpt>
      <trkpt lat="41.745963" lon="2.402424">
        <ele>344.05</ele>
        <time>2016-02-12T23:14:39Z</time>
      </trkpt>
      <trkpt lat="41.745900" lon="2.402488">
        <ele>344.02</ele>
        <time>2016-02-12T23:14:59Z</time>
      </trkpt>
      <trkpt lat="41.745840" lon="2.402558">
        <ele>344.03</ele>
        <time>2016-02-12T23:15:19Z</time>
      </trkpt>
      <trkpt lat="41.745787" lon="2.402634">
        <ele>344.06</ele>
        <time>2016-02-12T23:15:39Z</time>
      </trkpt>
      <trkpt lat="41.745740" lon="2.402712">
        <ele>344.02</ele>
        <time>2016-02-12T23:15:59Z</time>
      </trkpt>
      <trkpt lat="41.745694" lon="2.402790">
        <ele>344.08</ele>
        <time>2016-02-12T23:16:19Z</time>
      </trkpt>
      <trkpt lat="41.745649" lon="2.402868">
        <ele>344.01</ele>
        <time>2016-02-12T23:16:39Z</time>
      </trkpt>
      <trkpt lat="41.745605" lon="2.402948">
        <ele>344.01</ele>
        <time>2016-02-12T23:16:59Z</time>
      </trkpt>
      <trkpt lat="41.745564" lon="2.403018">
        <ele>344.02</ele>
        <time>2016-02-12T23:17:19Z</time>
      </trkpt>
      <trkpt lat="41.745524" lon="2.403094">
        <ele>344.03</ele>
        <time>2016-02-12T23:17:39Z</time>
      </trkpt>
      <trkpt lat="41.745485" lon="2.403166">
        <ele>344.03</ele>
        <time>2016-02-12T23:17:59Z</time>
      </trkpt>
      <trkpt lat="41.745451" lon="2.403250">
        <ele>344.17</ele>
        <time>2016-02-12T23:18:19Z</time>
      </trkpt>
      <trkpt lat="41.745419" lon="2.403346">
        <ele>345.09</ele>
        <time>2016-02-12T23:18:39Z</time>
      </trkpt>
      <trkpt lat="41.745392" lon="2.403442">
        <ele>345.06</ele>
        <time>2016-02-12T23:18:59Z</time>
      </trkpt>
      <trkpt lat="41.745367" lon="2.403535">
        <ele>345.02</ele>
        <time>2016-02-12T23:19:19Z</time>
      </trkpt>
      <trkpt lat="41.745343" lon="2.403627">
        <ele>345.05</ele>
        <time>2016-02-12T23:19:39Z</time>
      </trkpt>
      <trkpt lat="41.745317" lon="2.403719">
        <ele>345.08</ele>
        <time>2016-02-12T23:19:59Z</time>
      </trkpt>
      <trkpt lat="41.745290" lon="2.403810">
        <ele>345.06</ele>
        <time>2016-02-12T23:20:19Z</time>
      </trkpt>
      <trkpt lat="41.745257" lon="2.403905">
        <ele>345.03</ele>
        <time>2016-02-12T23:20:39Z</time>
      </trkpt>
      <trkpt lat="41.745222" lon="2.404000">
        <ele>345.01</ele>
        <time>2016-02-12T23:20:59Z</time>
      </trkpt>
      <trkpt lat="41.745187" lon="2.404090">
        <ele>345.04</ele>
        <time>2016-02-12T23:21:19Z</time>
      </trkpt>
      <trkpt lat="41.745146" lon="2.404176">
        <ele>345.03</ele>
        <time>2016-02-12T23:21:39Z</time>
      </trkpt>
      <trkpt lat="41.745098" lon="2.404250">
        <ele>345.05</ele>
        <time>2016-02-12T23:21:59Z</time>
      </trkpt>
      <trkpt lat="41.745039" lon="2.404314">
        <ele>345.07</ele>
        <time>2016-02-12T23:22:19Z</time>
      </trkpt>
      <trkpt lat="41.744972" lon="2.404366">
        <ele>345.01</ele>
        <time>2016-02-12T23:22:39Z</time>
      </trkpt>
      <trkpt lat="41.744901" lon="2.404410">
        <ele>345.08</ele>
        <time>2016-02-12T23:22:59Z</time>
      </trkpt>
      <trkpt lat="41.744829" lon="2.404448">
        <ele>345.10</ele>
        <time>2016-02-12T23:23:19Z</time>
      </trkpt>
      <trkpt lat="41.744757" lon="2.404487">
        <ele>345.07</ele>
        <time>2016-02-12T23:23:39Z</time>
      </trkpt>
      <trkpt lat="41.744686" lon="2.404525">
        <ele>345.03</ele>
        <time>2016-02-12T23:23:59Z</time>
      </trkpt>
      <trkpt lat="41.744617" lon="2.404561">
        <ele>345.07</ele>
        <time>2016-02-12T23:24:19Z</time>
      </trkpt>
      <trkpt lat="41.744549" lon="2.404596">
        <ele>345.01</ele>
        <time>2016-02-12T23:24:39Z</time>
      </trkpt>
      <trkpt lat="41.744483" lon="2.404631">
        <ele>344.81</ele>
        <time>2016-02-12T23:24:59Z</time>
      </trkpt>
      <trkpt lat="41.744414" lon="2.404669">
        <ele>342.08</ele>
        <time>2016-02-12T23:25:19Z</time>
      </trkpt>
      <trkpt lat="41.744345" lon="2.404708">
        <ele>342.06</ele>
        <time>2016-02-12T23:25:39Z</time>
      </trkpt>
      <trkpt lat="41.744274" lon="2.404747">
        <ele>342.01</ele>
        <time>2016-02-12T23:25:59Z</time>
      </trkpt>
      <trkpt lat="41.744203" lon="2.404785">
        <ele>342.10</ele>
        <time>2016-02-12T23:26:19Z</time>
      </trkpt>
      <trkpt lat="41.744131" lon="2.404825">
        <ele>341.95</ele>
        <time>2016-02-12T23:26:39Z</time>
      </trkpt>
      <trkpt lat="41.744058" lon="2.404866">
        <ele>341.05</ele>
        <time>2016-02-12T23:26:59Z</time>
      </trkpt>
      <trkpt lat="41.743982" lon="2.404907">
        <ele>341.03</ele>
        <time>2016-02-12T23:27:19Z</time>
      </trkpt>
      <trkpt lat="41.743904" lon="2.404948">
        <ele>341.09</ele>
        <time>2016-02-12T23:27:39Z</time>
      </trkpt>
      <trkpt lat="41.743828" lon="2.404988">
        <ele>341.07</ele>
        <time>2016-02-12T23:27:59Z</time>
      </trkpt>
      <trkpt lat="41.743754" lon="2.405031">
        <ele>340.81</ele>
        <time>2016-02-12T23:28:19Z</time>
      </trkpt>
      <trkpt lat="41.743679" lon="2.405074">
        <ele>339.01</ele>
        <time>2016-02-12T23:28:39Z</time>
      </trkpt>
      <trkpt lat="41.743602" lon="2.405117">
        <ele>339.01</ele>
        <time>2016-02-12T23:28:59Z</time>
      </trkpt>
      <trkpt lat="41.743523" lon="2.405162">
        <ele>339.06</ele>
        <time>2016-02-12T23:29:19Z</time>
      </trkpt>
      <trkpt lat="41.743444" lon="2.405207">
        <ele>339.02</ele>
        <time>2016-02-12T23:29:39Z</time>
      </trkpt>
      <trkpt lat="41.743364" lon="2.405252">
        <ele>338.90</ele>
        <time>2016-02-12T23:29:59Z</time>
      </trkpt>
      <trkpt lat="41.743283" lon="2.405297">
        <ele>337.09</ele>
        <time>2016-02-12T23:30:19Z</time>
      </trkpt>
      <trkpt lat="41.743201" lon="2.405345">
        <ele>337.06</ele>
        <time>2016-02-12T23:30:39Z</time>
      </trkpt>
      <trkpt lat="41.743119" lon="2.405393">
        <ele>337.03</ele>
        <time>2016-02-12T23:30:59Z</time>
      </trkpt>
      <trkpt lat="41.743036" lon="2.405440">
        <ele>337.08</ele>
        <time>2016-02-12T23:31:19Z</time>
      </trkpt>
      <trkpt lat="41.742954" lon="2.405486">
        <ele>337.04</ele>
        <time>2016-02-12T23:31:39Z</time>
      </trkpt>
      <trkpt lat="41.742869" lon="2.405534">
        <ele>336.26</ele>
        <time>2016-02-12T23:31:59Z</time>
      </trkpt>
      <trkpt lat="41.742784" lon="2.405580">
        <ele>336.08</ele>
        <time>2016-02-12T23:32:19Z</time>
      </trkpt>
      <trkpt lat="41.742698" lon="2.405633">
        <ele>336.01</ele>
        <time>2016-02-12T23:32:39Z</time>
      </trkpt>
      <trkpt lat="41.742616" lon="2.405682">
        <ele>336.01</ele>
        <time>2016-02-12T23:32:59Z</time>
      </trkpt>
      <trkpt lat="41.742532" lon="2.405734">
        <ele>336.06</ele>
        <time>2016-02-12T23:33:19Z</time>
      </trkpt>
      <trkpt lat="41.742447" lon="2.405787">
        <ele>334.04</ele>
        <time>2016-02-12T23:33:39Z</time>
      </trkpt>
      <trkpt lat="41.742359" lon="2.405839">
        <ele>334.08</ele>
        <time>2016-02-12T23:33:59Z</time>
      </trkpt>
      <trkpt lat="41.742267" lon="2.405880">
        <ele>334.06</ele>
        <time>2016-02-12T23:34:19Z</time>
      </trkpt>
      <trkpt lat="41.742175" lon="2.405929">
        <ele>334.07</ele>
        <time>2016-02-12T23:34:39Z</time>
      </trkpt>
      <trkpt lat="41.742082" lon="2.405993">
        <ele>334.02</ele>
        <time>2016-02-12T23:34:59Z</time>
      </trkpt>
      <trkpt lat="41.741983" lon="2.406054">
        <ele>328.82</ele>
        <time>2016-02-12T23:35:19Z</time>
      </trkpt>
      <trkpt lat="41.741876" lon="2.406112">
        <ele>326.95</ele>
        <time>2016-02-12T23:35:39Z</time>
      </trkpt>
      <trkpt lat="41.741761" lon="2.406150">
        <ele>326.04</ele>
        <time>2016-02-12T23:35:59Z</time>
      </trkpt>
      <trkpt lat="41.741641" lon="2.406164">
        <ele>325.98</ele>
        <time>2016-02-12T23:36:19Z</time>
      </trkpt>
      <trkpt lat="41.741522" lon="2.406176">
        <ele>325.21</ele>
        <time>2016-02-12T23:36:39Z</time>
      </trkpt>
      <trkpt lat="41.741409" lon="2.406171">
        <ele>324.11</ele>
        <time>2016-02-12T23:36:59Z</time>
      </trkpt>
      <trkpt lat="41.741300" lon="2.406160">
        <ele>325.06</ele>
        <time>2016-02-12T23:37:19Z</time>
      </trkpt>
      <trkpt lat="41.741193" lon="2.406150">
        <ele>325.07</ele>
        <time>2016-02-12T23:37:39Z</time>
      </trkpt>
      <trkpt lat="41.741089" lon="2.406137">
        <ele>325.09</ele>
        <time>2016-02-12T23:37:59Z</time>
      </trkpt>
      <trkpt lat="41.740984" lon="2.406130">
        <ele>325.03</ele>
        <time>2016-02-12T23:38:19Z</time>
      </trkpt>
      <trkpt lat="41.740882" lon="2.406140">
        <ele>323.04</ele>
        <time>2016-02-12T23:38:39Z</time>
      </trkpt>
      <trkpt lat="41.740782" lon="2.406178">
        <ele>323.05</ele>
        <time>2016-02-12T23:38:59Z</time>
      </trkpt>
      <trkpt lat="41.740687" lon="2.406230">
        <ele>323.09</ele>
        <time>2016-02-12T23:39:19Z</time>
      </trkpt>
      <trkpt lat="41.740595" lon="2.406296">
        <ele>323.07</ele>
        <time>2016-02-12T23:39:39Z</time>
      </trkpt>
      <trkpt lat="41.740506" lon="2.406365">
        <ele>323.09</ele>
        <time>2016-02-12T23:39:59Z</time>
      </trkpt>
      <trkpt lat="41.740417" lon="2.406435">
        <ele>323.06</ele>
        <time>2016-02-12T23:40:19Z</time>
      </trkpt>
      <trkpt lat="41.740328" lon="2.406509">
        <ele>323.02</ele>
        <time>2016-02-12T23:40:39Z</time>
      </trkpt>
      <trkpt lat="41.740244" lon="2.406578">
        <ele>323.01</ele>
        <time>2016-02-12T23:40:59Z</time>
      </trkpt>
      <trkpt lat="41.740162" lon="2.406649">
        <ele>323.02</ele>
        <time>2016-02-12T23:41:19Z</time>
      </trkpt>
      <trkpt lat="41.740083" lon="2.406721">
        <ele>323.08</ele>
        <time>2016-02-12T23:41:39Z</time>
      </trkpt>
      <trkpt lat="41.740005" lon="2.406791">
        <ele>323.06</ele>
        <time>2016-02-12T23:41:59Z</time>
      </trkpt>
      <trkpt lat="41.739928" lon="2.406857">
        <ele>323.01</ele>
        <time>2016-02-12T23:42:19Z</time>
      </trkpt>
      <trkpt lat="41.739853" lon="2.406926">
        <ele>323.08</ele>
        <time>2016-02-12T23:42:39Z</time>
      </trkpt>
      <trkpt lat="41.739781" lon="2.406996">
        <ele>323.08</ele>
        <time>2016-02-12T23:42:59Z</time>
      </trkpt>
      <trkpt lat="41.739710" lon="2.407065">
        <ele>323.02</ele>
        <time>2016-02-12T23:43:19Z</time>
      </trkpt>
      <trkpt lat="41.739639" lon="2.407134">
        <ele>323.04</ele>
        <time>2016-02-12T23:43:39Z</time>
      </trkpt>
      <trkpt lat="41.739572" lon="2.407203">
        <ele>323.04</ele>
        <time>2016-02-12T23:43:59Z</time>
      </trkpt>
      <trkpt lat="41.739508" lon="2.407273">
        <ele>323.02</ele>
        <time>2016-02-12T23:44:19Z</time>
      </trkpt>
      <trkpt lat="41.739444" lon="2.407349">
        <ele>323.02</ele>
        <time>2016-02-12T23:44:39Z</time>
      </trkpt>
      <trkpt lat="41.739381" lon="2.407427">
        <ele>323.01</ele>
        <time>2016-02-12T23:44:59Z</time>
      </trkpt>
      <trkpt lat="41.739318" lon="2.407500">
        <ele>323.06</ele>
        <time>2016-02-12T23:45:19Z</time>
      </trkpt>
      <trkpt lat="41.739251" lon="2.407576">
        <ele>323.10</ele>
        <time>2016-02-12T23:45:39Z</time>
      </trkpt>
      <trkpt lat="41.739183" lon="2.407646">
        <ele>323.07</ele>
        <time>2016-02-12T23:45:59Z</time>
      </trkpt>
      <trkpt lat="41.739109" lon="2.407701">
        <ele>323.09</ele>
        <time>2016-02-12T23:46:19Z</time>
      </trkpt>
      <trkpt lat="41.739028" lon="2.407736">
        <ele>323.03</ele>
        <time>2016-02-12T23:46:39Z</time>
      </trkpt>
      <trkpt lat="41.738944" lon="2.407750">
        <ele>323.06</ele>
        <time>2016-02-12T23:46:59Z</time>
      </trkpt>
      <trkpt lat="41.738858" lon="2.407755">
        <ele>323.04</ele>
        <time>2016-02-12T23:47:19Z</time>
      </trkpt>
      <trkpt lat="41.738775" lon="2.407756">
        <ele>323.05</ele>
        <time>2016-02-12T23:47:39Z</time>
      </trkpt>
      <trkpt lat="41.738692" lon="2.407756">
        <ele>323.06</ele>
        <time>2016-02-12T23:47:59Z</time>
      </trkpt>
      <trkpt lat="41.738609" lon="2.407756">
        <ele>322.92</ele>
        <time>2016-02-12T23:48:19Z</time>
      </trkpt>
      <trkpt lat="41.738524" lon="2.407759">
        <ele>322.01</ele>
        <time>2016-02-12T23:48:39Z</time>
      </trkpt>
      <trkpt lat="41.738437" lon="2.407770">
        <ele>322.01</ele>
        <time>2016-02-12T23:48:59Z</time>
      </trkpt>
      <trkpt lat="41.738353" lon="2.407783">
        <ele>322.06</ele>
        <time>2016-02-12T23:49:19Z</time>
      </trkpt>
      <trkpt lat="41.738272" lon="2.407808">
        <ele>322.05</ele>
        <time>2016-02-12T23:49:39Z</time>
      </trkpt>
      <trkpt lat="41.738195" lon="2.407846">
        <ele>322.04</ele>
        <time>2016-02-12T23:49:59Z</time>
      </trkpt>
      <trkpt lat="41.738122" lon="2.407892">
        <ele>322.05</ele>
        <time>2016-02-12T23:50:19Z</time>
      </trkpt>
      <trkpt lat="41.737976" lon="2.408001">
        <ele>322.05</ele>
        <time>2016-02-12T23:50:39Z</time>
      </trkpt>
      <trkpt lat="41.737905" lon="2.408053">
        <ele>322.06</ele>
        <time>2016-02-12T23:50:59Z</time>
      </trkpt>
      <trkpt lat="41.737833" lon="2.408112">
        <ele>321.92</ele>
        <time>2016-02-12T23:51:19Z</time>
      </trkpt>
      <trkpt lat="41.737763" lon="2.408165">
        <ele>321.03</ele>
        <time>2016-02-12T23:51:39Z</time>
      </trkpt>
      <trkpt lat="41.737693" lon="2.408218">
        <ele>321.09</ele>
        <time>2016-02-12T23:51:59Z</time>
      </trkpt>
      <trkpt lat="41.737550" lon="2.408336">
        <ele>321.06</ele>
        <time>2016-02-12T23:52:19Z</time>
      </trkpt>
      <trkpt lat="41.737408" lon="2.408459">
        <ele>321.02</ele>
        <time>2016-02-12T23:52:39Z</time>
      </trkpt>
      <trkpt lat="41.737269" lon="2.408577">
        <ele>321.01</ele>
        <time>2016-02-12T23:52:59Z</time>
      </trkpt>
      <trkpt lat="41.737203" lon="2.408632">
        <ele>321.08</ele>
        <time>2016-02-12T23:53:19Z</time>
      </trkpt>
      <trkpt lat="41.737136" lon="2.408691">
        <ele>321.01</ele>
        <time>2016-02-12T23:53:39Z</time>
      </trkpt>
      <trkpt lat="41.737071" lon="2.408755">
        <ele>321.06</ele>
        <time>2016-02-12T23:53:59Z</time>
      </trkpt>
      <trkpt lat="41.737009" lon="2.408828">
        <ele>321.04</ele>
        <time>2016-02-12T23:54:19Z</time>
      </trkpt>
      <trkpt lat="41.736948" lon="2.408903">
        <ele>321.06</ele>
        <time>2016-02-12T23:54:39Z</time>
      </trkpt>
      <trkpt lat="41.736888" lon="2.408980">
        <ele>321.04</ele>
        <time>2016-02-12T23:54:59Z</time>
      </trkpt>
      <trkpt lat="41.736827" lon="2.409068">
        <ele>321.03</ele>
        <time>2016-02-12T23:55:19Z</time>
      </trkpt>
      <trkpt lat="41.736768" lon="2.409145">
        <ele>321.01</ele>
        <time>2016-02-12T23:55:39Z</time>
      </trkpt>
      <trkpt lat="41.736709" lon="2.409222">
        <ele>321.08</ele>
        <time>2016-02-12T23:55:59Z</time>
      </trkpt>
      <trkpt lat="41.736647" lon="2.409313">
        <ele>321.06</ele>
        <time>2016-02-12T23:56:19Z</time>
      </trkpt>
      <trkpt lat="41.736588" lon="2.409405">
        <ele>321.02</ele>
        <time>2016-02-12T23:56:39Z</time>
      </trkpt>
      <trkpt lat="41.736527" lon="2.409499">
        <ele>320.61</ele>
        <time>2016-02-12T23:56:59Z</time>
      </trkpt>
      <trkpt lat="41.736466" lon="2.409590">
        <ele>317.07</ele>
        <time>2016-02-12T23:57:19Z</time>
      </trkpt>
      <trkpt lat="41.736404" lon="2.409683">
        <ele>317.08</ele>
        <time>2016-02-12T23:57:39Z</time>
      </trkpt>
      <trkpt lat="41.736345" lon="2.409774">
        <ele>317.02</ele>
        <time>2016-02-12T23:57:59Z</time>
      </trkpt>
      <trkpt lat="41.736280" lon="2.409866">
        <ele>317.04</ele>
        <time>2016-02-12T23:58:19Z</time>
      </trkpt>
      <trkpt lat="41.736214" lon="2.409956">
        <ele>317.06</ele>
        <time>2016-02-12T23:58:39Z</time>
      </trkpt>
      <trkpt lat="41.736146" lon="2.410048">
        <ele>317.10</ele>
        <time>2016-02-12T23:58:59Z</time>
      </trkpt>
      <trkpt lat="41.736081" lon="2.410137">
        <ele>317.09</ele>
        <time>2016-02-12T23:59:19Z</time>
      </trkpt>
      <trkpt lat="41.736014" lon="2.410228">
        <ele>317.09</ele>
        <time>2016-02-12T23:59:39Z</time>
      </trkpt>
      <trkpt lat="41.735950" lon="2.410316">
        <ele>317.08</ele>
        <time>2016-02-12T23:59:59Z</time>
      </trkpt>
      <trkpt lat="41.735884" lon="2.410398">
        <ele>317.01</ele>
        <time>2016-02-13T00:00:19Z</time>
      </trkpt>
      <trkpt lat="41.735818" lon="2.410485">
        <ele>317.02</ele>
        <time>2016-02-13T00:00:39Z</time>
      </trkpt>
      <trkpt lat="41.735750" lon="2.410574">
        <ele>317.01</ele>
        <time>2016-02-13T00:00:59Z</time>
      </trkpt>
      <trkpt lat="41.735678" lon="2.410658">
        <ele>317.04</ele>
        <time>2016-02-13T00:01:19Z</time>
      </trkpt>
      <trkpt lat="41.735603" lon="2.410738">
        <ele>317.08</ele>
        <time>2016-02-13T00:01:39Z</time>
      </trkpt>
      <trkpt lat="41.735528" lon="2.410814">
        <ele>317.05</ele>
        <time>2016-02-13T00:01:59Z</time>
      </trkpt>
      <trkpt lat="41.735456" lon="2.410881">
        <ele>317.03</ele>
        <time>2016-02-13T00:02:19Z</time>
      </trkpt>
      <trkpt lat="41.735308" lon="2.411019">
        <ele>317.08</ele>
        <time>2016-02-13T00:02:39Z</time>
      </trkpt>
      <trkpt lat="41.735232" lon="2.411083">
        <ele>317.07</ele>
        <time>2016-02-13T00:02:59Z</time>
      </trkpt>
      <trkpt lat="41.735154" lon="2.411146">
        <ele>317.05</ele>
        <time>2016-02-13T00:03:19Z</time>
      </trkpt>
      <trkpt lat="41.735078" lon="2.411208">
        <ele>317.02</ele>
        <time>2016-02-13T00:03:39Z</time>
      </trkpt>
      <trkpt lat="41.734926" lon="2.411331">
        <ele>317.07</ele>
        <time>2016-02-13T00:03:59Z</time>
      </trkpt>
      <trkpt lat="41.734852" lon="2.411391">
        <ele>317.04</ele>
        <time>2016-02-13T00:04:19Z</time>
      </trkpt>
      <trkpt lat="41.734776" lon="2.411445">
        <ele>317.01</ele>
        <time>2016-02-13T00:04:39Z</time>
      </trkpt>
      <trkpt lat="41.734700" lon="2.411496">
        <ele>317.01</ele>
        <time>2016-02-13T00:04:59Z</time>
      </trkpt>
      <trkpt lat="41.734618" lon="2.411537">
        <ele>317.07</ele>
        <time>2016-02-13T00:05:19Z</time>
      </trkpt>
      <trkpt lat="41.734532" lon="2.411570">
        <ele>317.09</ele>
        <time>2016-02-13T00:05:39Z</time>
      </trkpt>
      <trkpt lat="41.734364" lon="2.411627">
        <ele>317.10</ele>
        <time>2016-02-13T00:05:59Z</time>
      </trkpt>
      <trkpt lat="41.734196" lon="2.411688">
        <ele>317.03</ele>
        <time>2016-02-13T00:06:19Z</time>
      </trkpt>
      <trkpt lat="41.734020" lon="2.411737">
        <ele>317.02</ele>
        <time>2016-02-13T00:06:39Z</time>
      </trkpt>
      <trkpt lat="41.733844" lon="2.411762">
        <ele>317.02</ele>
        <time>2016-02-13T00:06:59Z</time>
      </trkpt>
      <trkpt lat="41.733672" lon="2.411785">
        <ele>317.05</ele>
        <time>2016-02-13T00:07:19Z</time>
      </trkpt>
      <trkpt lat="41.733588" lon="2.411802">
        <ele>317.09</ele>
        <time>2016-02-13T00:07:39Z</time>
      </trkpt>
      <trkpt lat="41.733426" lon="2.411848">
        <ele>317.02</ele>
        <time>2016-02-13T00:07:59Z</time>
      </trkpt>
      <trkpt lat="41.733354" lon="2.411886">
        <ele>317.08</ele>
        <time>2016-02-13T00:08:19Z</time>
      </trkpt>
      <trkpt lat="41.733224" lon="2.412003">
        <ele>317.01</ele>
        <time>2016-02-13T00:08:39Z</time>
      </trkpt>
      <trkpt lat="41.733096" lon="2.412122">
        <ele>317.01</ele>
        <time>2016-02-13T00:08:59Z</time>
      </trkpt>
      <trkpt lat="41.733030" lon="2.412183">
        <ele>317.01</ele>
        <time>2016-02-13T00:09:19Z</time>
      </trkpt>
      <trkpt lat="41.732960" lon="2.412238">
        <ele>317.04</ele>
        <time>2016-02-13T00:09:39Z</time>
      </trkpt>
      <trkpt lat="41.732890" lon="2.412281">
        <ele>317.01</ele>
        <time>2016-02-13T00:09:59Z</time>
      </trkpt>
      <trkpt lat="41.732742" lon="2.412361">
        <ele>316.02</ele>
        <time>2016-02-13T00:10:19Z</time>
      </trkpt>
      <trkpt lat="41.732600" lon="2.412433">
        <ele>316.08</ele>
        <time>2016-02-13T00:10:39Z</time>
      </trkpt>
      <trkpt lat="41.732466" lon="2.412524">
        <ele>316.06</ele>
        <time>2016-02-13T00:10:59Z</time>
      </trkpt>
      <trkpt lat="41.732402" lon="2.412578">
        <ele>316.02</ele>
        <time>2016-02-13T00:11:19Z</time>
      </trkpt>
      <trkpt lat="41.732338" lon="2.412635">
        <ele>316.10</ele>
        <time>2016-02-13T00:11:39Z</time>
      </trkpt>
      <trkpt lat="41.732272" lon="2.412694">
        <ele>316.08</ele>
        <time>2016-02-13T00:11:59Z</time>
      </trkpt>
      <trkpt lat="41.732208" lon="2.412754">
        <ele>316.03</ele>
        <time>2016-02-13T00:12:19Z</time>
      </trkpt>
      <trkpt lat="41.732142" lon="2.412815">
        <ele>316.03</ele>
        <time>2016-02-13T00:12:39Z</time>
      </trkpt>
      <trkpt lat="41.732075" lon="2.412880">
        <ele>312.01</ele>
        <time>2016-02-13T00:12:59Z</time>
      </trkpt>
      <trkpt lat="41.732008" lon="2.412949">
        <ele>312.10</ele>
        <time>2016-02-13T00:13:19Z</time>
      </trkpt>
      <trkpt lat="41.731943" lon="2.413018">
        <ele>312.09</ele>
        <time>2016-02-13T00:13:39Z</time>
      </trkpt>
      <trkpt lat="41.731882" lon="2.413093">
        <ele>312.05</ele>
        <time>2016-02-13T00:13:59Z</time>
      </trkpt>
      <trkpt lat="41.731825" lon="2.413175">
        <ele>311.99</ele>
        <time>2016-02-13T00:14:19Z</time>
      </trkpt>
      <trkpt lat="41.731770" lon="2.413269">
        <ele>311.27</ele>
        <time>2016-02-13T00:14:39Z</time>
      </trkpt>
      <trkpt lat="41.731719" lon="2.413376">
        <ele>311.02</ele>
        <time>2016-02-13T00:14:59Z</time>
      </trkpt>
      <trkpt lat="41.731673" lon="2.413484">
        <ele>311.09</ele>
        <time>2016-02-13T00:15:19Z</time>
      </trkpt>
      <trkpt lat="41.731630" lon="2.413588">
        <ele>311.03</ele>
        <time>2016-02-13T00:15:39Z</time>
      </trkpt>
      <trkpt lat="41.731587" lon="2.413709">
        <ele>310.74</ele>
        <time>2016-02-13T00:15:59Z</time>
      </trkpt>
      <trkpt lat="41.731546" lon="2.413824">
        <ele>307.66</ele>
        <time>2016-02-13T00:16:19Z</time>
      </trkpt>
      <trkpt lat="41.731503" lon="2.413930">
        <ele>305.91</ele>
        <time>2016-02-13T00:16:39Z</time>
      </trkpt>
      <trkpt lat="41.731454" lon="2.414042">
        <ele>305.11</ele>
        <time>2016-02-13T00:16:59Z</time>
      </trkpt>
      <trkpt lat="41.731401" lon="2.414157">
        <ele>305.06</ele>
        <time>2016-02-13T00:17:19Z</time>
      </trkpt>
      <trkpt lat="41.731346" lon="2.414276">
        <ele>305.08</ele>
        <time>2016-02-13T00:17:39Z</time>
      </trkpt>
      <trkpt lat="41.731298" lon="2.414389">
        <ele>305.02</ele>
        <time>2016-02-13T00:17:59Z</time>
      </trkpt>
      <trkpt lat="41.731257" lon="2.414499">
        <ele>305.05</ele>
        <time>2016-02-13T00:18:19Z</time>
      </trkpt>
      <trkpt lat="41.731220" lon="2.414611">
        <ele>305.05</ele>
        <time>2016-02-13T00:18:39Z</time>
      </trkpt>
      <trkpt lat="41.731185" lon="2.414731">
        <ele>305.03</ele>
        <time>2016-02-13T00:18:59Z</time>
      </trkpt>
      <trkpt lat="41.731148" lon="2.414847">
        <ele>305.06</ele>
        <time>2016-02-13T00:19:19Z</time>
      </trkpt>
      <trkpt lat="41.731068" lon="2.415065">
        <ele>305.05</ele>
        <time>2016-02-13T00:19:39Z</time>
      </trkpt>
      <trkpt lat="41.731012" lon="2.415185">
        <ele>305.05</ele>
        <time>2016-02-13T00:19:59Z</time>
      </trkpt>
      <trkpt lat="41.730943" lon="2.415298">
        <ele>305.06</ele>
        <time>2016-02-13T00:20:19Z</time>
      </trkpt>
      <trkpt lat="41.730862" lon="2.415404">
        <ele>304.92</ele>
        <time>2016-02-13T00:20:39Z</time>
      </trkpt>
      <trkpt lat="41.730778" lon="2.415482">
        <ele>304.21</ele>
        <time>2016-02-13T00:20:59Z</time>
      </trkpt>
      <trkpt lat="41.730693" lon="2.415553">
        <ele>304.07</ele>
        <time>2016-02-13T00:21:19Z</time>
      </trkpt>
      <trkpt lat="41.730606" lon="2.415619">
        <ele>304.04</ele>
        <time>2016-02-13T00:21:39Z</time>
      </trkpt>
      <trkpt lat="41.730522" lon="2.415681">
        <ele>304.07</ele>
        <time>2016-02-13T00:21:59Z</time>
      </trkpt>
      <trkpt lat="41.730437" lon="2.415743">
        <ele>303.94</ele>
        <time>2016-02-13T00:22:19Z</time>
      </trkpt>
      <trkpt lat="41.730354" lon="2.415804">
        <ele>303.06</ele>
        <time>2016-02-13T00:22:39Z</time>
      </trkpt>
      <trkpt lat="41.730273" lon="2.415863">
        <ele>303.08</ele>
        <time>2016-02-13T00:22:59Z</time>
      </trkpt>
      <trkpt lat="41.730192" lon="2.415921">
        <ele>303.10</ele>
        <time>2016-02-13T00:23:19Z</time>
      </trkpt>
      <trkpt lat="41.730112" lon="2.415979">
        <ele>303.08</ele>
        <time>2016-02-13T00:23:39Z</time>
      </trkpt>
      <trkpt lat="41.730033" lon="2.416034">
        <ele>303.07</ele>
        <time>2016-02-13T00:23:59Z</time>
      </trkpt>
      <trkpt lat="41.729954" lon="2.416089">
        <ele>303.03</ele>
        <time>2016-02-13T00:24:19Z</time>
      </trkpt>
      <trkpt lat="41.729877" lon="2.416143">
        <ele>303.02</ele>
        <time>2016-02-13T00:24:39Z</time>
      </trkpt>
      <trkpt lat="41.729800" lon="2.416198">
        <ele>303.01</ele>
        <time>2016-02-13T00:24:59Z</time>
      </trkpt>
      <trkpt lat="41.729723" lon="2.416250">
        <ele>303.03</ele>
        <time>2016-02-13T00:25:19Z</time>
      </trkpt>
      <trkpt lat="41.729647" lon="2.416303">
        <ele>303.03</ele>
        <time>2016-02-13T00:25:39Z</time>
      </trkpt>
      <trkpt lat="41.729572" lon="2.416356">
        <ele>303.10</ele>
        <time>2016-02-13T00:25:59Z</time>
      </trkpt>
      <trkpt lat="41.729496" lon="2.416409">
        <ele>303.04</ele>
        <time>2016-02-13T00:26:19Z</time>
      </trkpt>
      <trkpt lat="41.729420" lon="2.416460">
        <ele>303.09</ele>
        <time>2016-02-13T00:26:39Z</time>
      </trkpt>
      <trkpt lat="41.729344" lon="2.416512">
        <ele>303.09</ele>
        <time>2016-02-13T00:26:59Z</time>
      </trkpt>
      <trkpt lat="41.729269" lon="2.416566">
        <ele>303.09</ele>
        <time>2016-02-13T00:27:19Z</time>
      </trkpt>
      <trkpt lat="41.729193" lon="2.416619">
        <ele>303.05</ele>
        <time>2016-02-13T00:27:39Z</time>
      </trkpt>
      <trkpt lat="41.729116" lon="2.416674">
        <ele>303.08</ele>
        <time>2016-02-13T00:27:59Z</time>
      </trkpt>
      <trkpt lat="41.729039" lon="2.416729">
        <ele>303.01</ele>
        <time>2016-02-13T00:28:19Z</time>
      </trkpt>
      <trkpt lat="41.728961" lon="2.416785">
        <ele>303.02</ele>
        <time>2016-02-13T00:28:39Z</time>
      </trkpt>
      <trkpt lat="41.728883" lon="2.416840">
        <ele>302.91</ele>
        <time>2016-02-13T00:28:59Z</time>
      </trkpt>
      <trkpt lat="41.728803" lon="2.416895">
        <ele>301.36</ele>
        <time>2016-02-13T00:29:19Z</time>
      </trkpt>
      <trkpt lat="41.728722" lon="2.416947">
        <ele>301.09</ele>
        <time>2016-02-13T00:29:39Z</time>
      </trkpt>
      <trkpt lat="41.728640" lon="2.416998">
        <ele>301.04</ele>
        <time>2016-02-13T00:29:59Z</time>
      </trkpt>
      <trkpt lat="41.728556" lon="2.417049">
        <ele>301.06</ele>
        <time>2016-02-13T00:30:19Z</time>
      </trkpt>
      <trkpt lat="41.728472" lon="2.417097">
        <ele>301.08</ele>
        <time>2016-02-13T00:30:39Z</time>
      </trkpt>
      <trkpt lat="41.728387" lon="2.417141">
        <ele>301.07</ele>
        <time>2016-02-13T00:30:59Z</time>
      </trkpt>
      <trkpt lat="41.728301" lon="2.417181">
        <ele>301.08</ele>
        <time>2016-02-13T00:31:19Z</time>
      </trkpt>
      <trkpt lat="41.728214" lon="2.417217">
        <ele>301.02</ele>
        <time>2016-02-13T00:31:39Z</time>
      </trkpt>
      <trkpt lat="41.728126" lon="2.417251">
        <ele>301.05</ele>
        <time>2016-02-13T00:31:59Z</time>
      </trkpt>
      <trkpt lat="41.728038" lon="2.417281">
        <ele>301.03</ele>
        <time>2016-02-13T00:32:19Z</time>
      </trkpt>
      <trkpt lat="41.727950" lon="2.417307">
        <ele>297.02</ele>
        <time>2016-02-13T00:32:39Z</time>
      </trkpt>
      <trkpt lat="41.727862" lon="2.417333">
        <ele>297.01</ele>
        <time>2016-02-13T00:32:59Z</time>
      </trkpt>
      <trkpt lat="41.727774" lon="2.417358">
        <ele>297.08</ele>
        <time>2016-02-13T00:33:19Z</time>
      </trkpt>
      <trkpt lat="41.727686" lon="2.417382">
        <ele>297.03</ele>
        <time>2016-02-13T00:33:39Z</time>
      </trkpt>
      <trkpt lat="41.727599" lon="2.417408">
        <ele>297.02</ele>
        <time>2016-02-13T00:33:59Z</time>
      </trkpt>
      <trkpt lat="41.727512" lon="2.417432">
        <ele>297.08</ele>
        <time>2016-02-13T00:34:19Z</time>
      </trkpt>
      <trkpt lat="41.727425" lon="2.417456">
        <ele>297.01</ele>
        <time>2016-02-13T00:34:39Z</time>
      </trkpt>
      <trkpt lat="41.727339" lon="2.417478">
        <ele>297.04</ele>
        <time>2016-02-13T00:34:59Z</time>
      </trkpt>
      <trkpt lat="41.727253" lon="2.417500">
        <ele>297.06</ele>
        <time>2016-02-13T00:35:19Z</time>
      </trkpt>
      <trkpt lat="41.727168" lon="2.417526">
        <ele>297.02</ele>
        <time>2016-02-13T00:35:39Z</time>
      </trkpt>
      <trkpt lat="41.727083" lon="2.417550">
        <ele>297.08</ele>
        <time>2016-02-13T00:35:59Z</time>
      </trkpt>
      <trkpt lat="41.726999" lon="2.417576">
        <ele>297.04</ele>
        <time>2016-02-13T00:36:19Z</time>
      </trkpt>
      <trkpt lat="41.726914" lon="2.417598">
        <ele>297.02</ele>
        <time>2016-02-13T00:36:39Z</time>
      </trkpt>
      <trkpt lat="41.726830" lon="2.417620">
        <ele>297.01</ele>
        <time>2016-02-13T00:36:59Z</time>
      </trkpt>
      <trkpt lat="41.726747" lon="2.417644">
        <ele>297.05</ele>
        <time>2016-02-13T00:37:19Z</time>
      </trkpt>
      <trkpt lat="41.726664" lon="2.417668">
        <ele>297.04</ele>
        <time>2016-02-13T00:37:39Z</time>
      </trkpt>
      <trkpt lat="41.726582" lon="2.417692">
        <ele>297.04</ele>
        <time>2016-02-13T00:37:59Z</time>
      </trkpt>
      <trkpt lat="41.726501" lon="2.417714">
        <ele>297.01</ele>
        <time>2016-02-13T00:38:19Z</time>
      </trkpt>
      <trkpt lat="41.726421" lon="2.417736">
        <ele>297.08</ele>
        <time>2016-02-13T00:38:39Z</time>
      </trkpt>
      <trkpt lat="41.726340" lon="2.417758">
        <ele>296.85</ele>
        <time>2016-02-13T00:38:59Z</time>
      </trkpt>
      <trkpt lat="41.726260" lon="2.417782">
        <ele>295.05</ele>
        <time>2016-02-13T00:39:19Z</time>
      </trkpt>
      <trkpt lat="41.726180" lon="2.417804">
        <ele>295.02</ele>
        <time>2016-02-13T00:39:39Z</time>
      </trkpt>
      <trkpt lat="41.726099" lon="2.417828">
        <ele>295.04</ele>
        <time>2016-02-13T00:39:59Z</time>
      </trkpt>
      <trkpt lat="41.726017" lon="2.417850">
        <ele>295.07</ele>
        <time>2016-02-13T00:40:19Z</time>
      </trkpt>
      <trkpt lat="41.725935" lon="2.417874">
        <ele>295.02</ele>
        <time>2016-02-13T00:40:39Z</time>
      </trkpt>
      <trkpt lat="41.725852" lon="2.417898">
        <ele>295.01</ele>
        <time>2016-02-13T00:40:59Z</time>
      </trkpt>
      <trkpt lat="41.725768" lon="2.417924">
        <ele>295.03</ele>
        <time>2016-02-13T00:41:19Z</time>
      </trkpt>
      <trkpt lat="41.725685" lon="2.417946">
        <ele>295.06</ele>
        <time>2016-02-13T00:41:39Z</time>
      </trkpt>
      <trkpt lat="41.725602" lon="2.417970">
        <ele>295.07</ele>
        <time>2016-02-13T00:41:59Z</time>
      </trkpt>
      <trkpt lat="41.725520" lon="2.417996">
        <ele>295.07</ele>
        <time>2016-02-13T00:42:19Z</time>
      </trkpt>
      <trkpt lat="41.725438" lon="2.418024">
        <ele>295.07</ele>
        <time>2016-02-13T00:42:39Z</time>
      </trkpt>
      <trkpt lat="41.725356" lon="2.418056">
        <ele>295.08</ele>
        <time>2016-02-13T00:42:59Z</time>
      </trkpt>
      <trkpt lat="41.725276" lon="2.418100">
        <ele>295.01</ele>
        <time>2016-02-13T00:43:19Z</time>
      </trkpt>
      <trkpt lat="41.725196" lon="2.418156">
        <ele>295.03</ele>
        <time>2016-02-13T00:43:39Z</time>
      </trkpt>
      <trkpt lat="41.725116" lon="2.418218">
        <ele>295.03</ele>
        <time>2016-02-13T00:43:59Z</time>
      </trkpt>
      <trkpt lat="41.725036" lon="2.418284">
        <ele>295.05</ele>
        <time>2016-02-13T00:44:19Z</time>
      </trkpt>
      <trkpt lat="41.724956" lon="2.418354">
        <ele>295.01</ele>
        <time>2016-02-13T00:44:39Z</time>
      </trkpt>
      <trkpt lat="41.724875" lon="2.418428">
        <ele>295.01</ele>
        <time>2016-02-13T00:44:59Z</time>
      </trkpt>
      <trkpt lat="41.724793" lon="2.418502">
        <ele>295.09</ele>
        <time>2016-02-13T00:45:19Z</time>
      </trkpt>
      <trkpt lat="41.724709" lon="2.418579">
        <ele>295.01</ele>
        <time>2016-02-13T00:45:39Z</time>
      </trkpt>
      <trkpt lat="41.724624" lon="2.418656">
        <ele>292.04</ele>
        <time>2016-02-13T00:45:59Z</time>
      </trkpt>
      <trkpt lat="41.724539" lon="2.418734">
        <ele>292.01</ele>
        <time>2016-02-13T00:46:19Z</time>
      </trkpt>
      <trkpt lat="41.724453" lon="2.418812">
        <ele>292.10</ele>
        <time>2016-02-13T00:46:39Z</time>
      </trkpt>
      <trkpt lat="41.724368" lon="2.418890">
        <ele>292.04</ele>
        <time>2016-02-13T00:46:59Z</time>
      </trkpt>
      <trkpt lat="41.724283" lon="2.418968">
        <ele>292.01</ele>
        <time>2016-02-13T00:47:19Z</time>
      </trkpt>
      <trkpt lat="41.724199" lon="2.419044">
        <ele>292.02</ele>
        <time>2016-02-13T00:47:39Z</time>
      </trkpt>
      <trkpt lat="41.724117" lon="2.419120">
        <ele>292.06</ele>
        <time>2016-02-13T00:47:59Z</time>
      </trkpt>
      <trkpt lat="41.724035" lon="2.419194">
        <ele>292.06</ele>
        <time>2016-02-13T00:48:19Z</time>
      </trkpt>
      <trkpt lat="41.723954" lon="2.419268">
        <ele>292.01</ele>
        <time>2016-02-13T00:48:39Z</time>
      </trkpt>
      <trkpt lat="41.723873" lon="2.419342">
        <ele>291.61</ele>
        <time>2016-02-13T00:48:59Z</time>
      </trkpt>
      <trkpt lat="41.723791" lon="2.419418">
        <ele>288.05</ele>
        <time>2016-02-13T00:49:19Z</time>
      </trkpt>
      <trkpt lat="41.723710" lon="2.419492">
        <ele>288.07</ele>
        <time>2016-02-13T00:49:39Z</time>
      </trkpt>
      <trkpt lat="41.723627" lon="2.419566">
        <ele>288.00</ele>
        <time>2016-02-13T00:49:59Z</time>
      </trkpt>
      <trkpt lat="41.723545" lon="2.419640">
        <ele>287.16</ele>
        <time>2016-02-13T00:50:19Z</time>
      </trkpt>
      <trkpt lat="41.723463" lon="2.419714">
        <ele>287.82</ele>
        <time>2016-02-13T00:50:39Z</time>
      </trkpt>
      <trkpt lat="41.723382" lon="2.419788">
        <ele>286.99</ele>
        <time>2016-02-13T00:50:59Z</time>
      </trkpt>
      <trkpt lat="41.723301" lon="2.419860">
        <ele>286.06</ele>
        <time>2016-02-13T00:51:19Z</time>
      </trkpt>
      <trkpt lat="41.723221" lon="2.419930">
        <ele>286.17</ele>
        <time>2016-02-13T00:51:39Z</time>
      </trkpt>
      <trkpt lat="41.723142" lon="2.420002">
        <ele>287.08</ele>
        <time>2016-02-13T00:51:59Z</time>
      </trkpt>
      <trkpt lat="41.723063" lon="2.420072">
        <ele>287.01</ele>
        <time>2016-02-13T00:52:19Z</time>
      </trkpt>
      <trkpt lat="41.722986" lon="2.420142">
        <ele>286.02</ele>
        <time>2016-02-13T00:52:39Z</time>
      </trkpt>
      <trkpt lat="41.722909" lon="2.420211">
        <ele>286.01</ele>
        <time>2016-02-13T00:52:59Z</time>
      </trkpt>
      <trkpt lat="41.722834" lon="2.420278">
        <ele>286.07</ele>
        <time>2016-02-13T00:53:19Z</time>
      </trkpt>
      <trkpt lat="41.722759" lon="2.420344">
        <ele>286.05</ele>
        <time>2016-02-13T00:53:39Z</time>
      </trkpt>
      <trkpt lat="41.722686" lon="2.420411">
        <ele>286.05</ele>
        <time>2016-02-13T00:53:59Z</time>
      </trkpt>
      <trkpt lat="41.722613" lon="2.420478">
        <ele>286.09</ele>
        <time>2016-02-13T00:54:19Z</time>
      </trkpt>
      <trkpt lat="41.722541" lon="2.420542">
        <ele>286.08</ele>
        <time>2016-02-13T00:54:39Z</time>
      </trkpt>
      <trkpt lat="41.722469" lon="2.420608">
        <ele>286.10</ele>
        <time>2016-02-13T00:54:59Z</time>
      </trkpt>
      <trkpt lat="41.722397" lon="2.420670">
        <ele>286.07</ele>
        <time>2016-02-13T00:55:19Z</time>
      </trkpt>
      <trkpt lat="41.722326" lon="2.420734">
        <ele>286.03</ele>
        <time>2016-02-13T00:55:39Z</time>
      </trkpt>
      <trkpt lat="41.722256" lon="2.420796">
        <ele>286.02</ele>
        <time>2016-02-13T00:55:59Z</time>
      </trkpt>
      <trkpt lat="41.722186" lon="2.420858">
        <ele>286.04</ele>
        <time>2016-02-13T00:56:19Z</time>
      </trkpt>
      <trkpt lat="41.722117" lon="2.420924">
        <ele>286.01</ele>
        <time>2016-02-13T00:56:39Z</time>
      </trkpt>
      <trkpt lat="41.722046" lon="2.420990">
        <ele>286.01</ele>
        <time>2016-02-13T00:56:59Z</time>
      </trkpt>
      <trkpt lat="41.721975" lon="2.421056">
        <ele>286.05</ele>
        <time>2016-02-13T00:57:19Z</time>
      </trkpt>
      <trkpt lat="41.721901" lon="2.421118">
        <ele>286.01</ele>
        <time>2016-02-13T00:57:39Z</time>
      </trkpt>
      <trkpt lat="41.721826" lon="2.421178">
        <ele>286.08</ele>
        <time>2016-02-13T00:57:59Z</time>
      </trkpt>
      <trkpt lat="41.721752" lon="2.421242">
        <ele>286.07</ele>
        <time>2016-02-13T00:58:19Z</time>
      </trkpt>
      <trkpt lat="41.721679" lon="2.421307">
        <ele>286.06</ele>
        <time>2016-02-13T00:58:39Z</time>
      </trkpt>
      <trkpt lat="41.721605" lon="2.421372">
        <ele>285.84</ele>
        <time>2016-02-13T00:58:59Z</time>
      </trkpt>
      <trkpt lat="41.721530" lon="2.421436">
        <ele>284.08</ele>
        <time>2016-02-13T00:59:19Z</time>
      </trkpt>
      <trkpt lat="41.721454" lon="2.421498">
        <ele>284.07</ele>
        <time>2016-02-13T00:59:39Z</time>
      </trkpt>
      <trkpt lat="41.721379" lon="2.421562">
        <ele>284.10</ele>
        <time>2016-02-13T00:59:59Z</time>
      </trkpt>
      <trkpt lat="41.721303" lon="2.421626">
        <ele>284.05</ele>
        <time>2016-02-13T01:00:19Z</time>
      </trkpt>
      <trkpt lat="41.721227" lon="2.421688">
        <ele>283.92</ele>
        <time>2016-02-13T01:00:39Z</time>
      </trkpt>
      <trkpt lat="41.721152" lon="2.421752">
        <ele>283.11</ele>
        <time>2016-02-13T01:00:59Z</time>
      </trkpt>
      <trkpt lat="41.721077" lon="2.421816">
        <ele>283.02</ele>
        <time>2016-02-13T01:01:19Z</time>
      </trkpt>
      <trkpt lat="41.721002" lon="2.421882">
        <ele>283.08</ele>
        <time>2016-02-13T01:01:39Z</time>
      </trkpt>
      <trkpt lat="41.720927" lon="2.421948">
        <ele>283.03</ele>
        <time>2016-02-13T01:01:59Z</time>
      </trkpt>
      <trkpt lat="41.720852" lon="2.422012">
        <ele>282.98</ele>
        <time>2016-02-13T01:02:19Z</time>
      </trkpt>
      <trkpt lat="41.720776" lon="2.422078">
        <ele>282.02</ele>
        <time>2016-02-13T01:02:39Z</time>
      </trkpt>
      <trkpt lat="41.720700" lon="2.422144">
        <ele>282.05</ele>
        <time>2016-02-13T01:02:59Z</time>
      </trkpt>
      <trkpt lat="41.720623" lon="2.422210">
        <ele>282.03</ele>
        <time>2016-02-13T01:03:19Z</time>
      </trkpt>
      <trkpt lat="41.720546" lon="2.422274">
        <ele>282.02</ele>
        <time>2016-02-13T01:03:39Z</time>
      </trkpt>
      <trkpt lat="41.720468" lon="2.422340">
        <ele>282.10</ele>
        <time>2016-02-13T01:03:59Z</time>
      </trkpt>
      <trkpt lat="41.720390" lon="2.422404">
        <ele>282.01</ele>
        <time>2016-02-13T01:04:19Z</time>
      </trkpt>
      <trkpt lat="41.720312" lon="2.422472">
        <ele>282.03</ele>
        <time>2016-02-13T01:04:39Z</time>
      </trkpt>
      <trkpt lat="41.720233" lon="2.422538">
        <ele>282.01</ele>
        <time>2016-02-13T01:04:59Z</time>
      </trkpt>
      <trkpt lat="41.720154" lon="2.422606">
        <ele>282.02</ele>
        <time>2016-02-13T01:05:19Z</time>
      </trkpt>
      <trkpt lat="41.720075" lon="2.422674">
        <ele>281.85</ele>
        <time>2016-02-13T01:05:39Z</time>
      </trkpt>
      <trkpt lat="41.719995" lon="2.422742">
        <ele>280.03</ele>
        <time>2016-02-13T01:05:59Z</time>
      </trkpt>
      <trkpt lat="41.719914" lon="2.422812">
        <ele>280.01</ele>
        <time>2016-02-13T01:06:19Z</time>
      </trkpt>
      <trkpt lat="41.719834" lon="2.422882">
        <ele>280.05</ele>
        <time>2016-02-13T01:06:39Z</time>
      </trkpt>
      <trkpt lat="41.719753" lon="2.422950">
        <ele>280.10</ele>
        <time>2016-02-13T01:06:59Z</time>
      </trkpt>
      <trkpt lat="41.719672" lon="2.423020">
        <ele>280.03</ele>
        <time>2016-02-13T01:07:19Z</time>
      </trkpt>
      <trkpt lat="41.719592" lon="2.423090">
        <ele>278.02</ele>
        <time>2016-02-13T01:07:39Z</time>
      </trkpt>
      <trkpt lat="41.719511" lon="2.423158">
        <ele>278.03</ele>
        <time>2016-02-13T01:07:59Z</time>
      </trkpt>
      <trkpt lat="41.719430" lon="2.423226">
        <ele>278.05</ele>
        <time>2016-02-13T01:08:19Z</time>
      </trkpt>
      <trkpt lat="41.719349" lon="2.423296">
        <ele>278.01</ele>
        <time>2016-02-13T01:08:39Z</time>
      </trkpt>
      <trkpt lat="41.719268" lon="2.423366">
        <ele>277.81</ele>
        <time>2016-02-13T01:08:59Z</time>
      </trkpt>
      <trkpt lat="41.719187" lon="2.423434">
        <ele>276.09</ele>
        <time>2016-02-13T01:09:19Z</time>
      </trkpt>
      <trkpt lat="41.719107" lon="2.423504">
        <ele>276.02</ele>
        <time>2016-02-13T01:09:39Z</time>
      </trkpt>
      <trkpt lat="41.719027" lon="2.423572">
        <ele>276.01</ele>
        <time>2016-02-13T01:09:59Z</time>
      </trkpt>
      <trkpt lat="41.718948" lon="2.423642">
        <ele>276.05</ele>
        <time>2016-02-13T01:10:19Z</time>
      </trkpt>
      <trkpt lat="41.718868" lon="2.423710">
        <ele>276.06</ele>
        <time>2016-02-13T01:10:39Z</time>
      </trkpt>
      <trkpt lat="41.718788" lon="2.423778">
        <ele>275.09</ele>
        <time>2016-02-13T01:10:59Z</time>
      </trkpt>
      <trkpt lat="41.718708" lon="2.423846">
        <ele>275.01</ele>
        <time>2016-02-13T01:11:19Z</time>
      </trkpt>
      <trkpt lat="41.718628" lon="2.423914">
        <ele>275.07</ele>
        <time>2016-02-13T01:11:39Z</time>
      </trkpt>
      <trkpt lat="41.718548" lon="2.423982">
        <ele>275.04</ele>
        <time>2016-02-13T01:11:59Z</time>
      </trkpt>
      <trkpt lat="41.718468" lon="2.424050">
        <ele>275.08</ele>
        <time>2016-02-13T01:12:19Z</time>
      </trkpt>
      <trkpt lat="41.718388" lon="2.424119">
        <ele>274.91</ele>
        <time>2016-02-13T01:12:39Z</time>
      </trkpt>
      <trkpt lat="41.718308" lon="2.424188">
        <ele>274.01</ele>
        <time>2016-02-13T01:12:59Z</time>
      </trkpt>
      <trkpt lat="41.718228" lon="2.424256">
        <ele>274.05</ele>
        <time>2016-02-13T01:13:19Z</time>
      </trkpt>
      <trkpt lat="41.718148" lon="2.424326">
        <ele>274.03</ele>
        <time>2016-02-13T01:13:39Z</time>
      </trkpt>
      <trkpt lat="41.718069" lon="2.424394">
        <ele>274.02</ele>
        <time>2016-02-13T01:13:59Z</time>
      </trkpt>
      <trkpt lat="41.717989" lon="2.424462">
        <ele>273.95</ele>
        <time>2016-02-13T01:14:19Z</time>
      </trkpt>
      <trkpt lat="41.717910" lon="2.424530">
        <ele>273.03</ele>
        <time>2016-02-13T01:14:39Z</time>
      </trkpt>
      <trkpt lat="41.717831" lon="2.424597">
        <ele>273.09</ele>
        <time>2016-02-13T01:14:59Z</time>
      </trkpt>
      <trkpt lat="41.717755" lon="2.424665">
        <ele>273.05</ele>
        <time>2016-02-13T01:15:19Z</time>
      </trkpt>
      <trkpt lat="41.717679" lon="2.424731">
        <ele>273.10</ele>
        <time>2016-02-13T01:15:39Z</time>
      </trkpt>
      <trkpt lat="41.717605" lon="2.424796">
        <ele>273.05</ele>
        <time>2016-02-13T01:15:59Z</time>
      </trkpt>
      <trkpt lat="41.717532" lon="2.424859">
        <ele>272.09</ele>
        <time>2016-02-13T01:16:19Z</time>
      </trkpt>
      <trkpt lat="41.717460" lon="2.424921">
        <ele>272.02</ele>
        <time>2016-02-13T01:16:39Z</time>
      </trkpt>
      <trkpt lat="41.717389" lon="2.424980">
        <ele>272.01</ele>
        <time>2016-02-13T01:16:59Z</time>
      </trkpt>
      <trkpt lat="41.717320" lon="2.425039">
        <ele>272.07</ele>
        <time>2016-02-13T01:17:19Z</time>
      </trkpt>
      <trkpt lat="41.717251" lon="2.425097">
        <ele>272.09</ele>
        <time>2016-02-13T01:17:39Z</time>
      </trkpt>
      <trkpt lat="41.717183" lon="2.425155">
        <ele>272.09</ele>
        <time>2016-02-13T01:17:59Z</time>
      </trkpt>
      <trkpt lat="41.717115" lon="2.425213">
        <ele>272.07</ele>
        <time>2016-02-13T01:18:19Z</time>
      </trkpt>
      <trkpt lat="41.717046" lon="2.425271">
        <ele>272.03</ele>
        <time>2016-02-13T01:18:39Z</time>
      </trkpt>
      <trkpt lat="41.716977" lon="2.425330">
        <ele>272.02</ele>
        <time>2016-02-13T01:18:59Z</time>
      </trkpt>
      <trkpt lat="41.716908" lon="2.425389">
        <ele>271.86</ele>
        <time>2016-02-13T01:19:19Z</time>
      </trkpt>
      <trkpt lat="41.716838" lon="2.425448">
        <ele>270.04</ele>
        <time>2016-02-13T01:19:39Z</time>
      </trkpt>
      <trkpt lat="41.716768" lon="2.425509">
        <ele>270.05</ele>
        <time>2016-02-13T01:19:59Z</time>
      </trkpt>
      <trkpt lat="41.716698" lon="2.425570">
        <ele>270.06</ele>
        <time>2016-02-13T01:20:19Z</time>
      </trkpt>
      <trkpt lat="41.716627" lon="2.425630">
        <ele>270.02</ele>
        <time>2016-02-13T01:20:39Z</time>
      </trkpt>
      <trkpt lat="41.716555" lon="2.425691">
        <ele>270.01</ele>
        <time>2016-02-13T01:20:59Z</time>
      </trkpt>
      <trkpt lat="41.716481" lon="2.425753">
        <ele>270.04</ele>
        <time>2016-02-13T01:21:19Z</time>
      </trkpt>
      <trkpt lat="41.716407" lon="2.425816">
        <ele>270.07</ele>
        <time>2016-02-13T01:21:39Z</time>
      </trkpt>
      <trkpt lat="41.716332" lon="2.425880">
        <ele>270.02</ele>
        <time>2016-02-13T01:21:59Z</time>
      </trkpt>
      <trkpt lat="41.716256" lon="2.425944">
        <ele>270.07</ele>
        <time>2016-02-13T01:22:19Z</time>
      </trkpt>
      <trkpt lat="41.716180" lon="2.426009">
        <ele>269.89</ele>
        <time>2016-02-13T01:22:39Z</time>
      </trkpt>
      <trkpt lat="41.716103" lon="2.426072">
        <ele>268.07</ele>
        <time>2016-02-13T01:22:59Z</time>
      </trkpt>
      <trkpt lat="41.716025" lon="2.426138">
        <ele>268.07</ele>
        <time>2016-02-13T01:23:19Z</time>
      </trkpt>
      <trkpt lat="41.715947" lon="2.426205">
        <ele>268.08</ele>
        <time>2016-02-13T01:23:39Z</time>
      </trkpt>
      <trkpt lat="41.715869" lon="2.426270">
        <ele>268.08</ele>
        <time>2016-02-13T01:23:59Z</time>
      </trkpt>
      <trkpt lat="41.715790" lon="2.426337">
        <ele>268.06</ele>
        <time>2016-02-13T01:24:19Z</time>
      </trkpt>
      <trkpt lat="41.715710" lon="2.426404">
        <ele>268.03</ele>
        <time>2016-02-13T01:24:39Z</time>
      </trkpt>
      <trkpt lat="41.715632" lon="2.426473">
        <ele>268.01</ele>
        <time>2016-02-13T01:24:59Z</time>
      </trkpt>
      <trkpt lat="41.715554" lon="2.426542">
        <ele>268.08</ele>
        <time>2016-02-13T01:25:19Z</time>
      </trkpt>
      <trkpt lat="41.715477" lon="2.426609">
        <ele>268.05</ele>
        <time>2016-02-13T01:25:39Z</time>
      </trkpt>
      <trkpt lat="41.715402" lon="2.426676">
        <ele>268.00</ele>
        <time>2016-02-13T01:25:59Z</time>
      </trkpt>
      <trkpt lat="41.715326" lon="2.426741">
        <ele>266.37</ele>
        <time>2016-02-13T01:26:19Z</time>
      </trkpt>
      <trkpt lat="41.715250" lon="2.426803">
        <ele>266.05</ele>
        <time>2016-02-13T01:26:39Z</time>
      </trkpt>
      <trkpt lat="41.715173" lon="2.426866">
        <ele>266.09</ele>
        <time>2016-02-13T01:26:59Z</time>
      </trkpt>
      <trkpt lat="41.715095" lon="2.426928">
        <ele>266.06</ele>
        <time>2016-02-13T01:27:19Z</time>
      </trkpt>
      <trkpt lat="41.715016" lon="2.426988">
        <ele>265.85</ele>
        <time>2016-02-13T01:27:39Z</time>
      </trkpt>
      <trkpt lat="41.714936" lon="2.427048">
        <ele>263.06</ele>
        <time>2016-02-13T01:27:59Z</time>
      </trkpt>
      <trkpt lat="41.714855" lon="2.427109">
        <ele>263.04</ele>
        <time>2016-02-13T01:28:19Z</time>
      </trkpt>
      <trkpt lat="41.714775" lon="2.427167">
        <ele>263.02</ele>
        <time>2016-02-13T01:28:39Z</time>
      </trkpt>
      <trkpt lat="41.714693" lon="2.427221">
        <ele>263.01</ele>
        <time>2016-02-13T01:28:59Z</time>
      </trkpt>
      <trkpt lat="41.714611" lon="2.427273">
        <ele>262.94</ele>
        <time>2016-02-13T01:29:19Z</time>
      </trkpt>
      <trkpt lat="41.714528" lon="2.427324">
        <ele>262.09</ele>
        <time>2016-02-13T01:29:39Z</time>
      </trkpt>
      <trkpt lat="41.714445" lon="2.427373">
        <ele>262.02</ele>
        <time>2016-02-13T01:29:59Z</time>
      </trkpt>
      <trkpt lat="41.714361" lon="2.427421">
        <ele>262.09</ele>
        <time>2016-02-13T01:30:19Z</time>
      </trkpt>
      <trkpt lat="41.714278" lon="2.427468">
        <ele>262.01</ele>
        <time>2016-02-13T01:30:39Z</time>
      </trkpt>
      <trkpt lat="41.714194" lon="2.427513">
        <ele>262.06</ele>
        <time>2016-02-13T01:30:59Z</time>
      </trkpt>
      <trkpt lat="41.714110" lon="2.427556">
        <ele>261.03</ele>
        <time>2016-02-13T01:31:19Z</time>
      </trkpt>
      <trkpt lat="41.714027" lon="2.427599">
        <ele>261.09</ele>
        <time>2016-02-13T01:31:39Z</time>
      </trkpt>
      <trkpt lat="41.713945" lon="2.427643">
        <ele>261.01</ele>
        <time>2016-02-13T01:31:59Z</time>
      </trkpt>
      <trkpt lat="41.713863" lon="2.427688">
        <ele>261.02</ele>
        <time>2016-02-13T01:32:19Z</time>
      </trkpt>
      <trkpt lat="41.713781" lon="2.427734">
        <ele>261.00</ele>
        <time>2016-02-13T01:32:39Z</time>
      </trkpt>
      <trkpt lat="41.713698" lon="2.427779">
        <ele>261.01</ele>
        <time>2016-02-13T01:32:59Z</time>
      </trkpt>
      <trkpt lat="41.713615" lon="2.427822">
        <ele>261.01</ele>
        <time>2016-02-13T01:33:19Z</time>
      </trkpt>
      <trkpt lat="41.713532" lon="2.427865">
        <ele>261.03</ele>
        <time>2016-02-13T01:33:39Z</time>
      </trkpt>
      <trkpt lat="41.713449" lon="2.427909">
        <ele>260.84</ele>
        <time>2016-02-13T01:33:59Z</time>
      </trkpt>
      <trkpt lat="41.713367" lon="2.427952">
        <ele>259.09</ele>
        <time>2016-02-13T01:34:19Z</time>
      </trkpt>
      <trkpt lat="41.713287" lon="2.427995">
        <ele>259.04</ele>
        <time>2016-02-13T01:34:39Z</time>
      </trkpt>
      <trkpt lat="41.713207" lon="2.428037">
        <ele>259.03</ele>
        <time>2016-02-13T01:34:59Z</time>
      </trkpt>
      <trkpt lat="41.713128" lon="2.428079">
        <ele>259.01</ele>
        <time>2016-02-13T01:35:19Z</time>
      </trkpt>
      <trkpt lat="41.713049" lon="2.428121">
        <ele>258.93</ele>
        <time>2016-02-13T01:35:39Z</time>
      </trkpt>
      <trkpt lat="41.712971" lon="2.428164">
        <ele>258.06</ele>
        <time>2016-02-13T01:35:59Z</time>
      </trkpt>
      <trkpt lat="41.712893" lon="2.428206">
        <ele>258.04</ele>
        <time>2016-02-13T01:36:19Z</time>
      </trkpt>
      <trkpt lat="41.712815" lon="2.428249">
        <ele>258.02</ele>
        <time>2016-02-13T01:36:39Z</time>
      </trkpt>
      <trkpt lat="41.712737" lon="2.428290">
        <ele>258.01</ele>
        <time>2016-02-13T01:36:59Z</time>
      </trkpt>
      <trkpt lat="41.712659" lon="2.428331">
        <ele>258.02</ele>
        <time>2016-02-13T01:37:19Z</time>
      </trkpt>
      <trkpt lat="41.712581" lon="2.428373">
        <ele>258.02</ele>
        <time>2016-02-13T01:37:39Z</time>
      </trkpt>
      <trkpt lat="41.712502" lon="2.428415">
        <ele>258.08</ele>
        <time>2016-02-13T01:37:59Z</time>
      </trkpt>
      <trkpt lat="41.712424" lon="2.428458">
        <ele>258.03</ele>
        <time>2016-02-13T01:38:19Z</time>
      </trkpt>
      <trkpt lat="41.712346" lon="2.428500">
        <ele>258.07</ele>
        <time>2016-02-13T01:38:39Z</time>
      </trkpt>
      <trkpt lat="41.712268" lon="2.428542">
        <ele>258.05</ele>
        <time>2016-02-13T01:38:59Z</time>
      </trkpt>
      <trkpt lat="41.712190" lon="2.428583">
        <ele>258.04</ele>
        <time>2016-02-13T01:39:19Z</time>
      </trkpt>
      <trkpt lat="41.712112" lon="2.428625">
        <ele>258.09</ele>
        <time>2016-02-13T01:39:39Z</time>
      </trkpt>
      <trkpt lat="41.712034" lon="2.428667">
        <ele>258.04</ele>
        <time>2016-02-13T01:39:59Z</time>
      </trkpt>
      <trkpt lat="41.711957" lon="2.428709">
        <ele>258.07</ele>
        <time>2016-02-13T01:40:19Z</time>
      </trkpt>
      <trkpt lat="41.711880" lon="2.428751">
        <ele>258.02</ele>
        <time>2016-02-13T01:40:39Z</time>
      </trkpt>
      <trkpt lat="41.711803" lon="2.428794">
        <ele>256.01</ele>
        <time>2016-02-13T01:40:59Z</time>
      </trkpt>
      <trkpt lat="41.711727" lon="2.428835">
        <ele>256.04</ele>
        <time>2016-02-13T01:41:19Z</time>
      </trkpt>
      <trkpt lat="41.711650" lon="2.428875">
        <ele>256.08</ele>
        <time>2016-02-13T01:41:39Z</time>
      </trkpt>
      <trkpt lat="41.711573" lon="2.428916">
        <ele>256.08</ele>
        <time>2016-02-13T01:41:59Z</time>
      </trkpt>
      <trkpt lat="41.711496" lon="2.428957">
        <ele>256.02</ele>
        <time>2016-02-13T01:42:19Z</time>
      </trkpt>
      <trkpt lat="41.711418" lon="2.428998">
        <ele>256.04</ele>
        <time>2016-02-13T01:42:39Z</time>
      </trkpt>
      <trkpt lat="41.711341" lon="2.429039">
        <ele>256.05</ele>
        <time>2016-02-13T01:42:59Z</time>
      </trkpt>
      <trkpt lat="41.711264" lon="2.429081">
        <ele>256.02</ele>
        <time>2016-02-13T01:43:19Z</time>
      </trkpt>
      <trkpt lat="41.711188" lon="2.429122">
        <ele>256.10</ele>
        <time>2016-02-13T01:43:39Z</time>
      </trkpt>
      <trkpt lat="41.711112" lon="2.429162">
        <ele>256.00</ele>
        <time>2016-02-13T01:43:59Z</time>
      </trkpt>
      <trkpt lat="41.711037" lon="2.429202">
        <ele>255.05</ele>
        <time>2016-02-13T01:44:19Z</time>
      </trkpt>
      <trkpt lat="41.710961" lon="2.429243">
        <ele>255.02</ele>
        <time>2016-02-13T01:44:39Z</time>
      </trkpt>
      <trkpt lat="41.710886" lon="2.429283">
        <ele>255.01</ele>
        <time>2016-02-13T01:44:59Z</time>
      </trkpt>
      <trkpt lat="41.710810" lon="2.429323">
        <ele>255.07</ele>
        <time>2016-02-13T01:45:19Z</time>
      </trkpt>
      <trkpt lat="41.710735" lon="2.429364">
        <ele>255.02</ele>
        <time>2016-02-13T01:45:39Z</time>
      </trkpt>
      <trkpt lat="41.710660" lon="2.429403">
        <ele>255.03</ele>
        <time>2016-02-13T01:45:59Z</time>
      </trkpt>
      <trkpt lat="41.710586" lon="2.429443">
        <ele>255.07</ele>
        <time>2016-02-13T01:46:19Z</time>
      </trkpt>
      <trkpt lat="41.710512" lon="2.429482">
        <ele>255.10</ele>
        <time>2016-02-13T01:46:39Z</time>
      </trkpt>
      <trkpt lat="41.710438" lon="2.429522">
        <ele>255.04</ele>
        <time>2016-02-13T01:46:59Z</time>
      </trkpt>
      <trkpt lat="41.710365" lon="2.429563">
        <ele>254.68</ele>
        <time>2016-02-13T01:47:19Z</time>
      </trkpt>
      <trkpt lat="41.710292" lon="2.429603">
        <ele>251.01</ele>
        <time>2016-02-13T01:47:39Z</time>
      </trkpt>
      <trkpt lat="41.710220" lon="2.429642">
        <ele>251.04</ele>
        <time>2016-02-13T01:47:59Z</time>
      </trkpt>
      <trkpt lat="41.710148" lon="2.429679">
        <ele>251.02</ele>
        <time>2016-02-13T01:48:19Z</time>
      </trkpt>
      <trkpt lat="41.710077" lon="2.429716">
        <ele>251.01</ele>
        <time>2016-02-13T01:48:39Z</time>
      </trkpt>
      <trkpt lat="41.710007" lon="2.429752">
        <ele>251.01</ele>
        <time>2016-02-13T01:48:59Z</time>
      </trkpt>
      <trkpt lat="41.709938" lon="2.429787">
        <ele>251.10</ele>
        <time>2016-02-13T01:49:19Z</time>
      </trkpt>
      <trkpt lat="41.709869" lon="2.429824">
        <ele>251.04</ele>
        <time>2016-02-13T01:49:39Z</time>
      </trkpt>
      <trkpt lat="41.709797" lon="2.429862">
        <ele>251.07</ele>
        <time>2016-02-13T01:49:59Z</time>
      </trkpt>
      <trkpt lat="41.709725" lon="2.429902">
        <ele>251.09</ele>
        <time>2016-02-13T01:50:19Z</time>
      </trkpt>
      <trkpt lat="41.709651" lon="2.429944">
        <ele>251.01</ele>
        <time>2016-02-13T01:50:39Z</time>
      </trkpt>
      <trkpt lat="41.709576" lon="2.429985">
        <ele>251.05</ele>
        <time>2016-02-13T01:50:59Z</time>
      </trkpt>
      <trkpt lat="41.709500" lon="2.430028">
        <ele>251.06</ele>
        <time>2016-02-13T01:51:19Z</time>
      </trkpt>
      <trkpt lat="41.709424" lon="2.430067">
        <ele>251.05</ele>
        <time>2016-02-13T01:51:39Z</time>
      </trkpt>
      <trkpt lat="41.709348" lon="2.430107">
        <ele>251.08</ele>
        <time>2016-02-13T01:51:59Z</time>
      </trkpt>
      <trkpt lat="41.709271" lon="2.430148">
        <ele>250.86</ele>
        <time>2016-02-13T01:52:19Z</time>
      </trkpt>
      <trkpt lat="41.709194" lon="2.430187">
        <ele>249.03</ele>
        <time>2016-02-13T01:52:39Z</time>
      </trkpt>
      <trkpt lat="41.709117" lon="2.430228">
        <ele>249.01</ele>
        <time>2016-02-13T01:52:59Z</time>
      </trkpt>
      <trkpt lat="41.709042" lon="2.430268">
        <ele>249.06</ele>
        <time>2016-02-13T01:53:19Z</time>
      </trkpt>
      <trkpt lat="41.708969" lon="2.430306">
        <ele>249.07</ele>
        <time>2016-02-13T01:53:39Z</time>
      </trkpt>
      <trkpt lat="41.708897" lon="2.430345">
        <ele>249.09</ele>
        <time>2016-02-13T01:53:59Z</time>
      </trkpt>
      <trkpt lat="41.708825" lon="2.430384">
        <ele>249.02</ele>
        <time>2016-02-13T01:54:19Z</time>
      </trkpt>
      <trkpt lat="41.708753" lon="2.430423">
        <ele>249.07</ele>
        <time>2016-02-13T01:54:39Z</time>
      </trkpt>
      <trkpt lat="41.708683" lon="2.430464">
        <ele>249.04</ele>
        <time>2016-02-13T01:54:59Z</time>
      </trkpt>
      <trkpt lat="41.708610" lon="2.430505">
        <ele>249.08</ele>
        <time>2016-02-13T01:55:19Z</time>
      </trkpt>
      <trkpt lat="41.708536" lon="2.430549">
        <ele>248.96</ele>
        <time>2016-02-13T01:55:39Z</time>
      </trkpt>
      <trkpt lat="41.708464" lon="2.430589">
        <ele>248.09</ele>
        <time>2016-02-13T01:55:59Z</time>
      </trkpt>
      <trkpt lat="41.708393" lon="2.430637">
        <ele>248.09</ele>
        <time>2016-02-13T01:56:19Z</time>
      </trkpt>
      <trkpt lat="41.708323" lon="2.430681">
        <ele>248.02</ele>
        <time>2016-02-13T01:56:39Z</time>
      </trkpt>
      <trkpt lat="41.708248" lon="2.430721">
        <ele>248.01</ele>
        <time>2016-02-13T01:56:59Z</time>
      </trkpt>
      <trkpt lat="41.708172" lon="2.430759">
        <ele>248.08</ele>
        <time>2016-02-13T01:57:19Z</time>
      </trkpt>
      <trkpt lat="41.708095" lon="2.430792">
        <ele>246.09</ele>
        <time>2016-02-13T01:57:39Z</time>
      </trkpt>
      <trkpt lat="41.708017" lon="2.430824">
        <ele>246.04</ele>
        <time>2016-02-13T01:57:59Z</time>
      </trkpt>
      <trkpt lat="41.707939" lon="2.430860">
        <ele>246.03</ele>
        <time>2016-02-13T01:58:19Z</time>
      </trkpt>
      <trkpt lat="41.707861" lon="2.430900">
        <ele>246.01</ele>
        <time>2016-02-13T01:58:39Z</time>
      </trkpt>
      <trkpt lat="41.707783" lon="2.430941">
        <ele>245.89</ele>
        <time>2016-02-13T01:58:59Z</time>
      </trkpt>
      <trkpt lat="41.707705" lon="2.430982">
        <ele>243.55</ele>
        <time>2016-02-13T01:59:19Z</time>
      </trkpt>
      <trkpt lat="41.707628" lon="2.431024">
        <ele>243.08</ele>
        <time>2016-02-13T01:59:39Z</time>
      </trkpt>
      <trkpt lat="41.707552" lon="2.431063">
        <ele>243.03</ele>
        <time>2016-02-13T01:59:59Z</time>
      </trkpt>
      <trkpt lat="41.707478" lon="2.431102">
        <ele>243.09</ele>
        <time>2016-02-13T02:00:19Z</time>
      </trkpt>
      <trkpt lat="41.707404" lon="2.431142">
        <ele>243.02</ele>
        <time>2016-02-13T02:00:39Z</time>
      </trkpt>
      <trkpt lat="41.707331" lon="2.431182">
        <ele>243.01</ele>
        <time>2016-02-13T02:00:59Z</time>
      </trkpt>
      <trkpt lat="41.707259" lon="2.431221">
        <ele>243.05</ele>
        <time>2016-02-13T02:01:19Z</time>
      </trkpt>
      <trkpt lat="41.707189" lon="2.431257">
        <ele>243.09</ele>
        <time>2016-02-13T02:01:39Z</time>
      </trkpt>
      <trkpt lat="41.707120" lon="2.431293">
        <ele>243.03</ele>
        <time>2016-02-13T02:01:59Z</time>
      </trkpt>
      <trkpt lat="41.707052" lon="2.431328">
        <ele>243.13</ele>
        <time>2016-02-13T02:02:19Z</time>
      </trkpt>
      <trkpt lat="41.706984" lon="2.431363">
        <ele>244.04</ele>
        <time>2016-02-13T02:02:39Z</time>
      </trkpt>
      <trkpt lat="41.706916" lon="2.431399">
        <ele>244.08</ele>
        <time>2016-02-13T02:02:59Z</time>
      </trkpt>
      <trkpt lat="41.706847" lon="2.431437">
        <ele>244.04</ele>
        <time>2016-02-13T02:03:19Z</time>
      </trkpt>
      <trkpt lat="41.706778" lon="2.431476">
        <ele>244.03</ele>
        <time>2016-02-13T02:03:39Z</time>
      </trkpt>
      <trkpt lat="41.706710" lon="2.431519">
        <ele>244.02</ele>
        <time>2016-02-13T02:03:59Z</time>
      </trkpt>
      <trkpt lat="41.706643" lon="2.431565">
        <ele>244.01</ele>
        <time>2016-02-13T02:04:19Z</time>
      </trkpt>
      <trkpt lat="41.706579" lon="2.431614">
        <ele>244.02</ele>
        <time>2016-02-13T02:04:39Z</time>
      </trkpt>
      <trkpt lat="41.706516" lon="2.431668">
        <ele>244.01</ele>
        <time>2016-02-13T02:04:59Z</time>
      </trkpt>
      <trkpt lat="41.706453" lon="2.431724">
        <ele>244.03</ele>
        <time>2016-02-13T02:05:19Z</time>
      </trkpt>
      <trkpt lat="41.706392" lon="2.431783">
        <ele>244.06</ele>
        <time>2016-02-13T02:05:39Z</time>
      </trkpt>
      <trkpt lat="41.706332" lon="2.431845">
        <ele>244.04</ele>
        <time>2016-02-13T02:05:59Z</time>
      </trkpt>
      <trkpt lat="41.706274" lon="2.431910">
        <ele>244.03</ele>
        <time>2016-02-13T02:06:19Z</time>
      </trkpt>
      <trkpt lat="41.706216" lon="2.431978">
        <ele>244.05</ele>
        <time>2016-02-13T02:06:39Z</time>
      </trkpt>
      <trkpt lat="41.706159" lon="2.432047">
        <ele>244.02</ele>
        <time>2016-02-13T02:06:59Z</time>
      </trkpt>
      <trkpt lat="41.706102" lon="2.432118">
        <ele>244.02</ele>
        <time>2016-02-13T02:07:19Z</time>
      </trkpt>
      <trkpt lat="41.706045" lon="2.432192">
        <ele>244.01</ele>
        <time>2016-02-13T02:07:39Z</time>
      </trkpt>
      <trkpt lat="41.705987" lon="2.432265">
        <ele>244.09</ele>
        <time>2016-02-13T02:07:59Z</time>
      </trkpt>
      <trkpt lat="41.705927" lon="2.432339">
        <ele>244.07</ele>
        <time>2016-02-13T02:08:19Z</time>
      </trkpt>
      <trkpt lat="41.705866" lon="2.432414">
        <ele>244.02</ele>
        <time>2016-02-13T02:08:39Z</time>
      </trkpt>
      <trkpt lat="41.705806" lon="2.432489">
        <ele>243.81</ele>
        <time>2016-02-13T02:08:59Z</time>
      </trkpt>
      <trkpt lat="41.705744" lon="2.432565">
        <ele>242.05</ele>
        <time>2016-02-13T02:09:19Z</time>
      </trkpt>
      <trkpt lat="41.705684" lon="2.432642">
        <ele>242.06</ele>
        <time>2016-02-13T02:09:39Z</time>
      </trkpt>
      <trkpt lat="41.705623" lon="2.432718">
        <ele>242.09</ele>
        <time>2016-02-13T02:09:59Z</time>
      </trkpt>
      <trkpt lat="41.705562" lon="2.432795">
        <ele>242.07</ele>
        <time>2016-02-13T02:10:19Z</time>
      </trkpt>
      <trkpt lat="41.705502" lon="2.432872">
        <ele>242.10</ele>
        <time>2016-02-13T02:10:39Z</time>
      </trkpt>
      <trkpt lat="41.705443" lon="2.432951">
        <ele>241.10</ele>
        <time>2016-02-13T02:10:59Z</time>
      </trkpt>
      <trkpt lat="41.705385" lon="2.433031">
        <ele>241.03</ele>
        <time>2016-02-13T02:11:19Z</time>
      </trkpt>
      <trkpt lat="41.705324" lon="2.433110">
        <ele>241.05</ele>
        <time>2016-02-13T02:11:39Z</time>
      </trkpt>
      <trkpt lat="41.705263" lon="2.433185">
        <ele>241.05</ele>
        <time>2016-02-13T02:11:59Z</time>
      </trkpt>
      <trkpt lat="41.705201" lon="2.433259">
        <ele>241.09</ele>
        <time>2016-02-13T02:12:19Z</time>
      </trkpt>
      <trkpt lat="41.705140" lon="2.433332">
        <ele>241.02</ele>
        <time>2016-02-13T02:12:39Z</time>
      </trkpt>
      <trkpt lat="41.705078" lon="2.433407">
        <ele>241.01</ele>
        <time>2016-02-13T02:12:59Z</time>
      </trkpt>
      <trkpt lat="41.705016" lon="2.433480">
        <ele>241.04</ele>
        <time>2016-02-13T02:13:19Z</time>
      </trkpt>
      <trkpt lat="41.704954" lon="2.433555">
        <ele>241.03</ele>
        <time>2016-02-13T02:13:39Z</time>
      </trkpt>
      <trkpt lat="41.704892" lon="2.433630">
        <ele>241.03</ele>
        <time>2016-02-13T02:13:59Z</time>
      </trkpt>
      <trkpt lat="41.704830" lon="2.433704">
        <ele>241.07</ele>
        <time>2016-02-13T02:14:19Z</time>
      </trkpt>
      <trkpt lat="41.704768" lon="2.433784">
        <ele>241.09</ele>
        <time>2016-02-13T02:14:39Z</time>
      </trkpt>
      <trkpt lat="41.704706" lon="2.433861">
        <ele>241.02</ele>
        <time>2016-02-13T02:14:59Z</time>
      </trkpt>
      <trkpt lat="41.704642" lon="2.433941">
        <ele>241.03</ele>
        <time>2016-02-13T02:15:19Z</time>
      </trkpt>
      <trkpt lat="41.704578" lon="2.434021">
        <ele>241.00</ele>
        <time>2016-02-13T02:15:39Z</time>
      </trkpt>
      <trkpt lat="41.704513" lon="2.434101">
        <ele>240.22</ele>
        <time>2016-02-13T02:15:59Z</time>
      </trkpt>
      <trkpt lat="41.704447" lon="2.434183">
        <ele>240.08</ele>
        <time>2016-02-13T02:16:19Z</time>
      </trkpt>
      <trkpt lat="41.704377" lon="2.434262">
        <ele>240.01</ele>
        <time>2016-02-13T02:16:39Z</time>
      </trkpt>
      <trkpt lat="41.704307" lon="2.434341">
        <ele>240.01</ele>
        <time>2016-02-13T02:16:59Z</time>
      </trkpt>
      <trkpt lat="41.704239" lon="2.434421">
        <ele>240.01</ele>
        <time>2016-02-13T02:17:19Z</time>
      </trkpt>
      <trkpt lat="41.704172" lon="2.434503">
        <ele>240.03</ele>
        <time>2016-02-13T02:17:39Z</time>
      </trkpt>
      <trkpt lat="41.704109" lon="2.434570">
        <ele>240.01</ele>
        <time>2016-02-13T02:17:59Z</time>
      </trkpt>
      <trkpt lat="41.704045" lon="2.434646">
        <ele>240.03</ele>
        <time>2016-02-13T02:18:19Z</time>
      </trkpt>
      <trkpt lat="41.703978" lon="2.434723">
        <ele>240.10</ele>
        <time>2016-02-13T02:18:39Z</time>
      </trkpt>
      <trkpt lat="41.703913" lon="2.434803">
        <ele>239.64</ele>
        <time>2016-02-13T02:18:59Z</time>
      </trkpt>
      <trkpt lat="41.703850" lon="2.434877">
        <ele>236.07</ele>
        <time>2016-02-13T02:19:19Z</time>
      </trkpt>
      <trkpt lat="41.703782" lon="2.434955">
        <ele>236.06</ele>
        <time>2016-02-13T02:19:39Z</time>
      </trkpt>
      <trkpt lat="41.703719" lon="2.435031">
        <ele>236.08</ele>
        <time>2016-02-13T02:19:59Z</time>
      </trkpt>
      <trkpt lat="41.703655" lon="2.435116">
        <ele>236.03</ele>
        <time>2016-02-13T02:20:19Z</time>
      </trkpt>
      <trkpt lat="41.703588" lon="2.435193">
        <ele>236.02</ele>
        <time>2016-02-13T02:20:39Z</time>
      </trkpt>
      <trkpt lat="41.703520" lon="2.435272">
        <ele>236.01</ele>
        <time>2016-02-13T02:20:59Z</time>
      </trkpt>
      <trkpt lat="41.703451" lon="2.435344">
        <ele>236.06</ele>
        <time>2016-02-13T02:21:19Z</time>
      </trkpt>
      <trkpt lat="41.703385" lon="2.435415">
        <ele>236.04</ele>
        <time>2016-02-13T02:21:39Z</time>
      </trkpt>
      <trkpt lat="41.703321" lon="2.435483">
        <ele>236.01</ele>
        <time>2016-02-13T02:21:59Z</time>
      </trkpt>
      <trkpt lat="41.703246" lon="2.435588">
        <ele>235.86</ele>
        <time>2016-02-13T02:22:19Z</time>
      </trkpt>
      <trkpt lat="41.703173" lon="2.435687">
        <ele>234.01</ele>
        <time>2016-02-13T02:22:39Z</time>
      </trkpt>
      <trkpt lat="41.703107" lon="2.435777">
        <ele>234.04</ele>
        <time>2016-02-13T02:22:59Z</time>
      </trkpt>
      <trkpt lat="41.703041" lon="2.435860">
        <ele>234.04</ele>
        <time>2016-02-13T02:23:19Z</time>
      </trkpt>
      <trkpt lat="41.702976" lon="2.435950">
        <ele>234.07</ele>
        <time>2016-02-13T02:23:39Z</time>
      </trkpt>
      <trkpt lat="41.702907" lon="2.436048">
        <ele>234.04</ele>
        <time>2016-02-13T02:23:59Z</time>
      </trkpt>
      <trkpt lat="41.702784" lon="2.436170">
        <ele>234.05</ele>
        <time>2016-02-13T02:24:19Z</time>
      </trkpt>
      <trkpt lat="41.702708" lon="2.436277">
        <ele>234.01</ele>
        <time>2016-02-13T02:24:39Z</time>
      </trkpt>
      <trkpt lat="41.702635" lon="2.436374">
        <ele>234.01</ele>
        <time>2016-02-13T02:24:59Z</time>
      </trkpt>
      <trkpt lat="41.702567" lon="2.436467">
        <ele>233.97</ele>
        <time>2016-02-13T02:25:19Z</time>
      </trkpt>
      <trkpt lat="41.702501" lon="2.436550">
        <ele>233.09</ele>
        <time>2016-02-13T02:25:39Z</time>
      </trkpt>
      <trkpt lat="41.702439" lon="2.436641">
        <ele>233.07</ele>
        <time>2016-02-13T02:25:59Z</time>
      </trkpt>
      <trkpt lat="41.702377" lon="2.436729">
        <ele>233.08</ele>
        <time>2016-02-13T02:26:19Z</time>
      </trkpt>
      <trkpt lat="41.702316" lon="2.436804">
        <ele>233.03</ele>
        <time>2016-02-13T02:26:39Z</time>
      </trkpt>
      <trkpt lat="41.702257" lon="2.436880">
        <ele>233.01</ele>
        <time>2016-02-13T02:26:59Z</time>
      </trkpt>
      <trkpt lat="41.702199" lon="2.436953">
        <ele>233.04</ele>
        <time>2016-02-13T02:27:19Z</time>
      </trkpt>
      <trkpt lat="41.702135" lon="2.437016">
        <ele>233.06</ele>
        <time>2016-02-13T02:27:39Z</time>
      </trkpt>
      <trkpt lat="41.702061" lon="2.437056">
        <ele>233.05</ele>
        <time>2016-02-13T02:27:59Z</time>
      </trkpt>
      <trkpt lat="41.701982" lon="2.437066">
        <ele>233.00</ele>
        <time>2016-02-13T02:28:19Z</time>
      </trkpt>
      <trkpt lat="41.701903" lon="2.437054">
        <ele>233.01</ele>
        <time>2016-02-13T02:28:39Z</time>
      </trkpt>
      <trkpt lat="41.701823" lon="2.437049">
        <ele>231.01</ele>
        <time>2016-02-13T02:28:59Z</time>
      </trkpt>
      <trkpt lat="41.701745" lon="2.437075">
        <ele>231.10</ele>
        <time>2016-02-13T02:29:19Z</time>
      </trkpt>
      <trkpt lat="41.701682" lon="2.437139">
        <ele>231.04</ele>
        <time>2016-02-13T02:29:39Z</time>
      </trkpt>
      <trkpt lat="41.701644" lon="2.437236">
        <ele>231.09</ele>
        <time>2016-02-13T02:29:59Z</time>
      </trkpt>
      <trkpt lat="41.701631" lon="2.437344">
        <ele>231.04</ele>
        <time>2016-02-13T02:30:19Z</time>
      </trkpt>
      <trkpt lat="41.701624" lon="2.437455">
        <ele>231.07</ele>
        <time>2016-02-13T02:30:39Z</time>
      </trkpt>
      <trkpt lat="41.701604" lon="2.437565">
        <ele>231.02</ele>
        <time>2016-02-13T02:30:59Z</time>
      </trkpt>
      <trkpt lat="41.701568" lon="2.437668">
        <ele>231.07</ele>
        <time>2016-02-13T02:31:19Z</time>
      </trkpt>
      <trkpt lat="41.701515" lon="2.437761">
        <ele>231.07</ele>
        <time>2016-02-13T02:31:39Z</time>
      </trkpt>
      <trkpt lat="41.701452" lon="2.437844">
        <ele>230.76</ele>
        <time>2016-02-13T02:31:59Z</time>
      </trkpt>
      <trkpt lat="41.701386" lon="2.437926">
        <ele>228.06</ele>
        <time>2016-02-13T02:32:19Z</time>
      </trkpt>
      <trkpt lat="41.701320" lon="2.438008">
        <ele>228.01</ele>
        <time>2016-02-13T02:32:39Z</time>
      </trkpt>
      <trkpt lat="41.701253" lon="2.438088">
        <ele>228.01</ele>
        <time>2016-02-13T02:32:59Z</time>
      </trkpt>
      <trkpt lat="41.701186" lon="2.438167">
        <ele>228.05</ele>
        <time>2016-02-13T02:33:19Z</time>
      </trkpt>
      <trkpt lat="41.701121" lon="2.438245">
        <ele>228.03</ele>
        <time>2016-02-13T02:33:39Z</time>
      </trkpt>
      <trkpt lat="41.701055" lon="2.438321">
        <ele>228.07</ele>
        <time>2016-02-13T02:33:59Z</time>
      </trkpt>
      <trkpt lat="41.700988" lon="2.438398">
        <ele>228.10</ele>
        <time>2016-02-13T02:34:19Z</time>
      </trkpt>
      <trkpt lat="41.700923" lon="2.438475">
        <ele>228.09</ele>
        <time>2016-02-13T02:34:39Z</time>
      </trkpt>
      <trkpt lat="41.700859" lon="2.438555">
        <ele>228.03</ele>
        <time>2016-02-13T02:34:59Z</time>
      </trkpt>
      <trkpt lat="41.700797" lon="2.438634">
        <ele>228.02</ele>
        <time>2016-02-13T02:35:19Z</time>
      </trkpt>
      <trkpt lat="41.700734" lon="2.438714">
        <ele>228.10</ele>
        <time>2016-02-13T02:35:39Z</time>
      </trkpt>
      <trkpt lat="41.700672" lon="2.438792">
        <ele>228.03</ele>
        <time>2016-02-13T02:35:59Z</time>
      </trkpt>
      <trkpt lat="41.700613" lon="2.438876">
        <ele>228.00</ele>
        <time>2016-02-13T02:36:19Z</time>
      </trkpt>
      <trkpt lat="41.700566" lon="2.438969">
        <ele>228.02</ele>
        <time>2016-02-13T02:36:39Z</time>
      </trkpt>
      <trkpt lat="41.700525" lon="2.439067">
        <ele>228.01</ele>
        <time>2016-02-13T02:36:59Z</time>
      </trkpt>
      <trkpt lat="41.700482" lon="2.439164">
        <ele>228.08</ele>
        <time>2016-02-13T02:37:19Z</time>
      </trkpt>
      <trkpt lat="41.700433" lon="2.439259">
        <ele>228.06</ele>
        <time>2016-02-13T02:37:39Z</time>
      </trkpt>
      <trkpt lat="41.700383" lon="2.439356">
        <ele>228.09</ele>
        <time>2016-02-13T02:37:59Z</time>
      </trkpt>
      <trkpt lat="41.700334" lon="2.439453">
        <ele>228.04</ele>
        <time>2016-02-13T02:38:19Z</time>
      </trkpt>
      <trkpt lat="41.700283" lon="2.439548">
        <ele>227.87</ele>
        <time>2016-02-13T02:38:39Z</time>
      </trkpt>
      <trkpt lat="41.700233" lon="2.439641">
        <ele>225.07</ele>
        <time>2016-02-13T02:38:59Z</time>
      </trkpt>
      <trkpt lat="41.700184" lon="2.439734">
        <ele>225.02</ele>
        <time>2016-02-13T02:39:19Z</time>
      </trkpt>
      <trkpt lat="41.700137" lon="2.439825">
        <ele>225.09</ele>
        <time>2016-02-13T02:39:39Z</time>
      </trkpt>
      <trkpt lat="41.700090" lon="2.439912">
        <ele>225.07</ele>
        <time>2016-02-13T02:39:59Z</time>
      </trkpt>
      <trkpt lat="41.700045" lon="2.439996">
        <ele>225.04</ele>
        <time>2016-02-13T02:40:19Z</time>
      </trkpt>
      <trkpt lat="41.700001" lon="2.440077">
        <ele>225.01</ele>
        <time>2016-02-13T02:40:39Z</time>
      </trkpt>
      <trkpt lat="41.699956" lon="2.440159">
        <ele>225.01</ele>
        <time>2016-02-13T02:40:59Z</time>
      </trkpt>
      <trkpt lat="41.699911" lon="2.440242">
        <ele>225.05</ele>
        <time>2016-02-13T02:41:19Z</time>
      </trkpt>
      <trkpt lat="41.699865" lon="2.440329">
        <ele>225.10</ele>
        <time>2016-02-13T02:41:39Z</time>
      </trkpt>
      <trkpt lat="41.699819" lon="2.440416">
        <ele>225.09</ele>
        <time>2016-02-13T02:41:59Z</time>
      </trkpt>
      <trkpt lat="41.699771" lon="2.440505">
        <ele>225.02</ele>
        <time>2016-02-13T02:42:19Z</time>
      </trkpt>
      <trkpt lat="41.699723" lon="2.440594">
        <ele>225.03</ele>
        <time>2016-02-13T02:42:39Z</time>
      </trkpt>
      <trkpt lat="41.699675" lon="2.440687">
        <ele>225.03</ele>
        <time>2016-02-13T02:42:59Z</time>
      </trkpt>
      <trkpt lat="41.699625" lon="2.440780">
        <ele>225.03</ele>
        <time>2016-02-13T02:43:19Z</time>
      </trkpt>
      <trkpt lat="41.699571" lon="2.440874">
        <ele>225.04</ele>
        <time>2016-02-13T02:43:39Z</time>
      </trkpt>
      <trkpt lat="41.699519" lon="2.440973">
        <ele>225.09</ele>
        <time>2016-02-13T02:43:59Z</time>
      </trkpt>
      <trkpt lat="41.699468" lon="2.441070">
        <ele>225.02</ele>
        <time>2016-02-13T02:44:19Z</time>
      </trkpt>
      <trkpt lat="41.699417" lon="2.441166">
        <ele>225.03</ele>
        <time>2016-02-13T02:44:39Z</time>
      </trkpt>
      <trkpt lat="41.699367" lon="2.441263">
        <ele>225.01</ele>
        <time>2016-02-13T02:44:59Z</time>
      </trkpt>
      <trkpt lat="41.699319" lon="2.441360">
        <ele>224.78</ele>
        <time>2016-02-13T02:45:19Z</time>
      </trkpt>
      <trkpt lat="41.699269" lon="2.441453">
        <ele>222.08</ele>
        <time>2016-02-13T02:45:39Z</time>
      </trkpt>
      <trkpt lat="41.699218" lon="2.441545">
        <ele>222.02</ele>
        <time>2016-02-13T02:45:59Z</time>
      </trkpt>
      <trkpt lat="41.699168" lon="2.441637">
        <ele>222.03</ele>
        <time>2016-02-13T02:46:19Z</time>
      </trkpt>
      <trkpt lat="41.699120" lon="2.441731">
        <ele>222.08</ele>
        <time>2016-02-13T02:46:39Z</time>
      </trkpt>
      <trkpt lat="41.699072" lon="2.441823">
        <ele>221.83</ele>
        <time>2016-02-13T02:46:59Z</time>
      </trkpt>
      <trkpt lat="41.699018" lon="2.441910">
        <ele>220.04</ele>
        <time>2016-02-13T02:47:19Z</time>
      </trkpt>
      <trkpt lat="41.698959" lon="2.441991">
        <ele>220.05</ele>
        <time>2016-02-13T02:47:39Z</time>
      </trkpt>
      <trkpt lat="41.698896" lon="2.442073">
        <ele>220.07</ele>
        <time>2016-02-13T02:47:59Z</time>
      </trkpt>
      <trkpt lat="41.698832" lon="2.442156">
        <ele>220.00</ele>
        <time>2016-02-13T02:48:19Z</time>
      </trkpt>
      <trkpt lat="41.698769" lon="2.442243">
        <ele>220.02</ele>
        <time>2016-02-13T02:48:39Z</time>
      </trkpt>
      <trkpt lat="41.698705" lon="2.442331">
        <ele>220.01</ele>
        <time>2016-02-13T02:48:59Z</time>
      </trkpt>
      <trkpt lat="41.698639" lon="2.442417">
        <ele>220.08</ele>
        <time>2016-02-13T02:49:19Z</time>
      </trkpt>
      <trkpt lat="41.698573" lon="2.442505">
        <ele>220.07</ele>
        <time>2016-02-13T02:49:39Z</time>
      </trkpt>
      <trkpt lat="41.698508" lon="2.442595">
        <ele>220.07</ele>
        <time>2016-02-13T02:49:59Z</time>
      </trkpt>
      <trkpt lat="41.698446" lon="2.442691">
        <ele>220.06</ele>
        <time>2016-02-13T02:50:19Z</time>
      </trkpt>
      <trkpt lat="41.698391" lon="2.442795">
        <ele>220.09</ele>
        <time>2016-02-13T02:50:39Z</time>
      </trkpt>
      <trkpt lat="41.698344" lon="2.442906">
        <ele>220.03</ele>
        <time>2016-02-13T02:50:59Z</time>
      </trkpt>
      <trkpt lat="41.698304" lon="2.443021">
        <ele>220.03</ele>
        <time>2016-02-13T02:51:19Z</time>
      </trkpt>
      <trkpt lat="41.698269" lon="2.443139">
        <ele>220.01</ele>
        <time>2016-02-13T02:51:39Z</time>
      </trkpt>
      <trkpt lat="41.698235" lon="2.443257">
        <ele>220.02</ele>
        <time>2016-02-13T02:51:59Z</time>
      </trkpt>
      <trkpt lat="41.698198" lon="2.443374">
        <ele>216.09</ele>
        <time>2016-02-13T02:52:19Z</time>
      </trkpt>
      <trkpt lat="41.698155" lon="2.443486">
        <ele>216.01</ele>
        <time>2016-02-13T02:52:39Z</time>
      </trkpt>
      <trkpt lat="41.698104" lon="2.443591">
        <ele>216.01</ele>
        <time>2016-02-13T02:52:59Z</time>
      </trkpt>
      <trkpt lat="41.698045" lon="2.443689">
        <ele>216.06</ele>
        <time>2016-02-13T02:53:19Z</time>
      </trkpt>
      <trkpt lat="41.697985" lon="2.443780">
        <ele>216.06</ele>
        <time>2016-02-13T02:53:39Z</time>
      </trkpt>
      <trkpt lat="41.697925" lon="2.443863">
        <ele>216.07</ele>
        <time>2016-02-13T02:53:59Z</time>
      </trkpt>
      <trkpt lat="41.697873" lon="2.443936">
        <ele>216.09</ele>
        <time>2016-02-13T02:54:19Z</time>
      </trkpt>
      <trkpt lat="41.697827" lon="2.444004">
        <ele>216.06</ele>
        <time>2016-02-13T02:54:39Z</time>
      </trkpt>
      <trkpt lat="41.697781" lon="2.444070">
        <ele>216.02</ele>
        <time>2016-02-13T02:54:59Z</time>
      </trkpt>
      <trkpt lat="41.697734" lon="2.444133">
        <ele>216.28</ele>
        <time>2016-02-13T02:55:19Z</time>
      </trkpt>
      <trkpt lat="41.697688" lon="2.444189">
        <ele>218.07</ele>
        <time>2016-02-13T02:55:39Z</time>
      </trkpt>
      <trkpt lat="41.697647" lon="2.444241">
        <ele>218.06</ele>
        <time>2016-02-13T02:55:59Z</time>
      </trkpt>
      <trkpt lat="41.697609" lon="2.444289">
        <ele>218.04</ele>
        <time>2016-02-13T02:56:19Z</time>
      </trkpt>
      <trkpt lat="41.697575" lon="2.444334">
        <ele>218.02</ele>
        <time>2016-02-13T02:56:39Z</time>
      </trkpt>
      <trkpt lat="41.697541" lon="2.444375">
        <ele>217.91</ele>
        <time>2016-02-13T02:56:59Z</time>
      </trkpt>
      <trkpt lat="41.697504" lon="2.444421">
        <ele>217.06</ele>
        <time>2016-02-13T02:57:19Z</time>
      </trkpt>
      <trkpt lat="41.697467" lon="2.444478">
        <ele>217.02</ele>
        <time>2016-02-13T02:57:39Z</time>
      </trkpt>
      <trkpt lat="41.697427" lon="2.444537">
        <ele>217.06</ele>
        <time>2016-02-13T02:57:59Z</time>
      </trkpt>
      <trkpt lat="41.697381" lon="2.444595">
        <ele>217.02</ele>
        <time>2016-02-13T02:58:19Z</time>
      </trkpt>
      <trkpt lat="41.697332" lon="2.444654">
        <ele>217.19</ele>
        <time>2016-02-13T02:58:39Z</time>
      </trkpt>
      <trkpt lat="41.697280" lon="2.444716">
        <ele>217.88</ele>
        <time>2016-02-13T02:58:59Z</time>
      </trkpt>
      <trkpt lat="41.697227" lon="2.444784">
        <ele>218.06</ele>
        <time>2016-02-13T02:59:19Z</time>
      </trkpt>
      <trkpt lat="41.697172" lon="2.444852">
        <ele>218.04</ele>
        <time>2016-02-13T02:59:39Z</time>
      </trkpt>
      <trkpt lat="41.697117" lon="2.444920">
        <ele>218.09</ele>
        <time>2016-02-13T02:59:59Z</time>
      </trkpt>
      <trkpt lat="41.697061" lon="2.444989">
        <ele>218.07</ele>
        <time>2016-02-13T03:00:19Z</time>
      </trkpt>
      <trkpt lat="41.697004" lon="2.445057">
        <ele>218.02</ele>
        <time>2016-02-13T03:00:39Z</time>
      </trkpt>
      <trkpt lat="41.696948" lon="2.445124">
        <ele>218.01</ele>
        <time>2016-02-13T03:00:59Z</time>
      </trkpt>
      <trkpt lat="41.696894" lon="2.445191">
        <ele>218.03</ele>
        <time>2016-02-13T03:01:19Z</time>
      </trkpt>
      <trkpt lat="41.696841" lon="2.445259">
        <ele>218.04</ele>
        <time>2016-02-13T03:01:39Z</time>
      </trkpt>
      <trkpt lat="41.696786" lon="2.445323">
        <ele>217.81</ele>
        <time>2016-02-13T03:01:59Z</time>
      </trkpt>
      <trkpt lat="41.696729" lon="2.445385">
        <ele>216.04</ele>
        <time>2016-02-13T03:02:19Z</time>
      </trkpt>
      <trkpt lat="41.696672" lon="2.445449">
        <ele>216.01</ele>
        <time>2016-02-13T03:02:39Z</time>
      </trkpt>
      <trkpt lat="41.696614" lon="2.445515">
        <ele>216.04</ele>
        <time>2016-02-13T03:02:59Z</time>
      </trkpt>
      <trkpt lat="41.696556" lon="2.445583">
        <ele>216.03</ele>
        <time>2016-02-13T03:03:19Z</time>
      </trkpt>
      <trkpt lat="41.696498" lon="2.445652">
        <ele>216.03</ele>
        <time>2016-02-13T03:03:39Z</time>
      </trkpt>
      <trkpt lat="41.696441" lon="2.445722">
        <ele>216.06</ele>
        <time>2016-02-13T03:03:59Z</time>
      </trkpt>
      <trkpt lat="41.696383" lon="2.445793">
        <ele>216.05</ele>
        <time>2016-02-13T03:04:19Z</time>
      </trkpt>
      <trkpt lat="41.696325" lon="2.445863">
        <ele>216.02</ele>
        <time>2016-02-13T03:04:39Z</time>
      </trkpt>
      <trkpt lat="41.696267" lon="2.445932">
        <ele>216.01</ele>
        <time>2016-02-13T03:04:59Z</time>
      </trkpt>
      <trkpt lat="41.696207" lon="2.446002">
        <ele>215.83</ele>
        <time>2016-02-13T03:05:19Z</time>
      </trkpt>
      <trkpt lat="41.696147" lon="2.446076">
        <ele>213.58</ele>
        <time>2016-02-13T03:05:39Z</time>
      </trkpt>
      <trkpt lat="41.696086" lon="2.446150">
        <ele>213.07</ele>
        <time>2016-02-13T03:05:59Z</time>
      </trkpt>
      <trkpt lat="41.696024" lon="2.446223">
        <ele>213.04</ele>
        <time>2016-02-13T03:06:19Z</time>
      </trkpt>
      <trkpt lat="41.695959" lon="2.446292">
        <ele>213.05</ele>
        <time>2016-02-13T03:06:39Z</time>
      </trkpt>
      <trkpt lat="41.695894" lon="2.446358">
        <ele>212.93</ele>
        <time>2016-02-13T03:06:59Z</time>
      </trkpt>
      <trkpt lat="41.695826" lon="2.446419">
        <ele>212.20</ele>
        <time>2016-02-13T03:07:19Z</time>
      </trkpt>
      <trkpt lat="41.695756" lon="2.446477">
        <ele>212.10</ele>
        <time>2016-02-13T03:07:39Z</time>
      </trkpt>
      <trkpt lat="41.695687" lon="2.446535">
        <ele>212.03</ele>
        <time>2016-02-13T03:07:59Z</time>
      </trkpt>
      <trkpt lat="41.695618" lon="2.446592">
        <ele>212.05</ele>
        <time>2016-02-13T03:08:19Z</time>
      </trkpt>
      <trkpt lat="41.695549" lon="2.446650">
        <ele>211.91</ele>
        <time>2016-02-13T03:08:39Z</time>
      </trkpt>
      <trkpt lat="41.695482" lon="2.446709">
        <ele>211.01</ele>
        <time>2016-02-13T03:08:59Z</time>
      </trkpt>
      <trkpt lat="41.695416" lon="2.446770">
        <ele>211.06</ele>
        <time>2016-02-13T03:09:19Z</time>
      </trkpt>
      <trkpt lat="41.695353" lon="2.446834">
        <ele>211.03</ele>
        <time>2016-02-13T03:09:39Z</time>
      </trkpt>
      <trkpt lat="41.695293" lon="2.446904">
        <ele>211.09</ele>
        <time>2016-02-13T03:09:59Z</time>
      </trkpt>
      <trkpt lat="41.695235" lon="2.446978">
        <ele>210.91</ele>
        <time>2016-02-13T03:10:19Z</time>
      </trkpt>
      <trkpt lat="41.695177" lon="2.447054">
        <ele>210.06</ele>
        <time>2016-02-13T03:10:39Z</time>
      </trkpt>
      <trkpt lat="41.695119" lon="2.447129">
        <ele>210.09</ele>
        <time>2016-02-13T03:10:59Z</time>
      </trkpt>
      <trkpt lat="41.695060" lon="2.447203">
        <ele>210.08</ele>
        <time>2016-02-13T03:11:19Z</time>
      </trkpt>
      <trkpt lat="41.695001" lon="2.447276">
        <ele>210.09</ele>
        <time>2016-02-13T03:11:39Z</time>
      </trkpt>
      <trkpt lat="41.694946" lon="2.447344">
        <ele>209.94</ele>
        <time>2016-02-13T03:11:59Z</time>
      </trkpt>
      <trkpt lat="41.694896" lon="2.447404">
        <ele>209.08</ele>
        <time>2016-02-13T03:12:19Z</time>
      </trkpt>
      <trkpt lat="41.694845" lon="2.447452">
        <ele>209.01</ele>
        <time>2016-02-13T03:12:39Z</time>
      </trkpt>
      <trkpt lat="41.694791" lon="2.447494">
        <ele>209.01</ele>
        <time>2016-02-13T03:12:59Z</time>
      </trkpt>
      <trkpt lat="41.694738" lon="2.447546">
        <ele>209.07</ele>
        <time>2016-02-13T03:13:19Z</time>
      </trkpt>
      <trkpt lat="41.694688" lon="2.447614">
        <ele>209.06</ele>
        <time>2016-02-13T03:13:39Z</time>
      </trkpt>
      <trkpt lat="41.694644" lon="2.447697">
        <ele>209.05</ele>
        <time>2016-02-13T03:13:59Z</time>
      </trkpt>
      <trkpt lat="41.694611" lon="2.447793">
        <ele>209.02</ele>
        <time>2016-02-13T03:14:19Z</time>
      </trkpt>
      <trkpt lat="41.694586" lon="2.447899">
        <ele>209.03</ele>
        <time>2016-02-13T03:14:39Z</time>
      </trkpt>
      <trkpt lat="41.694562" lon="2.448008">
        <ele>209.02</ele>
        <time>2016-02-13T03:14:59Z</time>
      </trkpt>
      <trkpt lat="41.694530" lon="2.448119">
        <ele>208.66</ele>
        <time>2016-02-13T03:15:19Z</time>
      </trkpt>
      <trkpt lat="41.694487" lon="2.448230">
        <ele>205.04</ele>
        <time>2016-02-13T03:15:39Z</time>
      </trkpt>
      <trkpt lat="41.694436" lon="2.448346">
        <ele>205.09</ele>
        <time>2016-02-13T03:15:59Z</time>
      </trkpt>
      <trkpt lat="41.694385" lon="2.448462">
        <ele>205.07</ele>
        <time>2016-02-13T03:16:19Z</time>
      </trkpt>
      <trkpt lat="41.694336" lon="2.448578">
        <ele>205.02</ele>
        <time>2016-02-13T03:16:39Z</time>
      </trkpt>
      <trkpt lat="41.694289" lon="2.448695">
        <ele>204.61</ele>
        <time>2016-02-13T03:16:59Z</time>
      </trkpt>
      <trkpt lat="41.694245" lon="2.448813">
        <ele>201.01</ele>
        <time>2016-02-13T03:17:19Z</time>
      </trkpt>
      <trkpt lat="41.694204" lon="2.448934">
        <ele>201.03</ele>
        <time>2016-02-13T03:17:39Z</time>
      </trkpt>
      <trkpt lat="41.694166" lon="2.449056">
        <ele>201.09</ele>
        <time>2016-02-13T03:17:59Z</time>
      </trkpt>
      <trkpt lat="41.694130" lon="2.449180">
        <ele>201.02</ele>
        <time>2016-02-13T03:18:19Z</time>
      </trkpt>
      <trkpt lat="41.694096" lon="2.449302">
        <ele>201.00</ele>
        <time>2016-02-13T03:18:39Z</time>
      </trkpt>
      <trkpt lat="41.694061" lon="2.449426">
        <ele>200.05</ele>
        <time>2016-02-13T03:18:59Z</time>
      </trkpt>
      <trkpt lat="41.694030" lon="2.449538">
        <ele>200.04</ele>
        <time>2016-02-13T03:19:19Z</time>
      </trkpt>
      <trkpt lat="41.693999" lon="2.449645">
        <ele>200.05</ele>
        <time>2016-02-13T03:19:39Z</time>
      </trkpt>
      <trkpt lat="41.693955" lon="2.449763">
        <ele>200.06</ele>
        <time>2016-02-13T03:19:59Z</time>
      </trkpt>
      <trkpt lat="41.693905" lon="2.449872">
        <ele>199.86</ele>
        <time>2016-02-13T03:20:19Z</time>
      </trkpt>
      <trkpt lat="41.693847" lon="2.449973">
        <ele>198.01</ele>
        <time>2016-02-13T03:20:39Z</time>
      </trkpt>
      <trkpt lat="41.693787" lon="2.450073">
        <ele>198.01</ele>
        <time>2016-02-13T03:20:59Z</time>
      </trkpt>
      <trkpt lat="41.693748" lon="2.450182">
        <ele>198.08</ele>
        <time>2016-02-13T03:21:19Z</time>
      </trkpt>
      <trkpt lat="41.693744" lon="2.450294">
        <ele>198.04</ele>
        <time>2016-02-13T03:21:39Z</time>
      </trkpt>
      <trkpt lat="41.693771" lon="2.450393">
        <ele>198.03</ele>
        <time>2016-02-13T03:21:59Z</time>
      </trkpt>
      <trkpt lat="41.693811" lon="2.450481">
        <ele>198.09</ele>
        <time>2016-02-13T03:22:19Z</time>
      </trkpt>
      <trkpt lat="41.693849" lon="2.450572">
        <ele>198.07</ele>
        <time>2016-02-13T03:22:39Z</time>
      </trkpt>
      <trkpt lat="41.693885" lon="2.450664">
        <ele>198.08</ele>
        <time>2016-02-13T03:22:59Z</time>
      </trkpt>
      <trkpt lat="41.693922" lon="2.450754">
        <ele>198.08</ele>
        <time>2016-02-13T03:23:19Z</time>
      </trkpt>
      <trkpt lat="41.693958" lon="2.450844">
        <ele>198.15</ele>
        <time>2016-02-13T03:23:39Z</time>
      </trkpt>
      <trkpt lat="41.693992" lon="2.450932">
        <ele>199.02</ele>
        <time>2016-02-13T03:23:59Z</time>
      </trkpt>
      <trkpt lat="41.694026" lon="2.451020">
        <ele>199.10</ele>
        <time>2016-02-13T03:24:19Z</time>
      </trkpt>
      <trkpt lat="41.694059" lon="2.451107">
        <ele>199.02</ele>
        <time>2016-02-13T03:24:39Z</time>
      </trkpt>
      <trkpt lat="41.694091" lon="2.451193">
        <ele>199.01</ele>
        <time>2016-02-13T03:24:59Z</time>
      </trkpt>
      <trkpt lat="41.694122" lon="2.451278">
        <ele>199.18</ele>
        <time>2016-02-13T03:25:19Z</time>
      </trkpt>
      <trkpt lat="41.694154" lon="2.451363">
        <ele>199.85</ele>
        <time>2016-02-13T03:25:39Z</time>
      </trkpt>
      <trkpt lat="41.694186" lon="2.451447">
        <ele>200.02</ele>
        <time>2016-02-13T03:25:59Z</time>
      </trkpt>
      <trkpt lat="41.694219" lon="2.451531">
        <ele>200.09</ele>
        <time>2016-02-13T03:26:19Z</time>
      </trkpt>
      <trkpt lat="41.694250" lon="2.451616">
        <ele>200.04</ele>
        <time>2016-02-13T03:26:39Z</time>
      </trkpt>
      <trkpt lat="41.694279" lon="2.451701">
        <ele>200.03</ele>
        <time>2016-02-13T03:26:59Z</time>
      </trkpt>
      <trkpt lat="41.694306" lon="2.451786">
        <ele>200.09</ele>
        <time>2016-02-13T03:27:19Z</time>
      </trkpt>
      <trkpt lat="41.694332" lon="2.451870">
        <ele>200.06</ele>
        <time>2016-02-13T03:27:39Z</time>
      </trkpt>
      <trkpt lat="41.694354" lon="2.451955">
        <ele>200.06</ele>
        <time>2016-02-13T03:27:59Z</time>
      </trkpt>
      <trkpt lat="41.694372" lon="2.452041">
        <ele>200.00</ele>
        <time>2016-02-13T03:28:19Z</time>
      </trkpt>
      <trkpt lat="41.694388" lon="2.452128">
        <ele>200.22</ele>
        <time>2016-02-13T03:28:39Z</time>
      </trkpt>
      <trkpt lat="41.694401" lon="2.452214">
        <ele>202.01</ele>
        <time>2016-02-13T03:28:59Z</time>
      </trkpt>
      <trkpt lat="41.694413" lon="2.452300">
        <ele>202.05</ele>
        <time>2016-02-13T03:29:19Z</time>
      </trkpt>
      <trkpt lat="41.694424" lon="2.452387">
        <ele>202.04</ele>
        <time>2016-02-13T03:29:39Z</time>
      </trkpt>
      <trkpt lat="41.694433" lon="2.452475">
        <ele>202.05</ele>
        <time>2016-02-13T03:29:59Z</time>
      </trkpt>
      <trkpt lat="41.694440" lon="2.452562">
        <ele>202.04</ele>
        <time>2016-02-13T03:30:19Z</time>
      </trkpt>
      <trkpt lat="41.694445" lon="2.452649">
        <ele>202.06</ele>
        <time>2016-02-13T03:30:39Z</time>
      </trkpt>
      <trkpt lat="41.694448" lon="2.452735">
        <ele>202.04</ele>
        <time>2016-02-13T03:30:59Z</time>
      </trkpt>
      <trkpt lat="41.694450" lon="2.452821">
        <ele>202.04</ele>
        <time>2016-02-13T03:31:19Z</time>
      </trkpt>
      <trkpt lat="41.694450" lon="2.452906">
        <ele>202.02</ele>
        <time>2016-02-13T03:31:39Z</time>
      </trkpt>
      <trkpt lat="41.694447" lon="2.452991">
        <ele>202.09</ele>
        <time>2016-02-13T03:31:59Z</time>
      </trkpt>
      <trkpt lat="41.694441" lon="2.453075">
        <ele>202.08</ele>
        <time>2016-02-13T03:32:19Z</time>
      </trkpt>
      <trkpt lat="41.694435" lon="2.453159">
        <ele>202.02</ele>
        <time>2016-02-13T03:32:39Z</time>
      </trkpt>
      <trkpt lat="41.694427" lon="2.453244">
        <ele>202.01</ele>
        <time>2016-02-13T03:32:59Z</time>
      </trkpt>
      <trkpt lat="41.694416" lon="2.453329">
        <ele>202.06</ele>
        <time>2016-02-13T03:33:19Z</time>
      </trkpt>
      <trkpt lat="41.694403" lon="2.453413">
        <ele>202.06</ele>
        <time>2016-02-13T03:33:39Z</time>
      </trkpt>
      <trkpt lat="41.694388" lon="2.453498">
        <ele>202.02</ele>
        <time>2016-02-13T03:33:59Z</time>
      </trkpt>
      <trkpt lat="41.694372" lon="2.453583">
        <ele>202.03</ele>
        <time>2016-02-13T03:34:19Z</time>
      </trkpt>
      <trkpt lat="41.694354" lon="2.453669">
        <ele>202.07</ele>
        <time>2016-02-13T03:34:39Z</time>
      </trkpt>
      <trkpt lat="41.694334" lon="2.453752">
        <ele>202.06</ele>
        <time>2016-02-13T03:34:59Z</time>
      </trkpt>
      <trkpt lat="41.694312" lon="2.453837">
        <ele>202.04</ele>
        <time>2016-02-13T03:35:19Z</time>
      </trkpt>
      <trkpt lat="41.694287" lon="2.453924">
        <ele>202.02</ele>
        <time>2016-02-13T03:35:39Z</time>
      </trkpt>
      <trkpt lat="41.694261" lon="2.454011">
        <ele>203.06</ele>
        <time>2016-02-13T03:35:59Z</time>
      </trkpt>
      <trkpt lat="41.694234" lon="2.454098">
        <ele>203.04</ele>
        <time>2016-02-13T03:36:19Z</time>
      </trkpt>
      <trkpt lat="41.694204" lon="2.454174">
        <ele>203.02</ele>
        <time>2016-02-13T03:36:39Z</time>
      </trkpt>
      <trkpt lat="41.694177" lon="2.454243">
        <ele>203.01</ele>
        <time>2016-02-13T03:36:59Z</time>
      </trkpt>
      <trkpt lat="41.694153" lon="2.454311">
        <ele>203.07</ele>
        <time>2016-02-13T03:37:19Z</time>
      </trkpt>
      <trkpt lat="41.694124" lon="2.454374">
        <ele>203.09</ele>
        <time>2016-02-13T03:37:39Z</time>
      </trkpt>
      <trkpt lat="41.694086" lon="2.454432">
        <ele>203.09</ele>
        <time>2016-02-13T03:37:59Z</time>
      </trkpt>
      <trkpt lat="41.694036" lon="2.454472">
        <ele>203.02</ele>
        <time>2016-02-13T03:38:19Z</time>
      </trkpt>
      <trkpt lat="41.693976" lon="2.454490">
        <ele>203.08</ele>
        <time>2016-02-13T03:38:39Z</time>
      </trkpt>
      <trkpt lat="41.693913" lon="2.454505">
        <ele>203.10</ele>
        <time>2016-02-13T03:38:59Z</time>
      </trkpt>
      <trkpt lat="41.693851" lon="2.454532">
        <ele>204.03</ele>
        <time>2016-02-13T03:39:19Z</time>
      </trkpt>
      <trkpt lat="41.693792" lon="2.454575">
        <ele>204.03</ele>
        <time>2016-02-13T03:39:39Z</time>
      </trkpt>
      <trkpt lat="41.693742" lon="2.454637">
        <ele>204.05</ele>
        <time>2016-02-13T03:39:59Z</time>
      </trkpt>
      <trkpt lat="41.693709" lon="2.454719">
        <ele>204.06</ele>
        <time>2016-02-13T03:40:19Z</time>
      </trkpt>
      <trkpt lat="41.693697" lon="2.454812">
        <ele>204.01</ele>
        <time>2016-02-13T03:40:39Z</time>
      </trkpt>
      <trkpt lat="41.693690" lon="2.454907">
        <ele>204.01</ele>
        <time>2016-02-13T03:40:59Z</time>
      </trkpt>
      <trkpt lat="41.693667" lon="2.454996">
        <ele>204.05</ele>
        <time>2016-02-13T03:41:19Z</time>
      </trkpt>
      <trkpt lat="41.693628" lon="2.455079">
        <ele>204.07</ele>
        <time>2016-02-13T03:41:39Z</time>
      </trkpt>
      <trkpt lat="41.693584" lon="2.455159">
        <ele>204.10</ele>
        <time>2016-02-13T03:41:59Z</time>
      </trkpt>
      <trkpt lat="41.693535" lon="2.455236">
        <ele>203.80</ele>
        <time>2016-02-13T03:42:19Z</time>
      </trkpt>
      <trkpt lat="41.693481" lon="2.455309">
        <ele>201.02</ele>
        <time>2016-02-13T03:42:39Z</time>
      </trkpt>
      <trkpt lat="41.693424" lon="2.455378">
        <ele>201.03</ele>
        <time>2016-02-13T03:42:59Z</time>
      </trkpt>
      <trkpt lat="41.693365" lon="2.455446">
        <ele>201.08</ele>
        <time>2016-02-13T03:43:19Z</time>
      </trkpt>
      <trkpt lat="41.693305" lon="2.455513">
        <ele>201.10</ele>
        <time>2016-02-13T03:43:39Z</time>
      </trkpt>
      <trkpt lat="41.693245" lon="2.455582">
        <ele>200.92</ele>
        <time>2016-02-13T03:43:59Z</time>
      </trkpt>
      <trkpt lat="41.693184" lon="2.455652">
        <ele>200.01</ele>
        <time>2016-02-13T03:44:19Z</time>
      </trkpt>
      <trkpt lat="41.693121" lon="2.455717">
        <ele>200.02</ele>
        <time>2016-02-13T03:44:39Z</time>
      </trkpt>
      <trkpt lat="41.693054" lon="2.455778">
        <ele>200.01</ele>
        <time>2016-02-13T03:44:59Z</time>
      </trkpt>
      <trkpt lat="41.692989" lon="2.455844">
        <ele>200.01</ele>
        <time>2016-02-13T03:45:19Z</time>
      </trkpt>
      <trkpt lat="41.692927" lon="2.455915">
        <ele>200.07</ele>
        <time>2016-02-13T03:45:39Z</time>
      </trkpt>
      <trkpt lat="41.692865" lon="2.455990">
        <ele>199.97</ele>
        <time>2016-02-13T03:45:59Z</time>
      </trkpt>
      <trkpt lat="41.692802" lon="2.456064">
        <ele>199.02</ele>
        <time>2016-02-13T03:46:19Z</time>
      </trkpt>
      <trkpt lat="41.692740" lon="2.456138">
        <ele>199.07</ele>
        <time>2016-02-13T03:46:39Z</time>
      </trkpt>
      <trkpt lat="41.692680" lon="2.456215">
        <ele>199.03</ele>
        <time>2016-02-13T03:46:59Z</time>
      </trkpt>
      <trkpt lat="41.692621" lon="2.456293">
        <ele>199.04</ele>
        <time>2016-02-13T03:47:19Z</time>
      </trkpt>
      <trkpt lat="41.692564" lon="2.456375">
        <ele>199.03</ele>
        <time>2016-02-13T03:47:39Z</time>
      </trkpt>
      <trkpt lat="41.692511" lon="2.456461">
        <ele>199.07</ele>
        <time>2016-02-13T03:47:59Z</time>
      </trkpt>
      <trkpt lat="41.692461" lon="2.456552">
        <ele>199.04</ele>
        <time>2016-02-13T03:48:19Z</time>
      </trkpt>
      <trkpt lat="41.692415" lon="2.456648">
        <ele>199.01</ele>
        <time>2016-02-13T03:48:39Z</time>
      </trkpt>
      <trkpt lat="41.692373" lon="2.456748">
        <ele>199.01</ele>
        <time>2016-02-13T03:48:59Z</time>
      </trkpt>
      <trkpt lat="41.692333" lon="2.456852">
        <ele>198.04</ele>
        <time>2016-02-13T03:49:19Z</time>
      </trkpt>
      <trkpt lat="41.692295" lon="2.456960">
        <ele>198.05</ele>
        <time>2016-02-13T03:49:39Z</time>
      </trkpt>
      <trkpt lat="41.692261" lon="2.457072">
        <ele>198.10</ele>
        <time>2016-02-13T03:49:59Z</time>
      </trkpt>
      <trkpt lat="41.692228" lon="2.457184">
        <ele>198.05</ele>
        <time>2016-02-13T03:50:19Z</time>
      </trkpt>
      <trkpt lat="41.692196" lon="2.457298">
        <ele>198.06</ele>
        <time>2016-02-13T03:50:39Z</time>
      </trkpt>
      <trkpt lat="41.692165" lon="2.457413">
        <ele>198.03</ele>
        <time>2016-02-13T03:50:59Z</time>
      </trkpt>
      <trkpt lat="41.692138" lon="2.457530">
        <ele>198.10</ele>
        <time>2016-02-13T03:51:19Z</time>
      </trkpt>
      <trkpt lat="41.692113" lon="2.457649">
        <ele>198.05</ele>
        <time>2016-02-13T03:51:39Z</time>
      </trkpt>
      <trkpt lat="41.692089" lon="2.457768">
        <ele>197.65</ele>
        <time>2016-02-13T03:51:59Z</time>
      </trkpt>
      <trkpt lat="41.692065" lon="2.457887">
        <ele>193.00</ele>
        <time>2016-02-13T03:52:19Z</time>
      </trkpt>
      <trkpt lat="41.692040" lon="2.458006">
        <ele>193.02</ele>
        <time>2016-02-13T03:52:39Z</time>
      </trkpt>
      <trkpt lat="41.692014" lon="2.458124">
        <ele>194.01</ele>
        <time>2016-02-13T03:52:59Z</time>
      </trkpt>
      <trkpt lat="41.691989" lon="2.458244">
        <ele>194.19</ele>
        <time>2016-02-13T03:53:19Z</time>
      </trkpt>
      <trkpt lat="41.691966" lon="2.458364">
        <ele>194.94</ele>
        <time>2016-02-13T03:53:39Z</time>
      </trkpt>
      <trkpt lat="41.691941" lon="2.458486">
        <ele>194.03</ele>
        <time>2016-02-13T03:53:59Z</time>
      </trkpt>
      <trkpt lat="41.691916" lon="2.458608">
        <ele>194.09</ele>
        <time>2016-02-13T03:54:19Z</time>
      </trkpt>
      <trkpt lat="41.691891" lon="2.458730">
        <ele>194.03</ele>
        <time>2016-02-13T03:54:39Z</time>
      </trkpt>
      <trkpt lat="41.691866" lon="2.458856">
        <ele>194.05</ele>
        <time>2016-02-13T03:54:59Z</time>
      </trkpt>
      <trkpt lat="41.691841" lon="2.458981">
        <ele>194.04</ele>
        <time>2016-02-13T03:55:19Z</time>
      </trkpt>
      <trkpt lat="41.691813" lon="2.459107">
        <ele>194.04</ele>
        <time>2016-02-13T03:55:39Z</time>
      </trkpt>
      <trkpt lat="41.691786" lon="2.459232">
        <ele>194.06</ele>
        <time>2016-02-13T03:55:59Z</time>
      </trkpt>
      <trkpt lat="41.691759" lon="2.459356">
        <ele>194.00</ele>
        <time>2016-02-13T03:56:19Z</time>
      </trkpt>
      <trkpt lat="41.691734" lon="2.459478">
        <ele>194.02</ele>
        <time>2016-02-13T03:56:39Z</time>
      </trkpt>
      <trkpt lat="41.691707" lon="2.459599">
        <ele>194.01</ele>
        <time>2016-02-13T03:56:59Z</time>
      </trkpt>
      <trkpt lat="41.691680" lon="2.459719">
        <ele>194.03</ele>
        <time>2016-02-13T03:57:19Z</time>
      </trkpt>
      <trkpt lat="41.691654" lon="2.459839">
        <ele>194.10</ele>
        <time>2016-02-13T03:57:39Z</time>
      </trkpt>
      <trkpt lat="41.691628" lon="2.459960">
        <ele>194.04</ele>
        <time>2016-02-13T03:57:59Z</time>
      </trkpt>
      <trkpt lat="41.691603" lon="2.460079">
        <ele>194.03</ele>
        <time>2016-02-13T03:58:19Z</time>
      </trkpt>
      <trkpt lat="41.691579" lon="2.460199">
        <ele>194.07</ele>
        <time>2016-02-13T03:58:39Z</time>
      </trkpt>
      <trkpt lat="41.691554" lon="2.460318">
        <ele>194.09</ele>
        <time>2016-02-13T03:58:59Z</time>
      </trkpt>
      <trkpt lat="41.691529" lon="2.460437">
        <ele>194.03</ele>
        <time>2016-02-13T03:59:19Z</time>
      </trkpt>
      <trkpt lat="41.691505" lon="2.460556">
        <ele>194.10</ele>
        <time>2016-02-13T03:59:39Z</time>
      </trkpt>
      <trkpt lat="41.691480" lon="2.460674">
        <ele>194.04</ele>
        <time>2016-02-13T03:59:59Z</time>
      </trkpt>
      <trkpt lat="41.691457" lon="2.460790">
        <ele>194.00</ele>
        <time>2016-02-13T04:00:19Z</time>
      </trkpt>
      <trkpt lat="41.691431" lon="2.460907">
        <ele>194.02</ele>
        <time>2016-02-13T04:00:39Z</time>
      </trkpt>
      <trkpt lat="41.691401" lon="2.461024">
        <ele>194.01</ele>
        <time>2016-02-13T04:00:59Z</time>
      </trkpt>
      <trkpt lat="41.691366" lon="2.461141">
        <ele>194.07</ele>
        <time>2016-02-13T04:01:19Z</time>
      </trkpt>
      <trkpt lat="41.691325" lon="2.461256">
        <ele>194.04</ele>
        <time>2016-02-13T04:01:39Z</time>
      </trkpt>
      <trkpt lat="41.691283" lon="2.461370">
        <ele>193.97</ele>
        <time>2016-02-13T04:01:59Z</time>
      </trkpt>
      <trkpt lat="41.691240" lon="2.461484">
        <ele>193.09</ele>
        <time>2016-02-13T04:02:19Z</time>
      </trkpt>
      <trkpt lat="41.691193" lon="2.461596">
        <ele>193.10</ele>
        <time>2016-02-13T04:02:39Z</time>
      </trkpt>
      <trkpt lat="41.691145" lon="2.461706">
        <ele>193.06</ele>
        <time>2016-02-13T04:02:59Z</time>
      </trkpt>
      <trkpt lat="41.691095" lon="2.461815">
        <ele>193.10</ele>
        <time>2016-02-13T04:03:19Z</time>
      </trkpt>
      <trkpt lat="41.691045" lon="2.461925">
        <ele>193.04</ele>
        <time>2016-02-13T04:03:39Z</time>
      </trkpt>
      <trkpt lat="41.690998" lon="2.462036">
        <ele>193.01</ele>
        <time>2016-02-13T04:03:59Z</time>
      </trkpt>
      <trkpt lat="41.690951" lon="2.462145">
        <ele>193.04</ele>
        <time>2016-02-13T04:04:19Z</time>
      </trkpt>
      <trkpt lat="41.690906" lon="2.462252">
        <ele>193.01</ele>
        <time>2016-02-13T04:04:39Z</time>
      </trkpt>
      <trkpt lat="41.690865" lon="2.462360">
        <ele>193.01</ele>
        <time>2016-02-13T04:04:59Z</time>
      </trkpt>
      <trkpt lat="41.690830" lon="2.462470">
        <ele>193.02</ele>
        <time>2016-02-13T04:05:19Z</time>
      </trkpt>
      <trkpt lat="41.690801" lon="2.462581">
        <ele>191.05</ele>
        <time>2016-02-13T04:05:39Z</time>
      </trkpt>
      <trkpt lat="41.690776" lon="2.462695">
        <ele>191.01</ele>
        <time>2016-02-13T04:05:59Z</time>
      </trkpt>
      <trkpt lat="41.690755" lon="2.462812">
        <ele>191.07</ele>
        <time>2016-02-13T04:06:19Z</time>
      </trkpt>
      <trkpt lat="41.690739" lon="2.462930">
        <ele>191.04</ele>
        <time>2016-02-13T04:06:39Z</time>
      </trkpt>
      <trkpt lat="41.690724" lon="2.463049">
        <ele>191.09</ele>
        <time>2016-02-13T04:06:59Z</time>
      </trkpt>
      <trkpt lat="41.690707" lon="2.463166">
        <ele>191.02</ele>
        <time>2016-02-13T04:07:19Z</time>
      </trkpt>
      <trkpt lat="41.690686" lon="2.463281">
        <ele>191.09</ele>
        <time>2016-02-13T04:07:39Z</time>
      </trkpt>
      <trkpt lat="41.690659" lon="2.463392">
        <ele>191.08</ele>
        <time>2016-02-13T04:07:59Z</time>
      </trkpt>
      <trkpt lat="41.690629" lon="2.463495">
        <ele>191.06</ele>
        <time>2016-02-13T04:08:19Z</time>
      </trkpt>
      <trkpt lat="41.690597" lon="2.463592">
        <ele>191.12</ele>
        <time>2016-02-13T04:08:39Z</time>
      </trkpt>
      <trkpt lat="41.690564" lon="2.463688">
        <ele>191.81</ele>
        <time>2016-02-13T04:08:59Z</time>
      </trkpt>
      <trkpt lat="41.690526" lon="2.463779">
        <ele>192.09</ele>
        <time>2016-02-13T04:09:19Z</time>
      </trkpt>
      <trkpt lat="41.690485" lon="2.463863">
        <ele>192.06</ele>
        <time>2016-02-13T04:09:39Z</time>
      </trkpt>
      <trkpt lat="41.690444" lon="2.463940">
        <ele>192.07</ele>
        <time>2016-02-13T04:09:59Z</time>
      </trkpt>
      <trkpt lat="41.690401" lon="2.464012">
        <ele>192.09</ele>
        <time>2016-02-13T04:10:19Z</time>
      </trkpt>
      <trkpt lat="41.690358" lon="2.464080">
        <ele>192.05</ele>
        <time>2016-02-13T04:10:39Z</time>
      </trkpt>
      <trkpt lat="41.690315" lon="2.464144">
        <ele>192.06</ele>
        <time>2016-02-13T04:10:59Z</time>
      </trkpt>
      <trkpt lat="41.690272" lon="2.464201">
        <ele>192.05</ele>
        <time>2016-02-13T04:11:19Z</time>
      </trkpt>
      <trkpt lat="41.690229" lon="2.464253">
        <ele>192.07</ele>
        <time>2016-02-13T04:11:39Z</time>
      </trkpt>
      <trkpt lat="41.690188" lon="2.464303">
        <ele>192.73</ele>
        <time>2016-02-13T04:11:59Z</time>
      </trkpt>
      <trkpt lat="41.690147" lon="2.464350">
        <ele>200.00</ele>
        <time>2016-02-13T04:12:19Z</time>
      </trkpt>
      <trkpt lat="41.690106" lon="2.464397">
        <ele>199.92</ele>
        <time>2016-02-13T04:12:39Z</time>
      </trkpt>
      <trkpt lat="41.690067" lon="2.464445">
        <ele>199.01</ele>
        <time>2016-02-13T04:12:59Z</time>
      </trkpt>
      <trkpt lat="41.690026" lon="2.464495">
        <ele>199.09</ele>
        <time>2016-02-13T04:13:19Z</time>
      </trkpt>
      <trkpt lat="41.689983" lon="2.464548">
        <ele>199.05</ele>
        <time>2016-02-13T04:13:39Z</time>
      </trkpt>
      <trkpt lat="41.689938" lon="2.464602">
        <ele>199.03</ele>
        <time>2016-02-13T04:13:59Z</time>
      </trkpt>
      <trkpt lat="41.689892" lon="2.464657">
        <ele>199.13</ele>
        <time>2016-02-13T04:14:19Z</time>
      </trkpt>
      <trkpt lat="41.689843" lon="2.464713">
        <ele>199.83</ele>
        <time>2016-02-13T04:14:39Z</time>
      </trkpt>
      <trkpt lat="41.689793" lon="2.464772">
        <ele>198.79</ele>
        <time>2016-02-13T04:14:59Z</time>
      </trkpt>
      <trkpt lat="41.689741" lon="2.464835">
        <ele>195.91</ele>
        <time>2016-02-13T04:15:19Z</time>
      </trkpt>
      <trkpt lat="41.689684" lon="2.464900">
        <ele>195.02</ele>
        <time>2016-02-13T04:15:39Z</time>
      </trkpt>
      <trkpt lat="41.689626" lon="2.464968">
        <ele>195.01</ele>
        <time>2016-02-13T04:15:59Z</time>
      </trkpt>
      <trkpt lat="41.689565" lon="2.465040">
        <ele>195.03</ele>
        <time>2016-02-13T04:16:19Z</time>
      </trkpt>
      <trkpt lat="41.689502" lon="2.465114">
        <ele>195.01</ele>
        <time>2016-02-13T04:16:39Z</time>
      </trkpt>
      <trkpt lat="41.689438" lon="2.465191">
        <ele>195.01</ele>
        <time>2016-02-13T04:16:59Z</time>
      </trkpt>
      <trkpt lat="41.689374" lon="2.465273">
        <ele>192.04</ele>
        <time>2016-02-13T04:17:19Z</time>
      </trkpt>
      <trkpt lat="41.689314" lon="2.465363">
        <ele>192.06</ele>
        <time>2016-02-13T04:17:39Z</time>
      </trkpt>
      <trkpt lat="41.689258" lon="2.465462">
        <ele>192.04</ele>
        <time>2016-02-13T04:17:59Z</time>
      </trkpt>
      <trkpt lat="41.689205" lon="2.465567">
        <ele>192.08</ele>
        <time>2016-02-13T04:18:19Z</time>
      </trkpt>
      <trkpt lat="41.689156" lon="2.465679">
        <ele>192.02</ele>
        <time>2016-02-13T04:18:39Z</time>
      </trkpt>
      <trkpt lat="41.689113" lon="2.465798">
        <ele>187.81</ele>
        <time>2016-02-13T04:18:59Z</time>
      </trkpt>
      <trkpt lat="41.689074" lon="2.465926">
        <ele>186.04</ele>
        <time>2016-02-13T04:19:19Z</time>
      </trkpt>
      <trkpt lat="41.689040" lon="2.466060">
        <ele>185.99</ele>
        <time>2016-02-13T04:19:39Z</time>
      </trkpt>
      <trkpt lat="41.689004" lon="2.466198">
        <ele>185.22</ele>
        <time>2016-02-13T04:19:59Z</time>
      </trkpt>
      <trkpt lat="41.688964" lon="2.466338">
        <ele>183.04</ele>
        <time>2016-02-13T04:20:19Z</time>
      </trkpt>
      <trkpt lat="41.688916" lon="2.466476">
        <ele>183.01</ele>
        <time>2016-02-13T04:20:39Z</time>
      </trkpt>
      <trkpt lat="41.688858" lon="2.466609">
        <ele>183.01</ele>
        <time>2016-02-13T04:20:59Z</time>
      </trkpt>
      <trkpt lat="41.688788" lon="2.466731">
        <ele>182.82</ele>
        <time>2016-02-13T04:21:19Z</time>
      </trkpt>
      <trkpt lat="41.688711" lon="2.466845">
        <ele>180.54</ele>
        <time>2016-02-13T04:21:39Z</time>
      </trkpt>
      <trkpt lat="41.688647" lon="2.466966">
        <ele>179.13</ele>
        <time>2016-02-13T04:21:59Z</time>
      </trkpt>
      <trkpt lat="41.688613" lon="2.467098">
        <ele>180.01</ele>
        <time>2016-02-13T04:22:19Z</time>
      </trkpt>
      <trkpt lat="41.688598" lon="2.467231">
        <ele>180.03</ele>
        <time>2016-02-13T04:22:39Z</time>
      </trkpt>
      <trkpt lat="41.688577" lon="2.467356">
        <ele>180.16</ele>
        <time>2016-02-13T04:22:59Z</time>
      </trkpt>
      <trkpt lat="41.688548" lon="2.467474">
        <ele>180.76</ele>
        <time>2016-02-13T04:23:19Z</time>
      </trkpt>
      <trkpt lat="41.688516" lon="2.467589">
        <ele>181.03</ele>
        <time>2016-02-13T04:23:39Z</time>
      </trkpt>
      <trkpt lat="41.688484" lon="2.467703">
        <ele>180.98</ele>
        <time>2016-02-13T04:23:59Z</time>
      </trkpt>
      <trkpt lat="41.688447" lon="2.467811">
        <ele>180.04</ele>
        <time>2016-02-13T04:24:19Z</time>
      </trkpt>
      <trkpt lat="41.688406" lon="2.467916">
        <ele>179.92</ele>
        <time>2016-02-13T04:24:39Z</time>
      </trkpt>
      <trkpt lat="41.688371" lon="2.468020">
        <ele>179.21</ele>
        <time>2016-02-13T04:24:59Z</time>
      </trkpt>
      <trkpt lat="41.688339" lon="2.468121">
        <ele>180.06</ele>
        <time>2016-02-13T04:25:19Z</time>
      </trkpt>
      <trkpt lat="41.688306" lon="2.468217">
        <ele>180.08</ele>
        <time>2016-02-13T04:25:39Z</time>
      </trkpt>
      <trkpt lat="41.688267" lon="2.468317">
        <ele>180.05</ele>
        <time>2016-02-13T04:25:59Z</time>
      </trkpt>
      <trkpt lat="41.688226" lon="2.468419">
        <ele>180.05</ele>
        <time>2016-02-13T04:26:19Z</time>
      </trkpt>
      <trkpt lat="41.688185" lon="2.468520">
        <ele>180.03</ele>
        <time>2016-02-13T04:26:39Z</time>
      </trkpt>
      <trkpt lat="41.688145" lon="2.468618">
        <ele>180.10</ele>
        <time>2016-02-13T04:26:59Z</time>
      </trkpt>
      <trkpt lat="41.688106" lon="2.468713">
        <ele>180.05</ele>
        <time>2016-02-13T04:27:19Z</time>
      </trkpt>
      <trkpt lat="41.688065" lon="2.468810">
        <ele>180.04</ele>
        <time>2016-02-13T04:27:39Z</time>
      </trkpt>
      <trkpt lat="41.688026" lon="2.468908">
        <ele>180.09</ele>
        <time>2016-02-13T04:27:59Z</time>
      </trkpt>
      <trkpt lat="41.687988" lon="2.469002">
        <ele>180.07</ele>
        <time>2016-02-13T04:28:19Z</time>
      </trkpt>
      <trkpt lat="41.687948" lon="2.469098">
        <ele>179.92</ele>
        <time>2016-02-13T04:28:39Z</time>
      </trkpt>
      <trkpt lat="41.687907" lon="2.469192">
        <ele>179.21</ele>
        <time>2016-02-13T04:28:59Z</time>
      </trkpt>
      <trkpt lat="41.687866" lon="2.469281">
        <ele>179.03</ele>
        <time>2016-02-13T04:29:19Z</time>
      </trkpt>
      <trkpt lat="41.687822" lon="2.469371">
        <ele>179.07</ele>
        <time>2016-02-13T04:29:39Z</time>
      </trkpt>
      <trkpt lat="41.687774" lon="2.469459">
        <ele>179.03</ele>
        <time>2016-02-13T04:29:59Z</time>
      </trkpt>
      <trkpt lat="41.687724" lon="2.469546">
        <ele>179.06</ele>
        <time>2016-02-13T04:30:19Z</time>
      </trkpt>
      <trkpt lat="41.687672" lon="2.469630">
        <ele>179.06</ele>
        <time>2016-02-13T04:30:39Z</time>
      </trkpt>
      <trkpt lat="41.687617" lon="2.469714">
        <ele>179.05</ele>
        <time>2016-02-13T04:30:59Z</time>
      </trkpt>
      <trkpt lat="41.687562" lon="2.469797">
        <ele>179.06</ele>
        <time>2016-02-13T04:31:19Z</time>
      </trkpt>
      <trkpt lat="41.687503" lon="2.469879">
        <ele>179.07</ele>
        <time>2016-02-13T04:31:39Z</time>
      </trkpt>
      <trkpt lat="41.687442" lon="2.469959">
        <ele>178.62</ele>
        <time>2016-02-13T04:31:59Z</time>
      </trkpt>
      <trkpt lat="41.687377" lon="2.470038">
        <ele>174.00</ele>
        <time>2016-02-13T04:32:19Z</time>
      </trkpt>
      <trkpt lat="41.687312" lon="2.470118">
        <ele>174.01</ele>
        <time>2016-02-13T04:32:39Z</time>
      </trkpt>
      <trkpt lat="41.687249" lon="2.470198">
        <ele>174.01</ele>
        <time>2016-02-13T04:32:59Z</time>
      </trkpt>
      <trkpt lat="41.687187" lon="2.470279">
        <ele>174.04</ele>
        <time>2016-02-13T04:33:19Z</time>
      </trkpt>
      <trkpt lat="41.687124" lon="2.470361">
        <ele>173.91</ele>
        <time>2016-02-13T04:33:39Z</time>
      </trkpt>
      <trkpt lat="41.687061" lon="2.470440">
        <ele>173.06</ele>
        <time>2016-02-13T04:33:59Z</time>
      </trkpt>
      <trkpt lat="41.686998" lon="2.470520">
        <ele>173.04</ele>
        <time>2016-02-13T04:34:19Z</time>
      </trkpt>
      <trkpt lat="41.686936" lon="2.470600">
        <ele>173.08</ele>
        <time>2016-02-13T04:34:39Z</time>
      </trkpt>
      <trkpt lat="41.686872" lon="2.470679">
        <ele>173.03</ele>
        <time>2016-02-13T04:34:59Z</time>
      </trkpt>
      <trkpt lat="41.686809" lon="2.470760">
        <ele>173.08</ele>
        <time>2016-02-13T04:35:19Z</time>
      </trkpt>
      <trkpt lat="41.686743" lon="2.470843">
        <ele>172.04</ele>
        <time>2016-02-13T04:35:39Z</time>
      </trkpt>
      <trkpt lat="41.686675" lon="2.470926">
        <ele>172.07</ele>
        <time>2016-02-13T04:35:59Z</time>
      </trkpt>
      <trkpt lat="41.686607" lon="2.471010">
        <ele>172.01</ele>
        <time>2016-02-13T04:36:19Z</time>
      </trkpt>
      <trkpt lat="41.686541" lon="2.471097">
        <ele>172.01</ele>
        <time>2016-02-13T04:36:39Z</time>
      </trkpt>
      <trkpt lat="41.686478" lon="2.471186">
        <ele>171.71</ele>
        <time>2016-02-13T04:36:59Z</time>
      </trkpt>
      <trkpt lat="41.686419" lon="2.471280">
        <ele>169.08</ele>
        <time>2016-02-13T04:37:19Z</time>
      </trkpt>
      <trkpt lat="41.686364" lon="2.471377">
        <ele>169.10</ele>
        <time>2016-02-13T04:37:39Z</time>
      </trkpt>
      <trkpt lat="41.686312" lon="2.471479">
        <ele>169.08</ele>
        <time>2016-02-13T04:37:59Z</time>
      </trkpt>
      <trkpt lat="41.686264" lon="2.471589">
        <ele>169.08</ele>
        <time>2016-02-13T04:38:19Z</time>
      </trkpt>
      <trkpt lat="41.686222" lon="2.471703">
        <ele>169.02</ele>
        <time>2016-02-13T04:38:39Z</time>
      </trkpt>
      <trkpt lat="41.686183" lon="2.471825">
        <ele>165.86</ele>
        <time>2016-02-13T04:38:59Z</time>
      </trkpt>
      <trkpt lat="41.686150" lon="2.471945">
        <ele>163.99</ele>
        <time>2016-02-13T04:39:19Z</time>
      </trkpt>
      <trkpt lat="41.686117" lon="2.472065">
        <ele>163.01</ele>
        <time>2016-02-13T04:39:39Z</time>
      </trkpt>
      <trkpt lat="41.686086" lon="2.472185">
        <ele>163.07</ele>
        <time>2016-02-13T04:39:59Z</time>
      </trkpt>
      <trkpt lat="41.686057" lon="2.472303">
        <ele>163.08</ele>
        <time>2016-02-13T04:40:19Z</time>
      </trkpt>
      <trkpt lat="41.686023" lon="2.472426">
        <ele>162.92</ele>
        <time>2016-02-13T04:40:39Z</time>
      </trkpt>
      <trkpt lat="41.685986" lon="2.472559">
        <ele>162.01</ele>
        <time>2016-02-13T04:40:59Z</time>
      </trkpt>
      <trkpt lat="41.685950" lon="2.472687">
        <ele>162.19</ele>
        <time>2016-02-13T04:41:19Z</time>
      </trkpt>
      <trkpt lat="41.685916" lon="2.472811">
        <ele>163.06</ele>
        <time>2016-02-13T04:41:39Z</time>
      </trkpt>
      <trkpt lat="41.685884" lon="2.472930">
        <ele>163.06</ele>
        <time>2016-02-13T04:41:59Z</time>
      </trkpt>
      <trkpt lat="41.685852" lon="2.473042">
        <ele>163.08</ele>
        <time>2016-02-13T04:42:19Z</time>
      </trkpt>
      <trkpt lat="41.685820" lon="2.473153">
        <ele>163.06</ele>
        <time>2016-02-13T04:42:39Z</time>
      </trkpt>
      <trkpt lat="41.685787" lon="2.473261">
        <ele>163.07</ele>
        <time>2016-02-13T04:42:59Z</time>
      </trkpt>
      <trkpt lat="41.685754" lon="2.473367">
        <ele>163.10</ele>
        <time>2016-02-13T04:43:19Z</time>
      </trkpt>
      <trkpt lat="41.685721" lon="2.473470">
        <ele>163.06</ele>
        <time>2016-02-13T04:43:39Z</time>
      </trkpt>
      <trkpt lat="41.685689" lon="2.473570">
        <ele>163.08</ele>
        <time>2016-02-13T04:43:59Z</time>
      </trkpt>
      <trkpt lat="41.685657" lon="2.473668">
        <ele>163.04</ele>
        <time>2016-02-13T04:44:19Z</time>
      </trkpt>
      <trkpt lat="41.685625" lon="2.473765">
        <ele>163.02</ele>
        <time>2016-02-13T04:44:39Z</time>
      </trkpt>
      <trkpt lat="41.685594" lon="2.473859">
        <ele>163.01</ele>
        <time>2016-02-13T04:44:59Z</time>
      </trkpt>
      <trkpt lat="41.685564" lon="2.473952">
        <ele>163.28</ele>
        <time>2016-02-13T04:45:19Z</time>
      </trkpt>
      <trkpt lat="41.685535" lon="2.474044">
        <ele>165.02</ele>
        <time>2016-02-13T04:45:39Z</time>
      </trkpt>
      <trkpt lat="41.685506" lon="2.474135">
        <ele>165.05</ele>
        <time>2016-02-13T04:45:59Z</time>
      </trkpt>
      <trkpt lat="41.685474" lon="2.474225">
        <ele>165.07</ele>
        <time>2016-02-13T04:46:19Z</time>
      </trkpt>
      <trkpt lat="41.685441" lon="2.474315">
        <ele>165.05</ele>
        <time>2016-02-13T04:46:39Z</time>
      </trkpt>
      <trkpt lat="41.685410" lon="2.474406">
        <ele>165.09</ele>
        <time>2016-02-13T04:46:59Z</time>
      </trkpt>
      <trkpt lat="41.685378" lon="2.474497">
        <ele>165.06</ele>
        <time>2016-02-13T04:47:19Z</time>
      </trkpt>
      <trkpt lat="41.685348" lon="2.474588">
        <ele>165.07</ele>
        <time>2016-02-13T04:47:39Z</time>
      </trkpt>
      <trkpt lat="41.685319" lon="2.474677">
        <ele>165.09</ele>
        <time>2016-02-13T04:47:59Z</time>
      </trkpt>
      <trkpt lat="41.685290" lon="2.474765">
        <ele>165.06</ele>
        <time>2016-02-13T04:48:19Z</time>
      </trkpt>
      <trkpt lat="41.685258" lon="2.474851">
        <ele>165.03</ele>
        <time>2016-02-13T04:48:39Z</time>
      </trkpt>
      <trkpt lat="41.685219" lon="2.474927">
        <ele>164.01</ele>
        <time>2016-02-13T04:48:59Z</time>
      </trkpt>
      <trkpt lat="41.685169" lon="2.474986">
        <ele>164.04</ele>
        <time>2016-02-13T04:49:19Z</time>
      </trkpt>
      <trkpt lat="41.685114" lon="2.475030">
        <ele>164.08</ele>
        <time>2016-02-13T04:49:39Z</time>
      </trkpt>
      <trkpt lat="41.685057" lon="2.475064">
        <ele>164.01</ele>
        <time>2016-02-13T04:49:59Z</time>
      </trkpt>
      <trkpt lat="41.684999" lon="2.475096">
        <ele>164.08</ele>
        <time>2016-02-13T04:50:19Z</time>
      </trkpt>
      <trkpt lat="41.684944" lon="2.475134">
        <ele>164.08</ele>
        <time>2016-02-13T04:50:39Z</time>
      </trkpt>
      <trkpt lat="41.684892" lon="2.475176">
        <ele>164.06</ele>
        <time>2016-02-13T04:50:59Z</time>
      </trkpt>
      <trkpt lat="41.684838" lon="2.475204">
        <ele>164.07</ele>
        <time>2016-02-13T04:51:19Z</time>
      </trkpt>
      <trkpt lat="41.684782" lon="2.475232">
        <ele>164.08</ele>
        <time>2016-02-13T04:51:39Z</time>
      </trkpt>
      <trkpt lat="41.684731" lon="2.475268">
        <ele>164.02</ele>
        <time>2016-02-13T04:51:59Z</time>
      </trkpt>
      <trkpt lat="41.684679" lon="2.475299">
        <ele>164.08</ele>
        <time>2016-02-13T04:52:19Z</time>
      </trkpt>
      <trkpt lat="41.684620" lon="2.475311">
        <ele>164.01</ele>
        <time>2016-02-13T04:52:39Z</time>
      </trkpt>
      <trkpt lat="41.684556" lon="2.475311">
        <ele>164.01</ele>
        <time>2016-02-13T04:52:59Z</time>
      </trkpt>
      <trkpt lat="41.684488" lon="2.475304">
        <ele>164.02</ele>
        <time>2016-02-13T04:53:19Z</time>
      </trkpt>
      <trkpt lat="41.684417" lon="2.475294">
        <ele>164.07</ele>
        <time>2016-02-13T04:53:39Z</time>
      </trkpt>
      <trkpt lat="41.684345" lon="2.475286">
        <ele>164.03</ele>
        <time>2016-02-13T04:53:59Z</time>
      </trkpt>
      <trkpt lat="41.684272" lon="2.475279">
        <ele>164.06</ele>
        <time>2016-02-13T04:54:19Z</time>
      </trkpt>
      <trkpt lat="41.684199" lon="2.475273">
        <ele>164.05</ele>
        <time>2016-02-13T04:54:39Z</time>
      </trkpt>
      <trkpt lat="41.684127" lon="2.475270">
        <ele>164.04</ele>
        <time>2016-02-13T04:54:59Z</time>
      </trkpt>
      <trkpt lat="41.684054" lon="2.475266">
        <ele>163.79</ele>
        <time>2016-02-13T04:55:19Z</time>
      </trkpt>
      <trkpt lat="41.683982" lon="2.475260">
        <ele>161.06</ele>
        <time>2016-02-13T04:55:39Z</time>
      </trkpt>
      <trkpt lat="41.683909" lon="2.475256">
        <ele>161.05</ele>
        <time>2016-02-13T04:55:59Z</time>
      </trkpt>
      <trkpt lat="41.683836" lon="2.475254">
        <ele>161.09</ele>
        <time>2016-02-13T04:56:19Z</time>
      </trkpt>
      <trkpt lat="41.683763" lon="2.475252">
        <ele>161.02</ele>
        <time>2016-02-13T04:56:39Z</time>
      </trkpt>
      <trkpt lat="41.683690" lon="2.475250">
        <ele>160.91</ele>
        <time>2016-02-13T04:56:59Z</time>
      </trkpt>
      <trkpt lat="41.683616" lon="2.475248">
        <ele>160.04</ele>
        <time>2016-02-13T04:57:19Z</time>
      </trkpt>
      <trkpt lat="41.683542" lon="2.475245">
        <ele>160.10</ele>
        <time>2016-02-13T04:57:39Z</time>
      </trkpt>
      <trkpt lat="41.683465" lon="2.475240">
        <ele>160.07</ele>
        <time>2016-02-13T04:57:59Z</time>
      </trkpt>
      <trkpt lat="41.683387" lon="2.475234">
        <ele>160.06</ele>
        <time>2016-02-13T04:58:19Z</time>
      </trkpt>
      <trkpt lat="41.683310" lon="2.475230">
        <ele>159.85</ele>
        <time>2016-02-13T04:58:39Z</time>
      </trkpt>
      <trkpt lat="41.683235" lon="2.475222">
        <ele>158.03</ele>
        <time>2016-02-13T04:58:59Z</time>
      </trkpt>
      <trkpt lat="41.683162" lon="2.475209">
        <ele>158.07</ele>
        <time>2016-02-13T04:59:19Z</time>
      </trkpt>
      <trkpt lat="41.683091" lon="2.475209">
        <ele>158.07</ele>
        <time>2016-02-13T04:59:39Z</time>
      </trkpt>
      <trkpt lat="41.683025" lon="2.475237">
        <ele>158.01</ele>
        <time>2016-02-13T04:59:59Z</time>
      </trkpt>
      <trkpt lat="41.682967" lon="2.475289">
        <ele>158.07</ele>
        <time>2016-02-13T05:00:19Z</time>
      </trkpt>
      <trkpt lat="41.682913" lon="2.475351">
        <ele>157.01</ele>
        <time>2016-02-13T05:00:39Z</time>
      </trkpt>
      <trkpt lat="41.682863" lon="2.475420">
        <ele>157.01</ele>
        <time>2016-02-13T05:00:59Z</time>
      </trkpt>
      <trkpt lat="41.682821" lon="2.475498">
        <ele>157.04</ele>
        <time>2016-02-13T05:01:19Z</time>
      </trkpt>
      <trkpt lat="41.682790" lon="2.475584">
        <ele>157.07</ele>
        <time>2016-02-13T05:01:39Z</time>
      </trkpt>
      <trkpt lat="41.682769" lon="2.475675">
        <ele>157.01</ele>
        <time>2016-02-13T05:01:59Z</time>
      </trkpt>
      <trkpt lat="41.682758" lon="2.475767">
        <ele>157.06</ele>
        <time>2016-02-13T05:02:19Z</time>
      </trkpt>
      <trkpt lat="41.682752" lon="2.475858">
        <ele>157.06</ele>
        <time>2016-02-13T05:02:39Z</time>
      </trkpt>
      <trkpt lat="41.682750" lon="2.475953">
        <ele>157.02</ele>
        <time>2016-02-13T05:02:59Z</time>
      </trkpt>
      <trkpt lat="41.682751" lon="2.476050">
        <ele>157.01</ele>
        <time>2016-02-13T05:03:19Z</time>
      </trkpt>
      <trkpt lat="41.682751" lon="2.476148">
        <ele>157.10</ele>
        <time>2016-02-13T05:03:39Z</time>
      </trkpt>
      <trkpt lat="41.682753" lon="2.476246">
        <ele>157.03</ele>
        <time>2016-02-13T05:03:59Z</time>
      </trkpt>
      <trkpt lat="41.682754" lon="2.476342">
        <ele>157.09</ele>
        <time>2016-02-13T05:04:19Z</time>
      </trkpt>
      <trkpt lat="41.682755" lon="2.476439">
        <ele>157.02</ele>
        <time>2016-02-13T05:04:39Z</time>
      </trkpt>
      <trkpt lat="41.682756" lon="2.476536">
        <ele>157.01</ele>
        <time>2016-02-13T05:04:59Z</time>
      </trkpt>
      <trkpt lat="41.682761" lon="2.476633">
        <ele>156.84</ele>
        <time>2016-02-13T05:05:19Z</time>
      </trkpt>
      <trkpt lat="41.682765" lon="2.476729">
        <ele>155.03</ele>
        <time>2016-02-13T05:05:39Z</time>
      </trkpt>
      <trkpt lat="41.682765" lon="2.476824">
        <ele>155.05</ele>
        <time>2016-02-13T05:05:59Z</time>
      </trkpt>
      <trkpt lat="41.682763" lon="2.476920">
        <ele>155.07</ele>
        <time>2016-02-13T05:06:19Z</time>
      </trkpt>
      <trkpt lat="41.682761" lon="2.477017">
        <ele>155.05</ele>
        <time>2016-02-13T05:06:39Z</time>
      </trkpt>
      <trkpt lat="41.682758" lon="2.477116">
        <ele>155.08</ele>
        <time>2016-02-13T05:06:59Z</time>
      </trkpt>
      <trkpt lat="41.682757" lon="2.477213">
        <ele>155.02</ele>
        <time>2016-02-13T05:07:19Z</time>
      </trkpt>
      <trkpt lat="41.682756" lon="2.477309">
        <ele>155.03</ele>
        <time>2016-02-13T05:07:39Z</time>
      </trkpt>
      <trkpt lat="41.682755" lon="2.477407">
        <ele>155.10</ele>
        <time>2016-02-13T05:07:59Z</time>
      </trkpt>
      <trkpt lat="41.682754" lon="2.477507">
        <ele>155.03</ele>
        <time>2016-02-13T05:08:19Z</time>
      </trkpt>
      <trkpt lat="41.682753" lon="2.477606">
        <ele>155.02</ele>
        <time>2016-02-13T05:08:39Z</time>
      </trkpt>
      <trkpt lat="41.682752" lon="2.477704">
        <ele>155.01</ele>
        <time>2016-02-13T05:08:59Z</time>
      </trkpt>
      <trkpt lat="41.682750" lon="2.477800">
        <ele>155.08</ele>
        <time>2016-02-13T05:09:19Z</time>
      </trkpt>
      <trkpt lat="41.682751" lon="2.477896">
        <ele>155.05</ele>
        <time>2016-02-13T05:09:39Z</time>
      </trkpt>
      <trkpt lat="41.682753" lon="2.477992">
        <ele>155.04</ele>
        <time>2016-02-13T05:09:59Z</time>
      </trkpt>
      <trkpt lat="41.682754" lon="2.478087">
        <ele>155.05</ele>
        <time>2016-02-13T05:10:19Z</time>
      </trkpt>
      <trkpt lat="41.682750" lon="2.478185">
        <ele>155.07</ele>
        <time>2016-02-13T05:10:39Z</time>
      </trkpt>
      <trkpt lat="41.682745" lon="2.478281">
        <ele>155.06</ele>
        <time>2016-02-13T05:10:59Z</time>
      </trkpt>
      <trkpt lat="41.682741" lon="2.478379">
        <ele>155.08</ele>
        <time>2016-02-13T05:11:19Z</time>
      </trkpt>
      <trkpt lat="41.682740" lon="2.478475">
        <ele>155.04</ele>
        <time>2016-02-13T05:11:39Z</time>
      </trkpt>
      <trkpt lat="41.682738" lon="2.478574">
        <ele>155.04</ele>
        <time>2016-02-13T05:11:59Z</time>
      </trkpt>
      <trkpt lat="41.682737" lon="2.478674">
        <ele>155.02</ele>
        <time>2016-02-13T05:12:19Z</time>
      </trkpt>
      <trkpt lat="41.682735" lon="2.478774">
        <ele>155.02</ele>
        <time>2016-02-13T05:12:39Z</time>
      </trkpt>
      <trkpt lat="41.682733" lon="2.478875">
        <ele>155.01</ele>
        <time>2016-02-13T05:12:59Z</time>
      </trkpt>
      <trkpt lat="41.682733" lon="2.478975">
        <ele>155.07</ele>
        <time>2016-02-13T05:13:19Z</time>
      </trkpt>
      <trkpt lat="41.682733" lon="2.479076">
        <ele>155.04</ele>
        <time>2016-02-13T05:13:39Z</time>
      </trkpt>
      <trkpt lat="41.682734" lon="2.479176">
        <ele>155.03</ele>
        <time>2016-02-13T05:13:59Z</time>
      </trkpt>
      <trkpt lat="41.682735" lon="2.479272">
        <ele>155.06</ele>
        <time>2016-02-13T05:14:19Z</time>
      </trkpt>
      <trkpt lat="41.682734" lon="2.479362">
        <ele>155.02</ele>
        <time>2016-02-13T05:14:39Z</time>
      </trkpt>
      <trkpt lat="41.682730" lon="2.479450">
        <ele>155.03</ele>
        <time>2016-02-13T05:14:59Z</time>
      </trkpt>
      <trkpt lat="41.682721" lon="2.479541">
        <ele>155.03</ele>
        <time>2016-02-13T05:15:19Z</time>
      </trkpt>
      <trkpt lat="41.682714" lon="2.479635">
        <ele>155.05</ele>
        <time>2016-02-13T05:15:39Z</time>
      </trkpt>
      <trkpt lat="41.682712" lon="2.479730">
        <ele>155.07</ele>
        <time>2016-02-13T05:15:59Z</time>
      </trkpt>
      <trkpt lat="41.682711" lon="2.479826">
        <ele>155.03</ele>
        <time>2016-02-13T05:16:19Z</time>
      </trkpt>
      <trkpt lat="41.682711" lon="2.479922">
        <ele>155.02</ele>
        <time>2016-02-13T05:16:39Z</time>
      </trkpt>
      <trkpt lat="41.682710" lon="2.480019">
        <ele>155.01</ele>
        <time>2016-02-13T05:16:59Z</time>
      </trkpt>
      <trkpt lat="41.682710" lon="2.480115">
        <ele>155.07</ele>
        <time>2016-02-13T05:17:19Z</time>
      </trkpt>
      <trkpt lat="41.682710" lon="2.480210">
        <ele>155.10</ele>
        <time>2016-02-13T05:17:39Z</time>
      </trkpt>
      <trkpt lat="41.682708" lon="2.480303">
        <ele>155.05</ele>
        <time>2016-02-13T05:17:59Z</time>
      </trkpt>
      <trkpt lat="41.682703" lon="2.480385">
        <ele>155.04</ele>
        <time>2016-02-13T05:18:19Z</time>
      </trkpt>
      <trkpt lat="41.682687" lon="2.480449">
        <ele>155.09</ele>
        <time>2016-02-13T05:18:39Z</time>
      </trkpt>
      <trkpt lat="41.682660" lon="2.480501">
        <ele>155.03</ele>
        <time>2016-02-13T05:18:59Z</time>
      </trkpt>
      <trkpt lat="41.682630" lon="2.480546">
        <ele>155.05</ele>
        <time>2016-02-13T05:19:19Z</time>
      </trkpt>
      <trkpt lat="41.682600" lon="2.480585">
        <ele>155.02</ele>
        <time>2016-02-13T05:19:39Z</time>
      </trkpt>
      <trkpt lat="41.682570" lon="2.480615">
        <ele>155.04</ele>
        <time>2016-02-13T05:19:59Z</time>
      </trkpt>
      <trkpt lat="41.682533" lon="2.480634">
        <ele>155.02</ele>
        <time>2016-02-13T05:20:19Z</time>
      </trkpt>
      <trkpt lat="41.682488" lon="2.480649">
        <ele>155.02</ele>
        <time>2016-02-13T05:20:39Z</time>
      </trkpt>
      <trkpt lat="41.682436" lon="2.480663">
        <ele>154.91</ele>
        <time>2016-02-13T05:20:59Z</time>
      </trkpt>
      <trkpt lat="41.682383" lon="2.480683">
        <ele>154.01</ele>
        <time>2016-02-13T05:21:19Z</time>
      </trkpt>
      <trkpt lat="41.682337" lon="2.480719">
        <ele>154.07</ele>
        <time>2016-02-13T05:21:39Z</time>
      </trkpt>
      <trkpt lat="41.682306" lon="2.480777">
        <ele>153.94</ele>
        <time>2016-02-13T05:21:59Z</time>
      </trkpt>
      <trkpt lat="41.682295" lon="2.480842">
        <ele>153.04</ele>
        <time>2016-02-13T05:22:19Z</time>
      </trkpt>
      <trkpt lat="41.682299" lon="2.480912">
        <ele>153.07</ele>
        <time>2016-02-13T05:22:39Z</time>
      </trkpt>
      <trkpt lat="41.682309" lon="2.480989">
        <ele>153.05</ele>
        <time>2016-02-13T05:22:59Z</time>
      </trkpt>
      <trkpt lat="41.682319" lon="2.481071">
        <ele>153.07</ele>
        <time>2016-02-13T05:23:19Z</time>
      </trkpt>
      <trkpt lat="41.682331" lon="2.481153">
        <ele>153.04</ele>
        <time>2016-02-13T05:23:39Z</time>
      </trkpt>
      <trkpt lat="41.682345" lon="2.481234">
        <ele>153.09</ele>
        <time>2016-02-13T05:23:59Z</time>
      </trkpt>
      <trkpt lat="41.682362" lon="2.481317">
        <ele>153.01</ele>
        <time>2016-02-13T05:24:19Z</time>
      </trkpt>
      <trkpt lat="41.682375" lon="2.481406">
        <ele>153.03</ele>
        <time>2016-02-13T05:24:39Z</time>
      </trkpt>
      <trkpt lat="41.682389" lon="2.481493">
        <ele>153.01</ele>
        <time>2016-02-13T05:24:59Z</time>
      </trkpt>
      <trkpt lat="41.682402" lon="2.481581">
        <ele>153.05</ele>
        <time>2016-02-13T05:25:19Z</time>
      </trkpt>
      <trkpt lat="41.682416" lon="2.481671">
        <ele>152.02</ele>
        <time>2016-02-13T05:25:39Z</time>
      </trkpt>
      <trkpt lat="41.682430" lon="2.481764">
        <ele>152.05</ele>
        <time>2016-02-13T05:25:59Z</time>
      </trkpt>
      <trkpt lat="41.682443" lon="2.481859">
        <ele>152.01</ele>
        <time>2016-02-13T05:26:19Z</time>
      </trkpt>
      <trkpt lat="41.682458" lon="2.481953">
        <ele>152.04</ele>
        <time>2016-02-13T05:26:39Z</time>
      </trkpt>
      <trkpt lat="41.682473" lon="2.482045">
        <ele>152.04</ele>
        <time>2016-02-13T05:26:59Z</time>
      </trkpt>
      <trkpt lat="41.682487" lon="2.482137">
        <ele>152.08</ele>
        <time>2016-02-13T05:27:19Z</time>
      </trkpt>
      <trkpt lat="41.682501" lon="2.482232">
        <ele>152.07</ele>
        <time>2016-02-13T05:27:39Z</time>
      </trkpt>
      <trkpt lat="41.682513" lon="2.482328">
        <ele>152.02</ele>
        <time>2016-02-13T05:27:59Z</time>
      </trkpt>
      <trkpt lat="41.682526" lon="2.482423">
        <ele>152.01</ele>
        <time>2016-02-13T05:28:19Z</time>
      </trkpt>
      <trkpt lat="41.682540" lon="2.482518">
        <ele>152.02</ele>
        <time>2016-02-13T05:28:39Z</time>
      </trkpt>
      <trkpt lat="41.682553" lon="2.482614">
        <ele>152.01</ele>
        <time>2016-02-13T05:28:59Z</time>
      </trkpt>
      <trkpt lat="41.682567" lon="2.482706">
        <ele>152.04</ele>
        <time>2016-02-13T05:29:19Z</time>
      </trkpt>
      <trkpt lat="41.682581" lon="2.482795">
        <ele>152.05</ele>
        <time>2016-02-13T05:29:39Z</time>
      </trkpt>
      <trkpt lat="41.682597" lon="2.482883">
        <ele>152.09</ele>
        <time>2016-02-13T05:29:59Z</time>
      </trkpt>
      <trkpt lat="41.682611" lon="2.482971">
        <ele>152.05</ele>
        <time>2016-02-13T05:30:19Z</time>
      </trkpt>
      <trkpt lat="41.682626" lon="2.483060">
        <ele>152.10</ele>
        <time>2016-02-13T05:30:39Z</time>
      </trkpt>
      <trkpt lat="41.682639" lon="2.483150">
        <ele>152.01</ele>
        <time>2016-02-13T05:30:59Z</time>
      </trkpt>
      <trkpt lat="41.682653" lon="2.483239">
        <ele>152.03</ele>
        <time>2016-02-13T05:31:19Z</time>
      </trkpt>
      <trkpt lat="41.682668" lon="2.483327">
        <ele>152.06</ele>
        <time>2016-02-13T05:31:39Z</time>
      </trkpt>
      <trkpt lat="41.682682" lon="2.483418">
        <ele>152.03</ele>
        <time>2016-02-13T05:31:59Z</time>
      </trkpt>
      <trkpt lat="41.682694" lon="2.483513">
        <ele>152.09</ele>
        <time>2016-02-13T05:32:19Z</time>
      </trkpt>
      <trkpt lat="41.682707" lon="2.483608">
        <ele>152.02</ele>
        <time>2016-02-13T05:32:39Z</time>
      </trkpt>
      <trkpt lat="41.682720" lon="2.483703">
        <ele>152.01</ele>
        <time>2016-02-13T05:32:59Z</time>
      </trkpt>
      <trkpt lat="41.682737" lon="2.483798">
        <ele>152.09</ele>
        <time>2016-02-13T05:33:19Z</time>
      </trkpt>
      <trkpt lat="41.682756" lon="2.483892">
        <ele>152.01</ele>
        <time>2016-02-13T05:33:39Z</time>
      </trkpt>
      <trkpt lat="41.682773" lon="2.483985">
        <ele>152.08</ele>
        <time>2016-02-13T05:33:59Z</time>
      </trkpt>
      <trkpt lat="41.682788" lon="2.484078">
        <ele>152.09</ele>
        <time>2016-02-13T05:34:19Z</time>
      </trkpt>
      <trkpt lat="41.682803" lon="2.484159">
        <ele>152.10</ele>
        <time>2016-02-13T05:34:39Z</time>
      </trkpt>
      <trkpt lat="41.682812" lon="2.484228">
        <ele>152.04</ele>
        <time>2016-02-13T05:34:59Z</time>
      </trkpt>
      <trkpt lat="41.682816" lon="2.484283">
        <ele>151.92</ele>
        <time>2016-02-13T05:35:19Z</time>
      </trkpt>
      <trkpt lat="41.682822" lon="2.484338">
        <ele>151.05</ele>
        <time>2016-02-13T05:35:39Z</time>
      </trkpt>
      <trkpt lat="41.682834" lon="2.484412">
        <ele>151.05</ele>
        <time>2016-02-13T05:35:59Z</time>
      </trkpt>
      <trkpt lat="41.682850" lon="2.484492">
        <ele>151.05</ele>
        <time>2016-02-13T05:36:19Z</time>
      </trkpt>
      <trkpt lat="41.682863" lon="2.484582">
        <ele>151.01</ele>
        <time>2016-02-13T05:36:39Z</time>
      </trkpt>
      <trkpt lat="41.682875" lon="2.484676">
        <ele>151.01</ele>
        <time>2016-02-13T05:36:59Z</time>
      </trkpt>
      <trkpt lat="41.682889" lon="2.484776">
        <ele>151.10</ele>
        <time>2016-02-13T05:37:19Z</time>
      </trkpt>
      <trkpt lat="41.682902" lon="2.484882">
        <ele>151.08</ele>
        <time>2016-02-13T05:37:39Z</time>
      </trkpt>
      <trkpt lat="41.682917" lon="2.484992">
        <ele>151.10</ele>
        <time>2016-02-13T05:37:59Z</time>
      </trkpt>
      <trkpt lat="41.682935" lon="2.485099">
        <ele>151.08</ele>
        <time>2016-02-13T05:38:19Z</time>
      </trkpt>
      <trkpt lat="41.682951" lon="2.485212">
        <ele>150.93</ele>
        <time>2016-02-13T05:38:39Z</time>
      </trkpt>
      <trkpt lat="41.682964" lon="2.485323">
        <ele>150.02</ele>
        <time>2016-02-13T05:38:59Z</time>
      </trkpt>
      <trkpt lat="41.682979" lon="2.485430">
        <ele>150.07</ele>
        <time>2016-02-13T05:39:19Z</time>
      </trkpt>
      <trkpt lat="41.682996" lon="2.485534">
        <ele>150.10</ele>
        <time>2016-02-13T05:39:39Z</time>
      </trkpt>
      <trkpt lat="41.683011" lon="2.485642">
        <ele>150.05</ele>
        <time>2016-02-13T05:39:59Z</time>
      </trkpt>
      <trkpt lat="41.683026" lon="2.485752">
        <ele>150.03</ele>
        <time>2016-02-13T05:40:19Z</time>
      </trkpt>
      <trkpt lat="41.683046" lon="2.485859">
        <ele>150.02</ele>
        <time>2016-02-13T05:40:39Z</time>
      </trkpt>
      <trkpt lat="41.683069" lon="2.485966">
        <ele>150.01</ele>
        <time>2016-02-13T05:40:59Z</time>
      </trkpt>
      <trkpt lat="41.683100" lon="2.486066">
        <ele>150.04</ele>
        <time>2016-02-13T05:41:19Z</time>
      </trkpt>
      <trkpt lat="41.683130" lon="2.486161">
        <ele>150.02</ele>
        <time>2016-02-13T05:41:39Z</time>
      </trkpt>
      <trkpt lat="41.683160" lon="2.486242">
        <ele>149.96</ele>
        <time>2016-02-13T05:41:59Z</time>
      </trkpt>
      <trkpt lat="41.683192" lon="2.486321">
        <ele>149.03</ele>
        <time>2016-02-13T05:42:19Z</time>
      </trkpt>
      <trkpt lat="41.683223" lon="2.486401">
        <ele>149.01</ele>
        <time>2016-02-13T05:42:39Z</time>
      </trkpt>
      <trkpt lat="41.683251" lon="2.486490">
        <ele>149.07</ele>
        <time>2016-02-13T05:42:59Z</time>
      </trkpt>
      <trkpt lat="41.683279" lon="2.486581">
        <ele>149.05</ele>
        <time>2016-02-13T05:43:19Z</time>
      </trkpt>
      <trkpt lat="41.683308" lon="2.486672">
        <ele>149.04</ele>
        <time>2016-02-13T05:43:39Z</time>
      </trkpt>
      <trkpt lat="41.683340" lon="2.486761">
        <ele>149.07</ele>
        <time>2016-02-13T05:43:59Z</time>
      </trkpt>
      <trkpt lat="41.683372" lon="2.486854">
        <ele>149.03</ele>
        <time>2016-02-13T05:44:19Z</time>
      </trkpt>
      <trkpt lat="41.683407" lon="2.486945">
        <ele>149.02</ele>
        <time>2016-02-13T05:44:39Z</time>
      </trkpt>
      <trkpt lat="41.683442" lon="2.487035">
        <ele>149.01</ele>
        <time>2016-02-13T05:44:59Z</time>
      </trkpt>
      <trkpt lat="41.683473" lon="2.487125">
        <ele>149.00</ele>
        <time>2016-02-13T05:45:19Z</time>
      </trkpt>
      <trkpt lat="41.683505" lon="2.487214">
        <ele>148.19</ele>
        <time>2016-02-13T05:45:39Z</time>
      </trkpt>
      <trkpt lat="41.683535" lon="2.487307">
        <ele>148.03</ele>
        <time>2016-02-13T05:45:59Z</time>
      </trkpt>
      <trkpt lat="41.683565" lon="2.487399">
        <ele>148.05</ele>
        <time>2016-02-13T05:46:19Z</time>
      </trkpt>
      <trkpt lat="41.683595" lon="2.487489">
        <ele>148.09</ele>
        <time>2016-02-13T05:46:39Z</time>
      </trkpt>
      <trkpt lat="41.683627" lon="2.487581">
        <ele>148.10</ele>
        <time>2016-02-13T05:46:59Z</time>
      </trkpt>
      <trkpt lat="41.683660" lon="2.487672">
        <ele>148.08</ele>
        <time>2016-02-13T05:47:19Z</time>
      </trkpt>
      <trkpt lat="41.683690" lon="2.487763">
        <ele>148.02</ele>
        <time>2016-02-13T05:47:39Z</time>
      </trkpt>
      <trkpt lat="41.683721" lon="2.487854">
        <ele>148.03</ele>
        <time>2016-02-13T05:47:59Z</time>
      </trkpt>
      <trkpt lat="41.683749" lon="2.487932">
        <ele>148.00</ele>
        <time>2016-02-13T05:48:19Z</time>
      </trkpt>
      <trkpt lat="41.683762" lon="2.487996">
        <ele>148.02</ele>
        <time>2016-02-13T05:48:39Z</time>
      </trkpt>
      <trkpt lat="41.683763" lon="2.488035">
        <ele>147.01</ele>
        <time>2016-02-13T05:48:59Z</time>
      </trkpt>
      <trkpt lat="41.683747" lon="2.488062">
        <ele>147.08</ele>
        <time>2016-02-13T05:49:19Z</time>
      </trkpt>
    </trkseg>
  </trk>
</gpx>
